<?xml version="1.0" encoding="UTF-8" standalone="no" ?>
<gpx xmlns="http://www.topografix.com/GPX/1/1" xmlns:xsi="http://www.w3.org/2001/XMLSchema-instance" xsi:schemaLocation="http://www.topografix.com/GPX/1/1 http://www.topografix.com/GPX/1/1/gpx.xsd" version="1.1" creator="VisuGPX - https://www.visugpx.com">
  <metadata>
    <name>Circuit des deux demis quintaux</name>
    <desc><![CDATA[Terrain encore sec et météo de rêve. Mais quand va t on sortir de l\'été???]]></desc>
  </metadata>
  <trk>
    <name><![CDATA[Rue Antoine Coysevox]]></name>
    <desc><![CDATA[]]></desc>
    <trkseg>
      <trkpt lat="47.518" lon="6.77488">
        <ele>406.4</ele>
        <time>2014-10-31T12:47:07.000Z</time>
      </trkpt>
      <trkpt lat="47.51802" lon="6.77486">
        <ele>405.2</ele>
        <time>2014-10-31T12:47:08.000Z</time>
      </trkpt>
      <trkpt lat="47.51801" lon="6.77471">
        <ele>378.4</ele>
        <time>2014-10-31T12:47:09.000Z</time>
      </trkpt>
      <trkpt lat="47.518" lon="6.77478">
        <ele>394.4</ele>
        <time>2014-10-31T12:47:25.000Z</time>
      </trkpt>
      <trkpt lat="47.518" lon="6.77478">
        <ele>394.5</ele>
        <time>2014-10-31T12:47:26.000Z</time>
      </trkpt>
      <trkpt lat="47.51804" lon="6.77481">
        <ele>390.3</ele>
        <time>2014-10-31T12:47:37.000Z</time>
      </trkpt>
      <trkpt lat="47.51805" lon="6.77481">
        <ele>391.2</ele>
        <time>2014-10-31T12:47:38.000Z</time>
      </trkpt>
      <trkpt lat="47.51802" lon="6.77476">
        <ele>364.2</ele>
        <time>2014-10-31T12:48:51.000Z</time>
      </trkpt>
      <trkpt lat="47.51802" lon="6.77473">
        <ele>347.9</ele>
        <time>2014-10-31T12:48:54.000Z</time>
      </trkpt>
      <trkpt lat="47.51804" lon="6.77468">
        <ele>362.1</ele>
        <time>2014-10-31T12:49:13.000Z</time>
      </trkpt>
      <trkpt lat="47.51804" lon="6.77468">
        <ele>362.3</ele>
        <time>2014-10-31T12:49:14.000Z</time>
      </trkpt>
      <trkpt lat="47.51804" lon="6.77474">
        <ele>377.1</ele>
        <time>2014-10-31T12:49:38.000Z</time>
      </trkpt>
      <trkpt lat="47.51805" lon="6.77475">
        <ele>379.2</ele>
        <time>2014-10-31T12:49:39.000Z</time>
      </trkpt>
      <trkpt lat="47.51807" lon="6.77478">
        <ele>380.9</ele>
        <time>2014-10-31T12:49:40.000Z</time>
      </trkpt>
      <trkpt lat="47.51808" lon="6.77482">
        <ele>381.7</ele>
        <time>2014-10-31T12:49:41.000Z</time>
      </trkpt>
      <trkpt lat="47.51807" lon="6.77485">
        <ele>383.6</ele>
        <time>2014-10-31T12:49:42.000Z</time>
      </trkpt>
      <trkpt lat="47.51805" lon="6.77488">
        <ele>385.1</ele>
        <time>2014-10-31T12:49:43.000Z</time>
      </trkpt>
      <trkpt lat="47.51803" lon="6.7749">
        <ele>386.4</ele>
        <time>2014-10-31T12:49:44.000Z</time>
      </trkpt>
      <trkpt lat="47.51799" lon="6.77491">
        <ele>387.2</ele>
        <time>2014-10-31T12:49:45.000Z</time>
      </trkpt>
      <trkpt lat="47.51796" lon="6.77492">
        <ele>388.3</ele>
        <time>2014-10-31T12:49:46.000Z</time>
      </trkpt>
      <trkpt lat="47.51792" lon="6.77492">
        <ele>389</ele>
        <time>2014-10-31T12:49:47.000Z</time>
      </trkpt>
      <trkpt lat="47.51789" lon="6.77491">
        <ele>389.7</ele>
        <time>2014-10-31T12:49:48.000Z</time>
      </trkpt>
      <trkpt lat="47.51785" lon="6.77489">
        <ele>390.1</ele>
        <time>2014-10-31T12:49:49.000Z</time>
      </trkpt>
      <trkpt lat="47.51782" lon="6.77487">
        <ele>390.2</ele>
        <time>2014-10-31T12:49:50.000Z</time>
      </trkpt>
      <trkpt lat="47.51778" lon="6.77486">
        <ele>390.6</ele>
        <time>2014-10-31T12:49:51.000Z</time>
      </trkpt>
      <trkpt lat="47.51764" lon="6.77482">
        <ele>391.9</ele>
        <time>2014-10-31T12:49:55.000Z</time>
      </trkpt>
      <trkpt lat="47.51761" lon="6.77482">
        <ele>391.3</ele>
        <time>2014-10-31T12:49:56.000Z</time>
      </trkpt>
      <trkpt lat="47.51758" lon="6.77481">
        <ele>391.9</ele>
        <time>2014-10-31T12:49:57.000Z</time>
      </trkpt>
      <trkpt lat="47.51755" lon="6.7748">
        <ele>391.7</ele>
        <time>2014-10-31T12:49:58.000Z</time>
      </trkpt>
      <trkpt lat="47.51751" lon="6.77479">
        <ele>391.3</ele>
        <time>2014-10-31T12:49:59.000Z</time>
      </trkpt>
      <trkpt lat="47.51747" lon="6.77478">
        <ele>391.4</ele>
        <time>2014-10-31T12:50:00.000Z</time>
      </trkpt>
      <trkpt lat="47.51742" lon="6.77477">
        <ele>391.8</ele>
        <time>2014-10-31T12:50:01.000Z</time>
      </trkpt>
      <trkpt lat="47.51737" lon="6.77477">
        <ele>391.8</ele>
        <time>2014-10-31T12:50:02.000Z</time>
      </trkpt>
      <trkpt lat="47.51732" lon="6.77478">
        <ele>391.6</ele>
        <time>2014-10-31T12:50:03.000Z</time>
      </trkpt>
      <trkpt lat="47.51728" lon="6.77482">
        <ele>391.5</ele>
        <time>2014-10-31T12:50:04.000Z</time>
      </trkpt>
      <trkpt lat="47.51726" lon="6.77487">
        <ele>391.7</ele>
        <time>2014-10-31T12:50:05.000Z</time>
      </trkpt>
      <trkpt lat="47.51725" lon="6.77491">
        <ele>391.8</ele>
        <time>2014-10-31T12:50:06.000Z</time>
      </trkpt>
      <trkpt lat="47.51729" lon="6.77492">
        <ele>391.4</ele>
        <time>2014-10-31T12:50:08.000Z</time>
      </trkpt>
      <trkpt lat="47.5173" lon="6.77487">
        <ele>391.6</ele>
        <time>2014-10-31T12:50:09.000Z</time>
      </trkpt>
      <trkpt lat="47.51732" lon="6.77482">
        <ele>391.4</ele>
        <time>2014-10-31T12:50:10.000Z</time>
      </trkpt>
      <trkpt lat="47.51736" lon="6.77479">
        <ele>391.6</ele>
        <time>2014-10-31T12:50:11.000Z</time>
      </trkpt>
      <trkpt lat="47.51741" lon="6.77478">
        <ele>391.7</ele>
        <time>2014-10-31T12:50:12.000Z</time>
      </trkpt>
      <trkpt lat="47.51746" lon="6.77479">
        <ele>391.9</ele>
        <time>2014-10-31T12:50:13.000Z</time>
      </trkpt>
      <trkpt lat="47.51752" lon="6.77481">
        <ele>392.4</ele>
        <time>2014-10-31T12:50:14.000Z</time>
      </trkpt>
      <trkpt lat="47.51757" lon="6.77483">
        <ele>392.5</ele>
        <time>2014-10-31T12:50:15.000Z</time>
      </trkpt>
      <trkpt lat="47.51763" lon="6.77484">
        <ele>392.5</ele>
        <time>2014-10-31T12:50:16.000Z</time>
      </trkpt>
      <trkpt lat="47.51768" lon="6.77485">
        <ele>392.5</ele>
        <time>2014-10-31T12:50:17.000Z</time>
      </trkpt>
      <trkpt lat="47.51774" lon="6.77486">
        <ele>392.9</ele>
        <time>2014-10-31T12:50:18.000Z</time>
      </trkpt>
      <trkpt lat="47.5178" lon="6.77489">
        <ele>391.5</ele>
        <time>2014-10-31T12:50:19.000Z</time>
      </trkpt>
      <trkpt lat="47.51785" lon="6.77491">
        <ele>391</ele>
        <time>2014-10-31T12:50:20.000Z</time>
      </trkpt>
      <trkpt lat="47.51791" lon="6.77494">
        <ele>390.7</ele>
        <time>2014-10-31T12:50:21.000Z</time>
      </trkpt>
      <trkpt lat="47.51797" lon="6.77495">
        <ele>390.2</ele>
        <time>2014-10-31T12:50:22.000Z</time>
      </trkpt>
      <trkpt lat="47.51803" lon="6.77497">
        <ele>390.7</ele>
        <time>2014-10-31T12:50:23.000Z</time>
      </trkpt>
      <trkpt lat="47.51807" lon="6.77496">
        <ele>390.5</ele>
        <time>2014-10-31T12:50:24.000Z</time>
      </trkpt>
      <trkpt lat="47.51809" lon="6.77494">
        <ele>390.5</ele>
        <time>2014-10-31T12:50:25.000Z</time>
      </trkpt>
      <trkpt lat="47.51807" lon="6.77488">
        <ele>390</ele>
        <time>2014-10-31T12:50:26.000Z</time>
      </trkpt>
      <trkpt lat="47.51804" lon="6.77485">
        <ele>390</ele>
        <time>2014-10-31T12:50:27.000Z</time>
      </trkpt>
      <trkpt lat="47.51802" lon="6.77484">
        <ele>390.9</ele>
        <time>2014-10-31T12:50:28.000Z</time>
      </trkpt>
      <trkpt lat="47.51801" lon="6.77478">
        <ele>389.8</ele>
        <time>2014-10-31T12:50:46.000Z</time>
      </trkpt>
      <trkpt lat="47.51801" lon="6.77477">
        <ele>389.5</ele>
        <time>2014-10-31T12:50:47.000Z</time>
      </trkpt>
      <trkpt lat="47.51799" lon="6.77483">
        <ele>397.2</ele>
        <time>2014-10-31T12:51:15.000Z</time>
      </trkpt>
      <trkpt lat="47.51799" lon="6.77484">
        <ele>397.7</ele>
        <time>2014-10-31T12:51:16.000Z</time>
      </trkpt>
      <trkpt lat="47.51802" lon="6.77487">
        <ele>398</ele>
        <time>2014-10-31T12:51:18.000Z</time>
      </trkpt>
      <trkpt lat="47.51804" lon="6.7749">
        <ele>398</ele>
        <time>2014-10-31T12:51:19.000Z</time>
      </trkpt>
      <trkpt lat="47.51805" lon="6.77493">
        <ele>397.5</ele>
        <time>2014-10-31T12:51:20.000Z</time>
      </trkpt>
      <trkpt lat="47.51805" lon="6.77497">
        <ele>396.9</ele>
        <time>2014-10-31T12:51:21.000Z</time>
      </trkpt>
      <trkpt lat="47.51802" lon="6.77499">
        <ele>396.6</ele>
        <time>2014-10-31T12:51:22.000Z</time>
      </trkpt>
      <trkpt lat="47.51799" lon="6.77501">
        <ele>396.7</ele>
        <time>2014-10-31T12:51:23.000Z</time>
      </trkpt>
      <trkpt lat="47.51789" lon="6.77498">
        <ele>396.3</ele>
        <time>2014-10-31T12:51:24.000Z</time>
      </trkpt>
      <trkpt lat="47.51784" lon="6.77495">
        <ele>397.2</ele>
        <time>2014-10-31T12:51:25.000Z</time>
      </trkpt>
      <trkpt lat="47.51781" lon="6.77492">
        <ele>397.4</ele>
        <time>2014-10-31T12:51:26.000Z</time>
      </trkpt>
      <trkpt lat="47.51776" lon="6.77489">
        <ele>397.6</ele>
        <time>2014-10-31T12:51:27.000Z</time>
      </trkpt>
      <trkpt lat="47.51771" lon="6.77488">
        <ele>397</ele>
        <time>2014-10-31T12:51:28.000Z</time>
      </trkpt>
      <trkpt lat="47.51766" lon="6.77487">
        <ele>397.8</ele>
        <time>2014-10-31T12:51:29.000Z</time>
      </trkpt>
      <trkpt lat="47.51761" lon="6.77486">
        <ele>397.8</ele>
        <time>2014-10-31T12:51:30.000Z</time>
      </trkpt>
      <trkpt lat="47.51756" lon="6.77484">
        <ele>397.3</ele>
        <time>2014-10-31T12:51:31.000Z</time>
      </trkpt>
      <trkpt lat="47.51751" lon="6.77483">
        <ele>396.6</ele>
        <time>2014-10-31T12:51:32.000Z</time>
      </trkpt>
      <trkpt lat="47.51746" lon="6.77482">
        <ele>395.1</ele>
        <time>2014-10-31T12:51:33.000Z</time>
      </trkpt>
      <trkpt lat="47.51741" lon="6.77481">
        <ele>395</ele>
        <time>2014-10-31T12:51:34.000Z</time>
      </trkpt>
      <trkpt lat="47.51737" lon="6.77481">
        <ele>394.8</ele>
        <time>2014-10-31T12:51:35.000Z</time>
      </trkpt>
      <trkpt lat="47.51732" lon="6.77482">
        <ele>393.2</ele>
        <time>2014-10-31T12:51:36.000Z</time>
      </trkpt>
      <trkpt lat="47.51728" lon="6.77486">
        <ele>393</ele>
        <time>2014-10-31T12:51:37.000Z</time>
      </trkpt>
      <trkpt lat="47.51725" lon="6.77491">
        <ele>393.7</ele>
        <time>2014-10-31T12:51:38.000Z</time>
      </trkpt>
      <trkpt lat="47.51722" lon="6.775">
        <ele>393.1</ele>
        <time>2014-10-31T12:51:39.000Z</time>
      </trkpt>
      <trkpt lat="47.5172" lon="6.77508">
        <ele>393.3</ele>
        <time>2014-10-31T12:51:40.000Z</time>
      </trkpt>
      <trkpt lat="47.51719" lon="6.77516">
        <ele>393.7</ele>
        <time>2014-10-31T12:51:41.000Z</time>
      </trkpt>
      <trkpt lat="47.51718" lon="6.77524">
        <ele>394</ele>
        <time>2014-10-31T12:51:42.000Z</time>
      </trkpt>
      <trkpt lat="47.51717" lon="6.77532">
        <ele>394.4</ele>
        <time>2014-10-31T12:51:43.000Z</time>
      </trkpt>
      <trkpt lat="47.51714" lon="6.7754">
        <ele>395.6</ele>
        <time>2014-10-31T12:51:44.000Z</time>
      </trkpt>
      <trkpt lat="47.51712" lon="6.77546">
        <ele>396.1</ele>
        <time>2014-10-31T12:51:45.000Z</time>
      </trkpt>
      <trkpt lat="47.51711" lon="6.77552">
        <ele>396.2</ele>
        <time>2014-10-31T12:51:46.000Z</time>
      </trkpt>
      <trkpt lat="47.51707" lon="6.77554">
        <ele>396</ele>
        <time>2014-10-31T12:51:47.000Z</time>
      </trkpt>
      <trkpt lat="47.51702" lon="6.77552">
        <ele>396.2</ele>
        <time>2014-10-31T12:51:48.000Z</time>
      </trkpt>
      <trkpt lat="47.51698" lon="6.77548">
        <ele>396.7</ele>
        <time>2014-10-31T12:51:49.000Z</time>
      </trkpt>
      <trkpt lat="47.51694" lon="6.77543">
        <ele>396.4</ele>
        <time>2014-10-31T12:51:50.000Z</time>
      </trkpt>
      <trkpt lat="47.51688" lon="6.77537">
        <ele>394.8</ele>
        <time>2014-10-31T12:51:51.000Z</time>
      </trkpt>
      <trkpt lat="47.51672" lon="6.77518">
        <ele>394.4</ele>
        <time>2014-10-31T12:51:54.000Z</time>
      </trkpt>
      <trkpt lat="47.51666" lon="6.77511">
        <ele>394</ele>
        <time>2014-10-31T12:51:55.000Z</time>
      </trkpt>
      <trkpt lat="47.5166" lon="6.77503">
        <ele>391.1</ele>
        <time>2014-10-31T12:51:56.000Z</time>
      </trkpt>
      <trkpt lat="47.51654" lon="6.77495">
        <ele>390.6</ele>
        <time>2014-10-31T12:51:57.000Z</time>
      </trkpt>
      <trkpt lat="47.51649" lon="6.77489">
        <ele>390.1</ele>
        <time>2014-10-31T12:51:58.000Z</time>
      </trkpt>
      <trkpt lat="47.51643" lon="6.77483">
        <ele>391.1</ele>
        <time>2014-10-31T12:51:59.000Z</time>
      </trkpt>
      <trkpt lat="47.51637" lon="6.77476">
        <ele>391.6</ele>
        <time>2014-10-31T12:52:00.000Z</time>
      </trkpt>
      <trkpt lat="47.51631" lon="6.77469">
        <ele>391.4</ele>
        <time>2014-10-31T12:52:01.000Z</time>
      </trkpt>
      <trkpt lat="47.51624" lon="6.77462">
        <ele>392.1</ele>
        <time>2014-10-31T12:52:02.000Z</time>
      </trkpt>
      <trkpt lat="47.51618" lon="6.77455">
        <ele>392.1</ele>
        <time>2014-10-31T12:52:03.000Z</time>
      </trkpt>
      <trkpt lat="47.51611" lon="6.77446">
        <ele>391</ele>
        <time>2014-10-31T12:52:04.000Z</time>
      </trkpt>
      <trkpt lat="47.51604" lon="6.77438">
        <ele>390</ele>
        <time>2014-10-31T12:52:05.000Z</time>
      </trkpt>
      <trkpt lat="47.51598" lon="6.77431">
        <ele>389.6</ele>
        <time>2014-10-31T12:52:06.000Z</time>
      </trkpt>
      <trkpt lat="47.51591" lon="6.77422">
        <ele>388.8</ele>
        <time>2014-10-31T12:52:07.000Z</time>
      </trkpt>
      <trkpt lat="47.51583" lon="6.77413">
        <ele>388.6</ele>
        <time>2014-10-31T12:52:08.000Z</time>
      </trkpt>
      <trkpt lat="47.51576" lon="6.77405">
        <ele>388.2</ele>
        <time>2014-10-31T12:52:09.000Z</time>
      </trkpt>
      <trkpt lat="47.51568" lon="6.77396">
        <ele>387.9</ele>
        <time>2014-10-31T12:52:10.000Z</time>
      </trkpt>
      <trkpt lat="47.51561" lon="6.77388">
        <ele>387.3</ele>
        <time>2014-10-31T12:52:11.000Z</time>
      </trkpt>
      <trkpt lat="47.51553" lon="6.77378">
        <ele>386.7</ele>
        <time>2014-10-31T12:52:12.000Z</time>
      </trkpt>
      <trkpt lat="47.51546" lon="6.77369">
        <ele>386.1</ele>
        <time>2014-10-31T12:52:13.000Z</time>
      </trkpt>
      <trkpt lat="47.51538" lon="6.7736">
        <ele>385.9</ele>
        <time>2014-10-31T12:52:14.000Z</time>
      </trkpt>
      <trkpt lat="47.5153" lon="6.7735">
        <ele>385.5</ele>
        <time>2014-10-31T12:52:15.000Z</time>
      </trkpt>
      <trkpt lat="47.51521" lon="6.77339">
        <ele>383.7</ele>
        <time>2014-10-31T12:52:16.000Z</time>
      </trkpt>
      <trkpt lat="47.51513" lon="6.77329">
        <ele>382.6</ele>
        <time>2014-10-31T12:52:17.000Z</time>
      </trkpt>
      <trkpt lat="47.51504" lon="6.77319">
        <ele>382.1</ele>
        <time>2014-10-31T12:52:18.000Z</time>
      </trkpt>
      <trkpt lat="47.51497" lon="6.77307">
        <ele>381.8</ele>
        <time>2014-10-31T12:52:19.000Z</time>
      </trkpt>
      <trkpt lat="47.51491" lon="6.77292">
        <ele>381.5</ele>
        <time>2014-10-31T12:52:20.000Z</time>
      </trkpt>
      <trkpt lat="47.51488" lon="6.77278">
        <ele>381.5</ele>
        <time>2014-10-31T12:52:21.000Z</time>
      </trkpt>
      <trkpt lat="47.51487" lon="6.77263">
        <ele>381.2</ele>
        <time>2014-10-31T12:52:22.000Z</time>
      </trkpt>
      <trkpt lat="47.51486" lon="6.77249">
        <ele>380</ele>
        <time>2014-10-31T12:52:23.000Z</time>
      </trkpt>
      <trkpt lat="47.51485" lon="6.77234">
        <ele>379.5</ele>
        <time>2014-10-31T12:52:24.000Z</time>
      </trkpt>
      <trkpt lat="47.51484" lon="6.77221">
        <ele>379.7</ele>
        <time>2014-10-31T12:52:25.000Z</time>
      </trkpt>
      <trkpt lat="47.51482" lon="6.77209">
        <ele>379.6</ele>
        <time>2014-10-31T12:52:26.000Z</time>
      </trkpt>
      <trkpt lat="47.51476" lon="6.77203">
        <ele>379.5</ele>
        <time>2014-10-31T12:52:27.000Z</time>
      </trkpt>
      <trkpt lat="47.5147" lon="6.772">
        <ele>378.3</ele>
        <time>2014-10-31T12:52:28.000Z</time>
      </trkpt>
      <trkpt lat="47.51462" lon="6.77202">
        <ele>378.3</ele>
        <time>2014-10-31T12:52:29.000Z</time>
      </trkpt>
      <trkpt lat="47.51454" lon="6.77205">
        <ele>377.5</ele>
        <time>2014-10-31T12:52:30.000Z</time>
      </trkpt>
      <trkpt lat="47.51445" lon="6.77209">
        <ele>376.2</ele>
        <time>2014-10-31T12:52:31.000Z</time>
      </trkpt>
      <trkpt lat="47.51437" lon="6.77213">
        <ele>376</ele>
        <time>2014-10-31T12:52:32.000Z</time>
      </trkpt>
      <trkpt lat="47.51429" lon="6.77216">
        <ele>376.2</ele>
        <time>2014-10-31T12:52:33.000Z</time>
      </trkpt>
      <trkpt lat="47.51422" lon="6.7722">
        <ele>376.2</ele>
        <time>2014-10-31T12:52:34.000Z</time>
      </trkpt>
      <trkpt lat="47.51413" lon="6.77224">
        <ele>376.5</ele>
        <time>2014-10-31T12:52:35.000Z</time>
      </trkpt>
      <trkpt lat="47.51406" lon="6.77228">
        <ele>376.1</ele>
        <time>2014-10-31T12:52:36.000Z</time>
      </trkpt>
      <trkpt lat="47.51399" lon="6.77232">
        <ele>376.4</ele>
        <time>2014-10-31T12:52:37.000Z</time>
      </trkpt>
      <trkpt lat="47.51393" lon="6.77237">
        <ele>376.7</ele>
        <time>2014-10-31T12:52:38.000Z</time>
      </trkpt>
      <trkpt lat="47.51387" lon="6.77241">
        <ele>377.4</ele>
        <time>2014-10-31T12:52:39.000Z</time>
      </trkpt>
      <trkpt lat="47.5138" lon="6.77244">
        <ele>378.5</ele>
        <time>2014-10-31T12:52:40.000Z</time>
      </trkpt>
      <trkpt lat="47.51374" lon="6.77248">
        <ele>378.5</ele>
        <time>2014-10-31T12:52:41.000Z</time>
      </trkpt>
      <trkpt lat="47.51369" lon="6.77252">
        <ele>378.6</ele>
        <time>2014-10-31T12:52:42.000Z</time>
      </trkpt>
      <trkpt lat="47.51364" lon="6.77255">
        <ele>378.2</ele>
        <time>2014-10-31T12:52:43.000Z</time>
      </trkpt>
      <trkpt lat="47.51357" lon="6.7726">
        <ele>378.3</ele>
        <time>2014-10-31T12:52:44.000Z</time>
      </trkpt>
      <trkpt lat="47.51353" lon="6.77264">
        <ele>379</ele>
        <time>2014-10-31T12:52:45.000Z</time>
      </trkpt>
      <trkpt lat="47.51349" lon="6.77266">
        <ele>379.5</ele>
        <time>2014-10-31T12:52:46.000Z</time>
      </trkpt>
      <trkpt lat="47.51345" lon="6.7727">
        <ele>380.7</ele>
        <time>2014-10-31T12:52:47.000Z</time>
      </trkpt>
      <trkpt lat="47.51341" lon="6.77274">
        <ele>381.1</ele>
        <time>2014-10-31T12:52:48.000Z</time>
      </trkpt>
      <trkpt lat="47.51337" lon="6.77277">
        <ele>380.7</ele>
        <time>2014-10-31T12:52:49.000Z</time>
      </trkpt>
      <trkpt lat="47.51333" lon="6.77278">
        <ele>380.6</ele>
        <time>2014-10-31T12:52:50.000Z</time>
      </trkpt>
      <trkpt lat="47.51329" lon="6.7728">
        <ele>381.5</ele>
        <time>2014-10-31T12:52:51.000Z</time>
      </trkpt>
      <trkpt lat="47.51325" lon="6.77282">
        <ele>382</ele>
        <time>2014-10-31T12:52:52.000Z</time>
      </trkpt>
      <trkpt lat="47.5129" lon="6.77272">
        <ele>386.8</ele>
        <time>2014-10-31T12:53:00.000Z</time>
      </trkpt>
      <trkpt lat="47.51286" lon="6.77269">
        <ele>386.9</ele>
        <time>2014-10-31T12:53:01.000Z</time>
      </trkpt>
      <trkpt lat="47.51282" lon="6.77266">
        <ele>388.2</ele>
        <time>2014-10-31T12:53:02.000Z</time>
      </trkpt>
      <trkpt lat="47.51276" lon="6.77263">
        <ele>387.4</ele>
        <time>2014-10-31T12:53:03.000Z</time>
      </trkpt>
      <trkpt lat="47.51271" lon="6.77259">
        <ele>385.7</ele>
        <time>2014-10-31T12:53:04.000Z</time>
      </trkpt>
      <trkpt lat="47.51267" lon="6.77256">
        <ele>386.1</ele>
        <time>2014-10-31T12:53:05.000Z</time>
      </trkpt>
      <trkpt lat="47.51262" lon="6.77252">
        <ele>385.3</ele>
        <time>2014-10-31T12:53:06.000Z</time>
      </trkpt>
      <trkpt lat="47.51259" lon="6.77248">
        <ele>386.2</ele>
        <time>2014-10-31T12:53:07.000Z</time>
      </trkpt>
      <trkpt lat="47.51255" lon="6.77242">
        <ele>386</ele>
        <time>2014-10-31T12:53:08.000Z</time>
      </trkpt>
      <trkpt lat="47.5125" lon="6.77235">
        <ele>385.7</ele>
        <time>2014-10-31T12:53:09.000Z</time>
      </trkpt>
      <trkpt lat="47.51246" lon="6.77228">
        <ele>385.4</ele>
        <time>2014-10-31T12:53:10.000Z</time>
      </trkpt>
      <trkpt lat="47.51242" lon="6.77221">
        <ele>384.6</ele>
        <time>2014-10-31T12:53:11.000Z</time>
      </trkpt>
      <trkpt lat="47.51237" lon="6.77214">
        <ele>384.7</ele>
        <time>2014-10-31T12:53:12.000Z</time>
      </trkpt>
      <trkpt lat="47.51234" lon="6.77206">
        <ele>384.6</ele>
        <time>2014-10-31T12:53:13.000Z</time>
      </trkpt>
      <trkpt lat="47.51231" lon="6.77198">
        <ele>384.3</ele>
        <time>2014-10-31T12:53:14.000Z</time>
      </trkpt>
      <trkpt lat="47.51227" lon="6.77191">
        <ele>383.9</ele>
        <time>2014-10-31T12:53:15.000Z</time>
      </trkpt>
      <trkpt lat="47.51223" lon="6.77182">
        <ele>382.3</ele>
        <time>2014-10-31T12:53:16.000Z</time>
      </trkpt>
      <trkpt lat="47.51219" lon="6.77173">
        <ele>383.1</ele>
        <time>2014-10-31T12:53:17.000Z</time>
      </trkpt>
      <trkpt lat="47.51214" lon="6.77166">
        <ele>383.5</ele>
        <time>2014-10-31T12:53:18.000Z</time>
      </trkpt>
      <trkpt lat="47.5121" lon="6.77158">
        <ele>383.2</ele>
        <time>2014-10-31T12:53:19.000Z</time>
      </trkpt>
      <trkpt lat="47.51205" lon="6.77148">
        <ele>382.5</ele>
        <time>2014-10-31T12:53:20.000Z</time>
      </trkpt>
      <trkpt lat="47.512" lon="6.77139">
        <ele>383.9</ele>
        <time>2014-10-31T12:53:21.000Z</time>
      </trkpt>
      <trkpt lat="47.51196" lon="6.7713">
        <ele>384.4</ele>
        <time>2014-10-31T12:53:22.000Z</time>
      </trkpt>
      <trkpt lat="47.51191" lon="6.77121">
        <ele>381.8</ele>
        <time>2014-10-31T12:53:23.000Z</time>
      </trkpt>
      <trkpt lat="47.51186" lon="6.77112">
        <ele>381</ele>
        <time>2014-10-31T12:53:24.000Z</time>
      </trkpt>
      <trkpt lat="47.51181" lon="6.77102">
        <ele>381</ele>
        <time>2014-10-31T12:53:25.000Z</time>
      </trkpt>
      <trkpt lat="47.51176" lon="6.77093">
        <ele>380.4</ele>
        <time>2014-10-31T12:53:26.000Z</time>
      </trkpt>
      <trkpt lat="47.5117" lon="6.77083">
        <ele>379.3</ele>
        <time>2014-10-31T12:53:27.000Z</time>
      </trkpt>
      <trkpt lat="47.51164" lon="6.77074">
        <ele>378.1</ele>
        <time>2014-10-31T12:53:28.000Z</time>
      </trkpt>
      <trkpt lat="47.51158" lon="6.77066">
        <ele>378.2</ele>
        <time>2014-10-31T12:53:29.000Z</time>
      </trkpt>
      <trkpt lat="47.51152" lon="6.77059">
        <ele>378.6</ele>
        <time>2014-10-31T12:53:30.000Z</time>
      </trkpt>
      <trkpt lat="47.51144" lon="6.77053">
        <ele>378.9</ele>
        <time>2014-10-31T12:53:31.000Z</time>
      </trkpt>
      <trkpt lat="47.51136" lon="6.77046">
        <ele>378.4</ele>
        <time>2014-10-31T12:53:32.000Z</time>
      </trkpt>
      <trkpt lat="47.51129" lon="6.7704">
        <ele>378.5</ele>
        <time>2014-10-31T12:53:33.000Z</time>
      </trkpt>
      <trkpt lat="47.51123" lon="6.77033">
        <ele>378.7</ele>
        <time>2014-10-31T12:53:34.000Z</time>
      </trkpt>
      <trkpt lat="47.51116" lon="6.77026">
        <ele>378.6</ele>
        <time>2014-10-31T12:53:35.000Z</time>
      </trkpt>
      <trkpt lat="47.51109" lon="6.77021">
        <ele>378.7</ele>
        <time>2014-10-31T12:53:36.000Z</time>
      </trkpt>
      <trkpt lat="47.51103" lon="6.77015">
        <ele>378.2</ele>
        <time>2014-10-31T12:53:37.000Z</time>
      </trkpt>
      <trkpt lat="47.51096" lon="6.77008">
        <ele>378.5</ele>
        <time>2014-10-31T12:53:38.000Z</time>
      </trkpt>
      <trkpt lat="47.51089" lon="6.77003">
        <ele>379.7</ele>
        <time>2014-10-31T12:53:39.000Z</time>
      </trkpt>
      <trkpt lat="47.51082" lon="6.76997">
        <ele>380.8</ele>
        <time>2014-10-31T12:53:40.000Z</time>
      </trkpt>
      <trkpt lat="47.51076" lon="6.76991">
        <ele>381.1</ele>
        <time>2014-10-31T12:53:41.000Z</time>
      </trkpt>
      <trkpt lat="47.5107" lon="6.76986">
        <ele>381</ele>
        <time>2014-10-31T12:53:42.000Z</time>
      </trkpt>
      <trkpt lat="47.51063" lon="6.7698">
        <ele>380.7</ele>
        <time>2014-10-31T12:53:43.000Z</time>
      </trkpt>
      <trkpt lat="47.51057" lon="6.76974">
        <ele>381.9</ele>
        <time>2014-10-31T12:53:44.000Z</time>
      </trkpt>
      <trkpt lat="47.5105" lon="6.76968">
        <ele>382</ele>
        <time>2014-10-31T12:53:45.000Z</time>
      </trkpt>
      <trkpt lat="47.51044" lon="6.76963">
        <ele>383.1</ele>
        <time>2014-10-31T12:53:46.000Z</time>
      </trkpt>
      <trkpt lat="47.51037" lon="6.76957">
        <ele>383.1</ele>
        <time>2014-10-31T12:53:47.000Z</time>
      </trkpt>
      <trkpt lat="47.51032" lon="6.76951">
        <ele>384.5</ele>
        <time>2014-10-31T12:53:48.000Z</time>
      </trkpt>
      <trkpt lat="47.51026" lon="6.76943">
        <ele>385</ele>
        <time>2014-10-31T12:53:49.000Z</time>
      </trkpt>
      <trkpt lat="47.51021" lon="6.76937">
        <ele>384.2</ele>
        <time>2014-10-31T12:53:50.000Z</time>
      </trkpt>
      <trkpt lat="47.51014" lon="6.76932">
        <ele>383.9</ele>
        <time>2014-10-31T12:53:51.000Z</time>
      </trkpt>
      <trkpt lat="47.51008" lon="6.76928">
        <ele>384.2</ele>
        <time>2014-10-31T12:53:52.000Z</time>
      </trkpt>
      <trkpt lat="47.50984" lon="6.76899">
        <ele>383.8</ele>
        <time>2014-10-31T12:54:00.000Z</time>
      </trkpt>
      <trkpt lat="47.50979" lon="6.76898">
        <ele>382.8</ele>
        <time>2014-10-31T12:54:01.000Z</time>
      </trkpt>
      <trkpt lat="47.50974" lon="6.76898">
        <ele>382.9</ele>
        <time>2014-10-31T12:54:02.000Z</time>
      </trkpt>
      <trkpt lat="47.50969" lon="6.76895">
        <ele>382.8</ele>
        <time>2014-10-31T12:54:03.000Z</time>
      </trkpt>
      <trkpt lat="47.50964" lon="6.76895">
        <ele>383.4</ele>
        <time>2014-10-31T12:54:04.000Z</time>
      </trkpt>
      <trkpt lat="47.5096" lon="6.76894">
        <ele>383.3</ele>
        <time>2014-10-31T12:54:05.000Z</time>
      </trkpt>
      <trkpt lat="47.50956" lon="6.7689">
        <ele>383.3</ele>
        <time>2014-10-31T12:54:06.000Z</time>
      </trkpt>
      <trkpt lat="47.50951" lon="6.76887">
        <ele>382.6</ele>
        <time>2014-10-31T12:54:07.000Z</time>
      </trkpt>
      <trkpt lat="47.50946" lon="6.76883">
        <ele>382.4</ele>
        <time>2014-10-31T12:54:08.000Z</time>
      </trkpt>
      <trkpt lat="47.50941" lon="6.76879">
        <ele>382.3</ele>
        <time>2014-10-31T12:54:09.000Z</time>
      </trkpt>
      <trkpt lat="47.50938" lon="6.76874">
        <ele>382.9</ele>
        <time>2014-10-31T12:54:10.000Z</time>
      </trkpt>
      <trkpt lat="47.50934" lon="6.7687">
        <ele>383.6</ele>
        <time>2014-10-31T12:54:11.000Z</time>
      </trkpt>
      <trkpt lat="47.50931" lon="6.76864">
        <ele>384.3</ele>
        <time>2014-10-31T12:54:12.000Z</time>
      </trkpt>
      <trkpt lat="47.50927" lon="6.76859">
        <ele>384.4</ele>
        <time>2014-10-31T12:54:13.000Z</time>
      </trkpt>
      <trkpt lat="47.50924" lon="6.76853">
        <ele>384.7</ele>
        <time>2014-10-31T12:54:14.000Z</time>
      </trkpt>
      <trkpt lat="47.50921" lon="6.76848">
        <ele>384.8</ele>
        <time>2014-10-31T12:54:15.000Z</time>
      </trkpt>
      <trkpt lat="47.50918" lon="6.76841">
        <ele>384.4</ele>
        <time>2014-10-31T12:54:16.000Z</time>
      </trkpt>
      <trkpt lat="47.50916" lon="6.76836">
        <ele>383.9</ele>
        <time>2014-10-31T12:54:17.000Z</time>
      </trkpt>
      <trkpt lat="47.50913" lon="6.7683">
        <ele>383.9</ele>
        <time>2014-10-31T12:54:18.000Z</time>
      </trkpt>
      <trkpt lat="47.50911" lon="6.76824">
        <ele>384.2</ele>
        <time>2014-10-31T12:54:19.000Z</time>
      </trkpt>
      <trkpt lat="47.50906" lon="6.76817">
        <ele>382.8</ele>
        <time>2014-10-31T12:54:20.000Z</time>
      </trkpt>
      <trkpt lat="47.50903" lon="6.76811">
        <ele>381.9</ele>
        <time>2014-10-31T12:54:21.000Z</time>
      </trkpt>
      <trkpt lat="47.50901" lon="6.76805">
        <ele>381.6</ele>
        <time>2014-10-31T12:54:22.000Z</time>
      </trkpt>
      <trkpt lat="47.50898" lon="6.76798">
        <ele>381.9</ele>
        <time>2014-10-31T12:54:23.000Z</time>
      </trkpt>
      <trkpt lat="47.50895" lon="6.76791">
        <ele>382</ele>
        <time>2014-10-31T12:54:24.000Z</time>
      </trkpt>
      <trkpt lat="47.50892" lon="6.76784">
        <ele>383.5</ele>
        <time>2014-10-31T12:54:25.000Z</time>
      </trkpt>
      <trkpt lat="47.5089" lon="6.76778">
        <ele>383</ele>
        <time>2014-10-31T12:54:26.000Z</time>
      </trkpt>
      <trkpt lat="47.50887" lon="6.76771">
        <ele>382.9</ele>
        <time>2014-10-31T12:54:27.000Z</time>
      </trkpt>
      <trkpt lat="47.50885" lon="6.76765">
        <ele>383.4</ele>
        <time>2014-10-31T12:54:28.000Z</time>
      </trkpt>
      <trkpt lat="47.50883" lon="6.76759">
        <ele>384.5</ele>
        <time>2014-10-31T12:54:29.000Z</time>
      </trkpt>
      <trkpt lat="47.5088" lon="6.76754">
        <ele>384.8</ele>
        <time>2014-10-31T12:54:30.000Z</time>
      </trkpt>
      <trkpt lat="47.50877" lon="6.76748">
        <ele>384.1</ele>
        <time>2014-10-31T12:54:31.001Z</time>
      </trkpt>
      <trkpt lat="47.50876" lon="6.76742">
        <ele>384.6</ele>
        <time>2014-10-31T12:54:32.000Z</time>
      </trkpt>
      <trkpt lat="47.50874" lon="6.76736">
        <ele>385.3</ele>
        <time>2014-10-31T12:54:33.000Z</time>
      </trkpt>
      <trkpt lat="47.50873" lon="6.7673">
        <ele>386</ele>
        <time>2014-10-31T12:54:34.000Z</time>
      </trkpt>
      <trkpt lat="47.50871" lon="6.76724">
        <ele>386.6</ele>
        <time>2014-10-31T12:54:35.000Z</time>
      </trkpt>
      <trkpt lat="47.50869" lon="6.76717">
        <ele>387.1</ele>
        <time>2014-10-31T12:54:36.000Z</time>
      </trkpt>
      <trkpt lat="47.50867" lon="6.76711">
        <ele>387.2</ele>
        <time>2014-10-31T12:54:37.000Z</time>
      </trkpt>
      <trkpt lat="47.50865" lon="6.76706">
        <ele>387.5</ele>
        <time>2014-10-31T12:54:38.000Z</time>
      </trkpt>
      <trkpt lat="47.50863" lon="6.76699">
        <ele>387.7</ele>
        <time>2014-10-31T12:54:39.000Z</time>
      </trkpt>
      <trkpt lat="47.5086" lon="6.76693">
        <ele>387.9</ele>
        <time>2014-10-31T12:54:40.000Z</time>
      </trkpt>
      <trkpt lat="47.50858" lon="6.76687">
        <ele>388.2</ele>
        <time>2014-10-31T12:54:41.000Z</time>
      </trkpt>
      <trkpt lat="47.50856" lon="6.76682">
        <ele>388.5</ele>
        <time>2014-10-31T12:54:42.000Z</time>
      </trkpt>
      <trkpt lat="47.50854" lon="6.76676">
        <ele>388.8</ele>
        <time>2014-10-31T12:54:43.000Z</time>
      </trkpt>
      <trkpt lat="47.50851" lon="6.7667">
        <ele>388.9</ele>
        <time>2014-10-31T12:54:44.000Z</time>
      </trkpt>
      <trkpt lat="47.50849" lon="6.76665">
        <ele>389.4</ele>
        <time>2014-10-31T12:54:45.000Z</time>
      </trkpt>
      <trkpt lat="47.50847" lon="6.7666">
        <ele>389.9</ele>
        <time>2014-10-31T12:54:46.000Z</time>
      </trkpt>
      <trkpt lat="47.50845" lon="6.76655">
        <ele>390.2</ele>
        <time>2014-10-31T12:54:47.000Z</time>
      </trkpt>
      <trkpt lat="47.50843" lon="6.7665">
        <ele>390.7</ele>
        <time>2014-10-31T12:54:48.000Z</time>
      </trkpt>
      <trkpt lat="47.50841" lon="6.76644">
        <ele>390.7</ele>
        <time>2014-10-31T12:54:49.000Z</time>
      </trkpt>
      <trkpt lat="47.50839" lon="6.7664">
        <ele>391</ele>
        <time>2014-10-31T12:54:50.000Z</time>
      </trkpt>
      <trkpt lat="47.50837" lon="6.76635">
        <ele>391.3</ele>
        <time>2014-10-31T12:54:51.000Z</time>
      </trkpt>
      <trkpt lat="47.50821" lon="6.76599">
        <ele>394.2</ele>
        <time>2014-10-31T12:54:58.804Z</time>
      </trkpt>
      <trkpt lat="47.50819" lon="6.76594">
        <ele>393.6</ele>
        <time>2014-10-31T12:55:00.000Z</time>
      </trkpt>
      <trkpt lat="47.50816" lon="6.76592">
        <ele>394</ele>
        <time>2014-10-31T12:55:01.000Z</time>
      </trkpt>
      <trkpt lat="47.50814" lon="6.76595">
        <ele>394.3</ele>
        <time>2014-10-31T12:55:02.000Z</time>
      </trkpt>
      <trkpt lat="47.50811" lon="6.76597">
        <ele>392.8</ele>
        <time>2014-10-31T12:55:03.000Z</time>
      </trkpt>
      <trkpt lat="47.50809" lon="6.76598">
        <ele>392.3</ele>
        <time>2014-10-31T12:55:04.000Z</time>
      </trkpt>
      <trkpt lat="47.50806" lon="6.76597">
        <ele>392.9</ele>
        <time>2014-10-31T12:55:05.000Z</time>
      </trkpt>
      <trkpt lat="47.50805" lon="6.76594">
        <ele>393.6</ele>
        <time>2014-10-31T12:55:06.000Z</time>
      </trkpt>
      <trkpt lat="47.50803" lon="6.76591">
        <ele>392.1</ele>
        <time>2014-10-31T12:55:07.000Z</time>
      </trkpt>
      <trkpt lat="47.50801" lon="6.76589">
        <ele>392.1</ele>
        <time>2014-10-31T12:55:08.000Z</time>
      </trkpt>
      <trkpt lat="47.50798" lon="6.76588">
        <ele>392</ele>
        <time>2014-10-31T12:55:09.000Z</time>
      </trkpt>
      <trkpt lat="47.50795" lon="6.76589">
        <ele>393.4</ele>
        <time>2014-10-31T12:55:10.000Z</time>
      </trkpt>
      <trkpt lat="47.50792" lon="6.7659">
        <ele>393.5</ele>
        <time>2014-10-31T12:55:11.000Z</time>
      </trkpt>
      <trkpt lat="47.50789" lon="6.76591">
        <ele>394.5</ele>
        <time>2014-10-31T12:55:12.000Z</time>
      </trkpt>
      <trkpt lat="47.50787" lon="6.76592">
        <ele>394.9</ele>
        <time>2014-10-31T12:55:13.000Z</time>
      </trkpt>
      <trkpt lat="47.50784" lon="6.76593">
        <ele>395.5</ele>
        <time>2014-10-31T12:55:14.000Z</time>
      </trkpt>
      <trkpt lat="47.50782" lon="6.76594">
        <ele>395.4</ele>
        <time>2014-10-31T12:55:15.000Z</time>
      </trkpt>
      <trkpt lat="47.50779" lon="6.76594">
        <ele>394.6</ele>
        <time>2014-10-31T12:55:16.000Z</time>
      </trkpt>
      <trkpt lat="47.50776" lon="6.76595">
        <ele>394.2</ele>
        <time>2014-10-31T12:55:17.000Z</time>
      </trkpt>
      <trkpt lat="47.50773" lon="6.76596">
        <ele>394.3</ele>
        <time>2014-10-31T12:55:18.000Z</time>
      </trkpt>
      <trkpt lat="47.5077" lon="6.76597">
        <ele>393.4</ele>
        <time>2014-10-31T12:55:19.000Z</time>
      </trkpt>
      <trkpt lat="47.50767" lon="6.76598">
        <ele>393.7</ele>
        <time>2014-10-31T12:55:20.000Z</time>
      </trkpt>
      <trkpt lat="47.50763" lon="6.76598">
        <ele>394.3</ele>
        <time>2014-10-31T12:55:21.000Z</time>
      </trkpt>
      <trkpt lat="47.5076" lon="6.76599">
        <ele>395.1</ele>
        <time>2014-10-31T12:55:22.000Z</time>
      </trkpt>
      <trkpt lat="47.50756" lon="6.76599">
        <ele>394.1</ele>
        <time>2014-10-31T12:55:23.000Z</time>
      </trkpt>
      <trkpt lat="47.50752" lon="6.76599">
        <ele>394.5</ele>
        <time>2014-10-31T12:55:24.000Z</time>
      </trkpt>
      <trkpt lat="47.50748" lon="6.76599">
        <ele>395.3</ele>
        <time>2014-10-31T12:55:25.000Z</time>
      </trkpt>
      <trkpt lat="47.50745" lon="6.766">
        <ele>395.9</ele>
        <time>2014-10-31T12:55:26.000Z</time>
      </trkpt>
      <trkpt lat="47.50741" lon="6.766">
        <ele>396.1</ele>
        <time>2014-10-31T12:55:27.000Z</time>
      </trkpt>
      <trkpt lat="47.50737" lon="6.766">
        <ele>396.1</ele>
        <time>2014-10-31T12:55:28.000Z</time>
      </trkpt>
      <trkpt lat="47.50734" lon="6.76599">
        <ele>395.7</ele>
        <time>2014-10-31T12:55:29.000Z</time>
      </trkpt>
      <trkpt lat="47.5073" lon="6.76599">
        <ele>396.1</ele>
        <time>2014-10-31T12:55:30.000Z</time>
      </trkpt>
      <trkpt lat="47.50726" lon="6.76598">
        <ele>396.1</ele>
        <time>2014-10-31T12:55:31.000Z</time>
      </trkpt>
      <trkpt lat="47.50722" lon="6.76597">
        <ele>395.5</ele>
        <time>2014-10-31T12:55:32.000Z</time>
      </trkpt>
      <trkpt lat="47.50718" lon="6.76596">
        <ele>395.8</ele>
        <time>2014-10-31T12:55:33.000Z</time>
      </trkpt>
      <trkpt lat="47.50714" lon="6.76595">
        <ele>395.6</ele>
        <time>2014-10-31T12:55:34.000Z</time>
      </trkpt>
      <trkpt lat="47.5071" lon="6.76594">
        <ele>395.5</ele>
        <time>2014-10-31T12:55:35.000Z</time>
      </trkpt>
      <trkpt lat="47.50706" lon="6.76593">
        <ele>396.5</ele>
        <time>2014-10-31T12:55:36.000Z</time>
      </trkpt>
      <trkpt lat="47.50702" lon="6.76593">
        <ele>397.2</ele>
        <time>2014-10-31T12:55:37.000Z</time>
      </trkpt>
      <trkpt lat="47.50698" lon="6.76592">
        <ele>397.6</ele>
        <time>2014-10-31T12:55:38.000Z</time>
      </trkpt>
      <trkpt lat="47.50694" lon="6.76591">
        <ele>397.2</ele>
        <time>2014-10-31T12:55:39.000Z</time>
      </trkpt>
      <trkpt lat="47.5069" lon="6.76591">
        <ele>397.2</ele>
        <time>2014-10-31T12:55:40.000Z</time>
      </trkpt>
      <trkpt lat="47.50686" lon="6.7659">
        <ele>397.3</ele>
        <time>2014-10-31T12:55:41.000Z</time>
      </trkpt>
      <trkpt lat="47.50683" lon="6.7659">
        <ele>397.7</ele>
        <time>2014-10-31T12:55:42.000Z</time>
      </trkpt>
      <trkpt lat="47.50679" lon="6.7659">
        <ele>398.1</ele>
        <time>2014-10-31T12:55:43.000Z</time>
      </trkpt>
      <trkpt lat="47.50675" lon="6.76591">
        <ele>397.1</ele>
        <time>2014-10-31T12:55:44.000Z</time>
      </trkpt>
      <trkpt lat="47.50672" lon="6.76591">
        <ele>397.1</ele>
        <time>2014-10-31T12:55:45.000Z</time>
      </trkpt>
      <trkpt lat="47.50668" lon="6.76592">
        <ele>397.7</ele>
        <time>2014-10-31T12:55:46.000Z</time>
      </trkpt>
      <trkpt lat="47.50665" lon="6.76593">
        <ele>398.6</ele>
        <time>2014-10-31T12:55:47.000Z</time>
      </trkpt>
      <trkpt lat="47.50661" lon="6.76594">
        <ele>398.2</ele>
        <time>2014-10-31T12:55:48.000Z</time>
      </trkpt>
      <trkpt lat="47.50658" lon="6.76596">
        <ele>398.5</ele>
        <time>2014-10-31T12:55:49.000Z</time>
      </trkpt>
      <trkpt lat="47.50654" lon="6.76597">
        <ele>397.8</ele>
        <time>2014-10-31T12:55:50.000Z</time>
      </trkpt>
      <trkpt lat="47.50651" lon="6.76598">
        <ele>398.2</ele>
        <time>2014-10-31T12:55:51.000Z</time>
      </trkpt>
      <trkpt lat="47.50647" lon="6.76599">
        <ele>398.5</ele>
        <time>2014-10-31T12:55:52.000Z</time>
      </trkpt>
      <trkpt lat="47.50621" lon="6.76615">
        <ele>396.6</ele>
        <time>2014-10-31T12:56:00.000Z</time>
      </trkpt>
      <trkpt lat="47.50618" lon="6.76617">
        <ele>397.3</ele>
        <time>2014-10-31T12:56:01.000Z</time>
      </trkpt>
      <trkpt lat="47.50614" lon="6.76618">
        <ele>398.9</ele>
        <time>2014-10-31T12:56:02.000Z</time>
      </trkpt>
      <trkpt lat="47.50611" lon="6.7662">
        <ele>399.7</ele>
        <time>2014-10-31T12:56:03.000Z</time>
      </trkpt>
      <trkpt lat="47.50607" lon="6.76621">
        <ele>399.7</ele>
        <time>2014-10-31T12:56:04.000Z</time>
      </trkpt>
      <trkpt lat="47.50604" lon="6.76623">
        <ele>400.3</ele>
        <time>2014-10-31T12:56:05.000Z</time>
      </trkpt>
      <trkpt lat="47.506" lon="6.76625">
        <ele>400.3</ele>
        <time>2014-10-31T12:56:06.000Z</time>
      </trkpt>
      <trkpt lat="47.50597" lon="6.76627">
        <ele>400.3</ele>
        <time>2014-10-31T12:56:07.000Z</time>
      </trkpt>
      <trkpt lat="47.50593" lon="6.76628">
        <ele>401.5</ele>
        <time>2014-10-31T12:56:08.000Z</time>
      </trkpt>
      <trkpt lat="47.5059" lon="6.7663">
        <ele>401.7</ele>
        <time>2014-10-31T12:56:09.000Z</time>
      </trkpt>
      <trkpt lat="47.50587" lon="6.76632">
        <ele>401.2</ele>
        <time>2014-10-31T12:56:10.000Z</time>
      </trkpt>
      <trkpt lat="47.50583" lon="6.76633">
        <ele>400.8</ele>
        <time>2014-10-31T12:56:11.000Z</time>
      </trkpt>
      <trkpt lat="47.5058" lon="6.76634">
        <ele>400.5</ele>
        <time>2014-10-31T12:56:12.000Z</time>
      </trkpt>
      <trkpt lat="47.50576" lon="6.76635">
        <ele>400.8</ele>
        <time>2014-10-31T12:56:13.000Z</time>
      </trkpt>
      <trkpt lat="47.50573" lon="6.76636">
        <ele>400.9</ele>
        <time>2014-10-31T12:56:14.000Z</time>
      </trkpt>
      <trkpt lat="47.50569" lon="6.76637">
        <ele>401.5</ele>
        <time>2014-10-31T12:56:15.000Z</time>
      </trkpt>
      <trkpt lat="47.50566" lon="6.76637">
        <ele>402.4</ele>
        <time>2014-10-31T12:56:16.000Z</time>
      </trkpt>
      <trkpt lat="47.50562" lon="6.76638">
        <ele>402.8</ele>
        <time>2014-10-31T12:56:17.000Z</time>
      </trkpt>
      <trkpt lat="47.50559" lon="6.76639">
        <ele>402.9</ele>
        <time>2014-10-31T12:56:18.000Z</time>
      </trkpt>
      <trkpt lat="47.50555" lon="6.7664">
        <ele>403.5</ele>
        <time>2014-10-31T12:56:19.000Z</time>
      </trkpt>
      <trkpt lat="47.50552" lon="6.76641">
        <ele>403.9</ele>
        <time>2014-10-31T12:56:20.000Z</time>
      </trkpt>
      <trkpt lat="47.50548" lon="6.76642">
        <ele>404</ele>
        <time>2014-10-31T12:56:21.000Z</time>
      </trkpt>
      <trkpt lat="47.50544" lon="6.76642">
        <ele>403.7</ele>
        <time>2014-10-31T12:56:22.000Z</time>
      </trkpt>
      <trkpt lat="47.5054" lon="6.76643">
        <ele>404</ele>
        <time>2014-10-31T12:56:23.000Z</time>
      </trkpt>
      <trkpt lat="47.50536" lon="6.76644">
        <ele>404.3</ele>
        <time>2014-10-31T12:56:24.000Z</time>
      </trkpt>
      <trkpt lat="47.50532" lon="6.76646">
        <ele>403.8</ele>
        <time>2014-10-31T12:56:25.000Z</time>
      </trkpt>
      <trkpt lat="47.50528" lon="6.76647">
        <ele>403.4</ele>
        <time>2014-10-31T12:56:26.000Z</time>
      </trkpt>
      <trkpt lat="47.50524" lon="6.76648">
        <ele>403.8</ele>
        <time>2014-10-31T12:56:27.000Z</time>
      </trkpt>
      <trkpt lat="47.5052" lon="6.76649">
        <ele>403.7</ele>
        <time>2014-10-31T12:56:28.000Z</time>
      </trkpt>
      <trkpt lat="47.50515" lon="6.76651">
        <ele>402.9</ele>
        <time>2014-10-31T12:56:29.000Z</time>
      </trkpt>
      <trkpt lat="47.5051" lon="6.76653">
        <ele>402.4</ele>
        <time>2014-10-31T12:56:30.000Z</time>
      </trkpt>
      <trkpt lat="47.50505" lon="6.76654">
        <ele>402.8</ele>
        <time>2014-10-31T12:56:31.000Z</time>
      </trkpt>
      <trkpt lat="47.505" lon="6.76655">
        <ele>403.1</ele>
        <time>2014-10-31T12:56:32.000Z</time>
      </trkpt>
      <trkpt lat="47.50496" lon="6.76656">
        <ele>403.2</ele>
        <time>2014-10-31T12:56:33.000Z</time>
      </trkpt>
      <trkpt lat="47.50492" lon="6.76658">
        <ele>402.1</ele>
        <time>2014-10-31T12:56:34.000Z</time>
      </trkpt>
      <trkpt lat="47.50487" lon="6.76659">
        <ele>400.9</ele>
        <time>2014-10-31T12:56:35.000Z</time>
      </trkpt>
      <trkpt lat="47.50481" lon="6.76661">
        <ele>400.5</ele>
        <time>2014-10-31T12:56:36.000Z</time>
      </trkpt>
      <trkpt lat="47.50477" lon="6.76662">
        <ele>400.6</ele>
        <time>2014-10-31T12:56:37.000Z</time>
      </trkpt>
      <trkpt lat="47.50472" lon="6.76665">
        <ele>399.7</ele>
        <time>2014-10-31T12:56:38.000Z</time>
      </trkpt>
      <trkpt lat="47.50467" lon="6.76667">
        <ele>399.3</ele>
        <time>2014-10-31T12:56:39.000Z</time>
      </trkpt>
      <trkpt lat="47.50462" lon="6.76669">
        <ele>399.7</ele>
        <time>2014-10-31T12:56:40.000Z</time>
      </trkpt>
      <trkpt lat="47.50457" lon="6.76671">
        <ele>399.3</ele>
        <time>2014-10-31T12:56:41.000Z</time>
      </trkpt>
      <trkpt lat="47.50452" lon="6.76673">
        <ele>398.2</ele>
        <time>2014-10-31T12:56:42.000Z</time>
      </trkpt>
      <trkpt lat="47.50447" lon="6.76676">
        <ele>398.6</ele>
        <time>2014-10-31T12:56:43.000Z</time>
      </trkpt>
      <trkpt lat="47.50442" lon="6.76679">
        <ele>398.9</ele>
        <time>2014-10-31T12:56:44.000Z</time>
      </trkpt>
      <trkpt lat="47.50438" lon="6.76681">
        <ele>398.9</ele>
        <time>2014-10-31T12:56:45.000Z</time>
      </trkpt>
      <trkpt lat="47.50433" lon="6.76683">
        <ele>398.8</ele>
        <time>2014-10-31T12:56:46.000Z</time>
      </trkpt>
      <trkpt lat="47.50428" lon="6.76685">
        <ele>399.7</ele>
        <time>2014-10-31T12:56:47.000Z</time>
      </trkpt>
      <trkpt lat="47.50423" lon="6.76686">
        <ele>399.2</ele>
        <time>2014-10-31T12:56:48.000Z</time>
      </trkpt>
      <trkpt lat="47.50418" lon="6.76687">
        <ele>399.7</ele>
        <time>2014-10-31T12:56:49.000Z</time>
      </trkpt>
      <trkpt lat="47.50414" lon="6.7669">
        <ele>399.5</ele>
        <time>2014-10-31T12:56:50.000Z</time>
      </trkpt>
      <trkpt lat="47.50409" lon="6.7669">
        <ele>399.4</ele>
        <time>2014-10-31T12:56:51.000Z</time>
      </trkpt>
      <trkpt lat="47.50397" lon="6.76695">
        <ele>399.7</ele>
        <time>2014-10-31T12:56:54.000Z</time>
      </trkpt>
      <trkpt lat="47.50393" lon="6.76697">
        <ele>400.2</ele>
        <time>2014-10-31T12:56:55.000Z</time>
      </trkpt>
      <trkpt lat="47.50388" lon="6.76699">
        <ele>399.3</ele>
        <time>2014-10-31T12:56:56.000Z</time>
      </trkpt>
      <trkpt lat="47.50384" lon="6.76701">
        <ele>397.9</ele>
        <time>2014-10-31T12:56:57.000Z</time>
      </trkpt>
      <trkpt lat="47.50379" lon="6.76703">
        <ele>397.9</ele>
        <time>2014-10-31T12:56:58.000Z</time>
      </trkpt>
      <trkpt lat="47.50375" lon="6.76705">
        <ele>397.9</ele>
        <time>2014-10-31T12:56:59.000Z</time>
      </trkpt>
      <trkpt lat="47.5037" lon="6.76707">
        <ele>398.5</ele>
        <time>2014-10-31T12:57:00.000Z</time>
      </trkpt>
      <trkpt lat="47.50365" lon="6.7671">
        <ele>398.3</ele>
        <time>2014-10-31T12:57:01.000Z</time>
      </trkpt>
      <trkpt lat="47.50361" lon="6.76711">
        <ele>397.9</ele>
        <time>2014-10-31T12:57:02.000Z</time>
      </trkpt>
      <trkpt lat="47.50356" lon="6.76714">
        <ele>397.6</ele>
        <time>2014-10-31T12:57:03.000Z</time>
      </trkpt>
      <trkpt lat="47.50351" lon="6.76717">
        <ele>397.9</ele>
        <time>2014-10-31T12:57:04.000Z</time>
      </trkpt>
      <trkpt lat="47.50347" lon="6.76719">
        <ele>397.9</ele>
        <time>2014-10-31T12:57:05.000Z</time>
      </trkpt>
      <trkpt lat="47.50342" lon="6.76721">
        <ele>398.6</ele>
        <time>2014-10-31T12:57:06.000Z</time>
      </trkpt>
      <trkpt lat="47.50338" lon="6.76723">
        <ele>399</ele>
        <time>2014-10-31T12:57:07.000Z</time>
      </trkpt>
      <trkpt lat="47.50333" lon="6.76725">
        <ele>399.2</ele>
        <time>2014-10-31T12:57:08.000Z</time>
      </trkpt>
      <trkpt lat="47.50328" lon="6.76727">
        <ele>399.3</ele>
        <time>2014-10-31T12:57:09.000Z</time>
      </trkpt>
      <trkpt lat="47.50324" lon="6.76728">
        <ele>399</ele>
        <time>2014-10-31T12:57:10.000Z</time>
      </trkpt>
      <trkpt lat="47.50319" lon="6.7673">
        <ele>398.6</ele>
        <time>2014-10-31T12:57:11.000Z</time>
      </trkpt>
      <trkpt lat="47.50314" lon="6.76732">
        <ele>397.6</ele>
        <time>2014-10-31T12:57:12.000Z</time>
      </trkpt>
      <trkpt lat="47.50308" lon="6.76733">
        <ele>398.2</ele>
        <time>2014-10-31T12:57:13.000Z</time>
      </trkpt>
      <trkpt lat="47.50303" lon="6.76734">
        <ele>398.7</ele>
        <time>2014-10-31T12:57:14.000Z</time>
      </trkpt>
      <trkpt lat="47.50299" lon="6.76735">
        <ele>399</ele>
        <time>2014-10-31T12:57:15.000Z</time>
      </trkpt>
      <trkpt lat="47.50292" lon="6.76737">
        <ele>399.2</ele>
        <time>2014-10-31T12:57:16.000Z</time>
      </trkpt>
      <trkpt lat="47.50288" lon="6.76737">
        <ele>400.2</ele>
        <time>2014-10-31T12:57:17.000Z</time>
      </trkpt>
      <trkpt lat="47.50284" lon="6.76738">
        <ele>400.9</ele>
        <time>2014-10-31T12:57:18.000Z</time>
      </trkpt>
      <trkpt lat="47.50279" lon="6.76739">
        <ele>400.2</ele>
        <time>2014-10-31T12:57:19.000Z</time>
      </trkpt>
      <trkpt lat="47.50275" lon="6.76741">
        <ele>401.5</ele>
        <time>2014-10-31T12:57:20.000Z</time>
      </trkpt>
      <trkpt lat="47.50271" lon="6.76742">
        <ele>402.2</ele>
        <time>2014-10-31T12:57:21.000Z</time>
      </trkpt>
      <trkpt lat="47.50267" lon="6.76743">
        <ele>403.1</ele>
        <time>2014-10-31T12:57:22.000Z</time>
      </trkpt>
      <trkpt lat="47.50263" lon="6.76745">
        <ele>402.5</ele>
        <time>2014-10-31T12:57:23.000Z</time>
      </trkpt>
      <trkpt lat="47.50259" lon="6.76747">
        <ele>401.7</ele>
        <time>2014-10-31T12:57:24.000Z</time>
      </trkpt>
      <trkpt lat="47.50255" lon="6.76749">
        <ele>401.1</ele>
        <time>2014-10-31T12:57:25.000Z</time>
      </trkpt>
      <trkpt lat="47.50252" lon="6.76749">
        <ele>400.4</ele>
        <time>2014-10-31T12:57:26.000Z</time>
      </trkpt>
      <trkpt lat="47.50248" lon="6.76748">
        <ele>400.7</ele>
        <time>2014-10-31T12:57:27.000Z</time>
      </trkpt>
      <trkpt lat="47.50244" lon="6.76746">
        <ele>401.8</ele>
        <time>2014-10-31T12:57:28.000Z</time>
      </trkpt>
      <trkpt lat="47.50242" lon="6.76742">
        <ele>402.1</ele>
        <time>2014-10-31T12:57:29.000Z</time>
      </trkpt>
      <trkpt lat="47.50239" lon="6.76738">
        <ele>402.2</ele>
        <time>2014-10-31T12:57:30.000Z</time>
      </trkpt>
      <trkpt lat="47.50236" lon="6.76734">
        <ele>402.4</ele>
        <time>2014-10-31T12:57:31.000Z</time>
      </trkpt>
      <trkpt lat="47.50233" lon="6.7673">
        <ele>402.9</ele>
        <time>2014-10-31T12:57:32.000Z</time>
      </trkpt>
      <trkpt lat="47.5023" lon="6.76726">
        <ele>403.8</ele>
        <time>2014-10-31T12:57:33.000Z</time>
      </trkpt>
      <trkpt lat="47.50228" lon="6.76721">
        <ele>402.7</ele>
        <time>2014-10-31T12:57:34.000Z</time>
      </trkpt>
      <trkpt lat="47.50226" lon="6.76717">
        <ele>403.4</ele>
        <time>2014-10-31T12:57:35.000Z</time>
      </trkpt>
      <trkpt lat="47.50224" lon="6.76712">
        <ele>403.7</ele>
        <time>2014-10-31T12:57:36.000Z</time>
      </trkpt>
      <trkpt lat="47.50222" lon="6.76707">
        <ele>403.6</ele>
        <time>2014-10-31T12:57:37.000Z</time>
      </trkpt>
      <trkpt lat="47.5022" lon="6.76702">
        <ele>403.2</ele>
        <time>2014-10-31T12:57:38.000Z</time>
      </trkpt>
      <trkpt lat="47.50219" lon="6.76697">
        <ele>403.8</ele>
        <time>2014-10-31T12:57:39.000Z</time>
      </trkpt>
      <trkpt lat="47.50217" lon="6.76691">
        <ele>403.8</ele>
        <time>2014-10-31T12:57:40.000Z</time>
      </trkpt>
      <trkpt lat="47.50215" lon="6.76686">
        <ele>404.2</ele>
        <time>2014-10-31T12:57:41.000Z</time>
      </trkpt>
      <trkpt lat="47.50213" lon="6.7668">
        <ele>403.4</ele>
        <time>2014-10-31T12:57:42.000Z</time>
      </trkpt>
      <trkpt lat="47.50212" lon="6.76672">
        <ele>403.7</ele>
        <time>2014-10-31T12:57:43.000Z</time>
      </trkpt>
      <trkpt lat="47.50209" lon="6.76666">
        <ele>404.5</ele>
        <time>2014-10-31T12:57:44.000Z</time>
      </trkpt>
      <trkpt lat="47.50207" lon="6.76661">
        <ele>404.5</ele>
        <time>2014-10-31T12:57:45.000Z</time>
      </trkpt>
      <trkpt lat="47.50206" lon="6.76655">
        <ele>404.8</ele>
        <time>2014-10-31T12:57:46.000Z</time>
      </trkpt>
      <trkpt lat="47.50204" lon="6.76649">
        <ele>404.9</ele>
        <time>2014-10-31T12:57:47.000Z</time>
      </trkpt>
      <trkpt lat="47.50202" lon="6.76643">
        <ele>404.7</ele>
        <time>2014-10-31T12:57:48.000Z</time>
      </trkpt>
      <trkpt lat="47.502" lon="6.76636">
        <ele>404.7</ele>
        <time>2014-10-31T12:57:49.000Z</time>
      </trkpt>
      <trkpt lat="47.50197" lon="6.76629">
        <ele>403.7</ele>
        <time>2014-10-31T12:57:50.000Z</time>
      </trkpt>
      <trkpt lat="47.50195" lon="6.76623">
        <ele>403.9</ele>
        <time>2014-10-31T12:57:51.000Z</time>
      </trkpt>
      <trkpt lat="47.50193" lon="6.76607">
        <ele>403.4</ele>
        <time>2014-10-31T12:57:54.000Z</time>
      </trkpt>
      <trkpt lat="47.50193" lon="6.76601">
        <ele>403.5</ele>
        <time>2014-10-31T12:57:55.000Z</time>
      </trkpt>
      <trkpt lat="47.50192" lon="6.76596">
        <ele>404.6</ele>
        <time>2014-10-31T12:57:56.000Z</time>
      </trkpt>
      <trkpt lat="47.50191" lon="6.76592">
        <ele>405.1</ele>
        <time>2014-10-31T12:57:57.000Z</time>
      </trkpt>
      <trkpt lat="47.5019" lon="6.76587">
        <ele>405.6</ele>
        <time>2014-10-31T12:57:58.000Z</time>
      </trkpt>
      <trkpt lat="47.5019" lon="6.76583">
        <ele>405.6</ele>
        <time>2014-10-31T12:57:59.000Z</time>
      </trkpt>
      <trkpt lat="47.5019" lon="6.76578">
        <ele>402.3</ele>
        <time>2014-10-31T12:58:00.000Z</time>
      </trkpt>
      <trkpt lat="47.50192" lon="6.76574">
        <ele>402.4</ele>
        <time>2014-10-31T12:58:01.000Z</time>
      </trkpt>
      <trkpt lat="47.50195" lon="6.7657">
        <ele>402.3</ele>
        <time>2014-10-31T12:58:02.000Z</time>
      </trkpt>
      <trkpt lat="47.50199" lon="6.76568">
        <ele>402.8</ele>
        <time>2014-10-31T12:58:03.000Z</time>
      </trkpt>
      <trkpt lat="47.50203" lon="6.76567">
        <ele>402.1</ele>
        <time>2014-10-31T12:58:04.000Z</time>
      </trkpt>
      <trkpt lat="47.50208" lon="6.76566">
        <ele>401.8</ele>
        <time>2014-10-31T12:58:05.000Z</time>
      </trkpt>
      <trkpt lat="47.50213" lon="6.76566">
        <ele>401.2</ele>
        <time>2014-10-31T12:58:06.000Z</time>
      </trkpt>
      <trkpt lat="47.50217" lon="6.76565">
        <ele>401.3</ele>
        <time>2014-10-31T12:58:07.000Z</time>
      </trkpt>
      <trkpt lat="47.50222" lon="6.76563">
        <ele>401</ele>
        <time>2014-10-31T12:58:08.000Z</time>
      </trkpt>
      <trkpt lat="47.50225" lon="6.76559">
        <ele>401.4</ele>
        <time>2014-10-31T12:58:09.000Z</time>
      </trkpt>
      <trkpt lat="47.50227" lon="6.76557">
        <ele>399.9</ele>
        <time>2014-10-31T12:58:10.000Z</time>
      </trkpt>
      <trkpt lat="47.50224" lon="6.76556">
        <ele>398.3</ele>
        <time>2014-10-31T12:58:11.000Z</time>
      </trkpt>
      <trkpt lat="47.50222" lon="6.76555">
        <ele>398.8</ele>
        <time>2014-10-31T12:58:12.000Z</time>
      </trkpt>
      <trkpt lat="47.50221" lon="6.7655">
        <ele>400.8</ele>
        <time>2014-10-31T12:58:16.000Z</time>
      </trkpt>
      <trkpt lat="47.50221" lon="6.76548">
        <ele>401.3</ele>
        <time>2014-10-31T12:58:17.000Z</time>
      </trkpt>
      <trkpt lat="47.5022" lon="6.76543">
        <ele>402.5</ele>
        <time>2014-10-31T12:58:19.000Z</time>
      </trkpt>
      <trkpt lat="47.50219" lon="6.7654">
        <ele>401.2</ele>
        <time>2014-10-31T12:58:20.000Z</time>
      </trkpt>
      <trkpt lat="47.50218" lon="6.76537">
        <ele>400.3</ele>
        <time>2014-10-31T12:58:21.000Z</time>
      </trkpt>
      <trkpt lat="47.50217" lon="6.76532">
        <ele>400.8</ele>
        <time>2014-10-31T12:58:22.000Z</time>
      </trkpt>
      <trkpt lat="47.50217" lon="6.76526">
        <ele>401.7</ele>
        <time>2014-10-31T12:58:23.000Z</time>
      </trkpt>
      <trkpt lat="47.50216" lon="6.76519">
        <ele>403.3</ele>
        <time>2014-10-31T12:58:24.000Z</time>
      </trkpt>
      <trkpt lat="47.50215" lon="6.76506">
        <ele>403.6</ele>
        <time>2014-10-31T12:58:25.000Z</time>
      </trkpt>
      <trkpt lat="47.50213" lon="6.76497">
        <ele>404.7</ele>
        <time>2014-10-31T12:58:26.000Z</time>
      </trkpt>
      <trkpt lat="47.50208" lon="6.76489">
        <ele>404.3</ele>
        <time>2014-10-31T12:58:27.000Z</time>
      </trkpt>
      <trkpt lat="47.50205" lon="6.76479">
        <ele>403.9</ele>
        <time>2014-10-31T12:58:28.000Z</time>
      </trkpt>
      <trkpt lat="47.50203" lon="6.76471">
        <ele>403.9</ele>
        <time>2014-10-31T12:58:29.000Z</time>
      </trkpt>
      <trkpt lat="47.50203" lon="6.76463">
        <ele>402.4</ele>
        <time>2014-10-31T12:58:30.000Z</time>
      </trkpt>
      <trkpt lat="47.50199" lon="6.76454">
        <ele>403.6</ele>
        <time>2014-10-31T12:58:31.000Z</time>
      </trkpt>
      <trkpt lat="47.50196" lon="6.76445">
        <ele>404.6</ele>
        <time>2014-10-31T12:58:32.000Z</time>
      </trkpt>
      <trkpt lat="47.50192" lon="6.76436">
        <ele>406.3</ele>
        <time>2014-10-31T12:58:33.000Z</time>
      </trkpt>
      <trkpt lat="47.50189" lon="6.76426">
        <ele>407.6</ele>
        <time>2014-10-31T12:58:34.000Z</time>
      </trkpt>
      <trkpt lat="47.50187" lon="6.76417">
        <ele>411</ele>
        <time>2014-10-31T12:58:35.000Z</time>
      </trkpt>
      <trkpt lat="47.50184" lon="6.76408">
        <ele>412.5</ele>
        <time>2014-10-31T12:58:36.000Z</time>
      </trkpt>
      <trkpt lat="47.50181" lon="6.76399">
        <ele>412</ele>
        <time>2014-10-31T12:58:37.000Z</time>
      </trkpt>
      <trkpt lat="47.50177" lon="6.76389">
        <ele>412.3</ele>
        <time>2014-10-31T12:58:38.000Z</time>
      </trkpt>
      <trkpt lat="47.50174" lon="6.76382">
        <ele>410.7</ele>
        <time>2014-10-31T12:58:39.000Z</time>
      </trkpt>
      <trkpt lat="47.50172" lon="6.76373">
        <ele>410.5</ele>
        <time>2014-10-31T12:58:40.000Z</time>
      </trkpt>
      <trkpt lat="47.50169" lon="6.76365">
        <ele>410.9</ele>
        <time>2014-10-31T12:58:41.000Z</time>
      </trkpt>
      <trkpt lat="47.50168" lon="6.76359">
        <ele>408.8</ele>
        <time>2014-10-31T12:58:42.000Z</time>
      </trkpt>
      <trkpt lat="47.50162" lon="6.7635">
        <ele>405.8</ele>
        <time>2014-10-31T12:58:43.000Z</time>
      </trkpt>
      <trkpt lat="47.50159" lon="6.76341">
        <ele>405</ele>
        <time>2014-10-31T12:58:44.000Z</time>
      </trkpt>
      <trkpt lat="47.50157" lon="6.7633">
        <ele>404.8</ele>
        <time>2014-10-31T12:58:45.000Z</time>
      </trkpt>
      <trkpt lat="47.50155" lon="6.76321">
        <ele>404.6</ele>
        <time>2014-10-31T12:58:46.000Z</time>
      </trkpt>
      <trkpt lat="47.50153" lon="6.76311">
        <ele>404.4</ele>
        <time>2014-10-31T12:58:47.000Z</time>
      </trkpt>
      <trkpt lat="47.50151" lon="6.76301">
        <ele>404.7</ele>
        <time>2014-10-31T12:58:48.000Z</time>
      </trkpt>
      <trkpt lat="47.50149" lon="6.76293">
        <ele>404.5</ele>
        <time>2014-10-31T12:58:49.000Z</time>
      </trkpt>
      <trkpt lat="47.50146" lon="6.76285">
        <ele>408.1</ele>
        <time>2014-10-31T12:58:50.000Z</time>
      </trkpt>
      <trkpt lat="47.50144" lon="6.76277">
        <ele>409.5</ele>
        <time>2014-10-31T12:58:51.000Z</time>
      </trkpt>
      <trkpt lat="47.5014" lon="6.76256">
        <ele>411.2</ele>
        <time>2014-10-31T12:58:54.000Z</time>
      </trkpt>
      <trkpt lat="47.5014" lon="6.76247">
        <ele>411.2</ele>
        <time>2014-10-31T12:58:55.000Z</time>
      </trkpt>
      <trkpt lat="47.5014" lon="6.76235">
        <ele>411.5</ele>
        <time>2014-10-31T12:58:56.000Z</time>
      </trkpt>
      <trkpt lat="47.50139" lon="6.76226">
        <ele>411.4</ele>
        <time>2014-10-31T12:58:57.000Z</time>
      </trkpt>
      <trkpt lat="47.50135" lon="6.76214">
        <ele>411.7</ele>
        <time>2014-10-31T12:58:58.000Z</time>
      </trkpt>
      <trkpt lat="47.50134" lon="6.76201">
        <ele>411.6</ele>
        <time>2014-10-31T12:58:59.000Z</time>
      </trkpt>
      <trkpt lat="47.50131" lon="6.76191">
        <ele>411.2</ele>
        <time>2014-10-31T12:59:00.000Z</time>
      </trkpt>
      <trkpt lat="47.50126" lon="6.7618">
        <ele>411.2</ele>
        <time>2014-10-31T12:59:01.000Z</time>
      </trkpt>
      <trkpt lat="47.50124" lon="6.76168">
        <ele>410.3</ele>
        <time>2014-10-31T12:59:02.000Z</time>
      </trkpt>
      <trkpt lat="47.50122" lon="6.76157">
        <ele>410.5</ele>
        <time>2014-10-31T12:59:03.000Z</time>
      </trkpt>
      <trkpt lat="47.5012" lon="6.76145">
        <ele>410.4</ele>
        <time>2014-10-31T12:59:04.000Z</time>
      </trkpt>
      <trkpt lat="47.50119" lon="6.76134">
        <ele>410.8</ele>
        <time>2014-10-31T12:59:05.000Z</time>
      </trkpt>
      <trkpt lat="47.50115" lon="6.76122">
        <ele>410.3</ele>
        <time>2014-10-31T12:59:06.000Z</time>
      </trkpt>
      <trkpt lat="47.50112" lon="6.76111">
        <ele>411.1</ele>
        <time>2014-10-31T12:59:07.000Z</time>
      </trkpt>
      <trkpt lat="47.50109" lon="6.76103">
        <ele>418.5</ele>
        <time>2014-10-31T12:59:08.000Z</time>
      </trkpt>
      <trkpt lat="47.50107" lon="6.76092">
        <ele>421.5</ele>
        <time>2014-10-31T12:59:09.000Z</time>
      </trkpt>
      <trkpt lat="47.50106" lon="6.76079">
        <ele>422.3</ele>
        <time>2014-10-31T12:59:10.000Z</time>
      </trkpt>
      <trkpt lat="47.50106" lon="6.76067">
        <ele>422.1</ele>
        <time>2014-10-31T12:59:11.000Z</time>
      </trkpt>
      <trkpt lat="47.50104" lon="6.76051">
        <ele>421</ele>
        <time>2014-10-31T12:59:12.000Z</time>
      </trkpt>
      <trkpt lat="47.50103" lon="6.76039">
        <ele>419.6</ele>
        <time>2014-10-31T12:59:13.000Z</time>
      </trkpt>
      <trkpt lat="47.50097" lon="6.76022">
        <ele>413.6</ele>
        <time>2014-10-31T12:59:14.000Z</time>
      </trkpt>
      <trkpt lat="47.50092" lon="6.76012">
        <ele>412.8</ele>
        <time>2014-10-31T12:59:15.000Z</time>
      </trkpt>
      <trkpt lat="47.50088" lon="6.76001">
        <ele>411.5</ele>
        <time>2014-10-31T12:59:16.000Z</time>
      </trkpt>
      <trkpt lat="47.50082" lon="6.75992">
        <ele>411.2</ele>
        <time>2014-10-31T12:59:17.000Z</time>
      </trkpt>
      <trkpt lat="47.50075" lon="6.75977">
        <ele>401.5</ele>
        <time>2014-10-31T12:59:18.000Z</time>
      </trkpt>
      <trkpt lat="47.50069" lon="6.75969">
        <ele>401.4</ele>
        <time>2014-10-31T12:59:19.000Z</time>
      </trkpt>
      <trkpt lat="47.50064" lon="6.7596">
        <ele>400.4</ele>
        <time>2014-10-31T12:59:20.000Z</time>
      </trkpt>
      <trkpt lat="47.50059" lon="6.7595">
        <ele>398</ele>
        <time>2014-10-31T12:59:21.000Z</time>
      </trkpt>
      <trkpt lat="47.50053" lon="6.7594">
        <ele>398.8</ele>
        <time>2014-10-31T12:59:22.000Z</time>
      </trkpt>
      <trkpt lat="47.50049" lon="6.75932">
        <ele>397.4</ele>
        <time>2014-10-31T12:59:23.000Z</time>
      </trkpt>
      <trkpt lat="47.50044" lon="6.75923">
        <ele>396.1</ele>
        <time>2014-10-31T12:59:24.000Z</time>
      </trkpt>
      <trkpt lat="47.50038" lon="6.75916">
        <ele>395.6</ele>
        <time>2014-10-31T12:59:25.000Z</time>
      </trkpt>
      <trkpt lat="47.50033" lon="6.75907">
        <ele>395.1</ele>
        <time>2014-10-31T12:59:26.000Z</time>
      </trkpt>
      <trkpt lat="47.50027" lon="6.75897">
        <ele>393.4</ele>
        <time>2014-10-31T12:59:27.000Z</time>
      </trkpt>
      <trkpt lat="47.50023" lon="6.75887">
        <ele>393.2</ele>
        <time>2014-10-31T12:59:28.000Z</time>
      </trkpt>
      <trkpt lat="47.50014" lon="6.75878">
        <ele>392.6</ele>
        <time>2014-10-31T12:59:29.000Z</time>
      </trkpt>
      <trkpt lat="47.50007" lon="6.75871">
        <ele>391.7</ele>
        <time>2014-10-31T12:59:30.000Z</time>
      </trkpt>
      <trkpt lat="47.50005" lon="6.7586">
        <ele>391.8</ele>
        <time>2014-10-31T12:59:31.000Z</time>
      </trkpt>
      <trkpt lat="47.49999" lon="6.7585">
        <ele>390.7</ele>
        <time>2014-10-31T12:59:32.000Z</time>
      </trkpt>
      <trkpt lat="47.49994" lon="6.75841">
        <ele>390.3</ele>
        <time>2014-10-31T12:59:33.000Z</time>
      </trkpt>
      <trkpt lat="47.49991" lon="6.75836">
        <ele>389.6</ele>
        <time>2014-10-31T12:59:34.000Z</time>
      </trkpt>
      <trkpt lat="47.49988" lon="6.75828">
        <ele>387.7</ele>
        <time>2014-10-31T12:59:35.000Z</time>
      </trkpt>
      <trkpt lat="47.49983" lon="6.75818">
        <ele>387.3</ele>
        <time>2014-10-31T12:59:36.000Z</time>
      </trkpt>
      <trkpt lat="47.49978" lon="6.75808">
        <ele>385.9</ele>
        <time>2014-10-31T12:59:37.000Z</time>
      </trkpt>
      <trkpt lat="47.49972" lon="6.75799">
        <ele>385</ele>
        <time>2014-10-31T12:59:38.000Z</time>
      </trkpt>
      <trkpt lat="47.49966" lon="6.75789">
        <ele>383.4</ele>
        <time>2014-10-31T12:59:39.000Z</time>
      </trkpt>
      <trkpt lat="47.49962" lon="6.75778">
        <ele>382.3</ele>
        <time>2014-10-31T12:59:40.000Z</time>
      </trkpt>
      <trkpt lat="47.49955" lon="6.75771">
        <ele>377.8</ele>
        <time>2014-10-31T12:59:41.000Z</time>
      </trkpt>
      <trkpt lat="47.49948" lon="6.75765">
        <ele>378.5</ele>
        <time>2014-10-31T12:59:42.000Z</time>
      </trkpt>
      <trkpt lat="47.49941" lon="6.75757">
        <ele>377.1</ele>
        <time>2014-10-31T12:59:43.000Z</time>
      </trkpt>
      <trkpt lat="47.49934" lon="6.75747">
        <ele>375.1</ele>
        <time>2014-10-31T12:59:44.000Z</time>
      </trkpt>
      <trkpt lat="47.49928" lon="6.75739">
        <ele>371.6</ele>
        <time>2014-10-31T12:59:45.000Z</time>
      </trkpt>
      <trkpt lat="47.49923" lon="6.75733">
        <ele>370.1</ele>
        <time>2014-10-31T12:59:46.000Z</time>
      </trkpt>
      <trkpt lat="47.49918" lon="6.75727">
        <ele>368.7</ele>
        <time>2014-10-31T12:59:46.999Z</time>
      </trkpt>
      <trkpt lat="47.4991" lon="6.75724">
        <ele>370.6</ele>
        <time>2014-10-31T12:59:48.000Z</time>
      </trkpt>
      <trkpt lat="47.49903" lon="6.75723">
        <ele>369.3</ele>
        <time>2014-10-31T12:59:49.000Z</time>
      </trkpt>
      <trkpt lat="47.49896" lon="6.75724">
        <ele>368.7</ele>
        <time>2014-10-31T12:59:50.000Z</time>
      </trkpt>
      <trkpt lat="47.49889" lon="6.75725">
        <ele>368.5</ele>
        <time>2014-10-31T12:59:51.000Z</time>
      </trkpt>
      <trkpt lat="47.4988" lon="6.75726">
        <ele>367.4</ele>
        <time>2014-10-31T12:59:52.000Z</time>
      </trkpt>
      <trkpt lat="47.49805" lon="6.75746">
        <ele>361.8</ele>
        <time>2014-10-31T13:00:00.000Z</time>
      </trkpt>
      <trkpt lat="47.49793" lon="6.75747">
        <ele>359.6</ele>
        <time>2014-10-31T13:00:01.000Z</time>
      </trkpt>
      <trkpt lat="47.49781" lon="6.75748">
        <ele>356.3</ele>
        <time>2014-10-31T13:00:02.000Z</time>
      </trkpt>
      <trkpt lat="47.49772" lon="6.75751">
        <ele>354.6</ele>
        <time>2014-10-31T13:00:03.000Z</time>
      </trkpt>
      <trkpt lat="47.49762" lon="6.75753">
        <ele>351.7</ele>
        <time>2014-10-31T13:00:04.000Z</time>
      </trkpt>
      <trkpt lat="47.49755" lon="6.75759">
        <ele>348.3</ele>
        <time>2014-10-31T13:00:05.000Z</time>
      </trkpt>
      <trkpt lat="47.49746" lon="6.75762">
        <ele>347.7</ele>
        <time>2014-10-31T13:00:06.000Z</time>
      </trkpt>
      <trkpt lat="47.49737" lon="6.75764">
        <ele>345.8</ele>
        <time>2014-10-31T13:00:07.000Z</time>
      </trkpt>
      <trkpt lat="47.49727" lon="6.75768">
        <ele>346.3</ele>
        <time>2014-10-31T13:00:08.000Z</time>
      </trkpt>
      <trkpt lat="47.49721" lon="6.75771">
        <ele>346.2</ele>
        <time>2014-10-31T13:00:09.000Z</time>
      </trkpt>
      <trkpt lat="47.49712" lon="6.75773">
        <ele>346.1</ele>
        <time>2014-10-31T13:00:10.000Z</time>
      </trkpt>
      <trkpt lat="47.49705" lon="6.75776">
        <ele>347.1</ele>
        <time>2014-10-31T13:00:11.000Z</time>
      </trkpt>
      <trkpt lat="47.49695" lon="6.75777">
        <ele>345.8</ele>
        <time>2014-10-31T13:00:12.000Z</time>
      </trkpt>
      <trkpt lat="47.49688" lon="6.75779">
        <ele>344.9</ele>
        <time>2014-10-31T13:00:13.000Z</time>
      </trkpt>
      <trkpt lat="47.4968" lon="6.75781">
        <ele>343.4</ele>
        <time>2014-10-31T13:00:14.000Z</time>
      </trkpt>
      <trkpt lat="47.49672" lon="6.75783">
        <ele>342.5</ele>
        <time>2014-10-31T13:00:15.000Z</time>
      </trkpt>
      <trkpt lat="47.49663" lon="6.75783">
        <ele>341.5</ele>
        <time>2014-10-31T13:00:16.000Z</time>
      </trkpt>
      <trkpt lat="47.49655" lon="6.75782">
        <ele>341</ele>
        <time>2014-10-31T13:00:17.000Z</time>
      </trkpt>
      <trkpt lat="47.49647" lon="6.75783">
        <ele>339.9</ele>
        <time>2014-10-31T13:00:18.000Z</time>
      </trkpt>
      <trkpt lat="47.49639" lon="6.75781">
        <ele>339</ele>
        <time>2014-10-31T13:00:19.000Z</time>
      </trkpt>
      <trkpt lat="47.49631" lon="6.7578">
        <ele>338.1</ele>
        <time>2014-10-31T13:00:20.000Z</time>
      </trkpt>
      <trkpt lat="47.49622" lon="6.75779">
        <ele>337.1</ele>
        <time>2014-10-31T13:00:21.000Z</time>
      </trkpt>
      <trkpt lat="47.49614" lon="6.75777">
        <ele>336.5</ele>
        <time>2014-10-31T13:00:22.000Z</time>
      </trkpt>
      <trkpt lat="47.49606" lon="6.75779">
        <ele>337.3</ele>
        <time>2014-10-31T13:00:23.000Z</time>
      </trkpt>
      <trkpt lat="47.49598" lon="6.75781">
        <ele>337.6</ele>
        <time>2014-10-31T13:00:24.000Z</time>
      </trkpt>
      <trkpt lat="47.49593" lon="6.7578">
        <ele>336.6</ele>
        <time>2014-10-31T13:00:25.000Z</time>
      </trkpt>
      <trkpt lat="47.49586" lon="6.75779">
        <ele>334.9</ele>
        <time>2014-10-31T13:00:26.000Z</time>
      </trkpt>
      <trkpt lat="47.49579" lon="6.75777">
        <ele>333.9</ele>
        <time>2014-10-31T13:00:27.000Z</time>
      </trkpt>
      <trkpt lat="47.49571" lon="6.75773">
        <ele>333.5</ele>
        <time>2014-10-31T13:00:28.000Z</time>
      </trkpt>
      <trkpt lat="47.49565" lon="6.7577">
        <ele>333.2</ele>
        <time>2014-10-31T13:00:29.000Z</time>
      </trkpt>
      <trkpt lat="47.49557" lon="6.75762">
        <ele>335.5</ele>
        <time>2014-10-31T13:00:30.000Z</time>
      </trkpt>
      <trkpt lat="47.49551" lon="6.75754">
        <ele>340.3</ele>
        <time>2014-10-31T13:00:31.000Z</time>
      </trkpt>
      <trkpt lat="47.49549" lon="6.75748">
        <ele>341.7</ele>
        <time>2014-10-31T13:00:32.000Z</time>
      </trkpt>
      <trkpt lat="47.49549" lon="6.75743">
        <ele>342.2</ele>
        <time>2014-10-31T13:00:33.000Z</time>
      </trkpt>
      <trkpt lat="47.49551" lon="6.75742">
        <ele>341.2</ele>
        <time>2014-10-31T13:00:34.000Z</time>
      </trkpt>
      <trkpt lat="47.49555" lon="6.75741">
        <ele>339.7</ele>
        <time>2014-10-31T13:00:35.000Z</time>
      </trkpt>
      <trkpt lat="47.49559" lon="6.75738">
        <ele>338.8</ele>
        <time>2014-10-31T13:00:36.000Z</time>
      </trkpt>
      <trkpt lat="47.49563" lon="6.75738">
        <ele>337.3</ele>
        <time>2014-10-31T13:00:37.000Z</time>
      </trkpt>
      <trkpt lat="47.49568" lon="6.75736">
        <ele>335.4</ele>
        <time>2014-10-31T13:00:38.000Z</time>
      </trkpt>
      <trkpt lat="47.49573" lon="6.75734">
        <ele>333.3</ele>
        <time>2014-10-31T13:00:39.000Z</time>
      </trkpt>
      <trkpt lat="47.49576" lon="6.75727">
        <ele>333.5</ele>
        <time>2014-10-31T13:00:40.000Z</time>
      </trkpt>
      <trkpt lat="47.4958" lon="6.75719">
        <ele>332.3</ele>
        <time>2014-10-31T13:00:41.000Z</time>
      </trkpt>
      <trkpt lat="47.49584" lon="6.75713">
        <ele>331.1</ele>
        <time>2014-10-31T13:00:42.000Z</time>
      </trkpt>
      <trkpt lat="47.49588" lon="6.75707">
        <ele>330</ele>
        <time>2014-10-31T13:00:43.000Z</time>
      </trkpt>
      <trkpt lat="47.49589" lon="6.75696">
        <ele>329.5</ele>
        <time>2014-10-31T13:00:44.000Z</time>
      </trkpt>
      <trkpt lat="47.4959" lon="6.75692">
        <ele>326.7</ele>
        <time>2014-10-31T13:00:45.000Z</time>
      </trkpt>
      <trkpt lat="47.49588" lon="6.75685">
        <ele>325.3</ele>
        <time>2014-10-31T13:00:46.000Z</time>
      </trkpt>
      <trkpt lat="47.49584" lon="6.75678">
        <ele>324.5</ele>
        <time>2014-10-31T13:00:47.000Z</time>
      </trkpt>
      <trkpt lat="47.49581" lon="6.75673">
        <ele>324</ele>
        <time>2014-10-31T13:00:48.000Z</time>
      </trkpt>
      <trkpt lat="47.49576" lon="6.75668">
        <ele>323.1</ele>
        <time>2014-10-31T13:00:49.000Z</time>
      </trkpt>
      <trkpt lat="47.4957" lon="6.75669">
        <ele>322.3</ele>
        <time>2014-10-31T13:00:50.000Z</time>
      </trkpt>
      <trkpt lat="47.49565" lon="6.75674">
        <ele>322.8</ele>
        <time>2014-10-31T13:00:51.000Z</time>
      </trkpt>
      <trkpt lat="47.4956" lon="6.7568">
        <ele>322.6</ele>
        <time>2014-10-31T13:00:52.000Z</time>
      </trkpt>
      <trkpt lat="47.49524" lon="6.75723">
        <ele>321.8</ele>
        <time>2014-10-31T13:00:59.366Z</time>
      </trkpt>
      <trkpt lat="47.49521" lon="6.75726">
        <ele>321.8</ele>
        <time>2014-10-31T13:00:59.999Z</time>
      </trkpt>
      <trkpt lat="47.4951" lon="6.75736">
        <ele>322.5</ele>
        <time>2014-10-31T13:01:02.000Z</time>
      </trkpt>
      <trkpt lat="47.49502" lon="6.75739">
        <ele>322.6</ele>
        <time>2014-10-31T13:01:03.000Z</time>
      </trkpt>
      <trkpt lat="47.49496" lon="6.75737">
        <ele>322.5</ele>
        <time>2014-10-31T13:01:04.000Z</time>
      </trkpt>
      <trkpt lat="47.49489" lon="6.75739">
        <ele>322.7</ele>
        <time>2014-10-31T13:01:05.000Z</time>
      </trkpt>
      <trkpt lat="47.49482" lon="6.7574">
        <ele>321.3</ele>
        <time>2014-10-31T13:01:06.000Z</time>
      </trkpt>
      <trkpt lat="47.49478" lon="6.75734">
        <ele>321.3</ele>
        <time>2014-10-31T13:01:07.000Z</time>
      </trkpt>
      <trkpt lat="47.49475" lon="6.75727">
        <ele>321.3</ele>
        <time>2014-10-31T13:01:08.000Z</time>
      </trkpt>
      <trkpt lat="47.49473" lon="6.7572">
        <ele>321.2</ele>
        <time>2014-10-31T13:01:09.000Z</time>
      </trkpt>
      <trkpt lat="47.4947" lon="6.75713">
        <ele>319.8</ele>
        <time>2014-10-31T13:01:10.000Z</time>
      </trkpt>
      <trkpt lat="47.49467" lon="6.75706">
        <ele>320.2</ele>
        <time>2014-10-31T13:01:11.000Z</time>
      </trkpt>
      <trkpt lat="47.49464" lon="6.757">
        <ele>320.1</ele>
        <time>2014-10-31T13:01:12.000Z</time>
      </trkpt>
      <trkpt lat="47.49459" lon="6.75696">
        <ele>320.1</ele>
        <time>2014-10-31T13:01:13.000Z</time>
      </trkpt>
      <trkpt lat="47.49455" lon="6.75696">
        <ele>320.7</ele>
        <time>2014-10-31T13:01:14.000Z</time>
      </trkpt>
      <trkpt lat="47.49451" lon="6.75699">
        <ele>320.7</ele>
        <time>2014-10-31T13:01:15.000Z</time>
      </trkpt>
      <trkpt lat="47.49446" lon="6.75702">
        <ele>320.8</ele>
        <time>2014-10-31T13:01:16.000Z</time>
      </trkpt>
      <trkpt lat="47.49442" lon="6.757">
        <ele>320.7</ele>
        <time>2014-10-31T13:01:17.000Z</time>
      </trkpt>
      <trkpt lat="47.49439" lon="6.75697">
        <ele>320.9</ele>
        <time>2014-10-31T13:01:18.000Z</time>
      </trkpt>
      <trkpt lat="47.49438" lon="6.75691">
        <ele>320.3</ele>
        <time>2014-10-31T13:01:19.000Z</time>
      </trkpt>
      <trkpt lat="47.49436" lon="6.75684">
        <ele>320.9</ele>
        <time>2014-10-31T13:01:20.000Z</time>
      </trkpt>
      <trkpt lat="47.49433" lon="6.75677">
        <ele>321.1</ele>
        <time>2014-10-31T13:01:21.000Z</time>
      </trkpt>
      <trkpt lat="47.49429" lon="6.75673">
        <ele>320.7</ele>
        <time>2014-10-31T13:01:22.000Z</time>
      </trkpt>
      <trkpt lat="47.49423" lon="6.75674">
        <ele>320.4</ele>
        <time>2014-10-31T13:01:23.000Z</time>
      </trkpt>
      <trkpt lat="47.49418" lon="6.75677">
        <ele>320.7</ele>
        <time>2014-10-31T13:01:24.000Z</time>
      </trkpt>
      <trkpt lat="47.49413" lon="6.75681">
        <ele>320.9</ele>
        <time>2014-10-31T13:01:25.000Z</time>
      </trkpt>
      <trkpt lat="47.49408" lon="6.75685">
        <ele>321</ele>
        <time>2014-10-31T13:01:26.000Z</time>
      </trkpt>
      <trkpt lat="47.49404" lon="6.75689">
        <ele>320.9</ele>
        <time>2014-10-31T13:01:27.000Z</time>
      </trkpt>
      <trkpt lat="47.49398" lon="6.75694">
        <ele>320.4</ele>
        <time>2014-10-31T13:01:28.000Z</time>
      </trkpt>
      <trkpt lat="47.49393" lon="6.75697">
        <ele>320</ele>
        <time>2014-10-31T13:01:29.000Z</time>
      </trkpt>
      <trkpt lat="47.49388" lon="6.75701">
        <ele>319.2</ele>
        <time>2014-10-31T13:01:30.000Z</time>
      </trkpt>
      <trkpt lat="47.49384" lon="6.75704">
        <ele>320</ele>
        <time>2014-10-31T13:01:31.000Z</time>
      </trkpt>
      <trkpt lat="47.49379" lon="6.75706">
        <ele>320</ele>
        <time>2014-10-31T13:01:32.000Z</time>
      </trkpt>
      <trkpt lat="47.49375" lon="6.7571">
        <ele>318.4</ele>
        <time>2014-10-31T13:01:33.000Z</time>
      </trkpt>
      <trkpt lat="47.4937" lon="6.75714">
        <ele>318.3</ele>
        <time>2014-10-31T13:01:34.000Z</time>
      </trkpt>
      <trkpt lat="47.49366" lon="6.75716">
        <ele>319.2</ele>
        <time>2014-10-31T13:01:35.000Z</time>
      </trkpt>
      <trkpt lat="47.49364" lon="6.75719">
        <ele>320.9</ele>
        <time>2014-10-31T13:01:36.000Z</time>
      </trkpt>
      <trkpt lat="47.49362" lon="6.75721">
        <ele>320.3</ele>
        <time>2014-10-31T13:01:37.000Z</time>
      </trkpt>
      <trkpt lat="47.49359" lon="6.75723">
        <ele>320.3</ele>
        <time>2014-10-31T13:01:38.000Z</time>
      </trkpt>
      <trkpt lat="47.49355" lon="6.75727">
        <ele>319</ele>
        <time>2014-10-31T13:01:39.000Z</time>
      </trkpt>
      <trkpt lat="47.49351" lon="6.75728">
        <ele>318.6</ele>
        <time>2014-10-31T13:01:40.000Z</time>
      </trkpt>
      <trkpt lat="47.49348" lon="6.7573">
        <ele>318</ele>
        <time>2014-10-31T13:01:41.000Z</time>
      </trkpt>
      <trkpt lat="47.49343" lon="6.75733">
        <ele>317</ele>
        <time>2014-10-31T13:01:42.000Z</time>
      </trkpt>
      <trkpt lat="47.49338" lon="6.75737">
        <ele>316.8</ele>
        <time>2014-10-31T13:01:43.000Z</time>
      </trkpt>
      <trkpt lat="47.49333" lon="6.7574">
        <ele>316.5</ele>
        <time>2014-10-31T13:01:44.000Z</time>
      </trkpt>
      <trkpt lat="47.49328" lon="6.75742">
        <ele>317</ele>
        <time>2014-10-31T13:01:45.000Z</time>
      </trkpt>
      <trkpt lat="47.49321" lon="6.75746">
        <ele>316.4</ele>
        <time>2014-10-31T13:01:46.000Z</time>
      </trkpt>
      <trkpt lat="47.49315" lon="6.75749">
        <ele>318.6</ele>
        <time>2014-10-31T13:01:47.000Z</time>
      </trkpt>
      <trkpt lat="47.49308" lon="6.75753">
        <ele>319.2</ele>
        <time>2014-10-31T13:01:48.000Z</time>
      </trkpt>
      <trkpt lat="47.49303" lon="6.7576">
        <ele>318.3</ele>
        <time>2014-10-31T13:01:49.000Z</time>
      </trkpt>
      <trkpt lat="47.49299" lon="6.75765">
        <ele>318.2</ele>
        <time>2014-10-31T13:01:50.000Z</time>
      </trkpt>
      <trkpt lat="47.49294" lon="6.75769">
        <ele>317.4</ele>
        <time>2014-10-31T13:01:51.000Z</time>
      </trkpt>
      <trkpt lat="47.49283" lon="6.75788">
        <ele>315.4</ele>
        <time>2014-10-31T13:01:54.000Z</time>
      </trkpt>
      <trkpt lat="47.49278" lon="6.75796">
        <ele>315.8</ele>
        <time>2014-10-31T13:01:55.000Z</time>
      </trkpt>
      <trkpt lat="47.49273" lon="6.75804">
        <ele>316.2</ele>
        <time>2014-10-31T13:01:56.000Z</time>
      </trkpt>
      <trkpt lat="47.49269" lon="6.75812">
        <ele>315.9</ele>
        <time>2014-10-31T13:01:57.000Z</time>
      </trkpt>
      <trkpt lat="47.49264" lon="6.75819">
        <ele>316.4</ele>
        <time>2014-10-31T13:01:58.000Z</time>
      </trkpt>
      <trkpt lat="47.4926" lon="6.75827">
        <ele>317.5</ele>
        <time>2014-10-31T13:01:59.000Z</time>
      </trkpt>
      <trkpt lat="47.49255" lon="6.75834">
        <ele>318.1</ele>
        <time>2014-10-31T13:02:00.000Z</time>
      </trkpt>
      <trkpt lat="47.49253" lon="6.75842">
        <ele>319.2</ele>
        <time>2014-10-31T13:02:01.000Z</time>
      </trkpt>
      <trkpt lat="47.4925" lon="6.7585">
        <ele>320.8</ele>
        <time>2014-10-31T13:02:02.000Z</time>
      </trkpt>
      <trkpt lat="47.49246" lon="6.75858">
        <ele>321.4</ele>
        <time>2014-10-31T13:02:03.000Z</time>
      </trkpt>
      <trkpt lat="47.49242" lon="6.75865">
        <ele>320.6</ele>
        <time>2014-10-31T13:02:04.000Z</time>
      </trkpt>
      <trkpt lat="47.49238" lon="6.75872">
        <ele>319.3</ele>
        <time>2014-10-31T13:02:05.000Z</time>
      </trkpt>
      <trkpt lat="47.49234" lon="6.75879">
        <ele>319.9</ele>
        <time>2014-10-31T13:02:06.000Z</time>
      </trkpt>
      <trkpt lat="47.4923" lon="6.75888">
        <ele>318.9</ele>
        <time>2014-10-31T13:02:07.000Z</time>
      </trkpt>
      <trkpt lat="47.49226" lon="6.75896">
        <ele>318.9</ele>
        <time>2014-10-31T13:02:08.000Z</time>
      </trkpt>
      <trkpt lat="47.49221" lon="6.75905">
        <ele>318.7</ele>
        <time>2014-10-31T13:02:09.000Z</time>
      </trkpt>
      <trkpt lat="47.49217" lon="6.75913">
        <ele>318.1</ele>
        <time>2014-10-31T13:02:10.000Z</time>
      </trkpt>
      <trkpt lat="47.49214" lon="6.75921">
        <ele>317</ele>
        <time>2014-10-31T13:02:11.000Z</time>
      </trkpt>
      <trkpt lat="47.4921" lon="6.75929">
        <ele>317.1</ele>
        <time>2014-10-31T13:02:12.000Z</time>
      </trkpt>
      <trkpt lat="47.49207" lon="6.75937">
        <ele>316.9</ele>
        <time>2014-10-31T13:02:13.000Z</time>
      </trkpt>
      <trkpt lat="47.49204" lon="6.75947">
        <ele>316.7</ele>
        <time>2014-10-31T13:02:14.000Z</time>
      </trkpt>
      <trkpt lat="47.492" lon="6.75953">
        <ele>316</ele>
        <time>2014-10-31T13:02:15.000Z</time>
      </trkpt>
      <trkpt lat="47.49197" lon="6.7596">
        <ele>316.9</ele>
        <time>2014-10-31T13:02:16.000Z</time>
      </trkpt>
      <trkpt lat="47.49194" lon="6.75965">
        <ele>316.6</ele>
        <time>2014-10-31T13:02:17.000Z</time>
      </trkpt>
      <trkpt lat="47.4919" lon="6.75971">
        <ele>316.6</ele>
        <time>2014-10-31T13:02:18.000Z</time>
      </trkpt>
      <trkpt lat="47.49189" lon="6.7598">
        <ele>316.2</ele>
        <time>2014-10-31T13:02:19.000Z</time>
      </trkpt>
      <trkpt lat="47.49184" lon="6.75988">
        <ele>318.1</ele>
        <time>2014-10-31T13:02:20.000Z</time>
      </trkpt>
      <trkpt lat="47.49181" lon="6.75993">
        <ele>317.5</ele>
        <time>2014-10-31T13:02:21.000Z</time>
      </trkpt>
      <trkpt lat="47.49177" lon="6.76">
        <ele>317.1</ele>
        <time>2014-10-31T13:02:22.000Z</time>
      </trkpt>
      <trkpt lat="47.49174" lon="6.76006">
        <ele>317.3</ele>
        <time>2014-10-31T13:02:23.000Z</time>
      </trkpt>
      <trkpt lat="47.49171" lon="6.76013">
        <ele>319.1</ele>
        <time>2014-10-31T13:02:24.000Z</time>
      </trkpt>
      <trkpt lat="47.49168" lon="6.76021">
        <ele>319.7</ele>
        <time>2014-10-31T13:02:25.000Z</time>
      </trkpt>
      <trkpt lat="47.49165" lon="6.76028">
        <ele>319.4</ele>
        <time>2014-10-31T13:02:26.000Z</time>
      </trkpt>
      <trkpt lat="47.49162" lon="6.76039">
        <ele>318.3</ele>
        <time>2014-10-31T13:02:27.000Z</time>
      </trkpt>
      <trkpt lat="47.49159" lon="6.76047">
        <ele>318.7</ele>
        <time>2014-10-31T13:02:28.000Z</time>
      </trkpt>
      <trkpt lat="47.49158" lon="6.76054">
        <ele>318.7</ele>
        <time>2014-10-31T13:02:29.000Z</time>
      </trkpt>
      <trkpt lat="47.49153" lon="6.76065">
        <ele>319.9</ele>
        <time>2014-10-31T13:02:30.000Z</time>
      </trkpt>
      <trkpt lat="47.49152" lon="6.76076">
        <ele>318.7</ele>
        <time>2014-10-31T13:02:31.000Z</time>
      </trkpt>
      <trkpt lat="47.49147" lon="6.76084">
        <ele>317.7</ele>
        <time>2014-10-31T13:02:32.000Z</time>
      </trkpt>
      <trkpt lat="47.49144" lon="6.76091">
        <ele>317.5</ele>
        <time>2014-10-31T13:02:33.000Z</time>
      </trkpt>
      <trkpt lat="47.49143" lon="6.761">
        <ele>317.4</ele>
        <time>2014-10-31T13:02:34.000Z</time>
      </trkpt>
      <trkpt lat="47.4914" lon="6.76108">
        <ele>317.4</ele>
        <time>2014-10-31T13:02:35.000Z</time>
      </trkpt>
      <trkpt lat="47.49138" lon="6.76117">
        <ele>317.2</ele>
        <time>2014-10-31T13:02:36.000Z</time>
      </trkpt>
      <trkpt lat="47.49137" lon="6.76126">
        <ele>317.7</ele>
        <time>2014-10-31T13:02:37.000Z</time>
      </trkpt>
      <trkpt lat="47.49135" lon="6.76135">
        <ele>316.6</ele>
        <time>2014-10-31T13:02:38.000Z</time>
      </trkpt>
      <trkpt lat="47.49133" lon="6.76144">
        <ele>317.3</ele>
        <time>2014-10-31T13:02:39.000Z</time>
      </trkpt>
      <trkpt lat="47.4913" lon="6.76152">
        <ele>317.6</ele>
        <time>2014-10-31T13:02:40.000Z</time>
      </trkpt>
      <trkpt lat="47.49129" lon="6.76162">
        <ele>317.7</ele>
        <time>2014-10-31T13:02:41.000Z</time>
      </trkpt>
      <trkpt lat="47.49127" lon="6.76171">
        <ele>317.3</ele>
        <time>2014-10-31T13:02:42.000Z</time>
      </trkpt>
      <trkpt lat="47.49126" lon="6.7618">
        <ele>317.1</ele>
        <time>2014-10-31T13:02:43.000Z</time>
      </trkpt>
      <trkpt lat="47.49126" lon="6.76191">
        <ele>317.2</ele>
        <time>2014-10-31T13:02:44.000Z</time>
      </trkpt>
      <trkpt lat="47.49127" lon="6.762">
        <ele>317.8</ele>
        <time>2014-10-31T13:02:45.000Z</time>
      </trkpt>
      <trkpt lat="47.49127" lon="6.7621">
        <ele>317.1</ele>
        <time>2014-10-31T13:02:46.000Z</time>
      </trkpt>
      <trkpt lat="47.49127" lon="6.76219">
        <ele>317.6</ele>
        <time>2014-10-31T13:02:47.000Z</time>
      </trkpt>
      <trkpt lat="47.49127" lon="6.76229">
        <ele>317.1</ele>
        <time>2014-10-31T13:02:48.000Z</time>
      </trkpt>
      <trkpt lat="47.49127" lon="6.76239">
        <ele>316.7</ele>
        <time>2014-10-31T13:02:49.000Z</time>
      </trkpt>
      <trkpt lat="47.49127" lon="6.76248">
        <ele>315.6</ele>
        <time>2014-10-31T13:02:50.000Z</time>
      </trkpt>
      <trkpt lat="47.49127" lon="6.76255">
        <ele>317.5</ele>
        <time>2014-10-31T13:02:51.000Z</time>
      </trkpt>
      <trkpt lat="47.49125" lon="6.76271">
        <ele>319.5</ele>
        <time>2014-10-31T13:02:54.000Z</time>
      </trkpt>
      <trkpt lat="47.49124" lon="6.76281">
        <ele>319.1</ele>
        <time>2014-10-31T13:02:55.000Z</time>
      </trkpt>
      <trkpt lat="47.4912" lon="6.7629">
        <ele>319</ele>
        <time>2014-10-31T13:02:56.000Z</time>
      </trkpt>
      <trkpt lat="47.49119" lon="6.76299">
        <ele>318.4</ele>
        <time>2014-10-31T13:02:57.000Z</time>
      </trkpt>
      <trkpt lat="47.49122" lon="6.76306">
        <ele>318.6</ele>
        <time>2014-10-31T13:02:58.000Z</time>
      </trkpt>
      <trkpt lat="47.49122" lon="6.76315">
        <ele>319.5</ele>
        <time>2014-10-31T13:02:59.000Z</time>
      </trkpt>
      <trkpt lat="47.49123" lon="6.76325">
        <ele>319.5</ele>
        <time>2014-10-31T13:03:00.000Z</time>
      </trkpt>
      <trkpt lat="47.49123" lon="6.76331">
        <ele>320.3</ele>
        <time>2014-10-31T13:03:01.000Z</time>
      </trkpt>
      <trkpt lat="47.49122" lon="6.7634">
        <ele>320.4</ele>
        <time>2014-10-31T13:03:02.000Z</time>
      </trkpt>
      <trkpt lat="47.49123" lon="6.76349">
        <ele>320.3</ele>
        <time>2014-10-31T13:03:03.000Z</time>
      </trkpt>
      <trkpt lat="47.49122" lon="6.76359">
        <ele>319.9</ele>
        <time>2014-10-31T13:03:04.000Z</time>
      </trkpt>
      <trkpt lat="47.49123" lon="6.76373">
        <ele>320.2</ele>
        <time>2014-10-31T13:03:05.000Z</time>
      </trkpt>
      <trkpt lat="47.49122" lon="6.76384">
        <ele>321.1</ele>
        <time>2014-10-31T13:03:06.000Z</time>
      </trkpt>
      <trkpt lat="47.49123" lon="6.76394">
        <ele>320.9</ele>
        <time>2014-10-31T13:03:07.000Z</time>
      </trkpt>
      <trkpt lat="47.49123" lon="6.76404">
        <ele>319.9</ele>
        <time>2014-10-31T13:03:08.000Z</time>
      </trkpt>
      <trkpt lat="47.49122" lon="6.76414">
        <ele>319.8</ele>
        <time>2014-10-31T13:03:09.000Z</time>
      </trkpt>
      <trkpt lat="47.49121" lon="6.76425">
        <ele>319</ele>
        <time>2014-10-31T13:03:10.000Z</time>
      </trkpt>
      <trkpt lat="47.49123" lon="6.76435">
        <ele>319.8</ele>
        <time>2014-10-31T13:03:11.000Z</time>
      </trkpt>
      <trkpt lat="47.49122" lon="6.76444">
        <ele>318.5</ele>
        <time>2014-10-31T13:03:12.000Z</time>
      </trkpt>
      <trkpt lat="47.49121" lon="6.76454">
        <ele>319.2</ele>
        <time>2014-10-31T13:03:13.000Z</time>
      </trkpt>
      <trkpt lat="47.49121" lon="6.76463">
        <ele>319.6</ele>
        <time>2014-10-31T13:03:14.000Z</time>
      </trkpt>
      <trkpt lat="47.49121" lon="6.76472">
        <ele>320.6</ele>
        <time>2014-10-31T13:03:15.000Z</time>
      </trkpt>
      <trkpt lat="47.4912" lon="6.76481">
        <ele>319</ele>
        <time>2014-10-31T13:03:16.000Z</time>
      </trkpt>
      <trkpt lat="47.49119" lon="6.76491">
        <ele>320.2</ele>
        <time>2014-10-31T13:03:17.000Z</time>
      </trkpt>
      <trkpt lat="47.49119" lon="6.765">
        <ele>320.3</ele>
        <time>2014-10-31T13:03:18.000Z</time>
      </trkpt>
      <trkpt lat="47.49118" lon="6.7651">
        <ele>318.8</ele>
        <time>2014-10-31T13:03:19.000Z</time>
      </trkpt>
      <trkpt lat="47.49119" lon="6.7652">
        <ele>318.7</ele>
        <time>2014-10-31T13:03:20.000Z</time>
      </trkpt>
      <trkpt lat="47.49124" lon="6.76526">
        <ele>319</ele>
        <time>2014-10-31T13:03:21.000Z</time>
      </trkpt>
      <trkpt lat="47.4913" lon="6.76529">
        <ele>318.4</ele>
        <time>2014-10-31T13:03:22.000Z</time>
      </trkpt>
      <trkpt lat="47.49136" lon="6.76529">
        <ele>318.9</ele>
        <time>2014-10-31T13:03:23.000Z</time>
      </trkpt>
      <trkpt lat="47.49143" lon="6.76527">
        <ele>319</ele>
        <time>2014-10-31T13:03:24.000Z</time>
      </trkpt>
      <trkpt lat="47.49149" lon="6.76524">
        <ele>319.9</ele>
        <time>2014-10-31T13:03:25.000Z</time>
      </trkpt>
      <trkpt lat="47.49153" lon="6.7652">
        <ele>320.5</ele>
        <time>2014-10-31T13:03:26.000Z</time>
      </trkpt>
      <trkpt lat="47.49158" lon="6.76517">
        <ele>320.3</ele>
        <time>2014-10-31T13:03:27.000Z</time>
      </trkpt>
      <trkpt lat="47.49162" lon="6.76514">
        <ele>322</ele>
        <time>2014-10-31T13:03:28.000Z</time>
      </trkpt>
      <trkpt lat="47.49165" lon="6.76512">
        <ele>322.3</ele>
        <time>2014-10-31T13:03:29.000Z</time>
      </trkpt>
      <trkpt lat="47.49168" lon="6.76511">
        <ele>322</ele>
        <time>2014-10-31T13:03:30.000Z</time>
      </trkpt>
      <trkpt lat="47.49172" lon="6.76508">
        <ele>321</ele>
        <time>2014-10-31T13:03:31.001Z</time>
      </trkpt>
      <trkpt lat="47.49176" lon="6.76505">
        <ele>321.7</ele>
        <time>2014-10-31T13:03:32.000Z</time>
      </trkpt>
      <trkpt lat="47.49177" lon="6.765">
        <ele>321.4</ele>
        <time>2014-10-31T13:03:33.000Z</time>
      </trkpt>
      <trkpt lat="47.49176" lon="6.76495">
        <ele>320.9</ele>
        <time>2014-10-31T13:03:34.000Z</time>
      </trkpt>
      <trkpt lat="47.49175" lon="6.76492">
        <ele>320.9</ele>
        <time>2014-10-31T13:03:35.000Z</time>
      </trkpt>
      <trkpt lat="47.49171" lon="6.76493">
        <ele>321.8</ele>
        <time>2014-10-31T13:06:36.000Z</time>
      </trkpt>
      <trkpt lat="47.4917" lon="6.76493">
        <ele>321.6</ele>
        <time>2014-10-31T13:06:37.000Z</time>
      </trkpt>
      <trkpt lat="47.49168" lon="6.76497">
        <ele>321</ele>
        <time>2014-10-31T13:07:24.000Z</time>
      </trkpt>
      <trkpt lat="47.49167" lon="6.765">
        <ele>321.3</ele>
        <time>2014-10-31T13:07:25.000Z</time>
      </trkpt>
      <trkpt lat="47.49166" lon="6.76503">
        <ele>321.6</ele>
        <time>2014-10-31T13:07:26.000Z</time>
      </trkpt>
      <trkpt lat="47.49165" lon="6.76506">
        <ele>322</ele>
        <time>2014-10-31T13:07:27.000Z</time>
      </trkpt>
      <trkpt lat="47.49162" lon="6.76509">
        <ele>321.8</ele>
        <time>2014-10-31T13:07:28.000Z</time>
      </trkpt>
      <trkpt lat="47.49159" lon="6.76511">
        <ele>321.6</ele>
        <time>2014-10-31T13:07:29.000Z</time>
      </trkpt>
      <trkpt lat="47.49153" lon="6.76516">
        <ele>321.2</ele>
        <time>2014-10-31T13:07:30.000Z</time>
      </trkpt>
      <trkpt lat="47.49148" lon="6.76519">
        <ele>321.2</ele>
        <time>2014-10-31T13:07:31.000Z</time>
      </trkpt>
      <trkpt lat="47.49143" lon="6.76522">
        <ele>320.5</ele>
        <time>2014-10-31T13:07:32.000Z</time>
      </trkpt>
      <trkpt lat="47.49138" lon="6.76525">
        <ele>320.8</ele>
        <time>2014-10-31T13:07:33.000Z</time>
      </trkpt>
      <trkpt lat="47.49132" lon="6.76526">
        <ele>320.5</ele>
        <time>2014-10-31T13:07:34.000Z</time>
      </trkpt>
      <trkpt lat="47.49127" lon="6.76526">
        <ele>320.3</ele>
        <time>2014-10-31T13:07:35.000Z</time>
      </trkpt>
      <trkpt lat="47.49122" lon="6.76525">
        <ele>319.6</ele>
        <time>2014-10-31T13:07:36.000Z</time>
      </trkpt>
      <trkpt lat="47.49118" lon="6.76521">
        <ele>319.3</ele>
        <time>2014-10-31T13:07:37.000Z</time>
      </trkpt>
      <trkpt lat="47.49116" lon="6.76515">
        <ele>319.5</ele>
        <time>2014-10-31T13:07:38.000Z</time>
      </trkpt>
      <trkpt lat="47.49116" lon="6.76508">
        <ele>319.8</ele>
        <time>2014-10-31T13:07:39.000Z</time>
      </trkpt>
      <trkpt lat="47.49116" lon="6.76501">
        <ele>319.5</ele>
        <time>2014-10-31T13:07:40.000Z</time>
      </trkpt>
      <trkpt lat="47.49117" lon="6.76494">
        <ele>319.9</ele>
        <time>2014-10-31T13:07:41.000Z</time>
      </trkpt>
      <trkpt lat="47.49116" lon="6.76487">
        <ele>320.6</ele>
        <time>2014-10-31T13:07:42.000Z</time>
      </trkpt>
      <trkpt lat="47.49117" lon="6.76481">
        <ele>321.7</ele>
        <time>2014-10-31T13:07:43.000Z</time>
      </trkpt>
      <trkpt lat="47.49117" lon="6.76473">
        <ele>322</ele>
        <time>2014-10-31T13:07:44.000Z</time>
      </trkpt>
      <trkpt lat="47.49117" lon="6.76467">
        <ele>322.1</ele>
        <time>2014-10-31T13:07:45.000Z</time>
      </trkpt>
      <trkpt lat="47.49118" lon="6.76461">
        <ele>322</ele>
        <time>2014-10-31T13:07:46.000Z</time>
      </trkpt>
      <trkpt lat="47.49119" lon="6.76455">
        <ele>322.3</ele>
        <time>2014-10-31T13:07:47.000Z</time>
      </trkpt>
      <trkpt lat="47.49119" lon="6.76449">
        <ele>322</ele>
        <time>2014-10-31T13:07:48.000Z</time>
      </trkpt>
      <trkpt lat="47.49119" lon="6.76443">
        <ele>322.3</ele>
        <time>2014-10-31T13:07:49.000Z</time>
      </trkpt>
      <trkpt lat="47.4912" lon="6.76437">
        <ele>322.3</ele>
        <time>2014-10-31T13:07:50.000Z</time>
      </trkpt>
      <trkpt lat="47.49119" lon="6.76432">
        <ele>321.3</ele>
        <time>2014-10-31T13:07:51.000Z</time>
      </trkpt>
      <trkpt lat="47.49115" lon="6.76427">
        <ele>322.7</ele>
        <time>2014-10-31T13:07:54.000Z</time>
      </trkpt>
      <trkpt lat="47.49112" lon="6.76427">
        <ele>323</ele>
        <time>2014-10-31T13:07:55.000Z</time>
      </trkpt>
      <trkpt lat="47.49108" lon="6.76426">
        <ele>323.8</ele>
        <time>2014-10-31T13:07:56.000Z</time>
      </trkpt>
      <trkpt lat="47.49105" lon="6.76426">
        <ele>323.7</ele>
        <time>2014-10-31T13:07:57.000Z</time>
      </trkpt>
      <trkpt lat="47.49102" lon="6.76426">
        <ele>322.8</ele>
        <time>2014-10-31T13:07:58.000Z</time>
      </trkpt>
      <trkpt lat="47.49099" lon="6.76425">
        <ele>322.4</ele>
        <time>2014-10-31T13:07:59.000Z</time>
      </trkpt>
      <trkpt lat="47.49096" lon="6.76423">
        <ele>321.3</ele>
        <time>2014-10-31T13:08:00.000Z</time>
      </trkpt>
      <trkpt lat="47.49096" lon="6.7642">
        <ele>321</ele>
        <time>2014-10-31T13:08:01.000Z</time>
      </trkpt>
      <trkpt lat="47.49096" lon="6.76416">
        <ele>319.5</ele>
        <time>2014-10-31T13:08:02.000Z</time>
      </trkpt>
      <trkpt lat="47.49097" lon="6.76411">
        <ele>318.6</ele>
        <time>2014-10-31T13:08:03.000Z</time>
      </trkpt>
      <trkpt lat="47.49098" lon="6.76406">
        <ele>323.4</ele>
        <time>2014-10-31T13:08:04.000Z</time>
      </trkpt>
      <trkpt lat="47.49099" lon="6.76401">
        <ele>323.7</ele>
        <time>2014-10-31T13:08:05.000Z</time>
      </trkpt>
      <trkpt lat="47.491" lon="6.76396">
        <ele>324.2</ele>
        <time>2014-10-31T13:08:06.000Z</time>
      </trkpt>
      <trkpt lat="47.49101" lon="6.76391">
        <ele>324.6</ele>
        <time>2014-10-31T13:08:07.000Z</time>
      </trkpt>
      <trkpt lat="47.49102" lon="6.76385">
        <ele>325.2</ele>
        <time>2014-10-31T13:08:08.000Z</time>
      </trkpt>
      <trkpt lat="47.49103" lon="6.7638">
        <ele>325.3</ele>
        <time>2014-10-31T13:08:09.000Z</time>
      </trkpt>
      <trkpt lat="47.49104" lon="6.76374">
        <ele>326.3</ele>
        <time>2014-10-31T13:08:10.000Z</time>
      </trkpt>
      <trkpt lat="47.49104" lon="6.76369">
        <ele>327.5</ele>
        <time>2014-10-31T13:08:11.000Z</time>
      </trkpt>
      <trkpt lat="47.49104" lon="6.76363">
        <ele>330.1</ele>
        <time>2014-10-31T13:08:12.000Z</time>
      </trkpt>
      <trkpt lat="47.49103" lon="6.76358">
        <ele>331.2</ele>
        <time>2014-10-31T13:08:13.000Z</time>
      </trkpt>
      <trkpt lat="47.49102" lon="6.76353">
        <ele>331.4</ele>
        <time>2014-10-31T13:08:14.000Z</time>
      </trkpt>
      <trkpt lat="47.49101" lon="6.76349">
        <ele>331.1</ele>
        <time>2014-10-31T13:08:15.000Z</time>
      </trkpt>
      <trkpt lat="47.491" lon="6.76344">
        <ele>329.9</ele>
        <time>2014-10-31T13:08:16.000Z</time>
      </trkpt>
      <trkpt lat="47.49098" lon="6.76339">
        <ele>329.2</ele>
        <time>2014-10-31T13:08:17.000Z</time>
      </trkpt>
      <trkpt lat="47.49098" lon="6.76335">
        <ele>328.9</ele>
        <time>2014-10-31T13:08:18.000Z</time>
      </trkpt>
      <trkpt lat="47.49097" lon="6.7633">
        <ele>331.5</ele>
        <time>2014-10-31T13:08:19.000Z</time>
      </trkpt>
      <trkpt lat="47.49097" lon="6.76326">
        <ele>331.3</ele>
        <time>2014-10-31T13:08:20.000Z</time>
      </trkpt>
      <trkpt lat="47.49097" lon="6.76321">
        <ele>332.3</ele>
        <time>2014-10-31T13:08:21.000Z</time>
      </trkpt>
      <trkpt lat="47.49097" lon="6.76311">
        <ele>329</ele>
        <time>2014-10-31T13:08:22.000Z</time>
      </trkpt>
      <trkpt lat="47.49098" lon="6.76306">
        <ele>328.1</ele>
        <time>2014-10-31T13:08:23.000Z</time>
      </trkpt>
      <trkpt lat="47.49097" lon="6.76298">
        <ele>326.3</ele>
        <time>2014-10-31T13:08:24.000Z</time>
      </trkpt>
      <trkpt lat="47.49097" lon="6.76291">
        <ele>327</ele>
        <time>2014-10-31T13:08:25.000Z</time>
      </trkpt>
      <trkpt lat="47.49097" lon="6.76289">
        <ele>327.7</ele>
        <time>2014-10-31T13:08:26.000Z</time>
      </trkpt>
      <trkpt lat="47.49097" lon="6.76282">
        <ele>327.9</ele>
        <time>2014-10-31T13:08:27.000Z</time>
      </trkpt>
      <trkpt lat="47.49096" lon="6.76278">
        <ele>328.1</ele>
        <time>2014-10-31T13:08:28.000Z</time>
      </trkpt>
      <trkpt lat="47.49096" lon="6.76273">
        <ele>328</ele>
        <time>2014-10-31T13:08:29.000Z</time>
      </trkpt>
      <trkpt lat="47.49095" lon="6.76268">
        <ele>328.1</ele>
        <time>2014-10-31T13:08:30.000Z</time>
      </trkpt>
      <trkpt lat="47.49095" lon="6.76263">
        <ele>327.5</ele>
        <time>2014-10-31T13:08:31.000Z</time>
      </trkpt>
      <trkpt lat="47.49097" lon="6.76257">
        <ele>324</ele>
        <time>2014-10-31T13:08:32.000Z</time>
      </trkpt>
      <trkpt lat="47.49097" lon="6.76252">
        <ele>324.9</ele>
        <time>2014-10-31T13:08:33.000Z</time>
      </trkpt>
      <trkpt lat="47.49097" lon="6.76248">
        <ele>324.4</ele>
        <time>2014-10-31T13:08:34.000Z</time>
      </trkpt>
      <trkpt lat="47.49098" lon="6.76242">
        <ele>323.9</ele>
        <time>2014-10-31T13:08:35.000Z</time>
      </trkpt>
      <trkpt lat="47.49099" lon="6.76235">
        <ele>324.9</ele>
        <time>2014-10-31T13:08:36.000Z</time>
      </trkpt>
      <trkpt lat="47.491" lon="6.76229">
        <ele>324.9</ele>
        <time>2014-10-31T13:08:37.000Z</time>
      </trkpt>
      <trkpt lat="47.49101" lon="6.76222">
        <ele>325.4</ele>
        <time>2014-10-31T13:08:38.000Z</time>
      </trkpt>
      <trkpt lat="47.49102" lon="6.76216">
        <ele>324.8</ele>
        <time>2014-10-31T13:08:39.000Z</time>
      </trkpt>
      <trkpt lat="47.49102" lon="6.76211">
        <ele>324.9</ele>
        <time>2014-10-31T13:08:40.000Z</time>
      </trkpt>
      <trkpt lat="47.49102" lon="6.76205">
        <ele>323.7</ele>
        <time>2014-10-31T13:08:41.000Z</time>
      </trkpt>
      <trkpt lat="47.49102" lon="6.76199">
        <ele>323</ele>
        <time>2014-10-31T13:08:42.000Z</time>
      </trkpt>
      <trkpt lat="47.49102" lon="6.76194">
        <ele>321.9</ele>
        <time>2014-10-31T13:08:43.000Z</time>
      </trkpt>
      <trkpt lat="47.49101" lon="6.76187">
        <ele>321.2</ele>
        <time>2014-10-31T13:08:44.000Z</time>
      </trkpt>
      <trkpt lat="47.49101" lon="6.76181">
        <ele>322.2</ele>
        <time>2014-10-31T13:08:45.000Z</time>
      </trkpt>
      <trkpt lat="47.491" lon="6.76175">
        <ele>322.9</ele>
        <time>2014-10-31T13:08:46.000Z</time>
      </trkpt>
      <trkpt lat="47.491" lon="6.76168">
        <ele>324</ele>
        <time>2014-10-31T13:08:47.000Z</time>
      </trkpt>
      <trkpt lat="47.49099" lon="6.76162">
        <ele>324.1</ele>
        <time>2014-10-31T13:08:48.000Z</time>
      </trkpt>
      <trkpt lat="47.49099" lon="6.76155">
        <ele>323.4</ele>
        <time>2014-10-31T13:08:49.000Z</time>
      </trkpt>
      <trkpt lat="47.49099" lon="6.76148">
        <ele>323.2</ele>
        <time>2014-10-31T13:08:50.000Z</time>
      </trkpt>
      <trkpt lat="47.49098" lon="6.76143">
        <ele>323.2</ele>
        <time>2014-10-31T13:08:51.000Z</time>
      </trkpt>
      <trkpt lat="47.49098" lon="6.76128">
        <ele>324.8</ele>
        <time>2014-10-31T13:08:54.000Z</time>
      </trkpt>
      <trkpt lat="47.49098" lon="6.76124">
        <ele>329.5</ele>
        <time>2014-10-31T13:08:55.000Z</time>
      </trkpt>
      <trkpt lat="47.49098" lon="6.7612">
        <ele>330.1</ele>
        <time>2014-10-31T13:08:56.000Z</time>
      </trkpt>
      <trkpt lat="47.49098" lon="6.76116">
        <ele>329.2</ele>
        <time>2014-10-31T13:08:57.000Z</time>
      </trkpt>
      <trkpt lat="47.49098" lon="6.76111">
        <ele>328.4</ele>
        <time>2014-10-31T13:08:58.000Z</time>
      </trkpt>
      <trkpt lat="47.49098" lon="6.76106">
        <ele>327.8</ele>
        <time>2014-10-31T13:08:59.000Z</time>
      </trkpt>
      <trkpt lat="47.49098" lon="6.761">
        <ele>328</ele>
        <time>2014-10-31T13:09:00.000Z</time>
      </trkpt>
      <trkpt lat="47.49098" lon="6.76094">
        <ele>327.8</ele>
        <time>2014-10-31T13:09:01.000Z</time>
      </trkpt>
      <trkpt lat="47.49099" lon="6.76089">
        <ele>329.3</ele>
        <time>2014-10-31T13:09:02.000Z</time>
      </trkpt>
      <trkpt lat="47.491" lon="6.76084">
        <ele>330.3</ele>
        <time>2014-10-31T13:09:03.000Z</time>
      </trkpt>
      <trkpt lat="47.491" lon="6.7608">
        <ele>331.2</ele>
        <time>2014-10-31T13:09:04.000Z</time>
      </trkpt>
      <trkpt lat="47.49101" lon="6.76076">
        <ele>332.4</ele>
        <time>2014-10-31T13:09:05.000Z</time>
      </trkpt>
      <trkpt lat="47.49101" lon="6.76071">
        <ele>332.7</ele>
        <time>2014-10-31T13:09:06.000Z</time>
      </trkpt>
      <trkpt lat="47.49101" lon="6.76065">
        <ele>333.5</ele>
        <time>2014-10-31T13:09:07.000Z</time>
      </trkpt>
      <trkpt lat="47.49102" lon="6.76059">
        <ele>333.3</ele>
        <time>2014-10-31T13:09:08.000Z</time>
      </trkpt>
      <trkpt lat="47.49102" lon="6.76053">
        <ele>334</ele>
        <time>2014-10-31T13:09:09.000Z</time>
      </trkpt>
      <trkpt lat="47.49103" lon="6.76047">
        <ele>334.7</ele>
        <time>2014-10-31T13:09:10.000Z</time>
      </trkpt>
      <trkpt lat="47.49104" lon="6.76042">
        <ele>338.5</ele>
        <time>2014-10-31T13:09:11.000Z</time>
      </trkpt>
      <trkpt lat="47.49105" lon="6.76037">
        <ele>340.8</ele>
        <time>2014-10-31T13:09:12.000Z</time>
      </trkpt>
      <trkpt lat="47.49107" lon="6.76032">
        <ele>342.1</ele>
        <time>2014-10-31T13:09:13.000Z</time>
      </trkpt>
      <trkpt lat="47.49108" lon="6.76027">
        <ele>342.4</ele>
        <time>2014-10-31T13:09:14.000Z</time>
      </trkpt>
      <trkpt lat="47.49109" lon="6.76021">
        <ele>343.3</ele>
        <time>2014-10-31T13:09:15.000Z</time>
      </trkpt>
      <trkpt lat="47.49111" lon="6.76015">
        <ele>343.3</ele>
        <time>2014-10-31T13:09:16.000Z</time>
      </trkpt>
      <trkpt lat="47.49111" lon="6.7601">
        <ele>343.4</ele>
        <time>2014-10-31T13:09:17.000Z</time>
      </trkpt>
      <trkpt lat="47.49111" lon="6.76005">
        <ele>341.6</ele>
        <time>2014-10-31T13:09:18.000Z</time>
      </trkpt>
      <trkpt lat="47.49111" lon="6.76">
        <ele>341.6</ele>
        <time>2014-10-31T13:09:19.000Z</time>
      </trkpt>
      <trkpt lat="47.4911" lon="6.75996">
        <ele>342</ele>
        <time>2014-10-31T13:09:20.000Z</time>
      </trkpt>
      <trkpt lat="47.49109" lon="6.75992">
        <ele>342.2</ele>
        <time>2014-10-31T13:09:21.000Z</time>
      </trkpt>
      <trkpt lat="47.4911" lon="6.75987">
        <ele>341.7</ele>
        <time>2014-10-31T13:09:22.000Z</time>
      </trkpt>
      <trkpt lat="47.4911" lon="6.75982">
        <ele>340.5</ele>
        <time>2014-10-31T13:09:23.000Z</time>
      </trkpt>
      <trkpt lat="47.49112" lon="6.75976">
        <ele>336.6</ele>
        <time>2014-10-31T13:09:24.000Z</time>
      </trkpt>
      <trkpt lat="47.49114" lon="6.7597">
        <ele>338.7</ele>
        <time>2014-10-31T13:09:25.000Z</time>
      </trkpt>
      <trkpt lat="47.49117" lon="6.75965">
        <ele>340.3</ele>
        <time>2014-10-31T13:09:26.000Z</time>
      </trkpt>
      <trkpt lat="47.4912" lon="6.7596">
        <ele>339.8</ele>
        <time>2014-10-31T13:09:27.000Z</time>
      </trkpt>
      <trkpt lat="47.49122" lon="6.75956">
        <ele>341.2</ele>
        <time>2014-10-31T13:09:28.000Z</time>
      </trkpt>
      <trkpt lat="47.49124" lon="6.75951">
        <ele>343.1</ele>
        <time>2014-10-31T13:09:29.000Z</time>
      </trkpt>
      <trkpt lat="47.49126" lon="6.75947">
        <ele>344.1</ele>
        <time>2014-10-31T13:09:30.000Z</time>
      </trkpt>
      <trkpt lat="47.49127" lon="6.75943">
        <ele>344.5</ele>
        <time>2014-10-31T13:09:31.000Z</time>
      </trkpt>
      <trkpt lat="47.49128" lon="6.75939">
        <ele>344.8</ele>
        <time>2014-10-31T13:09:32.000Z</time>
      </trkpt>
      <trkpt lat="47.49129" lon="6.75935">
        <ele>345.1</ele>
        <time>2014-10-31T13:09:33.000Z</time>
      </trkpt>
      <trkpt lat="47.4913" lon="6.75932">
        <ele>345.8</ele>
        <time>2014-10-31T13:09:34.000Z</time>
      </trkpt>
      <trkpt lat="47.49131" lon="6.75927">
        <ele>343</ele>
        <time>2014-10-31T13:09:35.000Z</time>
      </trkpt>
      <trkpt lat="47.49132" lon="6.75922">
        <ele>341.2</ele>
        <time>2014-10-31T13:09:36.000Z</time>
      </trkpt>
      <trkpt lat="47.49133" lon="6.75916">
        <ele>341.9</ele>
        <time>2014-10-31T13:09:37.000Z</time>
      </trkpt>
      <trkpt lat="47.49135" lon="6.75911">
        <ele>344.2</ele>
        <time>2014-10-31T13:09:38.000Z</time>
      </trkpt>
      <trkpt lat="47.49136" lon="6.75905">
        <ele>343.9</ele>
        <time>2014-10-31T13:09:39.000Z</time>
      </trkpt>
      <trkpt lat="47.49138" lon="6.759">
        <ele>344.9</ele>
        <time>2014-10-31T13:09:40.000Z</time>
      </trkpt>
      <trkpt lat="47.4914" lon="6.75895">
        <ele>348.2</ele>
        <time>2014-10-31T13:09:41.000Z</time>
      </trkpt>
      <trkpt lat="47.49142" lon="6.7589">
        <ele>349.2</ele>
        <time>2014-10-31T13:09:42.000Z</time>
      </trkpt>
      <trkpt lat="47.49144" lon="6.75885">
        <ele>348.8</ele>
        <time>2014-10-31T13:09:43.000Z</time>
      </trkpt>
      <trkpt lat="47.49146" lon="6.7588">
        <ele>349.8</ele>
        <time>2014-10-31T13:09:44.000Z</time>
      </trkpt>
      <trkpt lat="47.49148" lon="6.75874">
        <ele>346.9</ele>
        <time>2014-10-31T13:09:45.000Z</time>
      </trkpt>
      <trkpt lat="47.49149" lon="6.75867">
        <ele>346.4</ele>
        <time>2014-10-31T13:09:46.000Z</time>
      </trkpt>
      <trkpt lat="47.49151" lon="6.7586">
        <ele>346.2</ele>
        <time>2014-10-31T13:09:47.000Z</time>
      </trkpt>
      <trkpt lat="47.49152" lon="6.75853">
        <ele>346.5</ele>
        <time>2014-10-31T13:09:48.000Z</time>
      </trkpt>
      <trkpt lat="47.49154" lon="6.75846">
        <ele>347.4</ele>
        <time>2014-10-31T13:09:49.000Z</time>
      </trkpt>
      <trkpt lat="47.49159" lon="6.75835">
        <ele>348.6</ele>
        <time>2014-10-31T13:09:50.000Z</time>
      </trkpt>
      <trkpt lat="47.49164" lon="6.75822">
        <ele>341.7</ele>
        <time>2014-10-31T13:09:51.000Z</time>
      </trkpt>
      <trkpt lat="47.49167" lon="6.75807">
        <ele>343.3</ele>
        <time>2014-10-31T13:09:54.000Z</time>
      </trkpt>
      <trkpt lat="47.49172" lon="6.75797">
        <ele>343.9</ele>
        <time>2014-10-31T13:09:55.000Z</time>
      </trkpt>
      <trkpt lat="47.49173" lon="6.7579">
        <ele>342.9</ele>
        <time>2014-10-31T13:09:56.000Z</time>
      </trkpt>
      <trkpt lat="47.49175" lon="6.75782">
        <ele>341.1</ele>
        <time>2014-10-31T13:09:57.000Z</time>
      </trkpt>
      <trkpt lat="47.49179" lon="6.75777">
        <ele>341.7</ele>
        <time>2014-10-31T13:09:58.000Z</time>
      </trkpt>
      <trkpt lat="47.49182" lon="6.75766">
        <ele>340.3</ele>
        <time>2014-10-31T13:09:59.000Z</time>
      </trkpt>
      <trkpt lat="47.49184" lon="6.7576">
        <ele>339.3</ele>
        <time>2014-10-31T13:10:00.000Z</time>
      </trkpt>
      <trkpt lat="47.49187" lon="6.75754">
        <ele>338.8</ele>
        <time>2014-10-31T13:10:01.000Z</time>
      </trkpt>
      <trkpt lat="47.49185" lon="6.75745">
        <ele>334.4</ele>
        <time>2014-10-31T13:10:02.000Z</time>
      </trkpt>
      <trkpt lat="47.49186" lon="6.7574">
        <ele>334.4</ele>
        <time>2014-10-31T13:10:03.000Z</time>
      </trkpt>
      <trkpt lat="47.49189" lon="6.75732">
        <ele>335.4</ele>
        <time>2014-10-31T13:10:04.000Z</time>
      </trkpt>
      <trkpt lat="47.4919" lon="6.75727">
        <ele>335.8</ele>
        <time>2014-10-31T13:10:05.000Z</time>
      </trkpt>
      <trkpt lat="47.49196" lon="6.75721">
        <ele>335.4</ele>
        <time>2014-10-31T13:10:06.000Z</time>
      </trkpt>
      <trkpt lat="47.49199" lon="6.75715">
        <ele>335.5</ele>
        <time>2014-10-31T13:10:07.000Z</time>
      </trkpt>
      <trkpt lat="47.49201" lon="6.75709">
        <ele>336</ele>
        <time>2014-10-31T13:10:08.000Z</time>
      </trkpt>
      <trkpt lat="47.49204" lon="6.75704">
        <ele>336.5</ele>
        <time>2014-10-31T13:10:09.000Z</time>
      </trkpt>
      <trkpt lat="47.49204" lon="6.75698">
        <ele>337.2</ele>
        <time>2014-10-31T13:10:10.000Z</time>
      </trkpt>
      <trkpt lat="47.49207" lon="6.75693">
        <ele>337.7</ele>
        <time>2014-10-31T13:10:11.000Z</time>
      </trkpt>
      <trkpt lat="47.49208" lon="6.75687">
        <ele>338.3</ele>
        <time>2014-10-31T13:10:12.000Z</time>
      </trkpt>
      <trkpt lat="47.4921" lon="6.7568">
        <ele>337.8</ele>
        <time>2014-10-31T13:10:13.000Z</time>
      </trkpt>
      <trkpt lat="47.49212" lon="6.75675">
        <ele>338.1</ele>
        <time>2014-10-31T13:10:14.000Z</time>
      </trkpt>
      <trkpt lat="47.49213" lon="6.7567">
        <ele>340.2</ele>
        <time>2014-10-31T13:10:15.000Z</time>
      </trkpt>
      <trkpt lat="47.49214" lon="6.75665">
        <ele>341.8</ele>
        <time>2014-10-31T13:10:16.000Z</time>
      </trkpt>
      <trkpt lat="47.49215" lon="6.75659">
        <ele>340.4</ele>
        <time>2014-10-31T13:10:17.000Z</time>
      </trkpt>
      <trkpt lat="47.49217" lon="6.75654">
        <ele>340.5</ele>
        <time>2014-10-31T13:10:18.000Z</time>
      </trkpt>
      <trkpt lat="47.49218" lon="6.75649">
        <ele>340</ele>
        <time>2014-10-31T13:10:19.000Z</time>
      </trkpt>
      <trkpt lat="47.49219" lon="6.75644">
        <ele>339.4</ele>
        <time>2014-10-31T13:10:20.000Z</time>
      </trkpt>
      <trkpt lat="47.49221" lon="6.75639">
        <ele>339.1</ele>
        <time>2014-10-31T13:10:21.000Z</time>
      </trkpt>
      <trkpt lat="47.49223" lon="6.75635">
        <ele>340.3</ele>
        <time>2014-10-31T13:10:22.000Z</time>
      </trkpt>
      <trkpt lat="47.49224" lon="6.75631">
        <ele>344.8</ele>
        <time>2014-10-31T13:10:23.000Z</time>
      </trkpt>
      <trkpt lat="47.49226" lon="6.75627">
        <ele>347.8</ele>
        <time>2014-10-31T13:10:24.000Z</time>
      </trkpt>
      <trkpt lat="47.49228" lon="6.75623">
        <ele>349.2</ele>
        <time>2014-10-31T13:10:25.000Z</time>
      </trkpt>
      <trkpt lat="47.4923" lon="6.75619">
        <ele>350.7</ele>
        <time>2014-10-31T13:10:26.000Z</time>
      </trkpt>
      <trkpt lat="47.49231" lon="6.75615">
        <ele>351</ele>
        <time>2014-10-31T13:10:27.000Z</time>
      </trkpt>
      <trkpt lat="47.49232" lon="6.75609">
        <ele>346.7</ele>
        <time>2014-10-31T13:10:28.000Z</time>
      </trkpt>
      <trkpt lat="47.49233" lon="6.75603">
        <ele>346.3</ele>
        <time>2014-10-31T13:10:29.000Z</time>
      </trkpt>
      <trkpt lat="47.49235" lon="6.75597">
        <ele>345.6</ele>
        <time>2014-10-31T13:10:30.000Z</time>
      </trkpt>
      <trkpt lat="47.49237" lon="6.7559">
        <ele>345.2</ele>
        <time>2014-10-31T13:10:31.000Z</time>
      </trkpt>
      <trkpt lat="47.49241" lon="6.75577">
        <ele>344.4</ele>
        <time>2014-10-31T13:10:32.000Z</time>
      </trkpt>
      <trkpt lat="47.49243" lon="6.75574">
        <ele>344.8</ele>
        <time>2014-10-31T13:10:33.000Z</time>
      </trkpt>
      <trkpt lat="47.49246" lon="6.75567">
        <ele>342</ele>
        <time>2014-10-31T13:10:34.000Z</time>
      </trkpt>
      <trkpt lat="47.49248" lon="6.7556">
        <ele>340.5</ele>
        <time>2014-10-31T13:10:35.000Z</time>
      </trkpt>
      <trkpt lat="47.49249" lon="6.75551">
        <ele>339.9</ele>
        <time>2014-10-31T13:10:36.000Z</time>
      </trkpt>
      <trkpt lat="47.4925" lon="6.75544">
        <ele>339.9</ele>
        <time>2014-10-31T13:10:36.999Z</time>
      </trkpt>
      <trkpt lat="47.4925" lon="6.75541">
        <ele>341.1</ele>
        <time>2014-10-31T13:10:38.000Z</time>
      </trkpt>
      <trkpt lat="47.49251" lon="6.75536">
        <ele>340.9</ele>
        <time>2014-10-31T13:10:39.000Z</time>
      </trkpt>
      <trkpt lat="47.49252" lon="6.75528">
        <ele>339.5</ele>
        <time>2014-10-31T13:10:40.000Z</time>
      </trkpt>
      <trkpt lat="47.49252" lon="6.75524">
        <ele>339.8</ele>
        <time>2014-10-31T13:10:41.000Z</time>
      </trkpt>
      <trkpt lat="47.49253" lon="6.75519">
        <ele>339.5</ele>
        <time>2014-10-31T13:10:42.000Z</time>
      </trkpt>
      <trkpt lat="47.49254" lon="6.75513">
        <ele>338.9</ele>
        <time>2014-10-31T13:10:43.000Z</time>
      </trkpt>
      <trkpt lat="47.49255" lon="6.75507">
        <ele>337.8</ele>
        <time>2014-10-31T13:10:44.000Z</time>
      </trkpt>
      <trkpt lat="47.49257" lon="6.75502">
        <ele>338</ele>
        <time>2014-10-31T13:10:45.000Z</time>
      </trkpt>
      <trkpt lat="47.49258" lon="6.75497">
        <ele>338.5</ele>
        <time>2014-10-31T13:10:46.000Z</time>
      </trkpt>
      <trkpt lat="47.4926" lon="6.75492">
        <ele>342.5</ele>
        <time>2014-10-31T13:10:47.000Z</time>
      </trkpt>
      <trkpt lat="47.49261" lon="6.75487">
        <ele>338.9</ele>
        <time>2014-10-31T13:10:48.000Z</time>
      </trkpt>
      <trkpt lat="47.49262" lon="6.75481">
        <ele>339.1</ele>
        <time>2014-10-31T13:10:49.000Z</time>
      </trkpt>
      <trkpt lat="47.49264" lon="6.75475">
        <ele>340.1</ele>
        <time>2014-10-31T13:10:50.000Z</time>
      </trkpt>
      <trkpt lat="47.49264" lon="6.75468">
        <ele>339.9</ele>
        <time>2014-10-31T13:10:51.000Z</time>
      </trkpt>
      <trkpt lat="47.49265" lon="6.75452">
        <ele>338.9</ele>
        <time>2014-10-31T13:10:54.000Z</time>
      </trkpt>
      <trkpt lat="47.49266" lon="6.75445">
        <ele>339.2</ele>
        <time>2014-10-31T13:10:55.000Z</time>
      </trkpt>
      <trkpt lat="47.49265" lon="6.75439">
        <ele>340.2</ele>
        <time>2014-10-31T13:10:56.000Z</time>
      </trkpt>
      <trkpt lat="47.49266" lon="6.75434">
        <ele>341.2</ele>
        <time>2014-10-31T13:10:57.000Z</time>
      </trkpt>
      <trkpt lat="47.49267" lon="6.7543">
        <ele>341.8</ele>
        <time>2014-10-31T13:10:58.000Z</time>
      </trkpt>
      <trkpt lat="47.49268" lon="6.75425">
        <ele>341.8</ele>
        <time>2014-10-31T13:10:59.000Z</time>
      </trkpt>
      <trkpt lat="47.49268" lon="6.7542">
        <ele>340.4</ele>
        <time>2014-10-31T13:11:00.000Z</time>
      </trkpt>
      <trkpt lat="47.49268" lon="6.75416">
        <ele>341.3</ele>
        <time>2014-10-31T13:11:01.000Z</time>
      </trkpt>
      <trkpt lat="47.49269" lon="6.75413">
        <ele>341.7</ele>
        <time>2014-10-31T13:11:02.000Z</time>
      </trkpt>
      <trkpt lat="47.49269" lon="6.75409">
        <ele>343.2</ele>
        <time>2014-10-31T13:11:03.000Z</time>
      </trkpt>
      <trkpt lat="47.4927" lon="6.75404">
        <ele>343.8</ele>
        <time>2014-10-31T13:11:04.000Z</time>
      </trkpt>
      <trkpt lat="47.4927" lon="6.75401">
        <ele>347.2</ele>
        <time>2014-10-31T13:11:05.000Z</time>
      </trkpt>
      <trkpt lat="47.4927" lon="6.75398">
        <ele>347.9</ele>
        <time>2014-10-31T13:11:06.000Z</time>
      </trkpt>
      <trkpt lat="47.4927" lon="6.75394">
        <ele>348.8</ele>
        <time>2014-10-31T13:11:07.000Z</time>
      </trkpt>
      <trkpt lat="47.49271" lon="6.7539">
        <ele>351.5</ele>
        <time>2014-10-31T13:11:08.000Z</time>
      </trkpt>
      <trkpt lat="47.49271" lon="6.75386">
        <ele>351.7</ele>
        <time>2014-10-31T13:11:09.000Z</time>
      </trkpt>
      <trkpt lat="47.49273" lon="6.75382">
        <ele>350.1</ele>
        <time>2014-10-31T13:11:10.000Z</time>
      </trkpt>
      <trkpt lat="47.49274" lon="6.75377">
        <ele>350.6</ele>
        <time>2014-10-31T13:11:11.000Z</time>
      </trkpt>
      <trkpt lat="47.49275" lon="6.75373">
        <ele>350.2</ele>
        <time>2014-10-31T13:11:12.000Z</time>
      </trkpt>
      <trkpt lat="47.49275" lon="6.75368">
        <ele>349.9</ele>
        <time>2014-10-31T13:11:13.000Z</time>
      </trkpt>
      <trkpt lat="47.49275" lon="6.75362">
        <ele>351</ele>
        <time>2014-10-31T13:11:15.000Z</time>
      </trkpt>
      <trkpt lat="47.49276" lon="6.75359">
        <ele>351.3</ele>
        <time>2014-10-31T13:11:16.000Z</time>
      </trkpt>
      <trkpt lat="47.49278" lon="6.75356">
        <ele>350</ele>
        <time>2014-10-31T13:11:17.000Z</time>
      </trkpt>
      <trkpt lat="47.4928" lon="6.75352">
        <ele>347.4</ele>
        <time>2014-10-31T13:11:18.000Z</time>
      </trkpt>
      <trkpt lat="47.49282" lon="6.75348">
        <ele>346.9</ele>
        <time>2014-10-31T13:11:19.000Z</time>
      </trkpt>
      <trkpt lat="47.49283" lon="6.75344">
        <ele>345</ele>
        <time>2014-10-31T13:11:20.000Z</time>
      </trkpt>
      <trkpt lat="47.49284" lon="6.75338">
        <ele>345.1</ele>
        <time>2014-10-31T13:11:21.000Z</time>
      </trkpt>
      <trkpt lat="47.49286" lon="6.75333">
        <ele>348.5</ele>
        <time>2014-10-31T13:11:22.000Z</time>
      </trkpt>
      <trkpt lat="47.49287" lon="6.75328">
        <ele>349.8</ele>
        <time>2014-10-31T13:11:23.000Z</time>
      </trkpt>
      <trkpt lat="47.49289" lon="6.75323">
        <ele>349.4</ele>
        <time>2014-10-31T13:11:24.000Z</time>
      </trkpt>
      <trkpt lat="47.4929" lon="6.75318">
        <ele>348.7</ele>
        <time>2014-10-31T13:11:25.000Z</time>
      </trkpt>
      <trkpt lat="47.4929" lon="6.75313">
        <ele>349.2</ele>
        <time>2014-10-31T13:11:26.000Z</time>
      </trkpt>
      <trkpt lat="47.4929" lon="6.75308">
        <ele>349.6</ele>
        <time>2014-10-31T13:11:27.000Z</time>
      </trkpt>
      <trkpt lat="47.4929" lon="6.75304">
        <ele>348.5</ele>
        <time>2014-10-31T13:11:28.000Z</time>
      </trkpt>
      <trkpt lat="47.4929" lon="6.75299">
        <ele>345.5</ele>
        <time>2014-10-31T13:11:29.000Z</time>
      </trkpt>
      <trkpt lat="47.49291" lon="6.75295">
        <ele>346.5</ele>
        <time>2014-10-31T13:11:30.000Z</time>
      </trkpt>
      <trkpt lat="47.49292" lon="6.7529">
        <ele>345.9</ele>
        <time>2014-10-31T13:11:31.000Z</time>
      </trkpt>
      <trkpt lat="47.49293" lon="6.75286">
        <ele>347.7</ele>
        <time>2014-10-31T13:11:32.000Z</time>
      </trkpt>
      <trkpt lat="47.49293" lon="6.75283">
        <ele>348.4</ele>
        <time>2014-10-31T13:11:33.000Z</time>
      </trkpt>
      <trkpt lat="47.49293" lon="6.75279">
        <ele>348.7</ele>
        <time>2014-10-31T13:11:34.000Z</time>
      </trkpt>
      <trkpt lat="47.49293" lon="6.75276">
        <ele>348.5</ele>
        <time>2014-10-31T13:11:35.000Z</time>
      </trkpt>
      <trkpt lat="47.49293" lon="6.75272">
        <ele>347.6</ele>
        <time>2014-10-31T13:11:36.000Z</time>
      </trkpt>
      <trkpt lat="47.49294" lon="6.75268">
        <ele>343.6</ele>
        <time>2014-10-31T13:11:37.000Z</time>
      </trkpt>
      <trkpt lat="47.49295" lon="6.75264">
        <ele>344.2</ele>
        <time>2014-10-31T13:11:38.000Z</time>
      </trkpt>
      <trkpt lat="47.49295" lon="6.75261">
        <ele>344.9</ele>
        <time>2014-10-31T13:11:39.000Z</time>
      </trkpt>
      <trkpt lat="47.49296" lon="6.75257">
        <ele>344</ele>
        <time>2014-10-31T13:11:40.000Z</time>
      </trkpt>
      <trkpt lat="47.49296" lon="6.75251">
        <ele>342.7</ele>
        <time>2014-10-31T13:11:42.000Z</time>
      </trkpt>
      <trkpt lat="47.49295" lon="6.75248">
        <ele>342</ele>
        <time>2014-10-31T13:11:43.000Z</time>
      </trkpt>
      <trkpt lat="47.49293" lon="6.75243">
        <ele>343.4</ele>
        <time>2014-10-31T13:11:45.000Z</time>
      </trkpt>
      <trkpt lat="47.49292" lon="6.7524">
        <ele>343.6</ele>
        <time>2014-10-31T13:11:46.000Z</time>
      </trkpt>
      <trkpt lat="47.49291" lon="6.75234">
        <ele>343.3</ele>
        <time>2014-10-31T13:11:48.000Z</time>
      </trkpt>
      <trkpt lat="47.4929" lon="6.7523">
        <ele>344.2</ele>
        <time>2014-10-31T13:11:49.000Z</time>
      </trkpt>
      <trkpt lat="47.4929" lon="6.75227">
        <ele>342.9</ele>
        <time>2014-10-31T13:11:50.000Z</time>
      </trkpt>
      <trkpt lat="47.49289" lon="6.75223">
        <ele>342.4</ele>
        <time>2014-10-31T13:11:51.000Z</time>
      </trkpt>
      <trkpt lat="47.49289" lon="6.75213">
        <ele>344</ele>
        <time>2014-10-31T13:11:54.000Z</time>
      </trkpt>
      <trkpt lat="47.49289" lon="6.75209">
        <ele>344.9</ele>
        <time>2014-10-31T13:11:55.000Z</time>
      </trkpt>
      <trkpt lat="47.49289" lon="6.75204">
        <ele>346</ele>
        <time>2014-10-31T13:11:56.000Z</time>
      </trkpt>
      <trkpt lat="47.49289" lon="6.752">
        <ele>347.4</ele>
        <time>2014-10-31T13:11:57.000Z</time>
      </trkpt>
      <trkpt lat="47.49289" lon="6.75196">
        <ele>347.7</ele>
        <time>2014-10-31T13:11:58.000Z</time>
      </trkpt>
      <trkpt lat="47.4929" lon="6.75191">
        <ele>346.3</ele>
        <time>2014-10-31T13:11:59.000Z</time>
      </trkpt>
      <trkpt lat="47.49291" lon="6.75187">
        <ele>345</ele>
        <time>2014-10-31T13:12:00.000Z</time>
      </trkpt>
      <trkpt lat="47.49293" lon="6.75184">
        <ele>342.7</ele>
        <time>2014-10-31T13:12:01.000Z</time>
      </trkpt>
      <trkpt lat="47.49294" lon="6.75181">
        <ele>341.9</ele>
        <time>2014-10-31T13:12:02.000Z</time>
      </trkpt>
      <trkpt lat="47.49296" lon="6.75178">
        <ele>342.5</ele>
        <time>2014-10-31T13:12:03.000Z</time>
      </trkpt>
      <trkpt lat="47.49296" lon="6.75174">
        <ele>342.2</ele>
        <time>2014-10-31T13:12:04.000Z</time>
      </trkpt>
      <trkpt lat="47.49297" lon="6.7517">
        <ele>338.6</ele>
        <time>2014-10-31T13:12:05.000Z</time>
      </trkpt>
      <trkpt lat="47.49297" lon="6.75165">
        <ele>337.6</ele>
        <time>2014-10-31T13:12:06.000Z</time>
      </trkpt>
      <trkpt lat="47.49298" lon="6.75161">
        <ele>337</ele>
        <time>2014-10-31T13:12:07.000Z</time>
      </trkpt>
      <trkpt lat="47.49299" lon="6.75157">
        <ele>336.1</ele>
        <time>2014-10-31T13:12:08.000Z</time>
      </trkpt>
      <trkpt lat="47.493" lon="6.75153">
        <ele>336.3</ele>
        <time>2014-10-31T13:12:09.000Z</time>
      </trkpt>
      <trkpt lat="47.493" lon="6.75149">
        <ele>337.1</ele>
        <time>2014-10-31T13:12:10.000Z</time>
      </trkpt>
      <trkpt lat="47.49301" lon="6.75144">
        <ele>339.7</ele>
        <time>2014-10-31T13:12:11.000Z</time>
      </trkpt>
      <trkpt lat="47.49302" lon="6.7514">
        <ele>341.8</ele>
        <time>2014-10-31T13:12:12.000Z</time>
      </trkpt>
      <trkpt lat="47.49302" lon="6.75136">
        <ele>343.1</ele>
        <time>2014-10-31T13:12:13.000Z</time>
      </trkpt>
      <trkpt lat="47.49303" lon="6.75133">
        <ele>344.9</ele>
        <time>2014-10-31T13:12:14.000Z</time>
      </trkpt>
      <trkpt lat="47.49304" lon="6.75129">
        <ele>345.6</ele>
        <time>2014-10-31T13:12:15.000Z</time>
      </trkpt>
      <trkpt lat="47.49304" lon="6.75124">
        <ele>346.1</ele>
        <time>2014-10-31T13:12:16.000Z</time>
      </trkpt>
      <trkpt lat="47.49305" lon="6.75118">
        <ele>347.2</ele>
        <time>2014-10-31T13:12:17.000Z</time>
      </trkpt>
      <trkpt lat="47.49307" lon="6.75112">
        <ele>346.6</ele>
        <time>2014-10-31T13:12:18.000Z</time>
      </trkpt>
      <trkpt lat="47.49308" lon="6.75106">
        <ele>348.1</ele>
        <time>2014-10-31T13:12:19.000Z</time>
      </trkpt>
      <trkpt lat="47.49309" lon="6.751">
        <ele>350.3</ele>
        <time>2014-10-31T13:12:20.000Z</time>
      </trkpt>
      <trkpt lat="47.49311" lon="6.75084">
        <ele>348.5</ele>
        <time>2014-10-31T13:12:21.000Z</time>
      </trkpt>
      <trkpt lat="47.49312" lon="6.75081">
        <ele>348.9</ele>
        <time>2014-10-31T13:12:22.000Z</time>
      </trkpt>
      <trkpt lat="47.49316" lon="6.75077">
        <ele>348.5</ele>
        <time>2014-10-31T13:12:23.000Z</time>
      </trkpt>
      <trkpt lat="47.49318" lon="6.75073">
        <ele>348.6</ele>
        <time>2014-10-31T13:12:24.000Z</time>
      </trkpt>
      <trkpt lat="47.49322" lon="6.75066">
        <ele>349</ele>
        <time>2014-10-31T13:12:25.000Z</time>
      </trkpt>
      <trkpt lat="47.49325" lon="6.75064">
        <ele>349.5</ele>
        <time>2014-10-31T13:12:26.000Z</time>
      </trkpt>
      <trkpt lat="47.49328" lon="6.75057">
        <ele>349.3</ele>
        <time>2014-10-31T13:12:27.000Z</time>
      </trkpt>
      <trkpt lat="47.49331" lon="6.75052">
        <ele>350.8</ele>
        <time>2014-10-31T13:12:28.000Z</time>
      </trkpt>
      <trkpt lat="47.49333" lon="6.75046">
        <ele>352</ele>
        <time>2014-10-31T13:12:29.000Z</time>
      </trkpt>
      <trkpt lat="47.49334" lon="6.75042">
        <ele>352.4</ele>
        <time>2014-10-31T13:12:30.000Z</time>
      </trkpt>
      <trkpt lat="47.49336" lon="6.75037">
        <ele>353.3</ele>
        <time>2014-10-31T13:12:31.000Z</time>
      </trkpt>
      <trkpt lat="47.49336" lon="6.7503">
        <ele>357.9</ele>
        <time>2014-10-31T13:12:34.000Z</time>
      </trkpt>
      <trkpt lat="47.49336" lon="6.75026">
        <ele>358.3</ele>
        <time>2014-10-31T13:12:35.000Z</time>
      </trkpt>
      <trkpt lat="47.49336" lon="6.7502">
        <ele>361.1</ele>
        <time>2014-10-31T13:12:37.000Z</time>
      </trkpt>
      <trkpt lat="47.49335" lon="6.75016">
        <ele>360.6</ele>
        <time>2014-10-31T13:12:38.000Z</time>
      </trkpt>
      <trkpt lat="47.49335" lon="6.75012">
        <ele>358.8</ele>
        <time>2014-10-31T13:12:39.000Z</time>
      </trkpt>
      <trkpt lat="47.49334" lon="6.75008">
        <ele>358</ele>
        <time>2014-10-31T13:12:40.000Z</time>
      </trkpt>
      <trkpt lat="47.49333" lon="6.75002">
        <ele>361.6</ele>
        <time>2014-10-31T13:12:42.000Z</time>
      </trkpt>
      <trkpt lat="47.49332" lon="6.74999">
        <ele>361.1</ele>
        <time>2014-10-31T13:12:43.000Z</time>
      </trkpt>
      <trkpt lat="47.49332" lon="6.74993">
        <ele>358.4</ele>
        <time>2014-10-31T13:12:45.000Z</time>
      </trkpt>
      <trkpt lat="47.49332" lon="6.74989">
        <ele>357.2</ele>
        <time>2014-10-31T13:12:46.000Z</time>
      </trkpt>
      <trkpt lat="47.49333" lon="6.74986">
        <ele>357.7</ele>
        <time>2014-10-31T13:12:47.000Z</time>
      </trkpt>
      <trkpt lat="47.49333" lon="6.74982">
        <ele>355.3</ele>
        <time>2014-10-31T13:12:48.000Z</time>
      </trkpt>
      <trkpt lat="47.49333" lon="6.7498">
        <ele>353.9</ele>
        <time>2014-10-31T13:12:48.999Z</time>
      </trkpt>
      <trkpt lat="47.49334" lon="6.74975">
        <ele>353.4</ele>
        <time>2014-10-31T13:12:50.000Z</time>
      </trkpt>
      <trkpt lat="47.49334" lon="6.74971">
        <ele>355.5</ele>
        <time>2014-10-31T13:12:51.000Z</time>
      </trkpt>
      <trkpt lat="47.49335" lon="6.74961">
        <ele>356.9</ele>
        <time>2014-10-31T13:12:54.000Z</time>
      </trkpt>
      <trkpt lat="47.49335" lon="6.74957">
        <ele>357.6</ele>
        <time>2014-10-31T13:12:55.000Z</time>
      </trkpt>
      <trkpt lat="47.49336" lon="6.74954">
        <ele>357.9</ele>
        <time>2014-10-31T13:12:56.000Z</time>
      </trkpt>
      <trkpt lat="47.49336" lon="6.74949">
        <ele>357</ele>
        <time>2014-10-31T13:12:57.000Z</time>
      </trkpt>
      <trkpt lat="47.49337" lon="6.74946">
        <ele>355.3</ele>
        <time>2014-10-31T13:12:58.000Z</time>
      </trkpt>
      <trkpt lat="47.49337" lon="6.7494">
        <ele>353.7</ele>
        <time>2014-10-31T13:13:00.000Z</time>
      </trkpt>
      <trkpt lat="47.49337" lon="6.74937">
        <ele>352.5</ele>
        <time>2014-10-31T13:13:01.000Z</time>
      </trkpt>
      <trkpt lat="47.49337" lon="6.74932">
        <ele>354.2</ele>
        <time>2014-10-31T13:13:03.000Z</time>
      </trkpt>
      <trkpt lat="47.49338" lon="6.7493">
        <ele>354.1</ele>
        <time>2014-10-31T13:13:04.000Z</time>
      </trkpt>
      <trkpt lat="47.49338" lon="6.74925">
        <ele>354.8</ele>
        <time>2014-10-31T13:13:06.000Z</time>
      </trkpt>
      <trkpt lat="47.49338" lon="6.74923">
        <ele>352.7</ele>
        <time>2014-10-31T13:13:07.000Z</time>
      </trkpt>
      <trkpt lat="47.49337" lon="6.74919">
        <ele>348.7</ele>
        <time>2014-10-31T13:13:08.000Z</time>
      </trkpt>
      <trkpt lat="47.49336" lon="6.74916">
        <ele>348.9</ele>
        <time>2014-10-31T13:13:09.000Z</time>
      </trkpt>
      <trkpt lat="47.49335" lon="6.74912">
        <ele>347.6</ele>
        <time>2014-10-31T13:13:10.000Z</time>
      </trkpt>
      <trkpt lat="47.49333" lon="6.74908">
        <ele>345.3</ele>
        <time>2014-10-31T13:13:11.000Z</time>
      </trkpt>
      <trkpt lat="47.49331" lon="6.74903">
        <ele>345.5</ele>
        <time>2014-10-31T13:13:12.000Z</time>
      </trkpt>
      <trkpt lat="47.4933" lon="6.74898">
        <ele>347.4</ele>
        <time>2014-10-31T13:13:13.000Z</time>
      </trkpt>
      <trkpt lat="47.49329" lon="6.74894">
        <ele>345.9</ele>
        <time>2014-10-31T13:13:14.000Z</time>
      </trkpt>
      <trkpt lat="47.49329" lon="6.7489">
        <ele>345</ele>
        <time>2014-10-31T13:13:15.000Z</time>
      </trkpt>
      <trkpt lat="47.49328" lon="6.74884">
        <ele>344.1</ele>
        <time>2014-10-31T13:13:17.000Z</time>
      </trkpt>
      <trkpt lat="47.49328" lon="6.74881">
        <ele>343.8</ele>
        <time>2014-10-31T13:13:18.000Z</time>
      </trkpt>
      <trkpt lat="47.49328" lon="6.74876">
        <ele>344.2</ele>
        <time>2014-10-31T13:13:20.000Z</time>
      </trkpt>
      <trkpt lat="47.49328" lon="6.74872">
        <ele>342.4</ele>
        <time>2014-10-31T13:13:21.000Z</time>
      </trkpt>
      <trkpt lat="47.49328" lon="6.74869">
        <ele>341.5</ele>
        <time>2014-10-31T13:13:22.000Z</time>
      </trkpt>
      <trkpt lat="47.49329" lon="6.74865">
        <ele>341.4</ele>
        <time>2014-10-31T13:13:23.000Z</time>
      </trkpt>
      <trkpt lat="47.49329" lon="6.74861">
        <ele>340.6</ele>
        <time>2014-10-31T13:13:24.000Z</time>
      </trkpt>
      <trkpt lat="47.4933" lon="6.74858">
        <ele>342.2</ele>
        <time>2014-10-31T13:13:25.000Z</time>
      </trkpt>
      <trkpt lat="47.49331" lon="6.74851">
        <ele>343.9</ele>
        <time>2014-10-31T13:13:27.000Z</time>
      </trkpt>
      <trkpt lat="47.49331" lon="6.74848">
        <ele>343.3</ele>
        <time>2014-10-31T13:13:28.000Z</time>
      </trkpt>
      <trkpt lat="47.4933" lon="6.74842">
        <ele>344.9</ele>
        <time>2014-10-31T13:13:30.000Z</time>
      </trkpt>
      <trkpt lat="47.4933" lon="6.74838">
        <ele>345.6</ele>
        <time>2014-10-31T13:13:31.000Z</time>
      </trkpt>
      <trkpt lat="47.4933" lon="6.74834">
        <ele>346.5</ele>
        <time>2014-10-31T13:13:32.000Z</time>
      </trkpt>
      <trkpt lat="47.4933" lon="6.7483">
        <ele>347.5</ele>
        <time>2014-10-31T13:13:33.000Z</time>
      </trkpt>
      <trkpt lat="47.4933" lon="6.74825">
        <ele>348.9</ele>
        <time>2014-10-31T13:13:35.000Z</time>
      </trkpt>
      <trkpt lat="47.49329" lon="6.74822">
        <ele>348.6</ele>
        <time>2014-10-31T13:13:36.000Z</time>
      </trkpt>
      <trkpt lat="47.49329" lon="6.74818">
        <ele>351.5</ele>
        <time>2014-10-31T13:13:38.000Z</time>
      </trkpt>
      <trkpt lat="47.49329" lon="6.74815">
        <ele>351.1</ele>
        <time>2014-10-31T13:13:39.000Z</time>
      </trkpt>
      <trkpt lat="47.4933" lon="6.7481">
        <ele>354.4</ele>
        <time>2014-10-31T13:13:41.000Z</time>
      </trkpt>
      <trkpt lat="47.4933" lon="6.74807">
        <ele>354.7</ele>
        <time>2014-10-31T13:13:42.000Z</time>
      </trkpt>
      <trkpt lat="47.49331" lon="6.74803">
        <ele>356</ele>
        <time>2014-10-31T13:13:43.000Z</time>
      </trkpt>
      <trkpt lat="47.49331" lon="6.748">
        <ele>357</ele>
        <time>2014-10-31T13:13:44.000Z</time>
      </trkpt>
      <trkpt lat="47.49332" lon="6.74794">
        <ele>356.9</ele>
        <time>2014-10-31T13:13:46.000Z</time>
      </trkpt>
      <trkpt lat="47.49332" lon="6.7479">
        <ele>357.1</ele>
        <time>2014-10-31T13:13:47.000Z</time>
      </trkpt>
      <trkpt lat="47.49332" lon="6.74787">
        <ele>356.8</ele>
        <time>2014-10-31T13:13:48.000Z</time>
      </trkpt>
      <trkpt lat="47.49332" lon="6.74782">
        <ele>356.1</ele>
        <time>2014-10-31T13:13:49.000Z</time>
      </trkpt>
      <trkpt lat="47.49332" lon="6.74778">
        <ele>356.9</ele>
        <time>2014-10-31T13:13:50.000Z</time>
      </trkpt>
      <trkpt lat="47.49331" lon="6.74774">
        <ele>357</ele>
        <time>2014-10-31T13:13:51.000Z</time>
      </trkpt>
      <trkpt lat="47.49331" lon="6.7477">
        <ele>360.8</ele>
        <time>2014-10-31T13:13:52.000Z</time>
      </trkpt>
      <trkpt lat="47.49331" lon="6.7474">
        <ele>362.4</ele>
        <time>2014-10-31T13:14:00.000Z</time>
      </trkpt>
      <trkpt lat="47.49331" lon="6.74733">
        <ele>364.6</ele>
        <time>2014-10-31T13:14:02.000Z</time>
      </trkpt>
      <trkpt lat="47.49331" lon="6.7473">
        <ele>365</ele>
        <time>2014-10-31T13:14:03.000Z</time>
      </trkpt>
      <trkpt lat="47.49331" lon="6.74727">
        <ele>365.9</ele>
        <time>2014-10-31T13:14:04.000Z</time>
      </trkpt>
      <trkpt lat="47.49331" lon="6.74723">
        <ele>363.2</ele>
        <time>2014-10-31T13:14:05.000Z</time>
      </trkpt>
      <trkpt lat="47.49331" lon="6.74719">
        <ele>362.1</ele>
        <time>2014-10-31T13:14:06.000Z</time>
      </trkpt>
      <trkpt lat="47.49331" lon="6.74715">
        <ele>359.8</ele>
        <time>2014-10-31T13:14:07.000Z</time>
      </trkpt>
      <trkpt lat="47.49332" lon="6.7471">
        <ele>359.3</ele>
        <time>2014-10-31T13:14:08.000Z</time>
      </trkpt>
      <trkpt lat="47.49332" lon="6.74706">
        <ele>359.9</ele>
        <time>2014-10-31T13:14:09.000Z</time>
      </trkpt>
      <trkpt lat="47.49332" lon="6.74702">
        <ele>358.9</ele>
        <time>2014-10-31T13:14:10.000Z</time>
      </trkpt>
      <trkpt lat="47.49332" lon="6.74698">
        <ele>359.1</ele>
        <time>2014-10-31T13:14:11.000Z</time>
      </trkpt>
      <trkpt lat="47.49332" lon="6.74694">
        <ele>360.8</ele>
        <time>2014-10-31T13:14:12.000Z</time>
      </trkpt>
      <trkpt lat="47.49333" lon="6.74691">
        <ele>360.1</ele>
        <time>2014-10-31T13:14:13.000Z</time>
      </trkpt>
      <trkpt lat="47.49333" lon="6.74686">
        <ele>357.5</ele>
        <time>2014-10-31T13:14:14.000Z</time>
      </trkpt>
      <trkpt lat="47.49334" lon="6.74682">
        <ele>357.7</ele>
        <time>2014-10-31T13:14:15.000Z</time>
      </trkpt>
      <trkpt lat="47.49335" lon="6.74678">
        <ele>357.5</ele>
        <time>2014-10-31T13:14:16.000Z</time>
      </trkpt>
      <trkpt lat="47.49335" lon="6.74674">
        <ele>357.3</ele>
        <time>2014-10-31T13:14:17.000Z</time>
      </trkpt>
      <trkpt lat="47.49335" lon="6.74668">
        <ele>359.4</ele>
        <time>2014-10-31T13:14:19.000Z</time>
      </trkpt>
      <trkpt lat="47.49335" lon="6.74665">
        <ele>358.1</ele>
        <time>2014-10-31T13:14:20.000Z</time>
      </trkpt>
      <trkpt lat="47.49334" lon="6.74661">
        <ele>357.9</ele>
        <time>2014-10-31T13:14:21.000Z</time>
      </trkpt>
      <trkpt lat="47.49334" lon="6.74658">
        <ele>358.1</ele>
        <time>2014-10-31T13:14:22.000Z</time>
      </trkpt>
      <trkpt lat="47.49334" lon="6.74654">
        <ele>357.6</ele>
        <time>2014-10-31T13:14:23.000Z</time>
      </trkpt>
      <trkpt lat="47.49334" lon="6.74651">
        <ele>358.9</ele>
        <time>2014-10-31T13:14:24.000Z</time>
      </trkpt>
      <trkpt lat="47.49334" lon="6.74644">
        <ele>359.7</ele>
        <time>2014-10-31T13:14:26.000Z</time>
      </trkpt>
      <trkpt lat="47.49334" lon="6.74641">
        <ele>360.2</ele>
        <time>2014-10-31T13:14:27.000Z</time>
      </trkpt>
      <trkpt lat="47.49333" lon="6.74636">
        <ele>358.4</ele>
        <time>2014-10-31T13:14:29.000Z</time>
      </trkpt>
      <trkpt lat="47.49333" lon="6.74634">
        <ele>358</ele>
        <time>2014-10-31T13:14:30.000Z</time>
      </trkpt>
      <trkpt lat="47.49332" lon="6.74628">
        <ele>359.5</ele>
        <time>2014-10-31T13:14:32.000Z</time>
      </trkpt>
      <trkpt lat="47.49332" lon="6.74625">
        <ele>361</ele>
        <time>2014-10-31T13:14:33.000Z</time>
      </trkpt>
      <trkpt lat="47.49332" lon="6.74619">
        <ele>360.2</ele>
        <time>2014-10-31T13:14:35.000Z</time>
      </trkpt>
      <trkpt lat="47.49332" lon="6.74616">
        <ele>358.4</ele>
        <time>2014-10-31T13:14:36.000Z</time>
      </trkpt>
      <trkpt lat="47.49333" lon="6.7461">
        <ele>358.5</ele>
        <time>2014-10-31T13:14:38.000Z</time>
      </trkpt>
      <trkpt lat="47.49333" lon="6.74606">
        <ele>359.2</ele>
        <time>2014-10-31T13:14:39.000Z</time>
      </trkpt>
      <trkpt lat="47.49333" lon="6.74601">
        <ele>357.9</ele>
        <time>2014-10-31T13:14:40.000Z</time>
      </trkpt>
      <trkpt lat="47.49333" lon="6.74596">
        <ele>357.9</ele>
        <time>2014-10-31T13:14:41.000Z</time>
      </trkpt>
      <trkpt lat="47.49333" lon="6.7459">
        <ele>358.8</ele>
        <time>2014-10-31T13:14:42.000Z</time>
      </trkpt>
      <trkpt lat="47.49334" lon="6.74585">
        <ele>359.2</ele>
        <time>2014-10-31T13:14:43.000Z</time>
      </trkpt>
      <trkpt lat="47.49334" lon="6.74579">
        <ele>359.8</ele>
        <time>2014-10-31T13:14:44.000Z</time>
      </trkpt>
      <trkpt lat="47.49334" lon="6.74575">
        <ele>358.1</ele>
        <time>2014-10-31T13:14:45.000Z</time>
      </trkpt>
      <trkpt lat="47.49335" lon="6.74571">
        <ele>357.7</ele>
        <time>2014-10-31T13:14:46.000Z</time>
      </trkpt>
      <trkpt lat="47.49335" lon="6.74567">
        <ele>358.4</ele>
        <time>2014-10-31T13:14:47.000Z</time>
      </trkpt>
      <trkpt lat="47.49336" lon="6.74563">
        <ele>360</ele>
        <time>2014-10-31T13:14:48.000Z</time>
      </trkpt>
      <trkpt lat="47.49337" lon="6.7456">
        <ele>359.7</ele>
        <time>2014-10-31T13:14:49.000Z</time>
      </trkpt>
      <trkpt lat="47.49338" lon="6.74556">
        <ele>358.7</ele>
        <time>2014-10-31T13:14:50.000Z</time>
      </trkpt>
      <trkpt lat="47.49339" lon="6.74552">
        <ele>360</ele>
        <time>2014-10-31T13:14:51.000Z</time>
      </trkpt>
      <trkpt lat="47.4934" lon="6.74547">
        <ele>359.7</ele>
        <time>2014-10-31T13:14:52.000Z</time>
      </trkpt>
      <trkpt lat="47.49346" lon="6.74505">
        <ele>357.5</ele>
        <time>2014-10-31T13:15:00.000Z</time>
      </trkpt>
      <trkpt lat="47.49346" lon="6.745">
        <ele>357.8</ele>
        <time>2014-10-31T13:15:01.000Z</time>
      </trkpt>
      <trkpt lat="47.49346" lon="6.74494">
        <ele>358.8</ele>
        <time>2014-10-31T13:15:02.000Z</time>
      </trkpt>
      <trkpt lat="47.49345" lon="6.74489">
        <ele>357.9</ele>
        <time>2014-10-31T13:15:03.000Z</time>
      </trkpt>
      <trkpt lat="47.49345" lon="6.74483">
        <ele>358.4</ele>
        <time>2014-10-31T13:15:04.000Z</time>
      </trkpt>
      <trkpt lat="47.49344" lon="6.74479">
        <ele>358.1</ele>
        <time>2014-10-31T13:15:05.000Z</time>
      </trkpt>
      <trkpt lat="47.49343" lon="6.74475">
        <ele>359.9</ele>
        <time>2014-10-31T13:15:06.000Z</time>
      </trkpt>
      <trkpt lat="47.49341" lon="6.74471">
        <ele>360.7</ele>
        <time>2014-10-31T13:15:07.000Z</time>
      </trkpt>
      <trkpt lat="47.4934" lon="6.74468">
        <ele>362.7</ele>
        <time>2014-10-31T13:15:08.000Z</time>
      </trkpt>
      <trkpt lat="47.49338" lon="6.74463">
        <ele>364.2</ele>
        <time>2014-10-31T13:15:10.000Z</time>
      </trkpt>
      <trkpt lat="47.49337" lon="6.7446">
        <ele>365.5</ele>
        <time>2014-10-31T13:15:11.000Z</time>
      </trkpt>
      <trkpt lat="47.49337" lon="6.74454">
        <ele>366.2</ele>
        <time>2014-10-31T13:15:13.000Z</time>
      </trkpt>
      <trkpt lat="47.49338" lon="6.7445">
        <ele>365.1</ele>
        <time>2014-10-31T13:15:14.000Z</time>
      </trkpt>
      <trkpt lat="47.49338" lon="6.74447">
        <ele>365.5</ele>
        <time>2014-10-31T13:15:15.000Z</time>
      </trkpt>
      <trkpt lat="47.4934" lon="6.74442">
        <ele>365.5</ele>
        <time>2014-10-31T13:15:16.000Z</time>
      </trkpt>
      <trkpt lat="47.49341" lon="6.74437">
        <ele>365</ele>
        <time>2014-10-31T13:15:17.000Z</time>
      </trkpt>
      <trkpt lat="47.49341" lon="6.7443">
        <ele>366</ele>
        <time>2014-10-31T13:15:18.000Z</time>
      </trkpt>
      <trkpt lat="47.4934" lon="6.74424">
        <ele>368.2</ele>
        <time>2014-10-31T13:15:19.000Z</time>
      </trkpt>
      <trkpt lat="47.49339" lon="6.74418">
        <ele>369.3</ele>
        <time>2014-10-31T13:15:20.000Z</time>
      </trkpt>
      <trkpt lat="47.49338" lon="6.74411">
        <ele>370</ele>
        <time>2014-10-31T13:15:21.000Z</time>
      </trkpt>
      <trkpt lat="47.49338" lon="6.74405">
        <ele>369.9</ele>
        <time>2014-10-31T13:15:22.000Z</time>
      </trkpt>
      <trkpt lat="47.49338" lon="6.744">
        <ele>369.5</ele>
        <time>2014-10-31T13:15:23.000Z</time>
      </trkpt>
      <trkpt lat="47.49339" lon="6.74396">
        <ele>369</ele>
        <time>2014-10-31T13:15:24.000Z</time>
      </trkpt>
      <trkpt lat="47.4934" lon="6.74393">
        <ele>369.3</ele>
        <time>2014-10-31T13:15:25.000Z</time>
      </trkpt>
      <trkpt lat="47.49342" lon="6.7439">
        <ele>367.3</ele>
        <time>2014-10-31T13:15:26.000Z</time>
      </trkpt>
      <trkpt lat="47.49346" lon="6.74386">
        <ele>367.2</ele>
        <time>2014-10-31T13:15:27.000Z</time>
      </trkpt>
      <trkpt lat="47.49347" lon="6.74381">
        <ele>368.1</ele>
        <time>2014-10-31T13:15:28.000Z</time>
      </trkpt>
      <trkpt lat="47.49348" lon="6.74376">
        <ele>367.3</ele>
        <time>2014-10-31T13:15:29.000Z</time>
      </trkpt>
      <trkpt lat="47.49348" lon="6.74371">
        <ele>368.2</ele>
        <time>2014-10-31T13:15:30.000Z</time>
      </trkpt>
      <trkpt lat="47.49348" lon="6.74367">
        <ele>369.3</ele>
        <time>2014-10-31T13:15:31.000Z</time>
      </trkpt>
      <trkpt lat="47.4935" lon="6.74363">
        <ele>369.6</ele>
        <time>2014-10-31T13:15:32.000Z</time>
      </trkpt>
      <trkpt lat="47.49352" lon="6.74358">
        <ele>368.7</ele>
        <time>2014-10-31T13:15:33.000Z</time>
      </trkpt>
      <trkpt lat="47.49352" lon="6.74354">
        <ele>370.3</ele>
        <time>2014-10-31T13:15:34.000Z</time>
      </trkpt>
      <trkpt lat="47.49353" lon="6.74349">
        <ele>371.1</ele>
        <time>2014-10-31T13:15:35.000Z</time>
      </trkpt>
      <trkpt lat="47.49352" lon="6.74343">
        <ele>369.6</ele>
        <time>2014-10-31T13:15:36.000Z</time>
      </trkpt>
      <trkpt lat="47.49352" lon="6.74339">
        <ele>368.9</ele>
        <time>2014-10-31T13:15:37.000Z</time>
      </trkpt>
      <trkpt lat="47.49352" lon="6.74335">
        <ele>369.7</ele>
        <time>2014-10-31T13:15:38.000Z</time>
      </trkpt>
      <trkpt lat="47.49353" lon="6.7433">
        <ele>368.3</ele>
        <time>2014-10-31T13:15:39.000Z</time>
      </trkpt>
      <trkpt lat="47.49354" lon="6.74326">
        <ele>366.7</ele>
        <time>2014-10-31T13:15:40.000Z</time>
      </trkpt>
      <trkpt lat="47.49355" lon="6.74322">
        <ele>363.8</ele>
        <time>2014-10-31T13:15:41.000Z</time>
      </trkpt>
      <trkpt lat="47.49356" lon="6.74317">
        <ele>363.4</ele>
        <time>2014-10-31T13:15:43.000Z</time>
      </trkpt>
      <trkpt lat="47.49355" lon="6.74314">
        <ele>363.8</ele>
        <time>2014-10-31T13:15:44.000Z</time>
      </trkpt>
      <trkpt lat="47.49355" lon="6.74308">
        <ele>362.5</ele>
        <time>2014-10-31T13:15:46.000Z</time>
      </trkpt>
      <trkpt lat="47.49354" lon="6.74304">
        <ele>362.4</ele>
        <time>2014-10-31T13:15:47.000Z</time>
      </trkpt>
      <trkpt lat="47.49353" lon="6.74301">
        <ele>361.6</ele>
        <time>2014-10-31T13:15:48.000Z</time>
      </trkpt>
      <trkpt lat="47.49352" lon="6.74298">
        <ele>361.4</ele>
        <time>2014-10-31T13:15:49.000Z</time>
      </trkpt>
      <trkpt lat="47.49353" lon="6.74293">
        <ele>367.8</ele>
        <time>2014-10-31T13:15:51.000Z</time>
      </trkpt>
      <trkpt lat="47.49354" lon="6.7429">
        <ele>368.9</ele>
        <time>2014-10-31T13:15:52.000Z</time>
      </trkpt>
      <trkpt lat="47.49355" lon="6.7426">
        <ele>370.4</ele>
        <time>2014-10-31T13:16:00.000Z</time>
      </trkpt>
      <trkpt lat="47.49356" lon="6.74256">
        <ele>368.7</ele>
        <time>2014-10-31T13:16:01.000Z</time>
      </trkpt>
      <trkpt lat="47.49357" lon="6.74251">
        <ele>369.2</ele>
        <time>2014-10-31T13:16:02.000Z</time>
      </trkpt>
      <trkpt lat="47.49357" lon="6.74248">
        <ele>368.5</ele>
        <time>2014-10-31T13:16:03.000Z</time>
      </trkpt>
      <trkpt lat="47.49358" lon="6.74244">
        <ele>368.7</ele>
        <time>2014-10-31T13:16:04.000Z</time>
      </trkpt>
      <trkpt lat="47.4936" lon="6.74239">
        <ele>367.4</ele>
        <time>2014-10-31T13:16:06.000Z</time>
      </trkpt>
      <trkpt lat="47.49361" lon="6.74237">
        <ele>366.9</ele>
        <time>2014-10-31T13:16:07.000Z</time>
      </trkpt>
      <trkpt lat="47.49363" lon="6.74234">
        <ele>366.4</ele>
        <time>2014-10-31T13:16:08.000Z</time>
      </trkpt>
      <trkpt lat="47.49365" lon="6.74232">
        <ele>364.7</ele>
        <time>2014-10-31T13:16:09.000Z</time>
      </trkpt>
      <trkpt lat="47.49366" lon="6.74228">
        <ele>361.6</ele>
        <time>2014-10-31T13:16:10.000Z</time>
      </trkpt>
      <trkpt lat="47.49368" lon="6.74224">
        <ele>362.1</ele>
        <time>2014-10-31T13:16:11.000Z</time>
      </trkpt>
      <trkpt lat="47.49369" lon="6.74219">
        <ele>361.4</ele>
        <time>2014-10-31T13:16:12.000Z</time>
      </trkpt>
      <trkpt lat="47.49369" lon="6.74213">
        <ele>360.8</ele>
        <time>2014-10-31T13:16:13.000Z</time>
      </trkpt>
      <trkpt lat="47.49372" lon="6.74202">
        <ele>360.2</ele>
        <time>2014-10-31T13:16:14.000Z</time>
      </trkpt>
      <trkpt lat="47.49375" lon="6.74195">
        <ele>359</ele>
        <time>2014-10-31T13:16:15.000Z</time>
      </trkpt>
      <trkpt lat="47.49377" lon="6.74189">
        <ele>359.2</ele>
        <time>2014-10-31T13:16:16.000Z</time>
      </trkpt>
      <trkpt lat="47.49378" lon="6.74184">
        <ele>359.8</ele>
        <time>2014-10-31T13:16:17.000Z</time>
      </trkpt>
      <trkpt lat="47.49379" lon="6.74179">
        <ele>362.2</ele>
        <time>2014-10-31T13:16:18.000Z</time>
      </trkpt>
      <trkpt lat="47.49379" lon="6.74173">
        <ele>362.6</ele>
        <time>2014-10-31T13:16:19.000Z</time>
      </trkpt>
      <trkpt lat="47.49379" lon="6.74166">
        <ele>362.8</ele>
        <time>2014-10-31T13:16:20.000Z</time>
      </trkpt>
      <trkpt lat="47.49381" lon="6.74161">
        <ele>359.6</ele>
        <time>2014-10-31T13:16:21.000Z</time>
      </trkpt>
      <trkpt lat="47.49382" lon="6.74155">
        <ele>356.7</ele>
        <time>2014-10-31T13:16:22.000Z</time>
      </trkpt>
      <trkpt lat="47.49383" lon="6.74151">
        <ele>355.2</ele>
        <time>2014-10-31T13:16:23.000Z</time>
      </trkpt>
      <trkpt lat="47.49386" lon="6.74145">
        <ele>353.4</ele>
        <time>2014-10-31T13:16:24.000Z</time>
      </trkpt>
      <trkpt lat="47.49386" lon="6.74138">
        <ele>349.9</ele>
        <time>2014-10-31T13:16:25.000Z</time>
      </trkpt>
      <trkpt lat="47.49386" lon="6.7413">
        <ele>346.6</ele>
        <time>2014-10-31T13:16:26.000Z</time>
      </trkpt>
      <trkpt lat="47.49387" lon="6.74122">
        <ele>345</ele>
        <time>2014-10-31T13:16:27.000Z</time>
      </trkpt>
      <trkpt lat="47.4939" lon="6.74117">
        <ele>342.8</ele>
        <time>2014-10-31T13:16:28.000Z</time>
      </trkpt>
      <trkpt lat="47.49391" lon="6.74111">
        <ele>341.3</ele>
        <time>2014-10-31T13:16:29.000Z</time>
      </trkpt>
      <trkpt lat="47.49393" lon="6.74106">
        <ele>341</ele>
        <time>2014-10-31T13:16:30.000Z</time>
      </trkpt>
      <trkpt lat="47.49395" lon="6.74101">
        <ele>343.2</ele>
        <time>2014-10-31T13:16:31.000Z</time>
      </trkpt>
      <trkpt lat="47.49396" lon="6.74095">
        <ele>342.6</ele>
        <time>2014-10-31T13:16:32.000Z</time>
      </trkpt>
      <trkpt lat="47.49398" lon="6.74089">
        <ele>341.9</ele>
        <time>2014-10-31T13:16:33.000Z</time>
      </trkpt>
      <trkpt lat="47.494" lon="6.74082">
        <ele>341.4</ele>
        <time>2014-10-31T13:16:34.000Z</time>
      </trkpt>
      <trkpt lat="47.49401" lon="6.74075">
        <ele>341.4</ele>
        <time>2014-10-31T13:16:35.000Z</time>
      </trkpt>
      <trkpt lat="47.49402" lon="6.74067">
        <ele>341.9</ele>
        <time>2014-10-31T13:16:36.000Z</time>
      </trkpt>
      <trkpt lat="47.49404" lon="6.74052">
        <ele>342.2</ele>
        <time>2014-10-31T13:16:37.000Z</time>
      </trkpt>
      <trkpt lat="47.49408" lon="6.74043">
        <ele>343.1</ele>
        <time>2014-10-31T13:16:38.000Z</time>
      </trkpt>
      <trkpt lat="47.49412" lon="6.74035">
        <ele>342.6</ele>
        <time>2014-10-31T13:16:39.000Z</time>
      </trkpt>
      <trkpt lat="47.49415" lon="6.74022">
        <ele>341.9</ele>
        <time>2014-10-31T13:16:40.000Z</time>
      </trkpt>
      <trkpt lat="47.49417" lon="6.74013">
        <ele>342.3</ele>
        <time>2014-10-31T13:16:41.000Z</time>
      </trkpt>
      <trkpt lat="47.49418" lon="6.74005">
        <ele>342.8</ele>
        <time>2014-10-31T13:16:42.000Z</time>
      </trkpt>
      <trkpt lat="47.4942" lon="6.73998">
        <ele>342.9</ele>
        <time>2014-10-31T13:16:43.000Z</time>
      </trkpt>
      <trkpt lat="47.49421" lon="6.73989">
        <ele>343.4</ele>
        <time>2014-10-31T13:16:44.000Z</time>
      </trkpt>
      <trkpt lat="47.49421" lon="6.73982">
        <ele>342.1</ele>
        <time>2014-10-31T13:16:45.000Z</time>
      </trkpt>
      <trkpt lat="47.49422" lon="6.73974">
        <ele>341.1</ele>
        <time>2014-10-31T13:16:46.000Z</time>
      </trkpt>
      <trkpt lat="47.49425" lon="6.73968">
        <ele>342.5</ele>
        <time>2014-10-31T13:16:47.000Z</time>
      </trkpt>
      <trkpt lat="47.49426" lon="6.73962">
        <ele>340.9</ele>
        <time>2014-10-31T13:16:48.000Z</time>
      </trkpt>
      <trkpt lat="47.49427" lon="6.73957">
        <ele>341.5</ele>
        <time>2014-10-31T13:16:49.000Z</time>
      </trkpt>
      <trkpt lat="47.49429" lon="6.73954">
        <ele>342.9</ele>
        <time>2014-10-31T13:16:50.000Z</time>
      </trkpt>
      <trkpt lat="47.49429" lon="6.7395">
        <ele>343.1</ele>
        <time>2014-10-31T13:16:51.000Z</time>
      </trkpt>
      <trkpt lat="47.4943" lon="6.73943">
        <ele>345.1</ele>
        <time>2014-10-31T13:16:52.000Z</time>
      </trkpt>
      <trkpt lat="47.49422" lon="6.73901">
        <ele>342.4</ele>
        <time>2014-10-31T13:17:00.000Z</time>
      </trkpt>
      <trkpt lat="47.49421" lon="6.73896">
        <ele>342.3</ele>
        <time>2014-10-31T13:17:01.000Z</time>
      </trkpt>
      <trkpt lat="47.4942" lon="6.73889">
        <ele>346</ele>
        <time>2014-10-31T13:17:02.000Z</time>
      </trkpt>
      <trkpt lat="47.49419" lon="6.73883">
        <ele>345.4</ele>
        <time>2014-10-31T13:17:03.000Z</time>
      </trkpt>
      <trkpt lat="47.49418" lon="6.73876">
        <ele>345.9</ele>
        <time>2014-10-31T13:17:04.000Z</time>
      </trkpt>
      <trkpt lat="47.49417" lon="6.7387">
        <ele>347.4</ele>
        <time>2014-10-31T13:17:05.000Z</time>
      </trkpt>
      <trkpt lat="47.49417" lon="6.73864">
        <ele>346</ele>
        <time>2014-10-31T13:17:06.000Z</time>
      </trkpt>
      <trkpt lat="47.49417" lon="6.73859">
        <ele>346.2</ele>
        <time>2014-10-31T13:17:07.000Z</time>
      </trkpt>
      <trkpt lat="47.49417" lon="6.73852">
        <ele>344.4</ele>
        <time>2014-10-31T13:17:08.000Z</time>
      </trkpt>
      <trkpt lat="47.49418" lon="6.73846">
        <ele>345.5</ele>
        <time>2014-10-31T13:17:09.000Z</time>
      </trkpt>
      <trkpt lat="47.49419" lon="6.73841">
        <ele>344.9</ele>
        <time>2014-10-31T13:17:10.000Z</time>
      </trkpt>
      <trkpt lat="47.4942" lon="6.73836">
        <ele>344.9</ele>
        <time>2014-10-31T13:17:11.000Z</time>
      </trkpt>
      <trkpt lat="47.4942" lon="6.73831">
        <ele>345.5</ele>
        <time>2014-10-31T13:17:12.000Z</time>
      </trkpt>
      <trkpt lat="47.4942" lon="6.73827">
        <ele>346.1</ele>
        <time>2014-10-31T13:17:13.000Z</time>
      </trkpt>
      <trkpt lat="47.4942" lon="6.73823">
        <ele>347.2</ele>
        <time>2014-10-31T13:17:14.000Z</time>
      </trkpt>
      <trkpt lat="47.4942" lon="6.73819">
        <ele>347.4</ele>
        <time>2014-10-31T13:17:15.000Z</time>
      </trkpt>
      <trkpt lat="47.4942" lon="6.73816">
        <ele>347.7</ele>
        <time>2014-10-31T13:17:16.000Z</time>
      </trkpt>
      <trkpt lat="47.4942" lon="6.73811">
        <ele>349</ele>
        <time>2014-10-31T13:17:17.000Z</time>
      </trkpt>
      <trkpt lat="47.49421" lon="6.73806">
        <ele>345.1</ele>
        <time>2014-10-31T13:17:18.000Z</time>
      </trkpt>
      <trkpt lat="47.49423" lon="6.738">
        <ele>345.1</ele>
        <time>2014-10-31T13:17:19.000Z</time>
      </trkpt>
      <trkpt lat="47.49424" lon="6.73794">
        <ele>344.6</ele>
        <time>2014-10-31T13:17:20.000Z</time>
      </trkpt>
      <trkpt lat="47.49427" lon="6.73788">
        <ele>343.2</ele>
        <time>2014-10-31T13:17:21.000Z</time>
      </trkpt>
      <trkpt lat="47.49429" lon="6.73782">
        <ele>343.6</ele>
        <time>2014-10-31T13:17:22.000Z</time>
      </trkpt>
      <trkpt lat="47.49431" lon="6.73776">
        <ele>343.4</ele>
        <time>2014-10-31T13:17:23.000Z</time>
      </trkpt>
      <trkpt lat="47.49434" lon="6.7377">
        <ele>341</ele>
        <time>2014-10-31T13:17:24.000Z</time>
      </trkpt>
      <trkpt lat="47.49436" lon="6.73765">
        <ele>341.2</ele>
        <time>2014-10-31T13:17:25.000Z</time>
      </trkpt>
      <trkpt lat="47.49439" lon="6.7376">
        <ele>340.9</ele>
        <time>2014-10-31T13:17:26.000Z</time>
      </trkpt>
      <trkpt lat="47.49442" lon="6.73754">
        <ele>341.4</ele>
        <time>2014-10-31T13:17:27.000Z</time>
      </trkpt>
      <trkpt lat="47.49445" lon="6.73749">
        <ele>342.3</ele>
        <time>2014-10-31T13:17:28.000Z</time>
      </trkpt>
      <trkpt lat="47.49448" lon="6.73744">
        <ele>342.2</ele>
        <time>2014-10-31T13:17:29.000Z</time>
      </trkpt>
      <trkpt lat="47.49455" lon="6.73739">
        <ele>343.6</ele>
        <time>2014-10-31T13:17:30.000Z</time>
      </trkpt>
      <trkpt lat="47.49458" lon="6.73733">
        <ele>343.6</ele>
        <time>2014-10-31T13:17:31.000Z</time>
      </trkpt>
      <trkpt lat="47.49461" lon="6.73727">
        <ele>344</ele>
        <time>2014-10-31T13:17:32.000Z</time>
      </trkpt>
      <trkpt lat="47.49464" lon="6.73722">
        <ele>343.8</ele>
        <time>2014-10-31T13:17:33.000Z</time>
      </trkpt>
      <trkpt lat="47.49468" lon="6.73717">
        <ele>343.6</ele>
        <time>2014-10-31T13:17:34.000Z</time>
      </trkpt>
      <trkpt lat="47.49469" lon="6.73712">
        <ele>345.6</ele>
        <time>2014-10-31T13:17:35.000Z</time>
      </trkpt>
      <trkpt lat="47.49472" lon="6.73708">
        <ele>343.9</ele>
        <time>2014-10-31T13:17:36.000Z</time>
      </trkpt>
      <trkpt lat="47.49473" lon="6.73704">
        <ele>342.8</ele>
        <time>2014-10-31T13:17:37.000Z</time>
      </trkpt>
      <trkpt lat="47.49476" lon="6.73699">
        <ele>341.7</ele>
        <time>2014-10-31T13:17:38.000Z</time>
      </trkpt>
      <trkpt lat="47.49478" lon="6.73694">
        <ele>341.1</ele>
        <time>2014-10-31T13:17:39.000Z</time>
      </trkpt>
      <trkpt lat="47.4948" lon="6.73688">
        <ele>340.3</ele>
        <time>2014-10-31T13:17:40.000Z</time>
      </trkpt>
      <trkpt lat="47.49481" lon="6.73683">
        <ele>340</ele>
        <time>2014-10-31T13:17:41.000Z</time>
      </trkpt>
      <trkpt lat="47.49483" lon="6.73678">
        <ele>339.3</ele>
        <time>2014-10-31T13:17:42.000Z</time>
      </trkpt>
      <trkpt lat="47.49485" lon="6.73673">
        <ele>338.7</ele>
        <time>2014-10-31T13:17:43.000Z</time>
      </trkpt>
      <trkpt lat="47.49487" lon="6.73667">
        <ele>337.5</ele>
        <time>2014-10-31T13:17:44.000Z</time>
      </trkpt>
      <trkpt lat="47.49489" lon="6.73661">
        <ele>337.2</ele>
        <time>2014-10-31T13:17:45.000Z</time>
      </trkpt>
      <trkpt lat="47.49491" lon="6.73656">
        <ele>337.1</ele>
        <time>2014-10-31T13:17:46.000Z</time>
      </trkpt>
      <trkpt lat="47.49493" lon="6.73651">
        <ele>336.5</ele>
        <time>2014-10-31T13:17:47.000Z</time>
      </trkpt>
      <trkpt lat="47.49496" lon="6.73647">
        <ele>336.5</ele>
        <time>2014-10-31T13:17:48.000Z</time>
      </trkpt>
      <trkpt lat="47.49498" lon="6.73642">
        <ele>336.8</ele>
        <time>2014-10-31T13:17:49.000Z</time>
      </trkpt>
      <trkpt lat="47.49501" lon="6.73636">
        <ele>336.7</ele>
        <time>2014-10-31T13:17:50.000Z</time>
      </trkpt>
      <trkpt lat="47.49503" lon="6.7363">
        <ele>336.3</ele>
        <time>2014-10-31T13:17:51.000Z</time>
      </trkpt>
      <trkpt lat="47.49513" lon="6.73617">
        <ele>336.2</ele>
        <time>2014-10-31T13:17:54.000Z</time>
      </trkpt>
      <trkpt lat="47.49517" lon="6.73611">
        <ele>336.6</ele>
        <time>2014-10-31T13:17:55.000Z</time>
      </trkpt>
      <trkpt lat="47.4952" lon="6.73606">
        <ele>336.5</ele>
        <time>2014-10-31T13:17:56.000Z</time>
      </trkpt>
      <trkpt lat="47.49524" lon="6.73601">
        <ele>336.8</ele>
        <time>2014-10-31T13:17:57.000Z</time>
      </trkpt>
      <trkpt lat="47.49527" lon="6.73596">
        <ele>337.9</ele>
        <time>2014-10-31T13:17:58.000Z</time>
      </trkpt>
      <trkpt lat="47.49531" lon="6.73592">
        <ele>338.2</ele>
        <time>2014-10-31T13:17:59.000Z</time>
      </trkpt>
      <trkpt lat="47.49534" lon="6.73587">
        <ele>338.7</ele>
        <time>2014-10-31T13:18:00.000Z</time>
      </trkpt>
      <trkpt lat="47.49537" lon="6.73584">
        <ele>338.5</ele>
        <time>2014-10-31T13:18:01.000Z</time>
      </trkpt>
      <trkpt lat="47.49541" lon="6.7358">
        <ele>338.2</ele>
        <time>2014-10-31T13:18:02.000Z</time>
      </trkpt>
      <trkpt lat="47.49546" lon="6.73576">
        <ele>337.6</ele>
        <time>2014-10-31T13:18:03.000Z</time>
      </trkpt>
      <trkpt lat="47.49549" lon="6.73571">
        <ele>337.6</ele>
        <time>2014-10-31T13:18:04.000Z</time>
      </trkpt>
      <trkpt lat="47.49553" lon="6.73567">
        <ele>337.2</ele>
        <time>2014-10-31T13:18:05.000Z</time>
      </trkpt>
      <trkpt lat="47.49556" lon="6.73563">
        <ele>337.1</ele>
        <time>2014-10-31T13:18:06.000Z</time>
      </trkpt>
      <trkpt lat="47.49561" lon="6.7356">
        <ele>336.5</ele>
        <time>2014-10-31T13:18:07.000Z</time>
      </trkpt>
      <trkpt lat="47.49564" lon="6.73557">
        <ele>336.4</ele>
        <time>2014-10-31T13:18:08.000Z</time>
      </trkpt>
      <trkpt lat="47.49568" lon="6.73553">
        <ele>336.5</ele>
        <time>2014-10-31T13:18:09.000Z</time>
      </trkpt>
      <trkpt lat="47.49573" lon="6.7355">
        <ele>336.2</ele>
        <time>2014-10-31T13:18:10.000Z</time>
      </trkpt>
      <trkpt lat="47.49577" lon="6.73547">
        <ele>335.9</ele>
        <time>2014-10-31T13:18:11.000Z</time>
      </trkpt>
      <trkpt lat="47.49581" lon="6.73543">
        <ele>335.7</ele>
        <time>2014-10-31T13:18:12.000Z</time>
      </trkpt>
      <trkpt lat="47.49585" lon="6.7354">
        <ele>335.9</ele>
        <time>2014-10-31T13:18:13.000Z</time>
      </trkpt>
      <trkpt lat="47.49588" lon="6.73537">
        <ele>335.5</ele>
        <time>2014-10-31T13:18:14.000Z</time>
      </trkpt>
      <trkpt lat="47.49592" lon="6.73533">
        <ele>335.4</ele>
        <time>2014-10-31T13:18:15.000Z</time>
      </trkpt>
      <trkpt lat="47.49596" lon="6.7353">
        <ele>335.7</ele>
        <time>2014-10-31T13:18:16.000Z</time>
      </trkpt>
      <trkpt lat="47.49599" lon="6.73525">
        <ele>335.9</ele>
        <time>2014-10-31T13:18:17.000Z</time>
      </trkpt>
      <trkpt lat="47.49603" lon="6.73522">
        <ele>335.6</ele>
        <time>2014-10-31T13:18:18.000Z</time>
      </trkpt>
      <trkpt lat="47.49606" lon="6.73518">
        <ele>335.9</ele>
        <time>2014-10-31T13:18:19.000Z</time>
      </trkpt>
      <trkpt lat="47.4961" lon="6.73514">
        <ele>336.1</ele>
        <time>2014-10-31T13:18:20.000Z</time>
      </trkpt>
      <trkpt lat="47.49614" lon="6.7351">
        <ele>336.3</ele>
        <time>2014-10-31T13:18:21.000Z</time>
      </trkpt>
      <trkpt lat="47.49617" lon="6.73506">
        <ele>336.9</ele>
        <time>2014-10-31T13:18:22.000Z</time>
      </trkpt>
      <trkpt lat="47.4962" lon="6.73502">
        <ele>337.1</ele>
        <time>2014-10-31T13:18:23.000Z</time>
      </trkpt>
      <trkpt lat="47.49624" lon="6.73498">
        <ele>337.5</ele>
        <time>2014-10-31T13:18:24.000Z</time>
      </trkpt>
      <trkpt lat="47.49627" lon="6.73494">
        <ele>337.8</ele>
        <time>2014-10-31T13:18:25.000Z</time>
      </trkpt>
      <trkpt lat="47.4963" lon="6.73489">
        <ele>337.6</ele>
        <time>2014-10-31T13:18:26.000Z</time>
      </trkpt>
      <trkpt lat="47.49634" lon="6.73485">
        <ele>338.2</ele>
        <time>2014-10-31T13:18:27.000Z</time>
      </trkpt>
      <trkpt lat="47.49637" lon="6.7348">
        <ele>338</ele>
        <time>2014-10-31T13:18:28.000Z</time>
      </trkpt>
      <trkpt lat="47.4964" lon="6.73476">
        <ele>337.7</ele>
        <time>2014-10-31T13:18:29.000Z</time>
      </trkpt>
      <trkpt lat="47.49643" lon="6.73471">
        <ele>337.5</ele>
        <time>2014-10-31T13:18:30.000Z</time>
      </trkpt>
      <trkpt lat="47.49646" lon="6.73467">
        <ele>337.8</ele>
        <time>2014-10-31T13:18:31.000Z</time>
      </trkpt>
      <trkpt lat="47.4965" lon="6.73462">
        <ele>338.3</ele>
        <time>2014-10-31T13:18:32.000Z</time>
      </trkpt>
      <trkpt lat="47.49654" lon="6.73458">
        <ele>337.4</ele>
        <time>2014-10-31T13:18:33.000Z</time>
      </trkpt>
      <trkpt lat="47.49657" lon="6.73454">
        <ele>337.5</ele>
        <time>2014-10-31T13:18:34.000Z</time>
      </trkpt>
      <trkpt lat="47.4966" lon="6.7345">
        <ele>337.3</ele>
        <time>2014-10-31T13:18:35.000Z</time>
      </trkpt>
      <trkpt lat="47.49664" lon="6.73446">
        <ele>337.7</ele>
        <time>2014-10-31T13:18:36.000Z</time>
      </trkpt>
      <trkpt lat="47.49667" lon="6.73441">
        <ele>337.8</ele>
        <time>2014-10-31T13:18:37.000Z</time>
      </trkpt>
      <trkpt lat="47.4967" lon="6.73437">
        <ele>337.8</ele>
        <time>2014-10-31T13:18:38.000Z</time>
      </trkpt>
      <trkpt lat="47.49673" lon="6.73432">
        <ele>337.6</ele>
        <time>2014-10-31T13:18:39.000Z</time>
      </trkpt>
      <trkpt lat="47.49676" lon="6.73427">
        <ele>337.4</ele>
        <time>2014-10-31T13:18:40.000Z</time>
      </trkpt>
      <trkpt lat="47.49679" lon="6.73423">
        <ele>336.9</ele>
        <time>2014-10-31T13:18:41.000Z</time>
      </trkpt>
      <trkpt lat="47.49683" lon="6.73418">
        <ele>336.4</ele>
        <time>2014-10-31T13:18:42.000Z</time>
      </trkpt>
      <trkpt lat="47.49686" lon="6.73414">
        <ele>336.5</ele>
        <time>2014-10-31T13:18:43.000Z</time>
      </trkpt>
      <trkpt lat="47.49689" lon="6.73409">
        <ele>336.5</ele>
        <time>2014-10-31T13:18:44.000Z</time>
      </trkpt>
      <trkpt lat="47.49692" lon="6.73405">
        <ele>336.5</ele>
        <time>2014-10-31T13:18:45.000Z</time>
      </trkpt>
      <trkpt lat="47.49695" lon="6.73401">
        <ele>336.5</ele>
        <time>2014-10-31T13:18:46.000Z</time>
      </trkpt>
      <trkpt lat="47.49698" lon="6.73397">
        <ele>337</ele>
        <time>2014-10-31T13:18:47.000Z</time>
      </trkpt>
      <trkpt lat="47.49701" lon="6.73392">
        <ele>337</ele>
        <time>2014-10-31T13:18:48.000Z</time>
      </trkpt>
      <trkpt lat="47.49704" lon="6.73388">
        <ele>337.5</ele>
        <time>2014-10-31T13:18:49.000Z</time>
      </trkpt>
      <trkpt lat="47.49707" lon="6.73385">
        <ele>337.2</ele>
        <time>2014-10-31T13:18:50.000Z</time>
      </trkpt>
      <trkpt lat="47.4971" lon="6.73381">
        <ele>337.1</ele>
        <time>2014-10-31T13:18:51.000Z</time>
      </trkpt>
      <trkpt lat="47.49713" lon="6.73377">
        <ele>336.6</ele>
        <time>2014-10-31T13:18:52.000Z</time>
      </trkpt>
      <trkpt lat="47.49739" lon="6.73338">
        <ele>338.3</ele>
        <time>2014-10-31T13:19:00.000Z</time>
      </trkpt>
      <trkpt lat="47.49743" lon="6.73333">
        <ele>338.6</ele>
        <time>2014-10-31T13:19:01.000Z</time>
      </trkpt>
      <trkpt lat="47.49746" lon="6.73329">
        <ele>339.9</ele>
        <time>2014-10-31T13:19:02.000Z</time>
      </trkpt>
      <trkpt lat="47.49749" lon="6.73324">
        <ele>340.3</ele>
        <time>2014-10-31T13:19:03.000Z</time>
      </trkpt>
      <trkpt lat="47.49752" lon="6.7332">
        <ele>339.6</ele>
        <time>2014-10-31T13:19:04.000Z</time>
      </trkpt>
      <trkpt lat="47.49756" lon="6.73314">
        <ele>339.6</ele>
        <time>2014-10-31T13:19:05.000Z</time>
      </trkpt>
      <trkpt lat="47.49759" lon="6.7331">
        <ele>339.6</ele>
        <time>2014-10-31T13:19:06.000Z</time>
      </trkpt>
      <trkpt lat="47.49763" lon="6.73304">
        <ele>339.7</ele>
        <time>2014-10-31T13:19:07.000Z</time>
      </trkpt>
      <trkpt lat="47.49766" lon="6.73297">
        <ele>339.6</ele>
        <time>2014-10-31T13:19:08.000Z</time>
      </trkpt>
      <trkpt lat="47.49769" lon="6.73292">
        <ele>339.6</ele>
        <time>2014-10-31T13:19:09.000Z</time>
      </trkpt>
      <trkpt lat="47.49771" lon="6.73286">
        <ele>339.9</ele>
        <time>2014-10-31T13:19:10.000Z</time>
      </trkpt>
      <trkpt lat="47.49775" lon="6.73281">
        <ele>340.9</ele>
        <time>2014-10-31T13:19:11.000Z</time>
      </trkpt>
      <trkpt lat="47.49778" lon="6.73275">
        <ele>340.6</ele>
        <time>2014-10-31T13:19:12.000Z</time>
      </trkpt>
      <trkpt lat="47.49781" lon="6.7327">
        <ele>340.1</ele>
        <time>2014-10-31T13:19:13.000Z</time>
      </trkpt>
      <trkpt lat="47.49783" lon="6.73263">
        <ele>340.4</ele>
        <time>2014-10-31T13:19:14.000Z</time>
      </trkpt>
      <trkpt lat="47.49786" lon="6.73257">
        <ele>340.7</ele>
        <time>2014-10-31T13:19:15.000Z</time>
      </trkpt>
      <trkpt lat="47.49788" lon="6.73252">
        <ele>340.9</ele>
        <time>2014-10-31T13:19:16.000Z</time>
      </trkpt>
      <trkpt lat="47.4979" lon="6.73246">
        <ele>340.7</ele>
        <time>2014-10-31T13:19:17.000Z</time>
      </trkpt>
      <trkpt lat="47.49793" lon="6.73241">
        <ele>340.3</ele>
        <time>2014-10-31T13:19:18.000Z</time>
      </trkpt>
      <trkpt lat="47.49796" lon="6.73236">
        <ele>339.7</ele>
        <time>2014-10-31T13:19:19.000Z</time>
      </trkpt>
      <trkpt lat="47.49798" lon="6.7323">
        <ele>340.6</ele>
        <time>2014-10-31T13:19:20.000Z</time>
      </trkpt>
      <trkpt lat="47.498" lon="6.73225">
        <ele>340.5</ele>
        <time>2014-10-31T13:19:21.000Z</time>
      </trkpt>
      <trkpt lat="47.49803" lon="6.73219">
        <ele>340.3</ele>
        <time>2014-10-31T13:19:22.000Z</time>
      </trkpt>
      <trkpt lat="47.49805" lon="6.73212">
        <ele>339.8</ele>
        <time>2014-10-31T13:19:23.000Z</time>
      </trkpt>
      <trkpt lat="47.49807" lon="6.73205">
        <ele>340.5</ele>
        <time>2014-10-31T13:19:24.000Z</time>
      </trkpt>
      <trkpt lat="47.49809" lon="6.73199">
        <ele>340.3</ele>
        <time>2014-10-31T13:19:25.000Z</time>
      </trkpt>
      <trkpt lat="47.49811" lon="6.73193">
        <ele>340.7</ele>
        <time>2014-10-31T13:19:26.000Z</time>
      </trkpt>
      <trkpt lat="47.49813" lon="6.73186">
        <ele>340.8</ele>
        <time>2014-10-31T13:19:27.000Z</time>
      </trkpt>
      <trkpt lat="47.49814" lon="6.7318">
        <ele>341</ele>
        <time>2014-10-31T13:19:28.000Z</time>
      </trkpt>
      <trkpt lat="47.49816" lon="6.73173">
        <ele>340.3</ele>
        <time>2014-10-31T13:19:29.000Z</time>
      </trkpt>
      <trkpt lat="47.49818" lon="6.73168">
        <ele>340.6</ele>
        <time>2014-10-31T13:19:30.000Z</time>
      </trkpt>
      <trkpt lat="47.4982" lon="6.73163">
        <ele>340.8</ele>
        <time>2014-10-31T13:19:31.000Z</time>
      </trkpt>
      <trkpt lat="47.49822" lon="6.73157">
        <ele>340.9</ele>
        <time>2014-10-31T13:19:32.000Z</time>
      </trkpt>
      <trkpt lat="47.49823" lon="6.73151">
        <ele>341.3</ele>
        <time>2014-10-31T13:19:33.000Z</time>
      </trkpt>
      <trkpt lat="47.49824" lon="6.73147">
        <ele>341.1</ele>
        <time>2014-10-31T13:19:34.000Z</time>
      </trkpt>
      <trkpt lat="47.49825" lon="6.73142">
        <ele>341.5</ele>
        <time>2014-10-31T13:19:35.000Z</time>
      </trkpt>
      <trkpt lat="47.49826" lon="6.73135">
        <ele>342.3</ele>
        <time>2014-10-31T13:19:36.000Z</time>
      </trkpt>
      <trkpt lat="47.49828" lon="6.7313">
        <ele>342.8</ele>
        <time>2014-10-31T13:19:37.000Z</time>
      </trkpt>
      <trkpt lat="47.49829" lon="6.73125">
        <ele>342.8</ele>
        <time>2014-10-31T13:19:38.000Z</time>
      </trkpt>
      <trkpt lat="47.4983" lon="6.7312">
        <ele>343</ele>
        <time>2014-10-31T13:19:39.000Z</time>
      </trkpt>
      <trkpt lat="47.49832" lon="6.73114">
        <ele>343.4</ele>
        <time>2014-10-31T13:19:40.000Z</time>
      </trkpt>
      <trkpt lat="47.49833" lon="6.73109">
        <ele>343.7</ele>
        <time>2014-10-31T13:19:41.000Z</time>
      </trkpt>
      <trkpt lat="47.49834" lon="6.73104">
        <ele>343.9</ele>
        <time>2014-10-31T13:19:42.000Z</time>
      </trkpt>
      <trkpt lat="47.49836" lon="6.73099">
        <ele>343.8</ele>
        <time>2014-10-31T13:19:43.000Z</time>
      </trkpt>
      <trkpt lat="47.49837" lon="6.73093">
        <ele>343.8</ele>
        <time>2014-10-31T13:19:44.000Z</time>
      </trkpt>
      <trkpt lat="47.49838" lon="6.73088">
        <ele>343.9</ele>
        <time>2014-10-31T13:19:45.000Z</time>
      </trkpt>
      <trkpt lat="47.4984" lon="6.73084">
        <ele>344</ele>
        <time>2014-10-31T13:19:46.000Z</time>
      </trkpt>
      <trkpt lat="47.49841" lon="6.73078">
        <ele>344.7</ele>
        <time>2014-10-31T13:19:47.000Z</time>
      </trkpt>
      <trkpt lat="47.49843" lon="6.73073">
        <ele>345</ele>
        <time>2014-10-31T13:19:48.000Z</time>
      </trkpt>
      <trkpt lat="47.49845" lon="6.73067">
        <ele>344.6</ele>
        <time>2014-10-31T13:19:49.000Z</time>
      </trkpt>
      <trkpt lat="47.49847" lon="6.73061">
        <ele>344.8</ele>
        <time>2014-10-31T13:19:50.000Z</time>
      </trkpt>
      <trkpt lat="47.49849" lon="6.73055">
        <ele>345.3</ele>
        <time>2014-10-31T13:19:51.000Z</time>
      </trkpt>
      <trkpt lat="47.49851" lon="6.7305">
        <ele>347.7</ele>
        <time>2014-10-31T13:19:52.000Z</time>
      </trkpt>
      <trkpt lat="47.49857" lon="6.73034">
        <ele>348.9</ele>
        <time>2014-10-31T13:19:55.000Z</time>
      </trkpt>
      <trkpt lat="47.49859" lon="6.73028">
        <ele>348.2</ele>
        <time>2014-10-31T13:19:56.000Z</time>
      </trkpt>
      <trkpt lat="47.49861" lon="6.73023">
        <ele>346.8</ele>
        <time>2014-10-31T13:19:57.000Z</time>
      </trkpt>
      <trkpt lat="47.49863" lon="6.73017">
        <ele>346.3</ele>
        <time>2014-10-31T13:19:58.000Z</time>
      </trkpt>
      <trkpt lat="47.49865" lon="6.73012">
        <ele>345.5</ele>
        <time>2014-10-31T13:19:59.000Z</time>
      </trkpt>
      <trkpt lat="47.49867" lon="6.73005">
        <ele>345.3</ele>
        <time>2014-10-31T13:20:00.000Z</time>
      </trkpt>
      <trkpt lat="47.49869" lon="6.72999">
        <ele>345.7</ele>
        <time>2014-10-31T13:20:01.000Z</time>
      </trkpt>
      <trkpt lat="47.49872" lon="6.72994">
        <ele>346</ele>
        <time>2014-10-31T13:20:02.000Z</time>
      </trkpt>
      <trkpt lat="47.49874" lon="6.72988">
        <ele>346.3</ele>
        <time>2014-10-31T13:20:03.000Z</time>
      </trkpt>
      <trkpt lat="47.49876" lon="6.72982">
        <ele>346.1</ele>
        <time>2014-10-31T13:20:04.000Z</time>
      </trkpt>
      <trkpt lat="47.49878" lon="6.72975">
        <ele>346.9</ele>
        <time>2014-10-31T13:20:05.000Z</time>
      </trkpt>
      <trkpt lat="47.4988" lon="6.72969">
        <ele>347.5</ele>
        <time>2014-10-31T13:20:06.000Z</time>
      </trkpt>
      <trkpt lat="47.49883" lon="6.72962">
        <ele>347.3</ele>
        <time>2014-10-31T13:20:07.000Z</time>
      </trkpt>
      <trkpt lat="47.49885" lon="6.72955">
        <ele>346.2</ele>
        <time>2014-10-31T13:20:08.000Z</time>
      </trkpt>
      <trkpt lat="47.49887" lon="6.72949">
        <ele>345.9</ele>
        <time>2014-10-31T13:20:09.000Z</time>
      </trkpt>
      <trkpt lat="47.49889" lon="6.72945">
        <ele>345.4</ele>
        <time>2014-10-31T13:20:10.000Z</time>
      </trkpt>
      <trkpt lat="47.49892" lon="6.72943">
        <ele>344.9</ele>
        <time>2014-10-31T13:20:11.000Z</time>
      </trkpt>
      <trkpt lat="47.49896" lon="6.72944">
        <ele>344.3</ele>
        <time>2014-10-31T13:20:12.000Z</time>
      </trkpt>
      <trkpt lat="47.499" lon="6.72945">
        <ele>344.8</ele>
        <time>2014-10-31T13:20:13.000Z</time>
      </trkpt>
      <trkpt lat="47.49904" lon="6.72948">
        <ele>343.6</ele>
        <time>2014-10-31T13:20:14.000Z</time>
      </trkpt>
      <trkpt lat="47.49909" lon="6.72952">
        <ele>342.2</ele>
        <time>2014-10-31T13:20:15.000Z</time>
      </trkpt>
      <trkpt lat="47.49913" lon="6.72952">
        <ele>342.7</ele>
        <time>2014-10-31T13:20:16.000Z</time>
      </trkpt>
      <trkpt lat="47.49918" lon="6.72953">
        <ele>342.7</ele>
        <time>2014-10-31T13:20:17.000Z</time>
      </trkpt>
      <trkpt lat="47.49922" lon="6.72954">
        <ele>343.2</ele>
        <time>2014-10-31T13:20:18.000Z</time>
      </trkpt>
      <trkpt lat="47.49928" lon="6.72957">
        <ele>341.8</ele>
        <time>2014-10-31T13:20:19.000Z</time>
      </trkpt>
      <trkpt lat="47.49933" lon="6.72962">
        <ele>341.5</ele>
        <time>2014-10-31T13:20:20.000Z</time>
      </trkpt>
      <trkpt lat="47.49938" lon="6.72964">
        <ele>340.7</ele>
        <time>2014-10-31T13:20:21.000Z</time>
      </trkpt>
      <trkpt lat="47.49944" lon="6.72967">
        <ele>340.2</ele>
        <time>2014-10-31T13:20:22.000Z</time>
      </trkpt>
      <trkpt lat="47.4995" lon="6.72969">
        <ele>340.3</ele>
        <time>2014-10-31T13:20:23.000Z</time>
      </trkpt>
      <trkpt lat="47.49955" lon="6.7297">
        <ele>340.4</ele>
        <time>2014-10-31T13:20:24.000Z</time>
      </trkpt>
      <trkpt lat="47.4996" lon="6.72969">
        <ele>340.2</ele>
        <time>2014-10-31T13:20:25.000Z</time>
      </trkpt>
      <trkpt lat="47.49963" lon="6.72969">
        <ele>342.1</ele>
        <time>2014-10-31T13:20:26.000Z</time>
      </trkpt>
      <trkpt lat="47.49967" lon="6.72969">
        <ele>342.9</ele>
        <time>2014-10-31T13:20:27.000Z</time>
      </trkpt>
      <trkpt lat="47.49971" lon="6.7297">
        <ele>342.7</ele>
        <time>2014-10-31T13:20:28.000Z</time>
      </trkpt>
      <trkpt lat="47.49975" lon="6.72971">
        <ele>342.5</ele>
        <time>2014-10-31T13:20:29.000Z</time>
      </trkpt>
      <trkpt lat="47.49979" lon="6.72972">
        <ele>342.7</ele>
        <time>2014-10-31T13:20:30.000Z</time>
      </trkpt>
      <trkpt lat="47.49983" lon="6.72969">
        <ele>343</ele>
        <time>2014-10-31T13:20:34.000Z</time>
      </trkpt>
      <trkpt lat="47.49984" lon="6.72969">
        <ele>342.8</ele>
        <time>2014-10-31T13:20:35.000Z</time>
      </trkpt>
      <trkpt lat="47.49985" lon="6.72975">
        <ele>336.8</ele>
        <time>2014-10-31T13:21:09.000Z</time>
      </trkpt>
      <trkpt lat="47.49985" lon="6.72978">
        <ele>337</ele>
        <time>2014-10-31T13:21:10.000Z</time>
      </trkpt>
      <trkpt lat="47.49985" lon="6.72982">
        <ele>337.4</ele>
        <time>2014-10-31T13:21:11.000Z</time>
      </trkpt>
      <trkpt lat="47.49985" lon="6.72986">
        <ele>337.5</ele>
        <time>2014-10-31T13:21:12.000Z</time>
      </trkpt>
      <trkpt lat="47.49986" lon="6.72991">
        <ele>337.9</ele>
        <time>2014-10-31T13:21:13.000Z</time>
      </trkpt>
      <trkpt lat="47.49987" lon="6.72995">
        <ele>337.4</ele>
        <time>2014-10-31T13:21:14.000Z</time>
      </trkpt>
      <trkpt lat="47.49988" lon="6.73">
        <ele>338.4</ele>
        <time>2014-10-31T13:21:15.000Z</time>
      </trkpt>
      <trkpt lat="47.49989" lon="6.73004">
        <ele>338.1</ele>
        <time>2014-10-31T13:21:16.000Z</time>
      </trkpt>
      <trkpt lat="47.49992" lon="6.73009">
        <ele>337.7</ele>
        <time>2014-10-31T13:21:17.000Z</time>
      </trkpt>
      <trkpt lat="47.49994" lon="6.73014">
        <ele>338.3</ele>
        <time>2014-10-31T13:21:18.000Z</time>
      </trkpt>
      <trkpt lat="47.49997" lon="6.73019">
        <ele>339.3</ele>
        <time>2014-10-31T13:21:19.000Z</time>
      </trkpt>
      <trkpt lat="47.50003" lon="6.73026">
        <ele>339.4</ele>
        <time>2014-10-31T13:21:20.000Z</time>
      </trkpt>
      <trkpt lat="47.50006" lon="6.73031">
        <ele>339.5</ele>
        <time>2014-10-31T13:21:21.000Z</time>
      </trkpt>
      <trkpt lat="47.50011" lon="6.73036">
        <ele>339.1</ele>
        <time>2014-10-31T13:21:22.000Z</time>
      </trkpt>
      <trkpt lat="47.50015" lon="6.73041">
        <ele>339.1</ele>
        <time>2014-10-31T13:21:23.000Z</time>
      </trkpt>
      <trkpt lat="47.5002" lon="6.73045">
        <ele>336.8</ele>
        <time>2014-10-31T13:21:24.000Z</time>
      </trkpt>
      <trkpt lat="47.50024" lon="6.73049">
        <ele>336.7</ele>
        <time>2014-10-31T13:21:25.000Z</time>
      </trkpt>
      <trkpt lat="47.50027" lon="6.73053">
        <ele>336.5</ele>
        <time>2014-10-31T13:21:26.000Z</time>
      </trkpt>
      <trkpt lat="47.50031" lon="6.73056">
        <ele>335.6</ele>
        <time>2014-10-31T13:21:27.000Z</time>
      </trkpt>
      <trkpt lat="47.50035" lon="6.73059">
        <ele>335.5</ele>
        <time>2014-10-31T13:21:28.000Z</time>
      </trkpt>
      <trkpt lat="47.50039" lon="6.73063">
        <ele>335.3</ele>
        <time>2014-10-31T13:21:29.000Z</time>
      </trkpt>
      <trkpt lat="47.50042" lon="6.73067">
        <ele>335</ele>
        <time>2014-10-31T13:21:30.000Z</time>
      </trkpt>
      <trkpt lat="47.50046" lon="6.7307">
        <ele>335.6</ele>
        <time>2014-10-31T13:21:31.000Z</time>
      </trkpt>
      <trkpt lat="47.50049" lon="6.73073">
        <ele>336.6</ele>
        <time>2014-10-31T13:21:32.000Z</time>
      </trkpt>
      <trkpt lat="47.50052" lon="6.73078">
        <ele>336.6</ele>
        <time>2014-10-31T13:21:33.000Z</time>
      </trkpt>
      <trkpt lat="47.50057" lon="6.73082">
        <ele>337.2</ele>
        <time>2014-10-31T13:21:34.000Z</time>
      </trkpt>
      <trkpt lat="47.50061" lon="6.73086">
        <ele>338.5</ele>
        <time>2014-10-31T13:21:35.000Z</time>
      </trkpt>
      <trkpt lat="47.50065" lon="6.7309">
        <ele>338.5</ele>
        <time>2014-10-31T13:21:36.000Z</time>
      </trkpt>
      <trkpt lat="47.50069" lon="6.73094">
        <ele>338.9</ele>
        <time>2014-10-31T13:21:37.000Z</time>
      </trkpt>
      <trkpt lat="47.50073" lon="6.73098">
        <ele>339</ele>
        <time>2014-10-31T13:21:38.000Z</time>
      </trkpt>
      <trkpt lat="47.50076" lon="6.73102">
        <ele>338.3</ele>
        <time>2014-10-31T13:21:39.000Z</time>
      </trkpt>
      <trkpt lat="47.5008" lon="6.73106">
        <ele>338.4</ele>
        <time>2014-10-31T13:21:40.000Z</time>
      </trkpt>
      <trkpt lat="47.50084" lon="6.73111">
        <ele>338</ele>
        <time>2014-10-31T13:21:41.000Z</time>
      </trkpt>
      <trkpt lat="47.50088" lon="6.73114">
        <ele>338</ele>
        <time>2014-10-31T13:21:42.000Z</time>
      </trkpt>
      <trkpt lat="47.50092" lon="6.73117">
        <ele>338.3</ele>
        <time>2014-10-31T13:21:43.000Z</time>
      </trkpt>
      <trkpt lat="47.50097" lon="6.7312">
        <ele>338.2</ele>
        <time>2014-10-31T13:21:44.000Z</time>
      </trkpt>
      <trkpt lat="47.50101" lon="6.73122">
        <ele>338.6</ele>
        <time>2014-10-31T13:21:45.000Z</time>
      </trkpt>
      <trkpt lat="47.50105" lon="6.73123">
        <ele>338.4</ele>
        <time>2014-10-31T13:21:46.000Z</time>
      </trkpt>
      <trkpt lat="47.5011" lon="6.73125">
        <ele>338.1</ele>
        <time>2014-10-31T13:21:47.000Z</time>
      </trkpt>
      <trkpt lat="47.50113" lon="6.73123">
        <ele>340.7</ele>
        <time>2014-10-31T13:21:48.000Z</time>
      </trkpt>
      <trkpt lat="47.50117" lon="6.73122">
        <ele>341.8</ele>
        <time>2014-10-31T13:21:49.000Z</time>
      </trkpt>
      <trkpt lat="47.50122" lon="6.73124">
        <ele>343</ele>
        <time>2014-10-31T13:21:50.000Z</time>
      </trkpt>
      <trkpt lat="47.50125" lon="6.73123">
        <ele>344</ele>
        <time>2014-10-31T13:21:51.000Z</time>
      </trkpt>
      <trkpt lat="47.50129" lon="6.73124">
        <ele>343.4</ele>
        <time>2014-10-31T13:21:52.000Z</time>
      </trkpt>
      <trkpt lat="47.5016" lon="6.73122">
        <ele>345.3</ele>
        <time>2014-10-31T13:22:00.000Z</time>
      </trkpt>
      <trkpt lat="47.50163" lon="6.73123">
        <ele>345</ele>
        <time>2014-10-31T13:22:01.000Z</time>
      </trkpt>
      <trkpt lat="47.50166" lon="6.73126">
        <ele>344.7</ele>
        <time>2014-10-31T13:22:02.000Z</time>
      </trkpt>
      <trkpt lat="47.50169" lon="6.7313">
        <ele>345.5</ele>
        <time>2014-10-31T13:22:03.000Z</time>
      </trkpt>
      <trkpt lat="47.50172" lon="6.73133">
        <ele>346.3</ele>
        <time>2014-10-31T13:22:04.000Z</time>
      </trkpt>
      <trkpt lat="47.50174" lon="6.73136">
        <ele>347.2</ele>
        <time>2014-10-31T13:22:05.000Z</time>
      </trkpt>
      <trkpt lat="47.50176" lon="6.73138">
        <ele>346.5</ele>
        <time>2014-10-31T13:22:06.000Z</time>
      </trkpt>
      <trkpt lat="47.50178" lon="6.73139">
        <ele>346.8</ele>
        <time>2014-10-31T13:22:07.000Z</time>
      </trkpt>
      <trkpt lat="47.50181" lon="6.73139">
        <ele>347</ele>
        <time>2014-10-31T13:22:08.000Z</time>
      </trkpt>
      <trkpt lat="47.50185" lon="6.73139">
        <ele>346.9</ele>
        <time>2014-10-31T13:22:09.000Z</time>
      </trkpt>
      <trkpt lat="47.50191" lon="6.73131">
        <ele>346.6</ele>
        <time>2014-10-31T13:22:10.000Z</time>
      </trkpt>
      <trkpt lat="47.50194" lon="6.73125">
        <ele>346.4</ele>
        <time>2014-10-31T13:22:11.000Z</time>
      </trkpt>
      <trkpt lat="47.50197" lon="6.73118">
        <ele>345.9</ele>
        <time>2014-10-31T13:22:12.000Z</time>
      </trkpt>
      <trkpt lat="47.50199" lon="6.73114">
        <ele>345.9</ele>
        <time>2014-10-31T13:22:13.000Z</time>
      </trkpt>
      <trkpt lat="47.50202" lon="6.73109">
        <ele>345.4</ele>
        <time>2014-10-31T13:22:14.000Z</time>
      </trkpt>
      <trkpt lat="47.50204" lon="6.73103">
        <ele>346</ele>
        <time>2014-10-31T13:22:15.000Z</time>
      </trkpt>
      <trkpt lat="47.50206" lon="6.73098">
        <ele>346.5</ele>
        <time>2014-10-31T13:22:16.000Z</time>
      </trkpt>
      <trkpt lat="47.50207" lon="6.73093">
        <ele>345.7</ele>
        <time>2014-10-31T13:22:17.000Z</time>
      </trkpt>
      <trkpt lat="47.50209" lon="6.73088">
        <ele>345.8</ele>
        <time>2014-10-31T13:22:18.000Z</time>
      </trkpt>
      <trkpt lat="47.50211" lon="6.73083">
        <ele>345.5</ele>
        <time>2014-10-31T13:22:19.000Z</time>
      </trkpt>
      <trkpt lat="47.50212" lon="6.73078">
        <ele>345.7</ele>
        <time>2014-10-31T13:22:20.000Z</time>
      </trkpt>
      <trkpt lat="47.50213" lon="6.73074">
        <ele>346.7</ele>
        <time>2014-10-31T13:22:21.000Z</time>
      </trkpt>
      <trkpt lat="47.50215" lon="6.73068">
        <ele>346.8</ele>
        <time>2014-10-31T13:22:22.000Z</time>
      </trkpt>
      <trkpt lat="47.50217" lon="6.73063">
        <ele>346.6</ele>
        <time>2014-10-31T13:22:23.000Z</time>
      </trkpt>
      <trkpt lat="47.50218" lon="6.73057">
        <ele>346.9</ele>
        <time>2014-10-31T13:22:24.000Z</time>
      </trkpt>
      <trkpt lat="47.5022" lon="6.7305">
        <ele>347.2</ele>
        <time>2014-10-31T13:22:25.000Z</time>
      </trkpt>
      <trkpt lat="47.50223" lon="6.73043">
        <ele>347.5</ele>
        <time>2014-10-31T13:22:26.000Z</time>
      </trkpt>
      <trkpt lat="47.50225" lon="6.73035">
        <ele>347.7</ele>
        <time>2014-10-31T13:22:27.000Z</time>
      </trkpt>
      <trkpt lat="47.50228" lon="6.73028">
        <ele>348.2</ele>
        <time>2014-10-31T13:22:28.000Z</time>
      </trkpt>
      <trkpt lat="47.50231" lon="6.73022">
        <ele>348.2</ele>
        <time>2014-10-31T13:22:29.000Z</time>
      </trkpt>
      <trkpt lat="47.50234" lon="6.73014">
        <ele>346.9</ele>
        <time>2014-10-31T13:22:30.000Z</time>
      </trkpt>
      <trkpt lat="47.50237" lon="6.73008">
        <ele>345.9</ele>
        <time>2014-10-31T13:22:31.000Z</time>
      </trkpt>
      <trkpt lat="47.5024" lon="6.73001">
        <ele>345.7</ele>
        <time>2014-10-31T13:22:32.000Z</time>
      </trkpt>
      <trkpt lat="47.50243" lon="6.72994">
        <ele>345.6</ele>
        <time>2014-10-31T13:22:33.000Z</time>
      </trkpt>
      <trkpt lat="47.50246" lon="6.72986">
        <ele>346.3</ele>
        <time>2014-10-31T13:22:34.000Z</time>
      </trkpt>
      <trkpt lat="47.50249" lon="6.7298">
        <ele>346.1</ele>
        <time>2014-10-31T13:22:35.000Z</time>
      </trkpt>
      <trkpt lat="47.50252" lon="6.72972">
        <ele>346.4</ele>
        <time>2014-10-31T13:22:36.000Z</time>
      </trkpt>
      <trkpt lat="47.50255" lon="6.72965">
        <ele>346.9</ele>
        <time>2014-10-31T13:22:37.000Z</time>
      </trkpt>
      <trkpt lat="47.50258" lon="6.72958">
        <ele>347</ele>
        <time>2014-10-31T13:22:38.000Z</time>
      </trkpt>
      <trkpt lat="47.5026" lon="6.72951">
        <ele>346.3</ele>
        <time>2014-10-31T13:22:39.000Z</time>
      </trkpt>
      <trkpt lat="47.50263" lon="6.72944">
        <ele>346</ele>
        <time>2014-10-31T13:22:40.000Z</time>
      </trkpt>
      <trkpt lat="47.50266" lon="6.72937">
        <ele>345.6</ele>
        <time>2014-10-31T13:22:41.000Z</time>
      </trkpt>
      <trkpt lat="47.50268" lon="6.72931">
        <ele>345.6</ele>
        <time>2014-10-31T13:22:42.000Z</time>
      </trkpt>
      <trkpt lat="47.50271" lon="6.72925">
        <ele>346.8</ele>
        <time>2014-10-31T13:22:43.000Z</time>
      </trkpt>
      <trkpt lat="47.50274" lon="6.72918">
        <ele>347.4</ele>
        <time>2014-10-31T13:22:44.000Z</time>
      </trkpt>
      <trkpt lat="47.50275" lon="6.72912">
        <ele>348.2</ele>
        <time>2014-10-31T13:22:45.000Z</time>
      </trkpt>
      <trkpt lat="47.50278" lon="6.72905">
        <ele>348</ele>
        <time>2014-10-31T13:22:46.000Z</time>
      </trkpt>
      <trkpt lat="47.50281" lon="6.72902">
        <ele>348.1</ele>
        <time>2014-10-31T13:22:47.000Z</time>
      </trkpt>
      <trkpt lat="47.50285" lon="6.729">
        <ele>347.6</ele>
        <time>2014-10-31T13:22:48.000Z</time>
      </trkpt>
      <trkpt lat="47.5029" lon="6.72901">
        <ele>347.1</ele>
        <time>2014-10-31T13:22:49.000Z</time>
      </trkpt>
      <trkpt lat="47.50294" lon="6.72902">
        <ele>347.8</ele>
        <time>2014-10-31T13:22:50.000Z</time>
      </trkpt>
      <trkpt lat="47.50299" lon="6.72903">
        <ele>347.7</ele>
        <time>2014-10-31T13:22:51.000Z</time>
      </trkpt>
      <trkpt lat="47.50311" lon="6.72909">
        <ele>349.4</ele>
        <time>2014-10-31T13:22:54.000Z</time>
      </trkpt>
      <trkpt lat="47.50316" lon="6.72911">
        <ele>349.4</ele>
        <time>2014-10-31T13:22:55.000Z</time>
      </trkpt>
      <trkpt lat="47.5032" lon="6.7291">
        <ele>349.2</ele>
        <time>2014-10-31T13:22:56.000Z</time>
      </trkpt>
      <trkpt lat="47.50324" lon="6.72914">
        <ele>349</ele>
        <time>2014-10-31T13:22:57.000Z</time>
      </trkpt>
      <trkpt lat="47.50327" lon="6.72915">
        <ele>348.9</ele>
        <time>2014-10-31T13:22:58.000Z</time>
      </trkpt>
      <trkpt lat="47.50331" lon="6.72917">
        <ele>348.2</ele>
        <time>2014-10-31T13:22:59.000Z</time>
      </trkpt>
      <trkpt lat="47.50335" lon="6.72918">
        <ele>348.3</ele>
        <time>2014-10-31T13:23:00.000Z</time>
      </trkpt>
      <trkpt lat="47.50339" lon="6.7292">
        <ele>347.6</ele>
        <time>2014-10-31T13:23:01.000Z</time>
      </trkpt>
      <trkpt lat="47.50342" lon="6.7292">
        <ele>347.6</ele>
        <time>2014-10-31T13:23:02.000Z</time>
      </trkpt>
      <trkpt lat="47.50345" lon="6.72921">
        <ele>348.2</ele>
        <time>2014-10-31T13:23:03.000Z</time>
      </trkpt>
      <trkpt lat="47.50349" lon="6.72922">
        <ele>348</ele>
        <time>2014-10-31T13:23:04.000Z</time>
      </trkpt>
      <trkpt lat="47.50352" lon="6.72923">
        <ele>349.2</ele>
        <time>2014-10-31T13:23:05.000Z</time>
      </trkpt>
      <trkpt lat="47.50355" lon="6.72924">
        <ele>348.6</ele>
        <time>2014-10-31T13:23:06.000Z</time>
      </trkpt>
      <trkpt lat="47.50358" lon="6.72924">
        <ele>348.8</ele>
        <time>2014-10-31T13:23:07.000Z</time>
      </trkpt>
      <trkpt lat="47.50361" lon="6.72925">
        <ele>349</ele>
        <time>2014-10-31T13:23:08.000Z</time>
      </trkpt>
      <trkpt lat="47.50364" lon="6.72926">
        <ele>350</ele>
        <time>2014-10-31T13:23:09.000Z</time>
      </trkpt>
      <trkpt lat="47.50367" lon="6.72927">
        <ele>349.8</ele>
        <time>2014-10-31T13:23:10.000Z</time>
      </trkpt>
      <trkpt lat="47.5037" lon="6.72927">
        <ele>349.5</ele>
        <time>2014-10-31T13:23:11.000Z</time>
      </trkpt>
      <trkpt lat="47.50372" lon="6.72928">
        <ele>349</ele>
        <time>2014-10-31T13:23:12.000Z</time>
      </trkpt>
      <trkpt lat="47.50375" lon="6.72929">
        <ele>348.2</ele>
        <time>2014-10-31T13:23:13.000Z</time>
      </trkpt>
      <trkpt lat="47.50378" lon="6.7293">
        <ele>347.3</ele>
        <time>2014-10-31T13:23:14.000Z</time>
      </trkpt>
      <trkpt lat="47.50381" lon="6.72931">
        <ele>347.4</ele>
        <time>2014-10-31T13:23:15.000Z</time>
      </trkpt>
      <trkpt lat="47.50384" lon="6.72932">
        <ele>347.4</ele>
        <time>2014-10-31T13:23:16.000Z</time>
      </trkpt>
      <trkpt lat="47.50387" lon="6.72933">
        <ele>347.6</ele>
        <time>2014-10-31T13:23:17.000Z</time>
      </trkpt>
      <trkpt lat="47.50389" lon="6.72934">
        <ele>348</ele>
        <time>2014-10-31T13:23:18.000Z</time>
      </trkpt>
      <trkpt lat="47.50392" lon="6.72934">
        <ele>348.6</ele>
        <time>2014-10-31T13:23:19.000Z</time>
      </trkpt>
      <trkpt lat="47.50395" lon="6.72935">
        <ele>347.9</ele>
        <time>2014-10-31T13:23:20.000Z</time>
      </trkpt>
      <trkpt lat="47.50398" lon="6.72936">
        <ele>347.7</ele>
        <time>2014-10-31T13:23:21.000Z</time>
      </trkpt>
      <trkpt lat="47.504" lon="6.72936">
        <ele>347.1</ele>
        <time>2014-10-31T13:23:22.000Z</time>
      </trkpt>
      <trkpt lat="47.50403" lon="6.72937">
        <ele>347.7</ele>
        <time>2014-10-31T13:23:23.000Z</time>
      </trkpt>
      <trkpt lat="47.50406" lon="6.72937">
        <ele>347.8</ele>
        <time>2014-10-31T13:23:24.000Z</time>
      </trkpt>
      <trkpt lat="47.50409" lon="6.72938">
        <ele>347.9</ele>
        <time>2014-10-31T13:23:25.000Z</time>
      </trkpt>
      <trkpt lat="47.50412" lon="6.72938">
        <ele>348.1</ele>
        <time>2014-10-31T13:23:26.000Z</time>
      </trkpt>
      <trkpt lat="47.50414" lon="6.72939">
        <ele>348.5</ele>
        <time>2014-10-31T13:23:27.000Z</time>
      </trkpt>
      <trkpt lat="47.50417" lon="6.72939">
        <ele>348.7</ele>
        <time>2014-10-31T13:23:28.000Z</time>
      </trkpt>
      <trkpt lat="47.5042" lon="6.7294">
        <ele>348.9</ele>
        <time>2014-10-31T13:23:29.000Z</time>
      </trkpt>
      <trkpt lat="47.50423" lon="6.72942">
        <ele>349.7</ele>
        <time>2014-10-31T13:23:30.000Z</time>
      </trkpt>
      <trkpt lat="47.50425" lon="6.72943">
        <ele>350.1</ele>
        <time>2014-10-31T13:23:31.000Z</time>
      </trkpt>
      <trkpt lat="47.50428" lon="6.72943">
        <ele>351</ele>
        <time>2014-10-31T13:23:32.000Z</time>
      </trkpt>
      <trkpt lat="47.50431" lon="6.72944">
        <ele>352</ele>
        <time>2014-10-31T13:23:33.000Z</time>
      </trkpt>
      <trkpt lat="47.50433" lon="6.72945">
        <ele>353.1</ele>
        <time>2014-10-31T13:23:34.000Z</time>
      </trkpt>
      <trkpt lat="47.50436" lon="6.72945">
        <ele>354.2</ele>
        <time>2014-10-31T13:23:35.000Z</time>
      </trkpt>
      <trkpt lat="47.50439" lon="6.72945">
        <ele>355.3</ele>
        <time>2014-10-31T13:23:36.000Z</time>
      </trkpt>
      <trkpt lat="47.50442" lon="6.72945">
        <ele>356</ele>
        <time>2014-10-31T13:23:37.000Z</time>
      </trkpt>
      <trkpt lat="47.50445" lon="6.72945">
        <ele>357.2</ele>
        <time>2014-10-31T13:23:38.000Z</time>
      </trkpt>
      <trkpt lat="47.50447" lon="6.72945">
        <ele>357.4</ele>
        <time>2014-10-31T13:23:39.000Z</time>
      </trkpt>
      <trkpt lat="47.5045" lon="6.72945">
        <ele>358.1</ele>
        <time>2014-10-31T13:23:40.000Z</time>
      </trkpt>
      <trkpt lat="47.50452" lon="6.72944">
        <ele>357.9</ele>
        <time>2014-10-31T13:23:41.000Z</time>
      </trkpt>
      <trkpt lat="47.50455" lon="6.72943">
        <ele>358.7</ele>
        <time>2014-10-31T13:23:42.000Z</time>
      </trkpt>
      <trkpt lat="47.50457" lon="6.72941">
        <ele>358.8</ele>
        <time>2014-10-31T13:23:43.000Z</time>
      </trkpt>
      <trkpt lat="47.50459" lon="6.72939">
        <ele>359.1</ele>
        <time>2014-10-31T13:23:44.000Z</time>
      </trkpt>
      <trkpt lat="47.50461" lon="6.72937">
        <ele>358.7</ele>
        <time>2014-10-31T13:23:45.000Z</time>
      </trkpt>
      <trkpt lat="47.50462" lon="6.72934">
        <ele>359.1</ele>
        <time>2014-10-31T13:23:46.000Z</time>
      </trkpt>
      <trkpt lat="47.50464" lon="6.72932">
        <ele>359.6</ele>
        <time>2014-10-31T13:23:47.000Z</time>
      </trkpt>
      <trkpt lat="47.50466" lon="6.72929">
        <ele>359.7</ele>
        <time>2014-10-31T13:23:48.000Z</time>
      </trkpt>
      <trkpt lat="47.50468" lon="6.72926">
        <ele>359.7</ele>
        <time>2014-10-31T13:23:49.000Z</time>
      </trkpt>
      <trkpt lat="47.5047" lon="6.72923">
        <ele>359.4</ele>
        <time>2014-10-31T13:23:50.000Z</time>
      </trkpt>
      <trkpt lat="47.50472" lon="6.7292">
        <ele>359.6</ele>
        <time>2014-10-31T13:23:51.000Z</time>
      </trkpt>
      <trkpt lat="47.50473" lon="6.72916">
        <ele>359.6</ele>
        <time>2014-10-31T13:23:52.000Z</time>
      </trkpt>
      <trkpt lat="47.50488" lon="6.72894">
        <ele>361.1</ele>
        <time>2014-10-31T13:24:00.000Z</time>
      </trkpt>
      <trkpt lat="47.5049" lon="6.72892">
        <ele>361.7</ele>
        <time>2014-10-31T13:24:01.000Z</time>
      </trkpt>
      <trkpt lat="47.50492" lon="6.7289">
        <ele>362.2</ele>
        <time>2014-10-31T13:24:02.000Z</time>
      </trkpt>
      <trkpt lat="47.50495" lon="6.72888">
        <ele>362.1</ele>
        <time>2014-10-31T13:24:03.000Z</time>
      </trkpt>
      <trkpt lat="47.50497" lon="6.72886">
        <ele>361.6</ele>
        <time>2014-10-31T13:24:04.000Z</time>
      </trkpt>
      <trkpt lat="47.50498" lon="6.72883">
        <ele>360.9</ele>
        <time>2014-10-31T13:24:05.000Z</time>
      </trkpt>
      <trkpt lat="47.505" lon="6.72881">
        <ele>360.2</ele>
        <time>2014-10-31T13:24:06.000Z</time>
      </trkpt>
      <trkpt lat="47.50503" lon="6.72877">
        <ele>361.4</ele>
        <time>2014-10-31T13:24:08.000Z</time>
      </trkpt>
      <trkpt lat="47.50504" lon="6.72875">
        <ele>361.3</ele>
        <time>2014-10-31T13:24:09.000Z</time>
      </trkpt>
      <trkpt lat="47.50506" lon="6.72873">
        <ele>361.4</ele>
        <time>2014-10-31T13:24:10.000Z</time>
      </trkpt>
      <trkpt lat="47.50508" lon="6.7287">
        <ele>361.2</ele>
        <time>2014-10-31T13:24:11.000Z</time>
      </trkpt>
      <trkpt lat="47.5051" lon="6.72868">
        <ele>360.9</ele>
        <time>2014-10-31T13:24:12.000Z</time>
      </trkpt>
      <trkpt lat="47.50512" lon="6.72866">
        <ele>360.6</ele>
        <time>2014-10-31T13:24:13.000Z</time>
      </trkpt>
      <trkpt lat="47.50514" lon="6.72864">
        <ele>361.1</ele>
        <time>2014-10-31T13:24:14.000Z</time>
      </trkpt>
      <trkpt lat="47.50517" lon="6.72861">
        <ele>364.5</ele>
        <time>2014-10-31T13:24:15.000Z</time>
      </trkpt>
      <trkpt lat="47.50521" lon="6.72859">
        <ele>366.2</ele>
        <time>2014-10-31T13:24:17.000Z</time>
      </trkpt>
      <trkpt lat="47.50523" lon="6.72858">
        <ele>366.6</ele>
        <time>2014-10-31T13:24:18.000Z</time>
      </trkpt>
      <trkpt lat="47.50526" lon="6.72856">
        <ele>365.8</ele>
        <time>2014-10-31T13:24:19.000Z</time>
      </trkpt>
      <trkpt lat="47.50528" lon="6.72854">
        <ele>364.9</ele>
        <time>2014-10-31T13:24:20.000Z</time>
      </trkpt>
      <trkpt lat="47.50531" lon="6.72851">
        <ele>364.8</ele>
        <time>2014-10-31T13:24:22.000Z</time>
      </trkpt>
      <trkpt lat="47.50533" lon="6.72851">
        <ele>364.8</ele>
        <time>2014-10-31T13:24:23.000Z</time>
      </trkpt>
      <trkpt lat="47.50536" lon="6.72849">
        <ele>364.6</ele>
        <time>2014-10-31T13:24:25.000Z</time>
      </trkpt>
      <trkpt lat="47.50538" lon="6.72848">
        <ele>364.5</ele>
        <time>2014-10-31T13:24:26.000Z</time>
      </trkpt>
      <trkpt lat="47.5054" lon="6.72847">
        <ele>364.4</ele>
        <time>2014-10-31T13:24:27.000Z</time>
      </trkpt>
      <trkpt lat="47.50542" lon="6.72845">
        <ele>364.8</ele>
        <time>2014-10-31T13:24:28.000Z</time>
      </trkpt>
      <trkpt lat="47.50544" lon="6.72844">
        <ele>365.4</ele>
        <time>2014-10-31T13:24:29.000Z</time>
      </trkpt>
      <trkpt lat="47.50546" lon="6.72842">
        <ele>366.1</ele>
        <time>2014-10-31T13:24:30.000Z</time>
      </trkpt>
      <trkpt lat="47.50548" lon="6.72841">
        <ele>365.1</ele>
        <time>2014-10-31T13:24:31.000Z</time>
      </trkpt>
      <trkpt lat="47.5055" lon="6.7284">
        <ele>365.5</ele>
        <time>2014-10-31T13:24:32.000Z</time>
      </trkpt>
      <trkpt lat="47.50554" lon="6.72837">
        <ele>367.7</ele>
        <time>2014-10-31T13:24:34.000Z</time>
      </trkpt>
      <trkpt lat="47.50555" lon="6.72836">
        <ele>367.9</ele>
        <time>2014-10-31T13:24:35.000Z</time>
      </trkpt>
      <trkpt lat="47.50559" lon="6.72833">
        <ele>368.7</ele>
        <time>2014-10-31T13:24:37.000Z</time>
      </trkpt>
      <trkpt lat="47.5056" lon="6.72831">
        <ele>369.4</ele>
        <time>2014-10-31T13:24:38.000Z</time>
      </trkpt>
      <trkpt lat="47.50564" lon="6.72828">
        <ele>369.8</ele>
        <time>2014-10-31T13:24:40.000Z</time>
      </trkpt>
      <trkpt lat="47.50565" lon="6.72827">
        <ele>370.9</ele>
        <time>2014-10-31T13:24:41.000Z</time>
      </trkpt>
      <trkpt lat="47.50569" lon="6.72824">
        <ele>370.9</ele>
        <time>2014-10-31T13:24:43.000Z</time>
      </trkpt>
      <trkpt lat="47.5057" lon="6.72822">
        <ele>371.7</ele>
        <time>2014-10-31T13:24:44.000Z</time>
      </trkpt>
      <trkpt lat="47.50574" lon="6.72819">
        <ele>373</ele>
        <time>2014-10-31T13:24:46.000Z</time>
      </trkpt>
      <trkpt lat="47.50575" lon="6.72818">
        <ele>374.3</ele>
        <time>2014-10-31T13:24:47.000Z</time>
      </trkpt>
      <trkpt lat="47.50579" lon="6.72817">
        <ele>374.5</ele>
        <time>2014-10-31T13:24:49.000Z</time>
      </trkpt>
      <trkpt lat="47.5058" lon="6.72815">
        <ele>375.2</ele>
        <time>2014-10-31T13:24:50.000Z</time>
      </trkpt>
      <trkpt lat="47.50582" lon="6.72814">
        <ele>374.7</ele>
        <time>2014-10-31T13:24:51.000Z</time>
      </trkpt>
      <trkpt lat="47.50586" lon="6.72809">
        <ele>375.6</ele>
        <time>2014-10-31T13:24:54.000Z</time>
      </trkpt>
      <trkpt lat="47.50589" lon="6.72807">
        <ele>377.2</ele>
        <time>2014-10-31T13:24:56.000Z</time>
      </trkpt>
      <trkpt lat="47.50591" lon="6.72805">
        <ele>378</ele>
        <time>2014-10-31T13:24:57.000Z</time>
      </trkpt>
      <trkpt lat="47.50594" lon="6.72803">
        <ele>378</ele>
        <time>2014-10-31T13:24:59.000Z</time>
      </trkpt>
      <trkpt lat="47.50596" lon="6.72801">
        <ele>377.3</ele>
        <time>2014-10-31T13:25:00.000Z</time>
      </trkpt>
      <trkpt lat="47.50601" lon="6.728">
        <ele>376</ele>
        <time>2014-10-31T13:25:02.000Z</time>
      </trkpt>
      <trkpt lat="47.50603" lon="6.72799">
        <ele>375.9</ele>
        <time>2014-10-31T13:25:03.000Z</time>
      </trkpt>
      <trkpt lat="47.50606" lon="6.72796">
        <ele>378.4</ele>
        <time>2014-10-31T13:25:05.000Z</time>
      </trkpt>
      <trkpt lat="47.50607" lon="6.72794">
        <ele>378.2</ele>
        <time>2014-10-31T13:25:06.000Z</time>
      </trkpt>
      <trkpt lat="47.5061" lon="6.72791">
        <ele>380.2</ele>
        <time>2014-10-31T13:25:08.000Z</time>
      </trkpt>
      <trkpt lat="47.50612" lon="6.7279">
        <ele>380.9</ele>
        <time>2014-10-31T13:25:09.000Z</time>
      </trkpt>
      <trkpt lat="47.50615" lon="6.7279">
        <ele>381.8</ele>
        <time>2014-10-31T13:25:11.000Z</time>
      </trkpt>
      <trkpt lat="47.50616" lon="6.7279">
        <ele>382.8</ele>
        <time>2014-10-31T13:25:12.000Z</time>
      </trkpt>
      <trkpt lat="47.5062" lon="6.72789">
        <ele>383.8</ele>
        <time>2014-10-31T13:25:14.000Z</time>
      </trkpt>
      <trkpt lat="47.50621" lon="6.72788">
        <ele>384.1</ele>
        <time>2014-10-31T13:25:15.000Z</time>
      </trkpt>
      <trkpt lat="47.50625" lon="6.72786">
        <ele>386</ele>
        <time>2014-10-31T13:25:17.000Z</time>
      </trkpt>
      <trkpt lat="47.50626" lon="6.72784">
        <ele>387.2</ele>
        <time>2014-10-31T13:25:18.000Z</time>
      </trkpt>
      <trkpt lat="47.50629" lon="6.72781">
        <ele>386.5</ele>
        <time>2014-10-31T13:25:20.000Z</time>
      </trkpt>
      <trkpt lat="47.50631" lon="6.7278">
        <ele>386.9</ele>
        <time>2014-10-31T13:25:21.000Z</time>
      </trkpt>
      <trkpt lat="47.50634" lon="6.72777">
        <ele>387.6</ele>
        <time>2014-10-31T13:25:23.000Z</time>
      </trkpt>
      <trkpt lat="47.50636" lon="6.72775">
        <ele>387.6</ele>
        <time>2014-10-31T13:25:24.000Z</time>
      </trkpt>
      <trkpt lat="47.50639" lon="6.72771">
        <ele>389.1</ele>
        <time>2014-10-31T13:25:26.000Z</time>
      </trkpt>
      <trkpt lat="47.50641" lon="6.7277">
        <ele>387.4</ele>
        <time>2014-10-31T13:25:27.000Z</time>
      </trkpt>
      <trkpt lat="47.50643" lon="6.72768">
        <ele>385.6</ele>
        <time>2014-10-31T13:25:28.000Z</time>
      </trkpt>
      <trkpt lat="47.50645" lon="6.72766">
        <ele>385</ele>
        <time>2014-10-31T13:25:29.000Z</time>
      </trkpt>
      <trkpt lat="47.50649" lon="6.72763">
        <ele>382.9</ele>
        <time>2014-10-31T13:25:31.000Z</time>
      </trkpt>
      <trkpt lat="47.50651" lon="6.72762">
        <ele>383</ele>
        <time>2014-10-31T13:25:32.000Z</time>
      </trkpt>
      <trkpt lat="47.50653" lon="6.72758">
        <ele>383.6</ele>
        <time>2014-10-31T13:25:34.000Z</time>
      </trkpt>
      <trkpt lat="47.50654" lon="6.72756">
        <ele>383.2</ele>
        <time>2014-10-31T13:25:35.000Z</time>
      </trkpt>
      <trkpt lat="47.50656" lon="6.72753">
        <ele>382.9</ele>
        <time>2014-10-31T13:25:37.000Z</time>
      </trkpt>
      <trkpt lat="47.50658" lon="6.72751">
        <ele>383.1</ele>
        <time>2014-10-31T13:25:38.000Z</time>
      </trkpt>
      <trkpt lat="47.50661" lon="6.72746">
        <ele>385.3</ele>
        <time>2014-10-31T13:25:40.000Z</time>
      </trkpt>
      <trkpt lat="47.50662" lon="6.72744">
        <ele>384.8</ele>
        <time>2014-10-31T13:25:41.000Z</time>
      </trkpt>
      <trkpt lat="47.50664" lon="6.72742">
        <ele>384.4</ele>
        <time>2014-10-31T13:25:42.000Z</time>
      </trkpt>
      <trkpt lat="47.50666" lon="6.72739">
        <ele>384.4</ele>
        <time>2014-10-31T13:25:43.000Z</time>
      </trkpt>
      <trkpt lat="47.50668" lon="6.72736">
        <ele>385.1</ele>
        <time>2014-10-31T13:25:44.000Z</time>
      </trkpt>
      <trkpt lat="47.5067" lon="6.72733">
        <ele>386.7</ele>
        <time>2014-10-31T13:25:45.000Z</time>
      </trkpt>
      <trkpt lat="47.50672" lon="6.7273">
        <ele>387.1</ele>
        <time>2014-10-31T13:25:46.000Z</time>
      </trkpt>
      <trkpt lat="47.50674" lon="6.72727">
        <ele>387.3</ele>
        <time>2014-10-31T13:25:47.000Z</time>
      </trkpt>
      <trkpt lat="47.50675" lon="6.72724">
        <ele>387.9</ele>
        <time>2014-10-31T13:25:48.000Z</time>
      </trkpt>
      <trkpt lat="47.50676" lon="6.72722">
        <ele>386.8</ele>
        <time>2014-10-31T13:25:49.000Z</time>
      </trkpt>
      <trkpt lat="47.50679" lon="6.72717">
        <ele>388.3</ele>
        <time>2014-10-31T13:25:51.000Z</time>
      </trkpt>
      <trkpt lat="47.50685" lon="6.72713">
        <ele>388.6</ele>
        <time>2014-10-31T13:25:54.000Z</time>
      </trkpt>
      <trkpt lat="47.50689" lon="6.7271">
        <ele>391</ele>
        <time>2014-10-31T13:25:56.000Z</time>
      </trkpt>
      <trkpt lat="47.50691" lon="6.72709">
        <ele>389.7</ele>
        <time>2014-10-31T13:25:57.000Z</time>
      </trkpt>
      <trkpt lat="47.50693" lon="6.72707">
        <ele>388.8</ele>
        <time>2014-10-31T13:25:58.000Z</time>
      </trkpt>
      <trkpt lat="47.50695" lon="6.72706">
        <ele>388.6</ele>
        <time>2014-10-31T13:25:59.000Z</time>
      </trkpt>
      <trkpt lat="47.50697" lon="6.72704">
        <ele>386.5</ele>
        <time>2014-10-31T13:26:00.000Z</time>
      </trkpt>
      <trkpt lat="47.50699" lon="6.72702">
        <ele>385.3</ele>
        <time>2014-10-31T13:26:01.000Z</time>
      </trkpt>
      <trkpt lat="47.50703" lon="6.72699">
        <ele>385.1</ele>
        <time>2014-10-31T13:26:03.000Z</time>
      </trkpt>
      <trkpt lat="47.50704" lon="6.72697">
        <ele>384.3</ele>
        <time>2014-10-31T13:26:04.000Z</time>
      </trkpt>
      <trkpt lat="47.50707" lon="6.72693">
        <ele>386.2</ele>
        <time>2014-10-31T13:26:06.000Z</time>
      </trkpt>
      <trkpt lat="47.50708" lon="6.72691">
        <ele>385.6</ele>
        <time>2014-10-31T13:26:07.000Z</time>
      </trkpt>
      <trkpt lat="47.50711" lon="6.72688">
        <ele>386.6</ele>
        <time>2014-10-31T13:26:09.000Z</time>
      </trkpt>
      <trkpt lat="47.50713" lon="6.72686">
        <ele>387.7</ele>
        <time>2014-10-31T13:26:10.000Z</time>
      </trkpt>
      <trkpt lat="47.50715" lon="6.72684">
        <ele>388.2</ele>
        <time>2014-10-31T13:26:11.000Z</time>
      </trkpt>
      <trkpt lat="47.50716" lon="6.72682">
        <ele>389.5</ele>
        <time>2014-10-31T13:26:12.000Z</time>
      </trkpt>
      <trkpt lat="47.50718" lon="6.72679">
        <ele>389.8</ele>
        <time>2014-10-31T13:26:13.000Z</time>
      </trkpt>
      <trkpt lat="47.5072" lon="6.72676">
        <ele>389</ele>
        <time>2014-10-31T13:26:14.000Z</time>
      </trkpt>
      <trkpt lat="47.50721" lon="6.72674">
        <ele>388.3</ele>
        <time>2014-10-31T13:26:15.000Z</time>
      </trkpt>
      <trkpt lat="47.50724" lon="6.72671">
        <ele>388.3</ele>
        <time>2014-10-31T13:26:16.000Z</time>
      </trkpt>
      <trkpt lat="47.50725" lon="6.72669">
        <ele>388.3</ele>
        <time>2014-10-31T13:26:17.000Z</time>
      </trkpt>
      <trkpt lat="47.50727" lon="6.72666">
        <ele>388.1</ele>
        <time>2014-10-31T13:26:18.000Z</time>
      </trkpt>
      <trkpt lat="47.50729" lon="6.72663">
        <ele>388.7</ele>
        <time>2014-10-31T13:26:19.000Z</time>
      </trkpt>
      <trkpt lat="47.50731" lon="6.7266">
        <ele>388.9</ele>
        <time>2014-10-31T13:26:20.000Z</time>
      </trkpt>
      <trkpt lat="47.50733" lon="6.72657">
        <ele>388</ele>
        <time>2014-10-31T13:26:21.000Z</time>
      </trkpt>
      <trkpt lat="47.50736" lon="6.72654">
        <ele>388.8</ele>
        <time>2014-10-31T13:26:22.000Z</time>
      </trkpt>
      <trkpt lat="47.50738" lon="6.72652">
        <ele>388.5</ele>
        <time>2014-10-31T13:26:23.000Z</time>
      </trkpt>
      <trkpt lat="47.50741" lon="6.72648">
        <ele>387.8</ele>
        <time>2014-10-31T13:26:24.000Z</time>
      </trkpt>
      <trkpt lat="47.50743" lon="6.72645">
        <ele>387.2</ele>
        <time>2014-10-31T13:26:25.000Z</time>
      </trkpt>
      <trkpt lat="47.50746" lon="6.72642">
        <ele>388.1</ele>
        <time>2014-10-31T13:26:26.000Z</time>
      </trkpt>
      <trkpt lat="47.50748" lon="6.72639">
        <ele>388.8</ele>
        <time>2014-10-31T13:26:27.000Z</time>
      </trkpt>
      <trkpt lat="47.50751" lon="6.72636">
        <ele>389.2</ele>
        <time>2014-10-31T13:26:28.000Z</time>
      </trkpt>
      <trkpt lat="47.50753" lon="6.72633">
        <ele>388.7</ele>
        <time>2014-10-31T13:26:29.000Z</time>
      </trkpt>
      <trkpt lat="47.50755" lon="6.7263">
        <ele>388.5</ele>
        <time>2014-10-31T13:26:30.000Z</time>
      </trkpt>
      <trkpt lat="47.50757" lon="6.72627">
        <ele>388.7</ele>
        <time>2014-10-31T13:26:31.000Z</time>
      </trkpt>
      <trkpt lat="47.50758" lon="6.72623">
        <ele>390.5</ele>
        <time>2014-10-31T13:26:32.000Z</time>
      </trkpt>
      <trkpt lat="47.5076" lon="6.72617">
        <ele>391.7</ele>
        <time>2014-10-31T13:26:34.000Z</time>
      </trkpt>
      <trkpt lat="47.50762" lon="6.72616">
        <ele>391.1</ele>
        <time>2014-10-31T13:26:35.000Z</time>
      </trkpt>
      <trkpt lat="47.50765" lon="6.72613">
        <ele>394.3</ele>
        <time>2014-10-31T13:26:37.000Z</time>
      </trkpt>
      <trkpt lat="47.50767" lon="6.72612">
        <ele>395.9</ele>
        <time>2014-10-31T13:26:38.000Z</time>
      </trkpt>
      <trkpt lat="47.50769" lon="6.72611">
        <ele>397.6</ele>
        <time>2014-10-31T13:26:39.000Z</time>
      </trkpt>
      <trkpt lat="47.50772" lon="6.72609">
        <ele>396.3</ele>
        <time>2014-10-31T13:26:40.000Z</time>
      </trkpt>
      <trkpt lat="47.50774" lon="6.72607">
        <ele>394.9</ele>
        <time>2014-10-31T13:26:41.000Z</time>
      </trkpt>
      <trkpt lat="47.50777" lon="6.72604">
        <ele>393.9</ele>
        <time>2014-10-31T13:26:42.000Z</time>
      </trkpt>
      <trkpt lat="47.50779" lon="6.726">
        <ele>393.1</ele>
        <time>2014-10-31T13:26:43.000Z</time>
      </trkpt>
      <trkpt lat="47.50782" lon="6.72597">
        <ele>394.3</ele>
        <time>2014-10-31T13:26:44.000Z</time>
      </trkpt>
      <trkpt lat="47.50784" lon="6.72594">
        <ele>396.3</ele>
        <time>2014-10-31T13:26:45.000Z</time>
      </trkpt>
      <trkpt lat="47.50787" lon="6.72591">
        <ele>396.9</ele>
        <time>2014-10-31T13:26:46.000Z</time>
      </trkpt>
      <trkpt lat="47.50789" lon="6.72589">
        <ele>394.2</ele>
        <time>2014-10-31T13:26:47.000Z</time>
      </trkpt>
      <trkpt lat="47.50792" lon="6.72586">
        <ele>392.8</ele>
        <time>2014-10-31T13:26:48.000Z</time>
      </trkpt>
      <trkpt lat="47.50795" lon="6.72584">
        <ele>391.7</ele>
        <time>2014-10-31T13:26:49.000Z</time>
      </trkpt>
      <trkpt lat="47.50798" lon="6.72582">
        <ele>391.2</ele>
        <time>2014-10-31T13:26:50.000Z</time>
      </trkpt>
      <trkpt lat="47.50801" lon="6.7258">
        <ele>391.5</ele>
        <time>2014-10-31T13:26:51.000Z</time>
      </trkpt>
      <trkpt lat="47.50808" lon="6.7257">
        <ele>390</ele>
        <time>2014-10-31T13:26:54.000Z</time>
      </trkpt>
      <trkpt lat="47.50811" lon="6.72568">
        <ele>390.2</ele>
        <time>2014-10-31T13:26:55.000Z</time>
      </trkpt>
      <trkpt lat="47.50814" lon="6.72565">
        <ele>391.3</ele>
        <time>2014-10-31T13:26:56.000Z</time>
      </trkpt>
      <trkpt lat="47.50817" lon="6.72564">
        <ele>392.6</ele>
        <time>2014-10-31T13:26:57.000Z</time>
      </trkpt>
      <trkpt lat="47.5082" lon="6.72561">
        <ele>391.1</ele>
        <time>2014-10-31T13:26:58.000Z</time>
      </trkpt>
      <trkpt lat="47.50823" lon="6.72558">
        <ele>392.3</ele>
        <time>2014-10-31T13:26:59.000Z</time>
      </trkpt>
      <trkpt lat="47.50826" lon="6.72555">
        <ele>392.3</ele>
        <time>2014-10-31T13:27:00.000Z</time>
      </trkpt>
      <trkpt lat="47.50829" lon="6.72552">
        <ele>392.8</ele>
        <time>2014-10-31T13:27:01.000Z</time>
      </trkpt>
      <trkpt lat="47.50831" lon="6.72549">
        <ele>393.2</ele>
        <time>2014-10-31T13:27:02.000Z</time>
      </trkpt>
      <trkpt lat="47.50834" lon="6.72548">
        <ele>393.9</ele>
        <time>2014-10-31T13:27:03.000Z</time>
      </trkpt>
      <trkpt lat="47.50838" lon="6.72547">
        <ele>391.2</ele>
        <time>2014-10-31T13:27:04.000Z</time>
      </trkpt>
      <trkpt lat="47.50841" lon="6.72546">
        <ele>392.6</ele>
        <time>2014-10-31T13:27:05.000Z</time>
      </trkpt>
      <trkpt lat="47.50844" lon="6.72546">
        <ele>393.3</ele>
        <time>2014-10-31T13:27:06.000Z</time>
      </trkpt>
      <trkpt lat="47.50848" lon="6.72546">
        <ele>393.3</ele>
        <time>2014-10-31T13:27:07.000Z</time>
      </trkpt>
      <trkpt lat="47.50852" lon="6.72546">
        <ele>391.7</ele>
        <time>2014-10-31T13:27:08.000Z</time>
      </trkpt>
      <trkpt lat="47.50855" lon="6.72546">
        <ele>391.7</ele>
        <time>2014-10-31T13:27:09.000Z</time>
      </trkpt>
      <trkpt lat="47.50858" lon="6.72546">
        <ele>390.6</ele>
        <time>2014-10-31T13:27:10.000Z</time>
      </trkpt>
      <trkpt lat="47.50862" lon="6.72546">
        <ele>390</ele>
        <time>2014-10-31T13:27:11.000Z</time>
      </trkpt>
      <trkpt lat="47.50865" lon="6.72546">
        <ele>389.1</ele>
        <time>2014-10-31T13:27:12.000Z</time>
      </trkpt>
      <trkpt lat="47.50867" lon="6.72546">
        <ele>389.3</ele>
        <time>2014-10-31T13:27:13.000Z</time>
      </trkpt>
      <trkpt lat="47.5087" lon="6.72546">
        <ele>390.5</ele>
        <time>2014-10-31T13:27:14.000Z</time>
      </trkpt>
      <trkpt lat="47.50874" lon="6.72543">
        <ele>392.6</ele>
        <time>2014-10-31T13:27:17.000Z</time>
      </trkpt>
      <trkpt lat="47.50875" lon="6.72543">
        <ele>391.9</ele>
        <time>2014-10-31T13:27:18.000Z</time>
      </trkpt>
      <trkpt lat="47.50878" lon="6.7254">
        <ele>391.9</ele>
        <time>2014-10-31T13:27:20.000Z</time>
      </trkpt>
      <trkpt lat="47.50879" lon="6.72538">
        <ele>392.9</ele>
        <time>2014-10-31T13:27:21.000Z</time>
      </trkpt>
      <trkpt lat="47.50882" lon="6.72536">
        <ele>394.3</ele>
        <time>2014-10-31T13:27:23.000Z</time>
      </trkpt>
      <trkpt lat="47.50884" lon="6.72535">
        <ele>393.7</ele>
        <time>2014-10-31T13:27:24.000Z</time>
      </trkpt>
      <trkpt lat="47.50889" lon="6.72534">
        <ele>393.1</ele>
        <time>2014-10-31T13:27:26.000Z</time>
      </trkpt>
      <trkpt lat="47.50891" lon="6.72533">
        <ele>393.6</ele>
        <time>2014-10-31T13:27:27.000Z</time>
      </trkpt>
      <trkpt lat="47.50894" lon="6.72531">
        <ele>393.8</ele>
        <time>2014-10-31T13:27:29.000Z</time>
      </trkpt>
      <trkpt lat="47.50896" lon="6.7253">
        <ele>393.6</ele>
        <time>2014-10-31T13:27:30.000Z</time>
      </trkpt>
      <trkpt lat="47.50899" lon="6.72527">
        <ele>392.8</ele>
        <time>2014-10-31T13:27:32.000Z</time>
      </trkpt>
      <trkpt lat="47.50901" lon="6.72526">
        <ele>393.6</ele>
        <time>2014-10-31T13:27:33.000Z</time>
      </trkpt>
      <trkpt lat="47.50904" lon="6.72524">
        <ele>394.2</ele>
        <time>2014-10-31T13:27:35.000Z</time>
      </trkpt>
      <trkpt lat="47.50905" lon="6.72523">
        <ele>394.2</ele>
        <time>2014-10-31T13:27:36.000Z</time>
      </trkpt>
      <trkpt lat="47.50907" lon="6.72518">
        <ele>407.2</ele>
        <time>2014-10-31T13:27:43.000Z</time>
      </trkpt>
      <trkpt lat="47.50909" lon="6.72517">
        <ele>406.9</ele>
        <time>2014-10-31T13:27:44.000Z</time>
      </trkpt>
      <trkpt lat="47.50912" lon="6.72517">
        <ele>408.1</ele>
        <time>2014-10-31T13:27:46.000Z</time>
      </trkpt>
      <trkpt lat="47.50913" lon="6.72517">
        <ele>409.3</ele>
        <time>2014-10-31T13:27:47.000Z</time>
      </trkpt>
      <trkpt lat="47.50916" lon="6.72515">
        <ele>410.6</ele>
        <time>2014-10-31T13:27:51.000Z</time>
      </trkpt>
      <trkpt lat="47.50918" lon="6.72515">
        <ele>410.1</ele>
        <time>2014-10-31T13:27:52.000Z</time>
      </trkpt>
      <trkpt lat="47.50921" lon="6.72516">
        <ele>409.3</ele>
        <time>2014-10-31T13:27:55.000Z</time>
      </trkpt>
      <trkpt lat="47.50922" lon="6.72517">
        <ele>408.8</ele>
        <time>2014-10-31T13:27:56.000Z</time>
      </trkpt>
      <trkpt lat="47.50925" lon="6.72517">
        <ele>407</ele>
        <time>2014-10-31T13:27:57.000Z</time>
      </trkpt>
      <trkpt lat="47.50927" lon="6.72516">
        <ele>407.3</ele>
        <time>2014-10-31T13:27:58.000Z</time>
      </trkpt>
      <trkpt lat="47.50931" lon="6.72515">
        <ele>407.5</ele>
        <time>2014-10-31T13:28:00.000Z</time>
      </trkpt>
      <trkpt lat="47.50933" lon="6.72515">
        <ele>408</ele>
        <time>2014-10-31T13:28:01.000Z</time>
      </trkpt>
      <trkpt lat="47.50937" lon="6.72515">
        <ele>407.2</ele>
        <time>2014-10-31T13:28:03.000Z</time>
      </trkpt>
      <trkpt lat="47.50938" lon="6.72515">
        <ele>405.5</ele>
        <time>2014-10-31T13:28:04.000Z</time>
      </trkpt>
      <trkpt lat="47.50941" lon="6.72515">
        <ele>405.7</ele>
        <time>2014-10-31T13:28:06.000Z</time>
      </trkpt>
      <trkpt lat="47.50943" lon="6.72515">
        <ele>405</ele>
        <time>2014-10-31T13:28:07.000Z</time>
      </trkpt>
      <trkpt lat="47.50946" lon="6.72515">
        <ele>405.9</ele>
        <time>2014-10-31T13:28:09.000Z</time>
      </trkpt>
      <trkpt lat="47.50947" lon="6.72515">
        <ele>408.2</ele>
        <time>2014-10-31T13:28:10.000Z</time>
      </trkpt>
      <trkpt lat="47.50952" lon="6.72515">
        <ele>408.1</ele>
        <time>2014-10-31T13:28:13.000Z</time>
      </trkpt>
      <trkpt lat="47.50954" lon="6.72514">
        <ele>408</ele>
        <time>2014-10-31T13:28:14.000Z</time>
      </trkpt>
      <trkpt lat="47.50956" lon="6.72514">
        <ele>408.6</ele>
        <time>2014-10-31T13:28:15.000Z</time>
      </trkpt>
      <trkpt lat="47.50958" lon="6.72513">
        <ele>409.1</ele>
        <time>2014-10-31T13:28:16.000Z</time>
      </trkpt>
      <trkpt lat="47.50961" lon="6.72509">
        <ele>418.5</ele>
        <time>2014-10-31T13:28:18.000Z</time>
      </trkpt>
      <trkpt lat="47.50963" lon="6.72508">
        <ele>421.4</ele>
        <time>2014-10-31T13:28:19.000Z</time>
      </trkpt>
      <trkpt lat="47.50966" lon="6.72505">
        <ele>423.9</ele>
        <time>2014-10-31T13:28:21.000Z</time>
      </trkpt>
      <trkpt lat="47.50968" lon="6.72504">
        <ele>424.9</ele>
        <time>2014-10-31T13:28:22.000Z</time>
      </trkpt>
      <trkpt lat="47.50972" lon="6.72504">
        <ele>423.5</ele>
        <time>2014-10-31T13:28:24.000Z</time>
      </trkpt>
      <trkpt lat="47.50973" lon="6.72504">
        <ele>424.1</ele>
        <time>2014-10-31T13:28:25.000Z</time>
      </trkpt>
      <trkpt lat="47.50976" lon="6.72506">
        <ele>425</ele>
        <time>2014-10-31T13:28:27.000Z</time>
      </trkpt>
      <trkpt lat="47.50978" lon="6.72506">
        <ele>422.4</ele>
        <time>2014-10-31T13:28:28.000Z</time>
      </trkpt>
      <trkpt lat="47.50982" lon="6.72506">
        <ele>421.5</ele>
        <time>2014-10-31T13:28:30.000Z</time>
      </trkpt>
      <trkpt lat="47.50984" lon="6.72506">
        <ele>421</ele>
        <time>2014-10-31T13:28:31.000Z</time>
      </trkpt>
      <trkpt lat="47.50988" lon="6.72508">
        <ele>421.6</ele>
        <time>2014-10-31T13:28:33.000Z</time>
      </trkpt>
      <trkpt lat="47.5099" lon="6.72508">
        <ele>421.9</ele>
        <time>2014-10-31T13:28:34.000Z</time>
      </trkpt>
      <trkpt lat="47.50994" lon="6.72509">
        <ele>421.3</ele>
        <time>2014-10-31T13:28:36.000Z</time>
      </trkpt>
      <trkpt lat="47.50996" lon="6.72508">
        <ele>421.1</ele>
        <time>2014-10-31T13:28:37.000Z</time>
      </trkpt>
      <trkpt lat="47.51" lon="6.72508">
        <ele>421.1</ele>
        <time>2014-10-31T13:28:39.000Z</time>
      </trkpt>
      <trkpt lat="47.51002" lon="6.72508">
        <ele>422.2</ele>
        <time>2014-10-31T13:28:40.000Z</time>
      </trkpt>
      <trkpt lat="47.51005" lon="6.72509">
        <ele>421</ele>
        <time>2014-10-31T13:28:42.000Z</time>
      </trkpt>
      <trkpt lat="47.51006" lon="6.7251">
        <ele>420.6</ele>
        <time>2014-10-31T13:28:43.000Z</time>
      </trkpt>
      <trkpt lat="47.5101" lon="6.72512">
        <ele>421</ele>
        <time>2014-10-31T13:28:46.000Z</time>
      </trkpt>
      <trkpt lat="47.51012" lon="6.72512">
        <ele>421.7</ele>
        <time>2014-10-31T13:28:47.000Z</time>
      </trkpt>
      <trkpt lat="47.51016" lon="6.72511">
        <ele>422.8</ele>
        <time>2014-10-31T13:28:49.000Z</time>
      </trkpt>
      <trkpt lat="47.51017" lon="6.72511">
        <ele>422.9</ele>
        <time>2014-10-31T13:28:50.000Z</time>
      </trkpt>
      <trkpt lat="47.51019" lon="6.72512">
        <ele>424.2</ele>
        <time>2014-10-31T13:28:52.000Z</time>
      </trkpt>
      <trkpt lat="47.51033" lon="6.72515">
        <ele>424.1</ele>
        <time>2014-10-31T13:29:00.000Z</time>
      </trkpt>
      <trkpt lat="47.51037" lon="6.72516">
        <ele>424.3</ele>
        <time>2014-10-31T13:29:02.000Z</time>
      </trkpt>
      <trkpt lat="47.51039" lon="6.72516">
        <ele>424.5</ele>
        <time>2014-10-31T13:29:03.000Z</time>
      </trkpt>
      <trkpt lat="47.51042" lon="6.72516">
        <ele>423.9</ele>
        <time>2014-10-31T13:29:05.000Z</time>
      </trkpt>
      <trkpt lat="47.51044" lon="6.72516">
        <ele>425.1</ele>
        <time>2014-10-31T13:29:06.000Z</time>
      </trkpt>
      <trkpt lat="47.51047" lon="6.72517">
        <ele>424.7</ele>
        <time>2014-10-31T13:29:08.000Z</time>
      </trkpt>
      <trkpt lat="47.51049" lon="6.72518">
        <ele>428.5</ele>
        <time>2014-10-31T13:29:09.000Z</time>
      </trkpt>
      <trkpt lat="47.51052" lon="6.72514">
        <ele>430.3</ele>
        <time>2014-10-31T13:29:12.000Z</time>
      </trkpt>
      <trkpt lat="47.51053" lon="6.72513">
        <ele>430.3</ele>
        <time>2014-10-31T13:29:13.000Z</time>
      </trkpt>
      <trkpt lat="47.51057" lon="6.72514">
        <ele>431.4</ele>
        <time>2014-10-31T13:29:16.000Z</time>
      </trkpt>
      <trkpt lat="47.51058" lon="6.72514">
        <ele>433.9</ele>
        <time>2014-10-31T13:29:17.000Z</time>
      </trkpt>
      <trkpt lat="47.51061" lon="6.72516">
        <ele>433.7</ele>
        <time>2014-10-31T13:29:20.000Z</time>
      </trkpt>
      <trkpt lat="47.51063" lon="6.72517">
        <ele>433.1</ele>
        <time>2014-10-31T13:29:21.000Z</time>
      </trkpt>
      <trkpt lat="47.51066" lon="6.72518">
        <ele>434.5</ele>
        <time>2014-10-31T13:29:23.000Z</time>
      </trkpt>
      <trkpt lat="47.51068" lon="6.72519">
        <ele>433.7</ele>
        <time>2014-10-31T13:29:24.000Z</time>
      </trkpt>
      <trkpt lat="47.51069" lon="6.72521">
        <ele>433.1</ele>
        <time>2014-10-31T13:29:25.000Z</time>
      </trkpt>
      <trkpt lat="47.51071" lon="6.72523">
        <ele>432.6</ele>
        <time>2014-10-31T13:29:26.000Z</time>
      </trkpt>
      <trkpt lat="47.51073" lon="6.72525">
        <ele>432.9</ele>
        <time>2014-10-31T13:29:27.000Z</time>
      </trkpt>
      <trkpt lat="47.51075" lon="6.72527">
        <ele>432.7</ele>
        <time>2014-10-31T13:29:28.000Z</time>
      </trkpt>
      <trkpt lat="47.51079" lon="6.72529">
        <ele>431.7</ele>
        <time>2014-10-31T13:29:31.000Z</time>
      </trkpt>
      <trkpt lat="47.51081" lon="6.72529">
        <ele>432.8</ele>
        <time>2014-10-31T13:29:32.000Z</time>
      </trkpt>
      <trkpt lat="47.51084" lon="6.72531">
        <ele>432</ele>
        <time>2014-10-31T13:29:34.000Z</time>
      </trkpt>
      <trkpt lat="47.51086" lon="6.72531">
        <ele>430.1</ele>
        <time>2014-10-31T13:29:35.000Z</time>
      </trkpt>
      <trkpt lat="47.51091" lon="6.72531">
        <ele>431.3</ele>
        <time>2014-10-31T13:29:37.000Z</time>
      </trkpt>
      <trkpt lat="47.51093" lon="6.72531">
        <ele>429.1</ele>
        <time>2014-10-31T13:29:38.000Z</time>
      </trkpt>
      <trkpt lat="47.51095" lon="6.72531">
        <ele>428.5</ele>
        <time>2014-10-31T13:29:39.000Z</time>
      </trkpt>
      <trkpt lat="47.51097" lon="6.72532">
        <ele>427.9</ele>
        <time>2014-10-31T13:29:40.000Z</time>
      </trkpt>
      <trkpt lat="47.51102" lon="6.72531">
        <ele>428.5</ele>
        <time>2014-10-31T13:29:42.000Z</time>
      </trkpt>
      <trkpt lat="47.51104" lon="6.7253">
        <ele>429.1</ele>
        <time>2014-10-31T13:29:43.000Z</time>
      </trkpt>
      <trkpt lat="47.51107" lon="6.72529">
        <ele>428.6</ele>
        <time>2014-10-31T13:29:45.000Z</time>
      </trkpt>
      <trkpt lat="47.51109" lon="6.72529">
        <ele>429.6</ele>
        <time>2014-10-31T13:29:46.000Z</time>
      </trkpt>
      <trkpt lat="47.51112" lon="6.7253">
        <ele>431.8</ele>
        <time>2014-10-31T13:29:48.000Z</time>
      </trkpt>
      <trkpt lat="47.51114" lon="6.72531">
        <ele>432.8</ele>
        <time>2014-10-31T13:29:49.000Z</time>
      </trkpt>
      <trkpt lat="47.51117" lon="6.72533">
        <ele>435</ele>
        <time>2014-10-31T13:29:51.000Z</time>
      </trkpt>
      <trkpt lat="47.51134" lon="6.7254">
        <ele>436.6</ele>
        <time>2014-10-31T13:29:58.863Z</time>
      </trkpt>
      <trkpt lat="47.51137" lon="6.72541">
        <ele>436.3</ele>
        <time>2014-10-31T13:30:00.000Z</time>
      </trkpt>
      <trkpt lat="47.5114" lon="6.72542">
        <ele>435.2</ele>
        <time>2014-10-31T13:30:01.000Z</time>
      </trkpt>
      <trkpt lat="47.51143" lon="6.72544">
        <ele>435.4</ele>
        <time>2014-10-31T13:30:02.000Z</time>
      </trkpt>
      <trkpt lat="47.51145" lon="6.72545">
        <ele>438.8</ele>
        <time>2014-10-31T13:30:03.000Z</time>
      </trkpt>
      <trkpt lat="47.51149" lon="6.72546">
        <ele>439.4</ele>
        <time>2014-10-31T13:30:05.000Z</time>
      </trkpt>
      <trkpt lat="47.51151" lon="6.72547">
        <ele>439</ele>
        <time>2014-10-31T13:30:06.000Z</time>
      </trkpt>
      <trkpt lat="47.51153" lon="6.72547">
        <ele>438.8</ele>
        <time>2014-10-31T13:30:07.000Z</time>
      </trkpt>
      <trkpt lat="47.51156" lon="6.72547">
        <ele>437.7</ele>
        <time>2014-10-31T13:30:08.000Z</time>
      </trkpt>
      <trkpt lat="47.5116" lon="6.72546">
        <ele>438.9</ele>
        <time>2014-10-31T13:30:10.000Z</time>
      </trkpt>
      <trkpt lat="47.51161" lon="6.72545">
        <ele>439.4</ele>
        <time>2014-10-31T13:30:11.000Z</time>
      </trkpt>
      <trkpt lat="47.51164" lon="6.72541">
        <ele>439.9</ele>
        <time>2014-10-31T13:30:14.000Z</time>
      </trkpt>
      <trkpt lat="47.51165" lon="6.72538">
        <ele>439.8</ele>
        <time>2014-10-31T13:30:15.000Z</time>
      </trkpt>
      <trkpt lat="47.51167" lon="6.72534">
        <ele>440.5</ele>
        <time>2014-10-31T13:30:17.000Z</time>
      </trkpt>
      <trkpt lat="47.51167" lon="6.72532">
        <ele>440.7</ele>
        <time>2014-10-31T13:30:18.000Z</time>
      </trkpt>
      <trkpt lat="47.51168" lon="6.72525">
        <ele>437.9</ele>
        <time>2014-10-31T13:30:37.000Z</time>
      </trkpt>
      <trkpt lat="47.51168" lon="6.72525">
        <ele>438.1</ele>
        <time>2014-10-31T13:30:38.000Z</time>
      </trkpt>
      <trkpt lat="47.51168" lon="6.72521">
        <ele>441.4</ele>
        <time>2014-10-31T13:30:52.000Z</time>
      </trkpt>
      <trkpt lat="47.51174" lon="6.72518">
        <ele>441.2</ele>
        <time>2014-10-31T13:30:55.000Z</time>
      </trkpt>
      <trkpt lat="47.51177" lon="6.72515">
        <ele>439.8</ele>
        <time>2014-10-31T13:30:56.000Z</time>
      </trkpt>
      <trkpt lat="47.51178" lon="6.72511">
        <ele>439.1</ele>
        <time>2014-10-31T13:30:57.000Z</time>
      </trkpt>
      <trkpt lat="47.5118" lon="6.72507">
        <ele>439.5</ele>
        <time>2014-10-31T13:30:58.000Z</time>
      </trkpt>
      <trkpt lat="47.51182" lon="6.72504">
        <ele>439.2</ele>
        <time>2014-10-31T13:30:59.000Z</time>
      </trkpt>
      <trkpt lat="47.51183" lon="6.725">
        <ele>438.8</ele>
        <time>2014-10-31T13:31:00.000Z</time>
      </trkpt>
      <trkpt lat="47.51185" lon="6.72497">
        <ele>439.2</ele>
        <time>2014-10-31T13:31:01.000Z</time>
      </trkpt>
      <trkpt lat="47.51187" lon="6.72493">
        <ele>440.4</ele>
        <time>2014-10-31T13:31:02.000Z</time>
      </trkpt>
      <trkpt lat="47.51189" lon="6.72489">
        <ele>442.8</ele>
        <time>2014-10-31T13:31:03.000Z</time>
      </trkpt>
      <trkpt lat="47.51191" lon="6.72486">
        <ele>445.5</ele>
        <time>2014-10-31T13:31:04.000Z</time>
      </trkpt>
      <trkpt lat="47.51193" lon="6.72484">
        <ele>446.3</ele>
        <time>2014-10-31T13:31:05.000Z</time>
      </trkpt>
      <trkpt lat="47.51195" lon="6.72481">
        <ele>445.6</ele>
        <time>2014-10-31T13:31:06.000Z</time>
      </trkpt>
      <trkpt lat="47.51197" lon="6.72479">
        <ele>446.3</ele>
        <time>2014-10-31T13:31:07.000Z</time>
      </trkpt>
      <trkpt lat="47.51198" lon="6.72476">
        <ele>448</ele>
        <time>2014-10-31T13:31:08.000Z</time>
      </trkpt>
      <trkpt lat="47.512" lon="6.72473">
        <ele>444.1</ele>
        <time>2014-10-31T13:31:09.000Z</time>
      </trkpt>
      <trkpt lat="47.51201" lon="6.72469">
        <ele>442.7</ele>
        <time>2014-10-31T13:31:10.000Z</time>
      </trkpt>
      <trkpt lat="47.51203" lon="6.72465">
        <ele>441.9</ele>
        <time>2014-10-31T13:31:11.000Z</time>
      </trkpt>
      <trkpt lat="47.51204" lon="6.72461">
        <ele>440.8</ele>
        <time>2014-10-31T13:31:12.000Z</time>
      </trkpt>
      <trkpt lat="47.51205" lon="6.72458">
        <ele>441.6</ele>
        <time>2014-10-31T13:31:13.000Z</time>
      </trkpt>
      <trkpt lat="47.51207" lon="6.72452">
        <ele>441.2</ele>
        <time>2014-10-31T13:31:15.000Z</time>
      </trkpt>
      <trkpt lat="47.51207" lon="6.72448">
        <ele>441.2</ele>
        <time>2014-10-31T13:31:16.000Z</time>
      </trkpt>
      <trkpt lat="47.51208" lon="6.72444">
        <ele>442.8</ele>
        <time>2014-10-31T13:31:17.000Z</time>
      </trkpt>
      <trkpt lat="47.51209" lon="6.72439">
        <ele>442.1</ele>
        <time>2014-10-31T13:31:18.000Z</time>
      </trkpt>
      <trkpt lat="47.5121" lon="6.72434">
        <ele>444.3</ele>
        <time>2014-10-31T13:31:19.000Z</time>
      </trkpt>
      <trkpt lat="47.51212" lon="6.72429">
        <ele>443.7</ele>
        <time>2014-10-31T13:31:20.000Z</time>
      </trkpt>
      <trkpt lat="47.51213" lon="6.72425">
        <ele>445</ele>
        <time>2014-10-31T13:31:21.000Z</time>
      </trkpt>
      <trkpt lat="47.51215" lon="6.72421">
        <ele>443.8</ele>
        <time>2014-10-31T13:31:22.000Z</time>
      </trkpt>
      <trkpt lat="47.51217" lon="6.72417">
        <ele>442.6</ele>
        <time>2014-10-31T13:31:23.000Z</time>
      </trkpt>
      <trkpt lat="47.51219" lon="6.72413">
        <ele>440.7</ele>
        <time>2014-10-31T13:31:24.000Z</time>
      </trkpt>
      <trkpt lat="47.5122" lon="6.72409">
        <ele>440.8</ele>
        <time>2014-10-31T13:31:25.000Z</time>
      </trkpt>
      <trkpt lat="47.51222" lon="6.72404">
        <ele>441.1</ele>
        <time>2014-10-31T13:31:26.000Z</time>
      </trkpt>
      <trkpt lat="47.51223" lon="6.724">
        <ele>439.4</ele>
        <time>2014-10-31T13:31:27.000Z</time>
      </trkpt>
      <trkpt lat="47.51225" lon="6.72395">
        <ele>438.2</ele>
        <time>2014-10-31T13:31:28.000Z</time>
      </trkpt>
      <trkpt lat="47.51225" lon="6.7239">
        <ele>439</ele>
        <time>2014-10-31T13:31:29.000Z</time>
      </trkpt>
      <trkpt lat="47.51226" lon="6.72385">
        <ele>438.8</ele>
        <time>2014-10-31T13:31:30.000Z</time>
      </trkpt>
      <trkpt lat="47.51227" lon="6.7238">
        <ele>436.5</ele>
        <time>2014-10-31T13:31:31.000Z</time>
      </trkpt>
      <trkpt lat="47.51227" lon="6.72375">
        <ele>434.5</ele>
        <time>2014-10-31T13:31:32.000Z</time>
      </trkpt>
      <trkpt lat="47.51228" lon="6.72371">
        <ele>434.5</ele>
        <time>2014-10-31T13:31:33.000Z</time>
      </trkpt>
      <trkpt lat="47.51228" lon="6.72365">
        <ele>435.3</ele>
        <time>2014-10-31T13:31:34.000Z</time>
      </trkpt>
      <trkpt lat="47.51229" lon="6.7236">
        <ele>435.1</ele>
        <time>2014-10-31T13:31:35.000Z</time>
      </trkpt>
      <trkpt lat="47.51229" lon="6.72354">
        <ele>435.8</ele>
        <time>2014-10-31T13:31:36.000Z</time>
      </trkpt>
      <trkpt lat="47.5123" lon="6.72349">
        <ele>438.4</ele>
        <time>2014-10-31T13:31:37.000Z</time>
      </trkpt>
      <trkpt lat="47.51231" lon="6.72344">
        <ele>438.9</ele>
        <time>2014-10-31T13:31:38.000Z</time>
      </trkpt>
      <trkpt lat="47.51233" lon="6.72339">
        <ele>438.1</ele>
        <time>2014-10-31T13:31:39.000Z</time>
      </trkpt>
      <trkpt lat="47.51234" lon="6.72335">
        <ele>437.7</ele>
        <time>2014-10-31T13:31:40.000Z</time>
      </trkpt>
      <trkpt lat="47.51235" lon="6.72331">
        <ele>437.9</ele>
        <time>2014-10-31T13:31:41.000Z</time>
      </trkpt>
      <trkpt lat="47.51235" lon="6.72326">
        <ele>437</ele>
        <time>2014-10-31T13:31:42.000Z</time>
      </trkpt>
      <trkpt lat="47.51235" lon="6.72321">
        <ele>435.2</ele>
        <time>2014-10-31T13:31:43.000Z</time>
      </trkpt>
      <trkpt lat="47.51235" lon="6.72317">
        <ele>437.7</ele>
        <time>2014-10-31T13:31:44.000Z</time>
      </trkpt>
      <trkpt lat="47.51235" lon="6.72312">
        <ele>437.5</ele>
        <time>2014-10-31T13:31:45.000Z</time>
      </trkpt>
      <trkpt lat="47.51235" lon="6.72308">
        <ele>437.7</ele>
        <time>2014-10-31T13:31:46.000Z</time>
      </trkpt>
      <trkpt lat="47.51235" lon="6.72304">
        <ele>438.3</ele>
        <time>2014-10-31T13:31:47.000Z</time>
      </trkpt>
      <trkpt lat="47.51235" lon="6.723">
        <ele>437.4</ele>
        <time>2014-10-31T13:31:48.000Z</time>
      </trkpt>
      <trkpt lat="47.51235" lon="6.72297">
        <ele>437.4</ele>
        <time>2014-10-31T13:31:49.000Z</time>
      </trkpt>
      <trkpt lat="47.51236" lon="6.72293">
        <ele>438.2</ele>
        <time>2014-10-31T13:31:50.000Z</time>
      </trkpt>
      <trkpt lat="47.51237" lon="6.7229">
        <ele>438.8</ele>
        <time>2014-10-31T13:31:51.000Z</time>
      </trkpt>
      <trkpt lat="47.51238" lon="6.72286">
        <ele>439.2</ele>
        <time>2014-10-31T13:31:52.000Z</time>
      </trkpt>
      <trkpt lat="47.51243" lon="6.72245">
        <ele>444.8</ele>
        <time>2014-10-31T13:32:00.000Z</time>
      </trkpt>
      <trkpt lat="47.51243" lon="6.7224">
        <ele>444.8</ele>
        <time>2014-10-31T13:32:01.000Z</time>
      </trkpt>
      <trkpt lat="47.51242" lon="6.72235">
        <ele>446.3</ele>
        <time>2014-10-31T13:32:02.000Z</time>
      </trkpt>
      <trkpt lat="47.51242" lon="6.7223">
        <ele>446.2</ele>
        <time>2014-10-31T13:32:03.000Z</time>
      </trkpt>
      <trkpt lat="47.51242" lon="6.72226">
        <ele>446</ele>
        <time>2014-10-31T13:32:04.000Z</time>
      </trkpt>
      <trkpt lat="47.51241" lon="6.72222">
        <ele>444.3</ele>
        <time>2014-10-31T13:32:05.000Z</time>
      </trkpt>
      <trkpt lat="47.5124" lon="6.72218">
        <ele>443.7</ele>
        <time>2014-10-31T13:32:06.000Z</time>
      </trkpt>
      <trkpt lat="47.51238" lon="6.72215">
        <ele>447.9</ele>
        <time>2014-10-31T13:32:07.000Z</time>
      </trkpt>
      <trkpt lat="47.51235" lon="6.72212">
        <ele>449.6</ele>
        <time>2014-10-31T13:32:08.000Z</time>
      </trkpt>
      <trkpt lat="47.51233" lon="6.7221">
        <ele>450.9</ele>
        <time>2014-10-31T13:32:09.000Z</time>
      </trkpt>
      <trkpt lat="47.51231" lon="6.72207">
        <ele>452.7</ele>
        <time>2014-10-31T13:32:10.000Z</time>
      </trkpt>
      <trkpt lat="47.51229" lon="6.72203">
        <ele>451</ele>
        <time>2014-10-31T13:32:11.000Z</time>
      </trkpt>
      <trkpt lat="47.51228" lon="6.72197">
        <ele>451.2</ele>
        <time>2014-10-31T13:32:12.000Z</time>
      </trkpt>
      <trkpt lat="47.51227" lon="6.7219">
        <ele>450.9</ele>
        <time>2014-10-31T13:32:13.000Z</time>
      </trkpt>
      <trkpt lat="47.51226" lon="6.72184">
        <ele>449.9</ele>
        <time>2014-10-31T13:32:14.000Z</time>
      </trkpt>
      <trkpt lat="47.51226" lon="6.72179">
        <ele>449.7</ele>
        <time>2014-10-31T13:32:15.000Z</time>
      </trkpt>
      <trkpt lat="47.51227" lon="6.72174">
        <ele>447.8</ele>
        <time>2014-10-31T13:32:16.000Z</time>
      </trkpt>
      <trkpt lat="47.51228" lon="6.72169">
        <ele>446.8</ele>
        <time>2014-10-31T13:32:17.000Z</time>
      </trkpt>
      <trkpt lat="47.51229" lon="6.72165">
        <ele>447</ele>
        <time>2014-10-31T13:32:18.000Z</time>
      </trkpt>
      <trkpt lat="47.5123" lon="6.72161">
        <ele>445.7</ele>
        <time>2014-10-31T13:32:19.000Z</time>
      </trkpt>
      <trkpt lat="47.51232" lon="6.72157">
        <ele>448</ele>
        <time>2014-10-31T13:32:20.000Z</time>
      </trkpt>
      <trkpt lat="47.51234" lon="6.72153">
        <ele>447.1</ele>
        <time>2014-10-31T13:32:21.000Z</time>
      </trkpt>
      <trkpt lat="47.51236" lon="6.72149">
        <ele>446.4</ele>
        <time>2014-10-31T13:32:22.000Z</time>
      </trkpt>
      <trkpt lat="47.51237" lon="6.72144">
        <ele>445.8</ele>
        <time>2014-10-31T13:32:23.000Z</time>
      </trkpt>
      <trkpt lat="47.51238" lon="6.7214">
        <ele>446.7</ele>
        <time>2014-10-31T13:32:24.000Z</time>
      </trkpt>
      <trkpt lat="47.51238" lon="6.72135">
        <ele>448.3</ele>
        <time>2014-10-31T13:32:25.000Z</time>
      </trkpt>
      <trkpt lat="47.51238" lon="6.72132">
        <ele>449.1</ele>
        <time>2014-10-31T13:32:26.000Z</time>
      </trkpt>
      <trkpt lat="47.51237" lon="6.72125">
        <ele>447.5</ele>
        <time>2014-10-31T13:32:28.000Z</time>
      </trkpt>
      <trkpt lat="47.51237" lon="6.72122">
        <ele>446.1</ele>
        <time>2014-10-31T13:32:29.000Z</time>
      </trkpt>
      <trkpt lat="47.51237" lon="6.72117">
        <ele>445.3</ele>
        <time>2014-10-31T13:32:30.000Z</time>
      </trkpt>
      <trkpt lat="47.51237" lon="6.72113">
        <ele>449.6</ele>
        <time>2014-10-31T13:32:31.000Z</time>
      </trkpt>
      <trkpt lat="47.51238" lon="6.72108">
        <ele>451.5</ele>
        <time>2014-10-31T13:32:32.000Z</time>
      </trkpt>
      <trkpt lat="47.51238" lon="6.72103">
        <ele>452.9</ele>
        <time>2014-10-31T13:32:33.000Z</time>
      </trkpt>
      <trkpt lat="47.51238" lon="6.72099">
        <ele>453</ele>
        <time>2014-10-31T13:32:34.000Z</time>
      </trkpt>
      <trkpt lat="47.51238" lon="6.72094">
        <ele>451.9</ele>
        <time>2014-10-31T13:32:35.000Z</time>
      </trkpt>
      <trkpt lat="47.51237" lon="6.72088">
        <ele>450.2</ele>
        <time>2014-10-31T13:32:36.000Z</time>
      </trkpt>
      <trkpt lat="47.51236" lon="6.72081">
        <ele>452.3</ele>
        <time>2014-10-31T13:32:37.000Z</time>
      </trkpt>
      <trkpt lat="47.51236" lon="6.72076">
        <ele>453.1</ele>
        <time>2014-10-31T13:32:38.000Z</time>
      </trkpt>
      <trkpt lat="47.51235" lon="6.7207">
        <ele>452.3</ele>
        <time>2014-10-31T13:32:39.000Z</time>
      </trkpt>
      <trkpt lat="47.51235" lon="6.72065">
        <ele>452.6</ele>
        <time>2014-10-31T13:32:40.000Z</time>
      </trkpt>
      <trkpt lat="47.51234" lon="6.72061">
        <ele>453.5</ele>
        <time>2014-10-31T13:32:41.000Z</time>
      </trkpt>
      <trkpt lat="47.51233" lon="6.72057">
        <ele>453.6</ele>
        <time>2014-10-31T13:32:42.000Z</time>
      </trkpt>
      <trkpt lat="47.51232" lon="6.72053">
        <ele>453.7</ele>
        <time>2014-10-31T13:32:43.000Z</time>
      </trkpt>
      <trkpt lat="47.51231" lon="6.72049">
        <ele>454.6</ele>
        <time>2014-10-31T13:32:44.000Z</time>
      </trkpt>
      <trkpt lat="47.51231" lon="6.72046">
        <ele>452.4</ele>
        <time>2014-10-31T13:32:45.000Z</time>
      </trkpt>
      <trkpt lat="47.5123" lon="6.72042">
        <ele>452.2</ele>
        <time>2014-10-31T13:32:46.000Z</time>
      </trkpt>
      <trkpt lat="47.5123" lon="6.72038">
        <ele>451.5</ele>
        <time>2014-10-31T13:32:47.000Z</time>
      </trkpt>
      <trkpt lat="47.51231" lon="6.72033">
        <ele>451</ele>
        <time>2014-10-31T13:32:48.000Z</time>
      </trkpt>
      <trkpt lat="47.51231" lon="6.72029">
        <ele>450</ele>
        <time>2014-10-31T13:32:49.000Z</time>
      </trkpt>
      <trkpt lat="47.51232" lon="6.72024">
        <ele>448.8</ele>
        <time>2014-10-31T13:32:50.000Z</time>
      </trkpt>
      <trkpt lat="47.51233" lon="6.72019">
        <ele>448</ele>
        <time>2014-10-31T13:32:51.000Z</time>
      </trkpt>
      <trkpt lat="47.51235" lon="6.72006">
        <ele>444.9</ele>
        <time>2014-10-31T13:32:54.000Z</time>
      </trkpt>
      <trkpt lat="47.51236" lon="6.72002">
        <ele>444.6</ele>
        <time>2014-10-31T13:32:55.000Z</time>
      </trkpt>
      <trkpt lat="47.51236" lon="6.71996">
        <ele>446.5</ele>
        <time>2014-10-31T13:32:56.000Z</time>
      </trkpt>
      <trkpt lat="47.51236" lon="6.71991">
        <ele>447.4</ele>
        <time>2014-10-31T13:32:57.000Z</time>
      </trkpt>
      <trkpt lat="47.51235" lon="6.71987">
        <ele>446.9</ele>
        <time>2014-10-31T13:32:58.000Z</time>
      </trkpt>
      <trkpt lat="47.51235" lon="6.71983">
        <ele>446.1</ele>
        <time>2014-10-31T13:32:59.000Z</time>
      </trkpt>
      <trkpt lat="47.51234" lon="6.71978">
        <ele>446.8</ele>
        <time>2014-10-31T13:33:00.000Z</time>
      </trkpt>
      <trkpt lat="47.51234" lon="6.71974">
        <ele>445.6</ele>
        <time>2014-10-31T13:33:01.000Z</time>
      </trkpt>
      <trkpt lat="47.51234" lon="6.71971">
        <ele>445.4</ele>
        <time>2014-10-31T13:33:01.999Z</time>
      </trkpt>
      <trkpt lat="47.51233" lon="6.71966">
        <ele>445.6</ele>
        <time>2014-10-31T13:33:03.000Z</time>
      </trkpt>
      <trkpt lat="47.51232" lon="6.71962">
        <ele>444.2</ele>
        <time>2014-10-31T13:33:04.000Z</time>
      </trkpt>
      <trkpt lat="47.51231" lon="6.71958">
        <ele>444</ele>
        <time>2014-10-31T13:33:05.000Z</time>
      </trkpt>
      <trkpt lat="47.5123" lon="6.71954">
        <ele>444.1</ele>
        <time>2014-10-31T13:33:06.000Z</time>
      </trkpt>
      <trkpt lat="47.51229" lon="6.71949">
        <ele>444.9</ele>
        <time>2014-10-31T13:33:07.000Z</time>
      </trkpt>
      <trkpt lat="47.51229" lon="6.71944">
        <ele>447.2</ele>
        <time>2014-10-31T13:33:08.000Z</time>
      </trkpt>
      <trkpt lat="47.51228" lon="6.71938">
        <ele>447</ele>
        <time>2014-10-31T13:33:09.000Z</time>
      </trkpt>
      <trkpt lat="47.51228" lon="6.71933">
        <ele>446.2</ele>
        <time>2014-10-31T13:33:10.000Z</time>
      </trkpt>
      <trkpt lat="47.51228" lon="6.71929">
        <ele>448.8</ele>
        <time>2014-10-31T13:33:11.000Z</time>
      </trkpt>
      <trkpt lat="47.51227" lon="6.71926">
        <ele>450.8</ele>
        <time>2014-10-31T13:33:12.000Z</time>
      </trkpt>
      <trkpt lat="47.51226" lon="6.7192">
        <ele>453.7</ele>
        <time>2014-10-31T13:33:14.000Z</time>
      </trkpt>
      <trkpt lat="47.51225" lon="6.71915">
        <ele>454</ele>
        <time>2014-10-31T13:33:15.000Z</time>
      </trkpt>
      <trkpt lat="47.51224" lon="6.71912">
        <ele>454.2</ele>
        <time>2014-10-31T13:33:16.000Z</time>
      </trkpt>
      <trkpt lat="47.51223" lon="6.71902">
        <ele>454.2</ele>
        <time>2014-10-31T13:33:17.000Z</time>
      </trkpt>
      <trkpt lat="47.51223" lon="6.71895">
        <ele>456.9</ele>
        <time>2014-10-31T13:33:18.000Z</time>
      </trkpt>
      <trkpt lat="47.51223" lon="6.71888">
        <ele>457.5</ele>
        <time>2014-10-31T13:33:19.000Z</time>
      </trkpt>
      <trkpt lat="47.51222" lon="6.71883">
        <ele>461.4</ele>
        <time>2014-10-31T13:33:20.000Z</time>
      </trkpt>
      <trkpt lat="47.51222" lon="6.71878">
        <ele>462.8</ele>
        <time>2014-10-31T13:33:21.000Z</time>
      </trkpt>
      <trkpt lat="47.51221" lon="6.71874">
        <ele>462.6</ele>
        <time>2014-10-31T13:33:22.000Z</time>
      </trkpt>
      <trkpt lat="47.51221" lon="6.71869">
        <ele>462.2</ele>
        <time>2014-10-31T13:33:23.000Z</time>
      </trkpt>
      <trkpt lat="47.5122" lon="6.71864">
        <ele>464.2</ele>
        <time>2014-10-31T13:33:24.000Z</time>
      </trkpt>
      <trkpt lat="47.5122" lon="6.7186">
        <ele>464</ele>
        <time>2014-10-31T13:33:25.000Z</time>
      </trkpt>
      <trkpt lat="47.51219" lon="6.71855">
        <ele>464</ele>
        <time>2014-10-31T13:33:26.000Z</time>
      </trkpt>
      <trkpt lat="47.51219" lon="6.71849">
        <ele>463.2</ele>
        <time>2014-10-31T13:33:27.000Z</time>
      </trkpt>
      <trkpt lat="47.51218" lon="6.71843">
        <ele>464</ele>
        <time>2014-10-31T13:33:28.000Z</time>
      </trkpt>
      <trkpt lat="47.51218" lon="6.71837">
        <ele>464</ele>
        <time>2014-10-31T13:33:29.000Z</time>
      </trkpt>
      <trkpt lat="47.51217" lon="6.71831">
        <ele>464.5</ele>
        <time>2014-10-31T13:33:30.000Z</time>
      </trkpt>
      <trkpt lat="47.51217" lon="6.71824">
        <ele>463.8</ele>
        <time>2014-10-31T13:33:31.000Z</time>
      </trkpt>
      <trkpt lat="47.51216" lon="6.71817">
        <ele>462.3</ele>
        <time>2014-10-31T13:33:32.000Z</time>
      </trkpt>
      <trkpt lat="47.51215" lon="6.71811">
        <ele>460.8</ele>
        <time>2014-10-31T13:33:33.000Z</time>
      </trkpt>
      <trkpt lat="47.51214" lon="6.71806">
        <ele>461.6</ele>
        <time>2014-10-31T13:33:34.000Z</time>
      </trkpt>
      <trkpt lat="47.51214" lon="6.71802">
        <ele>461.2</ele>
        <time>2014-10-31T13:33:35.000Z</time>
      </trkpt>
      <trkpt lat="47.51213" lon="6.71798">
        <ele>461.9</ele>
        <time>2014-10-31T13:33:36.000Z</time>
      </trkpt>
      <trkpt lat="47.51213" lon="6.71793">
        <ele>461.7</ele>
        <time>2014-10-31T13:33:37.000Z</time>
      </trkpt>
      <trkpt lat="47.51212" lon="6.71788">
        <ele>461.9</ele>
        <time>2014-10-31T13:33:38.000Z</time>
      </trkpt>
      <trkpt lat="47.51212" lon="6.71782">
        <ele>461.2</ele>
        <time>2014-10-31T13:33:39.000Z</time>
      </trkpt>
      <trkpt lat="47.51212" lon="6.71777">
        <ele>462.3</ele>
        <time>2014-10-31T13:33:40.000Z</time>
      </trkpt>
      <trkpt lat="47.51213" lon="6.71772">
        <ele>462</ele>
        <time>2014-10-31T13:33:41.000Z</time>
      </trkpt>
      <trkpt lat="47.51214" lon="6.71768">
        <ele>461.9</ele>
        <time>2014-10-31T13:33:42.000Z</time>
      </trkpt>
      <trkpt lat="47.51215" lon="6.71764">
        <ele>461.5</ele>
        <time>2014-10-31T13:33:43.000Z</time>
      </trkpt>
      <trkpt lat="47.51215" lon="6.71759">
        <ele>461.1</ele>
        <time>2014-10-31T13:33:44.000Z</time>
      </trkpt>
      <trkpt lat="47.51214" lon="6.71754">
        <ele>460.2</ele>
        <time>2014-10-31T13:33:45.000Z</time>
      </trkpt>
      <trkpt lat="47.51213" lon="6.71749">
        <ele>457.6</ele>
        <time>2014-10-31T13:33:46.000Z</time>
      </trkpt>
      <trkpt lat="47.51212" lon="6.71745">
        <ele>456.2</ele>
        <time>2014-10-31T13:33:47.000Z</time>
      </trkpt>
      <trkpt lat="47.5121" lon="6.71741">
        <ele>456.7</ele>
        <time>2014-10-31T13:33:48.000Z</time>
      </trkpt>
      <trkpt lat="47.51209" lon="6.71736">
        <ele>457</ele>
        <time>2014-10-31T13:33:49.000Z</time>
      </trkpt>
      <trkpt lat="47.51208" lon="6.71731">
        <ele>456.9</ele>
        <time>2014-10-31T13:33:50.000Z</time>
      </trkpt>
      <trkpt lat="47.51207" lon="6.71726">
        <ele>457.4</ele>
        <time>2014-10-31T13:33:51.000Z</time>
      </trkpt>
      <trkpt lat="47.51205" lon="6.7172">
        <ele>458.4</ele>
        <time>2014-10-31T13:33:52.000Z</time>
      </trkpt>
      <trkpt lat="47.51206" lon="6.71679">
        <ele>450.4</ele>
        <time>2014-10-31T13:34:00.000Z</time>
      </trkpt>
      <trkpt lat="47.51207" lon="6.71675">
        <ele>447.2</ele>
        <time>2014-10-31T13:34:01.000Z</time>
      </trkpt>
      <trkpt lat="47.51208" lon="6.71669">
        <ele>449.1</ele>
        <time>2014-10-31T13:34:02.000Z</time>
      </trkpt>
      <trkpt lat="47.5121" lon="6.71663">
        <ele>450.1</ele>
        <time>2014-10-31T13:34:03.000Z</time>
      </trkpt>
      <trkpt lat="47.51211" lon="6.71658">
        <ele>450.2</ele>
        <time>2014-10-31T13:34:04.000Z</time>
      </trkpt>
      <trkpt lat="47.51211" lon="6.71653">
        <ele>450.9</ele>
        <time>2014-10-31T13:34:05.000Z</time>
      </trkpt>
      <trkpt lat="47.51211" lon="6.71648">
        <ele>451.4</ele>
        <time>2014-10-31T13:34:06.000Z</time>
      </trkpt>
      <trkpt lat="47.51211" lon="6.71644">
        <ele>455.3</ele>
        <time>2014-10-31T13:34:07.000Z</time>
      </trkpt>
      <trkpt lat="47.5121" lon="6.7164">
        <ele>457.8</ele>
        <time>2014-10-31T13:34:08.000Z</time>
      </trkpt>
      <trkpt lat="47.51209" lon="6.71636">
        <ele>459.8</ele>
        <time>2014-10-31T13:34:09.000Z</time>
      </trkpt>
      <trkpt lat="47.51208" lon="6.71633">
        <ele>460.6</ele>
        <time>2014-10-31T13:34:10.000Z</time>
      </trkpt>
      <trkpt lat="47.51208" lon="6.71629">
        <ele>461.3</ele>
        <time>2014-10-31T13:34:11.000Z</time>
      </trkpt>
      <trkpt lat="47.51208" lon="6.71625">
        <ele>462.2</ele>
        <time>2014-10-31T13:34:12.000Z</time>
      </trkpt>
      <trkpt lat="47.51208" lon="6.71621">
        <ele>462.2</ele>
        <time>2014-10-31T13:34:13.000Z</time>
      </trkpt>
      <trkpt lat="47.51208" lon="6.71616">
        <ele>460.5</ele>
        <time>2014-10-31T13:34:14.000Z</time>
      </trkpt>
      <trkpt lat="47.51209" lon="6.71612">
        <ele>460</ele>
        <time>2014-10-31T13:34:15.000Z</time>
      </trkpt>
      <trkpt lat="47.5121" lon="6.71608">
        <ele>458.9</ele>
        <time>2014-10-31T13:34:16.000Z</time>
      </trkpt>
      <trkpt lat="47.51211" lon="6.71603">
        <ele>458.4</ele>
        <time>2014-10-31T13:34:17.000Z</time>
      </trkpt>
      <trkpt lat="47.51212" lon="6.71599">
        <ele>457.1</ele>
        <time>2014-10-31T13:34:18.000Z</time>
      </trkpt>
      <trkpt lat="47.51212" lon="6.71593">
        <ele>456.4</ele>
        <time>2014-10-31T13:34:19.000Z</time>
      </trkpt>
      <trkpt lat="47.51212" lon="6.71587">
        <ele>454.4</ele>
        <time>2014-10-31T13:34:20.000Z</time>
      </trkpt>
      <trkpt lat="47.51213" lon="6.71582">
        <ele>454.7</ele>
        <time>2014-10-31T13:34:21.000Z</time>
      </trkpt>
      <trkpt lat="47.51214" lon="6.71575">
        <ele>454.4</ele>
        <time>2014-10-31T13:34:22.000Z</time>
      </trkpt>
      <trkpt lat="47.51214" lon="6.7157">
        <ele>454.4</ele>
        <time>2014-10-31T13:34:23.000Z</time>
      </trkpt>
      <trkpt lat="47.51214" lon="6.71565">
        <ele>455.5</ele>
        <time>2014-10-31T13:34:24.000Z</time>
      </trkpt>
      <trkpt lat="47.51215" lon="6.7156">
        <ele>456.9</ele>
        <time>2014-10-31T13:34:25.000Z</time>
      </trkpt>
      <trkpt lat="47.51215" lon="6.71555">
        <ele>457.8</ele>
        <time>2014-10-31T13:34:26.000Z</time>
      </trkpt>
      <trkpt lat="47.51215" lon="6.71549">
        <ele>457</ele>
        <time>2014-10-31T13:34:27.000Z</time>
      </trkpt>
      <trkpt lat="47.51216" lon="6.71544">
        <ele>459.1</ele>
        <time>2014-10-31T13:34:28.000Z</time>
      </trkpt>
      <trkpt lat="47.51217" lon="6.71539">
        <ele>460.2</ele>
        <time>2014-10-31T13:34:29.000Z</time>
      </trkpt>
      <trkpt lat="47.51218" lon="6.71535">
        <ele>458.8</ele>
        <time>2014-10-31T13:34:30.000Z</time>
      </trkpt>
      <trkpt lat="47.5122" lon="6.71529">
        <ele>457.1</ele>
        <time>2014-10-31T13:34:31.000Z</time>
      </trkpt>
      <trkpt lat="47.51221" lon="6.71524">
        <ele>455.9</ele>
        <time>2014-10-31T13:34:32.000Z</time>
      </trkpt>
      <trkpt lat="47.51223" lon="6.71518">
        <ele>457</ele>
        <time>2014-10-31T13:34:33.000Z</time>
      </trkpt>
      <trkpt lat="47.51224" lon="6.71512">
        <ele>456.8</ele>
        <time>2014-10-31T13:34:34.000Z</time>
      </trkpt>
      <trkpt lat="47.51225" lon="6.71506">
        <ele>457.6</ele>
        <time>2014-10-31T13:34:35.000Z</time>
      </trkpt>
      <trkpt lat="47.51226" lon="6.71501">
        <ele>459</ele>
        <time>2014-10-31T13:34:36.000Z</time>
      </trkpt>
      <trkpt lat="47.51227" lon="6.71496">
        <ele>462.9</ele>
        <time>2014-10-31T13:34:37.000Z</time>
      </trkpt>
      <trkpt lat="47.51227" lon="6.71492">
        <ele>464.7</ele>
        <time>2014-10-31T13:34:38.000Z</time>
      </trkpt>
      <trkpt lat="47.51227" lon="6.71488">
        <ele>466.5</ele>
        <time>2014-10-31T13:34:39.001Z</time>
      </trkpt>
      <trkpt lat="47.51226" lon="6.71483">
        <ele>464.9</ele>
        <time>2014-10-31T13:34:40.000Z</time>
      </trkpt>
      <trkpt lat="47.51229" lon="6.71468">
        <ele>465.3</ele>
        <time>2014-10-31T13:34:41.000Z</time>
      </trkpt>
      <trkpt lat="47.5123" lon="6.71459">
        <ele>463.9</ele>
        <time>2014-10-31T13:34:42.000Z</time>
      </trkpt>
      <trkpt lat="47.51231" lon="6.71452">
        <ele>463.4</ele>
        <time>2014-10-31T13:34:43.000Z</time>
      </trkpt>
      <trkpt lat="47.51233" lon="6.71445">
        <ele>463.5</ele>
        <time>2014-10-31T13:34:44.000Z</time>
      </trkpt>
      <trkpt lat="47.51235" lon="6.71441">
        <ele>463.5</ele>
        <time>2014-10-31T13:34:45.000Z</time>
      </trkpt>
      <trkpt lat="47.51232" lon="6.7143">
        <ele>463.6</ele>
        <time>2014-10-31T13:34:46.000Z</time>
      </trkpt>
      <trkpt lat="47.51234" lon="6.71424">
        <ele>460.9</ele>
        <time>2014-10-31T13:34:47.000Z</time>
      </trkpt>
      <trkpt lat="47.51235" lon="6.71419">
        <ele>458.2</ele>
        <time>2014-10-31T13:34:48.000Z</time>
      </trkpt>
      <trkpt lat="47.51237" lon="6.71416">
        <ele>456.5</ele>
        <time>2014-10-31T13:34:49.000Z</time>
      </trkpt>
      <trkpt lat="47.51238" lon="6.71411">
        <ele>457.8</ele>
        <time>2014-10-31T13:34:50.000Z</time>
      </trkpt>
      <trkpt lat="47.51239" lon="6.71406">
        <ele>458.1</ele>
        <time>2014-10-31T13:34:51.000Z</time>
      </trkpt>
      <trkpt lat="47.51242" lon="6.71391">
        <ele>457.6</ele>
        <time>2014-10-31T13:34:54.000Z</time>
      </trkpt>
      <trkpt lat="47.51242" lon="6.71387">
        <ele>457.1</ele>
        <time>2014-10-31T13:34:55.000Z</time>
      </trkpt>
      <trkpt lat="47.51242" lon="6.71381">
        <ele>457.2</ele>
        <time>2014-10-31T13:34:56.000Z</time>
      </trkpt>
      <trkpt lat="47.51242" lon="6.71376">
        <ele>455.6</ele>
        <time>2014-10-31T13:34:57.000Z</time>
      </trkpt>
      <trkpt lat="47.51242" lon="6.71372">
        <ele>454.6</ele>
        <time>2014-10-31T13:34:58.000Z</time>
      </trkpt>
      <trkpt lat="47.51242" lon="6.71367">
        <ele>455.1</ele>
        <time>2014-10-31T13:34:59.000Z</time>
      </trkpt>
      <trkpt lat="47.51242" lon="6.71362">
        <ele>455.8</ele>
        <time>2014-10-31T13:35:00.000Z</time>
      </trkpt>
      <trkpt lat="47.51242" lon="6.71356">
        <ele>455.8</ele>
        <time>2014-10-31T13:35:01.000Z</time>
      </trkpt>
      <trkpt lat="47.51242" lon="6.71349">
        <ele>455.2</ele>
        <time>2014-10-31T13:35:02.000Z</time>
      </trkpt>
      <trkpt lat="47.51239" lon="6.71338">
        <ele>454.9</ele>
        <time>2014-10-31T13:35:03.000Z</time>
      </trkpt>
      <trkpt lat="47.51241" lon="6.71331">
        <ele>452.1</ele>
        <time>2014-10-31T13:35:04.000Z</time>
      </trkpt>
      <trkpt lat="47.51241" lon="6.71326">
        <ele>453.2</ele>
        <time>2014-10-31T13:35:05.000Z</time>
      </trkpt>
      <trkpt lat="47.51241" lon="6.71321">
        <ele>453.1</ele>
        <time>2014-10-31T13:35:06.000Z</time>
      </trkpt>
      <trkpt lat="47.5124" lon="6.71314">
        <ele>452.5</ele>
        <time>2014-10-31T13:35:07.000Z</time>
      </trkpt>
      <trkpt lat="47.51241" lon="6.71307">
        <ele>455</ele>
        <time>2014-10-31T13:35:08.000Z</time>
      </trkpt>
      <trkpt lat="47.51241" lon="6.71299">
        <ele>457.8</ele>
        <time>2014-10-31T13:35:09.000Z</time>
      </trkpt>
      <trkpt lat="47.51242" lon="6.71291">
        <ele>457.4</ele>
        <time>2014-10-31T13:35:10.000Z</time>
      </trkpt>
      <trkpt lat="47.51243" lon="6.71286">
        <ele>456.7</ele>
        <time>2014-10-31T13:35:11.000Z</time>
      </trkpt>
      <trkpt lat="47.51245" lon="6.71279">
        <ele>456.3</ele>
        <time>2014-10-31T13:35:12.000Z</time>
      </trkpt>
      <trkpt lat="47.51244" lon="6.71275">
        <ele>458.1</ele>
        <time>2014-10-31T13:35:13.000Z</time>
      </trkpt>
      <trkpt lat="47.51245" lon="6.7127">
        <ele>456.9</ele>
        <time>2014-10-31T13:35:14.000Z</time>
      </trkpt>
      <trkpt lat="47.51245" lon="6.71264">
        <ele>456.5</ele>
        <time>2014-10-31T13:35:15.000Z</time>
      </trkpt>
      <trkpt lat="47.51246" lon="6.71257">
        <ele>457.4</ele>
        <time>2014-10-31T13:35:16.000Z</time>
      </trkpt>
      <trkpt lat="47.51247" lon="6.71252">
        <ele>457.9</ele>
        <time>2014-10-31T13:35:17.000Z</time>
      </trkpt>
      <trkpt lat="47.51248" lon="6.7125">
        <ele>454.5</ele>
        <time>2014-10-31T13:35:18.000Z</time>
      </trkpt>
      <trkpt lat="47.51247" lon="6.71245">
        <ele>452.5</ele>
        <time>2014-10-31T13:35:19.000Z</time>
      </trkpt>
      <trkpt lat="47.51248" lon="6.7124">
        <ele>450.3</ele>
        <time>2014-10-31T13:35:20.000Z</time>
      </trkpt>
      <trkpt lat="47.51248" lon="6.71236">
        <ele>449.4</ele>
        <time>2014-10-31T13:35:21.000Z</time>
      </trkpt>
      <trkpt lat="47.51249" lon="6.71232">
        <ele>449.1</ele>
        <time>2014-10-31T13:35:22.000Z</time>
      </trkpt>
      <trkpt lat="47.5125" lon="6.71228">
        <ele>448.7</ele>
        <time>2014-10-31T13:35:23.000Z</time>
      </trkpt>
      <trkpt lat="47.51251" lon="6.71222">
        <ele>450.9</ele>
        <time>2014-10-31T13:35:24.000Z</time>
      </trkpt>
      <trkpt lat="47.51251" lon="6.71218">
        <ele>450.5</ele>
        <time>2014-10-31T13:35:25.000Z</time>
      </trkpt>
      <trkpt lat="47.51252" lon="6.71213">
        <ele>449.8</ele>
        <time>2014-10-31T13:35:26.000Z</time>
      </trkpt>
      <trkpt lat="47.51252" lon="6.71208">
        <ele>450.7</ele>
        <time>2014-10-31T13:35:27.000Z</time>
      </trkpt>
      <trkpt lat="47.51252" lon="6.71203">
        <ele>451.7</ele>
        <time>2014-10-31T13:35:28.000Z</time>
      </trkpt>
      <trkpt lat="47.51253" lon="6.71197">
        <ele>450.8</ele>
        <time>2014-10-31T13:35:29.000Z</time>
      </trkpt>
      <trkpt lat="47.51254" lon="6.71192">
        <ele>452.1</ele>
        <time>2014-10-31T13:35:30.000Z</time>
      </trkpt>
      <trkpt lat="47.51255" lon="6.71186">
        <ele>452.8</ele>
        <time>2014-10-31T13:35:31.000Z</time>
      </trkpt>
      <trkpt lat="47.51257" lon="6.71181">
        <ele>454.7</ele>
        <time>2014-10-31T13:35:32.000Z</time>
      </trkpt>
      <trkpt lat="47.51258" lon="6.71177">
        <ele>455.1</ele>
        <time>2014-10-31T13:35:33.000Z</time>
      </trkpt>
      <trkpt lat="47.51259" lon="6.71173">
        <ele>455.6</ele>
        <time>2014-10-31T13:35:34.000Z</time>
      </trkpt>
      <trkpt lat="47.5126" lon="6.71169">
        <ele>453.9</ele>
        <time>2014-10-31T13:35:35.000Z</time>
      </trkpt>
      <trkpt lat="47.51261" lon="6.71164">
        <ele>452.7</ele>
        <time>2014-10-31T13:35:36.000Z</time>
      </trkpt>
      <trkpt lat="47.51261" lon="6.7116">
        <ele>453.1</ele>
        <time>2014-10-31T13:35:37.000Z</time>
      </trkpt>
      <trkpt lat="47.51262" lon="6.71156">
        <ele>454.9</ele>
        <time>2014-10-31T13:35:38.000Z</time>
      </trkpt>
      <trkpt lat="47.51262" lon="6.71152">
        <ele>455.8</ele>
        <time>2014-10-31T13:35:39.000Z</time>
      </trkpt>
      <trkpt lat="47.51262" lon="6.71148">
        <ele>456.4</ele>
        <time>2014-10-31T13:35:40.000Z</time>
      </trkpt>
      <trkpt lat="47.51262" lon="6.71143">
        <ele>457.5</ele>
        <time>2014-10-31T13:35:41.000Z</time>
      </trkpt>
      <trkpt lat="47.51261" lon="6.71137">
        <ele>456.6</ele>
        <time>2014-10-31T13:35:42.000Z</time>
      </trkpt>
      <trkpt lat="47.51261" lon="6.71131">
        <ele>455.1</ele>
        <time>2014-10-31T13:35:43.000Z</time>
      </trkpt>
      <trkpt lat="47.5126" lon="6.71125">
        <ele>454.4</ele>
        <time>2014-10-31T13:35:44.000Z</time>
      </trkpt>
      <trkpt lat="47.5126" lon="6.71119">
        <ele>454.7</ele>
        <time>2014-10-31T13:35:45.000Z</time>
      </trkpt>
      <trkpt lat="47.5126" lon="6.71114">
        <ele>455.4</ele>
        <time>2014-10-31T13:35:46.000Z</time>
      </trkpt>
      <trkpt lat="47.5126" lon="6.71109">
        <ele>455.3</ele>
        <time>2014-10-31T13:35:47.000Z</time>
      </trkpt>
      <trkpt lat="47.5126" lon="6.71104">
        <ele>455.7</ele>
        <time>2014-10-31T13:35:48.000Z</time>
      </trkpt>
      <trkpt lat="47.5126" lon="6.711">
        <ele>453.1</ele>
        <time>2014-10-31T13:35:49.000Z</time>
      </trkpt>
      <trkpt lat="47.51261" lon="6.71096">
        <ele>451</ele>
        <time>2014-10-31T13:35:50.000Z</time>
      </trkpt>
      <trkpt lat="47.51261" lon="6.71092">
        <ele>449.4</ele>
        <time>2014-10-31T13:35:51.000Z</time>
      </trkpt>
      <trkpt lat="47.51263" lon="6.71083">
        <ele>444.4</ele>
        <time>2014-10-31T13:35:54.000Z</time>
      </trkpt>
      <trkpt lat="47.51264" lon="6.71079">
        <ele>444.4</ele>
        <time>2014-10-31T13:35:55.000Z</time>
      </trkpt>
      <trkpt lat="47.51264" lon="6.71073">
        <ele>444.9</ele>
        <time>2014-10-31T13:35:56.000Z</time>
      </trkpt>
      <trkpt lat="47.51264" lon="6.71067">
        <ele>445.2</ele>
        <time>2014-10-31T13:35:57.000Z</time>
      </trkpt>
      <trkpt lat="47.51266" lon="6.71062">
        <ele>444.7</ele>
        <time>2014-10-31T13:35:58.000Z</time>
      </trkpt>
      <trkpt lat="47.51268" lon="6.71057">
        <ele>444.5</ele>
        <time>2014-10-31T13:35:59.000Z</time>
      </trkpt>
      <trkpt lat="47.5127" lon="6.71051">
        <ele>443.5</ele>
        <time>2014-10-31T13:36:00.000Z</time>
      </trkpt>
      <trkpt lat="47.51272" lon="6.71046">
        <ele>447.2</ele>
        <time>2014-10-31T13:36:01.000Z</time>
      </trkpt>
      <trkpt lat="47.51272" lon="6.71039">
        <ele>447.7</ele>
        <time>2014-10-31T13:36:02.000Z</time>
      </trkpt>
      <trkpt lat="47.51272" lon="6.71032">
        <ele>446.4</ele>
        <time>2014-10-31T13:36:03.000Z</time>
      </trkpt>
      <trkpt lat="47.51273" lon="6.71025">
        <ele>446.5</ele>
        <time>2014-10-31T13:36:04.000Z</time>
      </trkpt>
      <trkpt lat="47.51273" lon="6.71019">
        <ele>447.1</ele>
        <time>2014-10-31T13:36:05.000Z</time>
      </trkpt>
      <trkpt lat="47.51273" lon="6.71012">
        <ele>446.4</ele>
        <time>2014-10-31T13:36:06.000Z</time>
      </trkpt>
      <trkpt lat="47.51272" lon="6.71005">
        <ele>448.5</ele>
        <time>2014-10-31T13:36:07.000Z</time>
      </trkpt>
      <trkpt lat="47.51273" lon="6.70999">
        <ele>448.3</ele>
        <time>2014-10-31T13:36:08.000Z</time>
      </trkpt>
      <trkpt lat="47.51272" lon="6.70991">
        <ele>449.9</ele>
        <time>2014-10-31T13:36:09.000Z</time>
      </trkpt>
      <trkpt lat="47.51272" lon="6.70986">
        <ele>449.4</ele>
        <time>2014-10-31T13:36:10.000Z</time>
      </trkpt>
      <trkpt lat="47.51272" lon="6.70981">
        <ele>450.9</ele>
        <time>2014-10-31T13:36:11.000Z</time>
      </trkpt>
      <trkpt lat="47.51273" lon="6.70977">
        <ele>452.4</ele>
        <time>2014-10-31T13:36:12.001Z</time>
      </trkpt>
      <trkpt lat="47.51272" lon="6.70973">
        <ele>452.8</ele>
        <time>2014-10-31T13:36:13.000Z</time>
      </trkpt>
      <trkpt lat="47.51272" lon="6.70969">
        <ele>453.6</ele>
        <time>2014-10-31T13:36:14.000Z</time>
      </trkpt>
      <trkpt lat="47.51272" lon="6.70965">
        <ele>454.5</ele>
        <time>2014-10-31T13:36:15.000Z</time>
      </trkpt>
      <trkpt lat="47.51272" lon="6.7096">
        <ele>456.9</ele>
        <time>2014-10-31T13:36:16.000Z</time>
      </trkpt>
      <trkpt lat="47.51271" lon="6.70955">
        <ele>456.9</ele>
        <time>2014-10-31T13:36:17.000Z</time>
      </trkpt>
      <trkpt lat="47.5127" lon="6.7095">
        <ele>457.3</ele>
        <time>2014-10-31T13:36:18.000Z</time>
      </trkpt>
      <trkpt lat="47.51268" lon="6.70946">
        <ele>456.8</ele>
        <time>2014-10-31T13:36:19.000Z</time>
      </trkpt>
      <trkpt lat="47.51267" lon="6.70941">
        <ele>457.5</ele>
        <time>2014-10-31T13:36:20.000Z</time>
      </trkpt>
      <trkpt lat="47.51266" lon="6.70937">
        <ele>458.3</ele>
        <time>2014-10-31T13:36:21.000Z</time>
      </trkpt>
      <trkpt lat="47.51267" lon="6.70932">
        <ele>458.4</ele>
        <time>2014-10-31T13:36:23.000Z</time>
      </trkpt>
      <trkpt lat="47.51269" lon="6.70931">
        <ele>458.7</ele>
        <time>2014-10-31T13:36:24.000Z</time>
      </trkpt>
      <trkpt lat="47.51271" lon="6.70929">
        <ele>459.7</ele>
        <time>2014-10-31T13:36:25.000Z</time>
      </trkpt>
      <trkpt lat="47.51272" lon="6.70927">
        <ele>458</ele>
        <time>2014-10-31T13:36:26.000Z</time>
      </trkpt>
      <trkpt lat="47.51274" lon="6.70923">
        <ele>457.5</ele>
        <time>2014-10-31T13:36:27.000Z</time>
      </trkpt>
      <trkpt lat="47.51276" lon="6.7092">
        <ele>456.7</ele>
        <time>2014-10-31T13:36:28.000Z</time>
      </trkpt>
      <trkpt lat="47.51278" lon="6.70917">
        <ele>457.6</ele>
        <time>2014-10-31T13:36:29.000Z</time>
      </trkpt>
      <trkpt lat="47.5128" lon="6.70916">
        <ele>458</ele>
        <time>2014-10-31T13:36:30.000Z</time>
      </trkpt>
      <trkpt lat="47.51283" lon="6.70915">
        <ele>457.5</ele>
        <time>2014-10-31T13:36:31.000Z</time>
      </trkpt>
      <trkpt lat="47.51286" lon="6.70914">
        <ele>457.2</ele>
        <time>2014-10-31T13:36:32.000Z</time>
      </trkpt>
      <trkpt lat="47.51289" lon="6.70914">
        <ele>456.5</ele>
        <time>2014-10-31T13:36:33.000Z</time>
      </trkpt>
      <trkpt lat="47.51292" lon="6.70912">
        <ele>455.2</ele>
        <time>2014-10-31T13:36:34.000Z</time>
      </trkpt>
      <trkpt lat="47.51294" lon="6.7091">
        <ele>454.6</ele>
        <time>2014-10-31T13:36:35.000Z</time>
      </trkpt>
      <trkpt lat="47.51295" lon="6.70906">
        <ele>452.6</ele>
        <time>2014-10-31T13:36:36.000Z</time>
      </trkpt>
      <trkpt lat="47.51296" lon="6.70902">
        <ele>451.6</ele>
        <time>2014-10-31T13:36:37.000Z</time>
      </trkpt>
      <trkpt lat="47.51295" lon="6.70898">
        <ele>449.6</ele>
        <time>2014-10-31T13:36:38.000Z</time>
      </trkpt>
      <trkpt lat="47.51294" lon="6.70893">
        <ele>449.3</ele>
        <time>2014-10-31T13:36:39.000Z</time>
      </trkpt>
      <trkpt lat="47.51293" lon="6.70888">
        <ele>448.9</ele>
        <time>2014-10-31T13:36:40.000Z</time>
      </trkpt>
      <trkpt lat="47.51291" lon="6.70883">
        <ele>449.7</ele>
        <time>2014-10-31T13:36:41.000Z</time>
      </trkpt>
      <trkpt lat="47.5129" lon="6.70878">
        <ele>450.1</ele>
        <time>2014-10-31T13:36:42.000Z</time>
      </trkpt>
      <trkpt lat="47.5129" lon="6.70872">
        <ele>449.3</ele>
        <time>2014-10-31T13:36:44.000Z</time>
      </trkpt>
      <trkpt lat="47.51291" lon="6.70871">
        <ele>448</ele>
        <time>2014-10-31T13:36:45.000Z</time>
      </trkpt>
      <trkpt lat="47.51292" lon="6.70866">
        <ele>447.6</ele>
        <time>2014-10-31T13:36:47.000Z</time>
      </trkpt>
      <trkpt lat="47.51292" lon="6.70862">
        <ele>446.4</ele>
        <time>2014-10-31T13:36:48.000Z</time>
      </trkpt>
      <trkpt lat="47.51291" lon="6.70858">
        <ele>446.6</ele>
        <time>2014-10-31T13:36:49.000Z</time>
      </trkpt>
      <trkpt lat="47.51291" lon="6.70854">
        <ele>448.1</ele>
        <time>2014-10-31T13:36:50.000Z</time>
      </trkpt>
      <trkpt lat="47.51291" lon="6.70851">
        <ele>449.7</ele>
        <time>2014-10-31T13:36:51.000Z</time>
      </trkpt>
      <trkpt lat="47.51288" lon="6.70817">
        <ele>440.5</ele>
        <time>2014-10-31T13:36:58.785Z</time>
      </trkpt>
      <trkpt lat="47.51289" lon="6.7081">
        <ele>439.8</ele>
        <time>2014-10-31T13:37:00.000Z</time>
      </trkpt>
      <trkpt lat="47.5129" lon="6.70804">
        <ele>438.6</ele>
        <time>2014-10-31T13:37:01.000Z</time>
      </trkpt>
      <trkpt lat="47.51291" lon="6.70797">
        <ele>436.3</ele>
        <time>2014-10-31T13:37:02.000Z</time>
      </trkpt>
      <trkpt lat="47.51292" lon="6.70792">
        <ele>433.5</ele>
        <time>2014-10-31T13:37:03.000Z</time>
      </trkpt>
      <trkpt lat="47.51292" lon="6.70788">
        <ele>433.7</ele>
        <time>2014-10-31T13:37:04.000Z</time>
      </trkpt>
      <trkpt lat="47.51293" lon="6.70782">
        <ele>435.5</ele>
        <time>2014-10-31T13:37:06.000Z</time>
      </trkpt>
      <trkpt lat="47.51294" lon="6.70779">
        <ele>436.3</ele>
        <time>2014-10-31T13:37:07.000Z</time>
      </trkpt>
      <trkpt lat="47.51294" lon="6.70774">
        <ele>435.6</ele>
        <time>2014-10-31T13:37:08.000Z</time>
      </trkpt>
      <trkpt lat="47.51293" lon="6.70769">
        <ele>432.1</ele>
        <time>2014-10-31T13:37:09.000Z</time>
      </trkpt>
      <trkpt lat="47.51292" lon="6.70765">
        <ele>431</ele>
        <time>2014-10-31T13:37:10.000Z</time>
      </trkpt>
      <trkpt lat="47.51292" lon="6.7076">
        <ele>429.7</ele>
        <time>2014-10-31T13:37:11.000Z</time>
      </trkpt>
      <trkpt lat="47.51291" lon="6.70755">
        <ele>429.1</ele>
        <time>2014-10-31T13:37:12.000Z</time>
      </trkpt>
      <trkpt lat="47.51291" lon="6.7075">
        <ele>427.3</ele>
        <time>2014-10-31T13:37:13.000Z</time>
      </trkpt>
      <trkpt lat="47.51292" lon="6.70745">
        <ele>427.5</ele>
        <time>2014-10-31T13:37:14.000Z</time>
      </trkpt>
      <trkpt lat="47.513" lon="6.70732">
        <ele>427.9</ele>
        <time>2014-10-31T13:37:15.000Z</time>
      </trkpt>
      <trkpt lat="47.51301" lon="6.70722">
        <ele>428.7</ele>
        <time>2014-10-31T13:37:16.000Z</time>
      </trkpt>
      <trkpt lat="47.513" lon="6.70712">
        <ele>428.3</ele>
        <time>2014-10-31T13:37:17.000Z</time>
      </trkpt>
      <trkpt lat="47.51301" lon="6.70703">
        <ele>428.7</ele>
        <time>2014-10-31T13:37:18.000Z</time>
      </trkpt>
      <trkpt lat="47.51301" lon="6.70692">
        <ele>429.5</ele>
        <time>2014-10-31T13:37:19.000Z</time>
      </trkpt>
      <trkpt lat="47.51302" lon="6.70685">
        <ele>428.9</ele>
        <time>2014-10-31T13:37:20.000Z</time>
      </trkpt>
      <trkpt lat="47.51302" lon="6.70673">
        <ele>429</ele>
        <time>2014-10-31T13:37:21.000Z</time>
      </trkpt>
      <trkpt lat="47.51304" lon="6.70663">
        <ele>426.4</ele>
        <time>2014-10-31T13:37:22.000Z</time>
      </trkpt>
      <trkpt lat="47.51304" lon="6.70654">
        <ele>426.8</ele>
        <time>2014-10-31T13:37:23.000Z</time>
      </trkpt>
      <trkpt lat="47.51305" lon="6.70649">
        <ele>424.1</ele>
        <time>2014-10-31T13:37:24.000Z</time>
      </trkpt>
      <trkpt lat="47.51305" lon="6.7064">
        <ele>422.4</ele>
        <time>2014-10-31T13:37:25.000Z</time>
      </trkpt>
      <trkpt lat="47.51306" lon="6.70633">
        <ele>421.2</ele>
        <time>2014-10-31T13:37:26.000Z</time>
      </trkpt>
      <trkpt lat="47.51309" lon="6.70623">
        <ele>418.4</ele>
        <time>2014-10-31T13:37:27.000Z</time>
      </trkpt>
      <trkpt lat="47.51311" lon="6.70616">
        <ele>417.2</ele>
        <time>2014-10-31T13:37:27.999Z</time>
      </trkpt>
      <trkpt lat="47.51311" lon="6.70602">
        <ele>414</ele>
        <time>2014-10-31T13:37:29.000Z</time>
      </trkpt>
      <trkpt lat="47.51313" lon="6.70593">
        <ele>414.2</ele>
        <time>2014-10-31T13:37:30.000Z</time>
      </trkpt>
      <trkpt lat="47.51315" lon="6.70583">
        <ele>411</ele>
        <time>2014-10-31T13:37:31.000Z</time>
      </trkpt>
      <trkpt lat="47.51316" lon="6.70573">
        <ele>409.8</ele>
        <time>2014-10-31T13:37:32.000Z</time>
      </trkpt>
      <trkpt lat="47.51317" lon="6.70564">
        <ele>409.3</ele>
        <time>2014-10-31T13:37:33.000Z</time>
      </trkpt>
      <trkpt lat="47.51318" lon="6.70554">
        <ele>408</ele>
        <time>2014-10-31T13:37:34.000Z</time>
      </trkpt>
      <trkpt lat="47.5132" lon="6.70547">
        <ele>407.3</ele>
        <time>2014-10-31T13:37:35.000Z</time>
      </trkpt>
      <trkpt lat="47.51322" lon="6.70536">
        <ele>405.4</ele>
        <time>2014-10-31T13:37:36.000Z</time>
      </trkpt>
      <trkpt lat="47.51325" lon="6.70525">
        <ele>404.2</ele>
        <time>2014-10-31T13:37:37.000Z</time>
      </trkpt>
      <trkpt lat="47.51328" lon="6.70516">
        <ele>403.4</ele>
        <time>2014-10-31T13:37:38.000Z</time>
      </trkpt>
      <trkpt lat="47.51328" lon="6.70508">
        <ele>403.4</ele>
        <time>2014-10-31T13:37:39.000Z</time>
      </trkpt>
      <trkpt lat="47.51328" lon="6.70499">
        <ele>402.8</ele>
        <time>2014-10-31T13:37:40.000Z</time>
      </trkpt>
      <trkpt lat="47.51332" lon="6.70491">
        <ele>402.1</ele>
        <time>2014-10-31T13:37:41.000Z</time>
      </trkpt>
      <trkpt lat="47.51332" lon="6.70486">
        <ele>405</ele>
        <time>2014-10-31T13:37:42.000Z</time>
      </trkpt>
      <trkpt lat="47.51334" lon="6.70477">
        <ele>404.7</ele>
        <time>2014-10-31T13:37:43.000Z</time>
      </trkpt>
      <trkpt lat="47.51337" lon="6.70473">
        <ele>401.1</ele>
        <time>2014-10-31T13:37:47.000Z</time>
      </trkpt>
      <trkpt lat="47.51338" lon="6.70469">
        <ele>401.2</ele>
        <time>2014-10-31T13:37:48.000Z</time>
      </trkpt>
      <trkpt lat="47.51341" lon="6.70467">
        <ele>400.6</ele>
        <time>2014-10-31T13:37:50.000Z</time>
      </trkpt>
      <trkpt lat="47.51344" lon="6.70463">
        <ele>399.1</ele>
        <time>2014-10-31T13:37:51.000Z</time>
      </trkpt>
      <trkpt lat="47.51347" lon="6.70455">
        <ele>394.2</ele>
        <time>2014-10-31T13:37:54.000Z</time>
      </trkpt>
      <trkpt lat="47.51348" lon="6.70452">
        <ele>393.7</ele>
        <time>2014-10-31T13:37:55.000Z</time>
      </trkpt>
      <trkpt lat="47.51348" lon="6.70447">
        <ele>393.5</ele>
        <time>2014-10-31T13:37:56.000Z</time>
      </trkpt>
      <trkpt lat="47.51349" lon="6.70441">
        <ele>389.1</ele>
        <time>2014-10-31T13:37:57.000Z</time>
      </trkpt>
      <trkpt lat="47.51349" lon="6.70435">
        <ele>388.1</ele>
        <time>2014-10-31T13:37:58.000Z</time>
      </trkpt>
      <trkpt lat="47.5135" lon="6.70428">
        <ele>388.7</ele>
        <time>2014-10-31T13:37:59.000Z</time>
      </trkpt>
      <trkpt lat="47.5135" lon="6.70422">
        <ele>388.3</ele>
        <time>2014-10-31T13:38:00.000Z</time>
      </trkpt>
      <trkpt lat="47.51351" lon="6.70417">
        <ele>389.4</ele>
        <time>2014-10-31T13:38:01.000Z</time>
      </trkpt>
      <trkpt lat="47.51353" lon="6.70412">
        <ele>390.1</ele>
        <time>2014-10-31T13:38:02.000Z</time>
      </trkpt>
      <trkpt lat="47.51354" lon="6.70407">
        <ele>388.6</ele>
        <time>2014-10-31T13:38:03.000Z</time>
      </trkpt>
      <trkpt lat="47.51354" lon="6.70403">
        <ele>386.1</ele>
        <time>2014-10-31T13:38:04.000Z</time>
      </trkpt>
      <trkpt lat="47.51355" lon="6.70398">
        <ele>386.4</ele>
        <time>2014-10-31T13:38:05.000Z</time>
      </trkpt>
      <trkpt lat="47.51355" lon="6.70394">
        <ele>387</ele>
        <time>2014-10-31T13:38:06.000Z</time>
      </trkpt>
      <trkpt lat="47.51355" lon="6.70389">
        <ele>385.5</ele>
        <time>2014-10-31T13:38:07.000Z</time>
      </trkpt>
      <trkpt lat="47.51353" lon="6.70378">
        <ele>384</ele>
        <time>2014-10-31T13:38:08.000Z</time>
      </trkpt>
      <trkpt lat="47.51355" lon="6.70371">
        <ele>384.1</ele>
        <time>2014-10-31T13:38:09.000Z</time>
      </trkpt>
      <trkpt lat="47.51355" lon="6.70364">
        <ele>384</ele>
        <time>2014-10-31T13:38:10.000Z</time>
      </trkpt>
      <trkpt lat="47.51356" lon="6.70357">
        <ele>382.2</ele>
        <time>2014-10-31T13:38:11.000Z</time>
      </trkpt>
      <trkpt lat="47.51358" lon="6.70348">
        <ele>382</ele>
        <time>2014-10-31T13:38:12.000Z</time>
      </trkpt>
      <trkpt lat="47.51359" lon="6.7034">
        <ele>381.9</ele>
        <time>2014-10-31T13:38:13.000Z</time>
      </trkpt>
      <trkpt lat="47.51361" lon="6.70336">
        <ele>382.4</ele>
        <time>2014-10-31T13:38:14.000Z</time>
      </trkpt>
      <trkpt lat="47.51363" lon="6.70332">
        <ele>383.3</ele>
        <time>2014-10-31T13:38:15.000Z</time>
      </trkpt>
      <trkpt lat="47.51364" lon="6.70326">
        <ele>382.8</ele>
        <time>2014-10-31T13:38:16.000Z</time>
      </trkpt>
      <trkpt lat="47.51363" lon="6.70321">
        <ele>381.3</ele>
        <time>2014-10-31T13:38:17.000Z</time>
      </trkpt>
      <trkpt lat="47.51363" lon="6.70314">
        <ele>380.2</ele>
        <time>2014-10-31T13:38:18.000Z</time>
      </trkpt>
      <trkpt lat="47.51366" lon="6.70311">
        <ele>380.1</ele>
        <time>2014-10-31T13:38:19.000Z</time>
      </trkpt>
      <trkpt lat="47.51368" lon="6.70308">
        <ele>380.2</ele>
        <time>2014-10-31T13:38:20.000Z</time>
      </trkpt>
      <trkpt lat="47.5137" lon="6.70305">
        <ele>381.3</ele>
        <time>2014-10-31T13:38:21.000Z</time>
      </trkpt>
      <trkpt lat="47.5137" lon="6.70302">
        <ele>382.3</ele>
        <time>2014-10-31T13:38:22.000Z</time>
      </trkpt>
      <trkpt lat="47.51371" lon="6.70297">
        <ele>377.1</ele>
        <time>2014-10-31T13:39:01.000Z</time>
      </trkpt>
      <trkpt lat="47.51371" lon="6.70295">
        <ele>377.3</ele>
        <time>2014-10-31T13:39:02.000Z</time>
      </trkpt>
      <trkpt lat="47.51371" lon="6.70288">
        <ele>374.7</ele>
        <time>2014-10-31T13:39:04.000Z</time>
      </trkpt>
      <trkpt lat="47.5137" lon="6.70284">
        <ele>374.5</ele>
        <time>2014-10-31T13:39:05.000Z</time>
      </trkpt>
      <trkpt lat="47.51368" lon="6.7028">
        <ele>373.7</ele>
        <time>2014-10-31T13:39:06.000Z</time>
      </trkpt>
      <trkpt lat="47.51367" lon="6.70275">
        <ele>373.4</ele>
        <time>2014-10-31T13:39:07.000Z</time>
      </trkpt>
      <trkpt lat="47.51364" lon="6.7027">
        <ele>372.6</ele>
        <time>2014-10-31T13:39:08.000Z</time>
      </trkpt>
      <trkpt lat="47.51362" lon="6.70265">
        <ele>372.1</ele>
        <time>2014-10-31T13:39:09.000Z</time>
      </trkpt>
      <trkpt lat="47.5136" lon="6.70261">
        <ele>371</ele>
        <time>2014-10-31T13:39:10.000Z</time>
      </trkpt>
      <trkpt lat="47.51357" lon="6.70255">
        <ele>371.4</ele>
        <time>2014-10-31T13:39:11.000Z</time>
      </trkpt>
      <trkpt lat="47.51355" lon="6.7025">
        <ele>371.2</ele>
        <time>2014-10-31T13:39:12.000Z</time>
      </trkpt>
      <trkpt lat="47.51351" lon="6.70243">
        <ele>366.8</ele>
        <time>2014-10-31T13:39:13.000Z</time>
      </trkpt>
      <trkpt lat="47.51348" lon="6.70237">
        <ele>365</ele>
        <time>2014-10-31T13:39:14.000Z</time>
      </trkpt>
      <trkpt lat="47.51345" lon="6.70232">
        <ele>365.9</ele>
        <time>2014-10-31T13:39:15.000Z</time>
      </trkpt>
      <trkpt lat="47.51342" lon="6.70227">
        <ele>365.6</ele>
        <time>2014-10-31T13:39:16.000Z</time>
      </trkpt>
      <trkpt lat="47.51339" lon="6.70222">
        <ele>364.9</ele>
        <time>2014-10-31T13:39:17.000Z</time>
      </trkpt>
      <trkpt lat="47.51336" lon="6.70216">
        <ele>364.8</ele>
        <time>2014-10-31T13:39:18.000Z</time>
      </trkpt>
      <trkpt lat="47.51333" lon="6.70211">
        <ele>365.2</ele>
        <time>2014-10-31T13:39:19.000Z</time>
      </trkpt>
      <trkpt lat="47.5133" lon="6.70208">
        <ele>365.9</ele>
        <time>2014-10-31T13:39:20.000Z</time>
      </trkpt>
      <trkpt lat="47.51327" lon="6.70204">
        <ele>365.9</ele>
        <time>2014-10-31T13:39:21.000Z</time>
      </trkpt>
      <trkpt lat="47.51323" lon="6.70199">
        <ele>366.4</ele>
        <time>2014-10-31T13:39:22.000Z</time>
      </trkpt>
      <trkpt lat="47.5132" lon="6.70196">
        <ele>367</ele>
        <time>2014-10-31T13:39:23.000Z</time>
      </trkpt>
      <trkpt lat="47.51317" lon="6.70192">
        <ele>367.1</ele>
        <time>2014-10-31T13:39:24.000Z</time>
      </trkpt>
      <trkpt lat="47.51313" lon="6.70189">
        <ele>367.6</ele>
        <time>2014-10-31T13:39:25.000Z</time>
      </trkpt>
      <trkpt lat="47.5131" lon="6.70185">
        <ele>367.8</ele>
        <time>2014-10-31T13:39:26.000Z</time>
      </trkpt>
      <trkpt lat="47.51307" lon="6.7018">
        <ele>368.2</ele>
        <time>2014-10-31T13:39:27.000Z</time>
      </trkpt>
      <trkpt lat="47.51304" lon="6.70176">
        <ele>368.8</ele>
        <time>2014-10-31T13:39:28.000Z</time>
      </trkpt>
      <trkpt lat="47.513" lon="6.70172">
        <ele>368.4</ele>
        <time>2014-10-31T13:39:29.000Z</time>
      </trkpt>
      <trkpt lat="47.51297" lon="6.70168">
        <ele>368.4</ele>
        <time>2014-10-31T13:39:30.000Z</time>
      </trkpt>
      <trkpt lat="47.51294" lon="6.70164">
        <ele>368.8</ele>
        <time>2014-10-31T13:39:31.000Z</time>
      </trkpt>
      <trkpt lat="47.51291" lon="6.7016">
        <ele>368.4</ele>
        <time>2014-10-31T13:39:32.000Z</time>
      </trkpt>
      <trkpt lat="47.51288" lon="6.70156">
        <ele>369.1</ele>
        <time>2014-10-31T13:39:33.000Z</time>
      </trkpt>
      <trkpt lat="47.51285" lon="6.70152">
        <ele>369.8</ele>
        <time>2014-10-31T13:39:34.000Z</time>
      </trkpt>
      <trkpt lat="47.51282" lon="6.70148">
        <ele>369.9</ele>
        <time>2014-10-31T13:39:35.000Z</time>
      </trkpt>
      <trkpt lat="47.51279" lon="6.70144">
        <ele>370.3</ele>
        <time>2014-10-31T13:39:36.000Z</time>
      </trkpt>
      <trkpt lat="47.51276" lon="6.7014">
        <ele>370.7</ele>
        <time>2014-10-31T13:39:37.000Z</time>
      </trkpt>
      <trkpt lat="47.51273" lon="6.70136">
        <ele>371.1</ele>
        <time>2014-10-31T13:39:38.000Z</time>
      </trkpt>
      <trkpt lat="47.5127" lon="6.70132">
        <ele>371.3</ele>
        <time>2014-10-31T13:39:39.000Z</time>
      </trkpt>
      <trkpt lat="47.51267" lon="6.70128">
        <ele>371.9</ele>
        <time>2014-10-31T13:39:40.000Z</time>
      </trkpt>
      <trkpt lat="47.51264" lon="6.70124">
        <ele>372</ele>
        <time>2014-10-31T13:39:41.000Z</time>
      </trkpt>
      <trkpt lat="47.51262" lon="6.7012">
        <ele>372.3</ele>
        <time>2014-10-31T13:39:42.000Z</time>
      </trkpt>
      <trkpt lat="47.51259" lon="6.70117">
        <ele>372.3</ele>
        <time>2014-10-31T13:39:43.000Z</time>
      </trkpt>
      <trkpt lat="47.51256" lon="6.70113">
        <ele>372.3</ele>
        <time>2014-10-31T13:39:44.000Z</time>
      </trkpt>
      <trkpt lat="47.51254" lon="6.70109">
        <ele>372.7</ele>
        <time>2014-10-31T13:39:45.000Z</time>
      </trkpt>
      <trkpt lat="47.51251" lon="6.70105">
        <ele>372.7</ele>
        <time>2014-10-31T13:39:46.000Z</time>
      </trkpt>
      <trkpt lat="47.51248" lon="6.70101">
        <ele>373.3</ele>
        <time>2014-10-31T13:39:47.000Z</time>
      </trkpt>
      <trkpt lat="47.51245" lon="6.70098">
        <ele>373.7</ele>
        <time>2014-10-31T13:39:48.000Z</time>
      </trkpt>
      <trkpt lat="47.51242" lon="6.70094">
        <ele>374</ele>
        <time>2014-10-31T13:39:49.000Z</time>
      </trkpt>
      <trkpt lat="47.51239" lon="6.70089">
        <ele>374.2</ele>
        <time>2014-10-31T13:39:50.000Z</time>
      </trkpt>
      <trkpt lat="47.51236" lon="6.70085">
        <ele>374.1</ele>
        <time>2014-10-31T13:39:51.000Z</time>
      </trkpt>
      <trkpt lat="47.51234" lon="6.7008">
        <ele>373.7</ele>
        <time>2014-10-31T13:39:52.000Z</time>
      </trkpt>
      <trkpt lat="47.51231" lon="6.70076">
        <ele>373.7</ele>
        <time>2014-10-31T13:39:53.000Z</time>
      </trkpt>
      <trkpt lat="47.51209" lon="6.70042">
        <ele>374.8</ele>
        <time>2014-10-31T13:40:01.000Z</time>
      </trkpt>
      <trkpt lat="47.51206" lon="6.70037">
        <ele>374.2</ele>
        <time>2014-10-31T13:40:02.000Z</time>
      </trkpt>
      <trkpt lat="47.51203" lon="6.70033">
        <ele>374.8</ele>
        <time>2014-10-31T13:40:03.000Z</time>
      </trkpt>
      <trkpt lat="47.51201" lon="6.70028">
        <ele>374.7</ele>
        <time>2014-10-31T13:40:04.000Z</time>
      </trkpt>
      <trkpt lat="47.51199" lon="6.70023">
        <ele>375.2</ele>
        <time>2014-10-31T13:40:05.000Z</time>
      </trkpt>
      <trkpt lat="47.51196" lon="6.70018">
        <ele>375.3</ele>
        <time>2014-10-31T13:40:06.000Z</time>
      </trkpt>
      <trkpt lat="47.51194" lon="6.70014">
        <ele>375.9</ele>
        <time>2014-10-31T13:40:07.000Z</time>
      </trkpt>
      <trkpt lat="47.51191" lon="6.70009">
        <ele>376.2</ele>
        <time>2014-10-31T13:40:08.000Z</time>
      </trkpt>
      <trkpt lat="47.51189" lon="6.70005">
        <ele>376.5</ele>
        <time>2014-10-31T13:40:09.000Z</time>
      </trkpt>
      <trkpt lat="47.51187" lon="6.70001">
        <ele>376</ele>
        <time>2014-10-31T13:40:10.000Z</time>
      </trkpt>
      <trkpt lat="47.51184" lon="6.69996">
        <ele>376.2</ele>
        <time>2014-10-31T13:40:11.000Z</time>
      </trkpt>
      <trkpt lat="47.51181" lon="6.69992">
        <ele>376.8</ele>
        <time>2014-10-31T13:40:12.000Z</time>
      </trkpt>
      <trkpt lat="47.51179" lon="6.69988">
        <ele>377.4</ele>
        <time>2014-10-31T13:40:13.000Z</time>
      </trkpt>
      <trkpt lat="47.51176" lon="6.69983">
        <ele>377.4</ele>
        <time>2014-10-31T13:40:14.000Z</time>
      </trkpt>
      <trkpt lat="47.51174" lon="6.69978">
        <ele>376.5</ele>
        <time>2014-10-31T13:40:15.000Z</time>
      </trkpt>
      <trkpt lat="47.51172" lon="6.69973">
        <ele>376.5</ele>
        <time>2014-10-31T13:40:16.000Z</time>
      </trkpt>
      <trkpt lat="47.5117" lon="6.69968">
        <ele>377</ele>
        <time>2014-10-31T13:40:17.000Z</time>
      </trkpt>
      <trkpt lat="47.51168" lon="6.69963">
        <ele>377.5</ele>
        <time>2014-10-31T13:40:18.000Z</time>
      </trkpt>
      <trkpt lat="47.51166" lon="6.69959">
        <ele>377.8</ele>
        <time>2014-10-31T13:40:19.000Z</time>
      </trkpt>
      <trkpt lat="47.51164" lon="6.69954">
        <ele>378.6</ele>
        <time>2014-10-31T13:40:20.000Z</time>
      </trkpt>
      <trkpt lat="47.51162" lon="6.6995">
        <ele>379.1</ele>
        <time>2014-10-31T13:40:21.000Z</time>
      </trkpt>
      <trkpt lat="47.5116" lon="6.69947">
        <ele>379.4</ele>
        <time>2014-10-31T13:40:22.000Z</time>
      </trkpt>
      <trkpt lat="47.51158" lon="6.69943">
        <ele>379.6</ele>
        <time>2014-10-31T13:40:23.000Z</time>
      </trkpt>
      <trkpt lat="47.51155" lon="6.69939">
        <ele>379.8</ele>
        <time>2014-10-31T13:40:24.000Z</time>
      </trkpt>
      <trkpt lat="47.51153" lon="6.69936">
        <ele>380</ele>
        <time>2014-10-31T13:40:25.000Z</time>
      </trkpt>
      <trkpt lat="47.51151" lon="6.69932">
        <ele>379.4</ele>
        <time>2014-10-31T13:40:26.000Z</time>
      </trkpt>
      <trkpt lat="47.51149" lon="6.69928">
        <ele>379.4</ele>
        <time>2014-10-31T13:40:27.000Z</time>
      </trkpt>
      <trkpt lat="47.51147" lon="6.69923">
        <ele>379.9</ele>
        <time>2014-10-31T13:40:28.000Z</time>
      </trkpt>
      <trkpt lat="47.51145" lon="6.69919">
        <ele>379.9</ele>
        <time>2014-10-31T13:40:29.000Z</time>
      </trkpt>
      <trkpt lat="47.51143" lon="6.69914">
        <ele>380.7</ele>
        <time>2014-10-31T13:40:30.000Z</time>
      </trkpt>
      <trkpt lat="47.51141" lon="6.69909">
        <ele>380.7</ele>
        <time>2014-10-31T13:40:31.000Z</time>
      </trkpt>
      <trkpt lat="47.51139" lon="6.69904">
        <ele>381.3</ele>
        <time>2014-10-31T13:40:32.000Z</time>
      </trkpt>
      <trkpt lat="47.51137" lon="6.69899">
        <ele>381.4</ele>
        <time>2014-10-31T13:40:33.000Z</time>
      </trkpt>
      <trkpt lat="47.51135" lon="6.69894">
        <ele>381.6</ele>
        <time>2014-10-31T13:40:34.000Z</time>
      </trkpt>
      <trkpt lat="47.51133" lon="6.69888">
        <ele>381.7</ele>
        <time>2014-10-31T13:40:35.000Z</time>
      </trkpt>
      <trkpt lat="47.51131" lon="6.69883">
        <ele>382.3</ele>
        <time>2014-10-31T13:40:36.000Z</time>
      </trkpt>
      <trkpt lat="47.51128" lon="6.69878">
        <ele>382.6</ele>
        <time>2014-10-31T13:40:37.000Z</time>
      </trkpt>
      <trkpt lat="47.51126" lon="6.69873">
        <ele>382.9</ele>
        <time>2014-10-31T13:40:38.000Z</time>
      </trkpt>
      <trkpt lat="47.51124" lon="6.69868">
        <ele>383.1</ele>
        <time>2014-10-31T13:40:39.000Z</time>
      </trkpt>
      <trkpt lat="47.51122" lon="6.69863">
        <ele>383.5</ele>
        <time>2014-10-31T13:40:40.000Z</time>
      </trkpt>
      <trkpt lat="47.51119" lon="6.69858">
        <ele>383.9</ele>
        <time>2014-10-31T13:40:41.000Z</time>
      </trkpt>
      <trkpt lat="47.51117" lon="6.69853">
        <ele>383.9</ele>
        <time>2014-10-31T13:40:42.000Z</time>
      </trkpt>
      <trkpt lat="47.51115" lon="6.69849">
        <ele>384.2</ele>
        <time>2014-10-31T13:40:43.000Z</time>
      </trkpt>
      <trkpt lat="47.51112" lon="6.69844">
        <ele>385.8</ele>
        <time>2014-10-31T13:40:44.000Z</time>
      </trkpt>
      <trkpt lat="47.5111" lon="6.69841">
        <ele>386.7</ele>
        <time>2014-10-31T13:40:45.000Z</time>
      </trkpt>
      <trkpt lat="47.51108" lon="6.69837">
        <ele>387</ele>
        <time>2014-10-31T13:40:46.000Z</time>
      </trkpt>
      <trkpt lat="47.51106" lon="6.69833">
        <ele>387.9</ele>
        <time>2014-10-31T13:40:47.000Z</time>
      </trkpt>
      <trkpt lat="47.51104" lon="6.69829">
        <ele>388.7</ele>
        <time>2014-10-31T13:40:48.000Z</time>
      </trkpt>
      <trkpt lat="47.51102" lon="6.69824">
        <ele>388.9</ele>
        <time>2014-10-31T13:40:49.000Z</time>
      </trkpt>
      <trkpt lat="47.511" lon="6.6982">
        <ele>389.6</ele>
        <time>2014-10-31T13:40:50.000Z</time>
      </trkpt>
      <trkpt lat="47.51098" lon="6.69816">
        <ele>390.1</ele>
        <time>2014-10-31T13:40:51.000Z</time>
      </trkpt>
      <trkpt lat="47.51077" lon="6.69783">
        <ele>387.5</ele>
        <time>2014-10-31T13:40:58.780Z</time>
      </trkpt>
      <trkpt lat="47.51073" lon="6.69777">
        <ele>388.1</ele>
        <time>2014-10-31T13:41:00.000Z</time>
      </trkpt>
      <trkpt lat="47.5107" lon="6.69772">
        <ele>387.6</ele>
        <time>2014-10-31T13:41:01.000Z</time>
      </trkpt>
      <trkpt lat="47.51066" lon="6.69767">
        <ele>387.3</ele>
        <time>2014-10-31T13:41:02.000Z</time>
      </trkpt>
      <trkpt lat="47.51063" lon="6.69762">
        <ele>386.6</ele>
        <time>2014-10-31T13:41:03.000Z</time>
      </trkpt>
      <trkpt lat="47.5106" lon="6.69756">
        <ele>386.3</ele>
        <time>2014-10-31T13:41:04.000Z</time>
      </trkpt>
      <trkpt lat="47.51056" lon="6.6975">
        <ele>386.5</ele>
        <time>2014-10-31T13:41:05.000Z</time>
      </trkpt>
      <trkpt lat="47.51053" lon="6.69745">
        <ele>386.4</ele>
        <time>2014-10-31T13:41:06.000Z</time>
      </trkpt>
      <trkpt lat="47.51049" lon="6.6974">
        <ele>385.8</ele>
        <time>2014-10-31T13:41:07.000Z</time>
      </trkpt>
      <trkpt lat="47.51045" lon="6.69734">
        <ele>385.3</ele>
        <time>2014-10-31T13:41:08.000Z</time>
      </trkpt>
      <trkpt lat="47.51043" lon="6.69728">
        <ele>384.5</ele>
        <time>2014-10-31T13:41:09.000Z</time>
      </trkpt>
      <trkpt lat="47.51039" lon="6.69722">
        <ele>382.9</ele>
        <time>2014-10-31T13:41:10.000Z</time>
      </trkpt>
      <trkpt lat="47.51036" lon="6.69717">
        <ele>383.3</ele>
        <time>2014-10-31T13:41:11.000Z</time>
      </trkpt>
      <trkpt lat="47.51032" lon="6.69711">
        <ele>383.2</ele>
        <time>2014-10-31T13:41:12.000Z</time>
      </trkpt>
      <trkpt lat="47.5103" lon="6.69705">
        <ele>383.3</ele>
        <time>2014-10-31T13:41:13.000Z</time>
      </trkpt>
      <trkpt lat="47.51027" lon="6.69698">
        <ele>382.6</ele>
        <time>2014-10-31T13:41:14.000Z</time>
      </trkpt>
      <trkpt lat="47.51025" lon="6.69691">
        <ele>382.9</ele>
        <time>2014-10-31T13:41:15.000Z</time>
      </trkpt>
      <trkpt lat="47.51022" lon="6.69685">
        <ele>383</ele>
        <time>2014-10-31T13:41:16.000Z</time>
      </trkpt>
      <trkpt lat="47.51018" lon="6.6968">
        <ele>383.1</ele>
        <time>2014-10-31T13:41:17.000Z</time>
      </trkpt>
      <trkpt lat="47.51017" lon="6.69675">
        <ele>382.7</ele>
        <time>2014-10-31T13:41:18.000Z</time>
      </trkpt>
      <trkpt lat="47.51014" lon="6.69667">
        <ele>381.6</ele>
        <time>2014-10-31T13:41:19.000Z</time>
      </trkpt>
      <trkpt lat="47.51011" lon="6.69661">
        <ele>381.2</ele>
        <time>2014-10-31T13:41:20.000Z</time>
      </trkpt>
      <trkpt lat="47.51008" lon="6.69654">
        <ele>381.6</ele>
        <time>2014-10-31T13:41:21.000Z</time>
      </trkpt>
      <trkpt lat="47.51006" lon="6.6965">
        <ele>381.9</ele>
        <time>2014-10-31T13:41:22.000Z</time>
      </trkpt>
      <trkpt lat="47.51002" lon="6.69645">
        <ele>381.7</ele>
        <time>2014-10-31T13:41:23.000Z</time>
      </trkpt>
      <trkpt lat="47.50999" lon="6.69641">
        <ele>382.1</ele>
        <time>2014-10-31T13:41:24.000Z</time>
      </trkpt>
      <trkpt lat="47.50997" lon="6.69634">
        <ele>381.6</ele>
        <time>2014-10-31T13:41:25.000Z</time>
      </trkpt>
      <trkpt lat="47.50993" lon="6.69629">
        <ele>380.9</ele>
        <time>2014-10-31T13:41:26.000Z</time>
      </trkpt>
      <trkpt lat="47.50991" lon="6.69622">
        <ele>381.4</ele>
        <time>2014-10-31T13:41:27.000Z</time>
      </trkpt>
      <trkpt lat="47.50988" lon="6.69616">
        <ele>381.5</ele>
        <time>2014-10-31T13:41:28.000Z</time>
      </trkpt>
      <trkpt lat="47.50984" lon="6.6961">
        <ele>382.2</ele>
        <time>2014-10-31T13:41:29.000Z</time>
      </trkpt>
      <trkpt lat="47.50981" lon="6.69604">
        <ele>382.9</ele>
        <time>2014-10-31T13:41:30.000Z</time>
      </trkpt>
      <trkpt lat="47.50978" lon="6.69599">
        <ele>383.6</ele>
        <time>2014-10-31T13:41:31.000Z</time>
      </trkpt>
      <trkpt lat="47.50974" lon="6.69594">
        <ele>382.5</ele>
        <time>2014-10-31T13:41:32.000Z</time>
      </trkpt>
      <trkpt lat="47.50971" lon="6.69589">
        <ele>383.2</ele>
        <time>2014-10-31T13:41:33.000Z</time>
      </trkpt>
      <trkpt lat="47.50968" lon="6.69583">
        <ele>384.4</ele>
        <time>2014-10-31T13:41:34.000Z</time>
      </trkpt>
      <trkpt lat="47.50964" lon="6.69578">
        <ele>384.7</ele>
        <time>2014-10-31T13:41:35.000Z</time>
      </trkpt>
      <trkpt lat="47.50961" lon="6.69573">
        <ele>385.2</ele>
        <time>2014-10-31T13:41:36.000Z</time>
      </trkpt>
      <trkpt lat="47.50956" lon="6.6957">
        <ele>385.6</ele>
        <time>2014-10-31T13:41:37.000Z</time>
      </trkpt>
      <trkpt lat="47.50952" lon="6.69566">
        <ele>385.2</ele>
        <time>2014-10-31T13:41:38.000Z</time>
      </trkpt>
      <trkpt lat="47.50948" lon="6.69564">
        <ele>384.5</ele>
        <time>2014-10-31T13:41:39.000Z</time>
      </trkpt>
      <trkpt lat="47.50943" lon="6.6956">
        <ele>384</ele>
        <time>2014-10-31T13:41:40.000Z</time>
      </trkpt>
      <trkpt lat="47.50937" lon="6.69557">
        <ele>384.3</ele>
        <time>2014-10-31T13:41:41.000Z</time>
      </trkpt>
      <trkpt lat="47.50933" lon="6.69555">
        <ele>384.1</ele>
        <time>2014-10-31T13:41:42.000Z</time>
      </trkpt>
      <trkpt lat="47.50928" lon="6.69552">
        <ele>383.4</ele>
        <time>2014-10-31T13:41:43.000Z</time>
      </trkpt>
      <trkpt lat="47.50922" lon="6.6955">
        <ele>383.7</ele>
        <time>2014-10-31T13:41:44.000Z</time>
      </trkpt>
      <trkpt lat="47.50917" lon="6.69546">
        <ele>383.4</ele>
        <time>2014-10-31T13:41:45.000Z</time>
      </trkpt>
      <trkpt lat="47.50911" lon="6.69542">
        <ele>382.9</ele>
        <time>2014-10-31T13:41:46.000Z</time>
      </trkpt>
      <trkpt lat="47.50905" lon="6.69537">
        <ele>383.3</ele>
        <time>2014-10-31T13:41:47.000Z</time>
      </trkpt>
      <trkpt lat="47.509" lon="6.69533">
        <ele>383</ele>
        <time>2014-10-31T13:41:48.000Z</time>
      </trkpt>
      <trkpt lat="47.50896" lon="6.69528">
        <ele>382.3</ele>
        <time>2014-10-31T13:41:49.000Z</time>
      </trkpt>
      <trkpt lat="47.50892" lon="6.69522">
        <ele>381.9</ele>
        <time>2014-10-31T13:41:50.000Z</time>
      </trkpt>
      <trkpt lat="47.50888" lon="6.69517">
        <ele>382.3</ele>
        <time>2014-10-31T13:41:51.000Z</time>
      </trkpt>
      <trkpt lat="47.50886" lon="6.6951">
        <ele>381.4</ele>
        <time>2014-10-31T13:41:52.000Z</time>
      </trkpt>
      <trkpt lat="47.50885" lon="6.69454">
        <ele>381.4</ele>
        <time>2014-10-31T13:42:00.000Z</time>
      </trkpt>
      <trkpt lat="47.50885" lon="6.69446">
        <ele>381.7</ele>
        <time>2014-10-31T13:42:01.000Z</time>
      </trkpt>
      <trkpt lat="47.50886" lon="6.69439">
        <ele>381.8</ele>
        <time>2014-10-31T13:42:02.000Z</time>
      </trkpt>
      <trkpt lat="47.50887" lon="6.6943">
        <ele>381.2</ele>
        <time>2014-10-31T13:42:03.000Z</time>
      </trkpt>
      <trkpt lat="47.50889" lon="6.69423">
        <ele>381.9</ele>
        <time>2014-10-31T13:42:04.000Z</time>
      </trkpt>
      <trkpt lat="47.5089" lon="6.69416">
        <ele>382.2</ele>
        <time>2014-10-31T13:42:05.000Z</time>
      </trkpt>
      <trkpt lat="47.5089" lon="6.69409">
        <ele>383.3</ele>
        <time>2014-10-31T13:42:06.000Z</time>
      </trkpt>
      <trkpt lat="47.5089" lon="6.69401">
        <ele>382.9</ele>
        <time>2014-10-31T13:42:07.000Z</time>
      </trkpt>
      <trkpt lat="47.5089" lon="6.69396">
        <ele>383.2</ele>
        <time>2014-10-31T13:42:08.000Z</time>
      </trkpt>
      <trkpt lat="47.50892" lon="6.6939">
        <ele>382.5</ele>
        <time>2014-10-31T13:42:09.000Z</time>
      </trkpt>
      <trkpt lat="47.50894" lon="6.69384">
        <ele>382.4</ele>
        <time>2014-10-31T13:42:10.000Z</time>
      </trkpt>
      <trkpt lat="47.50896" lon="6.69378">
        <ele>381.7</ele>
        <time>2014-10-31T13:42:11.000Z</time>
      </trkpt>
      <trkpt lat="47.50897" lon="6.69374">
        <ele>380.7</ele>
        <time>2014-10-31T13:42:12.000Z</time>
      </trkpt>
      <trkpt lat="47.509" lon="6.69371">
        <ele>380.2</ele>
        <time>2014-10-31T13:42:13.000Z</time>
      </trkpt>
      <trkpt lat="47.50902" lon="6.69367">
        <ele>380.5</ele>
        <time>2014-10-31T13:42:14.000Z</time>
      </trkpt>
      <trkpt lat="47.50903" lon="6.69363">
        <ele>380.5</ele>
        <time>2014-10-31T13:42:15.000Z</time>
      </trkpt>
      <trkpt lat="47.50904" lon="6.69358">
        <ele>379.9</ele>
        <time>2014-10-31T13:42:16.000Z</time>
      </trkpt>
      <trkpt lat="47.50905" lon="6.69355">
        <ele>379.1</ele>
        <time>2014-10-31T13:42:17.000Z</time>
      </trkpt>
      <trkpt lat="47.50907" lon="6.69351">
        <ele>378.8</ele>
        <time>2014-10-31T13:42:18.000Z</time>
      </trkpt>
      <trkpt lat="47.50908" lon="6.69347">
        <ele>379.1</ele>
        <time>2014-10-31T13:42:19.000Z</time>
      </trkpt>
      <trkpt lat="47.50909" lon="6.69343">
        <ele>380.9</ele>
        <time>2014-10-31T13:42:20.000Z</time>
      </trkpt>
      <trkpt lat="47.5091" lon="6.6934">
        <ele>381.4</ele>
        <time>2014-10-31T13:42:21.000Z</time>
      </trkpt>
      <trkpt lat="47.50911" lon="6.69336">
        <ele>381.3</ele>
        <time>2014-10-31T13:42:22.000Z</time>
      </trkpt>
      <trkpt lat="47.50913" lon="6.69331">
        <ele>381.2</ele>
        <time>2014-10-31T13:42:23.000Z</time>
      </trkpt>
      <trkpt lat="47.50915" lon="6.69327">
        <ele>380.5</ele>
        <time>2014-10-31T13:42:24.000Z</time>
      </trkpt>
      <trkpt lat="47.50918" lon="6.69323">
        <ele>380.1</ele>
        <time>2014-10-31T13:42:25.000Z</time>
      </trkpt>
      <trkpt lat="47.50921" lon="6.6932">
        <ele>379.8</ele>
        <time>2014-10-31T13:42:26.000Z</time>
      </trkpt>
      <trkpt lat="47.50924" lon="6.69316">
        <ele>379.6</ele>
        <time>2014-10-31T13:42:27.000Z</time>
      </trkpt>
      <trkpt lat="47.50926" lon="6.69313">
        <ele>379.8</ele>
        <time>2014-10-31T13:42:28.000Z</time>
      </trkpt>
      <trkpt lat="47.50926" lon="6.6931">
        <ele>379.9</ele>
        <time>2014-10-31T13:42:29.000Z</time>
      </trkpt>
      <trkpt lat="47.50921" lon="6.69308">
        <ele>380.3</ele>
        <time>2014-10-31T13:42:31.000Z</time>
      </trkpt>
      <trkpt lat="47.50918" lon="6.69311">
        <ele>380.4</ele>
        <time>2014-10-31T13:42:32.000Z</time>
      </trkpt>
      <trkpt lat="47.50916" lon="6.69315">
        <ele>380.6</ele>
        <time>2014-10-31T13:42:33.000Z</time>
      </trkpt>
      <trkpt lat="47.50913" lon="6.6932">
        <ele>380.7</ele>
        <time>2014-10-31T13:42:34.000Z</time>
      </trkpt>
      <trkpt lat="47.50911" lon="6.69325">
        <ele>380.9</ele>
        <time>2014-10-31T13:42:35.000Z</time>
      </trkpt>
      <trkpt lat="47.50909" lon="6.69331">
        <ele>380.7</ele>
        <time>2014-10-31T13:42:36.000Z</time>
      </trkpt>
      <trkpt lat="47.50907" lon="6.69336">
        <ele>380.8</ele>
        <time>2014-10-31T13:42:37.000Z</time>
      </trkpt>
      <trkpt lat="47.50905" lon="6.69341">
        <ele>381.3</ele>
        <time>2014-10-31T13:42:38.000Z</time>
      </trkpt>
      <trkpt lat="47.50903" lon="6.69346">
        <ele>380.4</ele>
        <time>2014-10-31T13:42:39.000Z</time>
      </trkpt>
      <trkpt lat="47.50901" lon="6.69352">
        <ele>380.8</ele>
        <time>2014-10-31T13:42:40.000Z</time>
      </trkpt>
      <trkpt lat="47.50899" lon="6.69358">
        <ele>381.6</ele>
        <time>2014-10-31T13:42:41.000Z</time>
      </trkpt>
      <trkpt lat="47.50896" lon="6.69363">
        <ele>381.5</ele>
        <time>2014-10-31T13:42:42.000Z</time>
      </trkpt>
      <trkpt lat="47.50894" lon="6.69368">
        <ele>382</ele>
        <time>2014-10-31T13:42:43.000Z</time>
      </trkpt>
      <trkpt lat="47.5089" lon="6.69372">
        <ele>381.7</ele>
        <time>2014-10-31T13:42:44.000Z</time>
      </trkpt>
      <trkpt lat="47.50887" lon="6.69374">
        <ele>381.9</ele>
        <time>2014-10-31T13:42:45.000Z</time>
      </trkpt>
      <trkpt lat="47.50883" lon="6.69373">
        <ele>382.9</ele>
        <time>2014-10-31T13:42:46.000Z</time>
      </trkpt>
      <trkpt lat="47.50879" lon="6.6936">
        <ele>382.8</ele>
        <time>2014-10-31T13:42:47.000Z</time>
      </trkpt>
      <trkpt lat="47.50876" lon="6.69353">
        <ele>382.8</ele>
        <time>2014-10-31T13:42:48.000Z</time>
      </trkpt>
      <trkpt lat="47.50873" lon="6.69346">
        <ele>383.3</ele>
        <time>2014-10-31T13:42:49.000Z</time>
      </trkpt>
      <trkpt lat="47.5087" lon="6.69339">
        <ele>383.6</ele>
        <time>2014-10-31T13:42:50.000Z</time>
      </trkpt>
      <trkpt lat="47.50866" lon="6.69332">
        <ele>382.8</ele>
        <time>2014-10-31T13:42:51.000Z</time>
      </trkpt>
      <trkpt lat="47.50862" lon="6.69326">
        <ele>382.3</ele>
        <time>2014-10-31T13:42:52.000Z</time>
      </trkpt>
      <trkpt lat="47.50857" lon="6.6932">
        <ele>381.7</ele>
        <time>2014-10-31T13:42:53.000Z</time>
      </trkpt>
      <trkpt lat="47.50853" lon="6.69313">
        <ele>380.5</ele>
        <time>2014-10-31T13:42:54.000Z</time>
      </trkpt>
      <trkpt lat="47.50849" lon="6.69308">
        <ele>379.8</ele>
        <time>2014-10-31T13:42:55.000Z</time>
      </trkpt>
      <trkpt lat="47.50845" lon="6.69302">
        <ele>379.8</ele>
        <time>2014-10-31T13:42:56.000Z</time>
      </trkpt>
      <trkpt lat="47.50843" lon="6.69297">
        <ele>379.9</ele>
        <time>2014-10-31T13:42:57.000Z</time>
      </trkpt>
      <trkpt lat="47.50841" lon="6.69295">
        <ele>379.6</ele>
        <time>2014-10-31T13:42:58.000Z</time>
      </trkpt>
      <trkpt lat="47.5084" lon="6.69298">
        <ele>377.9</ele>
        <time>2014-10-31T13:43:14.000Z</time>
      </trkpt>
      <trkpt lat="47.50842" lon="6.69301">
        <ele>378.1</ele>
        <time>2014-10-31T13:43:15.000Z</time>
      </trkpt>
      <trkpt lat="47.50844" lon="6.69304">
        <ele>377.6</ele>
        <time>2014-10-31T13:43:16.000Z</time>
      </trkpt>
      <trkpt lat="47.50847" lon="6.69308">
        <ele>377.3</ele>
        <time>2014-10-31T13:43:17.000Z</time>
      </trkpt>
      <trkpt lat="47.50849" lon="6.69312">
        <ele>376.5</ele>
        <time>2014-10-31T13:43:18.000Z</time>
      </trkpt>
      <trkpt lat="47.50852" lon="6.69316">
        <ele>377.8</ele>
        <time>2014-10-31T13:43:19.000Z</time>
      </trkpt>
      <trkpt lat="47.50855" lon="6.6932">
        <ele>378.4</ele>
        <time>2014-10-31T13:43:20.000Z</time>
      </trkpt>
      <trkpt lat="47.50857" lon="6.69324">
        <ele>378.6</ele>
        <time>2014-10-31T13:43:21.000Z</time>
      </trkpt>
      <trkpt lat="47.5086" lon="6.69328">
        <ele>379</ele>
        <time>2014-10-31T13:43:22.000Z</time>
      </trkpt>
      <trkpt lat="47.50863" lon="6.69332">
        <ele>379.7</ele>
        <time>2014-10-31T13:43:23.000Z</time>
      </trkpt>
      <trkpt lat="47.50865" lon="6.69336">
        <ele>380</ele>
        <time>2014-10-31T13:43:24.000Z</time>
      </trkpt>
      <trkpt lat="47.50868" lon="6.6934">
        <ele>380.3</ele>
        <time>2014-10-31T13:43:25.000Z</time>
      </trkpt>
      <trkpt lat="47.50871" lon="6.69345">
        <ele>379.8</ele>
        <time>2014-10-31T13:43:26.000Z</time>
      </trkpt>
      <trkpt lat="47.50873" lon="6.6935">
        <ele>380.7</ele>
        <time>2014-10-31T13:43:27.000Z</time>
      </trkpt>
      <trkpt lat="47.50876" lon="6.69357">
        <ele>381.2</ele>
        <time>2014-10-31T13:43:28.000Z</time>
      </trkpt>
      <trkpt lat="47.50878" lon="6.69364">
        <ele>381.3</ele>
        <time>2014-10-31T13:43:29.000Z</time>
      </trkpt>
      <trkpt lat="47.50881" lon="6.6937">
        <ele>381.2</ele>
        <time>2014-10-31T13:43:30.000Z</time>
      </trkpt>
      <trkpt lat="47.50883" lon="6.69376">
        <ele>381.2</ele>
        <time>2014-10-31T13:43:31.000Z</time>
      </trkpt>
      <trkpt lat="47.50885" lon="6.69383">
        <ele>381.6</ele>
        <time>2014-10-31T13:43:32.000Z</time>
      </trkpt>
      <trkpt lat="47.50887" lon="6.69388">
        <ele>382</ele>
        <time>2014-10-31T13:43:33.000Z</time>
      </trkpt>
      <trkpt lat="47.50888" lon="6.69394">
        <ele>382.2</ele>
        <time>2014-10-31T13:43:34.000Z</time>
      </trkpt>
      <trkpt lat="47.50888" lon="6.69401">
        <ele>382.3</ele>
        <time>2014-10-31T13:43:35.000Z</time>
      </trkpt>
      <trkpt lat="47.50888" lon="6.69408">
        <ele>383.1</ele>
        <time>2014-10-31T13:43:36.000Z</time>
      </trkpt>
      <trkpt lat="47.50885" lon="6.69414">
        <ele>383.1</ele>
        <time>2014-10-31T13:43:37.000Z</time>
      </trkpt>
      <trkpt lat="47.50883" lon="6.69418">
        <ele>383.3</ele>
        <time>2014-10-31T13:43:38.000Z</time>
      </trkpt>
      <trkpt lat="47.50883" lon="6.69422">
        <ele>382.5</ele>
        <time>2014-10-31T13:43:39.000Z</time>
      </trkpt>
      <trkpt lat="47.50883" lon="6.69427">
        <ele>383.2</ele>
        <time>2014-10-31T13:43:40.000Z</time>
      </trkpt>
      <trkpt lat="47.50883" lon="6.6943">
        <ele>383.3</ele>
        <time>2014-10-31T13:43:41.000Z</time>
      </trkpt>
      <trkpt lat="47.50882" lon="6.69436">
        <ele>386.2</ele>
        <time>2014-10-31T13:43:43.000Z</time>
      </trkpt>
      <trkpt lat="47.50882" lon="6.69439">
        <ele>387.7</ele>
        <time>2014-10-31T13:43:44.000Z</time>
      </trkpt>
      <trkpt lat="47.50882" lon="6.69443">
        <ele>387.6</ele>
        <time>2014-10-31T13:43:45.000Z</time>
      </trkpt>
      <trkpt lat="47.50881" lon="6.69446">
        <ele>387.1</ele>
        <time>2014-10-31T13:43:46.000Z</time>
      </trkpt>
      <trkpt lat="47.50881" lon="6.69451">
        <ele>387</ele>
        <time>2014-10-31T13:43:47.000Z</time>
      </trkpt>
      <trkpt lat="47.50881" lon="6.69456">
        <ele>386.2</ele>
        <time>2014-10-31T13:43:48.000Z</time>
      </trkpt>
      <trkpt lat="47.50881" lon="6.69461">
        <ele>385.8</ele>
        <time>2014-10-31T13:43:49.000Z</time>
      </trkpt>
      <trkpt lat="47.50881" lon="6.69467">
        <ele>385.9</ele>
        <time>2014-10-31T13:43:50.000Z</time>
      </trkpt>
      <trkpt lat="47.50881" lon="6.69473">
        <ele>385.6</ele>
        <time>2014-10-31T13:43:51.000Z</time>
      </trkpt>
      <trkpt lat="47.50881" lon="6.69479">
        <ele>385.4</ele>
        <time>2014-10-31T13:43:52.000Z</time>
      </trkpt>
      <trkpt lat="47.5088" lon="6.69498">
        <ele>383.7</ele>
        <time>2014-10-31T13:43:55.000Z</time>
      </trkpt>
      <trkpt lat="47.5088" lon="6.69507">
        <ele>383.4</ele>
        <time>2014-10-31T13:43:56.000Z</time>
      </trkpt>
      <trkpt lat="47.50878" lon="6.69514">
        <ele>383.3</ele>
        <time>2014-10-31T13:43:57.000Z</time>
      </trkpt>
      <trkpt lat="47.50876" lon="6.6952">
        <ele>382.3</ele>
        <time>2014-10-31T13:43:58.000Z</time>
      </trkpt>
      <trkpt lat="47.50873" lon="6.69526">
        <ele>382.7</ele>
        <time>2014-10-31T13:43:59.000Z</time>
      </trkpt>
      <trkpt lat="47.50871" lon="6.69532">
        <ele>382.8</ele>
        <time>2014-10-31T13:44:00.000Z</time>
      </trkpt>
      <trkpt lat="47.50867" lon="6.69538">
        <ele>382.6</ele>
        <time>2014-10-31T13:44:01.000Z</time>
      </trkpt>
      <trkpt lat="47.50863" lon="6.69544">
        <ele>382.2</ele>
        <time>2014-10-31T13:44:02.000Z</time>
      </trkpt>
      <trkpt lat="47.50859" lon="6.6955">
        <ele>382</ele>
        <time>2014-10-31T13:44:03.000Z</time>
      </trkpt>
      <trkpt lat="47.50855" lon="6.69556">
        <ele>381.6</ele>
        <time>2014-10-31T13:44:04.000Z</time>
      </trkpt>
      <trkpt lat="47.50851" lon="6.69561">
        <ele>381.9</ele>
        <time>2014-10-31T13:44:05.000Z</time>
      </trkpt>
      <trkpt lat="47.50846" lon="6.69567">
        <ele>381.4</ele>
        <time>2014-10-31T13:44:06.000Z</time>
      </trkpt>
      <trkpt lat="47.50842" lon="6.69573">
        <ele>381</ele>
        <time>2014-10-31T13:44:07.000Z</time>
      </trkpt>
      <trkpt lat="47.50837" lon="6.69579">
        <ele>381.1</ele>
        <time>2014-10-31T13:44:08.000Z</time>
      </trkpt>
      <trkpt lat="47.50832" lon="6.69585">
        <ele>381.3</ele>
        <time>2014-10-31T13:44:09.000Z</time>
      </trkpt>
      <trkpt lat="47.50828" lon="6.6959">
        <ele>380.9</ele>
        <time>2014-10-31T13:44:10.000Z</time>
      </trkpt>
      <trkpt lat="47.50824" lon="6.69595">
        <ele>381.3</ele>
        <time>2014-10-31T13:44:11.000Z</time>
      </trkpt>
      <trkpt lat="47.50821" lon="6.69599">
        <ele>381.1</ele>
        <time>2014-10-31T13:44:12.000Z</time>
      </trkpt>
      <trkpt lat="47.50816" lon="6.69604">
        <ele>380.7</ele>
        <time>2014-10-31T13:44:13.000Z</time>
      </trkpt>
      <trkpt lat="47.50813" lon="6.6961">
        <ele>380.1</ele>
        <time>2014-10-31T13:44:14.000Z</time>
      </trkpt>
      <trkpt lat="47.50809" lon="6.69614">
        <ele>379.3</ele>
        <time>2014-10-31T13:44:15.000Z</time>
      </trkpt>
      <trkpt lat="47.50804" lon="6.6962">
        <ele>379</ele>
        <time>2014-10-31T13:44:16.000Z</time>
      </trkpt>
      <trkpt lat="47.508" lon="6.69624">
        <ele>379</ele>
        <time>2014-10-31T13:44:17.000Z</time>
      </trkpt>
      <trkpt lat="47.50796" lon="6.69628">
        <ele>378.8</ele>
        <time>2014-10-31T13:44:18.000Z</time>
      </trkpt>
      <trkpt lat="47.50791" lon="6.69633">
        <ele>378.5</ele>
        <time>2014-10-31T13:44:19.000Z</time>
      </trkpt>
      <trkpt lat="47.50787" lon="6.6964">
        <ele>378.5</ele>
        <time>2014-10-31T13:44:20.000Z</time>
      </trkpt>
      <trkpt lat="47.50782" lon="6.69645">
        <ele>378.9</ele>
        <time>2014-10-31T13:44:21.000Z</time>
      </trkpt>
      <trkpt lat="47.50779" lon="6.6965">
        <ele>380</ele>
        <time>2014-10-31T13:44:22.000Z</time>
      </trkpt>
      <trkpt lat="47.50774" lon="6.69655">
        <ele>380</ele>
        <time>2014-10-31T13:44:23.000Z</time>
      </trkpt>
      <trkpt lat="47.50771" lon="6.6966">
        <ele>380.2</ele>
        <time>2014-10-31T13:44:24.000Z</time>
      </trkpt>
      <trkpt lat="47.50768" lon="6.69664">
        <ele>380.7</ele>
        <time>2014-10-31T13:44:25.000Z</time>
      </trkpt>
      <trkpt lat="47.50766" lon="6.69669">
        <ele>381.3</ele>
        <time>2014-10-31T13:44:26.000Z</time>
      </trkpt>
      <trkpt lat="47.50763" lon="6.69674">
        <ele>381</ele>
        <time>2014-10-31T13:44:27.000Z</time>
      </trkpt>
      <trkpt lat="47.5076" lon="6.69679">
        <ele>379.9</ele>
        <time>2014-10-31T13:44:28.000Z</time>
      </trkpt>
      <trkpt lat="47.50757" lon="6.69683">
        <ele>380.6</ele>
        <time>2014-10-31T13:44:29.000Z</time>
      </trkpt>
      <trkpt lat="47.50752" lon="6.69687">
        <ele>381.3</ele>
        <time>2014-10-31T13:44:29.999Z</time>
      </trkpt>
      <trkpt lat="47.50748" lon="6.69691">
        <ele>380.6</ele>
        <time>2014-10-31T13:44:31.001Z</time>
      </trkpt>
      <trkpt lat="47.50744" lon="6.69696">
        <ele>380.9</ele>
        <time>2014-10-31T13:44:32.000Z</time>
      </trkpt>
      <trkpt lat="47.50741" lon="6.69701">
        <ele>380.9</ele>
        <time>2014-10-31T13:44:33.000Z</time>
      </trkpt>
      <trkpt lat="47.50737" lon="6.69705">
        <ele>381.4</ele>
        <time>2014-10-31T13:44:34.000Z</time>
      </trkpt>
      <trkpt lat="47.50733" lon="6.6971">
        <ele>381.3</ele>
        <time>2014-10-31T13:44:35.000Z</time>
      </trkpt>
      <trkpt lat="47.50729" lon="6.69714">
        <ele>381.2</ele>
        <time>2014-10-31T13:44:36.000Z</time>
      </trkpt>
      <trkpt lat="47.50725" lon="6.69717">
        <ele>381.4</ele>
        <time>2014-10-31T13:44:37.000Z</time>
      </trkpt>
      <trkpt lat="47.50721" lon="6.6972">
        <ele>381.5</ele>
        <time>2014-10-31T13:44:38.000Z</time>
      </trkpt>
      <trkpt lat="47.50718" lon="6.69723">
        <ele>381.6</ele>
        <time>2014-10-31T13:44:39.000Z</time>
      </trkpt>
      <trkpt lat="47.50714" lon="6.69727">
        <ele>381.7</ele>
        <time>2014-10-31T13:44:40.000Z</time>
      </trkpt>
      <trkpt lat="47.5071" lon="6.69731">
        <ele>381.8</ele>
        <time>2014-10-31T13:44:41.000Z</time>
      </trkpt>
      <trkpt lat="47.50707" lon="6.69735">
        <ele>382.3</ele>
        <time>2014-10-31T13:44:42.000Z</time>
      </trkpt>
      <trkpt lat="47.50704" lon="6.69738">
        <ele>382.4</ele>
        <time>2014-10-31T13:44:43.000Z</time>
      </trkpt>
      <trkpt lat="47.507" lon="6.69741">
        <ele>382.3</ele>
        <time>2014-10-31T13:44:44.000Z</time>
      </trkpt>
      <trkpt lat="47.50696" lon="6.69745">
        <ele>382.8</ele>
        <time>2014-10-31T13:44:45.000Z</time>
      </trkpt>
      <trkpt lat="47.50693" lon="6.69749">
        <ele>383.1</ele>
        <time>2014-10-31T13:44:46.000Z</time>
      </trkpt>
      <trkpt lat="47.5069" lon="6.69752">
        <ele>383.5</ele>
        <time>2014-10-31T13:44:47.000Z</time>
      </trkpt>
      <trkpt lat="47.50686" lon="6.69755">
        <ele>383.9</ele>
        <time>2014-10-31T13:44:48.000Z</time>
      </trkpt>
      <trkpt lat="47.50683" lon="6.69758">
        <ele>384.1</ele>
        <time>2014-10-31T13:44:49.000Z</time>
      </trkpt>
      <trkpt lat="47.50679" lon="6.69761">
        <ele>384.4</ele>
        <time>2014-10-31T13:44:50.000Z</time>
      </trkpt>
      <trkpt lat="47.50676" lon="6.69763">
        <ele>385</ele>
        <time>2014-10-31T13:44:51.000Z</time>
      </trkpt>
      <trkpt lat="47.50672" lon="6.69766">
        <ele>385.4</ele>
        <time>2014-10-31T13:44:52.000Z</time>
      </trkpt>
      <trkpt lat="47.50645" lon="6.69792">
        <ele>385.2</ele>
        <time>2014-10-31T13:45:00.000Z</time>
      </trkpt>
      <trkpt lat="47.50641" lon="6.69795">
        <ele>385.3</ele>
        <time>2014-10-31T13:45:01.000Z</time>
      </trkpt>
      <trkpt lat="47.50638" lon="6.69799">
        <ele>385</ele>
        <time>2014-10-31T13:45:02.000Z</time>
      </trkpt>
      <trkpt lat="47.50634" lon="6.69802">
        <ele>385.1</ele>
        <time>2014-10-31T13:45:03.000Z</time>
      </trkpt>
      <trkpt lat="47.50631" lon="6.69806">
        <ele>385.5</ele>
        <time>2014-10-31T13:45:04.000Z</time>
      </trkpt>
      <trkpt lat="47.50626" lon="6.6981">
        <ele>385.7</ele>
        <time>2014-10-31T13:45:05.000Z</time>
      </trkpt>
      <trkpt lat="47.50623" lon="6.69813">
        <ele>386.4</ele>
        <time>2014-10-31T13:45:06.000Z</time>
      </trkpt>
      <trkpt lat="47.50619" lon="6.69816">
        <ele>386.3</ele>
        <time>2014-10-31T13:45:07.000Z</time>
      </trkpt>
      <trkpt lat="47.50615" lon="6.6982">
        <ele>385.5</ele>
        <time>2014-10-31T13:45:08.000Z</time>
      </trkpt>
      <trkpt lat="47.50613" lon="6.69823">
        <ele>384.1</ele>
        <time>2014-10-31T13:45:09.000Z</time>
      </trkpt>
      <trkpt lat="47.50608" lon="6.69825">
        <ele>384.8</ele>
        <time>2014-10-31T13:45:10.000Z</time>
      </trkpt>
      <trkpt lat="47.50603" lon="6.69829">
        <ele>384.2</ele>
        <time>2014-10-31T13:45:11.000Z</time>
      </trkpt>
      <trkpt lat="47.50599" lon="6.69832">
        <ele>384.3</ele>
        <time>2014-10-31T13:45:12.000Z</time>
      </trkpt>
      <trkpt lat="47.50595" lon="6.69836">
        <ele>384.6</ele>
        <time>2014-10-31T13:45:13.000Z</time>
      </trkpt>
      <trkpt lat="47.50591" lon="6.69839">
        <ele>385.6</ele>
        <time>2014-10-31T13:45:14.000Z</time>
      </trkpt>
      <trkpt lat="47.50587" lon="6.69842">
        <ele>385.7</ele>
        <time>2014-10-31T13:45:15.000Z</time>
      </trkpt>
      <trkpt lat="47.50584" lon="6.69847">
        <ele>387.6</ele>
        <time>2014-10-31T13:45:16.000Z</time>
      </trkpt>
      <trkpt lat="47.50582" lon="6.6985">
        <ele>388.9</ele>
        <time>2014-10-31T13:45:17.000Z</time>
      </trkpt>
      <trkpt lat="47.50578" lon="6.69852">
        <ele>389.9</ele>
        <time>2014-10-31T13:45:18.000Z</time>
      </trkpt>
      <trkpt lat="47.50575" lon="6.69855">
        <ele>389.8</ele>
        <time>2014-10-31T13:45:19.000Z</time>
      </trkpt>
      <trkpt lat="47.50571" lon="6.69859">
        <ele>389.8</ele>
        <time>2014-10-31T13:45:20.000Z</time>
      </trkpt>
      <trkpt lat="47.50568" lon="6.69863">
        <ele>389.9</ele>
        <time>2014-10-31T13:45:21.000Z</time>
      </trkpt>
      <trkpt lat="47.50564" lon="6.69867">
        <ele>389.1</ele>
        <time>2014-10-31T13:45:22.000Z</time>
      </trkpt>
      <trkpt lat="47.50561" lon="6.6987">
        <ele>388.4</ele>
        <time>2014-10-31T13:45:23.000Z</time>
      </trkpt>
      <trkpt lat="47.50557" lon="6.69871">
        <ele>385.9</ele>
        <time>2014-10-31T13:45:24.000Z</time>
      </trkpt>
      <trkpt lat="47.50553" lon="6.69874">
        <ele>386.2</ele>
        <time>2014-10-31T13:45:25.000Z</time>
      </trkpt>
      <trkpt lat="47.50549" lon="6.69878">
        <ele>386.1</ele>
        <time>2014-10-31T13:45:26.000Z</time>
      </trkpt>
      <trkpt lat="47.50546" lon="6.69882">
        <ele>386.2</ele>
        <time>2014-10-31T13:45:27.000Z</time>
      </trkpt>
      <trkpt lat="47.50542" lon="6.69886">
        <ele>386.1</ele>
        <time>2014-10-31T13:45:28.000Z</time>
      </trkpt>
      <trkpt lat="47.50539" lon="6.6989">
        <ele>385.9</ele>
        <time>2014-10-31T13:45:29.000Z</time>
      </trkpt>
      <trkpt lat="47.50535" lon="6.69894">
        <ele>385.7</ele>
        <time>2014-10-31T13:45:30.000Z</time>
      </trkpt>
      <trkpt lat="47.50531" lon="6.69898">
        <ele>385.6</ele>
        <time>2014-10-31T13:45:31.000Z</time>
      </trkpt>
      <trkpt lat="47.50527" lon="6.69902">
        <ele>385.7</ele>
        <time>2014-10-31T13:45:32.000Z</time>
      </trkpt>
      <trkpt lat="47.50523" lon="6.69907">
        <ele>385.3</ele>
        <time>2014-10-31T13:45:33.000Z</time>
      </trkpt>
      <trkpt lat="47.50519" lon="6.69911">
        <ele>385.9</ele>
        <time>2014-10-31T13:45:34.000Z</time>
      </trkpt>
      <trkpt lat="47.50516" lon="6.69914">
        <ele>386.5</ele>
        <time>2014-10-31T13:45:35.000Z</time>
      </trkpt>
      <trkpt lat="47.50513" lon="6.69918">
        <ele>387.4</ele>
        <time>2014-10-31T13:45:36.000Z</time>
      </trkpt>
      <trkpt lat="47.50509" lon="6.69921">
        <ele>388.4</ele>
        <time>2014-10-31T13:45:37.000Z</time>
      </trkpt>
      <trkpt lat="47.50505" lon="6.69925">
        <ele>388.6</ele>
        <time>2014-10-31T13:45:38.000Z</time>
      </trkpt>
      <trkpt lat="47.50501" lon="6.69929">
        <ele>388.3</ele>
        <time>2014-10-31T13:45:39.000Z</time>
      </trkpt>
      <trkpt lat="47.50497" lon="6.69933">
        <ele>387.9</ele>
        <time>2014-10-31T13:45:40.000Z</time>
      </trkpt>
      <trkpt lat="47.50493" lon="6.69935">
        <ele>388.3</ele>
        <time>2014-10-31T13:45:41.000Z</time>
      </trkpt>
      <trkpt lat="47.50489" lon="6.69937">
        <ele>389.8</ele>
        <time>2014-10-31T13:45:42.000Z</time>
      </trkpt>
      <trkpt lat="47.50485" lon="6.69939">
        <ele>390.2</ele>
        <time>2014-10-31T13:45:43.000Z</time>
      </trkpt>
      <trkpt lat="47.50481" lon="6.69941">
        <ele>390.4</ele>
        <time>2014-10-31T13:45:44.000Z</time>
      </trkpt>
      <trkpt lat="47.50477" lon="6.69943">
        <ele>390.1</ele>
        <time>2014-10-31T13:45:45.000Z</time>
      </trkpt>
      <trkpt lat="47.50473" lon="6.69946">
        <ele>389.7</ele>
        <time>2014-10-31T13:45:46.000Z</time>
      </trkpt>
      <trkpt lat="47.50468" lon="6.69949">
        <ele>389.5</ele>
        <time>2014-10-31T13:45:47.000Z</time>
      </trkpt>
      <trkpt lat="47.50463" lon="6.69951">
        <ele>388.9</ele>
        <time>2014-10-31T13:45:48.000Z</time>
      </trkpt>
      <trkpt lat="47.50458" lon="6.69954">
        <ele>389.5</ele>
        <time>2014-10-31T13:45:49.000Z</time>
      </trkpt>
      <trkpt lat="47.50454" lon="6.69956">
        <ele>389.3</ele>
        <time>2014-10-31T13:45:50.000Z</time>
      </trkpt>
      <trkpt lat="47.5045" lon="6.69957">
        <ele>388.9</ele>
        <time>2014-10-31T13:45:51.000Z</time>
      </trkpt>
      <trkpt lat="47.50445" lon="6.69959">
        <ele>389.4</ele>
        <time>2014-10-31T13:45:52.000Z</time>
      </trkpt>
      <trkpt lat="47.50409" lon="6.69977">
        <ele>391.9</ele>
        <time>2014-10-31T13:46:00.000Z</time>
      </trkpt>
      <trkpt lat="47.50404" lon="6.69979">
        <ele>391.5</ele>
        <time>2014-10-31T13:46:01.000Z</time>
      </trkpt>
      <trkpt lat="47.50399" lon="6.69982">
        <ele>389.7</ele>
        <time>2014-10-31T13:46:02.000Z</time>
      </trkpt>
      <trkpt lat="47.50394" lon="6.69983">
        <ele>389.7</ele>
        <time>2014-10-31T13:46:03.000Z</time>
      </trkpt>
      <trkpt lat="47.5039" lon="6.69986">
        <ele>390.1</ele>
        <time>2014-10-31T13:46:04.000Z</time>
      </trkpt>
      <trkpt lat="47.50385" lon="6.69988">
        <ele>390.5</ele>
        <time>2014-10-31T13:46:05.000Z</time>
      </trkpt>
      <trkpt lat="47.5038" lon="6.69989">
        <ele>390.3</ele>
        <time>2014-10-31T13:46:06.000Z</time>
      </trkpt>
      <trkpt lat="47.50376" lon="6.69991">
        <ele>390.4</ele>
        <time>2014-10-31T13:46:07.000Z</time>
      </trkpt>
      <trkpt lat="47.50371" lon="6.69994">
        <ele>390.6</ele>
        <time>2014-10-31T13:46:08.000Z</time>
      </trkpt>
      <trkpt lat="47.50365" lon="6.69996">
        <ele>389.8</ele>
        <time>2014-10-31T13:46:09.000Z</time>
      </trkpt>
      <trkpt lat="47.50361" lon="6.69998">
        <ele>390.8</ele>
        <time>2014-10-31T13:46:10.000Z</time>
      </trkpt>
      <trkpt lat="47.50355" lon="6.69999">
        <ele>390.6</ele>
        <time>2014-10-31T13:46:11.000Z</time>
      </trkpt>
      <trkpt lat="47.5035" lon="6.7">
        <ele>390.9</ele>
        <time>2014-10-31T13:46:12.000Z</time>
      </trkpt>
      <trkpt lat="47.50345" lon="6.70001">
        <ele>390.9</ele>
        <time>2014-10-31T13:46:13.000Z</time>
      </trkpt>
      <trkpt lat="47.5034" lon="6.70003">
        <ele>392.1</ele>
        <time>2014-10-31T13:46:14.000Z</time>
      </trkpt>
      <trkpt lat="47.50335" lon="6.70005">
        <ele>392.5</ele>
        <time>2014-10-31T13:46:15.000Z</time>
      </trkpt>
      <trkpt lat="47.50329" lon="6.70007">
        <ele>391.5</ele>
        <time>2014-10-31T13:46:16.000Z</time>
      </trkpt>
      <trkpt lat="47.50323" lon="6.70009">
        <ele>390.6</ele>
        <time>2014-10-31T13:46:17.000Z</time>
      </trkpt>
      <trkpt lat="47.50317" lon="6.7001">
        <ele>391</ele>
        <time>2014-10-31T13:46:18.000Z</time>
      </trkpt>
      <trkpt lat="47.50311" lon="6.70011">
        <ele>391.5</ele>
        <time>2014-10-31T13:46:19.000Z</time>
      </trkpt>
      <trkpt lat="47.50305" lon="6.70013">
        <ele>391.6</ele>
        <time>2014-10-31T13:46:20.000Z</time>
      </trkpt>
      <trkpt lat="47.50299" lon="6.70015">
        <ele>391.4</ele>
        <time>2014-10-31T13:46:21.000Z</time>
      </trkpt>
      <trkpt lat="47.50293" lon="6.70016">
        <ele>391.4</ele>
        <time>2014-10-31T13:46:22.000Z</time>
      </trkpt>
      <trkpt lat="47.50288" lon="6.70018">
        <ele>390</ele>
        <time>2014-10-31T13:46:23.000Z</time>
      </trkpt>
      <trkpt lat="47.50282" lon="6.7002">
        <ele>389.8</ele>
        <time>2014-10-31T13:46:24.000Z</time>
      </trkpt>
      <trkpt lat="47.50276" lon="6.70022">
        <ele>389.9</ele>
        <time>2014-10-31T13:46:25.000Z</time>
      </trkpt>
      <trkpt lat="47.5027" lon="6.70024">
        <ele>387.6</ele>
        <time>2014-10-31T13:46:26.000Z</time>
      </trkpt>
      <trkpt lat="47.50264" lon="6.70026">
        <ele>387.3</ele>
        <time>2014-10-31T13:46:27.000Z</time>
      </trkpt>
      <trkpt lat="47.50257" lon="6.7003">
        <ele>386.7</ele>
        <time>2014-10-31T13:46:28.000Z</time>
      </trkpt>
      <trkpt lat="47.50251" lon="6.70033">
        <ele>386.1</ele>
        <time>2014-10-31T13:46:29.000Z</time>
      </trkpt>
      <trkpt lat="47.50245" lon="6.70036">
        <ele>384.6</ele>
        <time>2014-10-31T13:46:30.000Z</time>
      </trkpt>
      <trkpt lat="47.5024" lon="6.7004">
        <ele>385</ele>
        <time>2014-10-31T13:46:31.000Z</time>
      </trkpt>
      <trkpt lat="47.50234" lon="6.70045">
        <ele>385.6</ele>
        <time>2014-10-31T13:46:32.000Z</time>
      </trkpt>
      <trkpt lat="47.50228" lon="6.70049">
        <ele>384.5</ele>
        <time>2014-10-31T13:46:33.000Z</time>
      </trkpt>
      <trkpt lat="47.50224" lon="6.70054">
        <ele>383.9</ele>
        <time>2014-10-31T13:46:34.000Z</time>
      </trkpt>
      <trkpt lat="47.5022" lon="6.70062">
        <ele>381.9</ele>
        <time>2014-10-31T13:46:35.000Z</time>
      </trkpt>
      <trkpt lat="47.50216" lon="6.7007">
        <ele>381.5</ele>
        <time>2014-10-31T13:46:36.000Z</time>
      </trkpt>
      <trkpt lat="47.50212" lon="6.70079">
        <ele>381.2</ele>
        <time>2014-10-31T13:46:37.000Z</time>
      </trkpt>
      <trkpt lat="47.50207" lon="6.70087">
        <ele>381.2</ele>
        <time>2014-10-31T13:46:38.000Z</time>
      </trkpt>
      <trkpt lat="47.50204" lon="6.70096">
        <ele>380.6</ele>
        <time>2014-10-31T13:46:39.000Z</time>
      </trkpt>
      <trkpt lat="47.502" lon="6.70105">
        <ele>379.3</ele>
        <time>2014-10-31T13:46:40.000Z</time>
      </trkpt>
      <trkpt lat="47.50195" lon="6.70113">
        <ele>379.4</ele>
        <time>2014-10-31T13:46:41.000Z</time>
      </trkpt>
      <trkpt lat="47.50189" lon="6.70119">
        <ele>379.7</ele>
        <time>2014-10-31T13:46:42.000Z</time>
      </trkpt>
      <trkpt lat="47.50184" lon="6.70126">
        <ele>379.1</ele>
        <time>2014-10-31T13:46:43.000Z</time>
      </trkpt>
      <trkpt lat="47.50179" lon="6.70133">
        <ele>379.6</ele>
        <time>2014-10-31T13:46:44.000Z</time>
      </trkpt>
      <trkpt lat="47.50173" lon="6.70139">
        <ele>379</ele>
        <time>2014-10-31T13:46:45.000Z</time>
      </trkpt>
      <trkpt lat="47.50167" lon="6.70145">
        <ele>379.1</ele>
        <time>2014-10-31T13:46:46.000Z</time>
      </trkpt>
      <trkpt lat="47.50162" lon="6.70151">
        <ele>379.1</ele>
        <time>2014-10-31T13:46:47.000Z</time>
      </trkpt>
      <trkpt lat="47.50156" lon="6.70157">
        <ele>378.9</ele>
        <time>2014-10-31T13:46:48.000Z</time>
      </trkpt>
      <trkpt lat="47.50148" lon="6.70163">
        <ele>378.9</ele>
        <time>2014-10-31T13:46:49.000Z</time>
      </trkpt>
      <trkpt lat="47.50142" lon="6.70172">
        <ele>379.2</ele>
        <time>2014-10-31T13:46:50.000Z</time>
      </trkpt>
      <trkpt lat="47.50136" lon="6.7018">
        <ele>378.6</ele>
        <time>2014-10-31T13:46:51.000Z</time>
      </trkpt>
      <trkpt lat="47.50131" lon="6.70188">
        <ele>378.5</ele>
        <time>2014-10-31T13:46:52.000Z</time>
      </trkpt>
      <trkpt lat="47.50082" lon="6.70244">
        <ele>375</ele>
        <time>2014-10-31T13:46:59.760Z</time>
      </trkpt>
      <trkpt lat="47.50072" lon="6.70251">
        <ele>375.3</ele>
        <time>2014-10-31T13:47:01.000Z</time>
      </trkpt>
      <trkpt lat="47.50065" lon="6.70256">
        <ele>375.2</ele>
        <time>2014-10-31T13:47:02.000Z</time>
      </trkpt>
      <trkpt lat="47.50058" lon="6.70262">
        <ele>373.5</ele>
        <time>2014-10-31T13:47:03.000Z</time>
      </trkpt>
      <trkpt lat="47.50051" lon="6.70268">
        <ele>373.1</ele>
        <time>2014-10-31T13:47:04.000Z</time>
      </trkpt>
      <trkpt lat="47.50045" lon="6.70276">
        <ele>373.9</ele>
        <time>2014-10-31T13:47:05.000Z</time>
      </trkpt>
      <trkpt lat="47.50041" lon="6.70284">
        <ele>369.3</ele>
        <time>2014-10-31T13:47:06.000Z</time>
      </trkpt>
      <trkpt lat="47.50037" lon="6.70292">
        <ele>368.7</ele>
        <time>2014-10-31T13:47:07.000Z</time>
      </trkpt>
      <trkpt lat="47.50033" lon="6.703">
        <ele>368.7</ele>
        <time>2014-10-31T13:47:08.000Z</time>
      </trkpt>
      <trkpt lat="47.50029" lon="6.70308">
        <ele>368.7</ele>
        <time>2014-10-31T13:47:09.000Z</time>
      </trkpt>
      <trkpt lat="47.50024" lon="6.70316">
        <ele>369.4</ele>
        <time>2014-10-31T13:47:10.000Z</time>
      </trkpt>
      <trkpt lat="47.5002" lon="6.70324">
        <ele>369.5</ele>
        <time>2014-10-31T13:47:11.000Z</time>
      </trkpt>
      <trkpt lat="47.50016" lon="6.70332">
        <ele>370</ele>
        <time>2014-10-31T13:47:12.000Z</time>
      </trkpt>
      <trkpt lat="47.50011" lon="6.70339">
        <ele>370.7</ele>
        <time>2014-10-31T13:47:13.000Z</time>
      </trkpt>
      <trkpt lat="47.50007" lon="6.70346">
        <ele>372.5</ele>
        <time>2014-10-31T13:47:14.000Z</time>
      </trkpt>
      <trkpt lat="47.50003" lon="6.70352">
        <ele>373.7</ele>
        <time>2014-10-31T13:47:15.000Z</time>
      </trkpt>
      <trkpt lat="47.49999" lon="6.70361">
        <ele>373.5</ele>
        <time>2014-10-31T13:47:16.000Z</time>
      </trkpt>
      <trkpt lat="47.49996" lon="6.70366">
        <ele>374.2</ele>
        <time>2014-10-31T13:47:17.000Z</time>
      </trkpt>
      <trkpt lat="47.49992" lon="6.70372">
        <ele>375.1</ele>
        <time>2014-10-31T13:47:18.000Z</time>
      </trkpt>
      <trkpt lat="47.49988" lon="6.70378">
        <ele>374.4</ele>
        <time>2014-10-31T13:47:19.000Z</time>
      </trkpt>
      <trkpt lat="47.49983" lon="6.70382">
        <ele>374.6</ele>
        <time>2014-10-31T13:47:20.000Z</time>
      </trkpt>
      <trkpt lat="47.49979" lon="6.70388">
        <ele>375.2</ele>
        <time>2014-10-31T13:47:21.000Z</time>
      </trkpt>
      <trkpt lat="47.49975" lon="6.70394">
        <ele>375.2</ele>
        <time>2014-10-31T13:47:22.000Z</time>
      </trkpt>
      <trkpt lat="47.49971" lon="6.704">
        <ele>374.4</ele>
        <time>2014-10-31T13:47:23.000Z</time>
      </trkpt>
      <trkpt lat="47.49967" lon="6.70404">
        <ele>374</ele>
        <time>2014-10-31T13:47:24.000Z</time>
      </trkpt>
      <trkpt lat="47.49962" lon="6.70408">
        <ele>375</ele>
        <time>2014-10-31T13:47:25.000Z</time>
      </trkpt>
      <trkpt lat="47.49958" lon="6.70412">
        <ele>374.8</ele>
        <time>2014-10-31T13:47:26.000Z</time>
      </trkpt>
      <trkpt lat="47.49953" lon="6.70419">
        <ele>374.5</ele>
        <time>2014-10-31T13:47:27.000Z</time>
      </trkpt>
      <trkpt lat="47.49948" lon="6.70424">
        <ele>374.9</ele>
        <time>2014-10-31T13:47:28.000Z</time>
      </trkpt>
      <trkpt lat="47.49944" lon="6.70431">
        <ele>374.4</ele>
        <time>2014-10-31T13:47:29.000Z</time>
      </trkpt>
      <trkpt lat="47.49938" lon="6.70437">
        <ele>374.2</ele>
        <time>2014-10-31T13:47:30.000Z</time>
      </trkpt>
      <trkpt lat="47.49932" lon="6.70443">
        <ele>374.3</ele>
        <time>2014-10-31T13:47:31.000Z</time>
      </trkpt>
      <trkpt lat="47.49928" lon="6.7045">
        <ele>374</ele>
        <time>2014-10-31T13:47:32.000Z</time>
      </trkpt>
      <trkpt lat="47.49922" lon="6.70455">
        <ele>373.3</ele>
        <time>2014-10-31T13:47:33.000Z</time>
      </trkpt>
      <trkpt lat="47.49917" lon="6.7046">
        <ele>372.3</ele>
        <time>2014-10-31T13:47:34.000Z</time>
      </trkpt>
      <trkpt lat="47.49913" lon="6.70467">
        <ele>373</ele>
        <time>2014-10-31T13:47:35.000Z</time>
      </trkpt>
      <trkpt lat="47.4991" lon="6.70473">
        <ele>372.9</ele>
        <time>2014-10-31T13:47:36.000Z</time>
      </trkpt>
      <trkpt lat="47.49906" lon="6.70481">
        <ele>372.6</ele>
        <time>2014-10-31T13:47:37.000Z</time>
      </trkpt>
      <trkpt lat="47.49903" lon="6.70487">
        <ele>372.3</ele>
        <time>2014-10-31T13:47:38.000Z</time>
      </trkpt>
      <trkpt lat="47.499" lon="6.70493">
        <ele>371.7</ele>
        <time>2014-10-31T13:47:39.000Z</time>
      </trkpt>
      <trkpt lat="47.49896" lon="6.705">
        <ele>372</ele>
        <time>2014-10-31T13:47:40.000Z</time>
      </trkpt>
      <trkpt lat="47.49892" lon="6.70506">
        <ele>372.5</ele>
        <time>2014-10-31T13:47:41.000Z</time>
      </trkpt>
      <trkpt lat="47.49886" lon="6.70512">
        <ele>371.7</ele>
        <time>2014-10-31T13:47:42.000Z</time>
      </trkpt>
      <trkpt lat="47.49882" lon="6.70519">
        <ele>371.1</ele>
        <time>2014-10-31T13:47:43.000Z</time>
      </trkpt>
      <trkpt lat="47.49876" lon="6.70525">
        <ele>370.7</ele>
        <time>2014-10-31T13:47:44.000Z</time>
      </trkpt>
      <trkpt lat="47.49872" lon="6.7053">
        <ele>371.8</ele>
        <time>2014-10-31T13:47:45.000Z</time>
      </trkpt>
      <trkpt lat="47.49869" lon="6.70536">
        <ele>371</ele>
        <time>2014-10-31T13:47:46.000Z</time>
      </trkpt>
      <trkpt lat="47.49864" lon="6.70541">
        <ele>371.8</ele>
        <time>2014-10-31T13:47:47.000Z</time>
      </trkpt>
      <trkpt lat="47.49861" lon="6.70545">
        <ele>371.2</ele>
        <time>2014-10-31T13:47:48.000Z</time>
      </trkpt>
      <trkpt lat="47.49857" lon="6.70551">
        <ele>370.9</ele>
        <time>2014-10-31T13:47:49.000Z</time>
      </trkpt>
      <trkpt lat="47.49854" lon="6.70555">
        <ele>370.8</ele>
        <time>2014-10-31T13:47:50.000Z</time>
      </trkpt>
      <trkpt lat="47.49851" lon="6.70559">
        <ele>370.8</ele>
        <time>2014-10-31T13:47:51.000Z</time>
      </trkpt>
      <trkpt lat="47.49847" lon="6.70563">
        <ele>370.4</ele>
        <time>2014-10-31T13:47:52.000Z</time>
      </trkpt>
      <trkpt lat="47.49817" lon="6.70599">
        <ele>371.6</ele>
        <time>2014-10-31T13:48:00.000Z</time>
      </trkpt>
      <trkpt lat="47.49814" lon="6.70604">
        <ele>372</ele>
        <time>2014-10-31T13:48:01.000Z</time>
      </trkpt>
      <trkpt lat="47.4981" lon="6.7061">
        <ele>372.2</ele>
        <time>2014-10-31T13:48:02.000Z</time>
      </trkpt>
      <trkpt lat="47.49807" lon="6.70613">
        <ele>372.5</ele>
        <time>2014-10-31T13:48:03.000Z</time>
      </trkpt>
      <trkpt lat="47.49802" lon="6.70616">
        <ele>372.7</ele>
        <time>2014-10-31T13:48:04.000Z</time>
      </trkpt>
      <trkpt lat="47.49799" lon="6.7062">
        <ele>373</ele>
        <time>2014-10-31T13:48:05.000Z</time>
      </trkpt>
      <trkpt lat="47.49794" lon="6.70623">
        <ele>373.6</ele>
        <time>2014-10-31T13:48:06.000Z</time>
      </trkpt>
      <trkpt lat="47.49791" lon="6.70627">
        <ele>372.6</ele>
        <time>2014-10-31T13:48:07.000Z</time>
      </trkpt>
      <trkpt lat="47.49787" lon="6.70631">
        <ele>373.1</ele>
        <time>2014-10-31T13:48:08.000Z</time>
      </trkpt>
      <trkpt lat="47.49784" lon="6.70634">
        <ele>373.7</ele>
        <time>2014-10-31T13:48:09.000Z</time>
      </trkpt>
      <trkpt lat="47.4978" lon="6.70637">
        <ele>373.6</ele>
        <time>2014-10-31T13:48:10.000Z</time>
      </trkpt>
      <trkpt lat="47.49777" lon="6.7064">
        <ele>373.9</ele>
        <time>2014-10-31T13:48:11.000Z</time>
      </trkpt>
      <trkpt lat="47.49773" lon="6.70642">
        <ele>372.8</ele>
        <time>2014-10-31T13:48:12.000Z</time>
      </trkpt>
      <trkpt lat="47.4977" lon="6.70645">
        <ele>372.8</ele>
        <time>2014-10-31T13:48:13.000Z</time>
      </trkpt>
      <trkpt lat="47.49767" lon="6.70648">
        <ele>373.6</ele>
        <time>2014-10-31T13:48:14.000Z</time>
      </trkpt>
      <trkpt lat="47.49764" lon="6.7065">
        <ele>373.9</ele>
        <time>2014-10-31T13:48:15.000Z</time>
      </trkpt>
      <trkpt lat="47.49762" lon="6.70653">
        <ele>373.9</ele>
        <time>2014-10-31T13:48:16.000Z</time>
      </trkpt>
      <trkpt lat="47.49759" lon="6.70656">
        <ele>374.5</ele>
        <time>2014-10-31T13:48:17.000Z</time>
      </trkpt>
      <trkpt lat="47.49756" lon="6.70659">
        <ele>374.8</ele>
        <time>2014-10-31T13:48:18.000Z</time>
      </trkpt>
      <trkpt lat="47.49753" lon="6.70661">
        <ele>375.3</ele>
        <time>2014-10-31T13:48:19.000Z</time>
      </trkpt>
      <trkpt lat="47.4975" lon="6.70663">
        <ele>374.7</ele>
        <time>2014-10-31T13:48:20.000Z</time>
      </trkpt>
      <trkpt lat="47.49748" lon="6.70665">
        <ele>375</ele>
        <time>2014-10-31T13:48:21.000Z</time>
      </trkpt>
      <trkpt lat="47.49746" lon="6.70667">
        <ele>375.5</ele>
        <time>2014-10-31T13:48:22.000Z</time>
      </trkpt>
      <trkpt lat="47.49743" lon="6.70669">
        <ele>375.9</ele>
        <time>2014-10-31T13:48:23.000Z</time>
      </trkpt>
      <trkpt lat="47.4974" lon="6.70671">
        <ele>376.9</ele>
        <time>2014-10-31T13:48:24.000Z</time>
      </trkpt>
      <trkpt lat="47.49737" lon="6.70673">
        <ele>377</ele>
        <time>2014-10-31T13:48:25.000Z</time>
      </trkpt>
      <trkpt lat="47.49734" lon="6.70674">
        <ele>376.3</ele>
        <time>2014-10-31T13:48:26.000Z</time>
      </trkpt>
      <trkpt lat="47.49732" lon="6.70676">
        <ele>376.9</ele>
        <time>2014-10-31T13:48:27.000Z</time>
      </trkpt>
      <trkpt lat="47.49729" lon="6.70678">
        <ele>377.5</ele>
        <time>2014-10-31T13:48:28.000Z</time>
      </trkpt>
      <trkpt lat="47.49727" lon="6.70679">
        <ele>377.4</ele>
        <time>2014-10-31T13:48:29.000Z</time>
      </trkpt>
      <trkpt lat="47.49724" lon="6.70681">
        <ele>377.3</ele>
        <time>2014-10-31T13:48:30.000Z</time>
      </trkpt>
      <trkpt lat="47.49721" lon="6.70682">
        <ele>377</ele>
        <time>2014-10-31T13:48:31.000Z</time>
      </trkpt>
      <trkpt lat="47.49719" lon="6.70684">
        <ele>377.3</ele>
        <time>2014-10-31T13:48:32.000Z</time>
      </trkpt>
      <trkpt lat="47.49716" lon="6.70685">
        <ele>378.2</ele>
        <time>2014-10-31T13:48:33.000Z</time>
      </trkpt>
      <trkpt lat="47.49714" lon="6.70687">
        <ele>378.1</ele>
        <time>2014-10-31T13:48:34.000Z</time>
      </trkpt>
      <trkpt lat="47.49711" lon="6.70688">
        <ele>378.8</ele>
        <time>2014-10-31T13:48:35.000Z</time>
      </trkpt>
      <trkpt lat="47.49708" lon="6.70689">
        <ele>379.3</ele>
        <time>2014-10-31T13:48:36.000Z</time>
      </trkpt>
      <trkpt lat="47.49706" lon="6.7069">
        <ele>379.6</ele>
        <time>2014-10-31T13:48:37.000Z</time>
      </trkpt>
      <trkpt lat="47.49704" lon="6.70692">
        <ele>379</ele>
        <time>2014-10-31T13:48:38.000Z</time>
      </trkpt>
      <trkpt lat="47.49701" lon="6.70693">
        <ele>378.9</ele>
        <time>2014-10-31T13:48:39.000Z</time>
      </trkpt>
      <trkpt lat="47.49699" lon="6.70694">
        <ele>379.2</ele>
        <time>2014-10-31T13:48:40.000Z</time>
      </trkpt>
      <trkpt lat="47.49695" lon="6.70695">
        <ele>380.3</ele>
        <time>2014-10-31T13:48:42.000Z</time>
      </trkpt>
      <trkpt lat="47.49693" lon="6.70695">
        <ele>380.2</ele>
        <time>2014-10-31T13:48:43.000Z</time>
      </trkpt>
      <trkpt lat="47.49689" lon="6.70698">
        <ele>380.2</ele>
        <time>2014-10-31T13:48:45.000Z</time>
      </trkpt>
      <trkpt lat="47.49687" lon="6.70699">
        <ele>379</ele>
        <time>2014-10-31T13:48:46.000Z</time>
      </trkpt>
      <trkpt lat="47.49683" lon="6.70703">
        <ele>378.4</ele>
        <time>2014-10-31T13:48:48.000Z</time>
      </trkpt>
      <trkpt lat="47.49682" lon="6.70705">
        <ele>378.3</ele>
        <time>2014-10-31T13:48:49.000Z</time>
      </trkpt>
      <trkpt lat="47.49679" lon="6.7071">
        <ele>375.5</ele>
        <time>2014-10-31T13:48:51.000Z</time>
      </trkpt>
      <trkpt lat="47.49679" lon="6.70713">
        <ele>375.6</ele>
        <time>2014-10-31T13:48:52.000Z</time>
      </trkpt>
      <trkpt lat="47.49677" lon="6.7074">
        <ele>379.9</ele>
        <time>2014-10-31T13:49:00.000Z</time>
      </trkpt>
      <trkpt lat="47.49678" lon="6.70746">
        <ele>381.7</ele>
        <time>2014-10-31T13:49:02.000Z</time>
      </trkpt>
      <trkpt lat="47.49679" lon="6.70749">
        <ele>382.1</ele>
        <time>2014-10-31T13:49:03.000Z</time>
      </trkpt>
      <trkpt lat="47.4968" lon="6.70752">
        <ele>382</ele>
        <time>2014-10-31T13:49:04.000Z</time>
      </trkpt>
      <trkpt lat="47.49681" lon="6.70755">
        <ele>383.8</ele>
        <time>2014-10-31T13:49:05.000Z</time>
      </trkpt>
      <trkpt lat="47.49681" lon="6.70759">
        <ele>386</ele>
        <time>2014-10-31T13:49:07.000Z</time>
      </trkpt>
      <trkpt lat="47.49681" lon="6.70762">
        <ele>387</ele>
        <time>2014-10-31T13:49:08.000Z</time>
      </trkpt>
      <trkpt lat="47.49681" lon="6.70766">
        <ele>388</ele>
        <time>2014-10-31T13:49:10.000Z</time>
      </trkpt>
      <trkpt lat="47.49681" lon="6.70768">
        <ele>389.1</ele>
        <time>2014-10-31T13:49:11.000Z</time>
      </trkpt>
      <trkpt lat="47.49681" lon="6.70773">
        <ele>389</ele>
        <time>2014-10-31T13:49:13.000Z</time>
      </trkpt>
      <trkpt lat="47.49681" lon="6.70776">
        <ele>390</ele>
        <time>2014-10-31T13:49:14.000Z</time>
      </trkpt>
      <trkpt lat="47.49679" lon="6.70779">
        <ele>391.2</ele>
        <time>2014-10-31T13:49:16.000Z</time>
      </trkpt>
      <trkpt lat="47.49677" lon="6.7078">
        <ele>391.4</ele>
        <time>2014-10-31T13:49:17.000Z</time>
      </trkpt>
      <trkpt lat="47.49674" lon="6.70781">
        <ele>391.5</ele>
        <time>2014-10-31T13:49:19.000Z</time>
      </trkpt>
      <trkpt lat="47.49672" lon="6.7078">
        <ele>392.6</ele>
        <time>2014-10-31T13:49:20.000Z</time>
      </trkpt>
      <trkpt lat="47.4967" lon="6.70776">
        <ele>394.1</ele>
        <time>2014-10-31T13:49:22.000Z</time>
      </trkpt>
      <trkpt lat="47.49669" lon="6.70774">
        <ele>394.8</ele>
        <time>2014-10-31T13:49:23.000Z</time>
      </trkpt>
      <trkpt lat="47.49667" lon="6.70771">
        <ele>393.1</ele>
        <time>2014-10-31T13:49:24.000Z</time>
      </trkpt>
      <trkpt lat="47.49666" lon="6.70768">
        <ele>392.6</ele>
        <time>2014-10-31T13:49:25.000Z</time>
      </trkpt>
      <trkpt lat="47.49664" lon="6.70763">
        <ele>392.8</ele>
        <time>2014-10-31T13:49:27.000Z</time>
      </trkpt>
      <trkpt lat="47.49662" lon="6.7076">
        <ele>393.5</ele>
        <time>2014-10-31T13:49:28.000Z</time>
      </trkpt>
      <trkpt lat="47.4966" lon="6.70755">
        <ele>393.3</ele>
        <time>2014-10-31T13:49:30.000Z</time>
      </trkpt>
      <trkpt lat="47.49659" lon="6.70753">
        <ele>394.2</ele>
        <time>2014-10-31T13:49:31.000Z</time>
      </trkpt>
      <trkpt lat="47.49658" lon="6.70749">
        <ele>393.8</ele>
        <time>2014-10-31T13:49:33.000Z</time>
      </trkpt>
      <trkpt lat="47.49657" lon="6.70747">
        <ele>394</ele>
        <time>2014-10-31T13:49:34.000Z</time>
      </trkpt>
      <trkpt lat="47.49656" lon="6.70743">
        <ele>395.4</ele>
        <time>2014-10-31T13:49:36.000Z</time>
      </trkpt>
      <trkpt lat="47.49655" lon="6.7074">
        <ele>395.6</ele>
        <time>2014-10-31T13:49:37.000Z</time>
      </trkpt>
      <trkpt lat="47.49654" lon="6.70736">
        <ele>397.8</ele>
        <time>2014-10-31T13:49:39.000Z</time>
      </trkpt>
      <trkpt lat="47.49653" lon="6.70734">
        <ele>397.9</ele>
        <time>2014-10-31T13:49:40.000Z</time>
      </trkpt>
      <trkpt lat="47.49651" lon="6.70728">
        <ele>398.1</ele>
        <time>2014-10-31T13:49:42.000Z</time>
      </trkpt>
      <trkpt lat="47.4965" lon="6.70726">
        <ele>398.9</ele>
        <time>2014-10-31T13:49:43.000Z</time>
      </trkpt>
      <trkpt lat="47.49647" lon="6.70721">
        <ele>398.9</ele>
        <time>2014-10-31T13:49:45.000Z</time>
      </trkpt>
      <trkpt lat="47.49646" lon="6.70719">
        <ele>398.2</ele>
        <time>2014-10-31T13:49:46.000Z</time>
      </trkpt>
      <trkpt lat="47.49642" lon="6.70715">
        <ele>397.1</ele>
        <time>2014-10-31T13:49:48.000Z</time>
      </trkpt>
      <trkpt lat="47.49641" lon="6.70713">
        <ele>398.5</ele>
        <time>2014-10-31T13:49:49.000Z</time>
      </trkpt>
      <trkpt lat="47.49638" lon="6.7071">
        <ele>400.3</ele>
        <time>2014-10-31T13:49:51.000Z</time>
      </trkpt>
      <trkpt lat="47.49637" lon="6.70708">
        <ele>401.3</ele>
        <time>2014-10-31T13:49:52.000Z</time>
      </trkpt>
      <trkpt lat="47.49629" lon="6.70693">
        <ele>400.9</ele>
        <time>2014-10-31T13:50:00.000Z</time>
      </trkpt>
      <trkpt lat="47.49628" lon="6.7069">
        <ele>400.8</ele>
        <time>2014-10-31T13:50:01.000Z</time>
      </trkpt>
      <trkpt lat="47.49626" lon="6.70687">
        <ele>406</ele>
        <time>2014-10-31T13:50:02.000Z</time>
      </trkpt>
      <trkpt lat="47.49625" lon="6.70682">
        <ele>405.6</ele>
        <time>2014-10-31T13:50:03.000Z</time>
      </trkpt>
      <trkpt lat="47.49624" lon="6.70679">
        <ele>405.3</ele>
        <time>2014-10-31T13:50:04.000Z</time>
      </trkpt>
      <trkpt lat="47.49623" lon="6.70674">
        <ele>406.7</ele>
        <time>2014-10-31T13:50:06.000Z</time>
      </trkpt>
      <trkpt lat="47.49622" lon="6.70672">
        <ele>406.4</ele>
        <time>2014-10-31T13:50:07.000Z</time>
      </trkpt>
      <trkpt lat="47.49621" lon="6.70667">
        <ele>406.9</ele>
        <time>2014-10-31T13:50:09.000Z</time>
      </trkpt>
      <trkpt lat="47.4962" lon="6.70664">
        <ele>407.2</ele>
        <time>2014-10-31T13:50:10.000Z</time>
      </trkpt>
      <trkpt lat="47.49619" lon="6.70661">
        <ele>407.1</ele>
        <time>2014-10-31T13:50:11.000Z</time>
      </trkpt>
      <trkpt lat="47.49617" lon="6.70658">
        <ele>407.6</ele>
        <time>2014-10-31T13:50:12.000Z</time>
      </trkpt>
      <trkpt lat="47.49615" lon="6.70656">
        <ele>405.4</ele>
        <time>2014-10-31T13:50:13.000Z</time>
      </trkpt>
      <trkpt lat="47.49613" lon="6.70654">
        <ele>405.1</ele>
        <time>2014-10-31T13:50:14.000Z</time>
      </trkpt>
      <trkpt lat="47.4961" lon="6.70652">
        <ele>404.9</ele>
        <time>2014-10-31T13:50:15.000Z</time>
      </trkpt>
      <trkpt lat="47.49608" lon="6.7065">
        <ele>404.2</ele>
        <time>2014-10-31T13:50:16.000Z</time>
      </trkpt>
      <trkpt lat="47.49605" lon="6.70648">
        <ele>403.6</ele>
        <time>2014-10-31T13:50:17.000Z</time>
      </trkpt>
      <trkpt lat="47.49603" lon="6.70646">
        <ele>403.2</ele>
        <time>2014-10-31T13:50:18.000Z</time>
      </trkpt>
      <trkpt lat="47.49599" lon="6.70643">
        <ele>402.4</ele>
        <time>2014-10-31T13:50:20.000Z</time>
      </trkpt>
      <trkpt lat="47.49597" lon="6.70642">
        <ele>402.5</ele>
        <time>2014-10-31T13:50:21.000Z</time>
      </trkpt>
      <trkpt lat="47.49595" lon="6.70637">
        <ele>404.3</ele>
        <time>2014-10-31T13:50:23.000Z</time>
      </trkpt>
      <trkpt lat="47.49594" lon="6.70635">
        <ele>404.1</ele>
        <time>2014-10-31T13:50:24.000Z</time>
      </trkpt>
      <trkpt lat="47.49591" lon="6.7063">
        <ele>406.4</ele>
        <time>2014-10-31T13:50:26.000Z</time>
      </trkpt>
      <trkpt lat="47.49589" lon="6.70628">
        <ele>406</ele>
        <time>2014-10-31T13:50:27.000Z</time>
      </trkpt>
      <trkpt lat="47.49587" lon="6.70626">
        <ele>406.3</ele>
        <time>2014-10-31T13:50:28.000Z</time>
      </trkpt>
      <trkpt lat="47.49585" lon="6.70625">
        <ele>404.6</ele>
        <time>2014-10-31T13:50:29.000Z</time>
      </trkpt>
      <trkpt lat="47.49581" lon="6.70624">
        <ele>405.8</ele>
        <time>2014-10-31T13:50:31.000Z</time>
      </trkpt>
      <trkpt lat="47.49579" lon="6.70624">
        <ele>406.2</ele>
        <time>2014-10-31T13:50:32.000Z</time>
      </trkpt>
      <trkpt lat="47.49575" lon="6.70622">
        <ele>407.3</ele>
        <time>2014-10-31T13:50:34.000Z</time>
      </trkpt>
      <trkpt lat="47.49573" lon="6.7062">
        <ele>407.6</ele>
        <time>2014-10-31T13:50:35.000Z</time>
      </trkpt>
      <trkpt lat="47.49571" lon="6.70618">
        <ele>406.4</ele>
        <time>2014-10-31T13:50:36.000Z</time>
      </trkpt>
      <trkpt lat="47.49569" lon="6.70617">
        <ele>406</ele>
        <time>2014-10-31T13:50:37.000Z</time>
      </trkpt>
      <trkpt lat="47.49566" lon="6.70613">
        <ele>405.9</ele>
        <time>2014-10-31T13:50:39.000Z</time>
      </trkpt>
      <trkpt lat="47.49564" lon="6.70611">
        <ele>405.6</ele>
        <time>2014-10-31T13:50:40.000Z</time>
      </trkpt>
      <trkpt lat="47.49562" lon="6.70608">
        <ele>405.3</ele>
        <time>2014-10-31T13:50:41.000Z</time>
      </trkpt>
      <trkpt lat="47.49561" lon="6.70606">
        <ele>405.6</ele>
        <time>2014-10-31T13:50:42.000Z</time>
      </trkpt>
      <trkpt lat="47.49559" lon="6.70604">
        <ele>405.3</ele>
        <time>2014-10-31T13:50:43.000Z</time>
      </trkpt>
      <trkpt lat="47.49557" lon="6.70601">
        <ele>404.5</ele>
        <time>2014-10-31T13:50:44.000Z</time>
      </trkpt>
      <trkpt lat="47.49554" lon="6.70598">
        <ele>406.4</ele>
        <time>2014-10-31T13:50:46.000Z</time>
      </trkpt>
      <trkpt lat="47.49552" lon="6.70596">
        <ele>407.4</ele>
        <time>2014-10-31T13:50:47.000Z</time>
      </trkpt>
      <trkpt lat="47.4955" lon="6.70593">
        <ele>407.8</ele>
        <time>2014-10-31T13:50:48.000Z</time>
      </trkpt>
      <trkpt lat="47.49548" lon="6.70592">
        <ele>408</ele>
        <time>2014-10-31T13:50:49.000Z</time>
      </trkpt>
      <trkpt lat="47.49546" lon="6.7059">
        <ele>407.2</ele>
        <time>2014-10-31T13:50:50.000Z</time>
      </trkpt>
      <trkpt lat="47.49544" lon="6.70588">
        <ele>406.4</ele>
        <time>2014-10-31T13:50:51.000Z</time>
      </trkpt>
      <trkpt lat="47.4953" lon="6.70575">
        <ele>410.2</ele>
        <time>2014-10-31T13:51:00.000Z</time>
      </trkpt>
      <trkpt lat="47.49527" lon="6.70571">
        <ele>409.8</ele>
        <time>2014-10-31T13:51:02.000Z</time>
      </trkpt>
      <trkpt lat="47.49525" lon="6.7057">
        <ele>409.2</ele>
        <time>2014-10-31T13:51:03.000Z</time>
      </trkpt>
      <trkpt lat="47.49522" lon="6.70568">
        <ele>406.4</ele>
        <time>2014-10-31T13:51:04.000Z</time>
      </trkpt>
      <trkpt lat="47.4952" lon="6.70567">
        <ele>407.8</ele>
        <time>2014-10-31T13:51:05.000Z</time>
      </trkpt>
      <trkpt lat="47.49517" lon="6.70564">
        <ele>410.1</ele>
        <time>2014-10-31T13:51:07.000Z</time>
      </trkpt>
      <trkpt lat="47.49515" lon="6.70562">
        <ele>411.4</ele>
        <time>2014-10-31T13:51:08.000Z</time>
      </trkpt>
      <trkpt lat="47.49511" lon="6.70559">
        <ele>411.4</ele>
        <time>2014-10-31T13:51:10.000Z</time>
      </trkpt>
      <trkpt lat="47.4951" lon="6.70557">
        <ele>410.5</ele>
        <time>2014-10-31T13:51:11.000Z</time>
      </trkpt>
      <trkpt lat="47.49508" lon="6.70555">
        <ele>410.6</ele>
        <time>2014-10-31T13:51:12.000Z</time>
      </trkpt>
      <trkpt lat="47.49505" lon="6.70553">
        <ele>411</ele>
        <time>2014-10-31T13:51:13.000Z</time>
      </trkpt>
      <trkpt lat="47.49503" lon="6.70551">
        <ele>411</ele>
        <time>2014-10-31T13:51:14.000Z</time>
      </trkpt>
      <trkpt lat="47.49501" lon="6.70549">
        <ele>411.1</ele>
        <time>2014-10-31T13:51:15.000Z</time>
      </trkpt>
      <trkpt lat="47.49498" lon="6.70547">
        <ele>410</ele>
        <time>2014-10-31T13:51:16.000Z</time>
      </trkpt>
      <trkpt lat="47.49497" lon="6.70546">
        <ele>410.3</ele>
        <time>2014-10-31T13:51:17.000Z</time>
      </trkpt>
      <trkpt lat="47.49493" lon="6.70544">
        <ele>412</ele>
        <time>2014-10-31T13:51:19.000Z</time>
      </trkpt>
      <trkpt lat="47.49491" lon="6.70543">
        <ele>412.5</ele>
        <time>2014-10-31T13:51:20.000Z</time>
      </trkpt>
      <trkpt lat="47.49487" lon="6.70541">
        <ele>411.6</ele>
        <time>2014-10-31T13:51:22.000Z</time>
      </trkpt>
      <trkpt lat="47.49484" lon="6.70541">
        <ele>411.9</ele>
        <time>2014-10-31T13:51:23.000Z</time>
      </trkpt>
      <trkpt lat="47.49482" lon="6.7054">
        <ele>413.7</ele>
        <time>2014-10-31T13:51:24.000Z</time>
      </trkpt>
      <trkpt lat="47.49479" lon="6.70539">
        <ele>414.9</ele>
        <time>2014-10-31T13:51:25.000Z</time>
      </trkpt>
      <trkpt lat="47.49476" lon="6.70539">
        <ele>414.7</ele>
        <time>2014-10-31T13:51:26.000Z</time>
      </trkpt>
      <trkpt lat="47.49473" lon="6.70538">
        <ele>415</ele>
        <time>2014-10-31T13:51:27.000Z</time>
      </trkpt>
      <trkpt lat="47.49469" lon="6.70536">
        <ele>413.8</ele>
        <time>2014-10-31T13:51:29.000Z</time>
      </trkpt>
      <trkpt lat="47.49468" lon="6.70535">
        <ele>414.5</ele>
        <time>2014-10-31T13:51:30.000Z</time>
      </trkpt>
      <trkpt lat="47.49465" lon="6.70533">
        <ele>414.7</ele>
        <time>2014-10-31T13:51:32.000Z</time>
      </trkpt>
      <trkpt lat="47.49464" lon="6.70532">
        <ele>415.2</ele>
        <time>2014-10-31T13:51:33.000Z</time>
      </trkpt>
      <trkpt lat="47.4946" lon="6.7053">
        <ele>416.5</ele>
        <time>2014-10-31T13:51:35.000Z</time>
      </trkpt>
      <trkpt lat="47.49459" lon="6.70529">
        <ele>416.1</ele>
        <time>2014-10-31T13:51:36.000Z</time>
      </trkpt>
      <trkpt lat="47.49456" lon="6.70527">
        <ele>416</ele>
        <time>2014-10-31T13:51:38.000Z</time>
      </trkpt>
      <trkpt lat="47.49454" lon="6.70526">
        <ele>416.4</ele>
        <time>2014-10-31T13:51:39.000Z</time>
      </trkpt>
      <trkpt lat="47.49449" lon="6.70523">
        <ele>417.9</ele>
        <time>2014-10-31T13:51:41.000Z</time>
      </trkpt>
      <trkpt lat="47.49447" lon="6.70522">
        <ele>419.1</ele>
        <time>2014-10-31T13:51:42.000Z</time>
      </trkpt>
      <trkpt lat="47.49443" lon="6.70521">
        <ele>418.7</ele>
        <time>2014-10-31T13:51:44.000Z</time>
      </trkpt>
      <trkpt lat="47.49442" lon="6.70521">
        <ele>419.3</ele>
        <time>2014-10-31T13:51:45.000Z</time>
      </trkpt>
      <trkpt lat="47.49439" lon="6.70519">
        <ele>420.5</ele>
        <time>2014-10-31T13:51:47.000Z</time>
      </trkpt>
      <trkpt lat="47.49437" lon="6.70518">
        <ele>420.6</ele>
        <time>2014-10-31T13:51:48.000Z</time>
      </trkpt>
      <trkpt lat="47.49433" lon="6.70517">
        <ele>420.5</ele>
        <time>2014-10-31T13:51:51.000Z</time>
      </trkpt>
      <trkpt lat="47.49431" lon="6.70516">
        <ele>420</ele>
        <time>2014-10-31T13:51:52.000Z</time>
      </trkpt>
      <trkpt lat="47.49416" lon="6.70513">
        <ele>419.6</ele>
        <time>2014-10-31T13:52:00.000Z</time>
      </trkpt>
      <trkpt lat="47.49414" lon="6.70512">
        <ele>419.9</ele>
        <time>2014-10-31T13:52:01.000Z</time>
      </trkpt>
      <trkpt lat="47.49411" lon="6.70511">
        <ele>420.1</ele>
        <time>2014-10-31T13:52:02.000Z</time>
      </trkpt>
      <trkpt lat="47.49407" lon="6.70508">
        <ele>421.3</ele>
        <time>2014-10-31T13:52:04.000Z</time>
      </trkpt>
      <trkpt lat="47.49406" lon="6.70507">
        <ele>421.5</ele>
        <time>2014-10-31T13:52:05.000Z</time>
      </trkpt>
      <trkpt lat="47.49402" lon="6.70506">
        <ele>421.8</ele>
        <time>2014-10-31T13:52:07.000Z</time>
      </trkpt>
      <trkpt lat="47.494" lon="6.70505">
        <ele>421.4</ele>
        <time>2014-10-31T13:52:08.000Z</time>
      </trkpt>
      <trkpt lat="47.49396" lon="6.70506">
        <ele>421.2</ele>
        <time>2014-10-31T13:52:10.000Z</time>
      </trkpt>
      <trkpt lat="47.49394" lon="6.70506">
        <ele>420.8</ele>
        <time>2014-10-31T13:52:11.000Z</time>
      </trkpt>
      <trkpt lat="47.4939" lon="6.70506">
        <ele>419.7</ele>
        <time>2014-10-31T13:52:13.000Z</time>
      </trkpt>
      <trkpt lat="47.49388" lon="6.70507">
        <ele>419.8</ele>
        <time>2014-10-31T13:52:14.000Z</time>
      </trkpt>
      <trkpt lat="47.49384" lon="6.70506">
        <ele>420.4</ele>
        <time>2014-10-31T13:52:16.000Z</time>
      </trkpt>
      <trkpt lat="47.49382" lon="6.70506">
        <ele>420.7</ele>
        <time>2014-10-31T13:52:17.000Z</time>
      </trkpt>
      <trkpt lat="47.49379" lon="6.70504">
        <ele>421.4</ele>
        <time>2014-10-31T13:52:19.000Z</time>
      </trkpt>
      <trkpt lat="47.49376" lon="6.70502">
        <ele>421.4</ele>
        <time>2014-10-31T13:52:20.000Z</time>
      </trkpt>
      <trkpt lat="47.49372" lon="6.705">
        <ele>421.1</ele>
        <time>2014-10-31T13:52:22.000Z</time>
      </trkpt>
      <trkpt lat="47.4937" lon="6.70499">
        <ele>421.3</ele>
        <time>2014-10-31T13:52:23.000Z</time>
      </trkpt>
      <trkpt lat="47.49365" lon="6.70498">
        <ele>421.8</ele>
        <time>2014-10-31T13:52:25.000Z</time>
      </trkpt>
      <trkpt lat="47.49363" lon="6.70497">
        <ele>421.5</ele>
        <time>2014-10-31T13:52:26.000Z</time>
      </trkpt>
      <trkpt lat="47.49361" lon="6.70496">
        <ele>422.8</ele>
        <time>2014-10-31T13:52:27.000Z</time>
      </trkpt>
      <trkpt lat="47.49358" lon="6.70496">
        <ele>422.3</ele>
        <time>2014-10-31T13:52:28.000Z</time>
      </trkpt>
      <trkpt lat="47.49356" lon="6.70495">
        <ele>422.6</ele>
        <time>2014-10-31T13:52:29.000Z</time>
      </trkpt>
      <trkpt lat="47.49352" lon="6.70494">
        <ele>422.4</ele>
        <time>2014-10-31T13:52:30.000Z</time>
      </trkpt>
      <trkpt lat="47.4935" lon="6.70494">
        <ele>422.9</ele>
        <time>2014-10-31T13:52:30.999Z</time>
      </trkpt>
      <trkpt lat="47.49347" lon="6.70493">
        <ele>422.8</ele>
        <time>2014-10-31T13:52:32.000Z</time>
      </trkpt>
      <trkpt lat="47.49343" lon="6.70492">
        <ele>423.7</ele>
        <time>2014-10-31T13:52:34.000Z</time>
      </trkpt>
      <trkpt lat="47.4934" lon="6.70491">
        <ele>424</ele>
        <time>2014-10-31T13:52:35.000Z</time>
      </trkpt>
      <trkpt lat="47.49338" lon="6.70491">
        <ele>423.1</ele>
        <time>2014-10-31T13:52:36.000Z</time>
      </trkpt>
      <trkpt lat="47.49336" lon="6.7049">
        <ele>423.3</ele>
        <time>2014-10-31T13:52:37.000Z</time>
      </trkpt>
      <trkpt lat="47.49332" lon="6.70489">
        <ele>424.7</ele>
        <time>2014-10-31T13:52:39.000Z</time>
      </trkpt>
      <trkpt lat="47.4933" lon="6.70488">
        <ele>425.4</ele>
        <time>2014-10-31T13:52:40.000Z</time>
      </trkpt>
      <trkpt lat="47.49326" lon="6.70489">
        <ele>423.9</ele>
        <time>2014-10-31T13:52:42.000Z</time>
      </trkpt>
      <trkpt lat="47.49324" lon="6.7049">
        <ele>422.5</ele>
        <time>2014-10-31T13:52:43.000Z</time>
      </trkpt>
      <trkpt lat="47.49321" lon="6.70493">
        <ele>420.3</ele>
        <time>2014-10-31T13:52:45.000Z</time>
      </trkpt>
      <trkpt lat="47.49319" lon="6.70494">
        <ele>420.1</ele>
        <time>2014-10-31T13:52:46.000Z</time>
      </trkpt>
      <trkpt lat="47.49316" lon="6.70496">
        <ele>421.7</ele>
        <time>2014-10-31T13:52:48.000Z</time>
      </trkpt>
      <trkpt lat="47.49314" lon="6.70497">
        <ele>422.2</ele>
        <time>2014-10-31T13:52:49.000Z</time>
      </trkpt>
      <trkpt lat="47.4931" lon="6.70497">
        <ele>424.6</ele>
        <time>2014-10-31T13:52:51.000Z</time>
      </trkpt>
      <trkpt lat="47.49307" lon="6.70497">
        <ele>424.8</ele>
        <time>2014-10-31T13:52:52.000Z</time>
      </trkpt>
      <trkpt lat="47.49301" lon="6.70495">
        <ele>425.5</ele>
        <time>2014-10-31T13:52:55.000Z</time>
      </trkpt>
      <trkpt lat="47.49297" lon="6.70494">
        <ele>427.1</ele>
        <time>2014-10-31T13:52:57.000Z</time>
      </trkpt>
      <trkpt lat="47.49296" lon="6.70494">
        <ele>423.5</ele>
        <time>2014-10-31T13:52:58.000Z</time>
      </trkpt>
      <trkpt lat="47.49292" lon="6.70495">
        <ele>423.5</ele>
        <time>2014-10-31T13:53:00.000Z</time>
      </trkpt>
      <trkpt lat="47.4929" lon="6.70496">
        <ele>424.6</ele>
        <time>2014-10-31T13:53:01.000Z</time>
      </trkpt>
      <trkpt lat="47.49286" lon="6.70495">
        <ele>425.2</ele>
        <time>2014-10-31T13:53:03.000Z</time>
      </trkpt>
      <trkpt lat="47.49284" lon="6.70495">
        <ele>425.1</ele>
        <time>2014-10-31T13:53:04.000Z</time>
      </trkpt>
      <trkpt lat="47.49279" lon="6.70495">
        <ele>425.9</ele>
        <time>2014-10-31T13:53:07.000Z</time>
      </trkpt>
      <trkpt lat="47.49278" lon="6.70495">
        <ele>423.9</ele>
        <time>2014-10-31T13:53:08.000Z</time>
      </trkpt>
      <trkpt lat="47.49275" lon="6.70497">
        <ele>424.2</ele>
        <time>2014-10-31T13:53:10.000Z</time>
      </trkpt>
      <trkpt lat="47.49273" lon="6.70497">
        <ele>423.7</ele>
        <time>2014-10-31T13:53:11.000Z</time>
      </trkpt>
      <trkpt lat="47.49269" lon="6.70497">
        <ele>422.1</ele>
        <time>2014-10-31T13:53:15.000Z</time>
      </trkpt>
      <trkpt lat="47.49267" lon="6.70497">
        <ele>423.2</ele>
        <time>2014-10-31T13:53:16.000Z</time>
      </trkpt>
      <trkpt lat="47.49264" lon="6.70498">
        <ele>424.3</ele>
        <time>2014-10-31T13:53:18.000Z</time>
      </trkpt>
      <trkpt lat="47.49262" lon="6.70499">
        <ele>425.7</ele>
        <time>2014-10-31T13:53:19.000Z</time>
      </trkpt>
      <trkpt lat="47.49259" lon="6.70499">
        <ele>424.5</ele>
        <time>2014-10-31T13:53:21.000Z</time>
      </trkpt>
      <trkpt lat="47.49257" lon="6.70498">
        <ele>424.5</ele>
        <time>2014-10-31T13:53:22.000Z</time>
      </trkpt>
      <trkpt lat="47.49254" lon="6.70497">
        <ele>426</ele>
        <time>2014-10-31T13:53:24.000Z</time>
      </trkpt>
      <trkpt lat="47.49253" lon="6.70496">
        <ele>425.7</ele>
        <time>2014-10-31T13:53:25.000Z</time>
      </trkpt>
      <trkpt lat="47.49249" lon="6.70493">
        <ele>426</ele>
        <time>2014-10-31T13:53:27.000Z</time>
      </trkpt>
      <trkpt lat="47.49248" lon="6.70491">
        <ele>426.7</ele>
        <time>2014-10-31T13:53:28.000Z</time>
      </trkpt>
      <trkpt lat="47.49245" lon="6.70487">
        <ele>429.4</ele>
        <time>2014-10-31T13:53:30.000Z</time>
      </trkpt>
      <trkpt lat="47.49243" lon="6.70486">
        <ele>428.7</ele>
        <time>2014-10-31T13:53:31.000Z</time>
      </trkpt>
      <trkpt lat="47.4924" lon="6.70483">
        <ele>429.3</ele>
        <time>2014-10-31T13:53:33.000Z</time>
      </trkpt>
      <trkpt lat="47.49238" lon="6.70482">
        <ele>429.2</ele>
        <time>2014-10-31T13:53:34.000Z</time>
      </trkpt>
      <trkpt lat="47.49234" lon="6.70479">
        <ele>429.2</ele>
        <time>2014-10-31T13:53:36.000Z</time>
      </trkpt>
      <trkpt lat="47.49233" lon="6.70479">
        <ele>429.2</ele>
        <time>2014-10-31T13:53:37.000Z</time>
      </trkpt>
      <trkpt lat="47.49229" lon="6.70478">
        <ele>429.1</ele>
        <time>2014-10-31T13:53:39.000Z</time>
      </trkpt>
      <trkpt lat="47.49227" lon="6.70478">
        <ele>429.4</ele>
        <time>2014-10-31T13:53:40.000Z</time>
      </trkpt>
      <trkpt lat="47.49223" lon="6.70477">
        <ele>429.6</ele>
        <time>2014-10-31T13:53:42.000Z</time>
      </trkpt>
      <trkpt lat="47.49221" lon="6.70477">
        <ele>429.6</ele>
        <time>2014-10-31T13:53:43.000Z</time>
      </trkpt>
      <trkpt lat="47.49218" lon="6.70476">
        <ele>427.8</ele>
        <time>2014-10-31T13:53:45.000Z</time>
      </trkpt>
      <trkpt lat="47.49216" lon="6.70476">
        <ele>427.7</ele>
        <time>2014-10-31T13:53:46.000Z</time>
      </trkpt>
      <trkpt lat="47.49213" lon="6.70475">
        <ele>429.6</ele>
        <time>2014-10-31T13:53:49.000Z</time>
      </trkpt>
      <trkpt lat="47.49211" lon="6.70474">
        <ele>430</ele>
        <time>2014-10-31T13:53:50.000Z</time>
      </trkpt>
      <trkpt lat="47.49208" lon="6.70474">
        <ele>428.2</ele>
        <time>2014-10-31T13:53:52.000Z</time>
      </trkpt>
      <trkpt lat="47.49194" lon="6.70476">
        <ele>431.1</ele>
        <time>2014-10-31T13:54:00.000Z</time>
      </trkpt>
      <trkpt lat="47.49193" lon="6.70475">
        <ele>431.9</ele>
        <time>2014-10-31T13:54:01.000Z</time>
      </trkpt>
      <trkpt lat="47.4919" lon="6.70475">
        <ele>432.7</ele>
        <time>2014-10-31T13:54:02.000Z</time>
      </trkpt>
      <trkpt lat="47.49187" lon="6.70475">
        <ele>433.9</ele>
        <time>2014-10-31T13:54:03.000Z</time>
      </trkpt>
      <trkpt lat="47.49185" lon="6.70475">
        <ele>435.1</ele>
        <time>2014-10-31T13:54:04.000Z</time>
      </trkpt>
      <trkpt lat="47.4918" lon="6.70474">
        <ele>434.5</ele>
        <time>2014-10-31T13:54:06.000Z</time>
      </trkpt>
      <trkpt lat="47.49178" lon="6.70474">
        <ele>435.6</ele>
        <time>2014-10-31T13:54:07.000Z</time>
      </trkpt>
      <trkpt lat="47.49175" lon="6.70475">
        <ele>434.3</ele>
        <time>2014-10-31T13:54:09.000Z</time>
      </trkpt>
      <trkpt lat="47.49173" lon="6.70476">
        <ele>434.4</ele>
        <time>2014-10-31T13:54:10.000Z</time>
      </trkpt>
      <trkpt lat="47.49169" lon="6.70476">
        <ele>434.5</ele>
        <time>2014-10-31T13:54:12.000Z</time>
      </trkpt>
      <trkpt lat="47.49167" lon="6.70476">
        <ele>435.2</ele>
        <time>2014-10-31T13:54:13.000Z</time>
      </trkpt>
      <trkpt lat="47.49163" lon="6.70475">
        <ele>433.8</ele>
        <time>2014-10-31T13:54:15.000Z</time>
      </trkpt>
      <trkpt lat="47.4916" lon="6.70475">
        <ele>433.6</ele>
        <time>2014-10-31T13:54:16.000Z</time>
      </trkpt>
      <trkpt lat="47.49158" lon="6.70476">
        <ele>433.9</ele>
        <time>2014-10-31T13:54:17.000Z</time>
      </trkpt>
      <trkpt lat="47.49156" lon="6.70477">
        <ele>433.3</ele>
        <time>2014-10-31T13:54:18.000Z</time>
      </trkpt>
      <trkpt lat="47.49153" lon="6.70479">
        <ele>434.2</ele>
        <time>2014-10-31T13:54:19.000Z</time>
      </trkpt>
      <trkpt lat="47.49151" lon="6.70479">
        <ele>434.3</ele>
        <time>2014-10-31T13:54:20.000Z</time>
      </trkpt>
      <trkpt lat="47.49147" lon="6.70479">
        <ele>432.2</ele>
        <time>2014-10-31T13:54:22.000Z</time>
      </trkpt>
      <trkpt lat="47.49146" lon="6.70478">
        <ele>431.7</ele>
        <time>2014-10-31T13:54:23.000Z</time>
      </trkpt>
      <trkpt lat="47.49141" lon="6.70476">
        <ele>431.5</ele>
        <time>2014-10-31T13:54:25.000Z</time>
      </trkpt>
      <trkpt lat="47.49139" lon="6.70476">
        <ele>430.3</ele>
        <time>2014-10-31T13:54:26.000Z</time>
      </trkpt>
      <trkpt lat="47.49137" lon="6.70475">
        <ele>431</ele>
        <time>2014-10-31T13:54:27.000Z</time>
      </trkpt>
      <trkpt lat="47.49134" lon="6.70475">
        <ele>431.6</ele>
        <time>2014-10-31T13:54:28.000Z</time>
      </trkpt>
      <trkpt lat="47.49131" lon="6.70475">
        <ele>431.8</ele>
        <time>2014-10-31T13:54:31.000Z</time>
      </trkpt>
      <trkpt lat="47.49129" lon="6.70475">
        <ele>432.8</ele>
        <time>2014-10-31T13:54:32.000Z</time>
      </trkpt>
      <trkpt lat="47.49126" lon="6.70476">
        <ele>433.3</ele>
        <time>2014-10-31T13:54:34.000Z</time>
      </trkpt>
      <trkpt lat="47.49125" lon="6.70476">
        <ele>432.9</ele>
        <time>2014-10-31T13:54:35.000Z</time>
      </trkpt>
      <trkpt lat="47.49121" lon="6.70478">
        <ele>433.8</ele>
        <time>2014-10-31T13:54:37.000Z</time>
      </trkpt>
      <trkpt lat="47.49119" lon="6.70479">
        <ele>433.6</ele>
        <time>2014-10-31T13:54:38.000Z</time>
      </trkpt>
      <trkpt lat="47.49115" lon="6.70482">
        <ele>432.3</ele>
        <time>2014-10-31T13:54:41.000Z</time>
      </trkpt>
      <trkpt lat="47.49114" lon="6.70483">
        <ele>432.2</ele>
        <time>2014-10-31T13:54:42.000Z</time>
      </trkpt>
      <trkpt lat="47.4911" lon="6.70485">
        <ele>432.7</ele>
        <time>2014-10-31T13:54:45.000Z</time>
      </trkpt>
      <trkpt lat="47.49108" lon="6.70486">
        <ele>433.4</ele>
        <time>2014-10-31T13:54:46.000Z</time>
      </trkpt>
      <trkpt lat="47.49105" lon="6.70487">
        <ele>434.3</ele>
        <time>2014-10-31T13:54:48.000Z</time>
      </trkpt>
      <trkpt lat="47.49103" lon="6.70487">
        <ele>433.5</ele>
        <time>2014-10-31T13:54:49.000Z</time>
      </trkpt>
      <trkpt lat="47.49099" lon="6.70489">
        <ele>434.8</ele>
        <time>2014-10-31T13:54:52.000Z</time>
      </trkpt>
      <trkpt lat="47.49087" lon="6.70486">
        <ele>436.5</ele>
        <time>2014-10-31T13:55:01.000Z</time>
      </trkpt>
      <trkpt lat="47.49084" lon="6.70487">
        <ele>437.6</ele>
        <time>2014-10-31T13:55:03.000Z</time>
      </trkpt>
      <trkpt lat="47.49082" lon="6.70487">
        <ele>439.6</ele>
        <time>2014-10-31T13:55:04.000Z</time>
      </trkpt>
      <trkpt lat="47.49079" lon="6.70486">
        <ele>441.1</ele>
        <time>2014-10-31T13:55:06.000Z</time>
      </trkpt>
      <trkpt lat="47.49077" lon="6.70486">
        <ele>440.6</ele>
        <time>2014-10-31T13:55:07.000Z</time>
      </trkpt>
      <trkpt lat="47.49073" lon="6.70486">
        <ele>440.7</ele>
        <time>2014-10-31T13:55:09.000Z</time>
      </trkpt>
      <trkpt lat="47.49071" lon="6.70485">
        <ele>441</ele>
        <time>2014-10-31T13:55:10.000Z</time>
      </trkpt>
      <trkpt lat="47.49067" lon="6.70483">
        <ele>438.4</ele>
        <time>2014-10-31T13:55:12.000Z</time>
      </trkpt>
      <trkpt lat="47.49065" lon="6.70482">
        <ele>438.9</ele>
        <time>2014-10-31T13:55:13.000Z</time>
      </trkpt>
      <trkpt lat="47.49063" lon="6.70481">
        <ele>438.4</ele>
        <time>2014-10-31T13:55:14.000Z</time>
      </trkpt>
      <trkpt lat="47.4906" lon="6.7048">
        <ele>439.4</ele>
        <time>2014-10-31T13:55:15.000Z</time>
      </trkpt>
      <trkpt lat="47.49057" lon="6.70478">
        <ele>440.1</ele>
        <time>2014-10-31T13:55:16.000Z</time>
      </trkpt>
      <trkpt lat="47.49054" lon="6.70476">
        <ele>440.7</ele>
        <time>2014-10-31T13:55:17.000Z</time>
      </trkpt>
      <trkpt lat="47.49052" lon="6.70474">
        <ele>441.3</ele>
        <time>2014-10-31T13:55:17.999Z</time>
      </trkpt>
      <trkpt lat="47.4905" lon="6.7047">
        <ele>442.5</ele>
        <time>2014-10-31T13:55:19.000Z</time>
      </trkpt>
      <trkpt lat="47.49048" lon="6.70465">
        <ele>441.8</ele>
        <time>2014-10-31T13:55:21.000Z</time>
      </trkpt>
      <trkpt lat="47.49047" lon="6.70462">
        <ele>441</ele>
        <time>2014-10-31T13:55:22.000Z</time>
      </trkpt>
      <trkpt lat="47.49045" lon="6.70456">
        <ele>440.3</ele>
        <time>2014-10-31T13:55:24.001Z</time>
      </trkpt>
      <trkpt lat="47.49044" lon="6.70451">
        <ele>438.9</ele>
        <time>2014-10-31T13:55:25.000Z</time>
      </trkpt>
      <trkpt lat="47.49042" lon="6.70447">
        <ele>438</ele>
        <time>2014-10-31T13:55:26.000Z</time>
      </trkpt>
      <trkpt lat="47.49041" lon="6.70445">
        <ele>437</ele>
        <time>2014-10-31T13:55:27.000Z</time>
      </trkpt>
      <trkpt lat="47.49039" lon="6.70439">
        <ele>434.7</ele>
        <time>2014-10-31T13:55:29.000Z</time>
      </trkpt>
      <trkpt lat="47.49038" lon="6.70436">
        <ele>434.3</ele>
        <time>2014-10-31T13:55:30.000Z</time>
      </trkpt>
      <trkpt lat="47.49037" lon="6.70432">
        <ele>433.6</ele>
        <time>2014-10-31T13:55:31.000Z</time>
      </trkpt>
      <trkpt lat="47.49036" lon="6.70428">
        <ele>434.6</ele>
        <time>2014-10-31T13:55:32.000Z</time>
      </trkpt>
      <trkpt lat="47.49035" lon="6.70424">
        <ele>435</ele>
        <time>2014-10-31T13:55:33.000Z</time>
      </trkpt>
      <trkpt lat="47.49034" lon="6.70418">
        <ele>434</ele>
        <time>2014-10-31T13:55:34.000Z</time>
      </trkpt>
      <trkpt lat="47.49032" lon="6.70411">
        <ele>435.8</ele>
        <time>2014-10-31T13:55:35.000Z</time>
      </trkpt>
      <trkpt lat="47.49029" lon="6.70398">
        <ele>436.8</ele>
        <time>2014-10-31T13:55:36.000Z</time>
      </trkpt>
      <trkpt lat="47.49026" lon="6.70389">
        <ele>438.2</ele>
        <time>2014-10-31T13:55:37.000Z</time>
      </trkpt>
      <trkpt lat="47.49022" lon="6.70381">
        <ele>438.3</ele>
        <time>2014-10-31T13:55:38.000Z</time>
      </trkpt>
      <trkpt lat="47.49022" lon="6.70374">
        <ele>439.3</ele>
        <time>2014-10-31T13:55:39.000Z</time>
      </trkpt>
      <trkpt lat="47.49021" lon="6.70366">
        <ele>440.6</ele>
        <time>2014-10-31T13:55:40.000Z</time>
      </trkpt>
      <trkpt lat="47.49018" lon="6.70361">
        <ele>439.9</ele>
        <time>2014-10-31T13:55:41.000Z</time>
      </trkpt>
      <trkpt lat="47.49017" lon="6.70354">
        <ele>439.6</ele>
        <time>2014-10-31T13:55:41.999Z</time>
      </trkpt>
      <trkpt lat="47.49015" lon="6.70347">
        <ele>441.2</ele>
        <time>2014-10-31T13:55:43.000Z</time>
      </trkpt>
      <trkpt lat="47.49014" lon="6.70337">
        <ele>440.3</ele>
        <time>2014-10-31T13:55:44.000Z</time>
      </trkpt>
      <trkpt lat="47.49012" lon="6.70328">
        <ele>441.3</ele>
        <time>2014-10-31T13:55:45.000Z</time>
      </trkpt>
      <trkpt lat="47.49011" lon="6.70321">
        <ele>442.2</ele>
        <time>2014-10-31T13:55:46.000Z</time>
      </trkpt>
      <trkpt lat="47.49009" lon="6.70314">
        <ele>444.3</ele>
        <time>2014-10-31T13:55:47.000Z</time>
      </trkpt>
      <trkpt lat="47.49006" lon="6.70309">
        <ele>445.4</ele>
        <time>2014-10-31T13:55:48.000Z</time>
      </trkpt>
      <trkpt lat="47.49007" lon="6.70302">
        <ele>444.1</ele>
        <time>2014-10-31T13:55:49.000Z</time>
      </trkpt>
      <trkpt lat="47.49007" lon="6.70297">
        <ele>445.7</ele>
        <time>2014-10-31T13:55:50.000Z</time>
      </trkpt>
      <trkpt lat="47.49007" lon="6.70291">
        <ele>446.4</ele>
        <time>2014-10-31T13:55:51.000Z</time>
      </trkpt>
      <trkpt lat="47.49006" lon="6.70284">
        <ele>446</ele>
        <time>2014-10-31T13:55:52.000Z</time>
      </trkpt>
      <trkpt lat="47.49004" lon="6.70277">
        <ele>444.8</ele>
        <time>2014-10-31T13:55:53.000Z</time>
      </trkpt>
      <trkpt lat="47.4899" lon="6.70214">
        <ele>442.1</ele>
        <time>2014-10-31T13:56:01.000Z</time>
      </trkpt>
      <trkpt lat="47.48988" lon="6.70206">
        <ele>439.9</ele>
        <time>2014-10-31T13:56:02.000Z</time>
      </trkpt>
      <trkpt lat="47.48986" lon="6.70198">
        <ele>439.4</ele>
        <time>2014-10-31T13:56:03.000Z</time>
      </trkpt>
      <trkpt lat="47.48983" lon="6.7019">
        <ele>438.1</ele>
        <time>2014-10-31T13:56:04.000Z</time>
      </trkpt>
      <trkpt lat="47.48981" lon="6.70183">
        <ele>437.8</ele>
        <time>2014-10-31T13:56:05.000Z</time>
      </trkpt>
      <trkpt lat="47.4898" lon="6.70174">
        <ele>438.3</ele>
        <time>2014-10-31T13:56:06.000Z</time>
      </trkpt>
      <trkpt lat="47.48979" lon="6.70167">
        <ele>439</ele>
        <time>2014-10-31T13:56:07.000Z</time>
      </trkpt>
      <trkpt lat="47.48978" lon="6.70159">
        <ele>439.7</ele>
        <time>2014-10-31T13:56:08.000Z</time>
      </trkpt>
      <trkpt lat="47.48976" lon="6.7015">
        <ele>440.4</ele>
        <time>2014-10-31T13:56:09.000Z</time>
      </trkpt>
      <trkpt lat="47.48975" lon="6.70142">
        <ele>440.5</ele>
        <time>2014-10-31T13:56:10.000Z</time>
      </trkpt>
      <trkpt lat="47.48974" lon="6.70134">
        <ele>439.8</ele>
        <time>2014-10-31T13:56:11.000Z</time>
      </trkpt>
      <trkpt lat="47.48972" lon="6.70127">
        <ele>439</ele>
        <time>2014-10-31T13:56:12.000Z</time>
      </trkpt>
      <trkpt lat="47.4897" lon="6.70121">
        <ele>437.6</ele>
        <time>2014-10-31T13:56:13.000Z</time>
      </trkpt>
      <trkpt lat="47.48968" lon="6.70115">
        <ele>436.3</ele>
        <time>2014-10-31T13:56:14.000Z</time>
      </trkpt>
      <trkpt lat="47.48965" lon="6.70108">
        <ele>435.2</ele>
        <time>2014-10-31T13:56:15.000Z</time>
      </trkpt>
      <trkpt lat="47.48962" lon="6.70102">
        <ele>433.4</ele>
        <time>2014-10-31T13:56:16.000Z</time>
      </trkpt>
      <trkpt lat="47.48959" lon="6.70094">
        <ele>432</ele>
        <time>2014-10-31T13:56:17.000Z</time>
      </trkpt>
      <trkpt lat="47.48956" lon="6.70088">
        <ele>431.3</ele>
        <time>2014-10-31T13:56:18.000Z</time>
      </trkpt>
      <trkpt lat="47.48954" lon="6.7008">
        <ele>429.8</ele>
        <time>2014-10-31T13:56:19.000Z</time>
      </trkpt>
      <trkpt lat="47.48951" lon="6.70072">
        <ele>429.5</ele>
        <time>2014-10-31T13:56:20.000Z</time>
      </trkpt>
      <trkpt lat="47.48947" lon="6.70064">
        <ele>425.3</ele>
        <time>2014-10-31T13:56:21.000Z</time>
      </trkpt>
      <trkpt lat="47.48941" lon="6.70058">
        <ele>422.4</ele>
        <time>2014-10-31T13:56:22.000Z</time>
      </trkpt>
      <trkpt lat="47.48937" lon="6.7005">
        <ele>421.9</ele>
        <time>2014-10-31T13:56:23.000Z</time>
      </trkpt>
      <trkpt lat="47.48933" lon="6.70043">
        <ele>422</ele>
        <time>2014-10-31T13:56:24.000Z</time>
      </trkpt>
      <trkpt lat="47.48927" lon="6.70037">
        <ele>419</ele>
        <time>2014-10-31T13:56:25.000Z</time>
      </trkpt>
      <trkpt lat="47.48924" lon="6.70029">
        <ele>418</ele>
        <time>2014-10-31T13:56:26.000Z</time>
      </trkpt>
      <trkpt lat="47.48919" lon="6.70022">
        <ele>418</ele>
        <time>2014-10-31T13:56:27.000Z</time>
      </trkpt>
      <trkpt lat="47.48914" lon="6.70014">
        <ele>418</ele>
        <time>2014-10-31T13:56:28.000Z</time>
      </trkpt>
      <trkpt lat="47.48909" lon="6.70004">
        <ele>417.4</ele>
        <time>2014-10-31T13:56:29.000Z</time>
      </trkpt>
      <trkpt lat="47.48904" lon="6.69995">
        <ele>417.1</ele>
        <time>2014-10-31T13:56:30.000Z</time>
      </trkpt>
      <trkpt lat="47.489" lon="6.69985">
        <ele>416.1</ele>
        <time>2014-10-31T13:56:31.000Z</time>
      </trkpt>
      <trkpt lat="47.48897" lon="6.69977">
        <ele>415.6</ele>
        <time>2014-10-31T13:56:32.000Z</time>
      </trkpt>
      <trkpt lat="47.48891" lon="6.69966">
        <ele>415.2</ele>
        <time>2014-10-31T13:56:33.000Z</time>
      </trkpt>
      <trkpt lat="47.48886" lon="6.69955">
        <ele>414.6</ele>
        <time>2014-10-31T13:56:34.000Z</time>
      </trkpt>
      <trkpt lat="47.48881" lon="6.69943">
        <ele>414.8</ele>
        <time>2014-10-31T13:56:35.000Z</time>
      </trkpt>
      <trkpt lat="47.48875" lon="6.69931">
        <ele>413.3</ele>
        <time>2014-10-31T13:56:36.000Z</time>
      </trkpt>
      <trkpt lat="47.48869" lon="6.69921">
        <ele>413</ele>
        <time>2014-10-31T13:56:37.000Z</time>
      </trkpt>
      <trkpt lat="47.48862" lon="6.69911">
        <ele>411.8</ele>
        <time>2014-10-31T13:56:38.000Z</time>
      </trkpt>
      <trkpt lat="47.48856" lon="6.69899">
        <ele>410.2</ele>
        <time>2014-10-31T13:56:39.000Z</time>
      </trkpt>
      <trkpt lat="47.4885" lon="6.69886">
        <ele>409.8</ele>
        <time>2014-10-31T13:56:40.000Z</time>
      </trkpt>
      <trkpt lat="47.48844" lon="6.69877">
        <ele>410.5</ele>
        <time>2014-10-31T13:56:41.000Z</time>
      </trkpt>
      <trkpt lat="47.48837" lon="6.69867">
        <ele>410.5</ele>
        <time>2014-10-31T13:56:42.000Z</time>
      </trkpt>
      <trkpt lat="47.48831" lon="6.69856">
        <ele>410.1</ele>
        <time>2014-10-31T13:56:43.000Z</time>
      </trkpt>
      <trkpt lat="47.48825" lon="6.69846">
        <ele>409.9</ele>
        <time>2014-10-31T13:56:44.000Z</time>
      </trkpt>
      <trkpt lat="47.4882" lon="6.69836">
        <ele>409.5</ele>
        <time>2014-10-31T13:56:45.000Z</time>
      </trkpt>
      <trkpt lat="47.48814" lon="6.69828">
        <ele>409.6</ele>
        <time>2014-10-31T13:56:46.000Z</time>
      </trkpt>
      <trkpt lat="47.48808" lon="6.69817">
        <ele>409.4</ele>
        <time>2014-10-31T13:56:47.000Z</time>
      </trkpt>
      <trkpt lat="47.48802" lon="6.69806">
        <ele>408.4</ele>
        <time>2014-10-31T13:56:48.000Z</time>
      </trkpt>
      <trkpt lat="47.48796" lon="6.69796">
        <ele>406.6</ele>
        <time>2014-10-31T13:56:49.000Z</time>
      </trkpt>
      <trkpt lat="47.48791" lon="6.69785">
        <ele>405.3</ele>
        <time>2014-10-31T13:56:50.000Z</time>
      </trkpt>
      <trkpt lat="47.48785" lon="6.69778">
        <ele>404.9</ele>
        <time>2014-10-31T13:56:51.000Z</time>
      </trkpt>
      <trkpt lat="47.48776" lon="6.69767">
        <ele>403.9</ele>
        <time>2014-10-31T13:56:52.000Z</time>
      </trkpt>
      <trkpt lat="47.48729" lon="6.69685">
        <ele>398.1</ele>
        <time>2014-10-31T13:57:00.000Z</time>
      </trkpt>
      <trkpt lat="47.48721" lon="6.69678">
        <ele>397.3</ele>
        <time>2014-10-31T13:57:01.000Z</time>
      </trkpt>
      <trkpt lat="47.48715" lon="6.69666">
        <ele>394.4</ele>
        <time>2014-10-31T13:57:02.000Z</time>
      </trkpt>
      <trkpt lat="47.48708" lon="6.69657">
        <ele>392.2</ele>
        <time>2014-10-31T13:57:03.000Z</time>
      </trkpt>
      <trkpt lat="47.48702" lon="6.69646">
        <ele>392.4</ele>
        <time>2014-10-31T13:57:04.000Z</time>
      </trkpt>
      <trkpt lat="47.48695" lon="6.69636">
        <ele>392.9</ele>
        <time>2014-10-31T13:57:05.000Z</time>
      </trkpt>
      <trkpt lat="47.48688" lon="6.69627">
        <ele>394.1</ele>
        <time>2014-10-31T13:57:06.000Z</time>
      </trkpt>
      <trkpt lat="47.48681" lon="6.69617">
        <ele>394.3</ele>
        <time>2014-10-31T13:57:07.000Z</time>
      </trkpt>
      <trkpt lat="47.48675" lon="6.69606">
        <ele>393.6</ele>
        <time>2014-10-31T13:57:08.000Z</time>
      </trkpt>
      <trkpt lat="47.48668" lon="6.69595">
        <ele>392.7</ele>
        <time>2014-10-31T13:57:09.000Z</time>
      </trkpt>
      <trkpt lat="47.48662" lon="6.69587">
        <ele>394.7</ele>
        <time>2014-10-31T13:57:10.000Z</time>
      </trkpt>
      <trkpt lat="47.48656" lon="6.69576">
        <ele>394.5</ele>
        <time>2014-10-31T13:57:11.000Z</time>
      </trkpt>
      <trkpt lat="47.48649" lon="6.69567">
        <ele>394</ele>
        <time>2014-10-31T13:57:12.000Z</time>
      </trkpt>
      <trkpt lat="47.48644" lon="6.69555">
        <ele>392.9</ele>
        <time>2014-10-31T13:57:13.000Z</time>
      </trkpt>
      <trkpt lat="47.48637" lon="6.69548">
        <ele>391.3</ele>
        <time>2014-10-31T13:57:14.000Z</time>
      </trkpt>
      <trkpt lat="47.4863" lon="6.69539">
        <ele>390.4</ele>
        <time>2014-10-31T13:57:15.000Z</time>
      </trkpt>
      <trkpt lat="47.48623" lon="6.69531">
        <ele>389.4</ele>
        <time>2014-10-31T13:57:16.000Z</time>
      </trkpt>
      <trkpt lat="47.48617" lon="6.69522">
        <ele>388.2</ele>
        <time>2014-10-31T13:57:17.000Z</time>
      </trkpt>
      <trkpt lat="47.48609" lon="6.69513">
        <ele>388</ele>
        <time>2014-10-31T13:57:18.000Z</time>
      </trkpt>
      <trkpt lat="47.48603" lon="6.69502">
        <ele>387.9</ele>
        <time>2014-10-31T13:57:19.000Z</time>
      </trkpt>
      <trkpt lat="47.48597" lon="6.69493">
        <ele>387.4</ele>
        <time>2014-10-31T13:57:20.000Z</time>
      </trkpt>
      <trkpt lat="47.48592" lon="6.69486">
        <ele>385.9</ele>
        <time>2014-10-31T13:57:21.000Z</time>
      </trkpt>
      <trkpt lat="47.48584" lon="6.69479">
        <ele>384.8</ele>
        <time>2014-10-31T13:57:22.000Z</time>
      </trkpt>
      <trkpt lat="47.4858" lon="6.6947">
        <ele>384.6</ele>
        <time>2014-10-31T13:57:23.000Z</time>
      </trkpt>
      <trkpt lat="47.48575" lon="6.69462">
        <ele>383.9</ele>
        <time>2014-10-31T13:57:24.000Z</time>
      </trkpt>
      <trkpt lat="47.48569" lon="6.69451">
        <ele>382.7</ele>
        <time>2014-10-31T13:57:25.000Z</time>
      </trkpt>
      <trkpt lat="47.48565" lon="6.69443">
        <ele>381</ele>
        <time>2014-10-31T13:57:26.000Z</time>
      </trkpt>
      <trkpt lat="47.48562" lon="6.69438">
        <ele>380.6</ele>
        <time>2014-10-31T13:57:27.000Z</time>
      </trkpt>
      <trkpt lat="47.48554" lon="6.6943">
        <ele>379.8</ele>
        <time>2014-10-31T13:57:28.000Z</time>
      </trkpt>
      <trkpt lat="47.48547" lon="6.69422">
        <ele>378.8</ele>
        <time>2014-10-31T13:57:29.000Z</time>
      </trkpt>
      <trkpt lat="47.48542" lon="6.69414">
        <ele>378.3</ele>
        <time>2014-10-31T13:57:30.000Z</time>
      </trkpt>
      <trkpt lat="47.48537" lon="6.69406">
        <ele>377.6</ele>
        <time>2014-10-31T13:57:31.000Z</time>
      </trkpt>
      <trkpt lat="47.48532" lon="6.69397">
        <ele>376.7</ele>
        <time>2014-10-31T13:57:32.000Z</time>
      </trkpt>
      <trkpt lat="47.48525" lon="6.6939">
        <ele>374.6</ele>
        <time>2014-10-31T13:57:33.000Z</time>
      </trkpt>
      <trkpt lat="47.48517" lon="6.69382">
        <ele>373.3</ele>
        <time>2014-10-31T13:57:34.000Z</time>
      </trkpt>
      <trkpt lat="47.4851" lon="6.69372">
        <ele>373</ele>
        <time>2014-10-31T13:57:35.000Z</time>
      </trkpt>
      <trkpt lat="47.48503" lon="6.69365">
        <ele>370.4</ele>
        <time>2014-10-31T13:57:36.000Z</time>
      </trkpt>
      <trkpt lat="47.48497" lon="6.69357">
        <ele>369.5</ele>
        <time>2014-10-31T13:57:37.000Z</time>
      </trkpt>
      <trkpt lat="47.4849" lon="6.69348">
        <ele>369.2</ele>
        <time>2014-10-31T13:57:38.000Z</time>
      </trkpt>
      <trkpt lat="47.48485" lon="6.69341">
        <ele>368.9</ele>
        <time>2014-10-31T13:57:39.000Z</time>
      </trkpt>
      <trkpt lat="47.48479" lon="6.69332">
        <ele>370.2</ele>
        <time>2014-10-31T13:57:40.000Z</time>
      </trkpt>
      <trkpt lat="47.48472" lon="6.69324">
        <ele>368.3</ele>
        <time>2014-10-31T13:57:41.000Z</time>
      </trkpt>
      <trkpt lat="47.48466" lon="6.69318">
        <ele>366.8</ele>
        <time>2014-10-31T13:57:42.000Z</time>
      </trkpt>
      <trkpt lat="47.4846" lon="6.6931">
        <ele>367</ele>
        <time>2014-10-31T13:57:43.000Z</time>
      </trkpt>
      <trkpt lat="47.48452" lon="6.69299">
        <ele>365.2</ele>
        <time>2014-10-31T13:57:44.000Z</time>
      </trkpt>
      <trkpt lat="47.48445" lon="6.6929">
        <ele>364.9</ele>
        <time>2014-10-31T13:57:45.000Z</time>
      </trkpt>
      <trkpt lat="47.48437" lon="6.69283">
        <ele>362.4</ele>
        <time>2014-10-31T13:57:46.000Z</time>
      </trkpt>
      <trkpt lat="47.48431" lon="6.69276">
        <ele>362.4</ele>
        <time>2014-10-31T13:57:47.000Z</time>
      </trkpt>
      <trkpt lat="47.48424" lon="6.69271">
        <ele>362.4</ele>
        <time>2014-10-31T13:57:48.000Z</time>
      </trkpt>
      <trkpt lat="47.48416" lon="6.69264">
        <ele>361.9</ele>
        <time>2014-10-31T13:57:49.000Z</time>
      </trkpt>
      <trkpt lat="47.4841" lon="6.69255">
        <ele>361.7</ele>
        <time>2014-10-31T13:57:50.000Z</time>
      </trkpt>
      <trkpt lat="47.48408" lon="6.69248">
        <ele>361.8</ele>
        <time>2014-10-31T13:57:51.000Z</time>
      </trkpt>
      <trkpt lat="47.48401" lon="6.69243">
        <ele>359.8</ele>
        <time>2014-10-31T13:57:52.000Z</time>
      </trkpt>
      <trkpt lat="47.48358" lon="6.69224">
        <ele>359.2</ele>
        <time>2014-10-31T13:58:00.000Z</time>
      </trkpt>
      <trkpt lat="47.48349" lon="6.69219">
        <ele>357</ele>
        <time>2014-10-31T13:58:01.000Z</time>
      </trkpt>
      <trkpt lat="47.48344" lon="6.69217">
        <ele>356.5</ele>
        <time>2014-10-31T13:58:02.000Z</time>
      </trkpt>
      <trkpt lat="47.48339" lon="6.69216">
        <ele>353.9</ele>
        <time>2014-10-31T13:58:03.000Z</time>
      </trkpt>
      <trkpt lat="47.48333" lon="6.69211">
        <ele>352.8</ele>
        <time>2014-10-31T13:58:04.000Z</time>
      </trkpt>
      <trkpt lat="47.48325" lon="6.69211">
        <ele>351.9</ele>
        <time>2014-10-31T13:58:05.000Z</time>
      </trkpt>
      <trkpt lat="47.48317" lon="6.6921">
        <ele>352.3</ele>
        <time>2014-10-31T13:58:06.000Z</time>
      </trkpt>
      <trkpt lat="47.48311" lon="6.69213">
        <ele>352.5</ele>
        <time>2014-10-31T13:58:07.000Z</time>
      </trkpt>
      <trkpt lat="47.48305" lon="6.69217">
        <ele>350.4</ele>
        <time>2014-10-31T13:58:08.000Z</time>
      </trkpt>
      <trkpt lat="47.48301" lon="6.69221">
        <ele>350.9</ele>
        <time>2014-10-31T13:58:09.000Z</time>
      </trkpt>
      <trkpt lat="47.48295" lon="6.69225">
        <ele>353.4</ele>
        <time>2014-10-31T13:58:10.000Z</time>
      </trkpt>
      <trkpt lat="47.48289" lon="6.6923">
        <ele>353.5</ele>
        <time>2014-10-31T13:58:11.000Z</time>
      </trkpt>
      <trkpt lat="47.48283" lon="6.69235">
        <ele>351.4</ele>
        <time>2014-10-31T13:58:12.000Z</time>
      </trkpt>
      <trkpt lat="47.48279" lon="6.69232">
        <ele>351.2</ele>
        <time>2014-10-31T13:58:13.000Z</time>
      </trkpt>
      <trkpt lat="47.48272" lon="6.69229">
        <ele>353.5</ele>
        <time>2014-10-31T13:58:14.000Z</time>
      </trkpt>
      <trkpt lat="47.48267" lon="6.69227">
        <ele>353.4</ele>
        <time>2014-10-31T13:58:15.000Z</time>
      </trkpt>
      <trkpt lat="47.48261" lon="6.69227">
        <ele>353.6</ele>
        <time>2014-10-31T13:58:16.000Z</time>
      </trkpt>
      <trkpt lat="47.48256" lon="6.69224">
        <ele>353.6</ele>
        <time>2014-10-31T13:58:17.000Z</time>
      </trkpt>
      <trkpt lat="47.48252" lon="6.69219">
        <ele>353.5</ele>
        <time>2014-10-31T13:58:18.000Z</time>
      </trkpt>
      <trkpt lat="47.48249" lon="6.69211">
        <ele>353.9</ele>
        <time>2014-10-31T13:58:19.000Z</time>
      </trkpt>
      <trkpt lat="47.48246" lon="6.69204">
        <ele>354</ele>
        <time>2014-10-31T13:58:20.000Z</time>
      </trkpt>
      <trkpt lat="47.48243" lon="6.69199">
        <ele>352.7</ele>
        <time>2014-10-31T13:58:21.000Z</time>
      </trkpt>
      <trkpt lat="47.4824" lon="6.69191">
        <ele>351.1</ele>
        <time>2014-10-31T13:58:22.000Z</time>
      </trkpt>
      <trkpt lat="47.48238" lon="6.69184">
        <ele>350.2</ele>
        <time>2014-10-31T13:58:23.000Z</time>
      </trkpt>
      <trkpt lat="47.48236" lon="6.69179">
        <ele>350.1</ele>
        <time>2014-10-31T13:58:24.000Z</time>
      </trkpt>
      <trkpt lat="47.48235" lon="6.69176">
        <ele>350.1</ele>
        <time>2014-10-31T13:58:25.000Z</time>
      </trkpt>
      <trkpt lat="47.48232" lon="6.69173">
        <ele>343.9</ele>
        <time>2014-10-31T13:59:36.000Z</time>
      </trkpt>
      <trkpt lat="47.48231" lon="6.69171">
        <ele>344.1</ele>
        <time>2014-10-31T13:59:37.000Z</time>
      </trkpt>
      <trkpt lat="47.48229" lon="6.69166">
        <ele>344.7</ele>
        <time>2014-10-31T13:59:39.000Z</time>
      </trkpt>
      <trkpt lat="47.48228" lon="6.69164">
        <ele>345.1</ele>
        <time>2014-10-31T13:59:40.000Z</time>
      </trkpt>
      <trkpt lat="47.48226" lon="6.69158">
        <ele>346.2</ele>
        <time>2014-10-31T13:59:42.000Z</time>
      </trkpt>
      <trkpt lat="47.48225" lon="6.69154">
        <ele>345.3</ele>
        <time>2014-10-31T13:59:43.000Z</time>
      </trkpt>
      <trkpt lat="47.48224" lon="6.69149">
        <ele>344.9</ele>
        <time>2014-10-31T13:59:44.000Z</time>
      </trkpt>
      <trkpt lat="47.48222" lon="6.69145">
        <ele>345.1</ele>
        <time>2014-10-31T13:59:45.000Z</time>
      </trkpt>
      <trkpt lat="47.4822" lon="6.69139">
        <ele>345.9</ele>
        <time>2014-10-31T13:59:46.000Z</time>
      </trkpt>
      <trkpt lat="47.48218" lon="6.69133">
        <ele>346.4</ele>
        <time>2014-10-31T13:59:47.000Z</time>
      </trkpt>
      <trkpt lat="47.48216" lon="6.69123">
        <ele>346.8</ele>
        <time>2014-10-31T13:59:48.000Z</time>
      </trkpt>
      <trkpt lat="47.48214" lon="6.69118">
        <ele>347.5</ele>
        <time>2014-10-31T13:59:49.000Z</time>
      </trkpt>
      <trkpt lat="47.48211" lon="6.69114">
        <ele>347.4</ele>
        <time>2014-10-31T13:59:50.000Z</time>
      </trkpt>
      <trkpt lat="47.48208" lon="6.6911">
        <ele>347</ele>
        <time>2014-10-31T13:59:52.000Z</time>
      </trkpt>
      <trkpt lat="47.48206" lon="6.69102">
        <ele>345.5</ele>
        <time>2014-10-31T14:00:00.000Z</time>
      </trkpt>
      <trkpt lat="47.48207" lon="6.69108">
        <ele>346.7</ele>
        <time>2014-10-31T14:00:18.000Z</time>
      </trkpt>
      <trkpt lat="47.48207" lon="6.6911">
        <ele>347.8</ele>
        <time>2014-10-31T14:00:19.000Z</time>
      </trkpt>
      <trkpt lat="47.48205" lon="6.69116">
        <ele>346.6</ele>
        <time>2014-10-31T14:00:21.000Z</time>
      </trkpt>
      <trkpt lat="47.48204" lon="6.6912">
        <ele>346.5</ele>
        <time>2014-10-31T14:00:22.000Z</time>
      </trkpt>
      <trkpt lat="47.48202" lon="6.69123">
        <ele>347.8</ele>
        <time>2014-10-31T14:00:23.000Z</time>
      </trkpt>
      <trkpt lat="47.482" lon="6.69127">
        <ele>347.7</ele>
        <time>2014-10-31T14:00:24.000Z</time>
      </trkpt>
      <trkpt lat="47.48198" lon="6.69131">
        <ele>348.2</ele>
        <time>2014-10-31T14:00:25.000Z</time>
      </trkpt>
      <trkpt lat="47.48197" lon="6.69135">
        <ele>347.4</ele>
        <time>2014-10-31T14:00:26.000Z</time>
      </trkpt>
      <trkpt lat="47.48195" lon="6.69139">
        <ele>347.5</ele>
        <time>2014-10-31T14:00:27.000Z</time>
      </trkpt>
      <trkpt lat="47.48193" lon="6.69143">
        <ele>348.2</ele>
        <time>2014-10-31T14:00:28.000Z</time>
      </trkpt>
      <trkpt lat="47.4819" lon="6.69147">
        <ele>347.5</ele>
        <time>2014-10-31T14:00:29.000Z</time>
      </trkpt>
      <trkpt lat="47.48187" lon="6.6915">
        <ele>346.3</ele>
        <time>2014-10-31T14:00:30.000Z</time>
      </trkpt>
      <trkpt lat="47.48184" lon="6.69153">
        <ele>345.7</ele>
        <time>2014-10-31T14:00:31.000Z</time>
      </trkpt>
      <trkpt lat="47.48181" lon="6.69156">
        <ele>344.7</ele>
        <time>2014-10-31T14:00:32.000Z</time>
      </trkpt>
      <trkpt lat="47.48177" lon="6.69159">
        <ele>344.6</ele>
        <time>2014-10-31T14:00:33.000Z</time>
      </trkpt>
      <trkpt lat="47.48174" lon="6.69161">
        <ele>344.3</ele>
        <time>2014-10-31T14:00:34.001Z</time>
      </trkpt>
      <trkpt lat="47.48171" lon="6.69164">
        <ele>344</ele>
        <time>2014-10-31T14:00:35.000Z</time>
      </trkpt>
      <trkpt lat="47.48167" lon="6.69167">
        <ele>343.5</ele>
        <time>2014-10-31T14:00:36.000Z</time>
      </trkpt>
      <trkpt lat="47.48164" lon="6.6917">
        <ele>343.8</ele>
        <time>2014-10-31T14:00:37.000Z</time>
      </trkpt>
      <trkpt lat="47.4816" lon="6.69173">
        <ele>343.8</ele>
        <time>2014-10-31T14:00:38.000Z</time>
      </trkpt>
      <trkpt lat="47.48157" lon="6.69177">
        <ele>343.2</ele>
        <time>2014-10-31T14:00:39.000Z</time>
      </trkpt>
      <trkpt lat="47.48153" lon="6.6918">
        <ele>344.4</ele>
        <time>2014-10-31T14:00:40.000Z</time>
      </trkpt>
      <trkpt lat="47.48149" lon="6.69184">
        <ele>345</ele>
        <time>2014-10-31T14:00:41.000Z</time>
      </trkpt>
      <trkpt lat="47.48146" lon="6.69187">
        <ele>345.6</ele>
        <time>2014-10-31T14:00:42.000Z</time>
      </trkpt>
      <trkpt lat="47.48142" lon="6.69191">
        <ele>344.7</ele>
        <time>2014-10-31T14:00:43.000Z</time>
      </trkpt>
      <trkpt lat="47.48138" lon="6.69195">
        <ele>343.8</ele>
        <time>2014-10-31T14:00:44.000Z</time>
      </trkpt>
      <trkpt lat="47.48133" lon="6.69201">
        <ele>342.2</ele>
        <time>2014-10-31T14:00:45.000Z</time>
      </trkpt>
      <trkpt lat="47.4813" lon="6.69204">
        <ele>342.2</ele>
        <time>2014-10-31T14:00:46.000Z</time>
      </trkpt>
      <trkpt lat="47.48127" lon="6.69207">
        <ele>342.5</ele>
        <time>2014-10-31T14:00:47.000Z</time>
      </trkpt>
      <trkpt lat="47.48123" lon="6.69211">
        <ele>342.5</ele>
        <time>2014-10-31T14:00:48.000Z</time>
      </trkpt>
      <trkpt lat="47.4812" lon="6.69215">
        <ele>342.5</ele>
        <time>2014-10-31T14:00:49.000Z</time>
      </trkpt>
      <trkpt lat="47.48117" lon="6.69219">
        <ele>342</ele>
        <time>2014-10-31T14:00:50.000Z</time>
      </trkpt>
      <trkpt lat="47.48113" lon="6.69222">
        <ele>342.2</ele>
        <time>2014-10-31T14:00:51.000Z</time>
      </trkpt>
      <trkpt lat="47.48109" lon="6.69226">
        <ele>342.3</ele>
        <time>2014-10-31T14:00:52.000Z</time>
      </trkpt>
      <trkpt lat="47.48084" lon="6.69249">
        <ele>340.1</ele>
        <time>2014-10-31T14:01:00.000Z</time>
      </trkpt>
      <trkpt lat="47.48081" lon="6.6925">
        <ele>338.4</ele>
        <time>2014-10-31T14:01:01.000Z</time>
      </trkpt>
      <trkpt lat="47.48079" lon="6.69251">
        <ele>338.5</ele>
        <time>2014-10-31T14:01:02.000Z</time>
      </trkpt>
      <trkpt lat="47.48076" lon="6.69252">
        <ele>338.5</ele>
        <time>2014-10-31T14:01:03.000Z</time>
      </trkpt>
      <trkpt lat="47.48073" lon="6.69252">
        <ele>338.3</ele>
        <time>2014-10-31T14:01:04.000Z</time>
      </trkpt>
      <trkpt lat="47.48071" lon="6.69252">
        <ele>338.2</ele>
        <time>2014-10-31T14:01:05.000Z</time>
      </trkpt>
      <trkpt lat="47.48068" lon="6.69252">
        <ele>339</ele>
        <time>2014-10-31T14:01:06.000Z</time>
      </trkpt>
      <trkpt lat="47.48065" lon="6.69253">
        <ele>338.7</ele>
        <time>2014-10-31T14:01:07.000Z</time>
      </trkpt>
      <trkpt lat="47.48062" lon="6.69254">
        <ele>338.8</ele>
        <time>2014-10-31T14:01:08.000Z</time>
      </trkpt>
      <trkpt lat="47.48059" lon="6.69255">
        <ele>338.6</ele>
        <time>2014-10-31T14:01:09.000Z</time>
      </trkpt>
      <trkpt lat="47.48052" lon="6.69258">
        <ele>338.1</ele>
        <time>2014-10-31T14:01:10.000Z</time>
      </trkpt>
      <trkpt lat="47.48049" lon="6.6926">
        <ele>339</ele>
        <time>2014-10-31T14:01:11.000Z</time>
      </trkpt>
      <trkpt lat="47.48045" lon="6.6926">
        <ele>339.5</ele>
        <time>2014-10-31T14:01:12.000Z</time>
      </trkpt>
      <trkpt lat="47.48041" lon="6.69259">
        <ele>340.8</ele>
        <time>2014-10-31T14:01:13.000Z</time>
      </trkpt>
      <trkpt lat="47.48034" lon="6.6926">
        <ele>342.1</ele>
        <time>2014-10-31T14:01:14.000Z</time>
      </trkpt>
      <trkpt lat="47.48029" lon="6.69261">
        <ele>342.9</ele>
        <time>2014-10-31T14:01:15.000Z</time>
      </trkpt>
      <trkpt lat="47.48023" lon="6.69263">
        <ele>345.2</ele>
        <time>2014-10-31T14:01:16.000Z</time>
      </trkpt>
      <trkpt lat="47.48015" lon="6.69268">
        <ele>345.7</ele>
        <time>2014-10-31T14:01:17.000Z</time>
      </trkpt>
      <trkpt lat="47.48011" lon="6.69273">
        <ele>345.8</ele>
        <time>2014-10-31T14:01:18.000Z</time>
      </trkpt>
      <trkpt lat="47.48005" lon="6.69278">
        <ele>345.9</ele>
        <time>2014-10-31T14:01:19.000Z</time>
      </trkpt>
      <trkpt lat="47.48001" lon="6.69286">
        <ele>344.6</ele>
        <time>2014-10-31T14:01:20.000Z</time>
      </trkpt>
      <trkpt lat="47.47997" lon="6.69293">
        <ele>344.7</ele>
        <time>2014-10-31T14:01:21.000Z</time>
      </trkpt>
      <trkpt lat="47.47992" lon="6.693">
        <ele>344.3</ele>
        <time>2014-10-31T14:01:22.000Z</time>
      </trkpt>
      <trkpt lat="47.47987" lon="6.69307">
        <ele>343.4</ele>
        <time>2014-10-31T14:01:23.000Z</time>
      </trkpt>
      <trkpt lat="47.47981" lon="6.69313">
        <ele>343.5</ele>
        <time>2014-10-31T14:01:24.000Z</time>
      </trkpt>
      <trkpt lat="47.47972" lon="6.69315">
        <ele>344.4</ele>
        <time>2014-10-31T14:01:25.000Z</time>
      </trkpt>
      <trkpt lat="47.47964" lon="6.69321">
        <ele>342.9</ele>
        <time>2014-10-31T14:01:26.000Z</time>
      </trkpt>
      <trkpt lat="47.47957" lon="6.69328">
        <ele>340.9</ele>
        <time>2014-10-31T14:01:27.000Z</time>
      </trkpt>
      <trkpt lat="47.47948" lon="6.69334">
        <ele>340.3</ele>
        <time>2014-10-31T14:01:28.000Z</time>
      </trkpt>
      <trkpt lat="47.47941" lon="6.69341">
        <ele>340.4</ele>
        <time>2014-10-31T14:01:29.000Z</time>
      </trkpt>
      <trkpt lat="47.47935" lon="6.69349">
        <ele>338.2</ele>
        <time>2014-10-31T14:01:30.000Z</time>
      </trkpt>
      <trkpt lat="47.47929" lon="6.69353">
        <ele>336.6</ele>
        <time>2014-10-31T14:01:31.000Z</time>
      </trkpt>
      <trkpt lat="47.47921" lon="6.69361">
        <ele>335.3</ele>
        <time>2014-10-31T14:01:32.000Z</time>
      </trkpt>
      <trkpt lat="47.47914" lon="6.69366">
        <ele>334</ele>
        <time>2014-10-31T14:01:33.000Z</time>
      </trkpt>
      <trkpt lat="47.47908" lon="6.69373">
        <ele>332.6</ele>
        <time>2014-10-31T14:01:34.000Z</time>
      </trkpt>
      <trkpt lat="47.479" lon="6.69378">
        <ele>330.3</ele>
        <time>2014-10-31T14:01:35.000Z</time>
      </trkpt>
      <trkpt lat="47.47892" lon="6.69383">
        <ele>328.7</ele>
        <time>2014-10-31T14:01:36.000Z</time>
      </trkpt>
      <trkpt lat="47.47885" lon="6.6939">
        <ele>327.6</ele>
        <time>2014-10-31T14:01:37.000Z</time>
      </trkpt>
      <trkpt lat="47.47877" lon="6.69394">
        <ele>326.5</ele>
        <time>2014-10-31T14:01:38.000Z</time>
      </trkpt>
      <trkpt lat="47.47869" lon="6.694">
        <ele>325.6</ele>
        <time>2014-10-31T14:01:39.000Z</time>
      </trkpt>
      <trkpt lat="47.4786" lon="6.69405">
        <ele>325.1</ele>
        <time>2014-10-31T14:01:40.000Z</time>
      </trkpt>
      <trkpt lat="47.47852" lon="6.6941">
        <ele>324.2</ele>
        <time>2014-10-31T14:01:41.000Z</time>
      </trkpt>
      <trkpt lat="47.47844" lon="6.69415">
        <ele>323.8</ele>
        <time>2014-10-31T14:01:42.000Z</time>
      </trkpt>
      <trkpt lat="47.47835" lon="6.69418">
        <ele>322.7</ele>
        <time>2014-10-31T14:01:43.000Z</time>
      </trkpt>
      <trkpt lat="47.47826" lon="6.69421">
        <ele>322.7</ele>
        <time>2014-10-31T14:01:44.000Z</time>
      </trkpt>
      <trkpt lat="47.47817" lon="6.69423">
        <ele>322.3</ele>
        <time>2014-10-31T14:01:45.000Z</time>
      </trkpt>
      <trkpt lat="47.47809" lon="6.69425">
        <ele>322.4</ele>
        <time>2014-10-31T14:01:46.000Z</time>
      </trkpt>
      <trkpt lat="47.478" lon="6.69425">
        <ele>321.6</ele>
        <time>2014-10-31T14:01:47.000Z</time>
      </trkpt>
      <trkpt lat="47.47792" lon="6.69426">
        <ele>321</ele>
        <time>2014-10-31T14:01:48.000Z</time>
      </trkpt>
      <trkpt lat="47.47784" lon="6.69426">
        <ele>321.4</ele>
        <time>2014-10-31T14:01:49.000Z</time>
      </trkpt>
      <trkpt lat="47.47776" lon="6.69427">
        <ele>321.1</ele>
        <time>2014-10-31T14:01:50.000Z</time>
      </trkpt>
      <trkpt lat="47.47768" lon="6.69428">
        <ele>321.6</ele>
        <time>2014-10-31T14:01:51.000Z</time>
      </trkpt>
      <trkpt lat="47.4776" lon="6.69429">
        <ele>320.7</ele>
        <time>2014-10-31T14:01:52.000Z</time>
      </trkpt>
      <trkpt lat="47.47697" lon="6.69414">
        <ele>318.8</ele>
        <time>2014-10-31T14:02:00.000Z</time>
      </trkpt>
      <trkpt lat="47.47689" lon="6.69408">
        <ele>318.2</ele>
        <time>2014-10-31T14:02:01.000Z</time>
      </trkpt>
      <trkpt lat="47.47681" lon="6.69403">
        <ele>316.5</ele>
        <time>2014-10-31T14:02:02.000Z</time>
      </trkpt>
      <trkpt lat="47.47672" lon="6.69396">
        <ele>314.6</ele>
        <time>2014-10-31T14:02:03.000Z</time>
      </trkpt>
      <trkpt lat="47.47664" lon="6.69389">
        <ele>313.7</ele>
        <time>2014-10-31T14:02:04.000Z</time>
      </trkpt>
      <trkpt lat="47.47655" lon="6.69384">
        <ele>312.2</ele>
        <time>2014-10-31T14:02:05.000Z</time>
      </trkpt>
      <trkpt lat="47.47647" lon="6.6938">
        <ele>311.9</ele>
        <time>2014-10-31T14:02:06.000Z</time>
      </trkpt>
      <trkpt lat="47.47638" lon="6.6938">
        <ele>312.1</ele>
        <time>2014-10-31T14:02:07.000Z</time>
      </trkpt>
      <trkpt lat="47.4763" lon="6.6938">
        <ele>312.1</ele>
        <time>2014-10-31T14:02:08.000Z</time>
      </trkpt>
      <trkpt lat="47.47622" lon="6.69384">
        <ele>312.3</ele>
        <time>2014-10-31T14:02:09.000Z</time>
      </trkpt>
      <trkpt lat="47.47615" lon="6.69388">
        <ele>311.6</ele>
        <time>2014-10-31T14:02:10.000Z</time>
      </trkpt>
      <trkpt lat="47.47609" lon="6.69393">
        <ele>311.4</ele>
        <time>2014-10-31T14:02:11.000Z</time>
      </trkpt>
      <trkpt lat="47.47601" lon="6.69397">
        <ele>310.9</ele>
        <time>2014-10-31T14:02:12.000Z</time>
      </trkpt>
      <trkpt lat="47.47595" lon="6.69402">
        <ele>311.1</ele>
        <time>2014-10-31T14:02:13.000Z</time>
      </trkpt>
      <trkpt lat="47.4759" lon="6.69405">
        <ele>311</ele>
        <time>2014-10-31T14:02:14.000Z</time>
      </trkpt>
      <trkpt lat="47.47583" lon="6.6941">
        <ele>311.6</ele>
        <time>2014-10-31T14:02:15.000Z</time>
      </trkpt>
      <trkpt lat="47.47577" lon="6.69414">
        <ele>312.3</ele>
        <time>2014-10-31T14:02:16.000Z</time>
      </trkpt>
      <trkpt lat="47.4757" lon="6.69419">
        <ele>311.8</ele>
        <time>2014-10-31T14:02:17.000Z</time>
      </trkpt>
      <trkpt lat="47.47564" lon="6.69423">
        <ele>311.8</ele>
        <time>2014-10-31T14:02:18.000Z</time>
      </trkpt>
      <trkpt lat="47.47557" lon="6.69426">
        <ele>310.8</ele>
        <time>2014-10-31T14:02:19.000Z</time>
      </trkpt>
      <trkpt lat="47.4755" lon="6.69429">
        <ele>311</ele>
        <time>2014-10-31T14:02:20.000Z</time>
      </trkpt>
      <trkpt lat="47.47545" lon="6.69433">
        <ele>310.5</ele>
        <time>2014-10-31T14:02:21.000Z</time>
      </trkpt>
      <trkpt lat="47.47539" lon="6.69436">
        <ele>309.6</ele>
        <time>2014-10-31T14:02:22.000Z</time>
      </trkpt>
      <trkpt lat="47.47533" lon="6.69439">
        <ele>309.3</ele>
        <time>2014-10-31T14:02:23.000Z</time>
      </trkpt>
      <trkpt lat="47.47526" lon="6.69443">
        <ele>309.4</ele>
        <time>2014-10-31T14:02:24.000Z</time>
      </trkpt>
      <trkpt lat="47.47521" lon="6.69444">
        <ele>309.8</ele>
        <time>2014-10-31T14:02:25.000Z</time>
      </trkpt>
      <trkpt lat="47.47515" lon="6.69446">
        <ele>310.4</ele>
        <time>2014-10-31T14:02:26.000Z</time>
      </trkpt>
      <trkpt lat="47.47508" lon="6.69447">
        <ele>310.1</ele>
        <time>2014-10-31T14:02:27.000Z</time>
      </trkpt>
      <trkpt lat="47.47503" lon="6.69449">
        <ele>309.5</ele>
        <time>2014-10-31T14:02:28.000Z</time>
      </trkpt>
      <trkpt lat="47.47498" lon="6.6945">
        <ele>310.1</ele>
        <time>2014-10-31T14:02:29.000Z</time>
      </trkpt>
      <trkpt lat="47.47492" lon="6.69452">
        <ele>309.5</ele>
        <time>2014-10-31T14:02:30.000Z</time>
      </trkpt>
      <trkpt lat="47.47487" lon="6.69454">
        <ele>310.1</ele>
        <time>2014-10-31T14:02:31.000Z</time>
      </trkpt>
      <trkpt lat="47.47484" lon="6.69454">
        <ele>310.6</ele>
        <time>2014-10-31T14:02:32.000Z</time>
      </trkpt>
      <trkpt lat="47.47481" lon="6.69455">
        <ele>310.2</ele>
        <time>2014-10-31T14:02:33.000Z</time>
      </trkpt>
      <trkpt lat="47.47478" lon="6.69456">
        <ele>310.6</ele>
        <time>2014-10-31T14:02:34.000Z</time>
      </trkpt>
      <trkpt lat="47.47475" lon="6.69454">
        <ele>310.5</ele>
        <time>2014-10-31T14:02:35.000Z</time>
      </trkpt>
      <trkpt lat="47.47473" lon="6.69449">
        <ele>309.8</ele>
        <time>2014-10-31T14:02:36.000Z</time>
      </trkpt>
      <trkpt lat="47.47469" lon="6.69444">
        <ele>310.7</ele>
        <time>2014-10-31T14:02:37.000Z</time>
      </trkpt>
      <trkpt lat="47.47467" lon="6.69438">
        <ele>310.7</ele>
        <time>2014-10-31T14:02:38.000Z</time>
      </trkpt>
      <trkpt lat="47.47462" lon="6.69431">
        <ele>309.8</ele>
        <time>2014-10-31T14:02:39.000Z</time>
      </trkpt>
      <trkpt lat="47.47459" lon="6.69424">
        <ele>309.1</ele>
        <time>2014-10-31T14:02:40.000Z</time>
      </trkpt>
      <trkpt lat="47.47455" lon="6.69418">
        <ele>308.5</ele>
        <time>2014-10-31T14:02:41.000Z</time>
      </trkpt>
      <trkpt lat="47.4745" lon="6.69411">
        <ele>308.9</ele>
        <time>2014-10-31T14:02:42.000Z</time>
      </trkpt>
      <trkpt lat="47.47447" lon="6.69404">
        <ele>308.5</ele>
        <time>2014-10-31T14:02:43.000Z</time>
      </trkpt>
      <trkpt lat="47.47442" lon="6.69396">
        <ele>308.7</ele>
        <time>2014-10-31T14:02:44.000Z</time>
      </trkpt>
      <trkpt lat="47.47438" lon="6.69387">
        <ele>307.4</ele>
        <time>2014-10-31T14:02:45.000Z</time>
      </trkpt>
      <trkpt lat="47.47434" lon="6.69379">
        <ele>306.7</ele>
        <time>2014-10-31T14:02:46.000Z</time>
      </trkpt>
      <trkpt lat="47.47429" lon="6.6937">
        <ele>306.9</ele>
        <time>2014-10-31T14:02:47.000Z</time>
      </trkpt>
      <trkpt lat="47.47424" lon="6.69361">
        <ele>307</ele>
        <time>2014-10-31T14:02:48.000Z</time>
      </trkpt>
      <trkpt lat="47.4742" lon="6.69353">
        <ele>306.9</ele>
        <time>2014-10-31T14:02:49.000Z</time>
      </trkpt>
      <trkpt lat="47.47416" lon="6.69343">
        <ele>306.8</ele>
        <time>2014-10-31T14:02:50.000Z</time>
      </trkpt>
      <trkpt lat="47.47412" lon="6.69336">
        <ele>307</ele>
        <time>2014-10-31T14:02:51.000Z</time>
      </trkpt>
      <trkpt lat="47.47408" lon="6.69328">
        <ele>306.6</ele>
        <time>2014-10-31T14:02:52.000Z</time>
      </trkpt>
      <trkpt lat="47.47378" lon="6.69267">
        <ele>307.4</ele>
        <time>2014-10-31T14:03:00.000Z</time>
      </trkpt>
      <trkpt lat="47.47374" lon="6.6926">
        <ele>307.6</ele>
        <time>2014-10-31T14:03:01.000Z</time>
      </trkpt>
      <trkpt lat="47.4737" lon="6.69254">
        <ele>307.4</ele>
        <time>2014-10-31T14:03:02.000Z</time>
      </trkpt>
      <trkpt lat="47.47366" lon="6.69247">
        <ele>307.3</ele>
        <time>2014-10-31T14:03:03.000Z</time>
      </trkpt>
      <trkpt lat="47.47362" lon="6.69241">
        <ele>307.4</ele>
        <time>2014-10-31T14:03:04.000Z</time>
      </trkpt>
      <trkpt lat="47.47358" lon="6.69234">
        <ele>307.3</ele>
        <time>2014-10-31T14:03:05.000Z</time>
      </trkpt>
      <trkpt lat="47.47355" lon="6.69228">
        <ele>308.5</ele>
        <time>2014-10-31T14:03:06.000Z</time>
      </trkpt>
      <trkpt lat="47.47351" lon="6.69221">
        <ele>309</ele>
        <time>2014-10-31T14:03:07.000Z</time>
      </trkpt>
      <trkpt lat="47.47347" lon="6.69214">
        <ele>307.5</ele>
        <time>2014-10-31T14:03:08.000Z</time>
      </trkpt>
      <trkpt lat="47.47343" lon="6.69207">
        <ele>307.7</ele>
        <time>2014-10-31T14:03:09.000Z</time>
      </trkpt>
      <trkpt lat="47.4734" lon="6.69202">
        <ele>308.1</ele>
        <time>2014-10-31T14:03:10.000Z</time>
      </trkpt>
      <trkpt lat="47.47336" lon="6.69195">
        <ele>307.7</ele>
        <time>2014-10-31T14:03:11.000Z</time>
      </trkpt>
      <trkpt lat="47.47331" lon="6.69188">
        <ele>307.5</ele>
        <time>2014-10-31T14:03:12.000Z</time>
      </trkpt>
      <trkpt lat="47.47327" lon="6.69183">
        <ele>307</ele>
        <time>2014-10-31T14:03:13.000Z</time>
      </trkpt>
      <trkpt lat="47.47323" lon="6.69176">
        <ele>306.3</ele>
        <time>2014-10-31T14:03:14.000Z</time>
      </trkpt>
      <trkpt lat="47.4732" lon="6.69171">
        <ele>306.5</ele>
        <time>2014-10-31T14:03:15.000Z</time>
      </trkpt>
      <trkpt lat="47.47316" lon="6.69164">
        <ele>307.1</ele>
        <time>2014-10-31T14:03:16.000Z</time>
      </trkpt>
      <trkpt lat="47.47313" lon="6.69156">
        <ele>307.3</ele>
        <time>2014-10-31T14:03:17.000Z</time>
      </trkpt>
      <trkpt lat="47.4731" lon="6.69148">
        <ele>306.9</ele>
        <time>2014-10-31T14:03:18.000Z</time>
      </trkpt>
      <trkpt lat="47.47307" lon="6.69142">
        <ele>307.1</ele>
        <time>2014-10-31T14:03:19.000Z</time>
      </trkpt>
      <trkpt lat="47.47303" lon="6.69135">
        <ele>306.9</ele>
        <time>2014-10-31T14:03:20.000Z</time>
      </trkpt>
      <trkpt lat="47.473" lon="6.69129">
        <ele>306.7</ele>
        <time>2014-10-31T14:03:21.000Z</time>
      </trkpt>
      <trkpt lat="47.47297" lon="6.69122">
        <ele>307.4</ele>
        <time>2014-10-31T14:03:22.000Z</time>
      </trkpt>
      <trkpt lat="47.47292" lon="6.69114">
        <ele>306.6</ele>
        <time>2014-10-31T14:03:23.000Z</time>
      </trkpt>
      <trkpt lat="47.47288" lon="6.69108">
        <ele>305.7</ele>
        <time>2014-10-31T14:03:24.000Z</time>
      </trkpt>
      <trkpt lat="47.47285" lon="6.69101">
        <ele>304.8</ele>
        <time>2014-10-31T14:03:25.000Z</time>
      </trkpt>
      <trkpt lat="47.47281" lon="6.69094">
        <ele>304.7</ele>
        <time>2014-10-31T14:03:26.000Z</time>
      </trkpt>
      <trkpt lat="47.47277" lon="6.69086">
        <ele>305.2</ele>
        <time>2014-10-31T14:03:27.000Z</time>
      </trkpt>
      <trkpt lat="47.47273" lon="6.69079">
        <ele>304.4</ele>
        <time>2014-10-31T14:03:28.000Z</time>
      </trkpt>
      <trkpt lat="47.47269" lon="6.69072">
        <ele>304.7</ele>
        <time>2014-10-31T14:03:29.000Z</time>
      </trkpt>
      <trkpt lat="47.47265" lon="6.69066">
        <ele>305.1</ele>
        <time>2014-10-31T14:03:30.000Z</time>
      </trkpt>
      <trkpt lat="47.47262" lon="6.6906">
        <ele>305.3</ele>
        <time>2014-10-31T14:03:31.000Z</time>
      </trkpt>
      <trkpt lat="47.47259" lon="6.69052">
        <ele>305.8</ele>
        <time>2014-10-31T14:03:32.000Z</time>
      </trkpt>
      <trkpt lat="47.47254" lon="6.69045">
        <ele>305.6</ele>
        <time>2014-10-31T14:03:33.000Z</time>
      </trkpt>
      <trkpt lat="47.47252" lon="6.69038">
        <ele>305.3</ele>
        <time>2014-10-31T14:03:34.000Z</time>
      </trkpt>
      <trkpt lat="47.47246" lon="6.69031">
        <ele>305.1</ele>
        <time>2014-10-31T14:03:35.000Z</time>
      </trkpt>
      <trkpt lat="47.47242" lon="6.69025">
        <ele>306</ele>
        <time>2014-10-31T14:03:36.000Z</time>
      </trkpt>
      <trkpt lat="47.47238" lon="6.6902">
        <ele>305.1</ele>
        <time>2014-10-31T14:03:37.000Z</time>
      </trkpt>
      <trkpt lat="47.47233" lon="6.69012">
        <ele>304.9</ele>
        <time>2014-10-31T14:03:38.000Z</time>
      </trkpt>
      <trkpt lat="47.4723" lon="6.69005">
        <ele>305.9</ele>
        <time>2014-10-31T14:03:39.000Z</time>
      </trkpt>
      <trkpt lat="47.47226" lon="6.68999">
        <ele>307.1</ele>
        <time>2014-10-31T14:03:40.000Z</time>
      </trkpt>
      <trkpt lat="47.47222" lon="6.68993">
        <ele>307.6</ele>
        <time>2014-10-31T14:03:41.000Z</time>
      </trkpt>
      <trkpt lat="47.47219" lon="6.68986">
        <ele>307.1</ele>
        <time>2014-10-31T14:03:42.000Z</time>
      </trkpt>
      <trkpt lat="47.47215" lon="6.68979">
        <ele>306.8</ele>
        <time>2014-10-31T14:03:43.000Z</time>
      </trkpt>
      <trkpt lat="47.47211" lon="6.68972">
        <ele>306.9</ele>
        <time>2014-10-31T14:03:44.000Z</time>
      </trkpt>
      <trkpt lat="47.47207" lon="6.68964">
        <ele>306.9</ele>
        <time>2014-10-31T14:03:45.000Z</time>
      </trkpt>
      <trkpt lat="47.47203" lon="6.68957">
        <ele>306.2</ele>
        <time>2014-10-31T14:03:46.000Z</time>
      </trkpt>
      <trkpt lat="47.47199" lon="6.6895">
        <ele>306.3</ele>
        <time>2014-10-31T14:03:47.000Z</time>
      </trkpt>
      <trkpt lat="47.47196" lon="6.68943">
        <ele>307</ele>
        <time>2014-10-31T14:03:48.000Z</time>
      </trkpt>
      <trkpt lat="47.47192" lon="6.68936">
        <ele>307.9</ele>
        <time>2014-10-31T14:03:49.000Z</time>
      </trkpt>
      <trkpt lat="47.47189" lon="6.6893">
        <ele>308.1</ele>
        <time>2014-10-31T14:03:50.000Z</time>
      </trkpt>
      <trkpt lat="47.47186" lon="6.68923">
        <ele>307.7</ele>
        <time>2014-10-31T14:03:51.000Z</time>
      </trkpt>
      <trkpt lat="47.47181" lon="6.68916">
        <ele>307.3</ele>
        <time>2014-10-31T14:03:52.000Z</time>
      </trkpt>
      <trkpt lat="47.47147" lon="6.6887">
        <ele>308.7</ele>
        <time>2014-10-31T14:04:00.000Z</time>
      </trkpt>
      <trkpt lat="47.47141" lon="6.68864">
        <ele>308.2</ele>
        <time>2014-10-31T14:04:01.000Z</time>
      </trkpt>
      <trkpt lat="47.47136" lon="6.68858">
        <ele>307.7</ele>
        <time>2014-10-31T14:04:02.000Z</time>
      </trkpt>
      <trkpt lat="47.47131" lon="6.68854">
        <ele>307.1</ele>
        <time>2014-10-31T14:04:03.000Z</time>
      </trkpt>
      <trkpt lat="47.47126" lon="6.68848">
        <ele>307.3</ele>
        <time>2014-10-31T14:04:04.000Z</time>
      </trkpt>
      <trkpt lat="47.47121" lon="6.68843">
        <ele>308</ele>
        <time>2014-10-31T14:04:05.000Z</time>
      </trkpt>
      <trkpt lat="47.47115" lon="6.68837">
        <ele>308</ele>
        <time>2014-10-31T14:04:06.000Z</time>
      </trkpt>
      <trkpt lat="47.4711" lon="6.68831">
        <ele>307.9</ele>
        <time>2014-10-31T14:04:07.000Z</time>
      </trkpt>
      <trkpt lat="47.47105" lon="6.68825">
        <ele>308.6</ele>
        <time>2014-10-31T14:04:08.000Z</time>
      </trkpt>
      <trkpt lat="47.47101" lon="6.68819">
        <ele>308.8</ele>
        <time>2014-10-31T14:04:09.000Z</time>
      </trkpt>
      <trkpt lat="47.47096" lon="6.68812">
        <ele>308.2</ele>
        <time>2014-10-31T14:04:10.000Z</time>
      </trkpt>
      <trkpt lat="47.47092" lon="6.68805">
        <ele>308.9</ele>
        <time>2014-10-31T14:04:11.000Z</time>
      </trkpt>
      <trkpt lat="47.47088" lon="6.68799">
        <ele>309.2</ele>
        <time>2014-10-31T14:04:12.000Z</time>
      </trkpt>
      <trkpt lat="47.47084" lon="6.68792">
        <ele>309.4</ele>
        <time>2014-10-31T14:04:13.000Z</time>
      </trkpt>
      <trkpt lat="47.4708" lon="6.68786">
        <ele>309.8</ele>
        <time>2014-10-31T14:04:14.000Z</time>
      </trkpt>
      <trkpt lat="47.47076" lon="6.6878">
        <ele>309.4</ele>
        <time>2014-10-31T14:04:15.000Z</time>
      </trkpt>
      <trkpt lat="47.47072" lon="6.68773">
        <ele>309</ele>
        <time>2014-10-31T14:04:16.000Z</time>
      </trkpt>
      <trkpt lat="47.47069" lon="6.68767">
        <ele>308.6</ele>
        <time>2014-10-31T14:04:17.000Z</time>
      </trkpt>
      <trkpt lat="47.47065" lon="6.6876">
        <ele>309.7</ele>
        <time>2014-10-31T14:04:18.000Z</time>
      </trkpt>
      <trkpt lat="47.47062" lon="6.68754">
        <ele>308.8</ele>
        <time>2014-10-31T14:04:19.000Z</time>
      </trkpt>
      <trkpt lat="47.47058" lon="6.68746">
        <ele>309.2</ele>
        <time>2014-10-31T14:04:20.000Z</time>
      </trkpt>
      <trkpt lat="47.47054" lon="6.68739">
        <ele>308.6</ele>
        <time>2014-10-31T14:04:21.000Z</time>
      </trkpt>
      <trkpt lat="47.47049" lon="6.68731">
        <ele>308.8</ele>
        <time>2014-10-31T14:04:22.000Z</time>
      </trkpt>
      <trkpt lat="47.47045" lon="6.68724">
        <ele>309.9</ele>
        <time>2014-10-31T14:04:23.000Z</time>
      </trkpt>
      <trkpt lat="47.47043" lon="6.68716">
        <ele>310.2</ele>
        <time>2014-10-31T14:04:24.000Z</time>
      </trkpt>
      <trkpt lat="47.47039" lon="6.6871">
        <ele>309.9</ele>
        <time>2014-10-31T14:04:25.000Z</time>
      </trkpt>
      <trkpt lat="47.47032" lon="6.68705">
        <ele>310.2</ele>
        <time>2014-10-31T14:04:26.000Z</time>
      </trkpt>
      <trkpt lat="47.47026" lon="6.68698">
        <ele>309.3</ele>
        <time>2014-10-31T14:04:27.000Z</time>
      </trkpt>
      <trkpt lat="47.4702" lon="6.68693">
        <ele>309.3</ele>
        <time>2014-10-31T14:04:28.000Z</time>
      </trkpt>
      <trkpt lat="47.47015" lon="6.68686">
        <ele>308.7</ele>
        <time>2014-10-31T14:04:29.000Z</time>
      </trkpt>
      <trkpt lat="47.47011" lon="6.6868">
        <ele>308.3</ele>
        <time>2014-10-31T14:04:30.000Z</time>
      </trkpt>
      <trkpt lat="47.47007" lon="6.68674">
        <ele>308.4</ele>
        <time>2014-10-31T14:04:31.000Z</time>
      </trkpt>
      <trkpt lat="47.47004" lon="6.68669">
        <ele>307.4</ele>
        <time>2014-10-31T14:04:32.000Z</time>
      </trkpt>
      <trkpt lat="47.46999" lon="6.68668">
        <ele>307.7</ele>
        <time>2014-10-31T14:04:33.000Z</time>
      </trkpt>
      <trkpt lat="47.46994" lon="6.68669">
        <ele>308.1</ele>
        <time>2014-10-31T14:04:34.000Z</time>
      </trkpt>
      <trkpt lat="47.4699" lon="6.68673">
        <ele>308.4</ele>
        <time>2014-10-31T14:04:35.000Z</time>
      </trkpt>
      <trkpt lat="47.46985" lon="6.68678">
        <ele>309.1</ele>
        <time>2014-10-31T14:04:36.000Z</time>
      </trkpt>
      <trkpt lat="47.46982" lon="6.68683">
        <ele>309.2</ele>
        <time>2014-10-31T14:04:37.000Z</time>
      </trkpt>
      <trkpt lat="47.46977" lon="6.68688">
        <ele>308.4</ele>
        <time>2014-10-31T14:04:38.000Z</time>
      </trkpt>
      <trkpt lat="47.46974" lon="6.68694">
        <ele>308.7</ele>
        <time>2014-10-31T14:04:39.000Z</time>
      </trkpt>
      <trkpt lat="47.46969" lon="6.68698">
        <ele>308.3</ele>
        <time>2014-10-31T14:04:40.000Z</time>
      </trkpt>
      <trkpt lat="47.46965" lon="6.68704">
        <ele>308.1</ele>
        <time>2014-10-31T14:04:41.000Z</time>
      </trkpt>
      <trkpt lat="47.4696" lon="6.68708">
        <ele>307.8</ele>
        <time>2014-10-31T14:04:42.000Z</time>
      </trkpt>
      <trkpt lat="47.46955" lon="6.68713">
        <ele>307.3</ele>
        <time>2014-10-31T14:04:43.000Z</time>
      </trkpt>
      <trkpt lat="47.4695" lon="6.68716">
        <ele>307.7</ele>
        <time>2014-10-31T14:04:44.000Z</time>
      </trkpt>
      <trkpt lat="47.46945" lon="6.68717">
        <ele>307.2</ele>
        <time>2014-10-31T14:04:45.000Z</time>
      </trkpt>
      <trkpt lat="47.46941" lon="6.68716">
        <ele>307</ele>
        <time>2014-10-31T14:04:46.000Z</time>
      </trkpt>
      <trkpt lat="47.46937" lon="6.68714">
        <ele>306.4</ele>
        <time>2014-10-31T14:04:47.000Z</time>
      </trkpt>
      <trkpt lat="47.46932" lon="6.68711">
        <ele>306</ele>
        <time>2014-10-31T14:04:48.000Z</time>
      </trkpt>
      <trkpt lat="47.46929" lon="6.68709">
        <ele>306.1</ele>
        <time>2014-10-31T14:04:49.000Z</time>
      </trkpt>
      <trkpt lat="47.46925" lon="6.68707">
        <ele>306.5</ele>
        <time>2014-10-31T14:04:50.000Z</time>
      </trkpt>
      <trkpt lat="47.46922" lon="6.68705">
        <ele>306.4</ele>
        <time>2014-10-31T14:04:51.000Z</time>
      </trkpt>
      <trkpt lat="47.46919" lon="6.68704">
        <ele>307.7</ele>
        <time>2014-10-31T14:04:52.000Z</time>
      </trkpt>
      <trkpt lat="47.46903" lon="6.68687">
        <ele>308.7</ele>
        <time>2014-10-31T14:05:00.000Z</time>
      </trkpt>
      <trkpt lat="47.469" lon="6.68683">
        <ele>308.6</ele>
        <time>2014-10-31T14:05:02.000Z</time>
      </trkpt>
      <trkpt lat="47.46897" lon="6.68682">
        <ele>307.3</ele>
        <time>2014-10-31T14:05:03.000Z</time>
      </trkpt>
      <trkpt lat="47.46895" lon="6.68681">
        <ele>307.6</ele>
        <time>2014-10-31T14:05:04.000Z</time>
      </trkpt>
      <trkpt lat="47.46893" lon="6.6868">
        <ele>308.2</ele>
        <time>2014-10-31T14:05:05.000Z</time>
      </trkpt>
      <trkpt lat="47.46891" lon="6.68679">
        <ele>308.6</ele>
        <time>2014-10-31T14:05:06.000Z</time>
      </trkpt>
      <trkpt lat="47.46889" lon="6.68677">
        <ele>309.1</ele>
        <time>2014-10-31T14:05:07.000Z</time>
      </trkpt>
      <trkpt lat="47.46885" lon="6.68674">
        <ele>308.3</ele>
        <time>2014-10-31T14:05:09.000Z</time>
      </trkpt>
      <trkpt lat="47.46883" lon="6.68673">
        <ele>308.5</ele>
        <time>2014-10-31T14:05:10.000Z</time>
      </trkpt>
      <trkpt lat="47.4688" lon="6.6867">
        <ele>310.3</ele>
        <time>2014-10-31T14:05:12.000Z</time>
      </trkpt>
      <trkpt lat="47.46878" lon="6.68668">
        <ele>312.1</ele>
        <time>2014-10-31T14:05:13.000Z</time>
      </trkpt>
      <trkpt lat="47.46876" lon="6.68666">
        <ele>311.9</ele>
        <time>2014-10-31T14:05:14.000Z</time>
      </trkpt>
      <trkpt lat="47.46874" lon="6.68664">
        <ele>312.5</ele>
        <time>2014-10-31T14:05:15.000Z</time>
      </trkpt>
      <trkpt lat="47.46872" lon="6.68662">
        <ele>313.1</ele>
        <time>2014-10-31T14:05:16.000Z</time>
      </trkpt>
      <trkpt lat="47.4687" lon="6.6866">
        <ele>313.1</ele>
        <time>2014-10-31T14:05:17.000Z</time>
      </trkpt>
      <trkpt lat="47.46866" lon="6.68659">
        <ele>312.3</ele>
        <time>2014-10-31T14:05:19.000Z</time>
      </trkpt>
      <trkpt lat="47.46864" lon="6.68658">
        <ele>312.6</ele>
        <time>2014-10-31T14:05:20.000Z</time>
      </trkpt>
      <trkpt lat="47.4686" lon="6.68658">
        <ele>312.5</ele>
        <time>2014-10-31T14:05:22.000Z</time>
      </trkpt>
      <trkpt lat="47.46859" lon="6.68657">
        <ele>312.1</ele>
        <time>2014-10-31T14:05:23.000Z</time>
      </trkpt>
      <trkpt lat="47.46855" lon="6.68656">
        <ele>313</ele>
        <time>2014-10-31T14:05:25.000Z</time>
      </trkpt>
      <trkpt lat="47.46853" lon="6.68656">
        <ele>313.4</ele>
        <time>2014-10-31T14:05:26.000Z</time>
      </trkpt>
      <trkpt lat="47.46849" lon="6.68655">
        <ele>313.5</ele>
        <time>2014-10-31T14:05:28.000Z</time>
      </trkpt>
      <trkpt lat="47.46847" lon="6.68655">
        <ele>313.7</ele>
        <time>2014-10-31T14:05:29.000Z</time>
      </trkpt>
      <trkpt lat="47.46843" lon="6.68654">
        <ele>314</ele>
        <time>2014-10-31T14:05:31.000Z</time>
      </trkpt>
      <trkpt lat="47.46841" lon="6.68654">
        <ele>313.1</ele>
        <time>2014-10-31T14:05:32.000Z</time>
      </trkpt>
      <trkpt lat="47.46837" lon="6.68653">
        <ele>314.7</ele>
        <time>2014-10-31T14:05:34.000Z</time>
      </trkpt>
      <trkpt lat="47.46835" lon="6.68653">
        <ele>314.8</ele>
        <time>2014-10-31T14:05:35.000Z</time>
      </trkpt>
      <trkpt lat="47.46832" lon="6.68653">
        <ele>315.1</ele>
        <time>2014-10-31T14:05:36.000Z</time>
      </trkpt>
      <trkpt lat="47.4683" lon="6.68652">
        <ele>315</ele>
        <time>2014-10-31T14:05:37.000Z</time>
      </trkpt>
      <trkpt lat="47.46826" lon="6.68652">
        <ele>315</ele>
        <time>2014-10-31T14:05:39.000Z</time>
      </trkpt>
      <trkpt lat="47.46824" lon="6.68652">
        <ele>315.5</ele>
        <time>2014-10-31T14:05:40.000Z</time>
      </trkpt>
      <trkpt lat="47.46821" lon="6.68652">
        <ele>315.9</ele>
        <time>2014-10-31T14:05:42.000Z</time>
      </trkpt>
      <trkpt lat="47.46819" lon="6.68652">
        <ele>316.5</ele>
        <time>2014-10-31T14:05:43.000Z</time>
      </trkpt>
      <trkpt lat="47.46815" lon="6.68652">
        <ele>312.8</ele>
        <time>2014-10-31T14:05:45.000Z</time>
      </trkpt>
      <trkpt lat="47.46813" lon="6.68651">
        <ele>312.8</ele>
        <time>2014-10-31T14:05:46.000Z</time>
      </trkpt>
      <trkpt lat="47.46811" lon="6.68651">
        <ele>313.6</ele>
        <time>2014-10-31T14:05:47.000Z</time>
      </trkpt>
      <trkpt lat="47.46809" lon="6.6865">
        <ele>313.9</ele>
        <time>2014-10-31T14:05:48.000Z</time>
      </trkpt>
      <trkpt lat="47.46806" lon="6.6865">
        <ele>314.4</ele>
        <time>2014-10-31T14:05:49.000Z</time>
      </trkpt>
      <trkpt lat="47.46804" lon="6.68649">
        <ele>315.6</ele>
        <time>2014-10-31T14:05:50.000Z</time>
      </trkpt>
      <trkpt lat="47.46801" lon="6.68648">
        <ele>316.5</ele>
        <time>2014-10-31T14:05:51.000Z</time>
      </trkpt>
      <trkpt lat="47.46799" lon="6.68647">
        <ele>316.3</ele>
        <time>2014-10-31T14:05:52.000Z</time>
      </trkpt>
      <trkpt lat="47.46776" lon="6.68631">
        <ele>315.7</ele>
        <time>2014-10-31T14:06:00.000Z</time>
      </trkpt>
      <trkpt lat="47.46773" lon="6.68631">
        <ele>315.8</ele>
        <time>2014-10-31T14:06:01.000Z</time>
      </trkpt>
      <trkpt lat="47.4677" lon="6.68632">
        <ele>315.2</ele>
        <time>2014-10-31T14:06:02.000Z</time>
      </trkpt>
      <trkpt lat="47.46767" lon="6.68633">
        <ele>316.2</ele>
        <time>2014-10-31T14:06:03.000Z</time>
      </trkpt>
      <trkpt lat="47.46764" lon="6.68635">
        <ele>315.7</ele>
        <time>2014-10-31T14:06:04.000Z</time>
      </trkpt>
      <trkpt lat="47.46762" lon="6.68637">
        <ele>316.8</ele>
        <time>2014-10-31T14:06:05.000Z</time>
      </trkpt>
      <trkpt lat="47.4676" lon="6.6864">
        <ele>317.2</ele>
        <time>2014-10-31T14:06:06.000Z</time>
      </trkpt>
      <trkpt lat="47.46759" lon="6.68642">
        <ele>317.8</ele>
        <time>2014-10-31T14:06:07.000Z</time>
      </trkpt>
      <trkpt lat="47.46757" lon="6.68645">
        <ele>317.9</ele>
        <time>2014-10-31T14:06:08.000Z</time>
      </trkpt>
      <trkpt lat="47.46756" lon="6.68648">
        <ele>319.4</ele>
        <time>2014-10-31T14:06:09.000Z</time>
      </trkpt>
      <trkpt lat="47.46755" lon="6.68651">
        <ele>319.6</ele>
        <time>2014-10-31T14:06:10.000Z</time>
      </trkpt>
      <trkpt lat="47.46755" lon="6.68654">
        <ele>320.7</ele>
        <time>2014-10-31T14:06:11.000Z</time>
      </trkpt>
      <trkpt lat="47.46754" lon="6.68658">
        <ele>320.9</ele>
        <time>2014-10-31T14:06:12.000Z</time>
      </trkpt>
      <trkpt lat="47.46753" lon="6.68664">
        <ele>322.3</ele>
        <time>2014-10-31T14:06:14.000Z</time>
      </trkpt>
      <trkpt lat="47.46752" lon="6.68667">
        <ele>322.5</ele>
        <time>2014-10-31T14:06:15.000Z</time>
      </trkpt>
      <trkpt lat="47.46751" lon="6.68673">
        <ele>321.3</ele>
        <time>2014-10-31T14:06:17.000Z</time>
      </trkpt>
      <trkpt lat="47.46751" lon="6.68676">
        <ele>321.3</ele>
        <time>2014-10-31T14:06:18.000Z</time>
      </trkpt>
      <trkpt lat="47.4675" lon="6.68681">
        <ele>323</ele>
        <time>2014-10-31T14:06:20.000Z</time>
      </trkpt>
      <trkpt lat="47.4675" lon="6.68684">
        <ele>323.2</ele>
        <time>2014-10-31T14:06:21.000Z</time>
      </trkpt>
      <trkpt lat="47.46749" lon="6.68689">
        <ele>323.7</ele>
        <time>2014-10-31T14:06:22.999Z</time>
      </trkpt>
      <trkpt lat="47.46748" lon="6.68691">
        <ele>324</ele>
        <time>2014-10-31T14:06:24.000Z</time>
      </trkpt>
      <trkpt lat="47.46747" lon="6.68695">
        <ele>325.5</ele>
        <time>2014-10-31T14:06:26.000Z</time>
      </trkpt>
      <trkpt lat="47.46746" lon="6.68697">
        <ele>324.6</ele>
        <time>2014-10-31T14:06:26.999Z</time>
      </trkpt>
      <trkpt lat="47.46745" lon="6.68702">
        <ele>324.8</ele>
        <time>2014-10-31T14:06:29.000Z</time>
      </trkpt>
      <trkpt lat="47.46744" lon="6.68704">
        <ele>326</ele>
        <time>2014-10-31T14:06:30.000Z</time>
      </trkpt>
      <trkpt lat="47.46743" lon="6.6871">
        <ele>324.9</ele>
        <time>2014-10-31T14:06:32.000Z</time>
      </trkpt>
      <trkpt lat="47.46742" lon="6.68712">
        <ele>325.9</ele>
        <time>2014-10-31T14:06:33.000Z</time>
      </trkpt>
      <trkpt lat="47.46742" lon="6.68718">
        <ele>325.5</ele>
        <time>2014-10-31T14:06:35.000Z</time>
      </trkpt>
      <trkpt lat="47.46741" lon="6.6872">
        <ele>325.7</ele>
        <time>2014-10-31T14:06:36.000Z</time>
      </trkpt>
      <trkpt lat="47.4674" lon="6.68725">
        <ele>325.5</ele>
        <time>2014-10-31T14:06:38.000Z</time>
      </trkpt>
      <trkpt lat="47.4674" lon="6.68727">
        <ele>325.5</ele>
        <time>2014-10-31T14:06:39.000Z</time>
      </trkpt>
      <trkpt lat="47.46738" lon="6.68732">
        <ele>324.6</ele>
        <time>2014-10-31T14:06:41.000Z</time>
      </trkpt>
      <trkpt lat="47.46737" lon="6.68735">
        <ele>325.6</ele>
        <time>2014-10-31T14:06:42.000Z</time>
      </trkpt>
      <trkpt lat="47.46735" lon="6.68739">
        <ele>326</ele>
        <time>2014-10-31T14:06:44.000Z</time>
      </trkpt>
      <trkpt lat="47.46734" lon="6.68741">
        <ele>326</ele>
        <time>2014-10-31T14:06:45.000Z</time>
      </trkpt>
      <trkpt lat="47.46731" lon="6.68744">
        <ele>325.6</ele>
        <time>2014-10-31T14:06:47.000Z</time>
      </trkpt>
      <trkpt lat="47.4673" lon="6.68746">
        <ele>325</ele>
        <time>2014-10-31T14:06:48.000Z</time>
      </trkpt>
      <trkpt lat="47.46727" lon="6.6875">
        <ele>324.7</ele>
        <time>2014-10-31T14:06:51.000Z</time>
      </trkpt>
      <trkpt lat="47.46725" lon="6.68752">
        <ele>325.2</ele>
        <time>2014-10-31T14:06:52.000Z</time>
      </trkpt>
      <trkpt lat="47.46716" lon="6.68759">
        <ele>325.9</ele>
        <time>2014-10-31T14:07:00.000Z</time>
      </trkpt>
      <trkpt lat="47.46713" lon="6.68763">
        <ele>329.4</ele>
        <time>2014-10-31T14:07:04.000Z</time>
      </trkpt>
      <trkpt lat="47.46712" lon="6.68763">
        <ele>326.3</ele>
        <time>2014-10-31T14:07:05.000Z</time>
      </trkpt>
      <trkpt lat="47.46708" lon="6.68767">
        <ele>324.1</ele>
        <time>2014-10-31T14:07:08.000Z</time>
      </trkpt>
      <trkpt lat="47.46707" lon="6.68768">
        <ele>322.9</ele>
        <time>2014-10-31T14:07:09.000Z</time>
      </trkpt>
      <trkpt lat="47.46704" lon="6.68772">
        <ele>324.4</ele>
        <time>2014-10-31T14:07:12.000Z</time>
      </trkpt>
      <trkpt lat="47.46702" lon="6.68773">
        <ele>325</ele>
        <time>2014-10-31T14:07:13.000Z</time>
      </trkpt>
      <trkpt lat="47.46699" lon="6.68776">
        <ele>324.2</ele>
        <time>2014-10-31T14:07:16.000Z</time>
      </trkpt>
      <trkpt lat="47.46697" lon="6.68778">
        <ele>325.2</ele>
        <time>2014-10-31T14:07:17.000Z</time>
      </trkpt>
      <trkpt lat="47.46695" lon="6.6878">
        <ele>326.3</ele>
        <time>2014-10-31T14:07:19.000Z</time>
      </trkpt>
      <trkpt lat="47.46694" lon="6.68782">
        <ele>324.4</ele>
        <time>2014-10-31T14:07:20.000Z</time>
      </trkpt>
      <trkpt lat="47.4669" lon="6.68786">
        <ele>326.2</ele>
        <time>2014-10-31T14:07:23.000Z</time>
      </trkpt>
      <trkpt lat="47.46689" lon="6.68787">
        <ele>326.3</ele>
        <time>2014-10-31T14:07:24.000Z</time>
      </trkpt>
      <trkpt lat="47.46687" lon="6.6879">
        <ele>327.2</ele>
        <time>2014-10-31T14:07:26.000Z</time>
      </trkpt>
      <trkpt lat="47.46686" lon="6.68791">
        <ele>326.9</ele>
        <time>2014-10-31T14:07:27.000Z</time>
      </trkpt>
      <trkpt lat="47.46683" lon="6.68794">
        <ele>326.9</ele>
        <time>2014-10-31T14:07:29.000Z</time>
      </trkpt>
      <trkpt lat="47.46682" lon="6.68796">
        <ele>327.4</ele>
        <time>2014-10-31T14:07:30.000Z</time>
      </trkpt>
      <trkpt lat="47.46678" lon="6.68799">
        <ele>327.3</ele>
        <time>2014-10-31T14:07:33.000Z</time>
      </trkpt>
      <trkpt lat="47.46677" lon="6.688">
        <ele>326</ele>
        <time>2014-10-31T14:07:34.000Z</time>
      </trkpt>
      <trkpt lat="47.46674" lon="6.68802">
        <ele>326.8</ele>
        <time>2014-10-31T14:07:36.000Z</time>
      </trkpt>
      <trkpt lat="47.46672" lon="6.68803">
        <ele>326.9</ele>
        <time>2014-10-31T14:07:37.000Z</time>
      </trkpt>
      <trkpt lat="47.46669" lon="6.68806">
        <ele>328.1</ele>
        <time>2014-10-31T14:07:42.000Z</time>
      </trkpt>
      <trkpt lat="47.46668" lon="6.68806">
        <ele>329.9</ele>
        <time>2014-10-31T14:07:43.000Z</time>
      </trkpt>
      <trkpt lat="47.46665" lon="6.68809">
        <ele>329.7</ele>
        <time>2014-10-31T14:07:45.000Z</time>
      </trkpt>
      <trkpt lat="47.46664" lon="6.6881">
        <ele>329.3</ele>
        <time>2014-10-31T14:07:46.000Z</time>
      </trkpt>
      <trkpt lat="47.46661" lon="6.68812">
        <ele>330.8</ele>
        <time>2014-10-31T14:07:48.000Z</time>
      </trkpt>
      <trkpt lat="47.46659" lon="6.68812">
        <ele>329.2</ele>
        <time>2014-10-31T14:07:49.000Z</time>
      </trkpt>
      <trkpt lat="47.46656" lon="6.68815">
        <ele>327.8</ele>
        <time>2014-10-31T14:07:51.000Z</time>
      </trkpt>
      <trkpt lat="47.46654" lon="6.68816">
        <ele>327.9</ele>
        <time>2014-10-31T14:07:52.000Z</time>
      </trkpt>
      <trkpt lat="47.46644" lon="6.6882">
        <ele>332.3</ele>
        <time>2014-10-31T14:08:00.000Z</time>
      </trkpt>
      <trkpt lat="47.46641" lon="6.68823">
        <ele>337.1</ele>
        <time>2014-10-31T14:08:04.000Z</time>
      </trkpt>
      <trkpt lat="47.4664" lon="6.68824">
        <ele>336.4</ele>
        <time>2014-10-31T14:08:05.000Z</time>
      </trkpt>
      <trkpt lat="47.46636" lon="6.68826">
        <ele>343.2</ele>
        <time>2014-10-31T14:08:09.000Z</time>
      </trkpt>
      <trkpt lat="47.46635" lon="6.68827">
        <ele>344.5</ele>
        <time>2014-10-31T14:08:10.000Z</time>
      </trkpt>
      <trkpt lat="47.46631" lon="6.68829">
        <ele>342.8</ele>
        <time>2014-10-31T14:08:13.000Z</time>
      </trkpt>
      <trkpt lat="47.4663" lon="6.68831">
        <ele>340.3</ele>
        <time>2014-10-31T14:08:14.000Z</time>
      </trkpt>
      <trkpt lat="47.46627" lon="6.68834">
        <ele>339.5</ele>
        <time>2014-10-31T14:08:16.000Z</time>
      </trkpt>
      <trkpt lat="47.46625" lon="6.68835">
        <ele>339.7</ele>
        <time>2014-10-31T14:08:17.000Z</time>
      </trkpt>
      <trkpt lat="47.46622" lon="6.68837">
        <ele>341.6</ele>
        <time>2014-10-31T14:08:19.000Z</time>
      </trkpt>
      <trkpt lat="47.46621" lon="6.68839">
        <ele>341.5</ele>
        <time>2014-10-31T14:08:20.000Z</time>
      </trkpt>
      <trkpt lat="47.46618" lon="6.68842">
        <ele>343.7</ele>
        <time>2014-10-31T14:08:22.000Z</time>
      </trkpt>
      <trkpt lat="47.46616" lon="6.68843">
        <ele>344.6</ele>
        <time>2014-10-31T14:08:23.000Z</time>
      </trkpt>
      <trkpt lat="47.46612" lon="6.68845">
        <ele>346.3</ele>
        <time>2014-10-31T14:08:25.000Z</time>
      </trkpt>
      <trkpt lat="47.46611" lon="6.68846">
        <ele>345.9</ele>
        <time>2014-10-31T14:08:26.000Z</time>
      </trkpt>
      <trkpt lat="47.46608" lon="6.68849">
        <ele>345.3</ele>
        <time>2014-10-31T14:08:28.000Z</time>
      </trkpt>
      <trkpt lat="47.46607" lon="6.6885">
        <ele>344.8</ele>
        <time>2014-10-31T14:08:29.000Z</time>
      </trkpt>
      <trkpt lat="47.46605" lon="6.68854">
        <ele>344.8</ele>
        <time>2014-10-31T14:08:31.000Z</time>
      </trkpt>
      <trkpt lat="47.46604" lon="6.68856">
        <ele>345.9</ele>
        <time>2014-10-31T14:08:32.000Z</time>
      </trkpt>
      <trkpt lat="47.46601" lon="6.68859">
        <ele>345.9</ele>
        <time>2014-10-31T14:08:35.000Z</time>
      </trkpt>
      <trkpt lat="47.46599" lon="6.6886">
        <ele>345.5</ele>
        <time>2014-10-31T14:08:36.000Z</time>
      </trkpt>
      <trkpt lat="47.46596" lon="6.68864">
        <ele>345.2</ele>
        <time>2014-10-31T14:08:39.000Z</time>
      </trkpt>
      <trkpt lat="47.46595" lon="6.68865">
        <ele>345.1</ele>
        <time>2014-10-31T14:08:40.000Z</time>
      </trkpt>
      <trkpt lat="47.46591" lon="6.68867">
        <ele>347.8</ele>
        <time>2014-10-31T14:08:43.000Z</time>
      </trkpt>
      <trkpt lat="47.4659" lon="6.68867">
        <ele>346.8</ele>
        <time>2014-10-31T14:08:44.000Z</time>
      </trkpt>
      <trkpt lat="47.46587" lon="6.68871">
        <ele>346.6</ele>
        <time>2014-10-31T14:08:47.000Z</time>
      </trkpt>
      <trkpt lat="47.46586" lon="6.68874">
        <ele>347.4</ele>
        <time>2014-10-31T14:08:48.000Z</time>
      </trkpt>
      <trkpt lat="47.46585" lon="6.68879">
        <ele>347.6</ele>
        <time>2014-10-31T14:08:50.000Z</time>
      </trkpt>
      <trkpt lat="47.46584" lon="6.68882">
        <ele>346.6</ele>
        <time>2014-10-31T14:08:51.000Z</time>
      </trkpt>
      <trkpt lat="47.46584" lon="6.68884">
        <ele>346.6</ele>
        <time>2014-10-31T14:08:52.000Z</time>
      </trkpt>
      <trkpt lat="47.46576" lon="6.68905">
        <ele>348.9</ele>
        <time>2014-10-31T14:09:00.000Z</time>
      </trkpt>
      <trkpt lat="47.46574" lon="6.68909">
        <ele>350.3</ele>
        <time>2014-10-31T14:09:02.000Z</time>
      </trkpt>
      <trkpt lat="47.46572" lon="6.68912">
        <ele>350.4</ele>
        <time>2014-10-31T14:09:03.000Z</time>
      </trkpt>
      <trkpt lat="47.4657" lon="6.68916">
        <ele>350.3</ele>
        <time>2014-10-31T14:09:05.000Z</time>
      </trkpt>
      <trkpt lat="47.46568" lon="6.68918">
        <ele>350.1</ele>
        <time>2014-10-31T14:09:06.000Z</time>
      </trkpt>
      <trkpt lat="47.46565" lon="6.68921">
        <ele>349.3</ele>
        <time>2014-10-31T14:09:08.000Z</time>
      </trkpt>
      <trkpt lat="47.46563" lon="6.68922">
        <ele>350.9</ele>
        <time>2014-10-31T14:09:09.000Z</time>
      </trkpt>
      <trkpt lat="47.4656" lon="6.68925">
        <ele>352.1</ele>
        <time>2014-10-31T14:09:11.000Z</time>
      </trkpt>
      <trkpt lat="47.46558" lon="6.68926">
        <ele>353</ele>
        <time>2014-10-31T14:09:12.000Z</time>
      </trkpt>
      <trkpt lat="47.46554" lon="6.68927">
        <ele>354.7</ele>
        <time>2014-10-31T14:09:14.000Z</time>
      </trkpt>
      <trkpt lat="47.46551" lon="6.68928">
        <ele>355.1</ele>
        <time>2014-10-31T14:09:15.000Z</time>
      </trkpt>
      <trkpt lat="47.46547" lon="6.68929">
        <ele>355.7</ele>
        <time>2014-10-31T14:09:17.000Z</time>
      </trkpt>
      <trkpt lat="47.46546" lon="6.68931">
        <ele>356.4</ele>
        <time>2014-10-31T14:09:18.000Z</time>
      </trkpt>
      <trkpt lat="47.46542" lon="6.68933">
        <ele>355.6</ele>
        <time>2014-10-31T14:09:20.000Z</time>
      </trkpt>
      <trkpt lat="47.4654" lon="6.68935">
        <ele>356.4</ele>
        <time>2014-10-31T14:09:21.000Z</time>
      </trkpt>
      <trkpt lat="47.46537" lon="6.68938">
        <ele>356.5</ele>
        <time>2014-10-31T14:09:23.000Z</time>
      </trkpt>
      <trkpt lat="47.46535" lon="6.6894">
        <ele>355.1</ele>
        <time>2014-10-31T14:09:24.000Z</time>
      </trkpt>
      <trkpt lat="47.46532" lon="6.68944">
        <ele>351.8</ele>
        <time>2014-10-31T14:09:26.000Z</time>
      </trkpt>
      <trkpt lat="47.46529" lon="6.68946">
        <ele>352.8</ele>
        <time>2014-10-31T14:09:27.000Z</time>
      </trkpt>
      <trkpt lat="47.46527" lon="6.68947">
        <ele>352.5</ele>
        <time>2014-10-31T14:09:28.000Z</time>
      </trkpt>
      <trkpt lat="47.46524" lon="6.68949">
        <ele>351.1</ele>
        <time>2014-10-31T14:09:29.000Z</time>
      </trkpt>
      <trkpt lat="47.46522" lon="6.6895">
        <ele>350.8</ele>
        <time>2014-10-31T14:09:30.000Z</time>
      </trkpt>
      <trkpt lat="47.46519" lon="6.68952">
        <ele>351.6</ele>
        <time>2014-10-31T14:09:31.000Z</time>
      </trkpt>
      <trkpt lat="47.46516" lon="6.68954">
        <ele>351.7</ele>
        <time>2014-10-31T14:09:32.000Z</time>
      </trkpt>
      <trkpt lat="47.46514" lon="6.68955">
        <ele>350</ele>
        <time>2014-10-31T14:09:33.000Z</time>
      </trkpt>
      <trkpt lat="47.4651" lon="6.68957">
        <ele>348</ele>
        <time>2014-10-31T14:09:35.000Z</time>
      </trkpt>
      <trkpt lat="47.46508" lon="6.68958">
        <ele>349.8</ele>
        <time>2014-10-31T14:09:36.000Z</time>
      </trkpt>
      <trkpt lat="47.46505" lon="6.68958">
        <ele>349.3</ele>
        <time>2014-10-31T14:09:37.000Z</time>
      </trkpt>
      <trkpt lat="47.46503" lon="6.68957">
        <ele>349.1</ele>
        <time>2014-10-31T14:09:38.000Z</time>
      </trkpt>
      <trkpt lat="47.465" lon="6.68957">
        <ele>349.7</ele>
        <time>2014-10-31T14:09:39.000Z</time>
      </trkpt>
      <trkpt lat="47.46497" lon="6.68958">
        <ele>350.8</ele>
        <time>2014-10-31T14:09:40.000Z</time>
      </trkpt>
      <trkpt lat="47.46495" lon="6.68958">
        <ele>352.5</ele>
        <time>2014-10-31T14:09:41.000Z</time>
      </trkpt>
      <trkpt lat="47.46492" lon="6.68958">
        <ele>353</ele>
        <time>2014-10-31T14:09:42.000Z</time>
      </trkpt>
      <trkpt lat="47.4649" lon="6.68959">
        <ele>350.9</ele>
        <time>2014-10-31T14:09:43.000Z</time>
      </trkpt>
      <trkpt lat="47.46487" lon="6.6896">
        <ele>350</ele>
        <time>2014-10-31T14:09:44.000Z</time>
      </trkpt>
      <trkpt lat="47.46485" lon="6.68961">
        <ele>350.4</ele>
        <time>2014-10-31T14:09:45.000Z</time>
      </trkpt>
      <trkpt lat="47.46482" lon="6.68962">
        <ele>352.5</ele>
        <time>2014-10-31T14:09:46.000Z</time>
      </trkpt>
      <trkpt lat="47.46479" lon="6.68963">
        <ele>352</ele>
        <time>2014-10-31T14:09:47.000Z</time>
      </trkpt>
      <trkpt lat="47.46476" lon="6.68965">
        <ele>351.7</ele>
        <time>2014-10-31T14:09:48.000Z</time>
      </trkpt>
      <trkpt lat="47.46473" lon="6.68966">
        <ele>352.4</ele>
        <time>2014-10-31T14:09:49.000Z</time>
      </trkpt>
      <trkpt lat="47.46471" lon="6.68968">
        <ele>349.6</ele>
        <time>2014-10-31T14:09:50.000Z</time>
      </trkpt>
      <trkpt lat="47.46468" lon="6.68969">
        <ele>348.7</ele>
        <time>2014-10-31T14:09:51.000Z</time>
      </trkpt>
      <trkpt lat="47.46465" lon="6.68971">
        <ele>347.8</ele>
        <time>2014-10-31T14:09:52.000Z</time>
      </trkpt>
      <trkpt lat="47.4644" lon="6.6898">
        <ele>347.9</ele>
        <time>2014-10-31T14:10:00.000Z</time>
      </trkpt>
      <trkpt lat="47.46438" lon="6.68982">
        <ele>348</ele>
        <time>2014-10-31T14:10:01.000Z</time>
      </trkpt>
      <trkpt lat="47.46436" lon="6.68985">
        <ele>347.3</ele>
        <time>2014-10-31T14:10:02.000Z</time>
      </trkpt>
      <trkpt lat="47.46433" lon="6.68986">
        <ele>348.3</ele>
        <time>2014-10-31T14:10:03.000Z</time>
      </trkpt>
      <trkpt lat="47.4643" lon="6.68988">
        <ele>348.4</ele>
        <time>2014-10-31T14:10:04.000Z</time>
      </trkpt>
      <trkpt lat="47.46426" lon="6.68988">
        <ele>349.9</ele>
        <time>2014-10-31T14:10:05.000Z</time>
      </trkpt>
      <trkpt lat="47.46423" lon="6.6899">
        <ele>349.6</ele>
        <time>2014-10-31T14:10:06.000Z</time>
      </trkpt>
      <trkpt lat="47.46419" lon="6.68991">
        <ele>349.4</ele>
        <time>2014-10-31T14:10:07.000Z</time>
      </trkpt>
      <trkpt lat="47.46416" lon="6.68993">
        <ele>350.1</ele>
        <time>2014-10-31T14:10:08.000Z</time>
      </trkpt>
      <trkpt lat="47.46412" lon="6.68995">
        <ele>353.1</ele>
        <time>2014-10-31T14:10:09.000Z</time>
      </trkpt>
      <trkpt lat="47.46409" lon="6.68995">
        <ele>356.1</ele>
        <time>2014-10-31T14:10:10.000Z</time>
      </trkpt>
      <trkpt lat="47.46406" lon="6.68997">
        <ele>355.1</ele>
        <time>2014-10-31T14:10:11.000Z</time>
      </trkpt>
      <trkpt lat="47.46403" lon="6.68998">
        <ele>353.2</ele>
        <time>2014-10-31T14:10:12.000Z</time>
      </trkpt>
      <trkpt lat="47.464" lon="6.68999">
        <ele>352.3</ele>
        <time>2014-10-31T14:10:13.000Z</time>
      </trkpt>
      <trkpt lat="47.46398" lon="6.69001">
        <ele>353.1</ele>
        <time>2014-10-31T14:10:14.000Z</time>
      </trkpt>
      <trkpt lat="47.46396" lon="6.69001">
        <ele>354.8</ele>
        <time>2014-10-31T14:10:15.000Z</time>
      </trkpt>
      <trkpt lat="47.46393" lon="6.69001">
        <ele>353.8</ele>
        <time>2014-10-31T14:10:16.000Z</time>
      </trkpt>
      <trkpt lat="47.4639" lon="6.69001">
        <ele>353.7</ele>
        <time>2014-10-31T14:10:18.000Z</time>
      </trkpt>
      <trkpt lat="47.46388" lon="6.69001">
        <ele>355.5</ele>
        <time>2014-10-31T14:10:19.000Z</time>
      </trkpt>
      <trkpt lat="47.46384" lon="6.68999">
        <ele>356.8</ele>
        <time>2014-10-31T14:10:21.000Z</time>
      </trkpt>
      <trkpt lat="47.46382" lon="6.68998">
        <ele>357.3</ele>
        <time>2014-10-31T14:10:22.000Z</time>
      </trkpt>
      <trkpt lat="47.4638" lon="6.68997">
        <ele>359.6</ele>
        <time>2014-10-31T14:10:23.000Z</time>
      </trkpt>
      <trkpt lat="47.46377" lon="6.68995">
        <ele>362.1</ele>
        <time>2014-10-31T14:10:24.000Z</time>
      </trkpt>
      <trkpt lat="47.46375" lon="6.68993">
        <ele>363.8</ele>
        <time>2014-10-31T14:10:25.000Z</time>
      </trkpt>
      <trkpt lat="47.46373" lon="6.68992">
        <ele>364.8</ele>
        <time>2014-10-31T14:10:26.000Z</time>
      </trkpt>
      <trkpt lat="47.46371" lon="6.6899">
        <ele>364.2</ele>
        <time>2014-10-31T14:10:27.000Z</time>
      </trkpt>
      <trkpt lat="47.46368" lon="6.68991">
        <ele>363.2</ele>
        <time>2014-10-31T14:10:28.000Z</time>
      </trkpt>
      <trkpt lat="47.46366" lon="6.68992">
        <ele>364.4</ele>
        <time>2014-10-31T14:10:29.000Z</time>
      </trkpt>
      <trkpt lat="47.46363" lon="6.68993">
        <ele>363.7</ele>
        <time>2014-10-31T14:10:30.000Z</time>
      </trkpt>
      <trkpt lat="47.46361" lon="6.68994">
        <ele>364.1</ele>
        <time>2014-10-31T14:10:31.000Z</time>
      </trkpt>
      <trkpt lat="47.46358" lon="6.68994">
        <ele>364.6</ele>
        <time>2014-10-31T14:10:32.000Z</time>
      </trkpt>
      <trkpt lat="47.46355" lon="6.68994">
        <ele>365.7</ele>
        <time>2014-10-31T14:10:33.000Z</time>
      </trkpt>
      <trkpt lat="47.46351" lon="6.68994">
        <ele>366.9</ele>
        <time>2014-10-31T14:10:34.000Z</time>
      </trkpt>
      <trkpt lat="47.46349" lon="6.68994">
        <ele>367.8</ele>
        <time>2014-10-31T14:10:35.000Z</time>
      </trkpt>
      <trkpt lat="47.46346" lon="6.68994">
        <ele>367.9</ele>
        <time>2014-10-31T14:10:36.000Z</time>
      </trkpt>
      <trkpt lat="47.46342" lon="6.68992">
        <ele>367.9</ele>
        <time>2014-10-31T14:10:38.000Z</time>
      </trkpt>
      <trkpt lat="47.4634" lon="6.68991">
        <ele>369</ele>
        <time>2014-10-31T14:10:39.000Z</time>
      </trkpt>
      <trkpt lat="47.46336" lon="6.68986">
        <ele>372.3</ele>
        <time>2014-10-31T14:10:41.000Z</time>
      </trkpt>
      <trkpt lat="47.46335" lon="6.68985">
        <ele>373.9</ele>
        <time>2014-10-31T14:10:42.000Z</time>
      </trkpt>
      <trkpt lat="47.46332" lon="6.68983">
        <ele>372.7</ele>
        <time>2014-10-31T14:10:44.000Z</time>
      </trkpt>
      <trkpt lat="47.4633" lon="6.68982">
        <ele>373</ele>
        <time>2014-10-31T14:10:45.000Z</time>
      </trkpt>
      <trkpt lat="47.46328" lon="6.68981">
        <ele>373.9</ele>
        <time>2014-10-31T14:10:46.000Z</time>
      </trkpt>
      <trkpt lat="47.46325" lon="6.6898">
        <ele>374.3</ele>
        <time>2014-10-31T14:10:47.000Z</time>
      </trkpt>
      <trkpt lat="47.46323" lon="6.68978">
        <ele>373.5</ele>
        <time>2014-10-31T14:10:48.000Z</time>
      </trkpt>
      <trkpt lat="47.46321" lon="6.68977">
        <ele>372.6</ele>
        <time>2014-10-31T14:10:49.000Z</time>
      </trkpt>
      <trkpt lat="47.46318" lon="6.68976">
        <ele>371.4</ele>
        <time>2014-10-31T14:10:50.000Z</time>
      </trkpt>
      <trkpt lat="47.46315" lon="6.68975">
        <ele>370.1</ele>
        <time>2014-10-31T14:10:51.000Z</time>
      </trkpt>
      <trkpt lat="47.46312" lon="6.68975">
        <ele>370.1</ele>
        <time>2014-10-31T14:10:52.000Z</time>
      </trkpt>
      <trkpt lat="47.46287" lon="6.68968">
        <ele>372.2</ele>
        <time>2014-10-31T14:11:00.000Z</time>
      </trkpt>
      <trkpt lat="47.46284" lon="6.68967">
        <ele>372.5</ele>
        <time>2014-10-31T14:11:01.000Z</time>
      </trkpt>
      <trkpt lat="47.46281" lon="6.68967">
        <ele>373.7</ele>
        <time>2014-10-31T14:11:02.000Z</time>
      </trkpt>
      <trkpt lat="47.46277" lon="6.68967">
        <ele>373.9</ele>
        <time>2014-10-31T14:11:03.000Z</time>
      </trkpt>
      <trkpt lat="47.46274" lon="6.68966">
        <ele>374.6</ele>
        <time>2014-10-31T14:11:04.000Z</time>
      </trkpt>
      <trkpt lat="47.4627" lon="6.68965">
        <ele>375.7</ele>
        <time>2014-10-31T14:11:05.000Z</time>
      </trkpt>
      <trkpt lat="47.46267" lon="6.68964">
        <ele>376</ele>
        <time>2014-10-31T14:11:06.000Z</time>
      </trkpt>
      <trkpt lat="47.46264" lon="6.68962">
        <ele>375.6</ele>
        <time>2014-10-31T14:11:07.000Z</time>
      </trkpt>
      <trkpt lat="47.46261" lon="6.6896">
        <ele>375.9</ele>
        <time>2014-10-31T14:11:08.000Z</time>
      </trkpt>
      <trkpt lat="47.46257" lon="6.68959">
        <ele>374.6</ele>
        <time>2014-10-31T14:11:09.000Z</time>
      </trkpt>
      <trkpt lat="47.46254" lon="6.68957">
        <ele>377.7</ele>
        <time>2014-10-31T14:11:10.000Z</time>
      </trkpt>
      <trkpt lat="47.4625" lon="6.68955">
        <ele>378.7</ele>
        <time>2014-10-31T14:11:11.000Z</time>
      </trkpt>
      <trkpt lat="47.46245" lon="6.68953">
        <ele>376.7</ele>
        <time>2014-10-31T14:11:12.000Z</time>
      </trkpt>
      <trkpt lat="47.46241" lon="6.68952">
        <ele>377.1</ele>
        <time>2014-10-31T14:11:13.000Z</time>
      </trkpt>
      <trkpt lat="47.46236" lon="6.6895">
        <ele>379.1</ele>
        <time>2014-10-31T14:11:14.000Z</time>
      </trkpt>
      <trkpt lat="47.46232" lon="6.68949">
        <ele>379.4</ele>
        <time>2014-10-31T14:11:15.000Z</time>
      </trkpt>
      <trkpt lat="47.46227" lon="6.68948">
        <ele>377.1</ele>
        <time>2014-10-31T14:11:16.000Z</time>
      </trkpt>
      <trkpt lat="47.46224" lon="6.68948">
        <ele>376.7</ele>
        <time>2014-10-31T14:11:17.000Z</time>
      </trkpt>
      <trkpt lat="47.4622" lon="6.68949">
        <ele>374.7</ele>
        <time>2014-10-31T14:11:18.000Z</time>
      </trkpt>
      <trkpt lat="47.46216" lon="6.68949">
        <ele>375.2</ele>
        <time>2014-10-31T14:11:19.000Z</time>
      </trkpt>
      <trkpt lat="47.46207" lon="6.68946">
        <ele>369.7</ele>
        <time>2014-10-31T14:11:20.000Z</time>
      </trkpt>
      <trkpt lat="47.462" lon="6.68945">
        <ele>365.6</ele>
        <time>2014-10-31T14:11:21.000Z</time>
      </trkpt>
      <trkpt lat="47.46195" lon="6.68944">
        <ele>360.7</ele>
        <time>2014-10-31T14:11:22.000Z</time>
      </trkpt>
      <trkpt lat="47.46192" lon="6.68937">
        <ele>360.2</ele>
        <time>2014-10-31T14:11:23.000Z</time>
      </trkpt>
      <trkpt lat="47.4619" lon="6.6893">
        <ele>359.7</ele>
        <time>2014-10-31T14:11:24.000Z</time>
      </trkpt>
      <trkpt lat="47.46189" lon="6.68923">
        <ele>359.5</ele>
        <time>2014-10-31T14:11:25.000Z</time>
      </trkpt>
      <trkpt lat="47.4619" lon="6.68916">
        <ele>359.5</ele>
        <time>2014-10-31T14:11:26.000Z</time>
      </trkpt>
      <trkpt lat="47.46193" lon="6.68909">
        <ele>359.2</ele>
        <time>2014-10-31T14:11:27.000Z</time>
      </trkpt>
      <trkpt lat="47.46196" lon="6.68901">
        <ele>358</ele>
        <time>2014-10-31T14:11:28.000Z</time>
      </trkpt>
      <trkpt lat="47.46197" lon="6.68893">
        <ele>357.3</ele>
        <time>2014-10-31T14:11:29.000Z</time>
      </trkpt>
      <trkpt lat="47.46197" lon="6.68884">
        <ele>357.3</ele>
        <time>2014-10-31T14:11:30.000Z</time>
      </trkpt>
      <trkpt lat="47.46194" lon="6.68876">
        <ele>358.4</ele>
        <time>2014-10-31T14:11:31.000Z</time>
      </trkpt>
      <trkpt lat="47.46189" lon="6.68868">
        <ele>358.8</ele>
        <time>2014-10-31T14:11:32.000Z</time>
      </trkpt>
      <trkpt lat="47.46185" lon="6.68862">
        <ele>359.7</ele>
        <time>2014-10-31T14:11:33.000Z</time>
      </trkpt>
      <trkpt lat="47.46179" lon="6.68856">
        <ele>359.7</ele>
        <time>2014-10-31T14:11:34.000Z</time>
      </trkpt>
      <trkpt lat="47.46174" lon="6.6885">
        <ele>359.7</ele>
        <time>2014-10-31T14:11:35.000Z</time>
      </trkpt>
      <trkpt lat="47.46169" lon="6.68842">
        <ele>358.7</ele>
        <time>2014-10-31T14:11:36.000Z</time>
      </trkpt>
      <trkpt lat="47.46165" lon="6.68833">
        <ele>358.5</ele>
        <time>2014-10-31T14:11:37.000Z</time>
      </trkpt>
      <trkpt lat="47.46162" lon="6.68823">
        <ele>359.6</ele>
        <time>2014-10-31T14:11:38.000Z</time>
      </trkpt>
      <trkpt lat="47.46159" lon="6.68811">
        <ele>361</ele>
        <time>2014-10-31T14:11:39.000Z</time>
      </trkpt>
      <trkpt lat="47.46158" lon="6.68801">
        <ele>360.1</ele>
        <time>2014-10-31T14:11:40.000Z</time>
      </trkpt>
      <trkpt lat="47.46157" lon="6.68789">
        <ele>358.2</ele>
        <time>2014-10-31T14:11:41.000Z</time>
      </trkpt>
      <trkpt lat="47.46155" lon="6.68776">
        <ele>359.1</ele>
        <time>2014-10-31T14:11:42.000Z</time>
      </trkpt>
      <trkpt lat="47.46151" lon="6.68763">
        <ele>356.8</ele>
        <time>2014-10-31T14:11:43.000Z</time>
      </trkpt>
      <trkpt lat="47.46147" lon="6.68751">
        <ele>355.4</ele>
        <time>2014-10-31T14:11:44.000Z</time>
      </trkpt>
      <trkpt lat="47.46143" lon="6.68739">
        <ele>355.4</ele>
        <time>2014-10-31T14:11:45.000Z</time>
      </trkpt>
      <trkpt lat="47.46138" lon="6.6873">
        <ele>354.6</ele>
        <time>2014-10-31T14:11:46.000Z</time>
      </trkpt>
      <trkpt lat="47.46132" lon="6.68721">
        <ele>354.3</ele>
        <time>2014-10-31T14:11:47.000Z</time>
      </trkpt>
      <trkpt lat="47.46125" lon="6.68714">
        <ele>353.8</ele>
        <time>2014-10-31T14:11:48.000Z</time>
      </trkpt>
      <trkpt lat="47.46119" lon="6.68708">
        <ele>352.1</ele>
        <time>2014-10-31T14:11:49.000Z</time>
      </trkpt>
      <trkpt lat="47.46111" lon="6.68702">
        <ele>353.7</ele>
        <time>2014-10-31T14:11:50.000Z</time>
      </trkpt>
      <trkpt lat="47.46103" lon="6.68697">
        <ele>353.3</ele>
        <time>2014-10-31T14:11:51.000Z</time>
      </trkpt>
      <trkpt lat="47.46094" lon="6.68692">
        <ele>352.4</ele>
        <time>2014-10-31T14:11:52.000Z</time>
      </trkpt>
      <trkpt lat="47.46036" lon="6.68638">
        <ele>347.8</ele>
        <time>2014-10-31T14:12:00.000Z</time>
      </trkpt>
      <trkpt lat="47.4603" lon="6.6863">
        <ele>346.9</ele>
        <time>2014-10-31T14:12:01.000Z</time>
      </trkpt>
      <trkpt lat="47.46024" lon="6.68621">
        <ele>347</ele>
        <time>2014-10-31T14:12:02.000Z</time>
      </trkpt>
      <trkpt lat="47.46015" lon="6.68613">
        <ele>347</ele>
        <time>2014-10-31T14:12:03.000Z</time>
      </trkpt>
      <trkpt lat="47.46007" lon="6.68606">
        <ele>346</ele>
        <time>2014-10-31T14:12:04.000Z</time>
      </trkpt>
      <trkpt lat="47.45999" lon="6.68602">
        <ele>345</ele>
        <time>2014-10-31T14:12:05.000Z</time>
      </trkpt>
      <trkpt lat="47.45989" lon="6.68599">
        <ele>343.9</ele>
        <time>2014-10-31T14:12:06.000Z</time>
      </trkpt>
      <trkpt lat="47.4598" lon="6.68596">
        <ele>341.3</ele>
        <time>2014-10-31T14:12:07.000Z</time>
      </trkpt>
      <trkpt lat="47.45971" lon="6.68594">
        <ele>340.3</ele>
        <time>2014-10-31T14:12:08.000Z</time>
      </trkpt>
      <trkpt lat="47.45963" lon="6.68591">
        <ele>339.7</ele>
        <time>2014-10-31T14:12:09.000Z</time>
      </trkpt>
      <trkpt lat="47.45954" lon="6.68586">
        <ele>338.5</ele>
        <time>2014-10-31T14:12:10.000Z</time>
      </trkpt>
      <trkpt lat="47.45946" lon="6.68579">
        <ele>339.8</ele>
        <time>2014-10-31T14:12:11.000Z</time>
      </trkpt>
      <trkpt lat="47.45937" lon="6.68572">
        <ele>340.4</ele>
        <time>2014-10-31T14:12:12.000Z</time>
      </trkpt>
      <trkpt lat="47.4593" lon="6.68566">
        <ele>340.3</ele>
        <time>2014-10-31T14:12:13.000Z</time>
      </trkpt>
      <trkpt lat="47.45922" lon="6.68562">
        <ele>340.5</ele>
        <time>2014-10-31T14:12:14.000Z</time>
      </trkpt>
      <trkpt lat="47.45913" lon="6.68557">
        <ele>340.6</ele>
        <time>2014-10-31T14:12:15.000Z</time>
      </trkpt>
      <trkpt lat="47.45905" lon="6.68555">
        <ele>340.6</ele>
        <time>2014-10-31T14:12:16.000Z</time>
      </trkpt>
      <trkpt lat="47.45896" lon="6.68552">
        <ele>338.6</ele>
        <time>2014-10-31T14:12:17.000Z</time>
      </trkpt>
      <trkpt lat="47.45889" lon="6.68548">
        <ele>338.3</ele>
        <time>2014-10-31T14:12:18.000Z</time>
      </trkpt>
      <trkpt lat="47.45881" lon="6.68543">
        <ele>338.3</ele>
        <time>2014-10-31T14:12:19.000Z</time>
      </trkpt>
      <trkpt lat="47.45873" lon="6.68538">
        <ele>338</ele>
        <time>2014-10-31T14:12:20.000Z</time>
      </trkpt>
      <trkpt lat="47.45864" lon="6.68533">
        <ele>338.2</ele>
        <time>2014-10-31T14:12:21.000Z</time>
      </trkpt>
      <trkpt lat="47.45854" lon="6.68522">
        <ele>336.3</ele>
        <time>2014-10-31T14:12:22.000Z</time>
      </trkpt>
      <trkpt lat="47.45846" lon="6.68514">
        <ele>335.5</ele>
        <time>2014-10-31T14:12:23.001Z</time>
      </trkpt>
      <trkpt lat="47.45838" lon="6.68507">
        <ele>334.3</ele>
        <time>2014-10-31T14:12:24.000Z</time>
      </trkpt>
      <trkpt lat="47.45833" lon="6.68501">
        <ele>334.8</ele>
        <time>2014-10-31T14:12:25.000Z</time>
      </trkpt>
      <trkpt lat="47.45825" lon="6.68495">
        <ele>334.5</ele>
        <time>2014-10-31T14:12:26.000Z</time>
      </trkpt>
      <trkpt lat="47.45817" lon="6.68488">
        <ele>335.7</ele>
        <time>2014-10-31T14:12:27.000Z</time>
      </trkpt>
      <trkpt lat="47.45809" lon="6.68483">
        <ele>335.7</ele>
        <time>2014-10-31T14:12:28.000Z</time>
      </trkpt>
      <trkpt lat="47.45802" lon="6.68479">
        <ele>334.7</ele>
        <time>2014-10-31T14:12:29.000Z</time>
      </trkpt>
      <trkpt lat="47.45794" lon="6.68475">
        <ele>334.3</ele>
        <time>2014-10-31T14:12:30.000Z</time>
      </trkpt>
      <trkpt lat="47.45785" lon="6.68472">
        <ele>334.2</ele>
        <time>2014-10-31T14:12:31.000Z</time>
      </trkpt>
      <trkpt lat="47.45777" lon="6.68471">
        <ele>333.4</ele>
        <time>2014-10-31T14:12:32.000Z</time>
      </trkpt>
      <trkpt lat="47.4577" lon="6.68471">
        <ele>333.3</ele>
        <time>2014-10-31T14:12:33.000Z</time>
      </trkpt>
      <trkpt lat="47.45762" lon="6.68468">
        <ele>332.7</ele>
        <time>2014-10-31T14:12:34.000Z</time>
      </trkpt>
      <trkpt lat="47.45754" lon="6.68466">
        <ele>331.7</ele>
        <time>2014-10-31T14:12:35.000Z</time>
      </trkpt>
      <trkpt lat="47.45746" lon="6.68462">
        <ele>331.5</ele>
        <time>2014-10-31T14:12:36.000Z</time>
      </trkpt>
      <trkpt lat="47.45739" lon="6.68458">
        <ele>331.6</ele>
        <time>2014-10-31T14:12:37.000Z</time>
      </trkpt>
      <trkpt lat="47.45732" lon="6.68453">
        <ele>331.8</ele>
        <time>2014-10-31T14:12:38.000Z</time>
      </trkpt>
      <trkpt lat="47.45725" lon="6.68448">
        <ele>331.1</ele>
        <time>2014-10-31T14:12:39.000Z</time>
      </trkpt>
      <trkpt lat="47.45718" lon="6.68441">
        <ele>332.3</ele>
        <time>2014-10-31T14:12:40.000Z</time>
      </trkpt>
      <trkpt lat="47.45711" lon="6.68436">
        <ele>330</ele>
        <time>2014-10-31T14:12:41.000Z</time>
      </trkpt>
      <trkpt lat="47.45705" lon="6.68434">
        <ele>328.7</ele>
        <time>2014-10-31T14:12:42.000Z</time>
      </trkpt>
      <trkpt lat="47.45697" lon="6.68428">
        <ele>328.8</ele>
        <time>2014-10-31T14:12:43.000Z</time>
      </trkpt>
      <trkpt lat="47.45689" lon="6.68423">
        <ele>329</ele>
        <time>2014-10-31T14:12:44.000Z</time>
      </trkpt>
      <trkpt lat="47.45683" lon="6.68417">
        <ele>329.2</ele>
        <time>2014-10-31T14:12:45.000Z</time>
      </trkpt>
      <trkpt lat="47.45677" lon="6.68409">
        <ele>330</ele>
        <time>2014-10-31T14:12:46.000Z</time>
      </trkpt>
      <trkpt lat="47.45672" lon="6.68403">
        <ele>329.5</ele>
        <time>2014-10-31T14:12:47.000Z</time>
      </trkpt>
      <trkpt lat="47.45668" lon="6.68397">
        <ele>330</ele>
        <time>2014-10-31T14:12:48.000Z</time>
      </trkpt>
      <trkpt lat="47.4566" lon="6.68389">
        <ele>326.9</ele>
        <time>2014-10-31T14:12:49.000Z</time>
      </trkpt>
      <trkpt lat="47.45655" lon="6.68381">
        <ele>325.9</ele>
        <time>2014-10-31T14:12:50.000Z</time>
      </trkpt>
      <trkpt lat="47.4565" lon="6.68375">
        <ele>326.2</ele>
        <time>2014-10-31T14:12:51.000Z</time>
      </trkpt>
      <trkpt lat="47.45646" lon="6.68365">
        <ele>327.5</ele>
        <time>2014-10-31T14:12:52.000Z</time>
      </trkpt>
      <trkpt lat="47.45632" lon="6.68343">
        <ele>323.3</ele>
        <time>2014-10-31T14:12:55.000Z</time>
      </trkpt>
      <trkpt lat="47.45627" lon="6.68334">
        <ele>323</ele>
        <time>2014-10-31T14:12:56.000Z</time>
      </trkpt>
      <trkpt lat="47.4562" lon="6.68324">
        <ele>321</ele>
        <time>2014-10-31T14:12:57.000Z</time>
      </trkpt>
      <trkpt lat="47.45614" lon="6.68316">
        <ele>320.9</ele>
        <time>2014-10-31T14:12:58.000Z</time>
      </trkpt>
      <trkpt lat="47.45606" lon="6.68309">
        <ele>318.7</ele>
        <time>2014-10-31T14:12:59.000Z</time>
      </trkpt>
      <trkpt lat="47.45598" lon="6.68301">
        <ele>315.6</ele>
        <time>2014-10-31T14:13:00.000Z</time>
      </trkpt>
      <trkpt lat="47.45591" lon="6.68297">
        <ele>315.6</ele>
        <time>2014-10-31T14:13:01.000Z</time>
      </trkpt>
      <trkpt lat="47.45585" lon="6.68291">
        <ele>314.8</ele>
        <time>2014-10-31T14:13:02.000Z</time>
      </trkpt>
      <trkpt lat="47.45579" lon="6.68287">
        <ele>311.5</ele>
        <time>2014-10-31T14:13:03.000Z</time>
      </trkpt>
      <trkpt lat="47.45572" lon="6.68282">
        <ele>310.4</ele>
        <time>2014-10-31T14:13:04.000Z</time>
      </trkpt>
      <trkpt lat="47.45564" lon="6.68278">
        <ele>307.5</ele>
        <time>2014-10-31T14:13:05.000Z</time>
      </trkpt>
      <trkpt lat="47.45559" lon="6.68272">
        <ele>307.9</ele>
        <time>2014-10-31T14:13:06.000Z</time>
      </trkpt>
      <trkpt lat="47.45553" lon="6.68268">
        <ele>306.7</ele>
        <time>2014-10-31T14:13:07.000Z</time>
      </trkpt>
      <trkpt lat="47.45547" lon="6.68261">
        <ele>306.2</ele>
        <time>2014-10-31T14:13:08.000Z</time>
      </trkpt>
      <trkpt lat="47.45543" lon="6.68257">
        <ele>305.4</ele>
        <time>2014-10-31T14:13:09.000Z</time>
      </trkpt>
      <trkpt lat="47.45538" lon="6.68254">
        <ele>304.5</ele>
        <time>2014-10-31T14:13:10.000Z</time>
      </trkpt>
      <trkpt lat="47.45534" lon="6.68253">
        <ele>303.9</ele>
        <time>2014-10-31T14:13:11.000Z</time>
      </trkpt>
      <trkpt lat="47.45529" lon="6.68252">
        <ele>303</ele>
        <time>2014-10-31T14:13:12.000Z</time>
      </trkpt>
      <trkpt lat="47.45525" lon="6.68251">
        <ele>301.2</ele>
        <time>2014-10-31T14:13:13.000Z</time>
      </trkpt>
      <trkpt lat="47.45522" lon="6.68245">
        <ele>300.9</ele>
        <time>2014-10-31T14:13:14.000Z</time>
      </trkpt>
      <trkpt lat="47.4552" lon="6.6824">
        <ele>300.1</ele>
        <time>2014-10-31T14:13:15.000Z</time>
      </trkpt>
      <trkpt lat="47.45519" lon="6.68237">
        <ele>301</ele>
        <time>2014-10-31T14:13:16.000Z</time>
      </trkpt>
      <trkpt lat="47.45516" lon="6.68232">
        <ele>306.3</ele>
        <time>2014-10-31T14:13:19.000Z</time>
      </trkpt>
      <trkpt lat="47.45515" lon="6.68235">
        <ele>308.1</ele>
        <time>2014-10-31T14:13:20.000Z</time>
      </trkpt>
      <trkpt lat="47.45515" lon="6.6824">
        <ele>307.8</ele>
        <time>2014-10-31T14:13:22.000Z</time>
      </trkpt>
      <trkpt lat="47.45516" lon="6.68245">
        <ele>307.3</ele>
        <time>2014-10-31T14:13:23.000Z</time>
      </trkpt>
      <trkpt lat="47.45517" lon="6.6825">
        <ele>307.1</ele>
        <time>2014-10-31T14:13:24.000Z</time>
      </trkpt>
      <trkpt lat="47.45518" lon="6.68254">
        <ele>307</ele>
        <time>2014-10-31T14:13:25.000Z</time>
      </trkpt>
      <trkpt lat="47.45519" lon="6.6826">
        <ele>303.4</ele>
        <time>2014-10-31T14:13:26.000Z</time>
      </trkpt>
      <trkpt lat="47.45521" lon="6.68266">
        <ele>304.2</ele>
        <time>2014-10-31T14:13:27.000Z</time>
      </trkpt>
      <trkpt lat="47.45522" lon="6.68276">
        <ele>303</ele>
        <time>2014-10-31T14:13:28.000Z</time>
      </trkpt>
      <trkpt lat="47.45525" lon="6.68282">
        <ele>304</ele>
        <time>2014-10-31T14:13:29.000Z</time>
      </trkpt>
      <trkpt lat="47.45526" lon="6.68287">
        <ele>304.7</ele>
        <time>2014-10-31T14:13:30.000Z</time>
      </trkpt>
      <trkpt lat="47.45527" lon="6.68291">
        <ele>305.4</ele>
        <time>2014-10-31T14:13:31.000Z</time>
      </trkpt>
      <trkpt lat="47.45527" lon="6.68296">
        <ele>305.4</ele>
        <time>2014-10-31T14:13:32.000Z</time>
      </trkpt>
      <trkpt lat="47.45528" lon="6.683">
        <ele>306.2</ele>
        <time>2014-10-31T14:13:33.000Z</time>
      </trkpt>
      <trkpt lat="47.4553" lon="6.68304">
        <ele>307.5</ele>
        <time>2014-10-31T14:13:34.000Z</time>
      </trkpt>
      <trkpt lat="47.45531" lon="6.68306">
        <ele>309.1</ele>
        <time>2014-10-31T14:13:35.000Z</time>
      </trkpt>
      <trkpt lat="47.45532" lon="6.68311">
        <ele>310</ele>
        <time>2014-10-31T14:13:36.000Z</time>
      </trkpt>
      <trkpt lat="47.45531" lon="6.68314">
        <ele>310</ele>
        <time>2014-10-31T14:13:37.000Z</time>
      </trkpt>
      <trkpt lat="47.45533" lon="6.68318">
        <ele>311.1</ele>
        <time>2014-10-31T14:13:38.000Z</time>
      </trkpt>
      <trkpt lat="47.45535" lon="6.68322">
        <ele>310.2</ele>
        <time>2014-10-31T14:13:39.000Z</time>
      </trkpt>
      <trkpt lat="47.45537" lon="6.68326">
        <ele>310</ele>
        <time>2014-10-31T14:13:40.000Z</time>
      </trkpt>
      <trkpt lat="47.45539" lon="6.6833">
        <ele>310.3</ele>
        <time>2014-10-31T14:13:41.000Z</time>
      </trkpt>
      <trkpt lat="47.45541" lon="6.68335">
        <ele>309.4</ele>
        <time>2014-10-31T14:13:42.000Z</time>
      </trkpt>
      <trkpt lat="47.45544" lon="6.68339">
        <ele>309.8</ele>
        <time>2014-10-31T14:13:43.000Z</time>
      </trkpt>
      <trkpt lat="47.45546" lon="6.68345">
        <ele>308.9</ele>
        <time>2014-10-31T14:13:44.000Z</time>
      </trkpt>
      <trkpt lat="47.45548" lon="6.6835">
        <ele>308.7</ele>
        <time>2014-10-31T14:13:45.000Z</time>
      </trkpt>
      <trkpt lat="47.45551" lon="6.68354">
        <ele>308.9</ele>
        <time>2014-10-31T14:13:46.000Z</time>
      </trkpt>
      <trkpt lat="47.45554" lon="6.68359">
        <ele>308.7</ele>
        <time>2014-10-31T14:13:47.000Z</time>
      </trkpt>
      <trkpt lat="47.45557" lon="6.68363">
        <ele>310.1</ele>
        <time>2014-10-31T14:13:48.000Z</time>
      </trkpt>
      <trkpt lat="47.4556" lon="6.68367">
        <ele>309.1</ele>
        <time>2014-10-31T14:13:49.000Z</time>
      </trkpt>
      <trkpt lat="47.45563" lon="6.68372">
        <ele>308.7</ele>
        <time>2014-10-31T14:13:50.000Z</time>
      </trkpt>
      <trkpt lat="47.45567" lon="6.68376">
        <ele>309.9</ele>
        <time>2014-10-31T14:13:51.000Z</time>
      </trkpt>
      <trkpt lat="47.4557" lon="6.68381">
        <ele>310.2</ele>
        <time>2014-10-31T14:13:52.000Z</time>
      </trkpt>
      <trkpt lat="47.4559" lon="6.68416">
        <ele>313.4</ele>
        <time>2014-10-31T14:14:00.000Z</time>
      </trkpt>
      <trkpt lat="47.45593" lon="6.68421">
        <ele>312.8</ele>
        <time>2014-10-31T14:14:01.000Z</time>
      </trkpt>
      <trkpt lat="47.45601" lon="6.68431">
        <ele>312.1</ele>
        <time>2014-10-31T14:14:02.000Z</time>
      </trkpt>
      <trkpt lat="47.45604" lon="6.68434">
        <ele>312.8</ele>
        <time>2014-10-31T14:14:03.000Z</time>
      </trkpt>
      <trkpt lat="47.45607" lon="6.68438">
        <ele>313</ele>
        <time>2014-10-31T14:14:04.000Z</time>
      </trkpt>
      <trkpt lat="47.45611" lon="6.68443">
        <ele>313.3</ele>
        <time>2014-10-31T14:14:05.000Z</time>
      </trkpt>
      <trkpt lat="47.45616" lon="6.68451">
        <ele>312</ele>
        <time>2014-10-31T14:14:06.000Z</time>
      </trkpt>
      <trkpt lat="47.45619" lon="6.68458">
        <ele>311.5</ele>
        <time>2014-10-31T14:14:07.000Z</time>
      </trkpt>
      <trkpt lat="47.45624" lon="6.68464">
        <ele>311.3</ele>
        <time>2014-10-31T14:14:08.000Z</time>
      </trkpt>
      <trkpt lat="47.45626" lon="6.68469">
        <ele>309.4</ele>
        <time>2014-10-31T14:14:09.000Z</time>
      </trkpt>
      <trkpt lat="47.45629" lon="6.68475">
        <ele>307.4</ele>
        <time>2014-10-31T14:14:10.000Z</time>
      </trkpt>
      <trkpt lat="47.45632" lon="6.68479">
        <ele>307.6</ele>
        <time>2014-10-31T14:14:11.000Z</time>
      </trkpt>
      <trkpt lat="47.45636" lon="6.68481">
        <ele>306.7</ele>
        <time>2014-10-31T14:14:12.000Z</time>
      </trkpt>
      <trkpt lat="47.45641" lon="6.68485">
        <ele>306.3</ele>
        <time>2014-10-31T14:14:13.000Z</time>
      </trkpt>
      <trkpt lat="47.45646" lon="6.68493">
        <ele>303.6</ele>
        <time>2014-10-31T14:14:14.000Z</time>
      </trkpt>
      <trkpt lat="47.45647" lon="6.68502">
        <ele>303.7</ele>
        <time>2014-10-31T14:14:15.000Z</time>
      </trkpt>
      <trkpt lat="47.4565" lon="6.68507">
        <ele>304.3</ele>
        <time>2014-10-31T14:14:16.000Z</time>
      </trkpt>
      <trkpt lat="47.45653" lon="6.68506">
        <ele>304.7</ele>
        <time>2014-10-31T14:14:17.000Z</time>
      </trkpt>
      <trkpt lat="47.45656" lon="6.68507">
        <ele>305.1</ele>
        <time>2014-10-31T14:14:18.000Z</time>
      </trkpt>
      <trkpt lat="47.45659" lon="6.68512">
        <ele>306.5</ele>
        <time>2014-10-31T14:14:19.000Z</time>
      </trkpt>
      <trkpt lat="47.45662" lon="6.68517">
        <ele>307.5</ele>
        <time>2014-10-31T14:14:20.000Z</time>
      </trkpt>
      <trkpt lat="47.45666" lon="6.68522">
        <ele>306.7</ele>
        <time>2014-10-31T14:14:21.000Z</time>
      </trkpt>
      <trkpt lat="47.45669" lon="6.68528">
        <ele>307.2</ele>
        <time>2014-10-31T14:14:22.000Z</time>
      </trkpt>
      <trkpt lat="47.45674" lon="6.68539">
        <ele>309.2</ele>
        <time>2014-10-31T14:14:23.000Z</time>
      </trkpt>
      <trkpt lat="47.45677" lon="6.68546">
        <ele>311.6</ele>
        <time>2014-10-31T14:14:24.000Z</time>
      </trkpt>
      <trkpt lat="47.4568" lon="6.6855">
        <ele>312.5</ele>
        <time>2014-10-31T14:14:25.000Z</time>
      </trkpt>
      <trkpt lat="47.45683" lon="6.68554">
        <ele>311.9</ele>
        <time>2014-10-31T14:14:26.000Z</time>
      </trkpt>
      <trkpt lat="47.45686" lon="6.68559">
        <ele>311.9</ele>
        <time>2014-10-31T14:14:27.000Z</time>
      </trkpt>
      <trkpt lat="47.4569" lon="6.68563">
        <ele>312.4</ele>
        <time>2014-10-31T14:14:28.000Z</time>
      </trkpt>
      <trkpt lat="47.45693" lon="6.68566">
        <ele>313.3</ele>
        <time>2014-10-31T14:14:29.000Z</time>
      </trkpt>
      <trkpt lat="47.45697" lon="6.6857">
        <ele>312.8</ele>
        <time>2014-10-31T14:14:30.000Z</time>
      </trkpt>
      <trkpt lat="47.457" lon="6.68573">
        <ele>312.8</ele>
        <time>2014-10-31T14:14:31.000Z</time>
      </trkpt>
      <trkpt lat="47.45703" lon="6.68576">
        <ele>311.4</ele>
        <time>2014-10-31T14:14:32.000Z</time>
      </trkpt>
      <trkpt lat="47.45706" lon="6.6858">
        <ele>310.7</ele>
        <time>2014-10-31T14:14:33.000Z</time>
      </trkpt>
      <trkpt lat="47.45708" lon="6.68584">
        <ele>310.1</ele>
        <time>2014-10-31T14:14:34.000Z</time>
      </trkpt>
      <trkpt lat="47.4571" lon="6.68588">
        <ele>308</ele>
        <time>2014-10-31T14:14:35.000Z</time>
      </trkpt>
      <trkpt lat="47.45713" lon="6.68593">
        <ele>308.2</ele>
        <time>2014-10-31T14:14:36.000Z</time>
      </trkpt>
      <trkpt lat="47.45715" lon="6.68598">
        <ele>306.5</ele>
        <time>2014-10-31T14:14:37.000Z</time>
      </trkpt>
      <trkpt lat="47.45718" lon="6.68603">
        <ele>307.3</ele>
        <time>2014-10-31T14:14:38.000Z</time>
      </trkpt>
      <trkpt lat="47.4572" lon="6.68607">
        <ele>307.3</ele>
        <time>2014-10-31T14:14:39.000Z</time>
      </trkpt>
      <trkpt lat="47.45723" lon="6.68612">
        <ele>307</ele>
        <time>2014-10-31T14:14:40.000Z</time>
      </trkpt>
      <trkpt lat="47.45725" lon="6.68616">
        <ele>307.3</ele>
        <time>2014-10-31T14:14:41.000Z</time>
      </trkpt>
      <trkpt lat="47.45728" lon="6.68621">
        <ele>306.1</ele>
        <time>2014-10-31T14:14:42.000Z</time>
      </trkpt>
      <trkpt lat="47.45731" lon="6.68626">
        <ele>306.7</ele>
        <time>2014-10-31T14:14:43.000Z</time>
      </trkpt>
      <trkpt lat="47.45734" lon="6.68632">
        <ele>307</ele>
        <time>2014-10-31T14:14:44.000Z</time>
      </trkpt>
      <trkpt lat="47.45737" lon="6.68637">
        <ele>307</ele>
        <time>2014-10-31T14:14:45.000Z</time>
      </trkpt>
      <trkpt lat="47.45739" lon="6.68643">
        <ele>307.6</ele>
        <time>2014-10-31T14:14:46.000Z</time>
      </trkpt>
      <trkpt lat="47.45747" lon="6.68651">
        <ele>305.5</ele>
        <time>2014-10-31T14:14:47.000Z</time>
      </trkpt>
      <trkpt lat="47.45746" lon="6.68657">
        <ele>306.2</ele>
        <time>2014-10-31T14:14:48.000Z</time>
      </trkpt>
      <trkpt lat="47.4575" lon="6.68661">
        <ele>306.6</ele>
        <time>2014-10-31T14:14:49.000Z</time>
      </trkpt>
      <trkpt lat="47.45754" lon="6.68666">
        <ele>307.8</ele>
        <time>2014-10-31T14:14:50.000Z</time>
      </trkpt>
      <trkpt lat="47.45759" lon="6.68671">
        <ele>309.1</ele>
        <time>2014-10-31T14:14:51.000Z</time>
      </trkpt>
      <trkpt lat="47.45762" lon="6.68677">
        <ele>308.7</ele>
        <time>2014-10-31T14:14:52.000Z</time>
      </trkpt>
      <trkpt lat="47.45787" lon="6.68711">
        <ele>308.2</ele>
        <time>2014-10-31T14:15:00.000Z</time>
      </trkpt>
      <trkpt lat="47.45791" lon="6.68713">
        <ele>308.7</ele>
        <time>2014-10-31T14:15:01.000Z</time>
      </trkpt>
      <trkpt lat="47.45797" lon="6.68715">
        <ele>308.6</ele>
        <time>2014-10-31T14:15:02.000Z</time>
      </trkpt>
      <trkpt lat="47.458" lon="6.68719">
        <ele>309.1</ele>
        <time>2014-10-31T14:15:03.000Z</time>
      </trkpt>
      <trkpt lat="47.45802" lon="6.68722">
        <ele>311.5</ele>
        <time>2014-10-31T14:15:04.000Z</time>
      </trkpt>
      <trkpt lat="47.45807" lon="6.68727">
        <ele>310.3</ele>
        <time>2014-10-31T14:15:05.000Z</time>
      </trkpt>
      <trkpt lat="47.45809" lon="6.68733">
        <ele>312.1</ele>
        <time>2014-10-31T14:15:06.000Z</time>
      </trkpt>
      <trkpt lat="47.45813" lon="6.68737">
        <ele>313</ele>
        <time>2014-10-31T14:15:07.000Z</time>
      </trkpt>
      <trkpt lat="47.45816" lon="6.6874">
        <ele>312.4</ele>
        <time>2014-10-31T14:15:08.000Z</time>
      </trkpt>
      <trkpt lat="47.45818" lon="6.68741">
        <ele>310.6</ele>
        <time>2014-10-31T14:15:09.000Z</time>
      </trkpt>
      <trkpt lat="47.45821" lon="6.68743">
        <ele>311.1</ele>
        <time>2014-10-31T14:15:10.000Z</time>
      </trkpt>
      <trkpt lat="47.45822" lon="6.68746">
        <ele>311.3</ele>
        <time>2014-10-31T14:15:11.000Z</time>
      </trkpt>
      <trkpt lat="47.45826" lon="6.68748">
        <ele>312.9</ele>
        <time>2014-10-31T14:15:13.000Z</time>
      </trkpt>
      <trkpt lat="47.45828" lon="6.6875">
        <ele>312.8</ele>
        <time>2014-10-31T14:15:14.000Z</time>
      </trkpt>
      <trkpt lat="47.45827" lon="6.68756">
        <ele>316.6</ele>
        <time>2014-10-31T14:15:15.000Z</time>
      </trkpt>
      <trkpt lat="47.45828" lon="6.6876">
        <ele>317.4</ele>
        <time>2014-10-31T14:15:16.000Z</time>
      </trkpt>
      <trkpt lat="47.4583" lon="6.68763">
        <ele>317.8</ele>
        <time>2014-10-31T14:15:17.000Z</time>
      </trkpt>
      <trkpt lat="47.45831" lon="6.68766">
        <ele>317.1</ele>
        <time>2014-10-31T14:15:18.000Z</time>
      </trkpt>
      <trkpt lat="47.45833" lon="6.6877">
        <ele>316.9</ele>
        <time>2014-10-31T14:15:19.000Z</time>
      </trkpt>
      <trkpt lat="47.45836" lon="6.68774">
        <ele>315.8</ele>
        <time>2014-10-31T14:15:20.000Z</time>
      </trkpt>
      <trkpt lat="47.45839" lon="6.68778">
        <ele>315.5</ele>
        <time>2014-10-31T14:15:21.000Z</time>
      </trkpt>
      <trkpt lat="47.45842" lon="6.68783">
        <ele>314</ele>
        <time>2014-10-31T14:15:22.000Z</time>
      </trkpt>
      <trkpt lat="47.45845" lon="6.68788">
        <ele>313.1</ele>
        <time>2014-10-31T14:15:23.000Z</time>
      </trkpt>
      <trkpt lat="47.45847" lon="6.68793">
        <ele>313.3</ele>
        <time>2014-10-31T14:15:24.000Z</time>
      </trkpt>
      <trkpt lat="47.4585" lon="6.68798">
        <ele>312.2</ele>
        <time>2014-10-31T14:15:25.000Z</time>
      </trkpt>
      <trkpt lat="47.45853" lon="6.68802">
        <ele>311.5</ele>
        <time>2014-10-31T14:15:26.000Z</time>
      </trkpt>
      <trkpt lat="47.45856" lon="6.68806">
        <ele>310.8</ele>
        <time>2014-10-31T14:15:27.000Z</time>
      </trkpt>
      <trkpt lat="47.4586" lon="6.68811">
        <ele>311.7</ele>
        <time>2014-10-31T14:15:28.000Z</time>
      </trkpt>
      <trkpt lat="47.45863" lon="6.68815">
        <ele>312</ele>
        <time>2014-10-31T14:15:29.000Z</time>
      </trkpt>
      <trkpt lat="47.45866" lon="6.6882">
        <ele>307.8</ele>
        <time>2014-10-31T14:15:30.000Z</time>
      </trkpt>
      <trkpt lat="47.45869" lon="6.68824">
        <ele>307.5</ele>
        <time>2014-10-31T14:15:31.000Z</time>
      </trkpt>
      <trkpt lat="47.45872" lon="6.68829">
        <ele>307.2</ele>
        <time>2014-10-31T14:15:32.000Z</time>
      </trkpt>
      <trkpt lat="47.45876" lon="6.68835">
        <ele>305.1</ele>
        <time>2014-10-31T14:15:33.000Z</time>
      </trkpt>
      <trkpt lat="47.45878" lon="6.6884">
        <ele>303.8</ele>
        <time>2014-10-31T14:15:34.000Z</time>
      </trkpt>
      <trkpt lat="47.45881" lon="6.68845">
        <ele>302.7</ele>
        <time>2014-10-31T14:15:35.000Z</time>
      </trkpt>
      <trkpt lat="47.45884" lon="6.68849">
        <ele>303.8</ele>
        <time>2014-10-31T14:15:36.000Z</time>
      </trkpt>
      <trkpt lat="47.45885" lon="6.68854">
        <ele>303.6</ele>
        <time>2014-10-31T14:15:37.000Z</time>
      </trkpt>
      <trkpt lat="47.45887" lon="6.68857">
        <ele>303.8</ele>
        <time>2014-10-31T14:15:38.000Z</time>
      </trkpt>
      <trkpt lat="47.4589" lon="6.6886">
        <ele>305.3</ele>
        <time>2014-10-31T14:15:39.000Z</time>
      </trkpt>
      <trkpt lat="47.45892" lon="6.68863">
        <ele>306.2</ele>
        <time>2014-10-31T14:15:40.000Z</time>
      </trkpt>
      <trkpt lat="47.45894" lon="6.68866">
        <ele>306.9</ele>
        <time>2014-10-31T14:15:41.000Z</time>
      </trkpt>
      <trkpt lat="47.45896" lon="6.6887">
        <ele>306.2</ele>
        <time>2014-10-31T14:15:42.000Z</time>
      </trkpt>
      <trkpt lat="47.45897" lon="6.68873">
        <ele>305.9</ele>
        <time>2014-10-31T14:15:43.000Z</time>
      </trkpt>
      <trkpt lat="47.459" lon="6.68877">
        <ele>306.2</ele>
        <time>2014-10-31T14:15:44.000Z</time>
      </trkpt>
      <trkpt lat="47.45902" lon="6.6888">
        <ele>305.2</ele>
        <time>2014-10-31T14:15:45.000Z</time>
      </trkpt>
      <trkpt lat="47.45905" lon="6.68884">
        <ele>306.6</ele>
        <time>2014-10-31T14:15:46.000Z</time>
      </trkpt>
      <trkpt lat="47.45907" lon="6.68888">
        <ele>306.9</ele>
        <time>2014-10-31T14:15:47.000Z</time>
      </trkpt>
      <trkpt lat="47.4591" lon="6.68892">
        <ele>306.5</ele>
        <time>2014-10-31T14:15:48.000Z</time>
      </trkpt>
      <trkpt lat="47.45913" lon="6.68895">
        <ele>308.3</ele>
        <time>2014-10-31T14:15:49.000Z</time>
      </trkpt>
      <trkpt lat="47.45915" lon="6.68897">
        <ele>310.1</ele>
        <time>2014-10-31T14:15:50.000Z</time>
      </trkpt>
      <trkpt lat="47.45918" lon="6.68899">
        <ele>308.8</ele>
        <time>2014-10-31T14:15:51.000Z</time>
      </trkpt>
      <trkpt lat="47.45921" lon="6.68901">
        <ele>310.2</ele>
        <time>2014-10-31T14:15:52.000Z</time>
      </trkpt>
      <trkpt lat="47.45938" lon="6.68937">
        <ele>311.6</ele>
        <time>2014-10-31T14:16:00.000Z</time>
      </trkpt>
      <trkpt lat="47.45939" lon="6.68942">
        <ele>310.5</ele>
        <time>2014-10-31T14:16:01.000Z</time>
      </trkpt>
      <trkpt lat="47.45941" lon="6.68947">
        <ele>310.9</ele>
        <time>2014-10-31T14:16:02.000Z</time>
      </trkpt>
      <trkpt lat="47.45943" lon="6.68952">
        <ele>310.3</ele>
        <time>2014-10-31T14:16:03.000Z</time>
      </trkpt>
      <trkpt lat="47.45945" lon="6.68958">
        <ele>311.5</ele>
        <time>2014-10-31T14:16:04.000Z</time>
      </trkpt>
      <trkpt lat="47.45947" lon="6.68962">
        <ele>311.1</ele>
        <time>2014-10-31T14:16:05.000Z</time>
      </trkpt>
      <trkpt lat="47.45949" lon="6.68966">
        <ele>311.2</ele>
        <time>2014-10-31T14:16:06.000Z</time>
      </trkpt>
      <trkpt lat="47.45951" lon="6.68971">
        <ele>310.5</ele>
        <time>2014-10-31T14:16:07.000Z</time>
      </trkpt>
      <trkpt lat="47.45953" lon="6.68976">
        <ele>308</ele>
        <time>2014-10-31T14:16:08.000Z</time>
      </trkpt>
      <trkpt lat="47.45956" lon="6.68981">
        <ele>307.4</ele>
        <time>2014-10-31T14:16:09.000Z</time>
      </trkpt>
      <trkpt lat="47.45958" lon="6.68986">
        <ele>307.4</ele>
        <time>2014-10-31T14:16:10.000Z</time>
      </trkpt>
      <trkpt lat="47.45961" lon="6.68989">
        <ele>307.6</ele>
        <time>2014-10-31T14:16:11.000Z</time>
      </trkpt>
      <trkpt lat="47.45963" lon="6.68992">
        <ele>309.1</ele>
        <time>2014-10-31T14:16:12.000Z</time>
      </trkpt>
      <trkpt lat="47.45965" lon="6.68995">
        <ele>310.9</ele>
        <time>2014-10-31T14:16:13.000Z</time>
      </trkpt>
      <trkpt lat="47.45967" lon="6.68998">
        <ele>310.8</ele>
        <time>2014-10-31T14:16:14.000Z</time>
      </trkpt>
      <trkpt lat="47.4597" lon="6.69002">
        <ele>311.9</ele>
        <time>2014-10-31T14:16:15.000Z</time>
      </trkpt>
      <trkpt lat="47.45972" lon="6.69006">
        <ele>312.1</ele>
        <time>2014-10-31T14:16:16.000Z</time>
      </trkpt>
      <trkpt lat="47.45975" lon="6.6901">
        <ele>312.2</ele>
        <time>2014-10-31T14:16:17.000Z</time>
      </trkpt>
      <trkpt lat="47.45977" lon="6.69015">
        <ele>312.7</ele>
        <time>2014-10-31T14:16:18.000Z</time>
      </trkpt>
      <trkpt lat="47.4598" lon="6.6902">
        <ele>313.3</ele>
        <time>2014-10-31T14:16:19.000Z</time>
      </trkpt>
      <trkpt lat="47.45982" lon="6.69026">
        <ele>313.1</ele>
        <time>2014-10-31T14:16:20.000Z</time>
      </trkpt>
      <trkpt lat="47.45985" lon="6.69032">
        <ele>308.1</ele>
        <time>2014-10-31T14:16:21.000Z</time>
      </trkpt>
      <trkpt lat="47.45987" lon="6.69038">
        <ele>308</ele>
        <time>2014-10-31T14:16:22.000Z</time>
      </trkpt>
      <trkpt lat="47.45989" lon="6.69043">
        <ele>308</ele>
        <time>2014-10-31T14:16:23.000Z</time>
      </trkpt>
      <trkpt lat="47.4599" lon="6.69048">
        <ele>307.3</ele>
        <time>2014-10-31T14:16:24.000Z</time>
      </trkpt>
      <trkpt lat="47.45993" lon="6.69051">
        <ele>307.3</ele>
        <time>2014-10-31T14:16:25.000Z</time>
      </trkpt>
      <trkpt lat="47.45995" lon="6.69054">
        <ele>307.4</ele>
        <time>2014-10-31T14:16:26.000Z</time>
      </trkpt>
      <trkpt lat="47.45998" lon="6.69056">
        <ele>307.8</ele>
        <time>2014-10-31T14:16:27.000Z</time>
      </trkpt>
      <trkpt lat="47.46001" lon="6.69059">
        <ele>307.4</ele>
        <time>2014-10-31T14:16:28.000Z</time>
      </trkpt>
      <trkpt lat="47.46004" lon="6.69062">
        <ele>307.4</ele>
        <time>2014-10-31T14:16:29.000Z</time>
      </trkpt>
      <trkpt lat="47.46006" lon="6.69066">
        <ele>306.4</ele>
        <time>2014-10-31T14:16:30.000Z</time>
      </trkpt>
      <trkpt lat="47.46009" lon="6.6907">
        <ele>308.3</ele>
        <time>2014-10-31T14:16:31.000Z</time>
      </trkpt>
      <trkpt lat="47.46012" lon="6.69074">
        <ele>307.7</ele>
        <time>2014-10-31T14:16:32.000Z</time>
      </trkpt>
      <trkpt lat="47.46015" lon="6.69079">
        <ele>307.9</ele>
        <time>2014-10-31T14:16:33.000Z</time>
      </trkpt>
      <trkpt lat="47.46018" lon="6.69083">
        <ele>307.8</ele>
        <time>2014-10-31T14:16:34.000Z</time>
      </trkpt>
      <trkpt lat="47.46022" lon="6.69087">
        <ele>306.5</ele>
        <time>2014-10-31T14:16:35.000Z</time>
      </trkpt>
      <trkpt lat="47.46025" lon="6.69091">
        <ele>306.8</ele>
        <time>2014-10-31T14:16:36.000Z</time>
      </trkpt>
      <trkpt lat="47.46028" lon="6.69094">
        <ele>307.4</ele>
        <time>2014-10-31T14:16:37.000Z</time>
      </trkpt>
      <trkpt lat="47.46031" lon="6.69098">
        <ele>308.1</ele>
        <time>2014-10-31T14:16:38.000Z</time>
      </trkpt>
      <trkpt lat="47.46033" lon="6.69101">
        <ele>308.5</ele>
        <time>2014-10-31T14:16:39.000Z</time>
      </trkpt>
      <trkpt lat="47.46035" lon="6.69105">
        <ele>307.4</ele>
        <time>2014-10-31T14:16:40.000Z</time>
      </trkpt>
      <trkpt lat="47.46037" lon="6.69109">
        <ele>306.9</ele>
        <time>2014-10-31T14:16:41.000Z</time>
      </trkpt>
      <trkpt lat="47.46039" lon="6.69113">
        <ele>306.5</ele>
        <time>2014-10-31T14:16:42.000Z</time>
      </trkpt>
      <trkpt lat="47.46041" lon="6.69117">
        <ele>306.7</ele>
        <time>2014-10-31T14:16:43.000Z</time>
      </trkpt>
      <trkpt lat="47.46043" lon="6.6912">
        <ele>306.5</ele>
        <time>2014-10-31T14:16:44.000Z</time>
      </trkpt>
      <trkpt lat="47.46046" lon="6.69122">
        <ele>306.5</ele>
        <time>2014-10-31T14:16:45.000Z</time>
      </trkpt>
      <trkpt lat="47.46049" lon="6.69125">
        <ele>307.4</ele>
        <time>2014-10-31T14:16:46.000Z</time>
      </trkpt>
      <trkpt lat="47.46051" lon="6.69127">
        <ele>306.9</ele>
        <time>2014-10-31T14:16:47.000Z</time>
      </trkpt>
      <trkpt lat="47.46054" lon="6.69131">
        <ele>307.4</ele>
        <time>2014-10-31T14:16:48.000Z</time>
      </trkpt>
      <trkpt lat="47.46056" lon="6.69135">
        <ele>307.3</ele>
        <time>2014-10-31T14:16:49.000Z</time>
      </trkpt>
      <trkpt lat="47.46058" lon="6.69139">
        <ele>308.5</ele>
        <time>2014-10-31T14:16:50.000Z</time>
      </trkpt>
      <trkpt lat="47.46059" lon="6.69144">
        <ele>308.4</ele>
        <time>2014-10-31T14:16:51.000Z</time>
      </trkpt>
      <trkpt lat="47.4606" lon="6.69149">
        <ele>306.1</ele>
        <time>2014-10-31T14:16:52.000Z</time>
      </trkpt>
      <trkpt lat="47.46084" lon="6.69185">
        <ele>306.4</ele>
        <time>2014-10-31T14:17:00.000Z</time>
      </trkpt>
      <trkpt lat="47.46087" lon="6.6919">
        <ele>305.2</ele>
        <time>2014-10-31T14:17:01.000Z</time>
      </trkpt>
      <trkpt lat="47.46091" lon="6.69193">
        <ele>303.5</ele>
        <time>2014-10-31T14:17:02.000Z</time>
      </trkpt>
      <trkpt lat="47.46094" lon="6.69196">
        <ele>303</ele>
        <time>2014-10-31T14:17:03.000Z</time>
      </trkpt>
      <trkpt lat="47.46097" lon="6.69199">
        <ele>302.7</ele>
        <time>2014-10-31T14:17:04.000Z</time>
      </trkpt>
      <trkpt lat="47.46101" lon="6.69201">
        <ele>302.5</ele>
        <time>2014-10-31T14:17:05.000Z</time>
      </trkpt>
      <trkpt lat="47.46105" lon="6.69203">
        <ele>302.8</ele>
        <time>2014-10-31T14:17:06.000Z</time>
      </trkpt>
      <trkpt lat="47.46107" lon="6.69205">
        <ele>306</ele>
        <time>2014-10-31T14:17:07.000Z</time>
      </trkpt>
      <trkpt lat="47.46111" lon="6.69208">
        <ele>306.2</ele>
        <time>2014-10-31T14:17:08.000Z</time>
      </trkpt>
      <trkpt lat="47.46114" lon="6.6921">
        <ele>305.6</ele>
        <time>2014-10-31T14:17:09.000Z</time>
      </trkpt>
      <trkpt lat="47.46117" lon="6.69212">
        <ele>306.3</ele>
        <time>2014-10-31T14:17:10.000Z</time>
      </trkpt>
      <trkpt lat="47.4612" lon="6.69214">
        <ele>306.9</ele>
        <time>2014-10-31T14:17:11.000Z</time>
      </trkpt>
      <trkpt lat="47.46124" lon="6.69216">
        <ele>308.1</ele>
        <time>2014-10-31T14:17:12.000Z</time>
      </trkpt>
      <trkpt lat="47.46127" lon="6.69217">
        <ele>307.8</ele>
        <time>2014-10-31T14:17:13.000Z</time>
      </trkpt>
      <trkpt lat="47.4613" lon="6.69219">
        <ele>308</ele>
        <time>2014-10-31T14:17:14.000Z</time>
      </trkpt>
      <trkpt lat="47.46132" lon="6.6922">
        <ele>308.2</ele>
        <time>2014-10-31T14:17:15.000Z</time>
      </trkpt>
      <trkpt lat="47.46135" lon="6.69222">
        <ele>306.6</ele>
        <time>2014-10-31T14:17:16.000Z</time>
      </trkpt>
      <trkpt lat="47.46138" lon="6.69225">
        <ele>305.4</ele>
        <time>2014-10-31T14:17:17.000Z</time>
      </trkpt>
      <trkpt lat="47.46142" lon="6.69227">
        <ele>305.2</ele>
        <time>2014-10-31T14:17:18.000Z</time>
      </trkpt>
      <trkpt lat="47.46145" lon="6.6923">
        <ele>307</ele>
        <time>2014-10-31T14:17:19.000Z</time>
      </trkpt>
      <trkpt lat="47.46148" lon="6.69232">
        <ele>307.6</ele>
        <time>2014-10-31T14:17:20.000Z</time>
      </trkpt>
      <trkpt lat="47.46151" lon="6.69234">
        <ele>307</ele>
        <time>2014-10-31T14:17:21.000Z</time>
      </trkpt>
      <trkpt lat="47.46153" lon="6.69235">
        <ele>307</ele>
        <time>2014-10-31T14:17:22.000Z</time>
      </trkpt>
      <trkpt lat="47.46156" lon="6.69237">
        <ele>307.7</ele>
        <time>2014-10-31T14:17:23.000Z</time>
      </trkpt>
      <trkpt lat="47.46159" lon="6.69239">
        <ele>307.4</ele>
        <time>2014-10-31T14:17:24.000Z</time>
      </trkpt>
      <trkpt lat="47.46162" lon="6.69242">
        <ele>308.1</ele>
        <time>2014-10-31T14:17:25.000Z</time>
      </trkpt>
      <trkpt lat="47.46165" lon="6.69244">
        <ele>309.2</ele>
        <time>2014-10-31T14:17:26.000Z</time>
      </trkpt>
      <trkpt lat="47.46168" lon="6.69247">
        <ele>309.4</ele>
        <time>2014-10-31T14:17:27.000Z</time>
      </trkpt>
      <trkpt lat="47.46172" lon="6.69249">
        <ele>309.5</ele>
        <time>2014-10-31T14:17:28.000Z</time>
      </trkpt>
      <trkpt lat="47.46174" lon="6.6925">
        <ele>310.3</ele>
        <time>2014-10-31T14:17:29.000Z</time>
      </trkpt>
      <trkpt lat="47.46177" lon="6.69251">
        <ele>310.8</ele>
        <time>2014-10-31T14:17:30.000Z</time>
      </trkpt>
      <trkpt lat="47.4618" lon="6.69252">
        <ele>311.3</ele>
        <time>2014-10-31T14:17:31.000Z</time>
      </trkpt>
      <trkpt lat="47.46183" lon="6.69254">
        <ele>310.3</ele>
        <time>2014-10-31T14:17:32.000Z</time>
      </trkpt>
      <trkpt lat="47.46186" lon="6.69255">
        <ele>309.9</ele>
        <time>2014-10-31T14:17:33.000Z</time>
      </trkpt>
      <trkpt lat="47.4619" lon="6.69258">
        <ele>310.2</ele>
        <time>2014-10-31T14:17:34.000Z</time>
      </trkpt>
      <trkpt lat="47.46193" lon="6.69261">
        <ele>310.8</ele>
        <time>2014-10-31T14:17:35.000Z</time>
      </trkpt>
      <trkpt lat="47.46197" lon="6.69264">
        <ele>308.8</ele>
        <time>2014-10-31T14:17:36.000Z</time>
      </trkpt>
      <trkpt lat="47.46201" lon="6.69266">
        <ele>307.2</ele>
        <time>2014-10-31T14:17:37.000Z</time>
      </trkpt>
      <trkpt lat="47.46204" lon="6.69268">
        <ele>305.7</ele>
        <time>2014-10-31T14:17:38.000Z</time>
      </trkpt>
      <trkpt lat="47.46208" lon="6.69271">
        <ele>306.6</ele>
        <time>2014-10-31T14:17:39.000Z</time>
      </trkpt>
      <trkpt lat="47.46212" lon="6.69273">
        <ele>305.3</ele>
        <time>2014-10-31T14:17:40.000Z</time>
      </trkpt>
      <trkpt lat="47.46216" lon="6.69276">
        <ele>304.3</ele>
        <time>2014-10-31T14:17:41.000Z</time>
      </trkpt>
      <trkpt lat="47.4622" lon="6.69278">
        <ele>302.9</ele>
        <time>2014-10-31T14:17:42.000Z</time>
      </trkpt>
      <trkpt lat="47.46224" lon="6.69281">
        <ele>302.6</ele>
        <time>2014-10-31T14:17:43.000Z</time>
      </trkpt>
      <trkpt lat="47.46228" lon="6.69284">
        <ele>303.6</ele>
        <time>2014-10-31T14:17:44.000Z</time>
      </trkpt>
      <trkpt lat="47.46231" lon="6.69286">
        <ele>302.2</ele>
        <time>2014-10-31T14:17:45.000Z</time>
      </trkpt>
      <trkpt lat="47.46235" lon="6.69288">
        <ele>301</ele>
        <time>2014-10-31T14:17:46.000Z</time>
      </trkpt>
      <trkpt lat="47.46238" lon="6.6929">
        <ele>300.3</ele>
        <time>2014-10-31T14:17:47.000Z</time>
      </trkpt>
      <trkpt lat="47.46242" lon="6.69294">
        <ele>299.4</ele>
        <time>2014-10-31T14:17:48.000Z</time>
      </trkpt>
      <trkpt lat="47.46246" lon="6.69297">
        <ele>299.5</ele>
        <time>2014-10-31T14:17:49.000Z</time>
      </trkpt>
      <trkpt lat="47.4625" lon="6.693">
        <ele>299.2</ele>
        <time>2014-10-31T14:17:50.000Z</time>
      </trkpt>
      <trkpt lat="47.46253" lon="6.69303">
        <ele>300.6</ele>
        <time>2014-10-31T14:17:51.000Z</time>
      </trkpt>
      <trkpt lat="47.46256" lon="6.69308">
        <ele>301.9</ele>
        <time>2014-10-31T14:17:52.000Z</time>
      </trkpt>
      <trkpt lat="47.46286" lon="6.69331">
        <ele>303.3</ele>
        <time>2014-10-31T14:18:00.000Z</time>
      </trkpt>
      <trkpt lat="47.46291" lon="6.69338">
        <ele>304.1</ele>
        <time>2014-10-31T14:18:01.000Z</time>
      </trkpt>
      <trkpt lat="47.46294" lon="6.6934">
        <ele>304.9</ele>
        <time>2014-10-31T14:18:02.000Z</time>
      </trkpt>
      <trkpt lat="47.46299" lon="6.69345">
        <ele>306.2</ele>
        <time>2014-10-31T14:18:03.000Z</time>
      </trkpt>
      <trkpt lat="47.46304" lon="6.69349">
        <ele>304.1</ele>
        <time>2014-10-31T14:18:04.000Z</time>
      </trkpt>
      <trkpt lat="47.46307" lon="6.6935">
        <ele>303.7</ele>
        <time>2014-10-31T14:18:05.000Z</time>
      </trkpt>
      <trkpt lat="47.46311" lon="6.69352">
        <ele>303</ele>
        <time>2014-10-31T14:18:06.000Z</time>
      </trkpt>
      <trkpt lat="47.46314" lon="6.69355">
        <ele>301.8</ele>
        <time>2014-10-31T14:18:07.000Z</time>
      </trkpt>
      <trkpt lat="47.46317" lon="6.69356">
        <ele>300.6</ele>
        <time>2014-10-31T14:18:08.000Z</time>
      </trkpt>
      <trkpt lat="47.4632" lon="6.69358">
        <ele>299</ele>
        <time>2014-10-31T14:18:09.000Z</time>
      </trkpt>
      <trkpt lat="47.46322" lon="6.6936">
        <ele>300.2</ele>
        <time>2014-10-31T14:18:10.000Z</time>
      </trkpt>
      <trkpt lat="47.46325" lon="6.69362">
        <ele>302.1</ele>
        <time>2014-10-31T14:18:11.000Z</time>
      </trkpt>
      <trkpt lat="47.46328" lon="6.69364">
        <ele>302.9</ele>
        <time>2014-10-31T14:18:12.000Z</time>
      </trkpt>
      <trkpt lat="47.46331" lon="6.69365">
        <ele>303.8</ele>
        <time>2014-10-31T14:18:13.000Z</time>
      </trkpt>
      <trkpt lat="47.46334" lon="6.69367">
        <ele>303.9</ele>
        <time>2014-10-31T14:18:14.000Z</time>
      </trkpt>
      <trkpt lat="47.46337" lon="6.69369">
        <ele>302.7</ele>
        <time>2014-10-31T14:18:15.000Z</time>
      </trkpt>
      <trkpt lat="47.46339" lon="6.69371">
        <ele>302.7</ele>
        <time>2014-10-31T14:18:16.000Z</time>
      </trkpt>
      <trkpt lat="47.46342" lon="6.69374">
        <ele>302.1</ele>
        <time>2014-10-31T14:18:17.000Z</time>
      </trkpt>
      <trkpt lat="47.46345" lon="6.69377">
        <ele>301.4</ele>
        <time>2014-10-31T14:18:18.000Z</time>
      </trkpt>
      <trkpt lat="47.46348" lon="6.69379">
        <ele>300.9</ele>
        <time>2014-10-31T14:18:19.000Z</time>
      </trkpt>
      <trkpt lat="47.46351" lon="6.69382">
        <ele>301.4</ele>
        <time>2014-10-31T14:18:20.000Z</time>
      </trkpt>
      <trkpt lat="47.46354" lon="6.69384">
        <ele>301.5</ele>
        <time>2014-10-31T14:18:21.000Z</time>
      </trkpt>
      <trkpt lat="47.46356" lon="6.69386">
        <ele>301.5</ele>
        <time>2014-10-31T14:18:22.000Z</time>
      </trkpt>
      <trkpt lat="47.46359" lon="6.69388">
        <ele>301.3</ele>
        <time>2014-10-31T14:18:23.000Z</time>
      </trkpt>
      <trkpt lat="47.46361" lon="6.69389">
        <ele>301.8</ele>
        <time>2014-10-31T14:18:24.000Z</time>
      </trkpt>
      <trkpt lat="47.46364" lon="6.69392">
        <ele>303.2</ele>
        <time>2014-10-31T14:18:25.000Z</time>
      </trkpt>
      <trkpt lat="47.46366" lon="6.69395">
        <ele>304.5</ele>
        <time>2014-10-31T14:18:26.000Z</time>
      </trkpt>
      <trkpt lat="47.46368" lon="6.69398">
        <ele>305.6</ele>
        <time>2014-10-31T14:18:27.000Z</time>
      </trkpt>
      <trkpt lat="47.46371" lon="6.69402">
        <ele>306.2</ele>
        <time>2014-10-31T14:18:28.000Z</time>
      </trkpt>
      <trkpt lat="47.46373" lon="6.69406">
        <ele>307</ele>
        <time>2014-10-31T14:18:29.000Z</time>
      </trkpt>
      <trkpt lat="47.46375" lon="6.69411">
        <ele>307.3</ele>
        <time>2014-10-31T14:18:30.000Z</time>
      </trkpt>
      <trkpt lat="47.46378" lon="6.69414">
        <ele>307.3</ele>
        <time>2014-10-31T14:18:31.000Z</time>
      </trkpt>
      <trkpt lat="47.4638" lon="6.69418">
        <ele>307.6</ele>
        <time>2014-10-31T14:18:32.000Z</time>
      </trkpt>
      <trkpt lat="47.46383" lon="6.69421">
        <ele>307.5</ele>
        <time>2014-10-31T14:18:33.000Z</time>
      </trkpt>
      <trkpt lat="47.46386" lon="6.69425">
        <ele>307.8</ele>
        <time>2014-10-31T14:18:34.000Z</time>
      </trkpt>
      <trkpt lat="47.46389" lon="6.69428">
        <ele>308.4</ele>
        <time>2014-10-31T14:18:35.000Z</time>
      </trkpt>
      <trkpt lat="47.46392" lon="6.69431">
        <ele>306.6</ele>
        <time>2014-10-31T14:18:36.000Z</time>
      </trkpt>
      <trkpt lat="47.46394" lon="6.69434">
        <ele>305.9</ele>
        <time>2014-10-31T14:18:36.999Z</time>
      </trkpt>
      <trkpt lat="47.46397" lon="6.69436">
        <ele>305.5</ele>
        <time>2014-10-31T14:18:38.000Z</time>
      </trkpt>
      <trkpt lat="47.464" lon="6.69438">
        <ele>305.9</ele>
        <time>2014-10-31T14:18:39.000Z</time>
      </trkpt>
      <trkpt lat="47.46403" lon="6.69442">
        <ele>306.1</ele>
        <time>2014-10-31T14:18:40.000Z</time>
      </trkpt>
      <trkpt lat="47.46406" lon="6.69445">
        <ele>306.1</ele>
        <time>2014-10-31T14:18:41.000Z</time>
      </trkpt>
      <trkpt lat="47.46409" lon="6.69449">
        <ele>306</ele>
        <time>2014-10-31T14:18:42.000Z</time>
      </trkpt>
      <trkpt lat="47.46413" lon="6.69452">
        <ele>304.7</ele>
        <time>2014-10-31T14:18:43.000Z</time>
      </trkpt>
      <trkpt lat="47.46416" lon="6.69456">
        <ele>304.6</ele>
        <time>2014-10-31T14:18:44.000Z</time>
      </trkpt>
      <trkpt lat="47.4642" lon="6.69465">
        <ele>304.3</ele>
        <time>2014-10-31T14:18:45.000Z</time>
      </trkpt>
      <trkpt lat="47.46423" lon="6.69469">
        <ele>304.7</ele>
        <time>2014-10-31T14:18:46.000Z</time>
      </trkpt>
      <trkpt lat="47.46425" lon="6.69474">
        <ele>304</ele>
        <time>2014-10-31T14:18:47.000Z</time>
      </trkpt>
      <trkpt lat="47.46427" lon="6.69482">
        <ele>302.9</ele>
        <time>2014-10-31T14:18:48.000Z</time>
      </trkpt>
      <trkpt lat="47.46431" lon="6.69488">
        <ele>301.9</ele>
        <time>2014-10-31T14:18:49.000Z</time>
      </trkpt>
      <trkpt lat="47.46436" lon="6.69492">
        <ele>300.8</ele>
        <time>2014-10-31T14:18:50.000Z</time>
      </trkpt>
      <trkpt lat="47.4644" lon="6.69494">
        <ele>302.2</ele>
        <time>2014-10-31T14:18:51.000Z</time>
      </trkpt>
      <trkpt lat="47.46441" lon="6.69499">
        <ele>303</ele>
        <time>2014-10-31T14:18:52.000Z</time>
      </trkpt>
      <trkpt lat="47.46457" lon="6.69527">
        <ele>304.3</ele>
        <time>2014-10-31T14:19:00.000Z</time>
      </trkpt>
      <trkpt lat="47.46459" lon="6.69531">
        <ele>303.6</ele>
        <time>2014-10-31T14:19:01.000Z</time>
      </trkpt>
      <trkpt lat="47.46462" lon="6.69535">
        <ele>304</ele>
        <time>2014-10-31T14:19:02.000Z</time>
      </trkpt>
      <trkpt lat="47.46464" lon="6.69538">
        <ele>304.4</ele>
        <time>2014-10-31T14:19:03.000Z</time>
      </trkpt>
      <trkpt lat="47.46467" lon="6.69541">
        <ele>304</ele>
        <time>2014-10-31T14:19:04.000Z</time>
      </trkpt>
      <trkpt lat="47.46469" lon="6.69543">
        <ele>304.8</ele>
        <time>2014-10-31T14:19:05.000Z</time>
      </trkpt>
      <trkpt lat="47.46472" lon="6.69546">
        <ele>305.1</ele>
        <time>2014-10-31T14:19:06.000Z</time>
      </trkpt>
      <trkpt lat="47.46475" lon="6.69548">
        <ele>305.6</ele>
        <time>2014-10-31T14:19:07.000Z</time>
      </trkpt>
      <trkpt lat="47.46477" lon="6.69551">
        <ele>307.2</ele>
        <time>2014-10-31T14:19:08.000Z</time>
      </trkpt>
      <trkpt lat="47.46478" lon="6.69554">
        <ele>305.1</ele>
        <time>2014-10-31T14:19:09.000Z</time>
      </trkpt>
      <trkpt lat="47.4648" lon="6.69557">
        <ele>303.2</ele>
        <time>2014-10-31T14:19:10.000Z</time>
      </trkpt>
      <trkpt lat="47.46482" lon="6.69559">
        <ele>302.3</ele>
        <time>2014-10-31T14:19:11.000Z</time>
      </trkpt>
      <trkpt lat="47.46485" lon="6.69562">
        <ele>302.5</ele>
        <time>2014-10-31T14:19:12.000Z</time>
      </trkpt>
      <trkpt lat="47.46488" lon="6.69565">
        <ele>303.2</ele>
        <time>2014-10-31T14:19:13.000Z</time>
      </trkpt>
      <trkpt lat="47.4649" lon="6.69568">
        <ele>303.3</ele>
        <time>2014-10-31T14:19:14.000Z</time>
      </trkpt>
      <trkpt lat="47.46492" lon="6.69572">
        <ele>303.5</ele>
        <time>2014-10-31T14:19:15.000Z</time>
      </trkpt>
      <trkpt lat="47.46495" lon="6.69576">
        <ele>302.7</ele>
        <time>2014-10-31T14:19:16.000Z</time>
      </trkpt>
      <trkpt lat="47.46497" lon="6.6958">
        <ele>301.6</ele>
        <time>2014-10-31T14:19:17.000Z</time>
      </trkpt>
      <trkpt lat="47.46499" lon="6.69584">
        <ele>301.7</ele>
        <time>2014-10-31T14:19:18.000Z</time>
      </trkpt>
      <trkpt lat="47.46501" lon="6.69587">
        <ele>301.3</ele>
        <time>2014-10-31T14:19:19.000Z</time>
      </trkpt>
      <trkpt lat="47.46503" lon="6.6959">
        <ele>302</ele>
        <time>2014-10-31T14:19:20.000Z</time>
      </trkpt>
      <trkpt lat="47.46505" lon="6.69594">
        <ele>303.1</ele>
        <time>2014-10-31T14:19:21.000Z</time>
      </trkpt>
      <trkpt lat="47.46507" lon="6.69597">
        <ele>302.2</ele>
        <time>2014-10-31T14:19:22.000Z</time>
      </trkpt>
      <trkpt lat="47.46509" lon="6.696">
        <ele>301.9</ele>
        <time>2014-10-31T14:19:23.000Z</time>
      </trkpt>
      <trkpt lat="47.46511" lon="6.69604">
        <ele>301.8</ele>
        <time>2014-10-31T14:19:24.000Z</time>
      </trkpt>
      <trkpt lat="47.46513" lon="6.69606">
        <ele>301.5</ele>
        <time>2014-10-31T14:19:25.000Z</time>
      </trkpt>
      <trkpt lat="47.46515" lon="6.69609">
        <ele>302.2</ele>
        <time>2014-10-31T14:19:26.000Z</time>
      </trkpt>
      <trkpt lat="47.46517" lon="6.69612">
        <ele>302.1</ele>
        <time>2014-10-31T14:19:27.000Z</time>
      </trkpt>
      <trkpt lat="47.46519" lon="6.69615">
        <ele>302.5</ele>
        <time>2014-10-31T14:19:28.000Z</time>
      </trkpt>
      <trkpt lat="47.46521" lon="6.69618">
        <ele>302.9</ele>
        <time>2014-10-31T14:19:29.000Z</time>
      </trkpt>
      <trkpt lat="47.46523" lon="6.69621">
        <ele>303.4</ele>
        <time>2014-10-31T14:19:30.000Z</time>
      </trkpt>
      <trkpt lat="47.46525" lon="6.69625">
        <ele>303.5</ele>
        <time>2014-10-31T14:19:31.000Z</time>
      </trkpt>
      <trkpt lat="47.46528" lon="6.69628">
        <ele>303.3</ele>
        <time>2014-10-31T14:19:32.000Z</time>
      </trkpt>
      <trkpt lat="47.4653" lon="6.69631">
        <ele>303.5</ele>
        <time>2014-10-31T14:19:33.000Z</time>
      </trkpt>
      <trkpt lat="47.46532" lon="6.69634">
        <ele>303.3</ele>
        <time>2014-10-31T14:19:34.000Z</time>
      </trkpt>
      <trkpt lat="47.46534" lon="6.69637">
        <ele>303.1</ele>
        <time>2014-10-31T14:19:35.000Z</time>
      </trkpt>
      <trkpt lat="47.46536" lon="6.6964">
        <ele>303.5</ele>
        <time>2014-10-31T14:19:36.000Z</time>
      </trkpt>
      <trkpt lat="47.46538" lon="6.69643">
        <ele>303.3</ele>
        <time>2014-10-31T14:19:37.000Z</time>
      </trkpt>
      <trkpt lat="47.4654" lon="6.69647">
        <ele>303.4</ele>
        <time>2014-10-31T14:19:38.000Z</time>
      </trkpt>
      <trkpt lat="47.46542" lon="6.69651">
        <ele>303.9</ele>
        <time>2014-10-31T14:19:39.000Z</time>
      </trkpt>
      <trkpt lat="47.46544" lon="6.69656">
        <ele>303.8</ele>
        <time>2014-10-31T14:19:40.000Z</time>
      </trkpt>
      <trkpt lat="47.46547" lon="6.6966">
        <ele>304.2</ele>
        <time>2014-10-31T14:19:41.000Z</time>
      </trkpt>
      <trkpt lat="47.46549" lon="6.69664">
        <ele>304.6</ele>
        <time>2014-10-31T14:19:42.000Z</time>
      </trkpt>
      <trkpt lat="47.46552" lon="6.69669">
        <ele>304.4</ele>
        <time>2014-10-31T14:19:43.000Z</time>
      </trkpt>
      <trkpt lat="47.46554" lon="6.69674">
        <ele>304.6</ele>
        <time>2014-10-31T14:19:44.000Z</time>
      </trkpt>
      <trkpt lat="47.46556" lon="6.69678">
        <ele>304.3</ele>
        <time>2014-10-31T14:19:45.000Z</time>
      </trkpt>
      <trkpt lat="47.46559" lon="6.69683">
        <ele>304.5</ele>
        <time>2014-10-31T14:19:46.000Z</time>
      </trkpt>
      <trkpt lat="47.46561" lon="6.69687">
        <ele>304.6</ele>
        <time>2014-10-31T14:19:47.000Z</time>
      </trkpt>
      <trkpt lat="47.46564" lon="6.69691">
        <ele>304.6</ele>
        <time>2014-10-31T14:19:48.000Z</time>
      </trkpt>
      <trkpt lat="47.46567" lon="6.69695">
        <ele>304.5</ele>
        <time>2014-10-31T14:19:49.000Z</time>
      </trkpt>
      <trkpt lat="47.4657" lon="6.697">
        <ele>304.4</ele>
        <time>2014-10-31T14:19:50.000Z</time>
      </trkpt>
      <trkpt lat="47.46573" lon="6.69704">
        <ele>304.8</ele>
        <time>2014-10-31T14:19:51.000Z</time>
      </trkpt>
      <trkpt lat="47.46576" lon="6.69709">
        <ele>304.4</ele>
        <time>2014-10-31T14:19:52.000Z</time>
      </trkpt>
      <trkpt lat="47.46599" lon="6.6974">
        <ele>302.5</ele>
        <time>2014-10-31T14:20:00.000Z</time>
      </trkpt>
      <trkpt lat="47.46603" lon="6.69742">
        <ele>302.3</ele>
        <time>2014-10-31T14:20:01.000Z</time>
      </trkpt>
      <trkpt lat="47.46607" lon="6.69741">
        <ele>301.7</ele>
        <time>2014-10-31T14:20:02.000Z</time>
      </trkpt>
      <trkpt lat="47.46611" lon="6.69742">
        <ele>302.2</ele>
        <time>2014-10-31T14:20:03.000Z</time>
      </trkpt>
      <trkpt lat="47.46616" lon="6.69742">
        <ele>302.1</ele>
        <time>2014-10-31T14:20:04.000Z</time>
      </trkpt>
      <trkpt lat="47.4662" lon="6.69742">
        <ele>302</ele>
        <time>2014-10-31T14:20:05.000Z</time>
      </trkpt>
      <trkpt lat="47.46623" lon="6.69743">
        <ele>300.2</ele>
        <time>2014-10-31T14:20:06.000Z</time>
      </trkpt>
      <trkpt lat="47.46627" lon="6.69743">
        <ele>300.1</ele>
        <time>2014-10-31T14:20:07.000Z</time>
      </trkpt>
      <trkpt lat="47.4663" lon="6.69743">
        <ele>300.5</ele>
        <time>2014-10-31T14:20:08.000Z</time>
      </trkpt>
      <trkpt lat="47.46633" lon="6.69743">
        <ele>300.6</ele>
        <time>2014-10-31T14:20:09.000Z</time>
      </trkpt>
      <trkpt lat="47.46635" lon="6.69743">
        <ele>301.2</ele>
        <time>2014-10-31T14:20:10.000Z</time>
      </trkpt>
      <trkpt lat="47.46638" lon="6.69743">
        <ele>301.8</ele>
        <time>2014-10-31T14:20:11.000Z</time>
      </trkpt>
      <trkpt lat="47.46641" lon="6.69743">
        <ele>302.2</ele>
        <time>2014-10-31T14:20:12.000Z</time>
      </trkpt>
      <trkpt lat="47.46643" lon="6.69744">
        <ele>302.1</ele>
        <time>2014-10-31T14:20:13.000Z</time>
      </trkpt>
      <trkpt lat="47.46645" lon="6.69745">
        <ele>302.6</ele>
        <time>2014-10-31T14:20:14.000Z</time>
      </trkpt>
      <trkpt lat="47.46646" lon="6.6975">
        <ele>303</ele>
        <time>2014-10-31T14:20:17.000Z</time>
      </trkpt>
      <trkpt lat="47.46645" lon="6.69751">
        <ele>303.1</ele>
        <time>2014-10-31T14:20:18.000Z</time>
      </trkpt>
      <trkpt lat="47.46641" lon="6.69751">
        <ele>301.3</ele>
        <time>2014-10-31T14:20:32.000Z</time>
      </trkpt>
      <trkpt lat="47.4664" lon="6.69751">
        <ele>301.2</ele>
        <time>2014-10-31T14:20:33.000Z</time>
      </trkpt>
      <trkpt lat="47.46638" lon="6.69751">
        <ele>304.2</ele>
        <time>2014-10-31T14:20:43.000Z</time>
      </trkpt>
      <trkpt lat="47.46636" lon="6.69751">
        <ele>304.6</ele>
        <time>2014-10-31T14:20:44.000Z</time>
      </trkpt>
      <trkpt lat="47.46633" lon="6.69751">
        <ele>304.6</ele>
        <time>2014-10-31T14:20:45.000Z</time>
      </trkpt>
      <trkpt lat="47.4663" lon="6.69751">
        <ele>303.8</ele>
        <time>2014-10-31T14:20:46.000Z</time>
      </trkpt>
      <trkpt lat="47.46627" lon="6.6975">
        <ele>305.1</ele>
        <time>2014-10-31T14:20:47.000Z</time>
      </trkpt>
      <trkpt lat="47.46624" lon="6.6975">
        <ele>305.5</ele>
        <time>2014-10-31T14:20:48.000Z</time>
      </trkpt>
      <trkpt lat="47.46621" lon="6.6975">
        <ele>305.6</ele>
        <time>2014-10-31T14:20:49.000Z</time>
      </trkpt>
      <trkpt lat="47.46617" lon="6.6975">
        <ele>305.5</ele>
        <time>2014-10-31T14:20:50.000Z</time>
      </trkpt>
      <trkpt lat="47.46614" lon="6.6975">
        <ele>306.2</ele>
        <time>2014-10-31T14:20:51.000Z</time>
      </trkpt>
      <trkpt lat="47.4661" lon="6.69749">
        <ele>305.3</ele>
        <time>2014-10-31T14:20:52.000Z</time>
      </trkpt>
      <trkpt lat="47.46583" lon="6.69748">
        <ele>306.5</ele>
        <time>2014-10-31T14:21:00.000Z</time>
      </trkpt>
      <trkpt lat="47.4658" lon="6.69749">
        <ele>306.2</ele>
        <time>2014-10-31T14:21:01.000Z</time>
      </trkpt>
      <trkpt lat="47.46578" lon="6.69751">
        <ele>306.3</ele>
        <time>2014-10-31T14:21:02.000Z</time>
      </trkpt>
      <trkpt lat="47.46575" lon="6.69754">
        <ele>307.3</ele>
        <time>2014-10-31T14:21:03.000Z</time>
      </trkpt>
      <trkpt lat="47.46573" lon="6.69757">
        <ele>307.4</ele>
        <time>2014-10-31T14:21:04.000Z</time>
      </trkpt>
      <trkpt lat="47.4657" lon="6.6976">
        <ele>306.8</ele>
        <time>2014-10-31T14:21:05.000Z</time>
      </trkpt>
      <trkpt lat="47.46568" lon="6.69763">
        <ele>306.4</ele>
        <time>2014-10-31T14:21:06.000Z</time>
      </trkpt>
      <trkpt lat="47.46565" lon="6.69765">
        <ele>307.9</ele>
        <time>2014-10-31T14:21:07.000Z</time>
      </trkpt>
      <trkpt lat="47.46563" lon="6.69768">
        <ele>308.5</ele>
        <time>2014-10-31T14:21:08.000Z</time>
      </trkpt>
      <trkpt lat="47.4656" lon="6.6977">
        <ele>309.3</ele>
        <time>2014-10-31T14:21:09.000Z</time>
      </trkpt>
      <trkpt lat="47.46558" lon="6.69772">
        <ele>307.6</ele>
        <time>2014-10-31T14:21:10.000Z</time>
      </trkpt>
      <trkpt lat="47.46555" lon="6.69774">
        <ele>307.4</ele>
        <time>2014-10-31T14:21:11.000Z</time>
      </trkpt>
      <trkpt lat="47.46552" lon="6.69777">
        <ele>306.9</ele>
        <time>2014-10-31T14:21:12.000Z</time>
      </trkpt>
      <trkpt lat="47.4655" lon="6.6978">
        <ele>306</ele>
        <time>2014-10-31T14:21:13.000Z</time>
      </trkpt>
      <trkpt lat="47.46547" lon="6.69783">
        <ele>305.3</ele>
        <time>2014-10-31T14:21:14.000Z</time>
      </trkpt>
      <trkpt lat="47.46545" lon="6.69786">
        <ele>305.8</ele>
        <time>2014-10-31T14:21:15.000Z</time>
      </trkpt>
      <trkpt lat="47.46542" lon="6.69789">
        <ele>305.1</ele>
        <time>2014-10-31T14:21:16.000Z</time>
      </trkpt>
      <trkpt lat="47.46539" lon="6.69791">
        <ele>305.9</ele>
        <time>2014-10-31T14:21:17.000Z</time>
      </trkpt>
      <trkpt lat="47.46536" lon="6.69793">
        <ele>306.2</ele>
        <time>2014-10-31T14:21:18.000Z</time>
      </trkpt>
      <trkpt lat="47.46533" lon="6.69796">
        <ele>307</ele>
        <time>2014-10-31T14:21:19.000Z</time>
      </trkpt>
      <trkpt lat="47.4653" lon="6.69799">
        <ele>307.1</ele>
        <time>2014-10-31T14:21:20.000Z</time>
      </trkpt>
      <trkpt lat="47.46527" lon="6.69801">
        <ele>306.9</ele>
        <time>2014-10-31T14:21:21.000Z</time>
      </trkpt>
      <trkpt lat="47.46525" lon="6.69804">
        <ele>306.6</ele>
        <time>2014-10-31T14:21:22.000Z</time>
      </trkpt>
      <trkpt lat="47.46522" lon="6.69807">
        <ele>306.9</ele>
        <time>2014-10-31T14:21:23.000Z</time>
      </trkpt>
      <trkpt lat="47.46519" lon="6.6981">
        <ele>306.5</ele>
        <time>2014-10-31T14:21:24.000Z</time>
      </trkpt>
      <trkpt lat="47.46517" lon="6.69813">
        <ele>305.5</ele>
        <time>2014-10-31T14:21:25.000Z</time>
      </trkpt>
      <trkpt lat="47.46514" lon="6.69816">
        <ele>304.4</ele>
        <time>2014-10-31T14:21:26.000Z</time>
      </trkpt>
      <trkpt lat="47.46512" lon="6.69819">
        <ele>304.4</ele>
        <time>2014-10-31T14:21:27.000Z</time>
      </trkpt>
      <trkpt lat="47.46509" lon="6.69822">
        <ele>304.6</ele>
        <time>2014-10-31T14:21:28.000Z</time>
      </trkpt>
      <trkpt lat="47.46506" lon="6.69825">
        <ele>305</ele>
        <time>2014-10-31T14:21:29.000Z</time>
      </trkpt>
      <trkpt lat="47.46503" lon="6.69828">
        <ele>304.6</ele>
        <time>2014-10-31T14:21:30.000Z</time>
      </trkpt>
      <trkpt lat="47.46501" lon="6.69831">
        <ele>305.3</ele>
        <time>2014-10-31T14:21:31.000Z</time>
      </trkpt>
      <trkpt lat="47.46498" lon="6.69834">
        <ele>305.4</ele>
        <time>2014-10-31T14:21:32.000Z</time>
      </trkpt>
      <trkpt lat="47.46495" lon="6.69837">
        <ele>305.3</ele>
        <time>2014-10-31T14:21:33.000Z</time>
      </trkpt>
      <trkpt lat="47.46492" lon="6.6984">
        <ele>304.3</ele>
        <time>2014-10-31T14:21:34.000Z</time>
      </trkpt>
      <trkpt lat="47.46489" lon="6.69843">
        <ele>304.9</ele>
        <time>2014-10-31T14:21:35.000Z</time>
      </trkpt>
      <trkpt lat="47.46487" lon="6.69846">
        <ele>304</ele>
        <time>2014-10-31T14:21:36.000Z</time>
      </trkpt>
      <trkpt lat="47.46484" lon="6.69849">
        <ele>303.9</ele>
        <time>2014-10-31T14:21:37.000Z</time>
      </trkpt>
      <trkpt lat="47.46482" lon="6.69852">
        <ele>304</ele>
        <time>2014-10-31T14:21:38.000Z</time>
      </trkpt>
      <trkpt lat="47.46479" lon="6.69855">
        <ele>303.7</ele>
        <time>2014-10-31T14:21:39.000Z</time>
      </trkpt>
      <trkpt lat="47.46477" lon="6.69856">
        <ele>303.8</ele>
        <time>2014-10-31T14:21:40.000Z</time>
      </trkpt>
      <trkpt lat="47.46475" lon="6.69861">
        <ele>304.4</ele>
        <time>2014-10-31T14:21:52.000Z</time>
      </trkpt>
      <trkpt lat="47.46474" lon="6.69866">
        <ele>306.4</ele>
        <time>2014-10-31T14:22:00.000Z</time>
      </trkpt>
      <trkpt lat="47.4647" lon="6.69868">
        <ele>306.4</ele>
        <time>2014-10-31T14:22:03.000Z</time>
      </trkpt>
      <trkpt lat="47.46468" lon="6.6987">
        <ele>305.3</ele>
        <time>2014-10-31T14:22:04.000Z</time>
      </trkpt>
      <trkpt lat="47.46465" lon="6.69871">
        <ele>304.8</ele>
        <time>2014-10-31T14:22:05.000Z</time>
      </trkpt>
      <trkpt lat="47.46462" lon="6.69872">
        <ele>304.9</ele>
        <time>2014-10-31T14:22:06.000Z</time>
      </trkpt>
      <trkpt lat="47.46458" lon="6.69872">
        <ele>305.4</ele>
        <time>2014-10-31T14:22:07.000Z</time>
      </trkpt>
      <trkpt lat="47.46454" lon="6.69871">
        <ele>305.5</ele>
        <time>2014-10-31T14:22:08.000Z</time>
      </trkpt>
      <trkpt lat="47.46451" lon="6.6987">
        <ele>305</ele>
        <time>2014-10-31T14:22:09.000Z</time>
      </trkpt>
      <trkpt lat="47.46449" lon="6.69869">
        <ele>305.5</ele>
        <time>2014-10-31T14:22:10.000Z</time>
      </trkpt>
      <trkpt lat="47.46445" lon="6.69867">
        <ele>305.9</ele>
        <time>2014-10-31T14:22:12.000Z</time>
      </trkpt>
      <trkpt lat="47.46444" lon="6.69867">
        <ele>305.8</ele>
        <time>2014-10-31T14:22:13.000Z</time>
      </trkpt>
      <trkpt lat="47.4644" lon="6.69865">
        <ele>306.8</ele>
        <time>2014-10-31T14:22:16.000Z</time>
      </trkpt>
      <trkpt lat="47.46438" lon="6.69864">
        <ele>306.8</ele>
        <time>2014-10-31T14:22:17.000Z</time>
      </trkpt>
      <trkpt lat="47.46435" lon="6.69862">
        <ele>306.9</ele>
        <time>2014-10-31T14:22:18.000Z</time>
      </trkpt>
      <trkpt lat="47.46433" lon="6.6986">
        <ele>305.7</ele>
        <time>2014-10-31T14:22:19.000Z</time>
      </trkpt>
      <trkpt lat="47.4643" lon="6.69858">
        <ele>304.2</ele>
        <time>2014-10-31T14:22:20.000Z</time>
      </trkpt>
      <trkpt lat="47.46426" lon="6.69855">
        <ele>303.6</ele>
        <time>2014-10-31T14:22:21.000Z</time>
      </trkpt>
      <trkpt lat="47.46422" lon="6.69851">
        <ele>303.5</ele>
        <time>2014-10-31T14:22:22.000Z</time>
      </trkpt>
      <trkpt lat="47.46419" lon="6.69849">
        <ele>303.4</ele>
        <time>2014-10-31T14:22:23.000Z</time>
      </trkpt>
      <trkpt lat="47.46415" lon="6.69845">
        <ele>304.4</ele>
        <time>2014-10-31T14:22:24.000Z</time>
      </trkpt>
      <trkpt lat="47.4641" lon="6.6984">
        <ele>305</ele>
        <time>2014-10-31T14:22:25.000Z</time>
      </trkpt>
      <trkpt lat="47.46404" lon="6.69836">
        <ele>303</ele>
        <time>2014-10-31T14:22:26.000Z</time>
      </trkpt>
      <trkpt lat="47.46401" lon="6.69833">
        <ele>301.3</ele>
        <time>2014-10-31T14:22:27.000Z</time>
      </trkpt>
      <trkpt lat="47.46397" lon="6.6983">
        <ele>299.8</ele>
        <time>2014-10-31T14:22:28.000Z</time>
      </trkpt>
      <trkpt lat="47.46392" lon="6.69825">
        <ele>297.7</ele>
        <time>2014-10-31T14:22:29.000Z</time>
      </trkpt>
      <trkpt lat="47.46388" lon="6.69822">
        <ele>298</ele>
        <time>2014-10-31T14:22:30.000Z</time>
      </trkpt>
      <trkpt lat="47.46384" lon="6.69819">
        <ele>297.9</ele>
        <time>2014-10-31T14:22:31.000Z</time>
      </trkpt>
      <trkpt lat="47.46378" lon="6.69815">
        <ele>297.9</ele>
        <time>2014-10-31T14:22:32.000Z</time>
      </trkpt>
      <trkpt lat="47.46375" lon="6.69811">
        <ele>298.6</ele>
        <time>2014-10-31T14:22:33.000Z</time>
      </trkpt>
      <trkpt lat="47.4637" lon="6.69806">
        <ele>299.9</ele>
        <time>2014-10-31T14:22:34.000Z</time>
      </trkpt>
      <trkpt lat="47.46365" lon="6.69802">
        <ele>300.7</ele>
        <time>2014-10-31T14:22:35.000Z</time>
      </trkpt>
      <trkpt lat="47.46359" lon="6.69798">
        <ele>299.1</ele>
        <time>2014-10-31T14:22:36.000Z</time>
      </trkpt>
      <trkpt lat="47.46354" lon="6.69794">
        <ele>299.8</ele>
        <time>2014-10-31T14:22:37.000Z</time>
      </trkpt>
      <trkpt lat="47.46348" lon="6.6979">
        <ele>297.7</ele>
        <time>2014-10-31T14:22:38.000Z</time>
      </trkpt>
      <trkpt lat="47.46343" lon="6.69785">
        <ele>297.6</ele>
        <time>2014-10-31T14:22:39.000Z</time>
      </trkpt>
      <trkpt lat="47.46338" lon="6.69781">
        <ele>296.7</ele>
        <time>2014-10-31T14:22:40.000Z</time>
      </trkpt>
      <trkpt lat="47.46333" lon="6.69776">
        <ele>297.1</ele>
        <time>2014-10-31T14:22:41.000Z</time>
      </trkpt>
      <trkpt lat="47.46329" lon="6.6977">
        <ele>297.3</ele>
        <time>2014-10-31T14:22:42.000Z</time>
      </trkpt>
      <trkpt lat="47.46324" lon="6.69765">
        <ele>296.9</ele>
        <time>2014-10-31T14:22:43.000Z</time>
      </trkpt>
      <trkpt lat="47.46318" lon="6.69759">
        <ele>297</ele>
        <time>2014-10-31T14:22:44.000Z</time>
      </trkpt>
      <trkpt lat="47.46314" lon="6.69754">
        <ele>297.8</ele>
        <time>2014-10-31T14:22:45.000Z</time>
      </trkpt>
      <trkpt lat="47.4631" lon="6.69749">
        <ele>297.7</ele>
        <time>2014-10-31T14:22:46.000Z</time>
      </trkpt>
      <trkpt lat="47.46305" lon="6.69745">
        <ele>297.1</ele>
        <time>2014-10-31T14:22:47.000Z</time>
      </trkpt>
      <trkpt lat="47.46301" lon="6.6974">
        <ele>297.8</ele>
        <time>2014-10-31T14:22:48.000Z</time>
      </trkpt>
      <trkpt lat="47.46297" lon="6.69734">
        <ele>298.6</ele>
        <time>2014-10-31T14:22:49.000Z</time>
      </trkpt>
      <trkpt lat="47.46294" lon="6.69728">
        <ele>299</ele>
        <time>2014-10-31T14:22:50.000Z</time>
      </trkpt>
      <trkpt lat="47.4629" lon="6.69723">
        <ele>299</ele>
        <time>2014-10-31T14:22:51.000Z</time>
      </trkpt>
      <trkpt lat="47.46287" lon="6.69716">
        <ele>298.9</ele>
        <time>2014-10-31T14:22:52.000Z</time>
      </trkpt>
      <trkpt lat="47.4626" lon="6.6967">
        <ele>298.9</ele>
        <time>2014-10-31T14:23:00.000Z</time>
      </trkpt>
      <trkpt lat="47.46258" lon="6.69666">
        <ele>298.6</ele>
        <time>2014-10-31T14:23:01.000Z</time>
      </trkpt>
      <trkpt lat="47.46255" lon="6.69661">
        <ele>300.4</ele>
        <time>2014-10-31T14:23:02.000Z</time>
      </trkpt>
      <trkpt lat="47.46253" lon="6.69655">
        <ele>299.9</ele>
        <time>2014-10-31T14:23:03.000Z</time>
      </trkpt>
      <trkpt lat="47.4625" lon="6.6965">
        <ele>299.5</ele>
        <time>2014-10-31T14:23:04.000Z</time>
      </trkpt>
      <trkpt lat="47.46246" lon="6.69645">
        <ele>298.5</ele>
        <time>2014-10-31T14:23:05.000Z</time>
      </trkpt>
      <trkpt lat="47.46244" lon="6.69639">
        <ele>297.8</ele>
        <time>2014-10-31T14:23:06.000Z</time>
      </trkpt>
      <trkpt lat="47.4624" lon="6.69634">
        <ele>298</ele>
        <time>2014-10-31T14:23:07.000Z</time>
      </trkpt>
      <trkpt lat="47.46237" lon="6.69629">
        <ele>298.5</ele>
        <time>2014-10-31T14:23:08.000Z</time>
      </trkpt>
      <trkpt lat="47.46233" lon="6.69624">
        <ele>298.6</ele>
        <time>2014-10-31T14:23:09.000Z</time>
      </trkpt>
      <trkpt lat="47.4623" lon="6.69618">
        <ele>298.8</ele>
        <time>2014-10-31T14:23:10.000Z</time>
      </trkpt>
      <trkpt lat="47.46227" lon="6.69614">
        <ele>298.3</ele>
        <time>2014-10-31T14:23:11.000Z</time>
      </trkpt>
      <trkpt lat="47.46224" lon="6.69609">
        <ele>298.3</ele>
        <time>2014-10-31T14:23:12.000Z</time>
      </trkpt>
      <trkpt lat="47.46222" lon="6.69605">
        <ele>298.3</ele>
        <time>2014-10-31T14:23:13.000Z</time>
      </trkpt>
      <trkpt lat="47.46219" lon="6.69601">
        <ele>298.4</ele>
        <time>2014-10-31T14:23:14.000Z</time>
      </trkpt>
      <trkpt lat="47.46217" lon="6.69597">
        <ele>299</ele>
        <time>2014-10-31T14:23:15.000Z</time>
      </trkpt>
      <trkpt lat="47.46214" lon="6.69592">
        <ele>299.3</ele>
        <time>2014-10-31T14:23:16.000Z</time>
      </trkpt>
      <trkpt lat="47.46211" lon="6.69587">
        <ele>299.5</ele>
        <time>2014-10-31T14:23:17.000Z</time>
      </trkpt>
      <trkpt lat="47.46207" lon="6.69583">
        <ele>299.4</ele>
        <time>2014-10-31T14:23:18.000Z</time>
      </trkpt>
      <trkpt lat="47.46204" lon="6.69579">
        <ele>299.7</ele>
        <time>2014-10-31T14:23:19.000Z</time>
      </trkpt>
      <trkpt lat="47.46202" lon="6.69576">
        <ele>299.6</ele>
        <time>2014-10-31T14:23:20.000Z</time>
      </trkpt>
      <trkpt lat="47.46199" lon="6.69572">
        <ele>299.1</ele>
        <time>2014-10-31T14:23:21.000Z</time>
      </trkpt>
      <trkpt lat="47.46197" lon="6.69568">
        <ele>299.1</ele>
        <time>2014-10-31T14:23:22.000Z</time>
      </trkpt>
      <trkpt lat="47.46196" lon="6.69565">
        <ele>299.5</ele>
        <time>2014-10-31T14:23:23.000Z</time>
      </trkpt>
      <trkpt lat="47.46194" lon="6.6956">
        <ele>299.4</ele>
        <time>2014-10-31T14:23:24.000Z</time>
      </trkpt>
      <trkpt lat="47.46192" lon="6.69556">
        <ele>299.4</ele>
        <time>2014-10-31T14:23:25.000Z</time>
      </trkpt>
      <trkpt lat="47.4619" lon="6.69556">
        <ele>300.4</ele>
        <time>2014-10-31T14:23:26.000Z</time>
      </trkpt>
      <trkpt lat="47.46189" lon="6.69554">
        <ele>300.8</ele>
        <time>2014-10-31T14:23:27.000Z</time>
      </trkpt>
      <trkpt lat="47.46186" lon="6.69551">
        <ele>301.7</ele>
        <time>2014-10-31T14:23:28.000Z</time>
      </trkpt>
      <trkpt lat="47.46184" lon="6.69549">
        <ele>302.1</ele>
        <time>2014-10-31T14:23:29.000Z</time>
      </trkpt>
      <trkpt lat="47.46182" lon="6.69547">
        <ele>302.4</ele>
        <time>2014-10-31T14:23:30.000Z</time>
      </trkpt>
      <trkpt lat="47.46179" lon="6.69543">
        <ele>306.7</ele>
        <time>2014-10-31T14:23:44.000Z</time>
      </trkpt>
      <trkpt lat="47.46178" lon="6.69543">
        <ele>307.1</ele>
        <time>2014-10-31T14:23:45.000Z</time>
      </trkpt>
      <trkpt lat="47.46175" lon="6.69545">
        <ele>307.2</ele>
        <time>2014-10-31T14:23:47.000Z</time>
      </trkpt>
      <trkpt lat="47.46173" lon="6.69547">
        <ele>307.5</ele>
        <time>2014-10-31T14:23:48.000Z</time>
      </trkpt>
      <trkpt lat="47.46172" lon="6.69552">
        <ele>306.5</ele>
        <time>2014-10-31T14:23:49.000Z</time>
      </trkpt>
      <trkpt lat="47.46172" lon="6.69557">
        <ele>306.4</ele>
        <time>2014-10-31T14:23:50.000Z</time>
      </trkpt>
      <trkpt lat="47.46172" lon="6.69563">
        <ele>306.5</ele>
        <time>2014-10-31T14:23:51.000Z</time>
      </trkpt>
      <trkpt lat="47.46174" lon="6.69569">
        <ele>305.3</ele>
        <time>2014-10-31T14:23:52.000Z</time>
      </trkpt>
      <trkpt lat="47.46175" lon="6.69576">
        <ele>304.8</ele>
        <time>2014-10-31T14:23:53.000Z</time>
      </trkpt>
      <trkpt lat="47.4619" lon="6.69624">
        <ele>304.8</ele>
        <time>2014-10-31T14:24:01.000Z</time>
      </trkpt>
      <trkpt lat="47.4619" lon="6.69629">
        <ele>303.3</ele>
        <time>2014-10-31T14:24:03.000Z</time>
      </trkpt>
      <trkpt lat="47.46187" lon="6.6963">
        <ele>302.9</ele>
        <time>2014-10-31T14:24:04.000Z</time>
      </trkpt>
      <trkpt lat="47.46185" lon="6.69629">
        <ele>302</ele>
        <time>2014-10-31T14:24:05.000Z</time>
      </trkpt>
      <trkpt lat="47.46182" lon="6.69627">
        <ele>301.9</ele>
        <time>2014-10-31T14:24:06.000Z</time>
      </trkpt>
      <trkpt lat="47.4618" lon="6.69622">
        <ele>302.2</ele>
        <time>2014-10-31T14:24:07.000Z</time>
      </trkpt>
      <trkpt lat="47.46178" lon="6.69615">
        <ele>302.9</ele>
        <time>2014-10-31T14:24:08.000Z</time>
      </trkpt>
      <trkpt lat="47.46176" lon="6.69609">
        <ele>303.5</ele>
        <time>2014-10-31T14:24:09.000Z</time>
      </trkpt>
      <trkpt lat="47.46173" lon="6.69602">
        <ele>301.8</ele>
        <time>2014-10-31T14:24:10.000Z</time>
      </trkpt>
      <trkpt lat="47.46169" lon="6.69595">
        <ele>301</ele>
        <time>2014-10-31T14:24:11.000Z</time>
      </trkpt>
      <trkpt lat="47.46165" lon="6.69586">
        <ele>300.4</ele>
        <time>2014-10-31T14:24:12.000Z</time>
      </trkpt>
      <trkpt lat="47.46161" lon="6.69578">
        <ele>299.9</ele>
        <time>2014-10-31T14:24:13.000Z</time>
      </trkpt>
      <trkpt lat="47.46157" lon="6.6957">
        <ele>299.4</ele>
        <time>2014-10-31T14:24:14.000Z</time>
      </trkpt>
      <trkpt lat="47.46152" lon="6.69563">
        <ele>299.7</ele>
        <time>2014-10-31T14:24:15.000Z</time>
      </trkpt>
      <trkpt lat="47.46147" lon="6.69556">
        <ele>298.8</ele>
        <time>2014-10-31T14:24:16.000Z</time>
      </trkpt>
      <trkpt lat="47.46143" lon="6.6955">
        <ele>298.1</ele>
        <time>2014-10-31T14:24:17.000Z</time>
      </trkpt>
      <trkpt lat="47.46139" lon="6.69544">
        <ele>297.7</ele>
        <time>2014-10-31T14:24:18.000Z</time>
      </trkpt>
      <trkpt lat="47.46134" lon="6.69539">
        <ele>296.5</ele>
        <time>2014-10-31T14:24:19.000Z</time>
      </trkpt>
      <trkpt lat="47.4613" lon="6.69533">
        <ele>297.3</ele>
        <time>2014-10-31T14:24:20.000Z</time>
      </trkpt>
      <trkpt lat="47.46126" lon="6.69527">
        <ele>297.7</ele>
        <time>2014-10-31T14:24:21.000Z</time>
      </trkpt>
      <trkpt lat="47.46122" lon="6.69521">
        <ele>297.9</ele>
        <time>2014-10-31T14:24:22.000Z</time>
      </trkpt>
      <trkpt lat="47.46117" lon="6.69516">
        <ele>297.6</ele>
        <time>2014-10-31T14:24:23.000Z</time>
      </trkpt>
      <trkpt lat="47.46112" lon="6.69511">
        <ele>297</ele>
        <time>2014-10-31T14:24:24.000Z</time>
      </trkpt>
      <trkpt lat="47.46106" lon="6.69507">
        <ele>296.9</ele>
        <time>2014-10-31T14:24:25.000Z</time>
      </trkpt>
      <trkpt lat="47.46101" lon="6.69501">
        <ele>296.6</ele>
        <time>2014-10-31T14:24:26.000Z</time>
      </trkpt>
      <trkpt lat="47.46097" lon="6.69497">
        <ele>297.3</ele>
        <time>2014-10-31T14:24:27.000Z</time>
      </trkpt>
      <trkpt lat="47.46092" lon="6.69491">
        <ele>298.3</ele>
        <time>2014-10-31T14:24:28.000Z</time>
      </trkpt>
      <trkpt lat="47.46087" lon="6.69487">
        <ele>299</ele>
        <time>2014-10-31T14:24:29.000Z</time>
      </trkpt>
      <trkpt lat="47.46081" lon="6.69482">
        <ele>298.7</ele>
        <time>2014-10-31T14:24:30.000Z</time>
      </trkpt>
      <trkpt lat="47.46077" lon="6.69478">
        <ele>297.7</ele>
        <time>2014-10-31T14:24:31.000Z</time>
      </trkpt>
      <trkpt lat="47.46072" lon="6.69473">
        <ele>298</ele>
        <time>2014-10-31T14:24:32.000Z</time>
      </trkpt>
      <trkpt lat="47.46068" lon="6.69468">
        <ele>298.2</ele>
        <time>2014-10-31T14:24:33.000Z</time>
      </trkpt>
      <trkpt lat="47.46063" lon="6.69463">
        <ele>297.6</ele>
        <time>2014-10-31T14:24:34.000Z</time>
      </trkpt>
      <trkpt lat="47.46059" lon="6.69459">
        <ele>298</ele>
        <time>2014-10-31T14:24:35.000Z</time>
      </trkpt>
      <trkpt lat="47.46054" lon="6.69454">
        <ele>298.2</ele>
        <time>2014-10-31T14:24:36.000Z</time>
      </trkpt>
      <trkpt lat="47.4605" lon="6.69448">
        <ele>298.7</ele>
        <time>2014-10-31T14:24:37.000Z</time>
      </trkpt>
      <trkpt lat="47.46045" lon="6.69443">
        <ele>298.5</ele>
        <time>2014-10-31T14:24:38.000Z</time>
      </trkpt>
      <trkpt lat="47.46041" lon="6.69438">
        <ele>299.4</ele>
        <time>2014-10-31T14:24:39.000Z</time>
      </trkpt>
      <trkpt lat="47.46037" lon="6.69433">
        <ele>300.2</ele>
        <time>2014-10-31T14:24:40.000Z</time>
      </trkpt>
      <trkpt lat="47.46033" lon="6.69427">
        <ele>300.3</ele>
        <time>2014-10-31T14:24:41.000Z</time>
      </trkpt>
      <trkpt lat="47.46029" lon="6.69423">
        <ele>299.9</ele>
        <time>2014-10-31T14:24:42.000Z</time>
      </trkpt>
      <trkpt lat="47.46025" lon="6.69418">
        <ele>300</ele>
        <time>2014-10-31T14:24:43.000Z</time>
      </trkpt>
      <trkpt lat="47.46021" lon="6.69414">
        <ele>300</ele>
        <time>2014-10-31T14:24:44.000Z</time>
      </trkpt>
      <trkpt lat="47.46016" lon="6.69409">
        <ele>298.9</ele>
        <time>2014-10-31T14:24:45.000Z</time>
      </trkpt>
      <trkpt lat="47.46012" lon="6.69403">
        <ele>298.8</ele>
        <time>2014-10-31T14:24:46.000Z</time>
      </trkpt>
      <trkpt lat="47.46008" lon="6.69399">
        <ele>299.3</ele>
        <time>2014-10-31T14:24:47.000Z</time>
      </trkpt>
      <trkpt lat="47.46004" lon="6.69394">
        <ele>300.1</ele>
        <time>2014-10-31T14:24:48.000Z</time>
      </trkpt>
      <trkpt lat="47.45999" lon="6.69389">
        <ele>300.5</ele>
        <time>2014-10-31T14:24:49.000Z</time>
      </trkpt>
      <trkpt lat="47.45995" lon="6.69384">
        <ele>300.9</ele>
        <time>2014-10-31T14:24:50.000Z</time>
      </trkpt>
      <trkpt lat="47.45991" lon="6.69379">
        <ele>300.8</ele>
        <time>2014-10-31T14:24:51.000Z</time>
      </trkpt>
      <trkpt lat="47.45986" lon="6.69375">
        <ele>300.7</ele>
        <time>2014-10-31T14:24:52.000Z</time>
      </trkpt>
      <trkpt lat="47.45954" lon="6.69339">
        <ele>300.4</ele>
        <time>2014-10-31T14:25:00.000Z</time>
      </trkpt>
      <trkpt lat="47.4595" lon="6.69335">
        <ele>300.1</ele>
        <time>2014-10-31T14:25:01.000Z</time>
      </trkpt>
      <trkpt lat="47.45947" lon="6.69331">
        <ele>299.9</ele>
        <time>2014-10-31T14:25:02.000Z</time>
      </trkpt>
      <trkpt lat="47.45943" lon="6.69327">
        <ele>300.5</ele>
        <time>2014-10-31T14:25:03.000Z</time>
      </trkpt>
      <trkpt lat="47.45939" lon="6.69322">
        <ele>300.7</ele>
        <time>2014-10-31T14:25:04.000Z</time>
      </trkpt>
      <trkpt lat="47.45935" lon="6.69317">
        <ele>301.3</ele>
        <time>2014-10-31T14:25:05.000Z</time>
      </trkpt>
      <trkpt lat="47.45931" lon="6.69314">
        <ele>301.2</ele>
        <time>2014-10-31T14:25:06.000Z</time>
      </trkpt>
      <trkpt lat="47.45927" lon="6.69309">
        <ele>301.2</ele>
        <time>2014-10-31T14:25:07.000Z</time>
      </trkpt>
      <trkpt lat="47.45923" lon="6.69304">
        <ele>301.3</ele>
        <time>2014-10-31T14:25:08.000Z</time>
      </trkpt>
      <trkpt lat="47.45919" lon="6.69299">
        <ele>300.8</ele>
        <time>2014-10-31T14:25:09.000Z</time>
      </trkpt>
      <trkpt lat="47.45916" lon="6.69296">
        <ele>300.7</ele>
        <time>2014-10-31T14:25:10.000Z</time>
      </trkpt>
      <trkpt lat="47.45913" lon="6.69291">
        <ele>299.9</ele>
        <time>2014-10-31T14:25:11.000Z</time>
      </trkpt>
      <trkpt lat="47.45908" lon="6.69286">
        <ele>299.7</ele>
        <time>2014-10-31T14:25:12.000Z</time>
      </trkpt>
      <trkpt lat="47.45904" lon="6.69282">
        <ele>299.6</ele>
        <time>2014-10-31T14:25:13.000Z</time>
      </trkpt>
      <trkpt lat="47.459" lon="6.69278">
        <ele>299.4</ele>
        <time>2014-10-31T14:25:14.000Z</time>
      </trkpt>
      <trkpt lat="47.45896" lon="6.69272">
        <ele>298.9</ele>
        <time>2014-10-31T14:25:15.000Z</time>
      </trkpt>
      <trkpt lat="47.45892" lon="6.69267">
        <ele>299.4</ele>
        <time>2014-10-31T14:25:16.000Z</time>
      </trkpt>
      <trkpt lat="47.45888" lon="6.69262">
        <ele>299.2</ele>
        <time>2014-10-31T14:25:17.000Z</time>
      </trkpt>
      <trkpt lat="47.45884" lon="6.69259">
        <ele>299.2</ele>
        <time>2014-10-31T14:25:18.000Z</time>
      </trkpt>
      <trkpt lat="47.45879" lon="6.69255">
        <ele>299.5</ele>
        <time>2014-10-31T14:25:19.000Z</time>
      </trkpt>
      <trkpt lat="47.45875" lon="6.69249">
        <ele>299.3</ele>
        <time>2014-10-31T14:25:20.000Z</time>
      </trkpt>
      <trkpt lat="47.4587" lon="6.69245">
        <ele>299.1</ele>
        <time>2014-10-31T14:25:21.000Z</time>
      </trkpt>
      <trkpt lat="47.45867" lon="6.69241">
        <ele>298.9</ele>
        <time>2014-10-31T14:25:22.000Z</time>
      </trkpt>
      <trkpt lat="47.45862" lon="6.69236">
        <ele>297.5</ele>
        <time>2014-10-31T14:25:23.000Z</time>
      </trkpt>
      <trkpt lat="47.45858" lon="6.69231">
        <ele>298</ele>
        <time>2014-10-31T14:25:24.000Z</time>
      </trkpt>
      <trkpt lat="47.45854" lon="6.69226">
        <ele>299.1</ele>
        <time>2014-10-31T14:25:25.000Z</time>
      </trkpt>
      <trkpt lat="47.45851" lon="6.69223">
        <ele>299.6</ele>
        <time>2014-10-31T14:25:26.000Z</time>
      </trkpt>
      <trkpt lat="47.45847" lon="6.69218">
        <ele>300.2</ele>
        <time>2014-10-31T14:25:27.000Z</time>
      </trkpt>
      <trkpt lat="47.45844" lon="6.69214">
        <ele>300.3</ele>
        <time>2014-10-31T14:25:28.000Z</time>
      </trkpt>
      <trkpt lat="47.4584" lon="6.69211">
        <ele>299.5</ele>
        <time>2014-10-31T14:25:29.000Z</time>
      </trkpt>
      <trkpt lat="47.45835" lon="6.69206">
        <ele>300</ele>
        <time>2014-10-31T14:25:30.000Z</time>
      </trkpt>
      <trkpt lat="47.4583" lon="6.69202">
        <ele>299.4</ele>
        <time>2014-10-31T14:25:31.000Z</time>
      </trkpt>
      <trkpt lat="47.45827" lon="6.69196">
        <ele>300.1</ele>
        <time>2014-10-31T14:25:32.000Z</time>
      </trkpt>
      <trkpt lat="47.45822" lon="6.69192">
        <ele>300.4</ele>
        <time>2014-10-31T14:25:33.000Z</time>
      </trkpt>
      <trkpt lat="47.45818" lon="6.69187">
        <ele>300.4</ele>
        <time>2014-10-31T14:25:34.000Z</time>
      </trkpt>
      <trkpt lat="47.45814" lon="6.69183">
        <ele>300.6</ele>
        <time>2014-10-31T14:25:35.000Z</time>
      </trkpt>
      <trkpt lat="47.45809" lon="6.69179">
        <ele>300.9</ele>
        <time>2014-10-31T14:25:36.000Z</time>
      </trkpt>
      <trkpt lat="47.45806" lon="6.69174">
        <ele>300.3</ele>
        <time>2014-10-31T14:25:37.000Z</time>
      </trkpt>
      <trkpt lat="47.45802" lon="6.6917">
        <ele>300</ele>
        <time>2014-10-31T14:25:38.000Z</time>
      </trkpt>
      <trkpt lat="47.45797" lon="6.69165">
        <ele>299.6</ele>
        <time>2014-10-31T14:25:39.000Z</time>
      </trkpt>
      <trkpt lat="47.45793" lon="6.69162">
        <ele>299.3</ele>
        <time>2014-10-31T14:25:40.000Z</time>
      </trkpt>
      <trkpt lat="47.45789" lon="6.69158">
        <ele>299.1</ele>
        <time>2014-10-31T14:25:41.000Z</time>
      </trkpt>
      <trkpt lat="47.45785" lon="6.69153">
        <ele>301.7</ele>
        <time>2014-10-31T14:25:42.000Z</time>
      </trkpt>
      <trkpt lat="47.4578" lon="6.69149">
        <ele>303</ele>
        <time>2014-10-31T14:25:43.000Z</time>
      </trkpt>
      <trkpt lat="47.45776" lon="6.69144">
        <ele>303.1</ele>
        <time>2014-10-31T14:25:44.000Z</time>
      </trkpt>
      <trkpt lat="47.45772" lon="6.69139">
        <ele>302.8</ele>
        <time>2014-10-31T14:25:45.000Z</time>
      </trkpt>
      <trkpt lat="47.45768" lon="6.69134">
        <ele>303.3</ele>
        <time>2014-10-31T14:25:46.000Z</time>
      </trkpt>
      <trkpt lat="47.45764" lon="6.6913">
        <ele>303.3</ele>
        <time>2014-10-31T14:25:47.000Z</time>
      </trkpt>
      <trkpt lat="47.4576" lon="6.69125">
        <ele>302.3</ele>
        <time>2014-10-31T14:25:48.000Z</time>
      </trkpt>
      <trkpt lat="47.45757" lon="6.69121">
        <ele>302.4</ele>
        <time>2014-10-31T14:25:49.000Z</time>
      </trkpt>
      <trkpt lat="47.45752" lon="6.69117">
        <ele>302.5</ele>
        <time>2014-10-31T14:25:50.000Z</time>
      </trkpt>
      <trkpt lat="47.45747" lon="6.69113">
        <ele>302.3</ele>
        <time>2014-10-31T14:25:51.000Z</time>
      </trkpt>
      <trkpt lat="47.45744" lon="6.69107">
        <ele>301.8</ele>
        <time>2014-10-31T14:25:52.000Z</time>
      </trkpt>
      <trkpt lat="47.4574" lon="6.69103">
        <ele>301.2</ele>
        <time>2014-10-31T14:25:53.000Z</time>
      </trkpt>
      <trkpt lat="47.45708" lon="6.69069">
        <ele>303</ele>
        <time>2014-10-31T14:26:01.000Z</time>
      </trkpt>
      <trkpt lat="47.45704" lon="6.69064">
        <ele>303</ele>
        <time>2014-10-31T14:26:02.000Z</time>
      </trkpt>
      <trkpt lat="47.45701" lon="6.69061">
        <ele>303.9</ele>
        <time>2014-10-31T14:26:03.000Z</time>
      </trkpt>
      <trkpt lat="47.45696" lon="6.69056">
        <ele>303.3</ele>
        <time>2014-10-31T14:26:04.000Z</time>
      </trkpt>
      <trkpt lat="47.45692" lon="6.6905">
        <ele>304.6</ele>
        <time>2014-10-31T14:26:05.000Z</time>
      </trkpt>
      <trkpt lat="47.45688" lon="6.69046">
        <ele>304.7</ele>
        <time>2014-10-31T14:26:06.000Z</time>
      </trkpt>
      <trkpt lat="47.45684" lon="6.69041">
        <ele>304.8</ele>
        <time>2014-10-31T14:26:07.000Z</time>
      </trkpt>
      <trkpt lat="47.45679" lon="6.69036">
        <ele>304.8</ele>
        <time>2014-10-31T14:26:08.000Z</time>
      </trkpt>
      <trkpt lat="47.45675" lon="6.69033">
        <ele>303.1</ele>
        <time>2014-10-31T14:26:09.000Z</time>
      </trkpt>
      <trkpt lat="47.45671" lon="6.69029">
        <ele>302.8</ele>
        <time>2014-10-31T14:26:10.000Z</time>
      </trkpt>
      <trkpt lat="47.45667" lon="6.69024">
        <ele>303.1</ele>
        <time>2014-10-31T14:26:11.000Z</time>
      </trkpt>
      <trkpt lat="47.45663" lon="6.6902">
        <ele>303.3</ele>
        <time>2014-10-31T14:26:12.000Z</time>
      </trkpt>
      <trkpt lat="47.45659" lon="6.69015">
        <ele>303.5</ele>
        <time>2014-10-31T14:26:13.000Z</time>
      </trkpt>
      <trkpt lat="47.45654" lon="6.6901">
        <ele>304.4</ele>
        <time>2014-10-31T14:26:14.000Z</time>
      </trkpt>
      <trkpt lat="47.4565" lon="6.69006">
        <ele>304.7</ele>
        <time>2014-10-31T14:26:15.000Z</time>
      </trkpt>
      <trkpt lat="47.45646" lon="6.69001">
        <ele>304.9</ele>
        <time>2014-10-31T14:26:16.000Z</time>
      </trkpt>
      <trkpt lat="47.45642" lon="6.68996">
        <ele>305</ele>
        <time>2014-10-31T14:26:17.000Z</time>
      </trkpt>
      <trkpt lat="47.45638" lon="6.68992">
        <ele>304.8</ele>
        <time>2014-10-31T14:26:18.000Z</time>
      </trkpt>
      <trkpt lat="47.45635" lon="6.68989">
        <ele>304.4</ele>
        <time>2014-10-31T14:26:19.000Z</time>
      </trkpt>
      <trkpt lat="47.45632" lon="6.68985">
        <ele>303.1</ele>
        <time>2014-10-31T14:26:20.000Z</time>
      </trkpt>
      <trkpt lat="47.45628" lon="6.6898">
        <ele>302.2</ele>
        <time>2014-10-31T14:26:21.000Z</time>
      </trkpt>
      <trkpt lat="47.45625" lon="6.68975">
        <ele>302.5</ele>
        <time>2014-10-31T14:26:22.000Z</time>
      </trkpt>
      <trkpt lat="47.45621" lon="6.68971">
        <ele>302</ele>
        <time>2014-10-31T14:26:23.000Z</time>
      </trkpt>
      <trkpt lat="47.45616" lon="6.68966">
        <ele>302.1</ele>
        <time>2014-10-31T14:26:24.000Z</time>
      </trkpt>
      <trkpt lat="47.45613" lon="6.68962">
        <ele>302.4</ele>
        <time>2014-10-31T14:26:25.000Z</time>
      </trkpt>
      <trkpt lat="47.4561" lon="6.68958">
        <ele>302.4</ele>
        <time>2014-10-31T14:26:26.000Z</time>
      </trkpt>
      <trkpt lat="47.45606" lon="6.68954">
        <ele>302.6</ele>
        <time>2014-10-31T14:26:27.000Z</time>
      </trkpt>
      <trkpt lat="47.45603" lon="6.68949">
        <ele>302.1</ele>
        <time>2014-10-31T14:26:28.000Z</time>
      </trkpt>
      <trkpt lat="47.45599" lon="6.68946">
        <ele>301.5</ele>
        <time>2014-10-31T14:26:29.000Z</time>
      </trkpt>
      <trkpt lat="47.45595" lon="6.68941">
        <ele>301.3</ele>
        <time>2014-10-31T14:26:30.000Z</time>
      </trkpt>
      <trkpt lat="47.4559" lon="6.68936">
        <ele>300.2</ele>
        <time>2014-10-31T14:26:31.000Z</time>
      </trkpt>
      <trkpt lat="47.45587" lon="6.68932">
        <ele>300.8</ele>
        <time>2014-10-31T14:26:32.000Z</time>
      </trkpt>
      <trkpt lat="47.45583" lon="6.68928">
        <ele>300.8</ele>
        <time>2014-10-31T14:26:33.000Z</time>
      </trkpt>
      <trkpt lat="47.4558" lon="6.68925">
        <ele>300.9</ele>
        <time>2014-10-31T14:26:34.000Z</time>
      </trkpt>
      <trkpt lat="47.45576" lon="6.68921">
        <ele>301</ele>
        <time>2014-10-31T14:26:35.000Z</time>
      </trkpt>
      <trkpt lat="47.45572" lon="6.68917">
        <ele>300.9</ele>
        <time>2014-10-31T14:26:36.000Z</time>
      </trkpt>
      <trkpt lat="47.45569" lon="6.68915">
        <ele>301</ele>
        <time>2014-10-31T14:26:37.000Z</time>
      </trkpt>
      <trkpt lat="47.45566" lon="6.68911">
        <ele>300.5</ele>
        <time>2014-10-31T14:26:38.000Z</time>
      </trkpt>
      <trkpt lat="47.45563" lon="6.68908">
        <ele>299.5</ele>
        <time>2014-10-31T14:26:39.000Z</time>
      </trkpt>
      <trkpt lat="47.45559" lon="6.68904">
        <ele>300.7</ele>
        <time>2014-10-31T14:26:40.000Z</time>
      </trkpt>
      <trkpt lat="47.45557" lon="6.689">
        <ele>300.7</ele>
        <time>2014-10-31T14:26:41.000Z</time>
      </trkpt>
      <trkpt lat="47.45553" lon="6.68897">
        <ele>301.2</ele>
        <time>2014-10-31T14:26:42.000Z</time>
      </trkpt>
      <trkpt lat="47.45551" lon="6.68892">
        <ele>301.8</ele>
        <time>2014-10-31T14:26:43.000Z</time>
      </trkpt>
      <trkpt lat="47.45547" lon="6.68888">
        <ele>302.2</ele>
        <time>2014-10-31T14:26:44.000Z</time>
      </trkpt>
      <trkpt lat="47.45544" lon="6.68884">
        <ele>301.6</ele>
        <time>2014-10-31T14:26:45.000Z</time>
      </trkpt>
      <trkpt lat="47.4554" lon="6.68879">
        <ele>301.2</ele>
        <time>2014-10-31T14:26:46.000Z</time>
      </trkpt>
      <trkpt lat="47.45537" lon="6.68876">
        <ele>301.3</ele>
        <time>2014-10-31T14:26:47.000Z</time>
      </trkpt>
      <trkpt lat="47.45533" lon="6.68872">
        <ele>302.8</ele>
        <time>2014-10-31T14:26:48.000Z</time>
      </trkpt>
      <trkpt lat="47.45531" lon="6.68871">
        <ele>303.5</ele>
        <time>2014-10-31T14:26:49.000Z</time>
      </trkpt>
      <trkpt lat="47.45528" lon="6.68867">
        <ele>303.8</ele>
        <time>2014-10-31T14:26:50.000Z</time>
      </trkpt>
      <trkpt lat="47.45526" lon="6.68864">
        <ele>302.8</ele>
        <time>2014-10-31T14:26:51.000Z</time>
      </trkpt>
      <trkpt lat="47.45523" lon="6.68863">
        <ele>302.8</ele>
        <time>2014-10-31T14:26:52.000Z</time>
      </trkpt>
      <trkpt lat="47.4552" lon="6.68863">
        <ele>302.5</ele>
        <time>2014-10-31T14:26:53.000Z</time>
      </trkpt>
      <trkpt lat="47.45488" lon="6.68894">
        <ele>299.8</ele>
        <time>2014-10-31T14:27:01.000Z</time>
      </trkpt>
      <trkpt lat="47.4548" lon="6.68896">
        <ele>298.2</ele>
        <time>2014-10-31T14:27:02.000Z</time>
      </trkpt>
      <trkpt lat="47.45473" lon="6.68898">
        <ele>297.3</ele>
        <time>2014-10-31T14:27:03.000Z</time>
      </trkpt>
      <trkpt lat="47.45468" lon="6.68903">
        <ele>296.8</ele>
        <time>2014-10-31T14:27:04.000Z</time>
      </trkpt>
      <trkpt lat="47.45462" lon="6.68905">
        <ele>297.1</ele>
        <time>2014-10-31T14:27:05.000Z</time>
      </trkpt>
      <trkpt lat="47.45456" lon="6.68911">
        <ele>297.4</ele>
        <time>2014-10-31T14:27:06.000Z</time>
      </trkpt>
      <trkpt lat="47.4545" lon="6.68917">
        <ele>296.5</ele>
        <time>2014-10-31T14:27:07.000Z</time>
      </trkpt>
      <trkpt lat="47.45445" lon="6.68921">
        <ele>296.4</ele>
        <time>2014-10-31T14:27:08.000Z</time>
      </trkpt>
      <trkpt lat="47.4544" lon="6.68925">
        <ele>295.5</ele>
        <time>2014-10-31T14:27:09.000Z</time>
      </trkpt>
      <trkpt lat="47.45435" lon="6.68929">
        <ele>294.7</ele>
        <time>2014-10-31T14:27:10.000Z</time>
      </trkpt>
      <trkpt lat="47.45431" lon="6.68934">
        <ele>294.8</ele>
        <time>2014-10-31T14:27:11.000Z</time>
      </trkpt>
      <trkpt lat="47.45426" lon="6.68938">
        <ele>294.6</ele>
        <time>2014-10-31T14:27:12.000Z</time>
      </trkpt>
      <trkpt lat="47.45422" lon="6.68941">
        <ele>294.9</ele>
        <time>2014-10-31T14:27:13.000Z</time>
      </trkpt>
      <trkpt lat="47.45419" lon="6.68944">
        <ele>295.4</ele>
        <time>2014-10-31T14:27:14.000Z</time>
      </trkpt>
      <trkpt lat="47.45415" lon="6.68945">
        <ele>293.6</ele>
        <time>2014-10-31T14:27:15.000Z</time>
      </trkpt>
      <trkpt lat="47.45411" lon="6.68945">
        <ele>295.5</ele>
        <time>2014-10-31T14:27:16.000Z</time>
      </trkpt>
      <trkpt lat="47.45408" lon="6.68946">
        <ele>296.1</ele>
        <time>2014-10-31T14:27:17.000Z</time>
      </trkpt>
      <trkpt lat="47.45406" lon="6.68949">
        <ele>296.8</ele>
        <time>2014-10-31T14:27:18.000Z</time>
      </trkpt>
      <trkpt lat="47.45404" lon="6.68954">
        <ele>297.3</ele>
        <time>2014-10-31T14:27:19.000Z</time>
      </trkpt>
      <trkpt lat="47.45401" lon="6.68957">
        <ele>299.5</ele>
        <time>2014-10-31T14:27:20.000Z</time>
      </trkpt>
      <trkpt lat="47.45397" lon="6.68961">
        <ele>300.4</ele>
        <time>2014-10-31T14:27:21.000Z</time>
      </trkpt>
      <trkpt lat="47.45393" lon="6.68965">
        <ele>301.7</ele>
        <time>2014-10-31T14:27:22.000Z</time>
      </trkpt>
      <trkpt lat="47.45389" lon="6.68969">
        <ele>301.8</ele>
        <time>2014-10-31T14:27:23.000Z</time>
      </trkpt>
      <trkpt lat="47.45384" lon="6.68973">
        <ele>301.8</ele>
        <time>2014-10-31T14:27:24.000Z</time>
      </trkpt>
      <trkpt lat="47.4538" lon="6.68977">
        <ele>299.9</ele>
        <time>2014-10-31T14:27:25.000Z</time>
      </trkpt>
      <trkpt lat="47.45375" lon="6.68981">
        <ele>299.8</ele>
        <time>2014-10-31T14:27:26.000Z</time>
      </trkpt>
      <trkpt lat="47.45371" lon="6.68985">
        <ele>299.9</ele>
        <time>2014-10-31T14:27:27.000Z</time>
      </trkpt>
      <trkpt lat="47.45367" lon="6.68988">
        <ele>300</ele>
        <time>2014-10-31T14:27:28.000Z</time>
      </trkpt>
      <trkpt lat="47.45363" lon="6.68992">
        <ele>300.3</ele>
        <time>2014-10-31T14:27:29.000Z</time>
      </trkpt>
      <trkpt lat="47.45357" lon="6.68995">
        <ele>299.8</ele>
        <time>2014-10-31T14:27:30.000Z</time>
      </trkpt>
      <trkpt lat="47.45353" lon="6.68999">
        <ele>299.9</ele>
        <time>2014-10-31T14:27:31.000Z</time>
      </trkpt>
      <trkpt lat="47.45349" lon="6.69002">
        <ele>301.1</ele>
        <time>2014-10-31T14:27:32.000Z</time>
      </trkpt>
      <trkpt lat="47.45344" lon="6.69005">
        <ele>301.9</ele>
        <time>2014-10-31T14:27:33.000Z</time>
      </trkpt>
      <trkpt lat="47.4534" lon="6.69007">
        <ele>302.4</ele>
        <time>2014-10-31T14:27:34.000Z</time>
      </trkpt>
      <trkpt lat="47.45335" lon="6.69009">
        <ele>302</ele>
        <time>2014-10-31T14:27:35.000Z</time>
      </trkpt>
      <trkpt lat="47.4533" lon="6.69011">
        <ele>304.3</ele>
        <time>2014-10-31T14:27:36.000Z</time>
      </trkpt>
      <trkpt lat="47.45326" lon="6.69013">
        <ele>305.3</ele>
        <time>2014-10-31T14:27:37.000Z</time>
      </trkpt>
      <trkpt lat="47.45321" lon="6.69016">
        <ele>305.1</ele>
        <time>2014-10-31T14:27:38.000Z</time>
      </trkpt>
      <trkpt lat="47.45317" lon="6.69018">
        <ele>304.7</ele>
        <time>2014-10-31T14:27:39.000Z</time>
      </trkpt>
      <trkpt lat="47.45313" lon="6.6902">
        <ele>304.7</ele>
        <time>2014-10-31T14:27:40.000Z</time>
      </trkpt>
      <trkpt lat="47.4531" lon="6.69023">
        <ele>303.5</ele>
        <time>2014-10-31T14:27:41.000Z</time>
      </trkpt>
      <trkpt lat="47.45305" lon="6.69025">
        <ele>304</ele>
        <time>2014-10-31T14:27:42.000Z</time>
      </trkpt>
      <trkpt lat="47.45301" lon="6.69028">
        <ele>304.9</ele>
        <time>2014-10-31T14:27:43.000Z</time>
      </trkpt>
      <trkpt lat="47.45296" lon="6.69028">
        <ele>305.9</ele>
        <time>2014-10-31T14:27:44.000Z</time>
      </trkpt>
      <trkpt lat="47.45291" lon="6.69029">
        <ele>306.9</ele>
        <time>2014-10-31T14:27:45.000Z</time>
      </trkpt>
      <trkpt lat="47.45286" lon="6.69031">
        <ele>307.8</ele>
        <time>2014-10-31T14:27:46.000Z</time>
      </trkpt>
      <trkpt lat="47.45281" lon="6.69033">
        <ele>307.8</ele>
        <time>2014-10-31T14:27:47.000Z</time>
      </trkpt>
      <trkpt lat="47.45277" lon="6.69035">
        <ele>307.5</ele>
        <time>2014-10-31T14:27:48.000Z</time>
      </trkpt>
      <trkpt lat="47.45272" lon="6.69037">
        <ele>306.8</ele>
        <time>2014-10-31T14:27:49.000Z</time>
      </trkpt>
      <trkpt lat="47.45266" lon="6.69039">
        <ele>304.5</ele>
        <time>2014-10-31T14:27:50.000Z</time>
      </trkpt>
      <trkpt lat="47.45262" lon="6.69043">
        <ele>304.9</ele>
        <time>2014-10-31T14:27:51.000Z</time>
      </trkpt>
      <trkpt lat="47.45258" lon="6.69046">
        <ele>303.5</ele>
        <time>2014-10-31T14:27:52.000Z</time>
      </trkpt>
      <trkpt lat="47.45227" lon="6.69075">
        <ele>302.2</ele>
        <time>2014-10-31T14:28:00.000Z</time>
      </trkpt>
      <trkpt lat="47.45222" lon="6.6908">
        <ele>303.4</ele>
        <time>2014-10-31T14:28:01.000Z</time>
      </trkpt>
      <trkpt lat="47.45219" lon="6.69085">
        <ele>304.9</ele>
        <time>2014-10-31T14:28:02.000Z</time>
      </trkpt>
      <trkpt lat="47.45216" lon="6.69089">
        <ele>305.2</ele>
        <time>2014-10-31T14:28:03.000Z</time>
      </trkpt>
      <trkpt lat="47.45213" lon="6.69093">
        <ele>305.4</ele>
        <time>2014-10-31T14:28:04.000Z</time>
      </trkpt>
      <trkpt lat="47.45208" lon="6.69097">
        <ele>305.1</ele>
        <time>2014-10-31T14:28:05.000Z</time>
      </trkpt>
      <trkpt lat="47.45205" lon="6.69102">
        <ele>305</ele>
        <time>2014-10-31T14:28:06.000Z</time>
      </trkpt>
      <trkpt lat="47.45201" lon="6.69105">
        <ele>303.9</ele>
        <time>2014-10-31T14:28:07.000Z</time>
      </trkpt>
      <trkpt lat="47.45195" lon="6.69109">
        <ele>302.3</ele>
        <time>2014-10-31T14:28:08.000Z</time>
      </trkpt>
      <trkpt lat="47.45193" lon="6.69113">
        <ele>301.1</ele>
        <time>2014-10-31T14:28:09.000Z</time>
      </trkpt>
      <trkpt lat="47.4519" lon="6.69116">
        <ele>301.8</ele>
        <time>2014-10-31T14:28:10.000Z</time>
      </trkpt>
      <trkpt lat="47.45186" lon="6.69119">
        <ele>301.6</ele>
        <time>2014-10-31T14:28:11.000Z</time>
      </trkpt>
      <trkpt lat="47.45183" lon="6.69123">
        <ele>301.8</ele>
        <time>2014-10-31T14:28:12.000Z</time>
      </trkpt>
      <trkpt lat="47.4518" lon="6.69127">
        <ele>300.9</ele>
        <time>2014-10-31T14:28:13.000Z</time>
      </trkpt>
      <trkpt lat="47.45178" lon="6.6913">
        <ele>301.3</ele>
        <time>2014-10-31T14:28:14.000Z</time>
      </trkpt>
      <trkpt lat="47.45175" lon="6.69134">
        <ele>300.1</ele>
        <time>2014-10-31T14:28:15.000Z</time>
      </trkpt>
      <trkpt lat="47.45172" lon="6.69139">
        <ele>300.4</ele>
        <time>2014-10-31T14:28:16.000Z</time>
      </trkpt>
      <trkpt lat="47.4517" lon="6.69143">
        <ele>301.2</ele>
        <time>2014-10-31T14:28:17.000Z</time>
      </trkpt>
      <trkpt lat="47.45167" lon="6.69147">
        <ele>302.3</ele>
        <time>2014-10-31T14:28:18.000Z</time>
      </trkpt>
      <trkpt lat="47.45164" lon="6.69151">
        <ele>303.3</ele>
        <time>2014-10-31T14:28:19.000Z</time>
      </trkpt>
      <trkpt lat="47.45162" lon="6.69155">
        <ele>303</ele>
        <time>2014-10-31T14:28:20.000Z</time>
      </trkpt>
      <trkpt lat="47.4516" lon="6.69159">
        <ele>302.7</ele>
        <time>2014-10-31T14:28:21.000Z</time>
      </trkpt>
      <trkpt lat="47.45158" lon="6.69162">
        <ele>303.3</ele>
        <time>2014-10-31T14:28:22.000Z</time>
      </trkpt>
      <trkpt lat="47.45156" lon="6.69165">
        <ele>304.3</ele>
        <time>2014-10-31T14:28:23.000Z</time>
      </trkpt>
      <trkpt lat="47.45154" lon="6.69168">
        <ele>304</ele>
        <time>2014-10-31T14:28:24.000Z</time>
      </trkpt>
      <trkpt lat="47.45152" lon="6.69171">
        <ele>304.2</ele>
        <time>2014-10-31T14:28:25.000Z</time>
      </trkpt>
      <trkpt lat="47.4515" lon="6.69174">
        <ele>304.3</ele>
        <time>2014-10-31T14:28:26.000Z</time>
      </trkpt>
      <trkpt lat="47.45146" lon="6.69178">
        <ele>304.7</ele>
        <time>2014-10-31T14:28:28.000Z</time>
      </trkpt>
      <trkpt lat="47.45145" lon="6.6918">
        <ele>304.8</ele>
        <time>2014-10-31T14:28:29.000Z</time>
      </trkpt>
      <trkpt lat="47.45143" lon="6.69186">
        <ele>305</ele>
        <time>2014-10-31T14:28:31.000Z</time>
      </trkpt>
      <trkpt lat="47.45142" lon="6.69189">
        <ele>302.4</ele>
        <time>2014-10-31T14:28:32.000Z</time>
      </trkpt>
      <trkpt lat="47.45142" lon="6.69192">
        <ele>302.9</ele>
        <time>2014-10-31T14:28:33.000Z</time>
      </trkpt>
      <trkpt lat="47.45143" lon="6.69196">
        <ele>302.9</ele>
        <time>2014-10-31T14:28:34.000Z</time>
      </trkpt>
      <trkpt lat="47.45145" lon="6.69201">
        <ele>304.6</ele>
        <time>2014-10-31T14:28:36.000Z</time>
      </trkpt>
      <trkpt lat="47.45147" lon="6.69204">
        <ele>304.5</ele>
        <time>2014-10-31T14:28:37.000Z</time>
      </trkpt>
      <trkpt lat="47.45148" lon="6.69206">
        <ele>304.7</ele>
        <time>2014-10-31T14:28:38.000Z</time>
      </trkpt>
      <trkpt lat="47.4515" lon="6.69208">
        <ele>304.1</ele>
        <time>2014-10-31T14:28:39.000Z</time>
      </trkpt>
      <trkpt lat="47.45151" lon="6.69211">
        <ele>304.5</ele>
        <time>2014-10-31T14:28:40.000Z</time>
      </trkpt>
      <trkpt lat="47.45153" lon="6.69214">
        <ele>305.8</ele>
        <time>2014-10-31T14:28:41.000Z</time>
      </trkpt>
      <trkpt lat="47.45154" lon="6.69218">
        <ele>305.8</ele>
        <time>2014-10-31T14:28:42.000Z</time>
      </trkpt>
      <trkpt lat="47.45156" lon="6.69221">
        <ele>304.9</ele>
        <time>2014-10-31T14:28:43.000Z</time>
      </trkpt>
      <trkpt lat="47.45157" lon="6.69225">
        <ele>304.1</ele>
        <time>2014-10-31T14:28:44.000Z</time>
      </trkpt>
      <trkpt lat="47.45159" lon="6.69228">
        <ele>304.1</ele>
        <time>2014-10-31T14:28:45.000Z</time>
      </trkpt>
      <trkpt lat="47.45161" lon="6.69231">
        <ele>303.6</ele>
        <time>2014-10-31T14:28:46.000Z</time>
      </trkpt>
      <trkpt lat="47.45162" lon="6.69234">
        <ele>304.3</ele>
        <time>2014-10-31T14:28:47.000Z</time>
      </trkpt>
      <trkpt lat="47.45164" lon="6.69237">
        <ele>305</ele>
        <time>2014-10-31T14:28:48.000Z</time>
      </trkpt>
      <trkpt lat="47.45165" lon="6.69241">
        <ele>305.7</ele>
        <time>2014-10-31T14:28:49.000Z</time>
      </trkpt>
      <trkpt lat="47.45167" lon="6.69245">
        <ele>306.4</ele>
        <time>2014-10-31T14:28:50.000Z</time>
      </trkpt>
      <trkpt lat="47.45168" lon="6.69248">
        <ele>305.5</ele>
        <time>2014-10-31T14:28:51.000Z</time>
      </trkpt>
      <trkpt lat="47.4517" lon="6.69252">
        <ele>306</ele>
        <time>2014-10-31T14:28:52.000Z</time>
      </trkpt>
      <trkpt lat="47.45172" lon="6.69255">
        <ele>306.1</ele>
        <time>2014-10-31T14:28:53.000Z</time>
      </trkpt>
      <trkpt lat="47.45183" lon="6.69281">
        <ele>309.2</ele>
        <time>2014-10-31T14:29:01.000Z</time>
      </trkpt>
      <trkpt lat="47.45181" lon="6.69284">
        <ele>310.2</ele>
        <time>2014-10-31T14:29:04.000Z</time>
      </trkpt>
      <trkpt lat="47.45179" lon="6.69285">
        <ele>311.7</ele>
        <time>2014-10-31T14:29:05.000Z</time>
      </trkpt>
      <trkpt lat="47.45175" lon="6.69288">
        <ele>314.7</ele>
        <time>2014-10-31T14:29:07.000Z</time>
      </trkpt>
      <trkpt lat="47.45173" lon="6.69289">
        <ele>316.1</ele>
        <time>2014-10-31T14:29:08.000Z</time>
      </trkpt>
      <trkpt lat="47.45171" lon="6.69291">
        <ele>316.5</ele>
        <time>2014-10-31T14:29:09.000Z</time>
      </trkpt>
      <trkpt lat="47.45169" lon="6.69293">
        <ele>316.8</ele>
        <time>2014-10-31T14:29:10.000Z</time>
      </trkpt>
      <trkpt lat="47.45167" lon="6.69296">
        <ele>316.9</ele>
        <time>2014-10-31T14:29:11.000Z</time>
      </trkpt>
      <trkpt lat="47.45165" lon="6.69298">
        <ele>317.1</ele>
        <time>2014-10-31T14:29:12.000Z</time>
      </trkpt>
      <trkpt lat="47.45162" lon="6.693">
        <ele>317.7</ele>
        <time>2014-10-31T14:29:13.000Z</time>
      </trkpt>
      <trkpt lat="47.4516" lon="6.69301">
        <ele>318.1</ele>
        <time>2014-10-31T14:29:14.000Z</time>
      </trkpt>
      <trkpt lat="47.45158" lon="6.69303">
        <ele>319.5</ele>
        <time>2014-10-31T14:29:15.000Z</time>
      </trkpt>
      <trkpt lat="47.45156" lon="6.69305">
        <ele>319.9</ele>
        <time>2014-10-31T14:29:16.000Z</time>
      </trkpt>
      <trkpt lat="47.45154" lon="6.69307">
        <ele>320.2</ele>
        <time>2014-10-31T14:29:17.000Z</time>
      </trkpt>
      <trkpt lat="47.45152" lon="6.69309">
        <ele>320.4</ele>
        <time>2014-10-31T14:29:18.000Z</time>
      </trkpt>
      <trkpt lat="47.45149" lon="6.69313">
        <ele>320</ele>
        <time>2014-10-31T14:29:20.000Z</time>
      </trkpt>
      <trkpt lat="47.45148" lon="6.69315">
        <ele>320.4</ele>
        <time>2014-10-31T14:29:21.000Z</time>
      </trkpt>
      <trkpt lat="47.45145" lon="6.69318">
        <ele>322.6</ele>
        <time>2014-10-31T14:29:23.000Z</time>
      </trkpt>
      <trkpt lat="47.45144" lon="6.6932">
        <ele>324</ele>
        <time>2014-10-31T14:29:24.000Z</time>
      </trkpt>
      <trkpt lat="47.45141" lon="6.69322">
        <ele>324.1</ele>
        <time>2014-10-31T14:29:26.000Z</time>
      </trkpt>
      <trkpt lat="47.4514" lon="6.69324">
        <ele>324</ele>
        <time>2014-10-31T14:29:27.000Z</time>
      </trkpt>
      <trkpt lat="47.45137" lon="6.69327">
        <ele>323.1</ele>
        <time>2014-10-31T14:29:29.000Z</time>
      </trkpt>
      <trkpt lat="47.45135" lon="6.69329">
        <ele>323.4</ele>
        <time>2014-10-31T14:29:30.000Z</time>
      </trkpt>
      <trkpt lat="47.45132" lon="6.69333">
        <ele>323.9</ele>
        <time>2014-10-31T14:29:32.000Z</time>
      </trkpt>
      <trkpt lat="47.45131" lon="6.69334">
        <ele>325</ele>
        <time>2014-10-31T14:29:33.000Z</time>
      </trkpt>
      <trkpt lat="47.45129" lon="6.69338">
        <ele>325.8</ele>
        <time>2014-10-31T14:29:35.000Z</time>
      </trkpt>
      <trkpt lat="47.45128" lon="6.6934">
        <ele>325.5</ele>
        <time>2014-10-31T14:29:36.000Z</time>
      </trkpt>
      <trkpt lat="47.45125" lon="6.69343">
        <ele>325.6</ele>
        <time>2014-10-31T14:29:38.000Z</time>
      </trkpt>
      <trkpt lat="47.45124" lon="6.69345">
        <ele>325.7</ele>
        <time>2014-10-31T14:29:39.000Z</time>
      </trkpt>
      <trkpt lat="47.45122" lon="6.69349">
        <ele>326.2</ele>
        <time>2014-10-31T14:29:41.000Z</time>
      </trkpt>
      <trkpt lat="47.45121" lon="6.69351">
        <ele>326.7</ele>
        <time>2014-10-31T14:29:42.000Z</time>
      </trkpt>
      <trkpt lat="47.45118" lon="6.69356">
        <ele>327.7</ele>
        <time>2014-10-31T14:29:45.000Z</time>
      </trkpt>
      <trkpt lat="47.45118" lon="6.69357">
        <ele>327.3</ele>
        <time>2014-10-31T14:29:46.000Z</time>
      </trkpt>
      <trkpt lat="47.45115" lon="6.69363">
        <ele>326.9</ele>
        <time>2014-10-31T14:29:49.000Z</time>
      </trkpt>
      <trkpt lat="47.45114" lon="6.69364">
        <ele>326.5</ele>
        <time>2014-10-31T14:29:50.000Z</time>
      </trkpt>
      <trkpt lat="47.45112" lon="6.69368">
        <ele>326.1</ele>
        <time>2014-10-31T14:29:52.000Z</time>
      </trkpt>
      <trkpt lat="47.45107" lon="6.69383">
        <ele>330.4</ele>
        <time>2014-10-31T14:30:00.000Z</time>
      </trkpt>
      <trkpt lat="47.45108" lon="6.69388">
        <ele>329.5</ele>
        <time>2014-10-31T14:30:02.000Z</time>
      </trkpt>
      <trkpt lat="47.45108" lon="6.69392">
        <ele>328.2</ele>
        <time>2014-10-31T14:30:03.000Z</time>
      </trkpt>
      <trkpt lat="47.45108" lon="6.69398">
        <ele>327.3</ele>
        <time>2014-10-31T14:30:05.000Z</time>
      </trkpt>
      <trkpt lat="47.45107" lon="6.69401">
        <ele>327.3</ele>
        <time>2014-10-31T14:30:06.000Z</time>
      </trkpt>
      <trkpt lat="47.45106" lon="6.69406">
        <ele>327.5</ele>
        <time>2014-10-31T14:30:08.000Z</time>
      </trkpt>
      <trkpt lat="47.45106" lon="6.69408">
        <ele>326.3</ele>
        <time>2014-10-31T14:30:09.000Z</time>
      </trkpt>
      <trkpt lat="47.45105" lon="6.69413">
        <ele>323.2</ele>
        <time>2014-10-31T14:30:12.000Z</time>
      </trkpt>
      <trkpt lat="47.45105" lon="6.69415">
        <ele>323.3</ele>
        <time>2014-10-31T14:30:13.000Z</time>
      </trkpt>
      <trkpt lat="47.45106" lon="6.69419">
        <ele>321.9</ele>
        <time>2014-10-31T14:30:15.000Z</time>
      </trkpt>
      <trkpt lat="47.45106" lon="6.69422">
        <ele>321.4</ele>
        <time>2014-10-31T14:30:16.000Z</time>
      </trkpt>
      <trkpt lat="47.45105" lon="6.69428">
        <ele>322.5</ele>
        <time>2014-10-31T14:30:19.000Z</time>
      </trkpt>
      <trkpt lat="47.45105" lon="6.6943">
        <ele>322.7</ele>
        <time>2014-10-31T14:30:20.000Z</time>
      </trkpt>
      <trkpt lat="47.45104" lon="6.69435">
        <ele>320.9</ele>
        <time>2014-10-31T14:30:23.000Z</time>
      </trkpt>
      <trkpt lat="47.45104" lon="6.69437">
        <ele>321.2</ele>
        <time>2014-10-31T14:30:24.000Z</time>
      </trkpt>
      <trkpt lat="47.45102" lon="6.69441">
        <ele>323.5</ele>
        <time>2014-10-31T14:30:26.000Z</time>
      </trkpt>
      <trkpt lat="47.45101" lon="6.69443">
        <ele>323.8</ele>
        <time>2014-10-31T14:30:27.000Z</time>
      </trkpt>
      <trkpt lat="47.45099" lon="6.69449">
        <ele>326.6</ele>
        <time>2014-10-31T14:30:30.000Z</time>
      </trkpt>
      <trkpt lat="47.45098" lon="6.6945">
        <ele>327.3</ele>
        <time>2014-10-31T14:30:31.000Z</time>
      </trkpt>
      <trkpt lat="47.45096" lon="6.69456">
        <ele>332.5</ele>
        <time>2014-10-31T14:30:37.000Z</time>
      </trkpt>
      <trkpt lat="47.45096" lon="6.69457">
        <ele>333.9</ele>
        <time>2014-10-31T14:30:38.000Z</time>
      </trkpt>
      <trkpt lat="47.45095" lon="6.69462">
        <ele>337</ele>
        <time>2014-10-31T14:30:42.000Z</time>
      </trkpt>
      <trkpt lat="47.45095" lon="6.69464">
        <ele>337.1</ele>
        <time>2014-10-31T14:30:43.000Z</time>
      </trkpt>
      <trkpt lat="47.45095" lon="6.69468">
        <ele>336.1</ele>
        <time>2014-10-31T14:30:45.000Z</time>
      </trkpt>
      <trkpt lat="47.45095" lon="6.6947">
        <ele>332.8</ele>
        <time>2014-10-31T14:30:46.000Z</time>
      </trkpt>
      <trkpt lat="47.45094" lon="6.69475">
        <ele>333.3</ele>
        <time>2014-10-31T14:30:49.000Z</time>
      </trkpt>
      <trkpt lat="47.45094" lon="6.69477">
        <ele>334</ele>
        <time>2014-10-31T14:30:50.000Z</time>
      </trkpt>
      <trkpt lat="47.45094" lon="6.6948">
        <ele>334.7</ele>
        <time>2014-10-31T14:30:52.000Z</time>
      </trkpt>
      <trkpt lat="47.45094" lon="6.69484">
        <ele>335.5</ele>
        <time>2014-10-31T14:30:55.000Z</time>
      </trkpt>
      <trkpt lat="47.45094" lon="6.69491">
        <ele>335.6</ele>
        <time>2014-10-31T14:30:58.000Z</time>
      </trkpt>
      <trkpt lat="47.45094" lon="6.69493">
        <ele>333.9</ele>
        <time>2014-10-31T14:30:59.000Z</time>
      </trkpt>
      <trkpt lat="47.45095" lon="6.69499">
        <ele>331.7</ele>
        <time>2014-10-31T14:31:02.000Z</time>
      </trkpt>
      <trkpt lat="47.45095" lon="6.695">
        <ele>331.2</ele>
        <time>2014-10-31T14:31:03.000Z</time>
      </trkpt>
      <trkpt lat="47.45095" lon="6.69506">
        <ele>331.3</ele>
        <time>2014-10-31T14:31:07.000Z</time>
      </trkpt>
      <trkpt lat="47.45095" lon="6.69508">
        <ele>331.8</ele>
        <time>2014-10-31T14:31:08.000Z</time>
      </trkpt>
      <trkpt lat="47.45096" lon="6.69514">
        <ele>330.9</ele>
        <time>2014-10-31T14:31:12.000Z</time>
      </trkpt>
      <trkpt lat="47.45096" lon="6.69515">
        <ele>331.9</ele>
        <time>2014-10-31T14:31:13.000Z</time>
      </trkpt>
      <trkpt lat="47.45099" lon="6.6952">
        <ele>334</ele>
        <time>2014-10-31T14:31:16.000Z</time>
      </trkpt>
      <trkpt lat="47.45099" lon="6.69521">
        <ele>335.2</ele>
        <time>2014-10-31T14:31:17.000Z</time>
      </trkpt>
      <trkpt lat="47.451" lon="6.69526">
        <ele>335.1</ele>
        <time>2014-10-31T14:31:20.000Z</time>
      </trkpt>
      <trkpt lat="47.451" lon="6.69528">
        <ele>333.6</ele>
        <time>2014-10-31T14:31:21.000Z</time>
      </trkpt>
      <trkpt lat="47.451" lon="6.69533">
        <ele>333.3</ele>
        <time>2014-10-31T14:31:23.000Z</time>
      </trkpt>
      <trkpt lat="47.451" lon="6.69535">
        <ele>332.5</ele>
        <time>2014-10-31T14:31:24.000Z</time>
      </trkpt>
      <trkpt lat="47.45101" lon="6.69542">
        <ele>332</ele>
        <time>2014-10-31T14:31:27.000Z</time>
      </trkpt>
      <trkpt lat="47.45101" lon="6.69544">
        <ele>330.7</ele>
        <time>2014-10-31T14:31:28.000Z</time>
      </trkpt>
      <trkpt lat="47.45102" lon="6.69549">
        <ele>334.7</ele>
        <time>2014-10-31T14:31:31.000Z</time>
      </trkpt>
      <trkpt lat="47.45103" lon="6.6955">
        <ele>335.1</ele>
        <time>2014-10-31T14:31:32.000Z</time>
      </trkpt>
      <trkpt lat="47.45103" lon="6.69555">
        <ele>335.6</ele>
        <time>2014-10-31T14:31:35.000Z</time>
      </trkpt>
      <trkpt lat="47.45103" lon="6.69557">
        <ele>335.9</ele>
        <time>2014-10-31T14:31:36.000Z</time>
      </trkpt>
      <trkpt lat="47.45102" lon="6.69563">
        <ele>333.5</ele>
        <time>2014-10-31T14:31:39.000Z</time>
      </trkpt>
      <trkpt lat="47.45102" lon="6.69564">
        <ele>332.5</ele>
        <time>2014-10-31T14:31:40.000Z</time>
      </trkpt>
      <trkpt lat="47.45102" lon="6.6957">
        <ele>328.7</ele>
        <time>2014-10-31T14:31:44.000Z</time>
      </trkpt>
      <trkpt lat="47.45102" lon="6.69573">
        <ele>328.4</ele>
        <time>2014-10-31T14:31:45.000Z</time>
      </trkpt>
      <trkpt lat="47.45102" lon="6.69579">
        <ele>329.4</ele>
        <time>2014-10-31T14:31:48.000Z</time>
      </trkpt>
      <trkpt lat="47.45103" lon="6.6958">
        <ele>329.7</ele>
        <time>2014-10-31T14:31:49.000Z</time>
      </trkpt>
      <trkpt lat="47.45104" lon="6.69586">
        <ele>333.2</ele>
        <time>2014-10-31T14:31:52.000Z</time>
      </trkpt>
      <trkpt lat="47.45106" lon="6.69598">
        <ele>337.2</ele>
        <time>2014-10-31T14:32:00.000Z</time>
      </trkpt>
      <trkpt lat="47.45105" lon="6.69603">
        <ele>335.8</ele>
        <time>2014-10-31T14:32:03.000Z</time>
      </trkpt>
      <trkpt lat="47.45105" lon="6.69605">
        <ele>336</ele>
        <time>2014-10-31T14:32:04.000Z</time>
      </trkpt>
      <trkpt lat="47.45106" lon="6.69609">
        <ele>339</ele>
        <time>2014-10-31T14:32:06.000Z</time>
      </trkpt>
      <trkpt lat="47.45107" lon="6.69611">
        <ele>339.4</ele>
        <time>2014-10-31T14:32:07.000Z</time>
      </trkpt>
      <trkpt lat="47.45109" lon="6.69615">
        <ele>341.3</ele>
        <time>2014-10-31T14:32:09.000Z</time>
      </trkpt>
      <trkpt lat="47.4511" lon="6.69617">
        <ele>341.3</ele>
        <time>2014-10-31T14:32:10.000Z</time>
      </trkpt>
      <trkpt lat="47.4511" lon="6.69622">
        <ele>343.1</ele>
        <time>2014-10-31T14:32:13.000Z</time>
      </trkpt>
      <trkpt lat="47.45109" lon="6.69624">
        <ele>342.8</ele>
        <time>2014-10-31T14:32:14.000Z</time>
      </trkpt>
      <trkpt lat="47.45108" lon="6.6963">
        <ele>346.1</ele>
        <time>2014-10-31T14:32:17.000Z</time>
      </trkpt>
      <trkpt lat="47.45108" lon="6.69631">
        <ele>346.8</ele>
        <time>2014-10-31T14:32:18.000Z</time>
      </trkpt>
      <trkpt lat="47.45109" lon="6.69635">
        <ele>348.1</ele>
        <time>2014-10-31T14:32:20.000Z</time>
      </trkpt>
      <trkpt lat="47.45111" lon="6.69636">
        <ele>348.7</ele>
        <time>2014-10-31T14:32:21.000Z</time>
      </trkpt>
      <trkpt lat="47.45114" lon="6.69639">
        <ele>347.8</ele>
        <time>2014-10-31T14:32:23.000Z</time>
      </trkpt>
      <trkpt lat="47.45115" lon="6.69641">
        <ele>348</ele>
        <time>2014-10-31T14:32:24.000Z</time>
      </trkpt>
      <trkpt lat="47.45117" lon="6.69647">
        <ele>348.5</ele>
        <time>2014-10-31T14:32:27.000Z</time>
      </trkpt>
      <trkpt lat="47.45117" lon="6.69649">
        <ele>348.4</ele>
        <time>2014-10-31T14:32:28.000Z</time>
      </trkpt>
      <trkpt lat="47.45117" lon="6.69655">
        <ele>347.1</ele>
        <time>2014-10-31T14:32:31.000Z</time>
      </trkpt>
      <trkpt lat="47.45117" lon="6.69657">
        <ele>348.1</ele>
        <time>2014-10-31T14:32:32.000Z</time>
      </trkpt>
      <trkpt lat="47.45118" lon="6.69663">
        <ele>350.9</ele>
        <time>2014-10-31T14:32:35.000Z</time>
      </trkpt>
      <trkpt lat="47.45118" lon="6.69665">
        <ele>351.3</ele>
        <time>2014-10-31T14:32:36.000Z</time>
      </trkpt>
      <trkpt lat="47.45119" lon="6.6967">
        <ele>354</ele>
        <time>2014-10-31T14:32:40.000Z</time>
      </trkpt>
      <trkpt lat="47.45119" lon="6.69672">
        <ele>354.5</ele>
        <time>2014-10-31T14:32:41.000Z</time>
      </trkpt>
      <trkpt lat="47.45119" lon="6.69677">
        <ele>355.3</ele>
        <time>2014-10-31T14:32:44.000Z</time>
      </trkpt>
      <trkpt lat="47.45118" lon="6.69679">
        <ele>355.2</ele>
        <time>2014-10-31T14:32:45.000Z</time>
      </trkpt>
      <trkpt lat="47.45117" lon="6.69683">
        <ele>352.3</ele>
        <time>2014-10-31T14:32:47.000Z</time>
      </trkpt>
      <trkpt lat="47.45116" lon="6.69686">
        <ele>351.6</ele>
        <time>2014-10-31T14:32:48.000Z</time>
      </trkpt>
      <trkpt lat="47.45117" lon="6.69692">
        <ele>351.3</ele>
        <time>2014-10-31T14:32:51.000Z</time>
      </trkpt>
      <trkpt lat="47.45118" lon="6.69693">
        <ele>350.6</ele>
        <time>2014-10-31T14:32:52.000Z</time>
      </trkpt>
      <trkpt lat="47.4512" lon="6.69705">
        <ele>352</ele>
        <time>2014-10-31T14:33:00.000Z</time>
      </trkpt>
      <trkpt lat="47.45121" lon="6.69709">
        <ele>355.9</ele>
        <time>2014-10-31T14:33:03.000Z</time>
      </trkpt>
      <trkpt lat="47.45122" lon="6.69711">
        <ele>356.6</ele>
        <time>2014-10-31T14:33:04.000Z</time>
      </trkpt>
      <trkpt lat="47.45124" lon="6.69715">
        <ele>357.1</ele>
        <time>2014-10-31T14:33:07.000Z</time>
      </trkpt>
      <trkpt lat="47.45124" lon="6.69716">
        <ele>357.2</ele>
        <time>2014-10-31T14:33:08.000Z</time>
      </trkpt>
      <trkpt lat="47.45125" lon="6.69722">
        <ele>353</ele>
        <time>2014-10-31T14:33:12.000Z</time>
      </trkpt>
      <trkpt lat="47.45125" lon="6.69724">
        <ele>353.6</ele>
        <time>2014-10-31T14:33:13.000Z</time>
      </trkpt>
      <trkpt lat="47.45125" lon="6.6973">
        <ele>356.8</ele>
        <time>2014-10-31T14:33:16.000Z</time>
      </trkpt>
      <trkpt lat="47.45125" lon="6.69732">
        <ele>356.6</ele>
        <time>2014-10-31T14:33:17.000Z</time>
      </trkpt>
      <trkpt lat="47.45126" lon="6.69739">
        <ele>357.3</ele>
        <time>2014-10-31T14:33:21.000Z</time>
      </trkpt>
      <trkpt lat="47.45126" lon="6.6974">
        <ele>357.3</ele>
        <time>2014-10-31T14:33:22.000Z</time>
      </trkpt>
      <trkpt lat="47.45127" lon="6.69747">
        <ele>358.1</ele>
        <time>2014-10-31T14:33:26.000Z</time>
      </trkpt>
      <trkpt lat="47.45127" lon="6.69748">
        <ele>357.1</ele>
        <time>2014-10-31T14:33:27.000Z</time>
      </trkpt>
      <trkpt lat="47.45129" lon="6.69754">
        <ele>356.4</ele>
        <time>2014-10-31T14:33:30.000Z</time>
      </trkpt>
      <trkpt lat="47.45129" lon="6.69756">
        <ele>357.4</ele>
        <time>2014-10-31T14:33:31.000Z</time>
      </trkpt>
      <trkpt lat="47.45128" lon="6.69762">
        <ele>354.6</ele>
        <time>2014-10-31T14:33:35.000Z</time>
      </trkpt>
      <trkpt lat="47.45128" lon="6.69762">
        <ele>354.4</ele>
        <time>2014-10-31T14:33:36.000Z</time>
      </trkpt>
      <trkpt lat="47.45129" lon="6.69767">
        <ele>355.7</ele>
        <time>2014-10-31T14:33:39.000Z</time>
      </trkpt>
      <trkpt lat="47.45129" lon="6.69769">
        <ele>355.5</ele>
        <time>2014-10-31T14:33:40.000Z</time>
      </trkpt>
      <trkpt lat="47.45131" lon="6.69775">
        <ele>353.4</ele>
        <time>2014-10-31T14:33:43.000Z</time>
      </trkpt>
      <trkpt lat="47.45131" lon="6.69777">
        <ele>352.5</ele>
        <time>2014-10-31T14:33:44.000Z</time>
      </trkpt>
      <trkpt lat="47.45133" lon="6.69782">
        <ele>351.7</ele>
        <time>2014-10-31T14:33:48.000Z</time>
      </trkpt>
      <trkpt lat="47.45133" lon="6.69784">
        <ele>351.9</ele>
        <time>2014-10-31T14:33:49.000Z</time>
      </trkpt>
      <trkpt lat="47.45135" lon="6.69787">
        <ele>350.2</ele>
        <time>2014-10-31T14:33:52.000Z</time>
      </trkpt>
      <trkpt lat="47.45136" lon="6.69792">
        <ele>347.1</ele>
        <time>2014-10-31T14:33:55.000Z</time>
      </trkpt>
      <trkpt lat="47.45136" lon="6.69798">
        <ele>350.4</ele>
        <time>2014-10-31T14:33:59.000Z</time>
      </trkpt>
      <trkpt lat="47.45136" lon="6.698">
        <ele>351.3</ele>
        <time>2014-10-31T14:34:00.000Z</time>
      </trkpt>
      <trkpt lat="47.45137" lon="6.69805">
        <ele>353.2</ele>
        <time>2014-10-31T14:34:03.000Z</time>
      </trkpt>
      <trkpt lat="47.45138" lon="6.69807">
        <ele>353.6</ele>
        <time>2014-10-31T14:34:04.000Z</time>
      </trkpt>
      <trkpt lat="47.45139" lon="6.69812">
        <ele>355.7</ele>
        <time>2014-10-31T14:34:09.000Z</time>
      </trkpt>
      <trkpt lat="47.45139" lon="6.69813">
        <ele>355.6</ele>
        <time>2014-10-31T14:34:10.000Z</time>
      </trkpt>
      <trkpt lat="47.4514" lon="6.69819">
        <ele>357.2</ele>
        <time>2014-10-31T14:34:14.000Z</time>
      </trkpt>
      <trkpt lat="47.4514" lon="6.69821">
        <ele>357.6</ele>
        <time>2014-10-31T14:34:15.000Z</time>
      </trkpt>
      <trkpt lat="47.45141" lon="6.69825">
        <ele>359.3</ele>
        <time>2014-10-31T14:34:17.000Z</time>
      </trkpt>
      <trkpt lat="47.45142" lon="6.69827">
        <ele>359.9</ele>
        <time>2014-10-31T14:34:18.000Z</time>
      </trkpt>
      <trkpt lat="47.45143" lon="6.69831">
        <ele>360.2</ele>
        <time>2014-10-31T14:34:20.000Z</time>
      </trkpt>
      <trkpt lat="47.45144" lon="6.69834">
        <ele>359.6</ele>
        <time>2014-10-31T14:34:21.000Z</time>
      </trkpt>
      <trkpt lat="47.45144" lon="6.6984">
        <ele>362.2</ele>
        <time>2014-10-31T14:34:24.000Z</time>
      </trkpt>
      <trkpt lat="47.45144" lon="6.69841">
        <ele>363.6</ele>
        <time>2014-10-31T14:34:25.000Z</time>
      </trkpt>
      <trkpt lat="47.45145" lon="6.69847">
        <ele>363</ele>
        <time>2014-10-31T14:34:29.000Z</time>
      </trkpt>
      <trkpt lat="47.45145" lon="6.69848">
        <ele>363.7</ele>
        <time>2014-10-31T14:34:30.000Z</time>
      </trkpt>
      <trkpt lat="47.45145" lon="6.69854">
        <ele>367.3</ele>
        <time>2014-10-31T14:34:33.000Z</time>
      </trkpt>
      <trkpt lat="47.45145" lon="6.69855">
        <ele>368.6</ele>
        <time>2014-10-31T14:34:34.000Z</time>
      </trkpt>
      <trkpt lat="47.45145" lon="6.6986">
        <ele>370.9</ele>
        <time>2014-10-31T14:34:38.000Z</time>
      </trkpt>
      <trkpt lat="47.45145" lon="6.69862">
        <ele>371.6</ele>
        <time>2014-10-31T14:34:39.000Z</time>
      </trkpt>
      <trkpt lat="47.45146" lon="6.69868">
        <ele>374.2</ele>
        <time>2014-10-31T14:34:42.000Z</time>
      </trkpt>
      <trkpt lat="47.45146" lon="6.6987">
        <ele>375.2</ele>
        <time>2014-10-31T14:34:43.000Z</time>
      </trkpt>
      <trkpt lat="47.45147" lon="6.69875">
        <ele>376.7</ele>
        <time>2014-10-31T14:34:46.000Z</time>
      </trkpt>
      <trkpt lat="47.45148" lon="6.69876">
        <ele>377.7</ele>
        <time>2014-10-31T14:34:47.000Z</time>
      </trkpt>
      <trkpt lat="47.4515" lon="6.69881">
        <ele>379.7</ele>
        <time>2014-10-31T14:34:50.000Z</time>
      </trkpt>
      <trkpt lat="47.4515" lon="6.69883">
        <ele>379.5</ele>
        <time>2014-10-31T14:34:51.000Z</time>
      </trkpt>
      <trkpt lat="47.4515" lon="6.69885">
        <ele>379.8</ele>
        <time>2014-10-31T14:34:52.000Z</time>
      </trkpt>
      <trkpt lat="47.45154" lon="6.69898">
        <ele>380.1</ele>
        <time>2014-10-31T14:35:00.000Z</time>
      </trkpt>
      <trkpt lat="47.45157" lon="6.69903">
        <ele>377.5</ele>
        <time>2014-10-31T14:35:04.000Z</time>
      </trkpt>
      <trkpt lat="47.45157" lon="6.69904">
        <ele>378.1</ele>
        <time>2014-10-31T14:35:05.000Z</time>
      </trkpt>
      <trkpt lat="47.45159" lon="6.6991">
        <ele>380.3</ele>
        <time>2014-10-31T14:35:09.000Z</time>
      </trkpt>
      <trkpt lat="47.4516" lon="6.69911">
        <ele>380.7</ele>
        <time>2014-10-31T14:35:10.000Z</time>
      </trkpt>
      <trkpt lat="47.45163" lon="6.69915">
        <ele>379.4</ele>
        <time>2014-10-31T14:35:18.000Z</time>
      </trkpt>
      <trkpt lat="47.45164" lon="6.69916">
        <ele>379.7</ele>
        <time>2014-10-31T14:35:19.000Z</time>
      </trkpt>
      <trkpt lat="47.45167" lon="6.69919">
        <ele>378.4</ele>
        <time>2014-10-31T14:35:21.000Z</time>
      </trkpt>
      <trkpt lat="47.45168" lon="6.6992">
        <ele>378.7</ele>
        <time>2014-10-31T14:35:22.000Z</time>
      </trkpt>
      <trkpt lat="47.45169" lon="6.69925">
        <ele>378.7</ele>
        <time>2014-10-31T14:35:25.000Z</time>
      </trkpt>
      <trkpt lat="47.45169" lon="6.69927">
        <ele>378.8</ele>
        <time>2014-10-31T14:35:26.000Z</time>
      </trkpt>
      <trkpt lat="47.45169" lon="6.69933">
        <ele>379.7</ele>
        <time>2014-10-31T14:35:31.000Z</time>
      </trkpt>
      <trkpt lat="47.45169" lon="6.69935">
        <ele>379.7</ele>
        <time>2014-10-31T14:35:32.000Z</time>
      </trkpt>
      <trkpt lat="47.4517" lon="6.6994">
        <ele>377.4</ele>
        <time>2014-10-31T14:35:35.000Z</time>
      </trkpt>
      <trkpt lat="47.4517" lon="6.69941">
        <ele>377.5</ele>
        <time>2014-10-31T14:35:36.000Z</time>
      </trkpt>
      <trkpt lat="47.45172" lon="6.69947">
        <ele>379.3</ele>
        <time>2014-10-31T14:35:41.000Z</time>
      </trkpt>
      <trkpt lat="47.45172" lon="6.69949">
        <ele>378.5</ele>
        <time>2014-10-31T14:35:42.000Z</time>
      </trkpt>
      <trkpt lat="47.45174" lon="6.69953">
        <ele>376.8</ele>
        <time>2014-10-31T14:35:45.000Z</time>
      </trkpt>
      <trkpt lat="47.45175" lon="6.69955">
        <ele>377.1</ele>
        <time>2014-10-31T14:35:46.000Z</time>
      </trkpt>
      <trkpt lat="47.45176" lon="6.69958">
        <ele>377.4</ele>
        <time>2014-10-31T14:35:48.000Z</time>
      </trkpt>
      <trkpt lat="47.45177" lon="6.69961">
        <ele>376.3</ele>
        <time>2014-10-31T14:35:49.000Z</time>
      </trkpt>
      <trkpt lat="47.45179" lon="6.69965">
        <ele>376.4</ele>
        <time>2014-10-31T14:35:51.000Z</time>
      </trkpt>
      <trkpt lat="47.4518" lon="6.69967">
        <ele>376.2</ele>
        <time>2014-10-31T14:35:52.000Z</time>
      </trkpt>
      <trkpt lat="47.45185" lon="6.6998">
        <ele>374.6</ele>
        <time>2014-10-31T14:36:00.000Z</time>
      </trkpt>
      <trkpt lat="47.45188" lon="6.69984">
        <ele>377.1</ele>
        <time>2014-10-31T14:36:03.000Z</time>
      </trkpt>
      <trkpt lat="47.45189" lon="6.69985">
        <ele>377.1</ele>
        <time>2014-10-31T14:36:04.000Z</time>
      </trkpt>
      <trkpt lat="47.45191" lon="6.6999">
        <ele>379.5</ele>
        <time>2014-10-31T14:36:08.000Z</time>
      </trkpt>
      <trkpt lat="47.45192" lon="6.69992">
        <ele>379.3</ele>
        <time>2014-10-31T14:36:09.000Z</time>
      </trkpt>
      <trkpt lat="47.45193" lon="6.69998">
        <ele>379.5</ele>
        <time>2014-10-31T14:36:13.000Z</time>
      </trkpt>
      <trkpt lat="47.45193" lon="6.69999">
        <ele>380.6</ele>
        <time>2014-10-31T14:36:14.000Z</time>
      </trkpt>
      <trkpt lat="47.45192" lon="6.70004">
        <ele>390.4</ele>
        <time>2014-10-31T14:36:38.000Z</time>
      </trkpt>
      <trkpt lat="47.45192" lon="6.70005">
        <ele>391.6</ele>
        <time>2014-10-31T14:36:39.000Z</time>
      </trkpt>
      <trkpt lat="47.45192" lon="6.70011">
        <ele>392.2</ele>
        <time>2014-10-31T14:36:43.000Z</time>
      </trkpt>
      <trkpt lat="47.45193" lon="6.70012">
        <ele>392.5</ele>
        <time>2014-10-31T14:36:44.000Z</time>
      </trkpt>
      <trkpt lat="47.45195" lon="6.70017">
        <ele>395.4</ele>
        <time>2014-10-31T14:36:48.000Z</time>
      </trkpt>
      <trkpt lat="47.45196" lon="6.70019">
        <ele>395.9</ele>
        <time>2014-10-31T14:36:49.000Z</time>
      </trkpt>
      <trkpt lat="47.45197" lon="6.70024">
        <ele>391.1</ele>
        <time>2014-10-31T14:36:52.000Z</time>
      </trkpt>
      <trkpt lat="47.45202" lon="6.70034">
        <ele>391.8</ele>
        <time>2014-10-31T14:37:00.000Z</time>
      </trkpt>
      <trkpt lat="47.45204" lon="6.70039">
        <ele>391.8</ele>
        <time>2014-10-31T14:37:03.000Z</time>
      </trkpt>
      <trkpt lat="47.45204" lon="6.7004">
        <ele>391.2</ele>
        <time>2014-10-31T14:37:04.000Z</time>
      </trkpt>
      <trkpt lat="47.45204" lon="6.70045">
        <ele>392.5</ele>
        <time>2014-10-31T14:37:07.000Z</time>
      </trkpt>
      <trkpt lat="47.45204" lon="6.70047">
        <ele>392.5</ele>
        <time>2014-10-31T14:37:08.000Z</time>
      </trkpt>
      <trkpt lat="47.45205" lon="6.70053">
        <ele>394.1</ele>
        <time>2014-10-31T14:37:12.000Z</time>
      </trkpt>
      <trkpt lat="47.45205" lon="6.70055">
        <ele>393.9</ele>
        <time>2014-10-31T14:37:13.000Z</time>
      </trkpt>
      <trkpt lat="47.45204" lon="6.70061">
        <ele>395.9</ele>
        <time>2014-10-31T14:37:16.000Z</time>
      </trkpt>
      <trkpt lat="47.45204" lon="6.70063">
        <ele>393.2</ele>
        <time>2014-10-31T14:37:17.000Z</time>
      </trkpt>
      <trkpt lat="47.45205" lon="6.70069">
        <ele>395.1</ele>
        <time>2014-10-31T14:37:21.000Z</time>
      </trkpt>
      <trkpt lat="47.45205" lon="6.70071">
        <ele>395.7</ele>
        <time>2014-10-31T14:37:22.000Z</time>
      </trkpt>
      <trkpt lat="47.45209" lon="6.70074">
        <ele>401.1</ele>
        <time>2014-10-31T14:37:27.000Z</time>
      </trkpt>
      <trkpt lat="47.45209" lon="6.70075">
        <ele>401.6</ele>
        <time>2014-10-31T14:37:28.000Z</time>
      </trkpt>
      <trkpt lat="47.45206" lon="6.70079">
        <ele>404.7</ele>
        <time>2014-10-31T14:40:10.000Z</time>
      </trkpt>
      <trkpt lat="47.45205" lon="6.7008">
        <ele>405.9</ele>
        <time>2014-10-31T14:40:11.000Z</time>
      </trkpt>
      <trkpt lat="47.45201" lon="6.70083">
        <ele>409.8</ele>
        <time>2014-10-31T14:40:15.000Z</time>
      </trkpt>
      <trkpt lat="47.452" lon="6.70083">
        <ele>410.2</ele>
        <time>2014-10-31T14:40:16.000Z</time>
      </trkpt>
      <trkpt lat="47.45195" lon="6.70084">
        <ele>415.1</ele>
        <time>2014-10-31T14:40:21.000Z</time>
      </trkpt>
      <trkpt lat="47.45195" lon="6.70084">
        <ele>414.8</ele>
        <time>2014-10-31T14:40:22.000Z</time>
      </trkpt>
      <trkpt lat="47.45191" lon="6.70083">
        <ele>415.2</ele>
        <time>2014-10-31T14:40:25.000Z</time>
      </trkpt>
      <trkpt lat="47.4519" lon="6.70084">
        <ele>415.3</ele>
        <time>2014-10-31T14:40:26.000Z</time>
      </trkpt>
      <trkpt lat="47.45186" lon="6.70086">
        <ele>418.2</ele>
        <time>2014-10-31T14:40:30.000Z</time>
      </trkpt>
      <trkpt lat="47.45184" lon="6.70086">
        <ele>418.5</ele>
        <time>2014-10-31T14:40:31.000Z</time>
      </trkpt>
      <trkpt lat="47.45181" lon="6.70087">
        <ele>420.7</ele>
        <time>2014-10-31T14:40:34.000Z</time>
      </trkpt>
      <trkpt lat="47.45179" lon="6.70087">
        <ele>421</ele>
        <time>2014-10-31T14:40:35.000Z</time>
      </trkpt>
      <trkpt lat="47.45175" lon="6.70087">
        <ele>422.7</ele>
        <time>2014-10-31T14:40:38.000Z</time>
      </trkpt>
      <trkpt lat="47.45174" lon="6.70087">
        <ele>422.4</ele>
        <time>2014-10-31T14:40:39.000Z</time>
      </trkpt>
      <trkpt lat="47.45169" lon="6.70087">
        <ele>421.7</ele>
        <time>2014-10-31T14:40:42.000Z</time>
      </trkpt>
      <trkpt lat="47.45168" lon="6.70087">
        <ele>421.3</ele>
        <time>2014-10-31T14:40:43.000Z</time>
      </trkpt>
      <trkpt lat="47.45164" lon="6.70088">
        <ele>420.5</ele>
        <time>2014-10-31T14:40:46.000Z</time>
      </trkpt>
      <trkpt lat="47.45163" lon="6.70088">
        <ele>420.6</ele>
        <time>2014-10-31T14:40:47.000Z</time>
      </trkpt>
      <trkpt lat="47.45159" lon="6.70087">
        <ele>419.3</ele>
        <time>2014-10-31T14:40:50.000Z</time>
      </trkpt>
      <trkpt lat="47.45158" lon="6.70087">
        <ele>419.1</ele>
        <time>2014-10-31T14:40:51.000Z</time>
      </trkpt>
      <trkpt lat="47.45156" lon="6.70086">
        <ele>419</ele>
        <time>2014-10-31T14:40:52.000Z</time>
      </trkpt>
      <trkpt lat="47.45147" lon="6.70085">
        <ele>414.7</ele>
        <time>2014-10-31T14:41:00.000Z</time>
      </trkpt>
      <trkpt lat="47.45143" lon="6.70085">
        <ele>411.8</ele>
        <time>2014-10-31T14:41:03.000Z</time>
      </trkpt>
      <trkpt lat="47.45141" lon="6.70084">
        <ele>411.3</ele>
        <time>2014-10-31T14:41:04.000Z</time>
      </trkpt>
      <trkpt lat="47.45138" lon="6.70083">
        <ele>413.7</ele>
        <time>2014-10-31T14:41:07.000Z</time>
      </trkpt>
      <trkpt lat="47.45136" lon="6.70083">
        <ele>413.7</ele>
        <time>2014-10-31T14:41:08.000Z</time>
      </trkpt>
      <trkpt lat="47.45133" lon="6.7008">
        <ele>414.3</ele>
        <time>2014-10-31T14:41:11.000Z</time>
      </trkpt>
      <trkpt lat="47.45132" lon="6.70079">
        <ele>415.1</ele>
        <time>2014-10-31T14:41:12.000Z</time>
      </trkpt>
      <trkpt lat="47.4513" lon="6.70075">
        <ele>416.8</ele>
        <time>2014-10-31T14:41:14.000Z</time>
      </trkpt>
      <trkpt lat="47.45129" lon="6.70073">
        <ele>418.5</ele>
        <time>2014-10-31T14:41:15.000Z</time>
      </trkpt>
      <trkpt lat="47.45126" lon="6.70069">
        <ele>419.3</ele>
        <time>2014-10-31T14:41:17.000Z</time>
      </trkpt>
      <trkpt lat="47.45125" lon="6.70068">
        <ele>419.1</ele>
        <time>2014-10-31T14:41:18.000Z</time>
      </trkpt>
      <trkpt lat="47.4512" lon="6.70067">
        <ele>419.4</ele>
        <time>2014-10-31T14:41:21.000Z</time>
      </trkpt>
      <trkpt lat="47.45119" lon="6.70069">
        <ele>419.1</ele>
        <time>2014-10-31T14:41:22.000Z</time>
      </trkpt>
      <trkpt lat="47.45119" lon="6.70074">
        <ele>418.9</ele>
        <time>2014-10-31T14:41:24.000Z</time>
      </trkpt>
      <trkpt lat="47.45118" lon="6.70077">
        <ele>418.4</ele>
        <time>2014-10-31T14:41:25.000Z</time>
      </trkpt>
      <trkpt lat="47.45118" lon="6.70082">
        <ele>416.9</ele>
        <time>2014-10-31T14:41:27.000Z</time>
      </trkpt>
      <trkpt lat="47.45117" lon="6.70085">
        <ele>416.2</ele>
        <time>2014-10-31T14:41:28.000Z</time>
      </trkpt>
      <trkpt lat="47.45116" lon="6.70089">
        <ele>415.7</ele>
        <time>2014-10-31T14:41:30.000Z</time>
      </trkpt>
      <trkpt lat="47.45115" lon="6.70091">
        <ele>415</ele>
        <time>2014-10-31T14:41:31.000Z</time>
      </trkpt>
      <trkpt lat="47.45112" lon="6.70093">
        <ele>413.9</ele>
        <time>2014-10-31T14:41:33.000Z</time>
      </trkpt>
      <trkpt lat="47.4511" lon="6.70093">
        <ele>413.7</ele>
        <time>2014-10-31T14:41:34.000Z</time>
      </trkpt>
      <trkpt lat="47.45107" lon="6.70093">
        <ele>416.3</ele>
        <time>2014-10-31T14:41:36.000Z</time>
      </trkpt>
      <trkpt lat="47.45105" lon="6.70092">
        <ele>416.6</ele>
        <time>2014-10-31T14:41:37.000Z</time>
      </trkpt>
      <trkpt lat="47.451" lon="6.70092">
        <ele>418.1</ele>
        <time>2014-10-31T14:41:40.000Z</time>
      </trkpt>
      <trkpt lat="47.45099" lon="6.70091">
        <ele>417.3</ele>
        <time>2014-10-31T14:41:41.001Z</time>
      </trkpt>
      <trkpt lat="47.45096" lon="6.70091">
        <ele>417.1</ele>
        <time>2014-10-31T14:41:43.000Z</time>
      </trkpt>
      <trkpt lat="47.45093" lon="6.70091">
        <ele>418.2</ele>
        <time>2014-10-31T14:41:44.000Z</time>
      </trkpt>
      <trkpt lat="47.45091" lon="6.70092">
        <ele>417.7</ele>
        <time>2014-10-31T14:41:45.000Z</time>
      </trkpt>
      <trkpt lat="47.45088" lon="6.70093">
        <ele>418.8</ele>
        <time>2014-10-31T14:41:46.000Z</time>
      </trkpt>
      <trkpt lat="47.45086" lon="6.70095">
        <ele>419</ele>
        <time>2014-10-31T14:41:47.000Z</time>
      </trkpt>
      <trkpt lat="47.45084" lon="6.70096">
        <ele>419.1</ele>
        <time>2014-10-31T14:41:48.000Z</time>
      </trkpt>
      <trkpt lat="47.4508" lon="6.70098">
        <ele>420.4</ele>
        <time>2014-10-31T14:41:50.000Z</time>
      </trkpt>
      <trkpt lat="47.45078" lon="6.70099">
        <ele>420.6</ele>
        <time>2014-10-31T14:41:51.000Z</time>
      </trkpt>
      <trkpt lat="47.45076" lon="6.70098">
        <ele>420.8</ele>
        <time>2014-10-31T14:41:52.000Z</time>
      </trkpt>
      <trkpt lat="47.45061" lon="6.70096">
        <ele>419.2</ele>
        <time>2014-10-31T14:42:00.000Z</time>
      </trkpt>
      <trkpt lat="47.45059" lon="6.70097">
        <ele>419.4</ele>
        <time>2014-10-31T14:42:01.000Z</time>
      </trkpt>
      <trkpt lat="47.45057" lon="6.70099">
        <ele>419.6</ele>
        <time>2014-10-31T14:42:02.000Z</time>
      </trkpt>
      <trkpt lat="47.45054" lon="6.70101">
        <ele>420.1</ele>
        <time>2014-10-31T14:42:03.000Z</time>
      </trkpt>
      <trkpt lat="47.45052" lon="6.70102">
        <ele>419.4</ele>
        <time>2014-10-31T14:42:04.000Z</time>
      </trkpt>
      <trkpt lat="47.45049" lon="6.70104">
        <ele>420.2</ele>
        <time>2014-10-31T14:42:05.000Z</time>
      </trkpt>
      <trkpt lat="47.45047" lon="6.70105">
        <ele>419.3</ele>
        <time>2014-10-31T14:42:06.000Z</time>
      </trkpt>
      <trkpt lat="47.45044" lon="6.70107">
        <ele>420.1</ele>
        <time>2014-10-31T14:42:07.000Z</time>
      </trkpt>
      <trkpt lat="47.45042" lon="6.70108">
        <ele>419.7</ele>
        <time>2014-10-31T14:42:08.000Z</time>
      </trkpt>
      <trkpt lat="47.45039" lon="6.7011">
        <ele>419.5</ele>
        <time>2014-10-31T14:42:09.000Z</time>
      </trkpt>
      <trkpt lat="47.45037" lon="6.70111">
        <ele>419.2</ele>
        <time>2014-10-31T14:42:10.000Z</time>
      </trkpt>
      <trkpt lat="47.45034" lon="6.70113">
        <ele>419.7</ele>
        <time>2014-10-31T14:42:11.000Z</time>
      </trkpt>
      <trkpt lat="47.45031" lon="6.70115">
        <ele>417.3</ele>
        <time>2014-10-31T14:42:12.000Z</time>
      </trkpt>
      <trkpt lat="47.45029" lon="6.70117">
        <ele>417.5</ele>
        <time>2014-10-31T14:42:13.000Z</time>
      </trkpt>
      <trkpt lat="47.45026" lon="6.70119">
        <ele>417.4</ele>
        <time>2014-10-31T14:42:14.000Z</time>
      </trkpt>
      <trkpt lat="47.45024" lon="6.70121">
        <ele>417.7</ele>
        <time>2014-10-31T14:42:15.000Z</time>
      </trkpt>
      <trkpt lat="47.45021" lon="6.70124">
        <ele>416.2</ele>
        <time>2014-10-31T14:42:16.000Z</time>
      </trkpt>
      <trkpt lat="47.45019" lon="6.70127">
        <ele>416.6</ele>
        <time>2014-10-31T14:42:17.000Z</time>
      </trkpt>
      <trkpt lat="47.45016" lon="6.70129">
        <ele>416.1</ele>
        <time>2014-10-31T14:42:18.000Z</time>
      </trkpt>
      <trkpt lat="47.45014" lon="6.70131">
        <ele>415.6</ele>
        <time>2014-10-31T14:42:19.000Z</time>
      </trkpt>
      <trkpt lat="47.45012" lon="6.70134">
        <ele>416.4</ele>
        <time>2014-10-31T14:42:20.000Z</time>
      </trkpt>
      <trkpt lat="47.45009" lon="6.70136">
        <ele>417.1</ele>
        <time>2014-10-31T14:42:21.000Z</time>
      </trkpt>
      <trkpt lat="47.45007" lon="6.70139">
        <ele>417.6</ele>
        <time>2014-10-31T14:42:22.000Z</time>
      </trkpt>
      <trkpt lat="47.45004" lon="6.70141">
        <ele>418</ele>
        <time>2014-10-31T14:42:23.000Z</time>
      </trkpt>
      <trkpt lat="47.45002" lon="6.70144">
        <ele>417.9</ele>
        <time>2014-10-31T14:42:24.000Z</time>
      </trkpt>
      <trkpt lat="47.45" lon="6.70147">
        <ele>418</ele>
        <time>2014-10-31T14:42:25.000Z</time>
      </trkpt>
      <trkpt lat="47.44997" lon="6.7015">
        <ele>418.5</ele>
        <time>2014-10-31T14:42:26.000Z</time>
      </trkpt>
      <trkpt lat="47.44995" lon="6.70152">
        <ele>419</ele>
        <time>2014-10-31T14:42:27.000Z</time>
      </trkpt>
      <trkpt lat="47.44993" lon="6.70155">
        <ele>418.4</ele>
        <time>2014-10-31T14:42:28.000Z</time>
      </trkpt>
      <trkpt lat="47.4499" lon="6.70157">
        <ele>418.4</ele>
        <time>2014-10-31T14:42:29.000Z</time>
      </trkpt>
      <trkpt lat="47.44988" lon="6.7016">
        <ele>418.8</ele>
        <time>2014-10-31T14:42:30.000Z</time>
      </trkpt>
      <trkpt lat="47.44986" lon="6.70163">
        <ele>419</ele>
        <time>2014-10-31T14:42:31.000Z</time>
      </trkpt>
      <trkpt lat="47.44984" lon="6.70166">
        <ele>418.7</ele>
        <time>2014-10-31T14:42:32.000Z</time>
      </trkpt>
      <trkpt lat="47.44982" lon="6.70169">
        <ele>418.7</ele>
        <time>2014-10-31T14:42:33.000Z</time>
      </trkpt>
      <trkpt lat="47.4498" lon="6.70172">
        <ele>419.4</ele>
        <time>2014-10-31T14:42:34.000Z</time>
      </trkpt>
      <trkpt lat="47.44977" lon="6.70175">
        <ele>420.3</ele>
        <time>2014-10-31T14:42:35.000Z</time>
      </trkpt>
      <trkpt lat="47.44975" lon="6.70178">
        <ele>420.8</ele>
        <time>2014-10-31T14:42:36.000Z</time>
      </trkpt>
      <trkpt lat="47.44972" lon="6.7018">
        <ele>421.2</ele>
        <time>2014-10-31T14:42:37.000Z</time>
      </trkpt>
      <trkpt lat="47.44969" lon="6.70183">
        <ele>421.3</ele>
        <time>2014-10-31T14:42:38.000Z</time>
      </trkpt>
      <trkpt lat="47.44966" lon="6.70186">
        <ele>420.9</ele>
        <time>2014-10-31T14:42:39.000Z</time>
      </trkpt>
      <trkpt lat="47.44964" lon="6.70189">
        <ele>420.4</ele>
        <time>2014-10-31T14:42:40.000Z</time>
      </trkpt>
      <trkpt lat="47.44961" lon="6.70192">
        <ele>421</ele>
        <time>2014-10-31T14:42:41.000Z</time>
      </trkpt>
      <trkpt lat="47.44959" lon="6.70195">
        <ele>420.7</ele>
        <time>2014-10-31T14:42:42.000Z</time>
      </trkpt>
      <trkpt lat="47.44956" lon="6.70198">
        <ele>421.1</ele>
        <time>2014-10-31T14:42:43.000Z</time>
      </trkpt>
      <trkpt lat="47.44953" lon="6.70201">
        <ele>421.9</ele>
        <time>2014-10-31T14:42:44.000Z</time>
      </trkpt>
      <trkpt lat="47.44951" lon="6.70204">
        <ele>419.5</ele>
        <time>2014-10-31T14:42:45.000Z</time>
      </trkpt>
      <trkpt lat="47.44948" lon="6.70206">
        <ele>419</ele>
        <time>2014-10-31T14:42:46.000Z</time>
      </trkpt>
      <trkpt lat="47.44945" lon="6.70207">
        <ele>420.5</ele>
        <time>2014-10-31T14:42:47.000Z</time>
      </trkpt>
      <trkpt lat="47.44943" lon="6.70209">
        <ele>421.4</ele>
        <time>2014-10-31T14:42:48.000Z</time>
      </trkpt>
      <trkpt lat="47.4494" lon="6.70212">
        <ele>422.4</ele>
        <time>2014-10-31T14:42:49.000Z</time>
      </trkpt>
      <trkpt lat="47.44938" lon="6.70214">
        <ele>423.5</ele>
        <time>2014-10-31T14:42:50.000Z</time>
      </trkpt>
      <trkpt lat="47.44936" lon="6.70216">
        <ele>423.8</ele>
        <time>2014-10-31T14:42:51.000Z</time>
      </trkpt>
      <trkpt lat="47.44933" lon="6.70218">
        <ele>424.2</ele>
        <time>2014-10-31T14:42:52.000Z</time>
      </trkpt>
      <trkpt lat="47.44931" lon="6.70221">
        <ele>424.4</ele>
        <time>2014-10-31T14:42:53.000Z</time>
      </trkpt>
      <trkpt lat="47.4491" lon="6.70242">
        <ele>425.4</ele>
        <time>2014-10-31T14:43:01.000Z</time>
      </trkpt>
      <trkpt lat="47.44908" lon="6.70245">
        <ele>425.9</ele>
        <time>2014-10-31T14:43:02.000Z</time>
      </trkpt>
      <trkpt lat="47.44905" lon="6.70247">
        <ele>425.8</ele>
        <time>2014-10-31T14:43:03.000Z</time>
      </trkpt>
      <trkpt lat="47.44902" lon="6.7025">
        <ele>426.3</ele>
        <time>2014-10-31T14:43:04.000Z</time>
      </trkpt>
      <trkpt lat="47.44899" lon="6.70253">
        <ele>426.9</ele>
        <time>2014-10-31T14:43:05.000Z</time>
      </trkpt>
      <trkpt lat="47.44896" lon="6.70255">
        <ele>427.9</ele>
        <time>2014-10-31T14:43:06.000Z</time>
      </trkpt>
      <trkpt lat="47.44893" lon="6.70258">
        <ele>428.4</ele>
        <time>2014-10-31T14:43:07.000Z</time>
      </trkpt>
      <trkpt lat="47.4489" lon="6.70261">
        <ele>428.7</ele>
        <time>2014-10-31T14:43:08.000Z</time>
      </trkpt>
      <trkpt lat="47.44887" lon="6.70264">
        <ele>428.9</ele>
        <time>2014-10-31T14:43:09.000Z</time>
      </trkpt>
      <trkpt lat="47.44884" lon="6.70268">
        <ele>429.2</ele>
        <time>2014-10-31T14:43:10.000Z</time>
      </trkpt>
      <trkpt lat="47.44882" lon="6.70271">
        <ele>429.7</ele>
        <time>2014-10-31T14:43:11.000Z</time>
      </trkpt>
      <trkpt lat="47.44879" lon="6.70275">
        <ele>430.6</ele>
        <time>2014-10-31T14:43:12.000Z</time>
      </trkpt>
      <trkpt lat="47.44877" lon="6.7028">
        <ele>430.5</ele>
        <time>2014-10-31T14:43:13.000Z</time>
      </trkpt>
      <trkpt lat="47.44875" lon="6.70284">
        <ele>431</ele>
        <time>2014-10-31T14:43:14.000Z</time>
      </trkpt>
      <trkpt lat="47.44873" lon="6.70289">
        <ele>430.5</ele>
        <time>2014-10-31T14:43:15.000Z</time>
      </trkpt>
      <trkpt lat="47.44871" lon="6.70294">
        <ele>430.6</ele>
        <time>2014-10-31T14:43:16.000Z</time>
      </trkpt>
      <trkpt lat="47.4487" lon="6.70299">
        <ele>430.5</ele>
        <time>2014-10-31T14:43:17.000Z</time>
      </trkpt>
      <trkpt lat="47.44868" lon="6.70305">
        <ele>430.9</ele>
        <time>2014-10-31T14:43:18.000Z</time>
      </trkpt>
      <trkpt lat="47.44866" lon="6.70311">
        <ele>431.7</ele>
        <time>2014-10-31T14:43:19.000Z</time>
      </trkpt>
      <trkpt lat="47.44865" lon="6.70317">
        <ele>432</ele>
        <time>2014-10-31T14:43:20.000Z</time>
      </trkpt>
      <trkpt lat="47.44863" lon="6.70323">
        <ele>431.4</ele>
        <time>2014-10-31T14:43:21.000Z</time>
      </trkpt>
      <trkpt lat="47.44862" lon="6.7033">
        <ele>432</ele>
        <time>2014-10-31T14:43:22.000Z</time>
      </trkpt>
      <trkpt lat="47.4486" lon="6.70337">
        <ele>431.4</ele>
        <time>2014-10-31T14:43:23.000Z</time>
      </trkpt>
      <trkpt lat="47.44858" lon="6.70344">
        <ele>432</ele>
        <time>2014-10-31T14:43:24.000Z</time>
      </trkpt>
      <trkpt lat="47.44854" lon="6.70352">
        <ele>431.1</ele>
        <time>2014-10-31T14:43:25.000Z</time>
      </trkpt>
      <trkpt lat="47.4485" lon="6.70359">
        <ele>430.9</ele>
        <time>2014-10-31T14:43:26.000Z</time>
      </trkpt>
      <trkpt lat="47.44845" lon="6.70364">
        <ele>430.2</ele>
        <time>2014-10-31T14:43:27.000Z</time>
      </trkpt>
      <trkpt lat="47.44839" lon="6.70369">
        <ele>430.4</ele>
        <time>2014-10-31T14:43:28.000Z</time>
      </trkpt>
      <trkpt lat="47.44832" lon="6.7037">
        <ele>429.4</ele>
        <time>2014-10-31T14:43:29.000Z</time>
      </trkpt>
      <trkpt lat="47.44824" lon="6.70369">
        <ele>429.8</ele>
        <time>2014-10-31T14:43:30.000Z</time>
      </trkpt>
      <trkpt lat="47.44816" lon="6.70365">
        <ele>428.1</ele>
        <time>2014-10-31T14:43:31.000Z</time>
      </trkpt>
      <trkpt lat="47.44808" lon="6.70362">
        <ele>426.8</ele>
        <time>2014-10-31T14:43:32.000Z</time>
      </trkpt>
      <trkpt lat="47.44799" lon="6.70359">
        <ele>426.7</ele>
        <time>2014-10-31T14:43:33.000Z</time>
      </trkpt>
      <trkpt lat="47.44791" lon="6.70357">
        <ele>427.6</ele>
        <time>2014-10-31T14:43:34.000Z</time>
      </trkpt>
      <trkpt lat="47.44781" lon="6.70356">
        <ele>427</ele>
        <time>2014-10-31T14:43:35.000Z</time>
      </trkpt>
      <trkpt lat="47.44772" lon="6.70355">
        <ele>426.4</ele>
        <time>2014-10-31T14:43:36.000Z</time>
      </trkpt>
      <trkpt lat="47.44764" lon="6.70356">
        <ele>426.5</ele>
        <time>2014-10-31T14:43:37.000Z</time>
      </trkpt>
      <trkpt lat="47.44755" lon="6.70356">
        <ele>425.8</ele>
        <time>2014-10-31T14:43:38.000Z</time>
      </trkpt>
      <trkpt lat="47.44747" lon="6.70359">
        <ele>426</ele>
        <time>2014-10-31T14:43:39.000Z</time>
      </trkpt>
      <trkpt lat="47.44739" lon="6.7036">
        <ele>426.2</ele>
        <time>2014-10-31T14:43:40.000Z</time>
      </trkpt>
      <trkpt lat="47.44732" lon="6.70363">
        <ele>427.2</ele>
        <time>2014-10-31T14:43:41.000Z</time>
      </trkpt>
      <trkpt lat="47.44726" lon="6.70366">
        <ele>427.5</ele>
        <time>2014-10-31T14:43:42.000Z</time>
      </trkpt>
      <trkpt lat="47.44721" lon="6.70369">
        <ele>427.5</ele>
        <time>2014-10-31T14:43:43.000Z</time>
      </trkpt>
      <trkpt lat="47.44716" lon="6.70372">
        <ele>426.4</ele>
        <time>2014-10-31T14:43:44.000Z</time>
      </trkpt>
      <trkpt lat="47.44712" lon="6.70376">
        <ele>425.8</ele>
        <time>2014-10-31T14:43:45.000Z</time>
      </trkpt>
      <trkpt lat="47.44707" lon="6.70379">
        <ele>426.3</ele>
        <time>2014-10-31T14:43:46.000Z</time>
      </trkpt>
      <trkpt lat="47.44703" lon="6.70382">
        <ele>426.9</ele>
        <time>2014-10-31T14:43:47.000Z</time>
      </trkpt>
      <trkpt lat="47.44699" lon="6.70385">
        <ele>427.4</ele>
        <time>2014-10-31T14:43:48.000Z</time>
      </trkpt>
      <trkpt lat="47.44696" lon="6.70389">
        <ele>425.9</ele>
        <time>2014-10-31T14:43:49.000Z</time>
      </trkpt>
      <trkpt lat="47.44692" lon="6.70392">
        <ele>425.5</ele>
        <time>2014-10-31T14:43:50.000Z</time>
      </trkpt>
      <trkpt lat="47.44688" lon="6.70394">
        <ele>425.9</ele>
        <time>2014-10-31T14:43:51.000Z</time>
      </trkpt>
      <trkpt lat="47.44684" lon="6.70395">
        <ele>425.4</ele>
        <time>2014-10-31T14:43:52.000Z</time>
      </trkpt>
      <trkpt lat="47.44681" lon="6.70397">
        <ele>425.4</ele>
        <time>2014-10-31T14:43:53.000Z</time>
      </trkpt>
      <trkpt lat="47.4466" lon="6.70412">
        <ele>425.7</ele>
        <time>2014-10-31T14:44:00.497Z</time>
      </trkpt>
      <trkpt lat="47.44649" lon="6.70416">
        <ele>426.2</ele>
        <time>2014-10-31T14:44:03.000Z</time>
      </trkpt>
      <trkpt lat="47.44644" lon="6.70415">
        <ele>430.7</ele>
        <time>2014-10-31T14:44:06.000Z</time>
      </trkpt>
      <trkpt lat="47.44643" lon="6.70415">
        <ele>430.8</ele>
        <time>2014-10-31T14:44:07.000Z</time>
      </trkpt>
      <trkpt lat="47.44639" lon="6.70415">
        <ele>431.1</ele>
        <time>2014-10-31T14:44:08.000Z</time>
      </trkpt>
      <trkpt lat="47.44636" lon="6.70418">
        <ele>432.1</ele>
        <time>2014-10-31T14:44:09.000Z</time>
      </trkpt>
      <trkpt lat="47.44633" lon="6.70419">
        <ele>433.1</ele>
        <time>2014-10-31T14:44:10.000Z</time>
      </trkpt>
      <trkpt lat="47.4463" lon="6.7042">
        <ele>432.9</ele>
        <time>2014-10-31T14:44:11.000Z</time>
      </trkpt>
      <trkpt lat="47.44627" lon="6.70421">
        <ele>433.5</ele>
        <time>2014-10-31T14:44:12.000Z</time>
      </trkpt>
      <trkpt lat="47.44624" lon="6.70422">
        <ele>433.7</ele>
        <time>2014-10-31T14:44:13.000Z</time>
      </trkpt>
      <trkpt lat="47.44621" lon="6.70423">
        <ele>433.9</ele>
        <time>2014-10-31T14:44:14.000Z</time>
      </trkpt>
      <trkpt lat="47.44618" lon="6.70424">
        <ele>434.3</ele>
        <time>2014-10-31T14:44:15.000Z</time>
      </trkpt>
      <trkpt lat="47.44615" lon="6.70426">
        <ele>434.2</ele>
        <time>2014-10-31T14:44:16.000Z</time>
      </trkpt>
      <trkpt lat="47.44612" lon="6.70428">
        <ele>435.2</ele>
        <time>2014-10-31T14:44:17.000Z</time>
      </trkpt>
      <trkpt lat="47.44608" lon="6.70431">
        <ele>435.1</ele>
        <time>2014-10-31T14:44:18.000Z</time>
      </trkpt>
      <trkpt lat="47.44605" lon="6.70433">
        <ele>435.3</ele>
        <time>2014-10-31T14:44:19.000Z</time>
      </trkpt>
      <trkpt lat="47.44602" lon="6.70436">
        <ele>435.7</ele>
        <time>2014-10-31T14:44:20.000Z</time>
      </trkpt>
      <trkpt lat="47.44599" lon="6.70438">
        <ele>436.1</ele>
        <time>2014-10-31T14:44:21.000Z</time>
      </trkpt>
      <trkpt lat="47.44597" lon="6.70441">
        <ele>436</ele>
        <time>2014-10-31T14:44:22.000Z</time>
      </trkpt>
      <trkpt lat="47.44594" lon="6.70444">
        <ele>436.1</ele>
        <time>2014-10-31T14:44:23.000Z</time>
      </trkpt>
      <trkpt lat="47.44591" lon="6.70447">
        <ele>436.5</ele>
        <time>2014-10-31T14:44:24.000Z</time>
      </trkpt>
      <trkpt lat="47.44589" lon="6.7045">
        <ele>437</ele>
        <time>2014-10-31T14:44:25.000Z</time>
      </trkpt>
      <trkpt lat="47.44586" lon="6.70453">
        <ele>438.6</ele>
        <time>2014-10-31T14:44:26.000Z</time>
      </trkpt>
      <trkpt lat="47.44584" lon="6.70456">
        <ele>439</ele>
        <time>2014-10-31T14:44:27.000Z</time>
      </trkpt>
      <trkpt lat="47.44581" lon="6.70459">
        <ele>440.5</ele>
        <time>2014-10-31T14:44:28.000Z</time>
      </trkpt>
      <trkpt lat="47.44578" lon="6.70461">
        <ele>441.4</ele>
        <time>2014-10-31T14:44:29.000Z</time>
      </trkpt>
      <trkpt lat="47.44575" lon="6.70464">
        <ele>441.8</ele>
        <time>2014-10-31T14:44:30.000Z</time>
      </trkpt>
      <trkpt lat="47.44573" lon="6.70467">
        <ele>442.1</ele>
        <time>2014-10-31T14:44:31.000Z</time>
      </trkpt>
      <trkpt lat="47.4457" lon="6.7047">
        <ele>442.6</ele>
        <time>2014-10-31T14:44:32.000Z</time>
      </trkpt>
      <trkpt lat="47.44567" lon="6.70472">
        <ele>442.8</ele>
        <time>2014-10-31T14:44:33.000Z</time>
      </trkpt>
      <trkpt lat="47.44564" lon="6.70475">
        <ele>442</ele>
        <time>2014-10-31T14:44:34.000Z</time>
      </trkpt>
      <trkpt lat="47.44561" lon="6.70478">
        <ele>441.9</ele>
        <time>2014-10-31T14:44:35.000Z</time>
      </trkpt>
      <trkpt lat="47.44559" lon="6.70481">
        <ele>441.8</ele>
        <time>2014-10-31T14:44:36.000Z</time>
      </trkpt>
      <trkpt lat="47.44557" lon="6.70484">
        <ele>441.7</ele>
        <time>2014-10-31T14:44:37.000Z</time>
      </trkpt>
      <trkpt lat="47.44554" lon="6.70487">
        <ele>441.6</ele>
        <time>2014-10-31T14:44:38.000Z</time>
      </trkpt>
      <trkpt lat="47.44551" lon="6.7049">
        <ele>442.3</ele>
        <time>2014-10-31T14:44:39.000Z</time>
      </trkpt>
      <trkpt lat="47.44548" lon="6.70493">
        <ele>442.3</ele>
        <time>2014-10-31T14:44:40.000Z</time>
      </trkpt>
      <trkpt lat="47.44546" lon="6.70497">
        <ele>441.6</ele>
        <time>2014-10-31T14:44:41.000Z</time>
      </trkpt>
      <trkpt lat="47.44543" lon="6.705">
        <ele>441.5</ele>
        <time>2014-10-31T14:44:42.000Z</time>
      </trkpt>
      <trkpt lat="47.4454" lon="6.70504">
        <ele>441.5</ele>
        <time>2014-10-31T14:44:43.000Z</time>
      </trkpt>
      <trkpt lat="47.44538" lon="6.70508">
        <ele>441.9</ele>
        <time>2014-10-31T14:44:44.000Z</time>
      </trkpt>
      <trkpt lat="47.44535" lon="6.70511">
        <ele>441.9</ele>
        <time>2014-10-31T14:44:45.000Z</time>
      </trkpt>
      <trkpt lat="47.44533" lon="6.70515">
        <ele>441.9</ele>
        <time>2014-10-31T14:44:46.000Z</time>
      </trkpt>
      <trkpt lat="47.4453" lon="6.70519">
        <ele>441.8</ele>
        <time>2014-10-31T14:44:47.000Z</time>
      </trkpt>
      <trkpt lat="47.44528" lon="6.70523">
        <ele>442.1</ele>
        <time>2014-10-31T14:44:48.000Z</time>
      </trkpt>
      <trkpt lat="47.44526" lon="6.70527">
        <ele>442.4</ele>
        <time>2014-10-31T14:44:49.000Z</time>
      </trkpt>
      <trkpt lat="47.44524" lon="6.70531">
        <ele>442.2</ele>
        <time>2014-10-31T14:44:50.000Z</time>
      </trkpt>
      <trkpt lat="47.44522" lon="6.70535">
        <ele>442.6</ele>
        <time>2014-10-31T14:44:51.000Z</time>
      </trkpt>
      <trkpt lat="47.4452" lon="6.70539">
        <ele>442.8</ele>
        <time>2014-10-31T14:44:52.000Z</time>
      </trkpt>
      <trkpt lat="47.44504" lon="6.7057">
        <ele>439.7</ele>
        <time>2014-10-31T14:45:00.000Z</time>
      </trkpt>
      <trkpt lat="47.44502" lon="6.70574">
        <ele>439.5</ele>
        <time>2014-10-31T14:45:01.000Z</time>
      </trkpt>
      <trkpt lat="47.445" lon="6.70578">
        <ele>439.7</ele>
        <time>2014-10-31T14:45:02.000Z</time>
      </trkpt>
      <trkpt lat="47.44498" lon="6.70581">
        <ele>439.4</ele>
        <time>2014-10-31T14:45:03.000Z</time>
      </trkpt>
      <trkpt lat="47.44496" lon="6.70585">
        <ele>438.9</ele>
        <time>2014-10-31T14:45:04.000Z</time>
      </trkpt>
      <trkpt lat="47.44494" lon="6.70589">
        <ele>439.2</ele>
        <time>2014-10-31T14:45:05.000Z</time>
      </trkpt>
      <trkpt lat="47.44492" lon="6.70592">
        <ele>440.6</ele>
        <time>2014-10-31T14:45:06.000Z</time>
      </trkpt>
      <trkpt lat="47.4449" lon="6.70595">
        <ele>442.2</ele>
        <time>2014-10-31T14:45:07.000Z</time>
      </trkpt>
      <trkpt lat="47.44487" lon="6.70599">
        <ele>442.9</ele>
        <time>2014-10-31T14:45:08.000Z</time>
      </trkpt>
      <trkpt lat="47.44485" lon="6.70602">
        <ele>441.5</ele>
        <time>2014-10-31T14:45:09.000Z</time>
      </trkpt>
      <trkpt lat="47.44483" lon="6.70605">
        <ele>441.4</ele>
        <time>2014-10-31T14:45:10.000Z</time>
      </trkpt>
      <trkpt lat="47.4448" lon="6.70608">
        <ele>441.2</ele>
        <time>2014-10-31T14:45:11.000Z</time>
      </trkpt>
      <trkpt lat="47.44478" lon="6.70612">
        <ele>442.7</ele>
        <time>2014-10-31T14:45:12.000Z</time>
      </trkpt>
      <trkpt lat="47.44476" lon="6.70615">
        <ele>441.8</ele>
        <time>2014-10-31T14:45:13.000Z</time>
      </trkpt>
      <trkpt lat="47.44473" lon="6.70619">
        <ele>442.2</ele>
        <time>2014-10-31T14:45:14.000Z</time>
      </trkpt>
      <trkpt lat="47.44471" lon="6.70622">
        <ele>441.8</ele>
        <time>2014-10-31T14:45:15.000Z</time>
      </trkpt>
      <trkpt lat="47.44468" lon="6.70626">
        <ele>442.2</ele>
        <time>2014-10-31T14:45:16.000Z</time>
      </trkpt>
      <trkpt lat="47.44465" lon="6.7063">
        <ele>442.8</ele>
        <time>2014-10-31T14:45:17.000Z</time>
      </trkpt>
      <trkpt lat="47.44462" lon="6.70633">
        <ele>442.6</ele>
        <time>2014-10-31T14:45:18.000Z</time>
      </trkpt>
      <trkpt lat="47.44459" lon="6.70636">
        <ele>443.2</ele>
        <time>2014-10-31T14:45:19.000Z</time>
      </trkpt>
      <trkpt lat="47.44455" lon="6.7064">
        <ele>443.6</ele>
        <time>2014-10-31T14:45:20.000Z</time>
      </trkpt>
      <trkpt lat="47.44453" lon="6.70644">
        <ele>445.1</ele>
        <time>2014-10-31T14:45:21.000Z</time>
      </trkpt>
      <trkpt lat="47.4445" lon="6.70648">
        <ele>444.9</ele>
        <time>2014-10-31T14:45:22.000Z</time>
      </trkpt>
      <trkpt lat="47.44447" lon="6.70652">
        <ele>445.3</ele>
        <time>2014-10-31T14:45:23.000Z</time>
      </trkpt>
      <trkpt lat="47.44444" lon="6.70656">
        <ele>443.8</ele>
        <time>2014-10-31T14:45:24.000Z</time>
      </trkpt>
      <trkpt lat="47.44441" lon="6.70659">
        <ele>444.2</ele>
        <time>2014-10-31T14:45:25.000Z</time>
      </trkpt>
      <trkpt lat="47.44438" lon="6.70663">
        <ele>443.1</ele>
        <time>2014-10-31T14:45:26.000Z</time>
      </trkpt>
      <trkpt lat="47.44436" lon="6.70666">
        <ele>439.7</ele>
        <time>2014-10-31T14:45:27.000Z</time>
      </trkpt>
      <trkpt lat="47.44434" lon="6.7067">
        <ele>436.7</ele>
        <time>2014-10-31T14:45:28.000Z</time>
      </trkpt>
      <trkpt lat="47.44431" lon="6.70673">
        <ele>435.4</ele>
        <time>2014-10-31T14:45:29.000Z</time>
      </trkpt>
      <trkpt lat="47.44429" lon="6.70677">
        <ele>433.9</ele>
        <time>2014-10-31T14:45:30.000Z</time>
      </trkpt>
      <trkpt lat="47.44427" lon="6.70681">
        <ele>433.9</ele>
        <time>2014-10-31T14:45:31.000Z</time>
      </trkpt>
      <trkpt lat="47.44424" lon="6.70684">
        <ele>434.6</ele>
        <time>2014-10-31T14:45:32.000Z</time>
      </trkpt>
      <trkpt lat="47.44421" lon="6.70688">
        <ele>435.7</ele>
        <time>2014-10-31T14:45:33.000Z</time>
      </trkpt>
      <trkpt lat="47.44418" lon="6.70691">
        <ele>436.3</ele>
        <time>2014-10-31T14:45:34.000Z</time>
      </trkpt>
      <trkpt lat="47.44414" lon="6.70694">
        <ele>435.4</ele>
        <time>2014-10-31T14:45:35.000Z</time>
      </trkpt>
      <trkpt lat="47.44411" lon="6.70697">
        <ele>435.5</ele>
        <time>2014-10-31T14:45:36.000Z</time>
      </trkpt>
      <trkpt lat="47.44408" lon="6.707">
        <ele>435.9</ele>
        <time>2014-10-31T14:45:37.000Z</time>
      </trkpt>
      <trkpt lat="47.44405" lon="6.70704">
        <ele>436.2</ele>
        <time>2014-10-31T14:45:38.000Z</time>
      </trkpt>
      <trkpt lat="47.44401" lon="6.70707">
        <ele>436.1</ele>
        <time>2014-10-31T14:45:39.000Z</time>
      </trkpt>
      <trkpt lat="47.44398" lon="6.70711">
        <ele>436</ele>
        <time>2014-10-31T14:45:40.000Z</time>
      </trkpt>
      <trkpt lat="47.44395" lon="6.70714">
        <ele>437.4</ele>
        <time>2014-10-31T14:45:41.000Z</time>
      </trkpt>
      <trkpt lat="47.44392" lon="6.70717">
        <ele>437.5</ele>
        <time>2014-10-31T14:45:42.000Z</time>
      </trkpt>
      <trkpt lat="47.44388" lon="6.70718">
        <ele>438.7</ele>
        <time>2014-10-31T14:45:43.000Z</time>
      </trkpt>
      <trkpt lat="47.44384" lon="6.70719">
        <ele>439.3</ele>
        <time>2014-10-31T14:45:44.000Z</time>
      </trkpt>
      <trkpt lat="47.44381" lon="6.70718">
        <ele>439.2</ele>
        <time>2014-10-31T14:45:45.000Z</time>
      </trkpt>
      <trkpt lat="47.44378" lon="6.70717">
        <ele>440.4</ele>
        <time>2014-10-31T14:45:46.000Z</time>
      </trkpt>
      <trkpt lat="47.44374" lon="6.70716">
        <ele>439.8</ele>
        <time>2014-10-31T14:45:47.000Z</time>
      </trkpt>
      <trkpt lat="47.44371" lon="6.70715">
        <ele>440.2</ele>
        <time>2014-10-31T14:45:48.000Z</time>
      </trkpt>
      <trkpt lat="47.44367" lon="6.70714">
        <ele>440.2</ele>
        <time>2014-10-31T14:45:49.000Z</time>
      </trkpt>
      <trkpt lat="47.44364" lon="6.70714">
        <ele>439.7</ele>
        <time>2014-10-31T14:45:50.000Z</time>
      </trkpt>
      <trkpt lat="47.4436" lon="6.70713">
        <ele>439.3</ele>
        <time>2014-10-31T14:45:51.000Z</time>
      </trkpt>
      <trkpt lat="47.44355" lon="6.70712">
        <ele>438.6</ele>
        <time>2014-10-31T14:45:52.000Z</time>
      </trkpt>
      <trkpt lat="47.44343" lon="6.7071">
        <ele>436.7</ele>
        <time>2014-10-31T14:45:55.000Z</time>
      </trkpt>
      <trkpt lat="47.44339" lon="6.70709">
        <ele>438</ele>
        <time>2014-10-31T14:45:56.000Z</time>
      </trkpt>
      <trkpt lat="47.44334" lon="6.70708">
        <ele>438.5</ele>
        <time>2014-10-31T14:45:57.000Z</time>
      </trkpt>
      <trkpt lat="47.4433" lon="6.70707">
        <ele>438.9</ele>
        <time>2014-10-31T14:45:58.000Z</time>
      </trkpt>
      <trkpt lat="47.44326" lon="6.70708">
        <ele>439.2</ele>
        <time>2014-10-31T14:45:59.000Z</time>
      </trkpt>
      <trkpt lat="47.4432" lon="6.70708">
        <ele>440.5</ele>
        <time>2014-10-31T14:46:00.000Z</time>
      </trkpt>
      <trkpt lat="47.44314" lon="6.70708">
        <ele>441.8</ele>
        <time>2014-10-31T14:46:01.000Z</time>
      </trkpt>
      <trkpt lat="47.4431" lon="6.7071">
        <ele>441.6</ele>
        <time>2014-10-31T14:46:02.000Z</time>
      </trkpt>
      <trkpt lat="47.44305" lon="6.70711">
        <ele>441.1</ele>
        <time>2014-10-31T14:46:03.000Z</time>
      </trkpt>
      <trkpt lat="47.44301" lon="6.70713">
        <ele>442</ele>
        <time>2014-10-31T14:46:04.000Z</time>
      </trkpt>
      <trkpt lat="47.44296" lon="6.70715">
        <ele>443.4</ele>
        <time>2014-10-31T14:46:05.000Z</time>
      </trkpt>
      <trkpt lat="47.44292" lon="6.70717">
        <ele>444.6</ele>
        <time>2014-10-31T14:46:06.000Z</time>
      </trkpt>
      <trkpt lat="47.44287" lon="6.70719">
        <ele>445.6</ele>
        <time>2014-10-31T14:46:07.000Z</time>
      </trkpt>
      <trkpt lat="47.44282" lon="6.70721">
        <ele>446.3</ele>
        <time>2014-10-31T14:46:08.000Z</time>
      </trkpt>
      <trkpt lat="47.44278" lon="6.7072">
        <ele>445.5</ele>
        <time>2014-10-31T14:46:09.000Z</time>
      </trkpt>
      <trkpt lat="47.44273" lon="6.70721">
        <ele>446.5</ele>
        <time>2014-10-31T14:46:10.000Z</time>
      </trkpt>
      <trkpt lat="47.44268" lon="6.70726">
        <ele>444.7</ele>
        <time>2014-10-31T14:46:11.000Z</time>
      </trkpt>
      <trkpt lat="47.44263" lon="6.70728">
        <ele>446.2</ele>
        <time>2014-10-31T14:46:12.000Z</time>
      </trkpt>
      <trkpt lat="47.44259" lon="6.7073">
        <ele>446.9</ele>
        <time>2014-10-31T14:46:13.000Z</time>
      </trkpt>
      <trkpt lat="47.44255" lon="6.70732">
        <ele>449.3</ele>
        <time>2014-10-31T14:46:14.000Z</time>
      </trkpt>
      <trkpt lat="47.4425" lon="6.70735">
        <ele>449.5</ele>
        <time>2014-10-31T14:46:15.000Z</time>
      </trkpt>
      <trkpt lat="47.44246" lon="6.70737">
        <ele>449.9</ele>
        <time>2014-10-31T14:46:16.000Z</time>
      </trkpt>
      <trkpt lat="47.44242" lon="6.70738">
        <ele>449</ele>
        <time>2014-10-31T14:46:17.000Z</time>
      </trkpt>
      <trkpt lat="47.44238" lon="6.70739">
        <ele>448.8</ele>
        <time>2014-10-31T14:46:18.000Z</time>
      </trkpt>
      <trkpt lat="47.44234" lon="6.70741">
        <ele>449.1</ele>
        <time>2014-10-31T14:46:19.000Z</time>
      </trkpt>
      <trkpt lat="47.44232" lon="6.70747">
        <ele>445.5</ele>
        <time>2014-10-31T14:46:20.000Z</time>
      </trkpt>
      <trkpt lat="47.44229" lon="6.70749">
        <ele>444.1</ele>
        <time>2014-10-31T14:46:21.000Z</time>
      </trkpt>
      <trkpt lat="47.44225" lon="6.70751">
        <ele>444</ele>
        <time>2014-10-31T14:46:22.000Z</time>
      </trkpt>
      <trkpt lat="47.44223" lon="6.70752">
        <ele>444.5</ele>
        <time>2014-10-31T14:46:23.000Z</time>
      </trkpt>
      <trkpt lat="47.44219" lon="6.70752">
        <ele>445.6</ele>
        <time>2014-10-31T14:46:24.000Z</time>
      </trkpt>
      <trkpt lat="47.44216" lon="6.70756">
        <ele>446.2</ele>
        <time>2014-10-31T14:46:25.000Z</time>
      </trkpt>
      <trkpt lat="47.44212" lon="6.70758">
        <ele>446.9</ele>
        <time>2014-10-31T14:46:26.000Z</time>
      </trkpt>
      <trkpt lat="47.44207" lon="6.7076">
        <ele>448.8</ele>
        <time>2014-10-31T14:46:27.000Z</time>
      </trkpt>
      <trkpt lat="47.44203" lon="6.70763">
        <ele>448.9</ele>
        <time>2014-10-31T14:46:28.000Z</time>
      </trkpt>
      <trkpt lat="47.44201" lon="6.70765">
        <ele>448.7</ele>
        <time>2014-10-31T14:46:29.000Z</time>
      </trkpt>
      <trkpt lat="47.44197" lon="6.70766">
        <ele>448.3</ele>
        <time>2014-10-31T14:46:30.000Z</time>
      </trkpt>
      <trkpt lat="47.44193" lon="6.70768">
        <ele>448.2</ele>
        <time>2014-10-31T14:46:31.000Z</time>
      </trkpt>
      <trkpt lat="47.44189" lon="6.7077">
        <ele>447.9</ele>
        <time>2014-10-31T14:46:32.000Z</time>
      </trkpt>
      <trkpt lat="47.44185" lon="6.70771">
        <ele>448.2</ele>
        <time>2014-10-31T14:46:33.000Z</time>
      </trkpt>
      <trkpt lat="47.44181" lon="6.70773">
        <ele>448.1</ele>
        <time>2014-10-31T14:46:34.000Z</time>
      </trkpt>
      <trkpt lat="47.44177" lon="6.70774">
        <ele>449.1</ele>
        <time>2014-10-31T14:46:35.000Z</time>
      </trkpt>
      <trkpt lat="47.44172" lon="6.70775">
        <ele>448.1</ele>
        <time>2014-10-31T14:46:36.000Z</time>
      </trkpt>
      <trkpt lat="47.44169" lon="6.70777">
        <ele>447.8</ele>
        <time>2014-10-31T14:46:37.000Z</time>
      </trkpt>
      <trkpt lat="47.44164" lon="6.70778">
        <ele>447.4</ele>
        <time>2014-10-31T14:46:38.000Z</time>
      </trkpt>
      <trkpt lat="47.4416" lon="6.70778">
        <ele>447.1</ele>
        <time>2014-10-31T14:46:39.000Z</time>
      </trkpt>
      <trkpt lat="47.44156" lon="6.70779">
        <ele>446.7</ele>
        <time>2014-10-31T14:46:40.000Z</time>
      </trkpt>
      <trkpt lat="47.44152" lon="6.7078">
        <ele>446.1</ele>
        <time>2014-10-31T14:46:41.000Z</time>
      </trkpt>
      <trkpt lat="47.44148" lon="6.7078">
        <ele>444.9</ele>
        <time>2014-10-31T14:46:42.000Z</time>
      </trkpt>
      <trkpt lat="47.44144" lon="6.7078">
        <ele>445.2</ele>
        <time>2014-10-31T14:46:43.000Z</time>
      </trkpt>
      <trkpt lat="47.44138" lon="6.70779">
        <ele>445.2</ele>
        <time>2014-10-31T14:46:44.000Z</time>
      </trkpt>
      <trkpt lat="47.44134" lon="6.70779">
        <ele>444.8</ele>
        <time>2014-10-31T14:46:45.000Z</time>
      </trkpt>
      <trkpt lat="47.4413" lon="6.70779">
        <ele>444.5</ele>
        <time>2014-10-31T14:46:46.000Z</time>
      </trkpt>
      <trkpt lat="47.44126" lon="6.70779">
        <ele>445.2</ele>
        <time>2014-10-31T14:46:47.000Z</time>
      </trkpt>
      <trkpt lat="47.44122" lon="6.7078">
        <ele>444.8</ele>
        <time>2014-10-31T14:46:48.000Z</time>
      </trkpt>
      <trkpt lat="47.44118" lon="6.70781">
        <ele>444.6</ele>
        <time>2014-10-31T14:46:49.000Z</time>
      </trkpt>
      <trkpt lat="47.44113" lon="6.70782">
        <ele>444.9</ele>
        <time>2014-10-31T14:46:50.000Z</time>
      </trkpt>
      <trkpt lat="47.44109" lon="6.70784">
        <ele>445.2</ele>
        <time>2014-10-31T14:46:51.000Z</time>
      </trkpt>
      <trkpt lat="47.44105" lon="6.70788">
        <ele>445.5</ele>
        <time>2014-10-31T14:46:52.000Z</time>
      </trkpt>
      <trkpt lat="47.4408" lon="6.70829">
        <ele>447.6</ele>
        <time>2014-10-31T14:47:00.000Z</time>
      </trkpt>
      <trkpt lat="47.44077" lon="6.70835">
        <ele>448</ele>
        <time>2014-10-31T14:47:01.000Z</time>
      </trkpt>
      <trkpt lat="47.44073" lon="6.70838">
        <ele>451.8</ele>
        <time>2014-10-31T14:47:02.000Z</time>
      </trkpt>
      <trkpt lat="47.4407" lon="6.70842">
        <ele>452.7</ele>
        <time>2014-10-31T14:47:03.000Z</time>
      </trkpt>
      <trkpt lat="47.44067" lon="6.70849">
        <ele>453.8</ele>
        <time>2014-10-31T14:47:04.000Z</time>
      </trkpt>
      <trkpt lat="47.44065" lon="6.70854">
        <ele>454.3</ele>
        <time>2014-10-31T14:47:05.000Z</time>
      </trkpt>
      <trkpt lat="47.44063" lon="6.70861">
        <ele>454.2</ele>
        <time>2014-10-31T14:47:06.000Z</time>
      </trkpt>
      <trkpt lat="47.44061" lon="6.70867">
        <ele>454.7</ele>
        <time>2014-10-31T14:47:07.000Z</time>
      </trkpt>
      <trkpt lat="47.44058" lon="6.70875">
        <ele>454.6</ele>
        <time>2014-10-31T14:47:08.000Z</time>
      </trkpt>
      <trkpt lat="47.44056" lon="6.70881">
        <ele>454.8</ele>
        <time>2014-10-31T14:47:09.000Z</time>
      </trkpt>
      <trkpt lat="47.44054" lon="6.70887">
        <ele>455.5</ele>
        <time>2014-10-31T14:47:10.000Z</time>
      </trkpt>
      <trkpt lat="47.44052" lon="6.70893">
        <ele>456.2</ele>
        <time>2014-10-31T14:47:11.000Z</time>
      </trkpt>
      <trkpt lat="47.4405" lon="6.70899">
        <ele>456.8</ele>
        <time>2014-10-31T14:47:12.000Z</time>
      </trkpt>
      <trkpt lat="47.44048" lon="6.70906">
        <ele>457.1</ele>
        <time>2014-10-31T14:47:13.000Z</time>
      </trkpt>
      <trkpt lat="47.44047" lon="6.70911">
        <ele>458.7</ele>
        <time>2014-10-31T14:47:14.000Z</time>
      </trkpt>
      <trkpt lat="47.44045" lon="6.70918">
        <ele>458.9</ele>
        <time>2014-10-31T14:47:15.000Z</time>
      </trkpt>
      <trkpt lat="47.44043" lon="6.70924">
        <ele>458</ele>
        <time>2014-10-31T14:47:16.000Z</time>
      </trkpt>
      <trkpt lat="47.4404" lon="6.7093">
        <ele>458</ele>
        <time>2014-10-31T14:47:17.000Z</time>
      </trkpt>
      <trkpt lat="47.44038" lon="6.70937">
        <ele>458.5</ele>
        <time>2014-10-31T14:47:18.000Z</time>
      </trkpt>
      <trkpt lat="47.44035" lon="6.70943">
        <ele>458.8</ele>
        <time>2014-10-31T14:47:19.000Z</time>
      </trkpt>
      <trkpt lat="47.44033" lon="6.7095">
        <ele>458.9</ele>
        <time>2014-10-31T14:47:20.000Z</time>
      </trkpt>
      <trkpt lat="47.44031" lon="6.70956">
        <ele>459.8</ele>
        <time>2014-10-31T14:47:21.000Z</time>
      </trkpt>
      <trkpt lat="47.44029" lon="6.70961">
        <ele>459.3</ele>
        <time>2014-10-31T14:47:22.000Z</time>
      </trkpt>
      <trkpt lat="47.44027" lon="6.70966">
        <ele>460.4</ele>
        <time>2014-10-31T14:47:23.000Z</time>
      </trkpt>
      <trkpt lat="47.44025" lon="6.70973">
        <ele>460.4</ele>
        <time>2014-10-31T14:47:24.000Z</time>
      </trkpt>
      <trkpt lat="47.44023" lon="6.70978">
        <ele>460.6</ele>
        <time>2014-10-31T14:47:25.000Z</time>
      </trkpt>
      <trkpt lat="47.4402" lon="6.70983">
        <ele>460.5</ele>
        <time>2014-10-31T14:47:26.000Z</time>
      </trkpt>
      <trkpt lat="47.44018" lon="6.70989">
        <ele>459.8</ele>
        <time>2014-10-31T14:47:27.000Z</time>
      </trkpt>
      <trkpt lat="47.44016" lon="6.70996">
        <ele>461.2</ele>
        <time>2014-10-31T14:47:28.000Z</time>
      </trkpt>
      <trkpt lat="47.44014" lon="6.71001">
        <ele>461.5</ele>
        <time>2014-10-31T14:47:29.000Z</time>
      </trkpt>
      <trkpt lat="47.44012" lon="6.71006">
        <ele>460.7</ele>
        <time>2014-10-31T14:47:30.000Z</time>
      </trkpt>
      <trkpt lat="47.4401" lon="6.71012">
        <ele>461.2</ele>
        <time>2014-10-31T14:47:31.000Z</time>
      </trkpt>
      <trkpt lat="47.44007" lon="6.71017">
        <ele>461</ele>
        <time>2014-10-31T14:47:32.000Z</time>
      </trkpt>
      <trkpt lat="47.44004" lon="6.71022">
        <ele>460.1</ele>
        <time>2014-10-31T14:47:33.000Z</time>
      </trkpt>
      <trkpt lat="47.44001" lon="6.71027">
        <ele>460.3</ele>
        <time>2014-10-31T14:47:34.000Z</time>
      </trkpt>
      <trkpt lat="47.43998" lon="6.71031">
        <ele>460.8</ele>
        <time>2014-10-31T14:47:35.000Z</time>
      </trkpt>
      <trkpt lat="47.43994" lon="6.71036">
        <ele>461.1</ele>
        <time>2014-10-31T14:47:36.000Z</time>
      </trkpt>
      <trkpt lat="47.43991" lon="6.71039">
        <ele>462.9</ele>
        <time>2014-10-31T14:47:37.000Z</time>
      </trkpt>
      <trkpt lat="47.43987" lon="6.71044">
        <ele>464.2</ele>
        <time>2014-10-31T14:47:38.000Z</time>
      </trkpt>
      <trkpt lat="47.43984" lon="6.71047">
        <ele>465.3</ele>
        <time>2014-10-31T14:47:39.000Z</time>
      </trkpt>
      <trkpt lat="47.43981" lon="6.7105">
        <ele>465.7</ele>
        <time>2014-10-31T14:47:40.000Z</time>
      </trkpt>
      <trkpt lat="47.43978" lon="6.71053">
        <ele>465.4</ele>
        <time>2014-10-31T14:47:41.000Z</time>
      </trkpt>
      <trkpt lat="47.43976" lon="6.71056">
        <ele>465</ele>
        <time>2014-10-31T14:47:42.000Z</time>
      </trkpt>
      <trkpt lat="47.43973" lon="6.71059">
        <ele>464.1</ele>
        <time>2014-10-31T14:47:43.000Z</time>
      </trkpt>
      <trkpt lat="47.4397" lon="6.71062">
        <ele>464.1</ele>
        <time>2014-10-31T14:47:44.000Z</time>
      </trkpt>
      <trkpt lat="47.43967" lon="6.71065">
        <ele>464.4</ele>
        <time>2014-10-31T14:47:45.000Z</time>
      </trkpt>
      <trkpt lat="47.43965" lon="6.71069">
        <ele>464.1</ele>
        <time>2014-10-31T14:47:46.000Z</time>
      </trkpt>
      <trkpt lat="47.43962" lon="6.71072">
        <ele>463.3</ele>
        <time>2014-10-31T14:47:47.000Z</time>
      </trkpt>
      <trkpt lat="47.4396" lon="6.71075">
        <ele>463.3</ele>
        <time>2014-10-31T14:47:48.000Z</time>
      </trkpt>
      <trkpt lat="47.43957" lon="6.71078">
        <ele>463.5</ele>
        <time>2014-10-31T14:47:49.000Z</time>
      </trkpt>
      <trkpt lat="47.43955" lon="6.71081">
        <ele>463.4</ele>
        <time>2014-10-31T14:47:50.000Z</time>
      </trkpt>
      <trkpt lat="47.43952" lon="6.71084">
        <ele>463.9</ele>
        <time>2014-10-31T14:47:51.000Z</time>
      </trkpt>
      <trkpt lat="47.4395" lon="6.71088">
        <ele>463.3</ele>
        <time>2014-10-31T14:47:52.000Z</time>
      </trkpt>
      <trkpt lat="47.43932" lon="6.71112">
        <ele>461.7</ele>
        <time>2014-10-31T14:48:00.000Z</time>
      </trkpt>
      <trkpt lat="47.4393" lon="6.71115">
        <ele>462.5</ele>
        <time>2014-10-31T14:48:01.000Z</time>
      </trkpt>
      <trkpt lat="47.43927" lon="6.71118">
        <ele>463.7</ele>
        <time>2014-10-31T14:48:02.000Z</time>
      </trkpt>
      <trkpt lat="47.43924" lon="6.71121">
        <ele>464.2</ele>
        <time>2014-10-31T14:48:03.000Z</time>
      </trkpt>
      <trkpt lat="47.43921" lon="6.71124">
        <ele>464.4</ele>
        <time>2014-10-31T14:48:04.000Z</time>
      </trkpt>
      <trkpt lat="47.43918" lon="6.71127">
        <ele>463.1</ele>
        <time>2014-10-31T14:48:05.000Z</time>
      </trkpt>
      <trkpt lat="47.43916" lon="6.71131">
        <ele>463.4</ele>
        <time>2014-10-31T14:48:06.000Z</time>
      </trkpt>
      <trkpt lat="47.43913" lon="6.71133">
        <ele>463.2</ele>
        <time>2014-10-31T14:48:07.000Z</time>
      </trkpt>
      <trkpt lat="47.4391" lon="6.71136">
        <ele>463.7</ele>
        <time>2014-10-31T14:48:08.000Z</time>
      </trkpt>
      <trkpt lat="47.43907" lon="6.71139">
        <ele>462.9</ele>
        <time>2014-10-31T14:48:09.000Z</time>
      </trkpt>
      <trkpt lat="47.43905" lon="6.71142">
        <ele>463.5</ele>
        <time>2014-10-31T14:48:10.000Z</time>
      </trkpt>
      <trkpt lat="47.43902" lon="6.71144">
        <ele>464.2</ele>
        <time>2014-10-31T14:48:11.000Z</time>
      </trkpt>
      <trkpt lat="47.43899" lon="6.71147">
        <ele>464.4</ele>
        <time>2014-10-31T14:48:12.000Z</time>
      </trkpt>
      <trkpt lat="47.43896" lon="6.7115">
        <ele>464</ele>
        <time>2014-10-31T14:48:13.000Z</time>
      </trkpt>
      <trkpt lat="47.43894" lon="6.71153">
        <ele>465</ele>
        <time>2014-10-31T14:48:14.000Z</time>
      </trkpt>
      <trkpt lat="47.43893" lon="6.71157">
        <ele>465.1</ele>
        <time>2014-10-31T14:48:15.000Z</time>
      </trkpt>
      <trkpt lat="47.43891" lon="6.71162">
        <ele>466.9</ele>
        <time>2014-10-31T14:48:16.000Z</time>
      </trkpt>
      <trkpt lat="47.43891" lon="6.71167">
        <ele>467.8</ele>
        <time>2014-10-31T14:48:17.000Z</time>
      </trkpt>
      <trkpt lat="47.43891" lon="6.71172">
        <ele>469</ele>
        <time>2014-10-31T14:48:18.000Z</time>
      </trkpt>
      <trkpt lat="47.43892" lon="6.71177">
        <ele>469.7</ele>
        <time>2014-10-31T14:48:19.000Z</time>
      </trkpt>
      <trkpt lat="47.43893" lon="6.71182">
        <ele>468.9</ele>
        <time>2014-10-31T14:48:20.000Z</time>
      </trkpt>
      <trkpt lat="47.43893" lon="6.71187">
        <ele>468.8</ele>
        <time>2014-10-31T14:48:21.000Z</time>
      </trkpt>
      <trkpt lat="47.43893" lon="6.71192">
        <ele>469</ele>
        <time>2014-10-31T14:48:22.000Z</time>
      </trkpt>
      <trkpt lat="47.43892" lon="6.71197">
        <ele>469.5</ele>
        <time>2014-10-31T14:48:23.000Z</time>
      </trkpt>
      <trkpt lat="47.43892" lon="6.71202">
        <ele>469.8</ele>
        <time>2014-10-31T14:48:24.000Z</time>
      </trkpt>
      <trkpt lat="47.43892" lon="6.71207">
        <ele>469.8</ele>
        <time>2014-10-31T14:48:25.000Z</time>
      </trkpt>
      <trkpt lat="47.43892" lon="6.71213">
        <ele>469.8</ele>
        <time>2014-10-31T14:48:26.000Z</time>
      </trkpt>
      <trkpt lat="47.43892" lon="6.71218">
        <ele>470</ele>
        <time>2014-10-31T14:48:27.000Z</time>
      </trkpt>
      <trkpt lat="47.43891" lon="6.71224">
        <ele>469.6</ele>
        <time>2014-10-31T14:48:28.000Z</time>
      </trkpt>
      <trkpt lat="47.43891" lon="6.71229">
        <ele>470.4</ele>
        <time>2014-10-31T14:48:29.000Z</time>
      </trkpt>
      <trkpt lat="47.4389" lon="6.71235">
        <ele>469.9</ele>
        <time>2014-10-31T14:48:30.000Z</time>
      </trkpt>
      <trkpt lat="47.43889" lon="6.7124">
        <ele>470.9</ele>
        <time>2014-10-31T14:48:31.000Z</time>
      </trkpt>
      <trkpt lat="47.43888" lon="6.71245">
        <ele>471.2</ele>
        <time>2014-10-31T14:48:32.000Z</time>
      </trkpt>
      <trkpt lat="47.43886" lon="6.7125">
        <ele>470.7</ele>
        <time>2014-10-31T14:48:33.000Z</time>
      </trkpt>
      <trkpt lat="47.43885" lon="6.71255">
        <ele>470.3</ele>
        <time>2014-10-31T14:48:34.000Z</time>
      </trkpt>
      <trkpt lat="47.43884" lon="6.71261">
        <ele>470.1</ele>
        <time>2014-10-31T14:48:35.000Z</time>
      </trkpt>
      <trkpt lat="47.43883" lon="6.71268">
        <ele>467.8</ele>
        <time>2014-10-31T14:48:36.000Z</time>
      </trkpt>
      <trkpt lat="47.43882" lon="6.7128">
        <ele>466.3</ele>
        <time>2014-10-31T14:48:37.000Z</time>
      </trkpt>
      <trkpt lat="47.43882" lon="6.71284">
        <ele>461.7</ele>
        <time>2014-10-31T14:48:38.000Z</time>
      </trkpt>
      <trkpt lat="47.43881" lon="6.71291">
        <ele>461.5</ele>
        <time>2014-10-31T14:48:39.000Z</time>
      </trkpt>
      <trkpt lat="47.43879" lon="6.71296">
        <ele>462.4</ele>
        <time>2014-10-31T14:48:40.000Z</time>
      </trkpt>
      <trkpt lat="47.43878" lon="6.71303">
        <ele>463.3</ele>
        <time>2014-10-31T14:48:41.000Z</time>
      </trkpt>
      <trkpt lat="47.43878" lon="6.71311">
        <ele>463</ele>
        <time>2014-10-31T14:48:42.000Z</time>
      </trkpt>
      <trkpt lat="47.43878" lon="6.71318">
        <ele>462</ele>
        <time>2014-10-31T14:48:43.000Z</time>
      </trkpt>
      <trkpt lat="47.43877" lon="6.71325">
        <ele>462</ele>
        <time>2014-10-31T14:48:44.000Z</time>
      </trkpt>
      <trkpt lat="47.43876" lon="6.71332">
        <ele>463.2</ele>
        <time>2014-10-31T14:48:45.000Z</time>
      </trkpt>
      <trkpt lat="47.43877" lon="6.71338">
        <ele>463.1</ele>
        <time>2014-10-31T14:48:46.000Z</time>
      </trkpt>
      <trkpt lat="47.43876" lon="6.71345">
        <ele>462.5</ele>
        <time>2014-10-31T14:48:47.000Z</time>
      </trkpt>
      <trkpt lat="47.43876" lon="6.71353">
        <ele>462.8</ele>
        <time>2014-10-31T14:48:48.000Z</time>
      </trkpt>
      <trkpt lat="47.43874" lon="6.71359">
        <ele>464.1</ele>
        <time>2014-10-31T14:48:49.000Z</time>
      </trkpt>
      <trkpt lat="47.43873" lon="6.71367">
        <ele>464.5</ele>
        <time>2014-10-31T14:48:50.000Z</time>
      </trkpt>
      <trkpt lat="47.43872" lon="6.71373">
        <ele>464.2</ele>
        <time>2014-10-31T14:48:51.000Z</time>
      </trkpt>
      <trkpt lat="47.43871" lon="6.71381">
        <ele>463.8</ele>
        <time>2014-10-31T14:48:52.000Z</time>
      </trkpt>
      <trkpt lat="47.43855" lon="6.71446">
        <ele>463.6</ele>
        <time>2014-10-31T14:49:01.000Z</time>
      </trkpt>
      <trkpt lat="47.43853" lon="6.71454">
        <ele>463.8</ele>
        <time>2014-10-31T14:49:02.000Z</time>
      </trkpt>
      <trkpt lat="47.4385" lon="6.7146">
        <ele>464</ele>
        <time>2014-10-31T14:49:03.000Z</time>
      </trkpt>
      <trkpt lat="47.43846" lon="6.71468">
        <ele>466.2</ele>
        <time>2014-10-31T14:49:04.000Z</time>
      </trkpt>
      <trkpt lat="47.43842" lon="6.71474">
        <ele>466.7</ele>
        <time>2014-10-31T14:49:05.000Z</time>
      </trkpt>
      <trkpt lat="47.43839" lon="6.71483">
        <ele>467.2</ele>
        <time>2014-10-31T14:49:06.000Z</time>
      </trkpt>
      <trkpt lat="47.43835" lon="6.71492">
        <ele>466.5</ele>
        <time>2014-10-31T14:49:07.000Z</time>
      </trkpt>
      <trkpt lat="47.43831" lon="6.71501">
        <ele>466.6</ele>
        <time>2014-10-31T14:49:08.000Z</time>
      </trkpt>
      <trkpt lat="47.43828" lon="6.71508">
        <ele>466.1</ele>
        <time>2014-10-31T14:49:09.000Z</time>
      </trkpt>
      <trkpt lat="47.43827" lon="6.71518">
        <ele>466.1</ele>
        <time>2014-10-31T14:49:10.000Z</time>
      </trkpt>
      <trkpt lat="47.43825" lon="6.71526">
        <ele>466.3</ele>
        <time>2014-10-31T14:49:11.000Z</time>
      </trkpt>
      <trkpt lat="47.43824" lon="6.71537">
        <ele>466.5</ele>
        <time>2014-10-31T14:49:12.000Z</time>
      </trkpt>
      <trkpt lat="47.43823" lon="6.71546">
        <ele>467.1</ele>
        <time>2014-10-31T14:49:13.000Z</time>
      </trkpt>
      <trkpt lat="47.43821" lon="6.71557">
        <ele>466.8</ele>
        <time>2014-10-31T14:49:14.000Z</time>
      </trkpt>
      <trkpt lat="47.43822" lon="6.71567">
        <ele>466.4</ele>
        <time>2014-10-31T14:49:15.000Z</time>
      </trkpt>
      <trkpt lat="47.43819" lon="6.71575">
        <ele>467.7</ele>
        <time>2014-10-31T14:49:16.000Z</time>
      </trkpt>
      <trkpt lat="47.43819" lon="6.71584">
        <ele>468</ele>
        <time>2014-10-31T14:49:17.000Z</time>
      </trkpt>
      <trkpt lat="47.4382" lon="6.71594">
        <ele>468.7</ele>
        <time>2014-10-31T14:49:18.000Z</time>
      </trkpt>
      <trkpt lat="47.43821" lon="6.71603">
        <ele>467.5</ele>
        <time>2014-10-31T14:49:19.000Z</time>
      </trkpt>
      <trkpt lat="47.43822" lon="6.71611">
        <ele>467.7</ele>
        <time>2014-10-31T14:49:20.000Z</time>
      </trkpt>
      <trkpt lat="47.43821" lon="6.71617">
        <ele>467.5</ele>
        <time>2014-10-31T14:49:21.000Z</time>
      </trkpt>
      <trkpt lat="47.43822" lon="6.71626">
        <ele>467.7</ele>
        <time>2014-10-31T14:49:22.000Z</time>
      </trkpt>
      <trkpt lat="47.43823" lon="6.71633">
        <ele>467.2</ele>
        <time>2014-10-31T14:49:23.000Z</time>
      </trkpt>
      <trkpt lat="47.43823" lon="6.7164">
        <ele>469.3</ele>
        <time>2014-10-31T14:49:24.000Z</time>
      </trkpt>
      <trkpt lat="47.43824" lon="6.71648">
        <ele>470.5</ele>
        <time>2014-10-31T14:49:25.000Z</time>
      </trkpt>
      <trkpt lat="47.43825" lon="6.71656">
        <ele>471.8</ele>
        <time>2014-10-31T14:49:26.000Z</time>
      </trkpt>
      <trkpt lat="47.43827" lon="6.71662">
        <ele>472.9</ele>
        <time>2014-10-31T14:49:27.000Z</time>
      </trkpt>
      <trkpt lat="47.43829" lon="6.71671">
        <ele>472</ele>
        <time>2014-10-31T14:49:28.000Z</time>
      </trkpt>
      <trkpt lat="47.43829" lon="6.71678">
        <ele>473.2</ele>
        <time>2014-10-31T14:49:29.000Z</time>
      </trkpt>
      <trkpt lat="47.43831" lon="6.71684">
        <ele>473.7</ele>
        <time>2014-10-31T14:49:30.000Z</time>
      </trkpt>
      <trkpt lat="47.43834" lon="6.71691">
        <ele>472.4</ele>
        <time>2014-10-31T14:49:31.000Z</time>
      </trkpt>
      <trkpt lat="47.43835" lon="6.71698">
        <ele>472.4</ele>
        <time>2014-10-31T14:49:32.000Z</time>
      </trkpt>
      <trkpt lat="47.43837" lon="6.71706">
        <ele>472.7</ele>
        <time>2014-10-31T14:49:33.000Z</time>
      </trkpt>
      <trkpt lat="47.43839" lon="6.71713">
        <ele>474</ele>
        <time>2014-10-31T14:49:34.000Z</time>
      </trkpt>
      <trkpt lat="47.43841" lon="6.7172">
        <ele>473.8</ele>
        <time>2014-10-31T14:49:35.000Z</time>
      </trkpt>
      <trkpt lat="47.43843" lon="6.71728">
        <ele>473.3</ele>
        <time>2014-10-31T14:49:36.000Z</time>
      </trkpt>
      <trkpt lat="47.43846" lon="6.71736">
        <ele>473</ele>
        <time>2014-10-31T14:49:37.000Z</time>
      </trkpt>
      <trkpt lat="47.43847" lon="6.71743">
        <ele>473.6</ele>
        <time>2014-10-31T14:49:38.000Z</time>
      </trkpt>
      <trkpt lat="47.43849" lon="6.7175">
        <ele>474.4</ele>
        <time>2014-10-31T14:49:39.000Z</time>
      </trkpt>
      <trkpt lat="47.43851" lon="6.71757">
        <ele>474.6</ele>
        <time>2014-10-31T14:49:40.000Z</time>
      </trkpt>
      <trkpt lat="47.43853" lon="6.71766">
        <ele>474.6</ele>
        <time>2014-10-31T14:49:41.000Z</time>
      </trkpt>
      <trkpt lat="47.43855" lon="6.71773">
        <ele>472.8</ele>
        <time>2014-10-31T14:49:42.000Z</time>
      </trkpt>
      <trkpt lat="47.43857" lon="6.71781">
        <ele>473.5</ele>
        <time>2014-10-31T14:49:43.000Z</time>
      </trkpt>
      <trkpt lat="47.43859" lon="6.71789">
        <ele>473.2</ele>
        <time>2014-10-31T14:49:44.000Z</time>
      </trkpt>
      <trkpt lat="47.43862" lon="6.71797">
        <ele>472.1</ele>
        <time>2014-10-31T14:49:45.000Z</time>
      </trkpt>
      <trkpt lat="47.43866" lon="6.71805">
        <ele>471.5</ele>
        <time>2014-10-31T14:49:46.000Z</time>
      </trkpt>
      <trkpt lat="47.43868" lon="6.71813">
        <ele>471.1</ele>
        <time>2014-10-31T14:49:47.000Z</time>
      </trkpt>
      <trkpt lat="47.4387" lon="6.71821">
        <ele>468.9</ele>
        <time>2014-10-31T14:49:48.000Z</time>
      </trkpt>
      <trkpt lat="47.43873" lon="6.71829">
        <ele>469.6</ele>
        <time>2014-10-31T14:49:49.000Z</time>
      </trkpt>
      <trkpt lat="47.43875" lon="6.71839">
        <ele>469.1</ele>
        <time>2014-10-31T14:49:50.000Z</time>
      </trkpt>
      <trkpt lat="47.43877" lon="6.71848">
        <ele>469.9</ele>
        <time>2014-10-31T14:49:51.000Z</time>
      </trkpt>
      <trkpt lat="47.4388" lon="6.71858">
        <ele>469.5</ele>
        <time>2014-10-31T14:49:52.000Z</time>
      </trkpt>
      <trkpt lat="47.43888" lon="6.71884">
        <ele>466.9</ele>
        <time>2014-10-31T14:49:55.000Z</time>
      </trkpt>
      <trkpt lat="47.43891" lon="6.71894">
        <ele>466.6</ele>
        <time>2014-10-31T14:49:56.000Z</time>
      </trkpt>
      <trkpt lat="47.43892" lon="6.71903">
        <ele>467</ele>
        <time>2014-10-31T14:49:57.000Z</time>
      </trkpt>
      <trkpt lat="47.43893" lon="6.71912">
        <ele>466.7</ele>
        <time>2014-10-31T14:49:58.000Z</time>
      </trkpt>
      <trkpt lat="47.43895" lon="6.7192">
        <ele>466.9</ele>
        <time>2014-10-31T14:49:59.000Z</time>
      </trkpt>
      <trkpt lat="47.43896" lon="6.71929">
        <ele>465.8</ele>
        <time>2014-10-31T14:50:00.000Z</time>
      </trkpt>
      <trkpt lat="47.43898" lon="6.71937">
        <ele>466</ele>
        <time>2014-10-31T14:50:01.000Z</time>
      </trkpt>
      <trkpt lat="47.439" lon="6.71946">
        <ele>465.9</ele>
        <time>2014-10-31T14:50:02.000Z</time>
      </trkpt>
      <trkpt lat="47.43902" lon="6.71954">
        <ele>465.9</ele>
        <time>2014-10-31T14:50:03.000Z</time>
      </trkpt>
      <trkpt lat="47.43904" lon="6.71964">
        <ele>465.4</ele>
        <time>2014-10-31T14:50:04.000Z</time>
      </trkpt>
      <trkpt lat="47.43905" lon="6.71973">
        <ele>465.6</ele>
        <time>2014-10-31T14:50:05.000Z</time>
      </trkpt>
      <trkpt lat="47.43907" lon="6.7198">
        <ele>465.9</ele>
        <time>2014-10-31T14:50:06.000Z</time>
      </trkpt>
      <trkpt lat="47.43909" lon="6.71989">
        <ele>466.1</ele>
        <time>2014-10-31T14:50:07.000Z</time>
      </trkpt>
      <trkpt lat="47.43911" lon="6.71999">
        <ele>465.8</ele>
        <time>2014-10-31T14:50:08.000Z</time>
      </trkpt>
      <trkpt lat="47.43913" lon="6.72007">
        <ele>467.2</ele>
        <time>2014-10-31T14:50:09.000Z</time>
      </trkpt>
      <trkpt lat="47.43915" lon="6.72016">
        <ele>467.6</ele>
        <time>2014-10-31T14:50:10.000Z</time>
      </trkpt>
      <trkpt lat="47.43916" lon="6.72025">
        <ele>468.2</ele>
        <time>2014-10-31T14:50:11.000Z</time>
      </trkpt>
      <trkpt lat="47.43918" lon="6.72033">
        <ele>468.5</ele>
        <time>2014-10-31T14:50:12.000Z</time>
      </trkpt>
      <trkpt lat="47.4392" lon="6.72041">
        <ele>469.6</ele>
        <time>2014-10-31T14:50:13.000Z</time>
      </trkpt>
      <trkpt lat="47.43921" lon="6.7205">
        <ele>469.4</ele>
        <time>2014-10-31T14:50:14.000Z</time>
      </trkpt>
      <trkpt lat="47.43922" lon="6.72059">
        <ele>468.6</ele>
        <time>2014-10-31T14:50:15.000Z</time>
      </trkpt>
      <trkpt lat="47.43923" lon="6.72069">
        <ele>467.7</ele>
        <time>2014-10-31T14:50:16.000Z</time>
      </trkpt>
      <trkpt lat="47.43923" lon="6.72079">
        <ele>467.8</ele>
        <time>2014-10-31T14:50:17.000Z</time>
      </trkpt>
      <trkpt lat="47.43923" lon="6.72088">
        <ele>467</ele>
        <time>2014-10-31T14:50:18.000Z</time>
      </trkpt>
      <trkpt lat="47.43921" lon="6.72097">
        <ele>466.9</ele>
        <time>2014-10-31T14:50:19.000Z</time>
      </trkpt>
      <trkpt lat="47.43919" lon="6.72105">
        <ele>466.9</ele>
        <time>2014-10-31T14:50:20.000Z</time>
      </trkpt>
      <trkpt lat="47.43915" lon="6.72114">
        <ele>465.7</ele>
        <time>2014-10-31T14:50:21.000Z</time>
      </trkpt>
      <trkpt lat="47.43911" lon="6.72121">
        <ele>465.7</ele>
        <time>2014-10-31T14:50:22.000Z</time>
      </trkpt>
      <trkpt lat="47.43905" lon="6.72128">
        <ele>465.7</ele>
        <time>2014-10-31T14:50:23.000Z</time>
      </trkpt>
      <trkpt lat="47.439" lon="6.72134">
        <ele>464.7</ele>
        <time>2014-10-31T14:50:24.000Z</time>
      </trkpt>
      <trkpt lat="47.43894" lon="6.72139">
        <ele>464</ele>
        <time>2014-10-31T14:50:25.000Z</time>
      </trkpt>
      <trkpt lat="47.43888" lon="6.72144">
        <ele>463.3</ele>
        <time>2014-10-31T14:50:26.000Z</time>
      </trkpt>
      <trkpt lat="47.43882" lon="6.7215">
        <ele>462.6</ele>
        <time>2014-10-31T14:50:27.000Z</time>
      </trkpt>
      <trkpt lat="47.43875" lon="6.72156">
        <ele>463.4</ele>
        <time>2014-10-31T14:50:28.000Z</time>
      </trkpt>
      <trkpt lat="47.43869" lon="6.72162">
        <ele>462.6</ele>
        <time>2014-10-31T14:50:29.000Z</time>
      </trkpt>
      <trkpt lat="47.43863" lon="6.72167">
        <ele>461.8</ele>
        <time>2014-10-31T14:50:30.000Z</time>
      </trkpt>
      <trkpt lat="47.43857" lon="6.72173">
        <ele>461.2</ele>
        <time>2014-10-31T14:50:31.000Z</time>
      </trkpt>
      <trkpt lat="47.43852" lon="6.72179">
        <ele>460</ele>
        <time>2014-10-31T14:50:32.000Z</time>
      </trkpt>
      <trkpt lat="47.43847" lon="6.72185">
        <ele>459.9</ele>
        <time>2014-10-31T14:50:33.000Z</time>
      </trkpt>
      <trkpt lat="47.43843" lon="6.7219">
        <ele>460.6</ele>
        <time>2014-10-31T14:50:34.000Z</time>
      </trkpt>
      <trkpt lat="47.43838" lon="6.72196">
        <ele>460.5</ele>
        <time>2014-10-31T14:50:35.000Z</time>
      </trkpt>
      <trkpt lat="47.43834" lon="6.72202">
        <ele>460.9</ele>
        <time>2014-10-31T14:50:36.000Z</time>
      </trkpt>
      <trkpt lat="47.43829" lon="6.72207">
        <ele>461.6</ele>
        <time>2014-10-31T14:50:37.000Z</time>
      </trkpt>
      <trkpt lat="47.43825" lon="6.72212">
        <ele>462</ele>
        <time>2014-10-31T14:50:38.000Z</time>
      </trkpt>
      <trkpt lat="47.43821" lon="6.72217">
        <ele>462.5</ele>
        <time>2014-10-31T14:50:39.000Z</time>
      </trkpt>
      <trkpt lat="47.43817" lon="6.72222">
        <ele>462.8</ele>
        <time>2014-10-31T14:50:40.000Z</time>
      </trkpt>
      <trkpt lat="47.43813" lon="6.72226">
        <ele>463</ele>
        <time>2014-10-31T14:50:41.000Z</time>
      </trkpt>
      <trkpt lat="47.43809" lon="6.72231">
        <ele>462.8</ele>
        <time>2014-10-31T14:50:42.000Z</time>
      </trkpt>
      <trkpt lat="47.43805" lon="6.72236">
        <ele>462.9</ele>
        <time>2014-10-31T14:50:43.000Z</time>
      </trkpt>
      <trkpt lat="47.43801" lon="6.72241">
        <ele>463.2</ele>
        <time>2014-10-31T14:50:44.000Z</time>
      </trkpt>
      <trkpt lat="47.43797" lon="6.72247">
        <ele>463</ele>
        <time>2014-10-31T14:50:45.000Z</time>
      </trkpt>
      <trkpt lat="47.43793" lon="6.72253">
        <ele>461.4</ele>
        <time>2014-10-31T14:50:46.000Z</time>
      </trkpt>
      <trkpt lat="47.4379" lon="6.72259">
        <ele>462</ele>
        <time>2014-10-31T14:50:47.000Z</time>
      </trkpt>
      <trkpt lat="47.43786" lon="6.72265">
        <ele>462</ele>
        <time>2014-10-31T14:50:48.000Z</time>
      </trkpt>
      <trkpt lat="47.43784" lon="6.7227">
        <ele>462.2</ele>
        <time>2014-10-31T14:50:49.000Z</time>
      </trkpt>
      <trkpt lat="47.43779" lon="6.72275">
        <ele>461.5</ele>
        <time>2014-10-31T14:50:50.000Z</time>
      </trkpt>
      <trkpt lat="47.43776" lon="6.7228">
        <ele>461.6</ele>
        <time>2014-10-31T14:50:51.000Z</time>
      </trkpt>
      <trkpt lat="47.43771" lon="6.72286">
        <ele>462</ele>
        <time>2014-10-31T14:50:52.000Z</time>
      </trkpt>
      <trkpt lat="47.4376" lon="6.72299">
        <ele>462.2</ele>
        <time>2014-10-31T14:50:55.000Z</time>
      </trkpt>
      <trkpt lat="47.43757" lon="6.72304">
        <ele>462</ele>
        <time>2014-10-31T14:50:56.000Z</time>
      </trkpt>
      <trkpt lat="47.43755" lon="6.72309">
        <ele>462</ele>
        <time>2014-10-31T14:50:57.000Z</time>
      </trkpt>
      <trkpt lat="47.43755" lon="6.72312">
        <ele>462.7</ele>
        <time>2014-10-31T14:50:58.000Z</time>
      </trkpt>
      <trkpt lat="47.43754" lon="6.72317">
        <ele>462.1</ele>
        <time>2014-10-31T14:50:59.000Z</time>
      </trkpt>
      <trkpt lat="47.43756" lon="6.72321">
        <ele>461.7</ele>
        <time>2014-10-31T14:51:00.000Z</time>
      </trkpt>
      <trkpt lat="47.43757" lon="6.72325">
        <ele>463.4</ele>
        <time>2014-10-31T14:51:01.000Z</time>
      </trkpt>
      <trkpt lat="47.4376" lon="6.7233">
        <ele>463.2</ele>
        <time>2014-10-31T14:51:02.000Z</time>
      </trkpt>
      <trkpt lat="47.43763" lon="6.72336">
        <ele>464</ele>
        <time>2014-10-31T14:51:03.000Z</time>
      </trkpt>
      <trkpt lat="47.43766" lon="6.72341">
        <ele>464</ele>
        <time>2014-10-31T14:51:04.000Z</time>
      </trkpt>
      <trkpt lat="47.4377" lon="6.72347">
        <ele>464.5</ele>
        <time>2014-10-31T14:51:05.000Z</time>
      </trkpt>
      <trkpt lat="47.43774" lon="6.72353">
        <ele>464</ele>
        <time>2014-10-31T14:51:06.000Z</time>
      </trkpt>
      <trkpt lat="47.43778" lon="6.72358">
        <ele>464</ele>
        <time>2014-10-31T14:51:07.000Z</time>
      </trkpt>
      <trkpt lat="47.43782" lon="6.72363">
        <ele>464.7</ele>
        <time>2014-10-31T14:51:08.000Z</time>
      </trkpt>
      <trkpt lat="47.43786" lon="6.72367">
        <ele>464.1</ele>
        <time>2014-10-31T14:51:09.000Z</time>
      </trkpt>
      <trkpt lat="47.4379" lon="6.72372">
        <ele>464.6</ele>
        <time>2014-10-31T14:51:10.000Z</time>
      </trkpt>
      <trkpt lat="47.43794" lon="6.72376">
        <ele>463.9</ele>
        <time>2014-10-31T14:51:11.000Z</time>
      </trkpt>
      <trkpt lat="47.43798" lon="6.7238">
        <ele>463.7</ele>
        <time>2014-10-31T14:51:12.000Z</time>
      </trkpt>
      <trkpt lat="47.43802" lon="6.72385">
        <ele>463.9</ele>
        <time>2014-10-31T14:51:13.000Z</time>
      </trkpt>
      <trkpt lat="47.43806" lon="6.72389">
        <ele>463.3</ele>
        <time>2014-10-31T14:51:14.000Z</time>
      </trkpt>
      <trkpt lat="47.4381" lon="6.72393">
        <ele>463.3</ele>
        <time>2014-10-31T14:51:15.000Z</time>
      </trkpt>
      <trkpt lat="47.43814" lon="6.72398">
        <ele>463.5</ele>
        <time>2014-10-31T14:51:16.000Z</time>
      </trkpt>
      <trkpt lat="47.43818" lon="6.72403">
        <ele>462.9</ele>
        <time>2014-10-31T14:51:17.000Z</time>
      </trkpt>
      <trkpt lat="47.43822" lon="6.72407">
        <ele>463.1</ele>
        <time>2014-10-31T14:51:18.000Z</time>
      </trkpt>
      <trkpt lat="47.43826" lon="6.72412">
        <ele>462.6</ele>
        <time>2014-10-31T14:51:19.000Z</time>
      </trkpt>
      <trkpt lat="47.43831" lon="6.72416">
        <ele>463.2</ele>
        <time>2014-10-31T14:51:20.000Z</time>
      </trkpt>
      <trkpt lat="47.43835" lon="6.7242">
        <ele>463.2</ele>
        <time>2014-10-31T14:51:21.000Z</time>
      </trkpt>
      <trkpt lat="47.4384" lon="6.72426">
        <ele>463.2</ele>
        <time>2014-10-31T14:51:22.000Z</time>
      </trkpt>
      <trkpt lat="47.43844" lon="6.72431">
        <ele>463.4</ele>
        <time>2014-10-31T14:51:23.000Z</time>
      </trkpt>
      <trkpt lat="47.43848" lon="6.72436">
        <ele>463.8</ele>
        <time>2014-10-31T14:51:24.000Z</time>
      </trkpt>
      <trkpt lat="47.43853" lon="6.7244">
        <ele>464.3</ele>
        <time>2014-10-31T14:51:25.000Z</time>
      </trkpt>
      <trkpt lat="47.43857" lon="6.72444">
        <ele>464.7</ele>
        <time>2014-10-31T14:51:26.000Z</time>
      </trkpt>
      <trkpt lat="47.43862" lon="6.72449">
        <ele>464.8</ele>
        <time>2014-10-31T14:51:27.000Z</time>
      </trkpt>
      <trkpt lat="47.43868" lon="6.72453">
        <ele>465.1</ele>
        <time>2014-10-31T14:51:28.000Z</time>
      </trkpt>
      <trkpt lat="47.43873" lon="6.72457">
        <ele>464.1</ele>
        <time>2014-10-31T14:51:29.000Z</time>
      </trkpt>
      <trkpt lat="47.43877" lon="6.7246">
        <ele>464.3</ele>
        <time>2014-10-31T14:51:30.000Z</time>
      </trkpt>
      <trkpt lat="47.4388" lon="6.72465">
        <ele>464.1</ele>
        <time>2014-10-31T14:51:31.000Z</time>
      </trkpt>
      <trkpt lat="47.43885" lon="6.7247">
        <ele>463.8</ele>
        <time>2014-10-31T14:51:32.000Z</time>
      </trkpt>
      <trkpt lat="47.43888" lon="6.72473">
        <ele>462.8</ele>
        <time>2014-10-31T14:51:33.000Z</time>
      </trkpt>
      <trkpt lat="47.43892" lon="6.72476">
        <ele>461.6</ele>
        <time>2014-10-31T14:51:34.000Z</time>
      </trkpt>
      <trkpt lat="47.43895" lon="6.7248">
        <ele>462</ele>
        <time>2014-10-31T14:51:35.000Z</time>
      </trkpt>
      <trkpt lat="47.43899" lon="6.72484">
        <ele>461.4</ele>
        <time>2014-10-31T14:51:36.000Z</time>
      </trkpt>
      <trkpt lat="47.43903" lon="6.72488">
        <ele>461.7</ele>
        <time>2014-10-31T14:51:37.000Z</time>
      </trkpt>
      <trkpt lat="47.43907" lon="6.72491">
        <ele>462.5</ele>
        <time>2014-10-31T14:51:38.000Z</time>
      </trkpt>
      <trkpt lat="47.43911" lon="6.72495">
        <ele>462.9</ele>
        <time>2014-10-31T14:51:39.000Z</time>
      </trkpt>
      <trkpt lat="47.43916" lon="6.72499">
        <ele>463</ele>
        <time>2014-10-31T14:51:40.000Z</time>
      </trkpt>
      <trkpt lat="47.43921" lon="6.72501">
        <ele>463.4</ele>
        <time>2014-10-31T14:51:41.000Z</time>
      </trkpt>
      <trkpt lat="47.43926" lon="6.72503">
        <ele>464.1</ele>
        <time>2014-10-31T14:51:42.000Z</time>
      </trkpt>
      <trkpt lat="47.43931" lon="6.72504">
        <ele>463.9</ele>
        <time>2014-10-31T14:51:43.000Z</time>
      </trkpt>
      <trkpt lat="47.43936" lon="6.72504">
        <ele>464.2</ele>
        <time>2014-10-31T14:51:44.000Z</time>
      </trkpt>
      <trkpt lat="47.43942" lon="6.72502">
        <ele>463.9</ele>
        <time>2014-10-31T14:51:45.000Z</time>
      </trkpt>
      <trkpt lat="47.43947" lon="6.725">
        <ele>463.5</ele>
        <time>2014-10-31T14:51:46.000Z</time>
      </trkpt>
      <trkpt lat="47.43953" lon="6.72498">
        <ele>460.6</ele>
        <time>2014-10-31T14:51:47.000Z</time>
      </trkpt>
      <trkpt lat="47.4396" lon="6.72497">
        <ele>459.3</ele>
        <time>2014-10-31T14:51:48.000Z</time>
      </trkpt>
      <trkpt lat="47.43965" lon="6.72494">
        <ele>459.2</ele>
        <time>2014-10-31T14:51:49.000Z</time>
      </trkpt>
      <trkpt lat="47.43971" lon="6.72492">
        <ele>459.1</ele>
        <time>2014-10-31T14:51:50.000Z</time>
      </trkpt>
      <trkpt lat="47.43976" lon="6.72489">
        <ele>459.9</ele>
        <time>2014-10-31T14:51:51.000Z</time>
      </trkpt>
      <trkpt lat="47.43981" lon="6.72487">
        <ele>460.7</ele>
        <time>2014-10-31T14:51:52.000Z</time>
      </trkpt>
      <trkpt lat="47.44023" lon="6.72469">
        <ele>460.6</ele>
        <time>2014-10-31T14:52:00.000Z</time>
      </trkpt>
      <trkpt lat="47.44029" lon="6.72467">
        <ele>460.4</ele>
        <time>2014-10-31T14:52:01.000Z</time>
      </trkpt>
      <trkpt lat="47.44035" lon="6.72466">
        <ele>460.2</ele>
        <time>2014-10-31T14:52:02.000Z</time>
      </trkpt>
      <trkpt lat="47.4404" lon="6.72464">
        <ele>460</ele>
        <time>2014-10-31T14:52:03.000Z</time>
      </trkpt>
      <trkpt lat="47.44045" lon="6.72462">
        <ele>459.4</ele>
        <time>2014-10-31T14:52:04.000Z</time>
      </trkpt>
      <trkpt lat="47.44051" lon="6.7246">
        <ele>459.9</ele>
        <time>2014-10-31T14:52:05.000Z</time>
      </trkpt>
      <trkpt lat="47.44056" lon="6.72456">
        <ele>459.5</ele>
        <time>2014-10-31T14:52:06.000Z</time>
      </trkpt>
      <trkpt lat="47.44061" lon="6.72454">
        <ele>459.3</ele>
        <time>2014-10-31T14:52:07.000Z</time>
      </trkpt>
      <trkpt lat="47.44065" lon="6.72453">
        <ele>460.4</ele>
        <time>2014-10-31T14:52:08.000Z</time>
      </trkpt>
      <trkpt lat="47.4407" lon="6.72451">
        <ele>461.5</ele>
        <time>2014-10-31T14:52:09.000Z</time>
      </trkpt>
      <trkpt lat="47.44074" lon="6.7245">
        <ele>461.7</ele>
        <time>2014-10-31T14:52:10.000Z</time>
      </trkpt>
      <trkpt lat="47.44078" lon="6.72448">
        <ele>463</ele>
        <time>2014-10-31T14:52:11.000Z</time>
      </trkpt>
      <trkpt lat="47.44082" lon="6.72446">
        <ele>463.7</ele>
        <time>2014-10-31T14:52:12.000Z</time>
      </trkpt>
      <trkpt lat="47.44086" lon="6.72445">
        <ele>463.6</ele>
        <time>2014-10-31T14:52:13.000Z</time>
      </trkpt>
      <trkpt lat="47.44089" lon="6.72443">
        <ele>463.8</ele>
        <time>2014-10-31T14:52:14.000Z</time>
      </trkpt>
      <trkpt lat="47.44093" lon="6.72443">
        <ele>464.7</ele>
        <time>2014-10-31T14:52:15.000Z</time>
      </trkpt>
      <trkpt lat="47.44096" lon="6.72443">
        <ele>464.7</ele>
        <time>2014-10-31T14:52:16.000Z</time>
      </trkpt>
      <trkpt lat="47.44099" lon="6.72441">
        <ele>465.3</ele>
        <time>2014-10-31T14:52:17.000Z</time>
      </trkpt>
      <trkpt lat="47.44103" lon="6.72439">
        <ele>465.7</ele>
        <time>2014-10-31T14:52:18.000Z</time>
      </trkpt>
      <trkpt lat="47.44108" lon="6.72438">
        <ele>466</ele>
        <time>2014-10-31T14:52:19.000Z</time>
      </trkpt>
      <trkpt lat="47.44114" lon="6.72435">
        <ele>463.5</ele>
        <time>2014-10-31T14:52:20.000Z</time>
      </trkpt>
      <trkpt lat="47.44117" lon="6.72433">
        <ele>462.7</ele>
        <time>2014-10-31T14:52:21.000Z</time>
      </trkpt>
      <trkpt lat="47.44121" lon="6.72432">
        <ele>462.5</ele>
        <time>2014-10-31T14:52:22.000Z</time>
      </trkpt>
      <trkpt lat="47.44125" lon="6.72431">
        <ele>462.6</ele>
        <time>2014-10-31T14:52:23.000Z</time>
      </trkpt>
      <trkpt lat="47.44127" lon="6.72426">
        <ele>464.2</ele>
        <time>2014-10-31T14:52:24.000Z</time>
      </trkpt>
      <trkpt lat="47.4413" lon="6.72423">
        <ele>464.2</ele>
        <time>2014-10-31T14:52:25.000Z</time>
      </trkpt>
      <trkpt lat="47.44136" lon="6.72422">
        <ele>465</ele>
        <time>2014-10-31T14:52:26.000Z</time>
      </trkpt>
      <trkpt lat="47.44139" lon="6.72421">
        <ele>467.5</ele>
        <time>2014-10-31T14:52:28.000Z</time>
      </trkpt>
      <trkpt lat="47.44142" lon="6.72422">
        <ele>469.6</ele>
        <time>2014-10-31T14:52:29.000Z</time>
      </trkpt>
      <trkpt lat="47.44145" lon="6.72421">
        <ele>471.1</ele>
        <time>2014-10-31T14:52:30.000Z</time>
      </trkpt>
      <trkpt lat="47.44148" lon="6.7242">
        <ele>472.2</ele>
        <time>2014-10-31T14:52:31.000Z</time>
      </trkpt>
      <trkpt lat="47.44151" lon="6.72419">
        <ele>473.1</ele>
        <time>2014-10-31T14:52:32.000Z</time>
      </trkpt>
      <trkpt lat="47.44155" lon="6.72419">
        <ele>473.9</ele>
        <time>2014-10-31T14:52:33.000Z</time>
      </trkpt>
      <trkpt lat="47.44158" lon="6.72418">
        <ele>474</ele>
        <time>2014-10-31T14:52:34.000Z</time>
      </trkpt>
      <trkpt lat="47.44162" lon="6.72418">
        <ele>472.9</ele>
        <time>2014-10-31T14:52:35.000Z</time>
      </trkpt>
      <trkpt lat="47.44166" lon="6.72418">
        <ele>471.9</ele>
        <time>2014-10-31T14:52:36.000Z</time>
      </trkpt>
      <trkpt lat="47.4417" lon="6.72417">
        <ele>471.1</ele>
        <time>2014-10-31T14:52:37.000Z</time>
      </trkpt>
      <trkpt lat="47.44174" lon="6.72416">
        <ele>470.9</ele>
        <time>2014-10-31T14:52:38.000Z</time>
      </trkpt>
      <trkpt lat="47.44179" lon="6.72415">
        <ele>471.6</ele>
        <time>2014-10-31T14:52:39.000Z</time>
      </trkpt>
      <trkpt lat="47.44183" lon="6.72413">
        <ele>472.3</ele>
        <time>2014-10-31T14:52:40.000Z</time>
      </trkpt>
      <trkpt lat="47.44187" lon="6.72412">
        <ele>470.6</ele>
        <time>2014-10-31T14:52:41.000Z</time>
      </trkpt>
      <trkpt lat="47.44191" lon="6.7241">
        <ele>472.7</ele>
        <time>2014-10-31T14:52:42.000Z</time>
      </trkpt>
      <trkpt lat="47.44194" lon="6.7241">
        <ele>474.3</ele>
        <time>2014-10-31T14:52:43.000Z</time>
      </trkpt>
      <trkpt lat="47.44198" lon="6.7241">
        <ele>472.4</ele>
        <time>2014-10-31T14:52:44.000Z</time>
      </trkpt>
      <trkpt lat="47.44202" lon="6.72409">
        <ele>472.6</ele>
        <time>2014-10-31T14:52:45.000Z</time>
      </trkpt>
      <trkpt lat="47.44206" lon="6.72408">
        <ele>472.7</ele>
        <time>2014-10-31T14:52:46.000Z</time>
      </trkpt>
      <trkpt lat="47.44211" lon="6.72407">
        <ele>474.1</ele>
        <time>2014-10-31T14:52:47.000Z</time>
      </trkpt>
      <trkpt lat="47.44215" lon="6.72406">
        <ele>473.8</ele>
        <time>2014-10-31T14:52:48.000Z</time>
      </trkpt>
      <trkpt lat="47.4422" lon="6.72405">
        <ele>472.5</ele>
        <time>2014-10-31T14:52:49.000Z</time>
      </trkpt>
      <trkpt lat="47.44228" lon="6.72405">
        <ele>473.9</ele>
        <time>2014-10-31T14:52:50.000Z</time>
      </trkpt>
      <trkpt lat="47.44232" lon="6.72403">
        <ele>475.1</ele>
        <time>2014-10-31T14:52:51.000Z</time>
      </trkpt>
      <trkpt lat="47.44237" lon="6.72403">
        <ele>475.4</ele>
        <time>2014-10-31T14:52:52.000Z</time>
      </trkpt>
      <trkpt lat="47.44276" lon="6.72394">
        <ele>473.5</ele>
        <time>2014-10-31T14:53:00.000Z</time>
      </trkpt>
      <trkpt lat="47.44282" lon="6.72392">
        <ele>473.8</ele>
        <time>2014-10-31T14:53:01.000Z</time>
      </trkpt>
      <trkpt lat="47.44286" lon="6.72387">
        <ele>476.8</ele>
        <time>2014-10-31T14:53:02.000Z</time>
      </trkpt>
      <trkpt lat="47.4429" lon="6.72385">
        <ele>476.1</ele>
        <time>2014-10-31T14:53:03.000Z</time>
      </trkpt>
      <trkpt lat="47.44295" lon="6.72384">
        <ele>477.9</ele>
        <time>2014-10-31T14:53:04.000Z</time>
      </trkpt>
      <trkpt lat="47.443" lon="6.72382">
        <ele>481.8</ele>
        <time>2014-10-31T14:53:05.000Z</time>
      </trkpt>
      <trkpt lat="47.44308" lon="6.72385">
        <ele>474.1</ele>
        <time>2014-10-31T14:53:06.000Z</time>
      </trkpt>
      <trkpt lat="47.44315" lon="6.72383">
        <ele>473.3</ele>
        <time>2014-10-31T14:53:07.000Z</time>
      </trkpt>
      <trkpt lat="47.44321" lon="6.72381">
        <ele>473.8</ele>
        <time>2014-10-31T14:53:08.000Z</time>
      </trkpt>
      <trkpt lat="47.44331" lon="6.72378">
        <ele>471.9</ele>
        <time>2014-10-31T14:53:09.000Z</time>
      </trkpt>
      <trkpt lat="47.44337" lon="6.72377">
        <ele>472</ele>
        <time>2014-10-31T14:53:10.000Z</time>
      </trkpt>
      <trkpt lat="47.44342" lon="6.72373">
        <ele>472.5</ele>
        <time>2014-10-31T14:53:11.000Z</time>
      </trkpt>
      <trkpt lat="47.44347" lon="6.72371">
        <ele>473.9</ele>
        <time>2014-10-31T14:53:12.000Z</time>
      </trkpt>
      <trkpt lat="47.44351" lon="6.72369">
        <ele>473.7</ele>
        <time>2014-10-31T14:53:13.000Z</time>
      </trkpt>
      <trkpt lat="47.44358" lon="6.72367">
        <ele>472.2</ele>
        <time>2014-10-31T14:53:14.000Z</time>
      </trkpt>
      <trkpt lat="47.44363" lon="6.72366">
        <ele>471.5</ele>
        <time>2014-10-31T14:53:15.000Z</time>
      </trkpt>
      <trkpt lat="47.4437" lon="6.72363">
        <ele>471.2</ele>
        <time>2014-10-31T14:53:16.000Z</time>
      </trkpt>
      <trkpt lat="47.44374" lon="6.72362">
        <ele>469.4</ele>
        <time>2014-10-31T14:53:17.000Z</time>
      </trkpt>
      <trkpt lat="47.44379" lon="6.72362">
        <ele>468.4</ele>
        <time>2014-10-31T14:53:18.000Z</time>
      </trkpt>
      <trkpt lat="47.44385" lon="6.7236">
        <ele>468.1</ele>
        <time>2014-10-31T14:53:19.000Z</time>
      </trkpt>
      <trkpt lat="47.44391" lon="6.72358">
        <ele>467.5</ele>
        <time>2014-10-31T14:53:20.000Z</time>
      </trkpt>
      <trkpt lat="47.44397" lon="6.72355">
        <ele>468.6</ele>
        <time>2014-10-31T14:53:21.000Z</time>
      </trkpt>
      <trkpt lat="47.44403" lon="6.72353">
        <ele>468.8</ele>
        <time>2014-10-31T14:53:22.000Z</time>
      </trkpt>
      <trkpt lat="47.44409" lon="6.72353">
        <ele>468.3</ele>
        <time>2014-10-31T14:53:23.000Z</time>
      </trkpt>
      <trkpt lat="47.44415" lon="6.72351">
        <ele>469.8</ele>
        <time>2014-10-31T14:53:24.000Z</time>
      </trkpt>
      <trkpt lat="47.4442" lon="6.72351">
        <ele>468.8</ele>
        <time>2014-10-31T14:53:25.000Z</time>
      </trkpt>
      <trkpt lat="47.44425" lon="6.72351">
        <ele>467.7</ele>
        <time>2014-10-31T14:53:26.000Z</time>
      </trkpt>
      <trkpt lat="47.44432" lon="6.7235">
        <ele>466.8</ele>
        <time>2014-10-31T14:53:27.000Z</time>
      </trkpt>
      <trkpt lat="47.44438" lon="6.7235">
        <ele>466.1</ele>
        <time>2014-10-31T14:53:28.000Z</time>
      </trkpt>
      <trkpt lat="47.44444" lon="6.7235">
        <ele>465.7</ele>
        <time>2014-10-31T14:53:29.000Z</time>
      </trkpt>
      <trkpt lat="47.4445" lon="6.72349">
        <ele>465.7</ele>
        <time>2014-10-31T14:53:30.000Z</time>
      </trkpt>
      <trkpt lat="47.44456" lon="6.72348">
        <ele>465.3</ele>
        <time>2014-10-31T14:53:31.000Z</time>
      </trkpt>
      <trkpt lat="47.44462" lon="6.72347">
        <ele>464.8</ele>
        <time>2014-10-31T14:53:32.000Z</time>
      </trkpt>
      <trkpt lat="47.44467" lon="6.72346">
        <ele>465.2</ele>
        <time>2014-10-31T14:53:33.000Z</time>
      </trkpt>
      <trkpt lat="47.44471" lon="6.72344">
        <ele>465.4</ele>
        <time>2014-10-31T14:53:34.000Z</time>
      </trkpt>
      <trkpt lat="47.44478" lon="6.72344">
        <ele>466.1</ele>
        <time>2014-10-31T14:53:35.000Z</time>
      </trkpt>
      <trkpt lat="47.44484" lon="6.72343">
        <ele>466.4</ele>
        <time>2014-10-31T14:53:36.000Z</time>
      </trkpt>
      <trkpt lat="47.44491" lon="6.72341">
        <ele>465.7</ele>
        <time>2014-10-31T14:53:37.000Z</time>
      </trkpt>
      <trkpt lat="47.44498" lon="6.72341">
        <ele>464.9</ele>
        <time>2014-10-31T14:53:38.000Z</time>
      </trkpt>
      <trkpt lat="47.44504" lon="6.72339">
        <ele>465.7</ele>
        <time>2014-10-31T14:53:39.000Z</time>
      </trkpt>
      <trkpt lat="47.4451" lon="6.72337">
        <ele>466</ele>
        <time>2014-10-31T14:53:40.000Z</time>
      </trkpt>
      <trkpt lat="47.44515" lon="6.72335">
        <ele>466.4</ele>
        <time>2014-10-31T14:53:41.000Z</time>
      </trkpt>
      <trkpt lat="47.44521" lon="6.72333">
        <ele>466.1</ele>
        <time>2014-10-31T14:53:42.000Z</time>
      </trkpt>
      <trkpt lat="47.44529" lon="6.72331">
        <ele>467</ele>
        <time>2014-10-31T14:53:43.000Z</time>
      </trkpt>
      <trkpt lat="47.44537" lon="6.72331">
        <ele>467</ele>
        <time>2014-10-31T14:53:44.000Z</time>
      </trkpt>
      <trkpt lat="47.44544" lon="6.72326">
        <ele>467</ele>
        <time>2014-10-31T14:53:45.000Z</time>
      </trkpt>
      <trkpt lat="47.4455" lon="6.72324">
        <ele>467.6</ele>
        <time>2014-10-31T14:53:46.000Z</time>
      </trkpt>
      <trkpt lat="47.44557" lon="6.72321">
        <ele>467.3</ele>
        <time>2014-10-31T14:53:47.000Z</time>
      </trkpt>
      <trkpt lat="47.44565" lon="6.72319">
        <ele>468.3</ele>
        <time>2014-10-31T14:53:48.000Z</time>
      </trkpt>
      <trkpt lat="47.44572" lon="6.72318">
        <ele>468.7</ele>
        <time>2014-10-31T14:53:49.000Z</time>
      </trkpt>
      <trkpt lat="47.44579" lon="6.72318">
        <ele>468.9</ele>
        <time>2014-10-31T14:53:50.000Z</time>
      </trkpt>
      <trkpt lat="47.44586" lon="6.72317">
        <ele>469</ele>
        <time>2014-10-31T14:53:50.999Z</time>
      </trkpt>
      <trkpt lat="47.44592" lon="6.72315">
        <ele>469.8</ele>
        <time>2014-10-31T14:53:52.000Z</time>
      </trkpt>
      <trkpt lat="47.44611" lon="6.72316">
        <ele>469</ele>
        <time>2014-10-31T14:53:55.000Z</time>
      </trkpt>
      <trkpt lat="47.44616" lon="6.72315">
        <ele>470.3</ele>
        <time>2014-10-31T14:53:56.000Z</time>
      </trkpt>
      <trkpt lat="47.44622" lon="6.72315">
        <ele>471.2</ele>
        <time>2014-10-31T14:53:57.000Z</time>
      </trkpt>
      <trkpt lat="47.44628" lon="6.72314">
        <ele>472.8</ele>
        <time>2014-10-31T14:53:58.000Z</time>
      </trkpt>
      <trkpt lat="47.44632" lon="6.72313">
        <ele>474.9</ele>
        <time>2014-10-31T14:53:59.000Z</time>
      </trkpt>
      <trkpt lat="47.44637" lon="6.72314">
        <ele>474.6</ele>
        <time>2014-10-31T14:54:00.000Z</time>
      </trkpt>
      <trkpt lat="47.44643" lon="6.72313">
        <ele>473.8</ele>
        <time>2014-10-31T14:54:01.000Z</time>
      </trkpt>
      <trkpt lat="47.44649" lon="6.72314">
        <ele>473</ele>
        <time>2014-10-31T14:54:02.000Z</time>
      </trkpt>
      <trkpt lat="47.44652" lon="6.72312">
        <ele>474.6</ele>
        <time>2014-10-31T14:54:03.000Z</time>
      </trkpt>
      <trkpt lat="47.44657" lon="6.72312">
        <ele>474.8</ele>
        <time>2014-10-31T14:54:04.000Z</time>
      </trkpt>
      <trkpt lat="47.44662" lon="6.72311">
        <ele>475.9</ele>
        <time>2014-10-31T14:54:05.000Z</time>
      </trkpt>
      <trkpt lat="47.44666" lon="6.72307">
        <ele>476.7</ele>
        <time>2014-10-31T14:54:06.000Z</time>
      </trkpt>
      <trkpt lat="47.44672" lon="6.72305">
        <ele>476</ele>
        <time>2014-10-31T14:54:07.000Z</time>
      </trkpt>
      <trkpt lat="47.44678" lon="6.72303">
        <ele>476</ele>
        <time>2014-10-31T14:54:08.000Z</time>
      </trkpt>
      <trkpt lat="47.44682" lon="6.723">
        <ele>477.1</ele>
        <time>2014-10-31T14:54:09.000Z</time>
      </trkpt>
      <trkpt lat="47.44687" lon="6.72298">
        <ele>477.8</ele>
        <time>2014-10-31T14:54:10.000Z</time>
      </trkpt>
      <trkpt lat="47.44693" lon="6.72295">
        <ele>477.2</ele>
        <time>2014-10-31T14:54:11.000Z</time>
      </trkpt>
      <trkpt lat="47.44699" lon="6.72292">
        <ele>477.5</ele>
        <time>2014-10-31T14:54:12.000Z</time>
      </trkpt>
      <trkpt lat="47.44703" lon="6.72288">
        <ele>478.3</ele>
        <time>2014-10-31T14:54:13.000Z</time>
      </trkpt>
      <trkpt lat="47.44709" lon="6.72286">
        <ele>478.7</ele>
        <time>2014-10-31T14:54:14.000Z</time>
      </trkpt>
      <trkpt lat="47.44714" lon="6.72282">
        <ele>479.1</ele>
        <time>2014-10-31T14:54:15.000Z</time>
      </trkpt>
      <trkpt lat="47.44719" lon="6.7228">
        <ele>479.4</ele>
        <time>2014-10-31T14:54:16.000Z</time>
      </trkpt>
      <trkpt lat="47.44724" lon="6.72277">
        <ele>480.7</ele>
        <time>2014-10-31T14:54:17.000Z</time>
      </trkpt>
      <trkpt lat="47.4473" lon="6.72274">
        <ele>481.3</ele>
        <time>2014-10-31T14:54:18.000Z</time>
      </trkpt>
      <trkpt lat="47.44737" lon="6.72272">
        <ele>480.8</ele>
        <time>2014-10-31T14:54:19.000Z</time>
      </trkpt>
      <trkpt lat="47.44744" lon="6.72269">
        <ele>480.4</ele>
        <time>2014-10-31T14:54:20.000Z</time>
      </trkpt>
      <trkpt lat="47.4475" lon="6.72269">
        <ele>479.1</ele>
        <time>2014-10-31T14:54:21.000Z</time>
      </trkpt>
      <trkpt lat="47.44756" lon="6.72267">
        <ele>479.5</ele>
        <time>2014-10-31T14:54:22.000Z</time>
      </trkpt>
      <trkpt lat="47.44762" lon="6.72265">
        <ele>479.3</ele>
        <time>2014-10-31T14:54:23.000Z</time>
      </trkpt>
      <trkpt lat="47.44769" lon="6.72263">
        <ele>477.8</ele>
        <time>2014-10-31T14:54:24.000Z</time>
      </trkpt>
      <trkpt lat="47.44775" lon="6.7226">
        <ele>476.2</ele>
        <time>2014-10-31T14:54:25.000Z</time>
      </trkpt>
      <trkpt lat="47.44783" lon="6.72259">
        <ele>473.1</ele>
        <time>2014-10-31T14:54:26.000Z</time>
      </trkpt>
      <trkpt lat="47.44789" lon="6.72257">
        <ele>471.9</ele>
        <time>2014-10-31T14:54:27.000Z</time>
      </trkpt>
      <trkpt lat="47.44796" lon="6.72253">
        <ele>471.6</ele>
        <time>2014-10-31T14:54:28.000Z</time>
      </trkpt>
      <trkpt lat="47.44803" lon="6.72252">
        <ele>470.4</ele>
        <time>2014-10-31T14:54:29.000Z</time>
      </trkpt>
      <trkpt lat="47.44811" lon="6.72254">
        <ele>468.9</ele>
        <time>2014-10-31T14:54:30.000Z</time>
      </trkpt>
      <trkpt lat="47.44819" lon="6.72256">
        <ele>469.1</ele>
        <time>2014-10-31T14:54:31.000Z</time>
      </trkpt>
      <trkpt lat="47.44828" lon="6.72258">
        <ele>469</ele>
        <time>2014-10-31T14:54:32.000Z</time>
      </trkpt>
      <trkpt lat="47.44834" lon="6.7226">
        <ele>469</ele>
        <time>2014-10-31T14:54:33.000Z</time>
      </trkpt>
      <trkpt lat="47.44843" lon="6.72261">
        <ele>469.4</ele>
        <time>2014-10-31T14:54:34.000Z</time>
      </trkpt>
      <trkpt lat="47.44852" lon="6.72271">
        <ele>467.4</ele>
        <time>2014-10-31T14:54:35.000Z</time>
      </trkpt>
      <trkpt lat="47.44861" lon="6.72277">
        <ele>466.3</ele>
        <time>2014-10-31T14:54:36.000Z</time>
      </trkpt>
      <trkpt lat="47.44869" lon="6.72283">
        <ele>466.1</ele>
        <time>2014-10-31T14:54:37.000Z</time>
      </trkpt>
      <trkpt lat="47.44877" lon="6.72288">
        <ele>465.3</ele>
        <time>2014-10-31T14:54:38.000Z</time>
      </trkpt>
      <trkpt lat="47.44885" lon="6.72295">
        <ele>464.9</ele>
        <time>2014-10-31T14:54:39.000Z</time>
      </trkpt>
      <trkpt lat="47.44892" lon="6.72303">
        <ele>465.5</ele>
        <time>2014-10-31T14:54:40.000Z</time>
      </trkpt>
      <trkpt lat="47.44903" lon="6.72311">
        <ele>464.9</ele>
        <time>2014-10-31T14:54:41.000Z</time>
      </trkpt>
      <trkpt lat="47.44913" lon="6.72318">
        <ele>464.5</ele>
        <time>2014-10-31T14:54:42.000Z</time>
      </trkpt>
      <trkpt lat="47.44921" lon="6.72328">
        <ele>464.3</ele>
        <time>2014-10-31T14:54:43.000Z</time>
      </trkpt>
      <trkpt lat="47.44931" lon="6.72335">
        <ele>463.9</ele>
        <time>2014-10-31T14:54:44.000Z</time>
      </trkpt>
      <trkpt lat="47.44939" lon="6.72342">
        <ele>463.3</ele>
        <time>2014-10-31T14:54:44.999Z</time>
      </trkpt>
      <trkpt lat="47.44951" lon="6.72353">
        <ele>459.3</ele>
        <time>2014-10-31T14:54:46.000Z</time>
      </trkpt>
      <trkpt lat="47.4496" lon="6.72364">
        <ele>456.2</ele>
        <time>2014-10-31T14:54:47.000Z</time>
      </trkpt>
      <trkpt lat="47.44969" lon="6.72371">
        <ele>456</ele>
        <time>2014-10-31T14:54:48.000Z</time>
      </trkpt>
      <trkpt lat="47.44977" lon="6.72378">
        <ele>453.4</ele>
        <time>2014-10-31T14:54:49.000Z</time>
      </trkpt>
      <trkpt lat="47.44987" lon="6.72385">
        <ele>453</ele>
        <time>2014-10-31T14:54:50.000Z</time>
      </trkpt>
      <trkpt lat="47.44994" lon="6.72393">
        <ele>452.2</ele>
        <time>2014-10-31T14:54:51.000Z</time>
      </trkpt>
      <trkpt lat="47.45002" lon="6.72399">
        <ele>451.7</ele>
        <time>2014-10-31T14:54:52.000Z</time>
      </trkpt>
      <trkpt lat="47.45069" lon="6.72445">
        <ele>447.3</ele>
        <time>2014-10-31T14:55:00.000Z</time>
      </trkpt>
      <trkpt lat="47.45077" lon="6.7245">
        <ele>446.4</ele>
        <time>2014-10-31T14:55:01.000Z</time>
      </trkpt>
      <trkpt lat="47.45084" lon="6.72456">
        <ele>444.6</ele>
        <time>2014-10-31T14:55:02.000Z</time>
      </trkpt>
      <trkpt lat="47.45091" lon="6.7246">
        <ele>442.4</ele>
        <time>2014-10-31T14:55:03.000Z</time>
      </trkpt>
      <trkpt lat="47.45098" lon="6.72467">
        <ele>442.6</ele>
        <time>2014-10-31T14:55:04.000Z</time>
      </trkpt>
      <trkpt lat="47.45105" lon="6.72472">
        <ele>443.2</ele>
        <time>2014-10-31T14:55:05.000Z</time>
      </trkpt>
      <trkpt lat="47.45113" lon="6.72477">
        <ele>444.1</ele>
        <time>2014-10-31T14:55:06.000Z</time>
      </trkpt>
      <trkpt lat="47.4512" lon="6.72482">
        <ele>444.5</ele>
        <time>2014-10-31T14:55:07.000Z</time>
      </trkpt>
      <trkpt lat="47.45127" lon="6.72487">
        <ele>444.6</ele>
        <time>2014-10-31T14:55:08.000Z</time>
      </trkpt>
      <trkpt lat="47.45134" lon="6.72492">
        <ele>444.4</ele>
        <time>2014-10-31T14:55:09.000Z</time>
      </trkpt>
      <trkpt lat="47.45141" lon="6.72496">
        <ele>444.5</ele>
        <time>2014-10-31T14:55:10.000Z</time>
      </trkpt>
      <trkpt lat="47.45148" lon="6.72502">
        <ele>444.4</ele>
        <time>2014-10-31T14:55:11.000Z</time>
      </trkpt>
      <trkpt lat="47.45154" lon="6.72507">
        <ele>444.2</ele>
        <time>2014-10-31T14:55:12.000Z</time>
      </trkpt>
      <trkpt lat="47.45161" lon="6.72511">
        <ele>444.2</ele>
        <time>2014-10-31T14:55:13.000Z</time>
      </trkpt>
      <trkpt lat="47.45167" lon="6.72516">
        <ele>444.4</ele>
        <time>2014-10-31T14:55:14.000Z</time>
      </trkpt>
      <trkpt lat="47.45173" lon="6.7252">
        <ele>445</ele>
        <time>2014-10-31T14:55:15.000Z</time>
      </trkpt>
      <trkpt lat="47.45181" lon="6.72524">
        <ele>444.5</ele>
        <time>2014-10-31T14:55:16.000Z</time>
      </trkpt>
      <trkpt lat="47.45186" lon="6.72528">
        <ele>444.8</ele>
        <time>2014-10-31T14:55:17.000Z</time>
      </trkpt>
      <trkpt lat="47.45192" lon="6.72532">
        <ele>445.8</ele>
        <time>2014-10-31T14:55:18.000Z</time>
      </trkpt>
      <trkpt lat="47.45198" lon="6.72536">
        <ele>446.1</ele>
        <time>2014-10-31T14:55:19.000Z</time>
      </trkpt>
      <trkpt lat="47.45205" lon="6.7254">
        <ele>446.7</ele>
        <time>2014-10-31T14:55:20.000Z</time>
      </trkpt>
      <trkpt lat="47.4521" lon="6.72544">
        <ele>447</ele>
        <time>2014-10-31T14:55:21.000Z</time>
      </trkpt>
      <trkpt lat="47.45215" lon="6.72548">
        <ele>447.9</ele>
        <time>2014-10-31T14:55:22.000Z</time>
      </trkpt>
      <trkpt lat="47.4522" lon="6.72552">
        <ele>448</ele>
        <time>2014-10-31T14:55:23.000Z</time>
      </trkpt>
      <trkpt lat="47.45226" lon="6.72558">
        <ele>447.7</ele>
        <time>2014-10-31T14:55:24.000Z</time>
      </trkpt>
      <trkpt lat="47.4523" lon="6.72562">
        <ele>448.3</ele>
        <time>2014-10-31T14:55:25.000Z</time>
      </trkpt>
      <trkpt lat="47.45235" lon="6.72565">
        <ele>448.6</ele>
        <time>2014-10-31T14:55:26.000Z</time>
      </trkpt>
      <trkpt lat="47.4524" lon="6.72568">
        <ele>449.8</ele>
        <time>2014-10-31T14:55:27.000Z</time>
      </trkpt>
      <trkpt lat="47.45245" lon="6.72573">
        <ele>449.8</ele>
        <time>2014-10-31T14:55:28.000Z</time>
      </trkpt>
      <trkpt lat="47.4525" lon="6.72575">
        <ele>451.2</ele>
        <time>2014-10-31T14:55:29.000Z</time>
      </trkpt>
      <trkpt lat="47.45255" lon="6.72579">
        <ele>451.5</ele>
        <time>2014-10-31T14:55:30.000Z</time>
      </trkpt>
      <trkpt lat="47.4526" lon="6.72582">
        <ele>451.6</ele>
        <time>2014-10-31T14:55:31.000Z</time>
      </trkpt>
      <trkpt lat="47.45264" lon="6.72586">
        <ele>452.3</ele>
        <time>2014-10-31T14:55:32.000Z</time>
      </trkpt>
      <trkpt lat="47.45269" lon="6.72588">
        <ele>452.4</ele>
        <time>2014-10-31T14:55:33.000Z</time>
      </trkpt>
      <trkpt lat="47.45274" lon="6.7259">
        <ele>452.7</ele>
        <time>2014-10-31T14:55:34.000Z</time>
      </trkpt>
      <trkpt lat="47.45278" lon="6.72594">
        <ele>453.3</ele>
        <time>2014-10-31T14:55:35.000Z</time>
      </trkpt>
      <trkpt lat="47.45283" lon="6.72598">
        <ele>453</ele>
        <time>2014-10-31T14:55:36.000Z</time>
      </trkpt>
      <trkpt lat="47.45287" lon="6.726">
        <ele>452.9</ele>
        <time>2014-10-31T14:55:37.000Z</time>
      </trkpt>
      <trkpt lat="47.45292" lon="6.72604">
        <ele>452.8</ele>
        <time>2014-10-31T14:55:38.000Z</time>
      </trkpt>
      <trkpt lat="47.45296" lon="6.72607">
        <ele>452.9</ele>
        <time>2014-10-31T14:55:39.000Z</time>
      </trkpt>
      <trkpt lat="47.453" lon="6.72611">
        <ele>452.8</ele>
        <time>2014-10-31T14:55:40.000Z</time>
      </trkpt>
      <trkpt lat="47.45305" lon="6.72614">
        <ele>452.9</ele>
        <time>2014-10-31T14:55:41.000Z</time>
      </trkpt>
      <trkpt lat="47.4531" lon="6.72617">
        <ele>452.6</ele>
        <time>2014-10-31T14:55:42.000Z</time>
      </trkpt>
      <trkpt lat="47.45314" lon="6.72622">
        <ele>452.1</ele>
        <time>2014-10-31T14:55:43.000Z</time>
      </trkpt>
      <trkpt lat="47.45319" lon="6.72625">
        <ele>451.7</ele>
        <time>2014-10-31T14:55:44.000Z</time>
      </trkpt>
      <trkpt lat="47.45323" lon="6.7263">
        <ele>451.6</ele>
        <time>2014-10-31T14:55:45.000Z</time>
      </trkpt>
      <trkpt lat="47.45327" lon="6.72635">
        <ele>451.4</ele>
        <time>2014-10-31T14:55:46.000Z</time>
      </trkpt>
      <trkpt lat="47.45331" lon="6.72639">
        <ele>451.1</ele>
        <time>2014-10-31T14:55:47.000Z</time>
      </trkpt>
      <trkpt lat="47.45335" lon="6.72643">
        <ele>451.6</ele>
        <time>2014-10-31T14:55:48.000Z</time>
      </trkpt>
      <trkpt lat="47.45339" lon="6.72647">
        <ele>451.9</ele>
        <time>2014-10-31T14:55:49.000Z</time>
      </trkpt>
      <trkpt lat="47.45343" lon="6.72653">
        <ele>452.3</ele>
        <time>2014-10-31T14:55:50.000Z</time>
      </trkpt>
      <trkpt lat="47.45347" lon="6.72658">
        <ele>452.5</ele>
        <time>2014-10-31T14:55:51.000Z</time>
      </trkpt>
      <trkpt lat="47.45351" lon="6.72663">
        <ele>451.7</ele>
        <time>2014-10-31T14:55:52.000Z</time>
      </trkpt>
      <trkpt lat="47.45384" lon="6.727">
        <ele>453.1</ele>
        <time>2014-10-31T14:56:00.000Z</time>
      </trkpt>
      <trkpt lat="47.45388" lon="6.72704">
        <ele>453.2</ele>
        <time>2014-10-31T14:56:01.000Z</time>
      </trkpt>
      <trkpt lat="47.45391" lon="6.72709">
        <ele>453.6</ele>
        <time>2014-10-31T14:56:02.000Z</time>
      </trkpt>
      <trkpt lat="47.45394" lon="6.72712">
        <ele>453.6</ele>
        <time>2014-10-31T14:56:03.000Z</time>
      </trkpt>
      <trkpt lat="47.45398" lon="6.72715">
        <ele>453.7</ele>
        <time>2014-10-31T14:56:04.000Z</time>
      </trkpt>
      <trkpt lat="47.45402" lon="6.72717">
        <ele>454.1</ele>
        <time>2014-10-31T14:56:05.000Z</time>
      </trkpt>
      <trkpt lat="47.45406" lon="6.72719">
        <ele>454.9</ele>
        <time>2014-10-31T14:56:06.000Z</time>
      </trkpt>
      <trkpt lat="47.45411" lon="6.7272">
        <ele>455.6</ele>
        <time>2014-10-31T14:56:07.000Z</time>
      </trkpt>
      <trkpt lat="47.45414" lon="6.72721">
        <ele>455.2</ele>
        <time>2014-10-31T14:56:08.000Z</time>
      </trkpt>
      <trkpt lat="47.45418" lon="6.72725">
        <ele>455.1</ele>
        <time>2014-10-31T14:56:09.000Z</time>
      </trkpt>
      <trkpt lat="47.45421" lon="6.72728">
        <ele>454.1</ele>
        <time>2014-10-31T14:56:10.000Z</time>
      </trkpt>
      <trkpt lat="47.45425" lon="6.7273">
        <ele>455.6</ele>
        <time>2014-10-31T14:56:11.000Z</time>
      </trkpt>
      <trkpt lat="47.45428" lon="6.72732">
        <ele>456.1</ele>
        <time>2014-10-31T14:56:12.000Z</time>
      </trkpt>
      <trkpt lat="47.45431" lon="6.72733">
        <ele>455.8</ele>
        <time>2014-10-31T14:56:13.000Z</time>
      </trkpt>
      <trkpt lat="47.45433" lon="6.72735">
        <ele>456.6</ele>
        <time>2014-10-31T14:56:14.000Z</time>
      </trkpt>
      <trkpt lat="47.45435" lon="6.72738">
        <ele>456.3</ele>
        <time>2014-10-31T14:56:15.000Z</time>
      </trkpt>
      <trkpt lat="47.45437" lon="6.72742">
        <ele>457.4</ele>
        <time>2014-10-31T14:56:17.000Z</time>
      </trkpt>
      <trkpt lat="47.45438" lon="6.72746">
        <ele>457.4</ele>
        <time>2014-10-31T14:56:18.000Z</time>
      </trkpt>
      <trkpt lat="47.45437" lon="6.72752">
        <ele>456.9</ele>
        <time>2014-10-31T14:56:20.000Z</time>
      </trkpt>
      <trkpt lat="47.45437" lon="6.72755">
        <ele>456.8</ele>
        <time>2014-10-31T14:56:21.000Z</time>
      </trkpt>
      <trkpt lat="47.45437" lon="6.72759">
        <ele>456.5</ele>
        <time>2014-10-31T14:56:21.999Z</time>
      </trkpt>
      <trkpt lat="47.45437" lon="6.72762">
        <ele>457.6</ele>
        <time>2014-10-31T14:56:23.000Z</time>
      </trkpt>
      <trkpt lat="47.45438" lon="6.72766">
        <ele>456.6</ele>
        <time>2014-10-31T14:56:24.000Z</time>
      </trkpt>
      <trkpt lat="47.45439" lon="6.72769">
        <ele>454.3</ele>
        <time>2014-10-31T14:56:25.000Z</time>
      </trkpt>
      <trkpt lat="47.45441" lon="6.72772">
        <ele>454.8</ele>
        <time>2014-10-31T14:56:26.000Z</time>
      </trkpt>
      <trkpt lat="47.45443" lon="6.72774">
        <ele>455.1</ele>
        <time>2014-10-31T14:56:27.000Z</time>
      </trkpt>
      <trkpt lat="47.45446" lon="6.72775">
        <ele>457.3</ele>
        <time>2014-10-31T14:56:28.000Z</time>
      </trkpt>
      <trkpt lat="47.45448" lon="6.72776">
        <ele>457.7</ele>
        <time>2014-10-31T14:56:29.000Z</time>
      </trkpt>
      <trkpt lat="47.45451" lon="6.72776">
        <ele>458</ele>
        <time>2014-10-31T14:56:30.000Z</time>
      </trkpt>
      <trkpt lat="47.45453" lon="6.72776">
        <ele>456.4</ele>
        <time>2014-10-31T14:56:31.000Z</time>
      </trkpt>
      <trkpt lat="47.45455" lon="6.72778">
        <ele>456.5</ele>
        <time>2014-10-31T14:56:32.000Z</time>
      </trkpt>
      <trkpt lat="47.45457" lon="6.72779">
        <ele>457.6</ele>
        <time>2014-10-31T14:56:33.000Z</time>
      </trkpt>
      <trkpt lat="47.4546" lon="6.72784">
        <ele>460.7</ele>
        <time>2014-10-31T14:56:39.000Z</time>
      </trkpt>
      <trkpt lat="47.4546" lon="6.72785">
        <ele>461.3</ele>
        <time>2014-10-31T14:56:40.000Z</time>
      </trkpt>
      <trkpt lat="47.45462" lon="6.72791">
        <ele>460.7</ele>
        <time>2014-10-31T14:56:48.000Z</time>
      </trkpt>
      <trkpt lat="47.45462" lon="6.72792">
        <ele>458.1</ele>
        <time>2014-10-31T14:56:49.000Z</time>
      </trkpt>
      <trkpt lat="47.45461" lon="6.72797">
        <ele>453.2</ele>
        <time>2014-10-31T14:56:53.000Z</time>
      </trkpt>
      <trkpt lat="47.45462" lon="6.72806">
        <ele>455.5</ele>
        <time>2014-10-31T14:57:01.000Z</time>
      </trkpt>
      <trkpt lat="47.45462" lon="6.72812">
        <ele>461</ele>
        <time>2014-10-31T14:57:07.000Z</time>
      </trkpt>
      <trkpt lat="47.45461" lon="6.72813">
        <ele>463.3</ele>
        <time>2014-10-31T14:57:08.000Z</time>
      </trkpt>
      <trkpt lat="47.45463" lon="6.72819">
        <ele>460.9</ele>
        <time>2014-10-31T14:57:16.000Z</time>
      </trkpt>
      <trkpt lat="47.45463" lon="6.7282">
        <ele>462</ele>
        <time>2014-10-31T14:57:17.000Z</time>
      </trkpt>
      <trkpt lat="47.45462" lon="6.72826">
        <ele>464.3</ele>
        <time>2014-10-31T14:57:31.000Z</time>
      </trkpt>
      <trkpt lat="47.45462" lon="6.72827">
        <ele>465.3</ele>
        <time>2014-10-31T14:57:32.000Z</time>
      </trkpt>
      <trkpt lat="47.45461" lon="6.72833">
        <ele>469.4</ele>
        <time>2014-10-31T14:57:49.000Z</time>
      </trkpt>
      <trkpt lat="47.45461" lon="6.72833">
        <ele>469.3</ele>
        <time>2014-10-31T14:57:50.000Z</time>
      </trkpt>
      <trkpt lat="47.45461" lon="6.72835">
        <ele>469.7</ele>
        <time>2014-10-31T14:57:56.000Z</time>
      </trkpt>
      <trkpt lat="47.45463" lon="6.7284">
        <ele>467.5</ele>
        <time>2014-10-31T14:57:57.000Z</time>
      </trkpt>
      <trkpt lat="47.45464" lon="6.72843">
        <ele>466.5</ele>
        <time>2014-10-31T14:57:58.000Z</time>
      </trkpt>
      <trkpt lat="47.45466" lon="6.72847">
        <ele>466.7</ele>
        <time>2014-10-31T14:57:59.000Z</time>
      </trkpt>
      <trkpt lat="47.45467" lon="6.72851">
        <ele>466.6</ele>
        <time>2014-10-31T14:58:00.000Z</time>
      </trkpt>
      <trkpt lat="47.45468" lon="6.72856">
        <ele>465.1</ele>
        <time>2014-10-31T14:58:01.000Z</time>
      </trkpt>
      <trkpt lat="47.45469" lon="6.72861">
        <ele>466</ele>
        <time>2014-10-31T14:58:02.000Z</time>
      </trkpt>
      <trkpt lat="47.4547" lon="6.72866">
        <ele>466.3</ele>
        <time>2014-10-31T14:58:03.000Z</time>
      </trkpt>
      <trkpt lat="47.45473" lon="6.72871">
        <ele>467.5</ele>
        <time>2014-10-31T14:58:04.000Z</time>
      </trkpt>
      <trkpt lat="47.45475" lon="6.72876">
        <ele>468.6</ele>
        <time>2014-10-31T14:58:05.000Z</time>
      </trkpt>
      <trkpt lat="47.45476" lon="6.72881">
        <ele>466.1</ele>
        <time>2014-10-31T14:58:06.000Z</time>
      </trkpt>
      <trkpt lat="47.45478" lon="6.72886">
        <ele>465</ele>
        <time>2014-10-31T14:58:07.000Z</time>
      </trkpt>
      <trkpt lat="47.4548" lon="6.7289">
        <ele>465.6</ele>
        <time>2014-10-31T14:58:08.000Z</time>
      </trkpt>
      <trkpt lat="47.45481" lon="6.72893">
        <ele>467.6</ele>
        <time>2014-10-31T14:58:09.000Z</time>
      </trkpt>
      <trkpt lat="47.45484" lon="6.72898">
        <ele>470.8</ele>
        <time>2014-10-31T14:58:13.000Z</time>
      </trkpt>
      <trkpt lat="47.45484" lon="6.72899">
        <ele>471.8</ele>
        <time>2014-10-31T14:58:14.000Z</time>
      </trkpt>
      <trkpt lat="47.45488" lon="6.72896">
        <ele>470.7</ele>
        <time>2014-10-31T14:58:25.000Z</time>
      </trkpt>
      <trkpt lat="47.45489" lon="6.72896">
        <ele>472.7</ele>
        <time>2014-10-31T14:58:26.000Z</time>
      </trkpt>
      <trkpt lat="47.4549" lon="6.72902">
        <ele>471.4</ele>
        <time>2014-10-31T14:58:32.000Z</time>
      </trkpt>
      <trkpt lat="47.4549" lon="6.72903">
        <ele>472.1</ele>
        <time>2014-10-31T14:58:33.000Z</time>
      </trkpt>
      <trkpt lat="47.45489" lon="6.72909">
        <ele>479.7</ele>
        <time>2014-10-31T14:58:44.000Z</time>
      </trkpt>
      <trkpt lat="47.45489" lon="6.7291">
        <ele>479.7</ele>
        <time>2014-10-31T14:58:45.000Z</time>
      </trkpt>
      <trkpt lat="47.45493" lon="6.72914">
        <ele>477.8</ele>
        <time>2014-10-31T14:58:49.000Z</time>
      </trkpt>
      <trkpt lat="47.45493" lon="6.72914">
        <ele>477.8</ele>
        <time>2014-10-31T14:58:50.000Z</time>
      </trkpt>
      <trkpt lat="47.45496" lon="6.72916">
        <ele>477.5</ele>
        <time>2014-10-31T14:58:57.001Z</time>
      </trkpt>
      <trkpt lat="47.45498" lon="6.72918">
        <ele>480.8</ele>
        <time>2014-10-31T14:58:57.999Z</time>
      </trkpt>
      <trkpt lat="47.455" lon="6.72923">
        <ele>481.7</ele>
        <time>2014-10-31T14:59:00.000Z</time>
      </trkpt>
      <trkpt lat="47.45501" lon="6.72923">
        <ele>481.6</ele>
        <time>2014-10-31T14:59:01.000Z</time>
      </trkpt>
      <trkpt lat="47.45504" lon="6.72918">
        <ele>478.5</ele>
        <time>2014-10-31T14:59:05.000Z</time>
      </trkpt>
      <trkpt lat="47.45504" lon="6.72918">
        <ele>478.9</ele>
        <time>2014-10-31T14:59:06.000Z</time>
      </trkpt>
      <trkpt lat="47.45507" lon="6.7292">
        <ele>477.2</ele>
        <time>2014-10-31T14:59:10.000Z</time>
      </trkpt>
      <trkpt lat="47.45509" lon="6.72922">
        <ele>477.6</ele>
        <time>2014-10-31T14:59:11.000Z</time>
      </trkpt>
      <trkpt lat="47.45512" lon="6.72924">
        <ele>476.5</ele>
        <time>2014-10-31T14:59:13.000Z</time>
      </trkpt>
      <trkpt lat="47.45514" lon="6.72925">
        <ele>476.1</ele>
        <time>2014-10-31T14:59:14.000Z</time>
      </trkpt>
      <trkpt lat="47.45517" lon="6.72928">
        <ele>472</ele>
        <time>2014-10-31T14:59:16.000Z</time>
      </trkpt>
      <trkpt lat="47.45518" lon="6.72929">
        <ele>470</ele>
        <time>2014-10-31T14:59:17.000Z</time>
      </trkpt>
      <trkpt lat="47.45521" lon="6.72935">
        <ele>469.5</ele>
        <time>2014-10-31T14:59:20.000Z</time>
      </trkpt>
      <trkpt lat="47.45521" lon="6.72937">
        <ele>469.9</ele>
        <time>2014-10-31T14:59:21.000Z</time>
      </trkpt>
      <trkpt lat="47.45523" lon="6.72942">
        <ele>470.5</ele>
        <time>2014-10-31T14:59:23.000Z</time>
      </trkpt>
      <trkpt lat="47.45524" lon="6.72945">
        <ele>470.4</ele>
        <time>2014-10-31T14:59:24.000Z</time>
      </trkpt>
      <trkpt lat="47.45525" lon="6.72948">
        <ele>469.9</ele>
        <time>2014-10-31T14:59:25.000Z</time>
      </trkpt>
      <trkpt lat="47.45527" lon="6.72951">
        <ele>469</ele>
        <time>2014-10-31T14:59:26.000Z</time>
      </trkpt>
      <trkpt lat="47.45529" lon="6.72955">
        <ele>469.7</ele>
        <time>2014-10-31T14:59:27.000Z</time>
      </trkpt>
      <trkpt lat="47.45532" lon="6.72958">
        <ele>469.2</ele>
        <time>2014-10-31T14:59:28.000Z</time>
      </trkpt>
      <trkpt lat="47.45535" lon="6.72962">
        <ele>469.3</ele>
        <time>2014-10-31T14:59:29.000Z</time>
      </trkpt>
      <trkpt lat="47.45538" lon="6.72965">
        <ele>468.4</ele>
        <time>2014-10-31T14:59:30.000Z</time>
      </trkpt>
      <trkpt lat="47.4554" lon="6.7297">
        <ele>471.2</ele>
        <time>2014-10-31T14:59:33.000Z</time>
      </trkpt>
      <trkpt lat="47.45539" lon="6.72972">
        <ele>472.1</ele>
        <time>2014-10-31T14:59:34.000Z</time>
      </trkpt>
      <trkpt lat="47.45536" lon="6.72976">
        <ele>471.5</ele>
        <time>2014-10-31T14:59:37.000Z</time>
      </trkpt>
      <trkpt lat="47.45535" lon="6.72976">
        <ele>470.5</ele>
        <time>2014-10-31T14:59:38.000Z</time>
      </trkpt>
      <trkpt lat="47.45532" lon="6.72982">
        <ele>470.9</ele>
        <time>2014-10-31T14:59:42.000Z</time>
      </trkpt>
      <trkpt lat="47.45532" lon="6.72984">
        <ele>472.1</ele>
        <time>2014-10-31T14:59:43.000Z</time>
      </trkpt>
      <trkpt lat="47.45533" lon="6.72989">
        <ele>469.7</ele>
        <time>2014-10-31T14:59:45.000Z</time>
      </trkpt>
      <trkpt lat="47.45533" lon="6.72991">
        <ele>470</ele>
        <time>2014-10-31T14:59:46.000Z</time>
      </trkpt>
      <trkpt lat="47.45536" lon="6.72995">
        <ele>467</ele>
        <time>2014-10-31T14:59:48.000Z</time>
      </trkpt>
      <trkpt lat="47.45537" lon="6.72997">
        <ele>467.6</ele>
        <time>2014-10-31T14:59:49.000Z</time>
      </trkpt>
      <trkpt lat="47.4554" lon="6.73002">
        <ele>467.2</ele>
        <time>2014-10-31T14:59:51.000Z</time>
      </trkpt>
      <trkpt lat="47.45541" lon="6.73004">
        <ele>467.7</ele>
        <time>2014-10-31T14:59:52.000Z</time>
      </trkpt>
      <trkpt lat="47.45548" lon="6.73034">
        <ele>470.3</ele>
        <time>2014-10-31T15:00:00.000Z</time>
      </trkpt>
      <trkpt lat="47.45549" lon="6.73038">
        <ele>471</ele>
        <time>2014-10-31T15:00:01.000Z</time>
      </trkpt>
      <trkpt lat="47.4555" lon="6.73042">
        <ele>472</ele>
        <time>2014-10-31T15:00:02.000Z</time>
      </trkpt>
      <trkpt lat="47.45552" lon="6.73046">
        <ele>470.2</ele>
        <time>2014-10-31T15:00:04.000Z</time>
      </trkpt>
      <trkpt lat="47.45553" lon="6.73047">
        <ele>468.7</ele>
        <time>2014-10-31T15:00:05.000Z</time>
      </trkpt>
      <trkpt lat="47.45556" lon="6.73049">
        <ele>469.1</ele>
        <time>2014-10-31T15:00:08.000Z</time>
      </trkpt>
      <trkpt lat="47.45558" lon="6.7305">
        <ele>466.5</ele>
        <time>2014-10-31T15:00:09.000Z</time>
      </trkpt>
      <trkpt lat="47.45561" lon="6.73052">
        <ele>466.9</ele>
        <time>2014-10-31T15:00:11.000Z</time>
      </trkpt>
      <trkpt lat="47.45563" lon="6.73053">
        <ele>467.8</ele>
        <time>2014-10-31T15:00:12.000Z</time>
      </trkpt>
      <trkpt lat="47.45566" lon="6.73055">
        <ele>465.1</ele>
        <time>2014-10-31T15:00:14.000Z</time>
      </trkpt>
      <trkpt lat="47.45567" lon="6.73056">
        <ele>466.2</ele>
        <time>2014-10-31T15:00:15.000Z</time>
      </trkpt>
      <trkpt lat="47.45569" lon="6.7306">
        <ele>468.5</ele>
        <time>2014-10-31T15:00:17.000Z</time>
      </trkpt>
      <trkpt lat="47.45569" lon="6.73062">
        <ele>469.2</ele>
        <time>2014-10-31T15:00:18.000Z</time>
      </trkpt>
      <trkpt lat="47.45571" lon="6.73067">
        <ele>470.9</ele>
        <time>2014-10-31T15:00:20.000Z</time>
      </trkpt>
      <trkpt lat="47.45572" lon="6.73069">
        <ele>470.4</ele>
        <time>2014-10-31T15:00:21.000Z</time>
      </trkpt>
      <trkpt lat="47.45573" lon="6.73075">
        <ele>469.1</ele>
        <time>2014-10-31T15:00:23.000Z</time>
      </trkpt>
      <trkpt lat="47.45574" lon="6.73077">
        <ele>467.8</ele>
        <time>2014-10-31T15:00:24.000Z</time>
      </trkpt>
      <trkpt lat="47.45575" lon="6.73082">
        <ele>469.1</ele>
        <time>2014-10-31T15:00:26.000Z</time>
      </trkpt>
      <trkpt lat="47.45576" lon="6.73085">
        <ele>470.4</ele>
        <time>2014-10-31T15:00:27.000Z</time>
      </trkpt>
      <trkpt lat="47.45575" lon="6.7309">
        <ele>472.1</ele>
        <time>2014-10-31T15:00:29.000Z</time>
      </trkpt>
      <trkpt lat="47.45575" lon="6.73092">
        <ele>470.1</ele>
        <time>2014-10-31T15:00:30.000Z</time>
      </trkpt>
      <trkpt lat="47.45576" lon="6.73097">
        <ele>468.8</ele>
        <time>2014-10-31T15:00:32.000Z</time>
      </trkpt>
      <trkpt lat="47.45577" lon="6.731">
        <ele>468.3</ele>
        <time>2014-10-31T15:00:33.000Z</time>
      </trkpt>
      <trkpt lat="47.45577" lon="6.73106">
        <ele>467.2</ele>
        <time>2014-10-31T15:00:35.000Z</time>
      </trkpt>
      <trkpt lat="47.45577" lon="6.73109">
        <ele>466.5</ele>
        <time>2014-10-31T15:00:36.000Z</time>
      </trkpt>
      <trkpt lat="47.45576" lon="6.73115">
        <ele>467.9</ele>
        <time>2014-10-31T15:00:39.000Z</time>
      </trkpt>
      <trkpt lat="47.45576" lon="6.73116">
        <ele>467.4</ele>
        <time>2014-10-31T15:00:40.000Z</time>
      </trkpt>
      <trkpt lat="47.45576" lon="6.73121">
        <ele>462.7</ele>
        <time>2014-10-31T15:00:52.000Z</time>
      </trkpt>
      <trkpt lat="47.45577" lon="6.73122">
        <ele>462.6</ele>
        <time>2014-10-31T15:00:55.000Z</time>
      </trkpt>
      <trkpt lat="47.45579" lon="6.73128">
        <ele>459.2</ele>
        <time>2014-10-31T15:01:00.000Z</time>
      </trkpt>
      <trkpt lat="47.45579" lon="6.73128">
        <ele>459.3</ele>
        <time>2014-10-31T15:01:01.000Z</time>
      </trkpt>
      <trkpt lat="47.4558" lon="6.73135">
        <ele>464.2</ele>
        <time>2014-10-31T15:01:14.000Z</time>
      </trkpt>
      <trkpt lat="47.45581" lon="6.73135">
        <ele>465.5</ele>
        <time>2014-10-31T15:01:15.000Z</time>
      </trkpt>
      <trkpt lat="47.45583" lon="6.7314">
        <ele>460.8</ele>
        <time>2014-10-31T15:01:23.000Z</time>
      </trkpt>
      <trkpt lat="47.45585" lon="6.73141">
        <ele>464.2</ele>
        <time>2014-10-31T15:01:24.000Z</time>
      </trkpt>
      <trkpt lat="47.45587" lon="6.73145">
        <ele>470.5</ele>
        <time>2014-10-31T15:01:30.000Z</time>
      </trkpt>
      <trkpt lat="47.45588" lon="6.73146">
        <ele>469.8</ele>
        <time>2014-10-31T15:01:31.000Z</time>
      </trkpt>
      <trkpt lat="47.45589" lon="6.73152">
        <ele>461</ele>
        <time>2014-10-31T15:02:44.000Z</time>
      </trkpt>
      <trkpt lat="47.45588" lon="6.73153">
        <ele>460.5</ele>
        <time>2014-10-31T15:02:45.000Z</time>
      </trkpt>
      <trkpt lat="47.45585" lon="6.73157">
        <ele>467.4</ele>
        <time>2014-10-31T15:03:16.000Z</time>
      </trkpt>
      <trkpt lat="47.45585" lon="6.73158">
        <ele>467.1</ele>
        <time>2014-10-31T15:03:17.000Z</time>
      </trkpt>
      <trkpt lat="47.45583" lon="6.73162">
        <ele>466.9</ele>
        <time>2014-10-31T15:03:20.000Z</time>
      </trkpt>
      <trkpt lat="47.45583" lon="6.73165">
        <ele>467.4</ele>
        <time>2014-10-31T15:03:21.000Z</time>
      </trkpt>
      <trkpt lat="47.45584" lon="6.73171">
        <ele>467.9</ele>
        <time>2014-10-31T15:03:23.000Z</time>
      </trkpt>
      <trkpt lat="47.45584" lon="6.73173">
        <ele>473.2</ele>
        <time>2014-10-31T15:03:24.000Z</time>
      </trkpt>
      <trkpt lat="47.45584" lon="6.7318">
        <ele>473.9</ele>
        <time>2014-10-31T15:03:26.000Z</time>
      </trkpt>
      <trkpt lat="47.45583" lon="6.73183">
        <ele>473.9</ele>
        <time>2014-10-31T15:03:27.000Z</time>
      </trkpt>
      <trkpt lat="47.45583" lon="6.73187">
        <ele>474.1</ele>
        <time>2014-10-31T15:03:28.000Z</time>
      </trkpt>
      <trkpt lat="47.45582" lon="6.73191">
        <ele>475</ele>
        <time>2014-10-31T15:03:29.000Z</time>
      </trkpt>
      <trkpt lat="47.45582" lon="6.73195">
        <ele>474.8</ele>
        <time>2014-10-31T15:03:30.000Z</time>
      </trkpt>
      <trkpt lat="47.45582" lon="6.732">
        <ele>474.7</ele>
        <time>2014-10-31T15:03:31.000Z</time>
      </trkpt>
      <trkpt lat="47.45582" lon="6.73203">
        <ele>475</ele>
        <time>2014-10-31T15:03:32.000Z</time>
      </trkpt>
      <trkpt lat="47.45579" lon="6.73211">
        <ele>475.4</ele>
        <time>2014-10-31T15:03:33.000Z</time>
      </trkpt>
      <trkpt lat="47.45578" lon="6.73217">
        <ele>474.5</ele>
        <time>2014-10-31T15:03:34.000Z</time>
      </trkpt>
      <trkpt lat="47.45577" lon="6.73223">
        <ele>475.5</ele>
        <time>2014-10-31T15:03:35.000Z</time>
      </trkpt>
      <trkpt lat="47.45575" lon="6.73229">
        <ele>475.9</ele>
        <time>2014-10-31T15:03:36.000Z</time>
      </trkpt>
      <trkpt lat="47.45572" lon="6.73234">
        <ele>475.1</ele>
        <time>2014-10-31T15:03:37.000Z</time>
      </trkpt>
      <trkpt lat="47.45569" lon="6.73239">
        <ele>476.7</ele>
        <time>2014-10-31T15:03:38.000Z</time>
      </trkpt>
      <trkpt lat="47.45567" lon="6.73243">
        <ele>477</ele>
        <time>2014-10-31T15:03:39.000Z</time>
      </trkpt>
      <trkpt lat="47.45553" lon="6.73257">
        <ele>475</ele>
        <time>2014-10-31T15:03:40.000Z</time>
      </trkpt>
      <trkpt lat="47.4555" lon="6.73263">
        <ele>474.8</ele>
        <time>2014-10-31T15:03:41.000Z</time>
      </trkpt>
      <trkpt lat="47.45547" lon="6.73267">
        <ele>475.6</ele>
        <time>2014-10-31T15:03:43.000Z</time>
      </trkpt>
      <trkpt lat="47.45542" lon="6.73275">
        <ele>474</ele>
        <time>2014-10-31T15:03:44.000Z</time>
      </trkpt>
      <trkpt lat="47.45533" lon="6.73276">
        <ele>474.7</ele>
        <time>2014-10-31T15:03:45.000Z</time>
      </trkpt>
      <trkpt lat="47.45527" lon="6.73281">
        <ele>473.9</ele>
        <time>2014-10-31T15:03:46.000Z</time>
      </trkpt>
      <trkpt lat="47.45518" lon="6.73282">
        <ele>471.8</ele>
        <time>2014-10-31T15:03:47.000Z</time>
      </trkpt>
      <trkpt lat="47.45513" lon="6.73282">
        <ele>471.1</ele>
        <time>2014-10-31T15:03:48.000Z</time>
      </trkpt>
      <trkpt lat="47.45506" lon="6.73284">
        <ele>470.6</ele>
        <time>2014-10-31T15:03:49.000Z</time>
      </trkpt>
      <trkpt lat="47.455" lon="6.73285">
        <ele>471</ele>
        <time>2014-10-31T15:03:50.000Z</time>
      </trkpt>
      <trkpt lat="47.45497" lon="6.73292">
        <ele>471.2</ele>
        <time>2014-10-31T15:03:51.000Z</time>
      </trkpt>
      <trkpt lat="47.45492" lon="6.73294">
        <ele>472.6</ele>
        <time>2014-10-31T15:03:52.000Z</time>
      </trkpt>
      <trkpt lat="47.45481" lon="6.73309">
        <ele>471.7</ele>
        <time>2014-10-31T15:03:55.000Z</time>
      </trkpt>
      <trkpt lat="47.4548" lon="6.73316">
        <ele>471.3</ele>
        <time>2014-10-31T15:03:56.000Z</time>
      </trkpt>
      <trkpt lat="47.45476" lon="6.73319">
        <ele>470</ele>
        <time>2014-10-31T15:03:57.000Z</time>
      </trkpt>
      <trkpt lat="47.45473" lon="6.73325">
        <ele>467.2</ele>
        <time>2014-10-31T15:03:58.000Z</time>
      </trkpt>
      <trkpt lat="47.45469" lon="6.73328">
        <ele>467.3</ele>
        <time>2014-10-31T15:03:59.000Z</time>
      </trkpt>
      <trkpt lat="47.45466" lon="6.7333">
        <ele>467.5</ele>
        <time>2014-10-31T15:03:59.999Z</time>
      </trkpt>
      <trkpt lat="47.45464" lon="6.73334">
        <ele>468.6</ele>
        <time>2014-10-31T15:04:01.000Z</time>
      </trkpt>
      <trkpt lat="47.45462" lon="6.73339">
        <ele>468.9</ele>
        <time>2014-10-31T15:04:02.000Z</time>
      </trkpt>
      <trkpt lat="47.4546" lon="6.73343">
        <ele>469.9</ele>
        <time>2014-10-31T15:04:03.000Z</time>
      </trkpt>
      <trkpt lat="47.45457" lon="6.73349">
        <ele>471.3</ele>
        <time>2014-10-31T15:04:04.000Z</time>
      </trkpt>
      <trkpt lat="47.45454" lon="6.73354">
        <ele>469.6</ele>
        <time>2014-10-31T15:04:05.000Z</time>
      </trkpt>
      <trkpt lat="47.45451" lon="6.73358">
        <ele>470.1</ele>
        <time>2014-10-31T15:04:06.000Z</time>
      </trkpt>
      <trkpt lat="47.45447" lon="6.73362">
        <ele>470.1</ele>
        <time>2014-10-31T15:04:07.000Z</time>
      </trkpt>
      <trkpt lat="47.45443" lon="6.73366">
        <ele>471.3</ele>
        <time>2014-10-31T15:04:08.000Z</time>
      </trkpt>
      <trkpt lat="47.45436" lon="6.73376">
        <ele>482.2</ele>
        <time>2014-10-31T15:04:09.000Z</time>
      </trkpt>
      <trkpt lat="47.45432" lon="6.73383">
        <ele>485.4</ele>
        <time>2014-10-31T15:04:10.000Z</time>
      </trkpt>
      <trkpt lat="47.4543" lon="6.73388">
        <ele>487.6</ele>
        <time>2014-10-31T15:04:11.000Z</time>
      </trkpt>
      <trkpt lat="47.45426" lon="6.73393">
        <ele>488.4</ele>
        <time>2014-10-31T15:04:12.000Z</time>
      </trkpt>
      <trkpt lat="47.45425" lon="6.73397">
        <ele>489.8</ele>
        <time>2014-10-31T15:04:13.000Z</time>
      </trkpt>
      <trkpt lat="47.4542" lon="6.73402">
        <ele>489.6</ele>
        <time>2014-10-31T15:04:14.000Z</time>
      </trkpt>
      <trkpt lat="47.4542" lon="6.73408">
        <ele>490.7</ele>
        <time>2014-10-31T15:04:15.000Z</time>
      </trkpt>
      <trkpt lat="47.45419" lon="6.73415">
        <ele>492.3</ele>
        <time>2014-10-31T15:04:16.000Z</time>
      </trkpt>
      <trkpt lat="47.45421" lon="6.73425">
        <ele>490.1</ele>
        <time>2014-10-31T15:04:17.000Z</time>
      </trkpt>
      <trkpt lat="47.45419" lon="6.73428">
        <ele>489.9</ele>
        <time>2014-10-31T15:04:18.000Z</time>
      </trkpt>
      <trkpt lat="47.45418" lon="6.73431">
        <ele>489.4</ele>
        <time>2014-10-31T15:04:19.000Z</time>
      </trkpt>
      <trkpt lat="47.45417" lon="6.73435">
        <ele>486.9</ele>
        <time>2014-10-31T15:04:20.000Z</time>
      </trkpt>
      <trkpt lat="47.45416" lon="6.73438">
        <ele>484.5</ele>
        <time>2014-10-31T15:04:21.000Z</time>
      </trkpt>
      <trkpt lat="47.45415" lon="6.73442">
        <ele>484.5</ele>
        <time>2014-10-31T15:04:22.000Z</time>
      </trkpt>
      <trkpt lat="47.45414" lon="6.73447">
        <ele>486.1</ele>
        <time>2014-10-31T15:04:23.000Z</time>
      </trkpt>
      <trkpt lat="47.45415" lon="6.73454">
        <ele>483.7</ele>
        <time>2014-10-31T15:04:24.000Z</time>
      </trkpt>
      <trkpt lat="47.45416" lon="6.73461">
        <ele>484</ele>
        <time>2014-10-31T15:04:25.000Z</time>
      </trkpt>
      <trkpt lat="47.45417" lon="6.73469">
        <ele>483.6</ele>
        <time>2014-10-31T15:04:26.000Z</time>
      </trkpt>
      <trkpt lat="47.45418" lon="6.73478">
        <ele>482.9</ele>
        <time>2014-10-31T15:04:27.000Z</time>
      </trkpt>
      <trkpt lat="47.45421" lon="6.73487">
        <ele>482.1</ele>
        <time>2014-10-31T15:04:28.000Z</time>
      </trkpt>
      <trkpt lat="47.45433" lon="6.7351">
        <ele>479.6</ele>
        <time>2014-10-31T15:04:29.000Z</time>
      </trkpt>
      <trkpt lat="47.45434" lon="6.73517">
        <ele>479.2</ele>
        <time>2014-10-31T15:04:30.000Z</time>
      </trkpt>
      <trkpt lat="47.45439" lon="6.73528">
        <ele>477.1</ele>
        <time>2014-10-31T15:04:31.000Z</time>
      </trkpt>
      <trkpt lat="47.45439" lon="6.73539">
        <ele>476</ele>
        <time>2014-10-31T15:04:32.000Z</time>
      </trkpt>
      <trkpt lat="47.4544" lon="6.73542">
        <ele>476.4</ele>
        <time>2014-10-31T15:04:33.000Z</time>
      </trkpt>
      <trkpt lat="47.45442" lon="6.73551">
        <ele>476.2</ele>
        <time>2014-10-31T15:04:34.000Z</time>
      </trkpt>
      <trkpt lat="47.45445" lon="6.7356">
        <ele>474.1</ele>
        <time>2014-10-31T15:04:35.000Z</time>
      </trkpt>
      <trkpt lat="47.45445" lon="6.73569">
        <ele>475.3</ele>
        <time>2014-10-31T15:04:36.000Z</time>
      </trkpt>
      <trkpt lat="47.45449" lon="6.73575">
        <ele>474.5</ele>
        <time>2014-10-31T15:04:37.000Z</time>
      </trkpt>
      <trkpt lat="47.4545" lon="6.73582">
        <ele>478</ele>
        <time>2014-10-31T15:04:38.000Z</time>
      </trkpt>
      <trkpt lat="47.45451" lon="6.73587">
        <ele>479.5</ele>
        <time>2014-10-31T15:04:39.000Z</time>
      </trkpt>
      <trkpt lat="47.45453" lon="6.73589">
        <ele>480</ele>
        <time>2014-10-31T15:04:40.000Z</time>
      </trkpt>
      <trkpt lat="47.45454" lon="6.73594">
        <ele>478.1</ele>
        <time>2014-10-31T15:04:41.000Z</time>
      </trkpt>
      <trkpt lat="47.45455" lon="6.73598">
        <ele>478.8</ele>
        <time>2014-10-31T15:04:42.000Z</time>
      </trkpt>
      <trkpt lat="47.45456" lon="6.73601">
        <ele>478.8</ele>
        <time>2014-10-31T15:04:43.000Z</time>
      </trkpt>
      <trkpt lat="47.45457" lon="6.73605">
        <ele>478.3</ele>
        <time>2014-10-31T15:04:44.000Z</time>
      </trkpt>
      <trkpt lat="47.4546" lon="6.7361">
        <ele>477.3</ele>
        <time>2014-10-31T15:04:46.000Z</time>
      </trkpt>
      <trkpt lat="47.45462" lon="6.73612">
        <ele>474.3</ele>
        <time>2014-10-31T15:04:47.000Z</time>
      </trkpt>
      <trkpt lat="47.45465" lon="6.73614">
        <ele>471.9</ele>
        <time>2014-10-31T15:04:48.000Z</time>
      </trkpt>
      <trkpt lat="47.45468" lon="6.73615">
        <ele>472.2</ele>
        <time>2014-10-31T15:04:49.000Z</time>
      </trkpt>
      <trkpt lat="47.45471" lon="6.73616">
        <ele>475.7</ele>
        <time>2014-10-31T15:04:50.000Z</time>
      </trkpt>
      <trkpt lat="47.45474" lon="6.73618">
        <ele>479.2</ele>
        <time>2014-10-31T15:04:51.000Z</time>
      </trkpt>
      <trkpt lat="47.45478" lon="6.73619">
        <ele>481.2</ele>
        <time>2014-10-31T15:04:52.000Z</time>
      </trkpt>
      <trkpt lat="47.4548" lon="6.7362">
        <ele>481.5</ele>
        <time>2014-10-31T15:04:53.000Z</time>
      </trkpt>
      <trkpt lat="47.45488" lon="6.73625">
        <ele>478.8</ele>
        <time>2014-10-31T15:04:56.000Z</time>
      </trkpt>
      <trkpt lat="47.45491" lon="6.73628">
        <ele>479.2</ele>
        <time>2014-10-31T15:04:57.000Z</time>
      </trkpt>
      <trkpt lat="47.45493" lon="6.7363">
        <ele>479.5</ele>
        <time>2014-10-31T15:04:58.000Z</time>
      </trkpt>
      <trkpt lat="47.45497" lon="6.73634">
        <ele>478.3</ele>
        <time>2014-10-31T15:04:59.000Z</time>
      </trkpt>
      <trkpt lat="47.455" lon="6.73638">
        <ele>478.7</ele>
        <time>2014-10-31T15:05:00.000Z</time>
      </trkpt>
      <trkpt lat="47.45503" lon="6.7364">
        <ele>479.8</ele>
        <time>2014-10-31T15:05:01.000Z</time>
      </trkpt>
      <trkpt lat="47.45507" lon="6.73643">
        <ele>479</ele>
        <time>2014-10-31T15:05:02.000Z</time>
      </trkpt>
      <trkpt lat="47.4551" lon="6.73646">
        <ele>478.6</ele>
        <time>2014-10-31T15:05:03.000Z</time>
      </trkpt>
      <trkpt lat="47.45514" lon="6.73648">
        <ele>478.7</ele>
        <time>2014-10-31T15:05:04.000Z</time>
      </trkpt>
      <trkpt lat="47.45517" lon="6.73651">
        <ele>476.3</ele>
        <time>2014-10-31T15:05:05.000Z</time>
      </trkpt>
      <trkpt lat="47.4552" lon="6.73652">
        <ele>476.7</ele>
        <time>2014-10-31T15:05:06.000Z</time>
      </trkpt>
      <trkpt lat="47.45524" lon="6.73654">
        <ele>476</ele>
        <time>2014-10-31T15:05:07.000Z</time>
      </trkpt>
      <trkpt lat="47.45527" lon="6.73656">
        <ele>476.2</ele>
        <time>2014-10-31T15:05:07.999Z</time>
      </trkpt>
      <trkpt lat="47.45532" lon="6.73659">
        <ele>475</ele>
        <time>2014-10-31T15:05:09.000Z</time>
      </trkpt>
      <trkpt lat="47.45535" lon="6.73661">
        <ele>472.7</ele>
        <time>2014-10-31T15:05:10.000Z</time>
      </trkpt>
      <trkpt lat="47.45539" lon="6.73663">
        <ele>472.1</ele>
        <time>2014-10-31T15:05:11.000Z</time>
      </trkpt>
      <trkpt lat="47.45542" lon="6.73665">
        <ele>471.1</ele>
        <time>2014-10-31T15:05:12.000Z</time>
      </trkpt>
      <trkpt lat="47.45545" lon="6.73667">
        <ele>470.5</ele>
        <time>2014-10-31T15:05:13.000Z</time>
      </trkpt>
      <trkpt lat="47.45548" lon="6.73668">
        <ele>472.7</ele>
        <time>2014-10-31T15:05:14.000Z</time>
      </trkpt>
      <trkpt lat="47.45551" lon="6.73669">
        <ele>472.5</ele>
        <time>2014-10-31T15:05:14.999Z</time>
      </trkpt>
      <trkpt lat="47.45555" lon="6.73668">
        <ele>474.5</ele>
        <time>2014-10-31T15:05:16.000Z</time>
      </trkpt>
      <trkpt lat="47.45559" lon="6.73667">
        <ele>474.8</ele>
        <time>2014-10-31T15:05:17.000Z</time>
      </trkpt>
      <trkpt lat="47.45563" lon="6.73667">
        <ele>474.1</ele>
        <time>2014-10-31T15:05:18.000Z</time>
      </trkpt>
      <trkpt lat="47.45566" lon="6.73666">
        <ele>473.3</ele>
        <time>2014-10-31T15:05:19.000Z</time>
      </trkpt>
      <trkpt lat="47.45568" lon="6.73666">
        <ele>476</ele>
        <time>2014-10-31T15:05:20.000Z</time>
      </trkpt>
      <trkpt lat="47.45571" lon="6.73666">
        <ele>475.8</ele>
        <time>2014-10-31T15:05:21.000Z</time>
      </trkpt>
      <trkpt lat="47.45573" lon="6.73666">
        <ele>475.5</ele>
        <time>2014-10-31T15:05:22.000Z</time>
      </trkpt>
      <trkpt lat="47.45577" lon="6.73666">
        <ele>474.7</ele>
        <time>2014-10-31T15:05:23.000Z</time>
      </trkpt>
      <trkpt lat="47.45581" lon="6.73665">
        <ele>472.7</ele>
        <time>2014-10-31T15:05:24.000Z</time>
      </trkpt>
      <trkpt lat="47.45585" lon="6.73664">
        <ele>472.7</ele>
        <time>2014-10-31T15:05:25.000Z</time>
      </trkpt>
      <trkpt lat="47.45589" lon="6.73663">
        <ele>472.9</ele>
        <time>2014-10-31T15:05:26.000Z</time>
      </trkpt>
      <trkpt lat="47.45594" lon="6.73663">
        <ele>474.5</ele>
        <time>2014-10-31T15:05:27.000Z</time>
      </trkpt>
      <trkpt lat="47.45597" lon="6.73663">
        <ele>474.7</ele>
        <time>2014-10-31T15:05:28.000Z</time>
      </trkpt>
      <trkpt lat="47.456" lon="6.73665">
        <ele>475</ele>
        <time>2014-10-31T15:05:29.000Z</time>
      </trkpt>
      <trkpt lat="47.45604" lon="6.73666">
        <ele>473.9</ele>
        <time>2014-10-31T15:05:30.000Z</time>
      </trkpt>
      <trkpt lat="47.45607" lon="6.73667">
        <ele>474.5</ele>
        <time>2014-10-31T15:05:31.000Z</time>
      </trkpt>
      <trkpt lat="47.4561" lon="6.73668">
        <ele>473.4</ele>
        <time>2014-10-31T15:05:32.000Z</time>
      </trkpt>
      <trkpt lat="47.45613" lon="6.73668">
        <ele>472.8</ele>
        <time>2014-10-31T15:05:33.000Z</time>
      </trkpt>
      <trkpt lat="47.45616" lon="6.73668">
        <ele>472.9</ele>
        <time>2014-10-31T15:05:34.001Z</time>
      </trkpt>
      <trkpt lat="47.4562" lon="6.73668">
        <ele>471.1</ele>
        <time>2014-10-31T15:05:35.000Z</time>
      </trkpt>
      <trkpt lat="47.45623" lon="6.73669">
        <ele>471.6</ele>
        <time>2014-10-31T15:05:36.000Z</time>
      </trkpt>
      <trkpt lat="47.45626" lon="6.73669">
        <ele>470</ele>
        <time>2014-10-31T15:05:37.000Z</time>
      </trkpt>
      <trkpt lat="47.45629" lon="6.7367">
        <ele>464.8</ele>
        <time>2014-10-31T15:05:38.000Z</time>
      </trkpt>
      <trkpt lat="47.45632" lon="6.73671">
        <ele>464</ele>
        <time>2014-10-31T15:05:39.000Z</time>
      </trkpt>
      <trkpt lat="47.45634" lon="6.73672">
        <ele>461.9</ele>
        <time>2014-10-31T15:05:40.000Z</time>
      </trkpt>
      <trkpt lat="47.45638" lon="6.73674">
        <ele>461.7</ele>
        <time>2014-10-31T15:05:42.000Z</time>
      </trkpt>
      <trkpt lat="47.45639" lon="6.73677">
        <ele>460.8</ele>
        <time>2014-10-31T15:05:43.000Z</time>
      </trkpt>
      <trkpt lat="47.45639" lon="6.73683">
        <ele>458.5</ele>
        <time>2014-10-31T15:05:45.000Z</time>
      </trkpt>
      <trkpt lat="47.45638" lon="6.73686">
        <ele>459.3</ele>
        <time>2014-10-31T15:05:46.000Z</time>
      </trkpt>
      <trkpt lat="47.45637" lon="6.73688">
        <ele>462.8</ele>
        <time>2014-10-31T15:05:47.000Z</time>
      </trkpt>
      <trkpt lat="47.45635" lon="6.73691">
        <ele>464.4</ele>
        <time>2014-10-31T15:05:48.000Z</time>
      </trkpt>
      <trkpt lat="47.45632" lon="6.73693">
        <ele>465.4</ele>
        <time>2014-10-31T15:05:49.000Z</time>
      </trkpt>
      <trkpt lat="47.45629" lon="6.73696">
        <ele>466</ele>
        <time>2014-10-31T15:05:50.000Z</time>
      </trkpt>
      <trkpt lat="47.45627" lon="6.73699">
        <ele>466.7</ele>
        <time>2014-10-31T15:05:51.001Z</time>
      </trkpt>
      <trkpt lat="47.45624" lon="6.73702">
        <ele>466.8</ele>
        <time>2014-10-31T15:05:52.000Z</time>
      </trkpt>
      <trkpt lat="47.45617" lon="6.73728">
        <ele>477.6</ele>
        <time>2014-10-31T15:06:00.000Z</time>
      </trkpt>
      <trkpt lat="47.45616" lon="6.73733">
        <ele>475.8</ele>
        <time>2014-10-31T15:06:01.000Z</time>
      </trkpt>
      <trkpt lat="47.45617" lon="6.73742">
        <ele>475.8</ele>
        <time>2014-10-31T15:06:02.000Z</time>
      </trkpt>
      <trkpt lat="47.45616" lon="6.73745">
        <ele>476.1</ele>
        <time>2014-10-31T15:06:03.000Z</time>
      </trkpt>
      <trkpt lat="47.45617" lon="6.73755">
        <ele>474.2</ele>
        <time>2014-10-31T15:06:04.000Z</time>
      </trkpt>
      <trkpt lat="47.45617" lon="6.73762">
        <ele>473.7</ele>
        <time>2014-10-31T15:06:05.000Z</time>
      </trkpt>
      <trkpt lat="47.45616" lon="6.73769">
        <ele>475.6</ele>
        <time>2014-10-31T15:06:06.000Z</time>
      </trkpt>
      <trkpt lat="47.45614" lon="6.73775">
        <ele>476.4</ele>
        <time>2014-10-31T15:06:07.000Z</time>
      </trkpt>
      <trkpt lat="47.45612" lon="6.73782">
        <ele>476.1</ele>
        <time>2014-10-31T15:06:08.000Z</time>
      </trkpt>
      <trkpt lat="47.45611" lon="6.73789">
        <ele>475.5</ele>
        <time>2014-10-31T15:06:09.000Z</time>
      </trkpt>
      <trkpt lat="47.45609" lon="6.73795">
        <ele>475.7</ele>
        <time>2014-10-31T15:06:10.000Z</time>
      </trkpt>
      <trkpt lat="47.45607" lon="6.73802">
        <ele>474.9</ele>
        <time>2014-10-31T15:06:11.000Z</time>
      </trkpt>
      <trkpt lat="47.45606" lon="6.73809">
        <ele>474.7</ele>
        <time>2014-10-31T15:06:12.000Z</time>
      </trkpt>
      <trkpt lat="47.45603" lon="6.73831">
        <ele>478.1</ele>
        <time>2014-10-31T15:06:13.000Z</time>
      </trkpt>
      <trkpt lat="47.45603" lon="6.73841">
        <ele>482.3</ele>
        <time>2014-10-31T15:06:14.000Z</time>
      </trkpt>
      <trkpt lat="47.45604" lon="6.73852">
        <ele>480.9</ele>
        <time>2014-10-31T15:06:15.000Z</time>
      </trkpt>
      <trkpt lat="47.45605" lon="6.73861">
        <ele>481.3</ele>
        <time>2014-10-31T15:06:16.000Z</time>
      </trkpt>
      <trkpt lat="47.45606" lon="6.73867">
        <ele>479.6</ele>
        <time>2014-10-31T15:06:17.000Z</time>
      </trkpt>
      <trkpt lat="47.45612" lon="6.73876">
        <ele>477.5</ele>
        <time>2014-10-31T15:06:18.000Z</time>
      </trkpt>
      <trkpt lat="47.45616" lon="6.73885">
        <ele>478.4</ele>
        <time>2014-10-31T15:06:19.000Z</time>
      </trkpt>
      <trkpt lat="47.45622" lon="6.73893">
        <ele>477.4</ele>
        <time>2014-10-31T15:06:20.000Z</time>
      </trkpt>
      <trkpt lat="47.45626" lon="6.739">
        <ele>476.9</ele>
        <time>2014-10-31T15:06:21.000Z</time>
      </trkpt>
      <trkpt lat="47.45631" lon="6.73907">
        <ele>476.6</ele>
        <time>2014-10-31T15:06:22.000Z</time>
      </trkpt>
      <trkpt lat="47.45635" lon="6.73917">
        <ele>476.3</ele>
        <time>2014-10-31T15:06:23.000Z</time>
      </trkpt>
      <trkpt lat="47.4564" lon="6.73928">
        <ele>474.7</ele>
        <time>2014-10-31T15:06:24.000Z</time>
      </trkpt>
      <trkpt lat="47.45643" lon="6.73937">
        <ele>473.5</ele>
        <time>2014-10-31T15:06:25.000Z</time>
      </trkpt>
      <trkpt lat="47.45649" lon="6.73942">
        <ele>473.1</ele>
        <time>2014-10-31T15:06:26.000Z</time>
      </trkpt>
      <trkpt lat="47.45654" lon="6.73948">
        <ele>472.8</ele>
        <time>2014-10-31T15:06:27.000Z</time>
      </trkpt>
      <trkpt lat="47.45659" lon="6.73955">
        <ele>472</ele>
        <time>2014-10-31T15:06:28.000Z</time>
      </trkpt>
      <trkpt lat="47.45662" lon="6.73962">
        <ele>471.8</ele>
        <time>2014-10-31T15:06:29.000Z</time>
      </trkpt>
      <trkpt lat="47.45666" lon="6.73968">
        <ele>471</ele>
        <time>2014-10-31T15:06:30.000Z</time>
      </trkpt>
      <trkpt lat="47.45673" lon="6.7398">
        <ele>468.7</ele>
        <time>2014-10-31T15:06:31.000Z</time>
      </trkpt>
      <trkpt lat="47.4568" lon="6.7399">
        <ele>466.9</ele>
        <time>2014-10-31T15:06:32.000Z</time>
      </trkpt>
      <trkpt lat="47.45685" lon="6.73998">
        <ele>466.1</ele>
        <time>2014-10-31T15:06:33.000Z</time>
      </trkpt>
      <trkpt lat="47.45689" lon="6.74003">
        <ele>465</ele>
        <time>2014-10-31T15:06:34.000Z</time>
      </trkpt>
      <trkpt lat="47.45694" lon="6.74005">
        <ele>464.3</ele>
        <time>2014-10-31T15:06:35.000Z</time>
      </trkpt>
      <trkpt lat="47.45701" lon="6.74012">
        <ele>464.3</ele>
        <time>2014-10-31T15:06:36.000Z</time>
      </trkpt>
      <trkpt lat="47.45708" lon="6.74021">
        <ele>462.4</ele>
        <time>2014-10-31T15:06:37.000Z</time>
      </trkpt>
      <trkpt lat="47.45716" lon="6.74026">
        <ele>461.6</ele>
        <time>2014-10-31T15:06:38.000Z</time>
      </trkpt>
      <trkpt lat="47.45721" lon="6.74031">
        <ele>461.7</ele>
        <time>2014-10-31T15:06:39.000Z</time>
      </trkpt>
      <trkpt lat="47.45727" lon="6.74036">
        <ele>461.2</ele>
        <time>2014-10-31T15:06:40.000Z</time>
      </trkpt>
      <trkpt lat="47.45732" lon="6.7404">
        <ele>460.9</ele>
        <time>2014-10-31T15:06:41.000Z</time>
      </trkpt>
      <trkpt lat="47.45734" lon="6.74046">
        <ele>459.4</ele>
        <time>2014-10-31T15:06:42.000Z</time>
      </trkpt>
      <trkpt lat="47.45736" lon="6.74052">
        <ele>458.1</ele>
        <time>2014-10-31T15:06:43.000Z</time>
      </trkpt>
      <trkpt lat="47.45739" lon="6.74059">
        <ele>456.3</ele>
        <time>2014-10-31T15:06:44.000Z</time>
      </trkpt>
      <trkpt lat="47.45743" lon="6.74065">
        <ele>455.3</ele>
        <time>2014-10-31T15:06:45.000Z</time>
      </trkpt>
      <trkpt lat="47.45746" lon="6.74074">
        <ele>454.2</ele>
        <time>2014-10-31T15:06:46.000Z</time>
      </trkpt>
      <trkpt lat="47.4575" lon="6.74082">
        <ele>452.7</ele>
        <time>2014-10-31T15:06:47.001Z</time>
      </trkpt>
      <trkpt lat="47.4575" lon="6.74089">
        <ele>452.7</ele>
        <time>2014-10-31T15:06:48.000Z</time>
      </trkpt>
      <trkpt lat="47.45756" lon="6.74096">
        <ele>452.7</ele>
        <time>2014-10-31T15:06:49.000Z</time>
      </trkpt>
      <trkpt lat="47.45758" lon="6.74102">
        <ele>453</ele>
        <time>2014-10-31T15:06:49.999Z</time>
      </trkpt>
      <trkpt lat="47.45761" lon="6.74112">
        <ele>454.1</ele>
        <time>2014-10-31T15:06:51.000Z</time>
      </trkpt>
      <trkpt lat="47.45764" lon="6.74118">
        <ele>454.3</ele>
        <time>2014-10-31T15:06:52.000Z</time>
      </trkpt>
      <trkpt lat="47.45766" lon="6.74123">
        <ele>453.4</ele>
        <time>2014-10-31T15:06:53.000Z</time>
      </trkpt>
      <trkpt lat="47.45784" lon="6.74147">
        <ele>462.9</ele>
        <time>2014-10-31T15:07:01.000Z</time>
      </trkpt>
      <trkpt lat="47.45787" lon="6.74149">
        <ele>462.4</ele>
        <time>2014-10-31T15:07:02.000Z</time>
      </trkpt>
      <trkpt lat="47.4579" lon="6.74151">
        <ele>461.7</ele>
        <time>2014-10-31T15:07:03.000Z</time>
      </trkpt>
      <trkpt lat="47.45794" lon="6.74153">
        <ele>462.4</ele>
        <time>2014-10-31T15:07:04.000Z</time>
      </trkpt>
      <trkpt lat="47.45797" lon="6.74155">
        <ele>462.1</ele>
        <time>2014-10-31T15:07:05.000Z</time>
      </trkpt>
      <trkpt lat="47.458" lon="6.74156">
        <ele>458.9</ele>
        <time>2014-10-31T15:07:06.000Z</time>
      </trkpt>
      <trkpt lat="47.45804" lon="6.74158">
        <ele>457.9</ele>
        <time>2014-10-31T15:07:07.000Z</time>
      </trkpt>
      <trkpt lat="47.45808" lon="6.74161">
        <ele>454.7</ele>
        <time>2014-10-31T15:07:08.000Z</time>
      </trkpt>
      <trkpt lat="47.45812" lon="6.74164">
        <ele>454.4</ele>
        <time>2014-10-31T15:07:09.000Z</time>
      </trkpt>
      <trkpt lat="47.45816" lon="6.74167">
        <ele>453.9</ele>
        <time>2014-10-31T15:07:10.000Z</time>
      </trkpt>
      <trkpt lat="47.4582" lon="6.74169">
        <ele>453.7</ele>
        <time>2014-10-31T15:07:11.000Z</time>
      </trkpt>
      <trkpt lat="47.45824" lon="6.74171">
        <ele>452.3</ele>
        <time>2014-10-31T15:07:12.000Z</time>
      </trkpt>
      <trkpt lat="47.45828" lon="6.74173">
        <ele>452</ele>
        <time>2014-10-31T15:07:13.000Z</time>
      </trkpt>
      <trkpt lat="47.45832" lon="6.74174">
        <ele>449.9</ele>
        <time>2014-10-31T15:07:14.000Z</time>
      </trkpt>
      <trkpt lat="47.45836" lon="6.74176">
        <ele>449.5</ele>
        <time>2014-10-31T15:07:15.000Z</time>
      </trkpt>
      <trkpt lat="47.4584" lon="6.74177">
        <ele>450.1</ele>
        <time>2014-10-31T15:07:16.000Z</time>
      </trkpt>
      <trkpt lat="47.45843" lon="6.74178">
        <ele>449.4</ele>
        <time>2014-10-31T15:07:17.000Z</time>
      </trkpt>
      <trkpt lat="47.45847" lon="6.74179">
        <ele>449.5</ele>
        <time>2014-10-31T15:07:18.000Z</time>
      </trkpt>
      <trkpt lat="47.45851" lon="6.7418">
        <ele>450.4</ele>
        <time>2014-10-31T15:07:19.000Z</time>
      </trkpt>
      <trkpt lat="47.45855" lon="6.74181">
        <ele>450.3</ele>
        <time>2014-10-31T15:07:20.000Z</time>
      </trkpt>
      <trkpt lat="47.45859" lon="6.74182">
        <ele>450</ele>
        <time>2014-10-31T15:07:21.000Z</time>
      </trkpt>
      <trkpt lat="47.45864" lon="6.74182">
        <ele>449.8</ele>
        <time>2014-10-31T15:07:22.000Z</time>
      </trkpt>
      <trkpt lat="47.45869" lon="6.74182">
        <ele>449.8</ele>
        <time>2014-10-31T15:07:23.000Z</time>
      </trkpt>
      <trkpt lat="47.45874" lon="6.74183">
        <ele>449.5</ele>
        <time>2014-10-31T15:07:24.000Z</time>
      </trkpt>
      <trkpt lat="47.45879" lon="6.74184">
        <ele>448.4</ele>
        <time>2014-10-31T15:07:25.000Z</time>
      </trkpt>
      <trkpt lat="47.45883" lon="6.74185">
        <ele>447.7</ele>
        <time>2014-10-31T15:07:26.000Z</time>
      </trkpt>
      <trkpt lat="47.45888" lon="6.74186">
        <ele>447.8</ele>
        <time>2014-10-31T15:07:27.000Z</time>
      </trkpt>
      <trkpt lat="47.45892" lon="6.74187">
        <ele>447.5</ele>
        <time>2014-10-31T15:07:28.000Z</time>
      </trkpt>
      <trkpt lat="47.45897" lon="6.74188">
        <ele>447</ele>
        <time>2014-10-31T15:07:29.000Z</time>
      </trkpt>
      <trkpt lat="47.45901" lon="6.7419">
        <ele>447.4</ele>
        <time>2014-10-31T15:07:30.000Z</time>
      </trkpt>
      <trkpt lat="47.45905" lon="6.74191">
        <ele>448.6</ele>
        <time>2014-10-31T15:07:31.000Z</time>
      </trkpt>
      <trkpt lat="47.45909" lon="6.74192">
        <ele>448.9</ele>
        <time>2014-10-31T15:07:32.000Z</time>
      </trkpt>
      <trkpt lat="47.45913" lon="6.74191">
        <ele>448.7</ele>
        <time>2014-10-31T15:07:33.000Z</time>
      </trkpt>
      <trkpt lat="47.45917" lon="6.74191">
        <ele>449.1</ele>
        <time>2014-10-31T15:07:34.000Z</time>
      </trkpt>
      <trkpt lat="47.45921" lon="6.74189">
        <ele>450.3</ele>
        <time>2014-10-31T15:07:35.000Z</time>
      </trkpt>
      <trkpt lat="47.45925" lon="6.74188">
        <ele>450.3</ele>
        <time>2014-10-31T15:07:36.000Z</time>
      </trkpt>
      <trkpt lat="47.45929" lon="6.74187">
        <ele>449.7</ele>
        <time>2014-10-31T15:07:37.000Z</time>
      </trkpt>
      <trkpt lat="47.45933" lon="6.74187">
        <ele>449.8</ele>
        <time>2014-10-31T15:07:38.000Z</time>
      </trkpt>
      <trkpt lat="47.45936" lon="6.74187">
        <ele>450.6</ele>
        <time>2014-10-31T15:07:39.000Z</time>
      </trkpt>
      <trkpt lat="47.4594" lon="6.74187">
        <ele>450.4</ele>
        <time>2014-10-31T15:07:40.000Z</time>
      </trkpt>
      <trkpt lat="47.45943" lon="6.74189">
        <ele>450.5</ele>
        <time>2014-10-31T15:07:41.000Z</time>
      </trkpt>
      <trkpt lat="47.45946" lon="6.74191">
        <ele>450.8</ele>
        <time>2014-10-31T15:07:42.000Z</time>
      </trkpt>
      <trkpt lat="47.45949" lon="6.74193">
        <ele>450.7</ele>
        <time>2014-10-31T15:07:43.000Z</time>
      </trkpt>
      <trkpt lat="47.45953" lon="6.74195">
        <ele>450.2</ele>
        <time>2014-10-31T15:07:44.000Z</time>
      </trkpt>
      <trkpt lat="47.45956" lon="6.74197">
        <ele>449.3</ele>
        <time>2014-10-31T15:07:45.000Z</time>
      </trkpt>
      <trkpt lat="47.4596" lon="6.742">
        <ele>448.5</ele>
        <time>2014-10-31T15:07:46.000Z</time>
      </trkpt>
      <trkpt lat="47.45965" lon="6.74201">
        <ele>446.7</ele>
        <time>2014-10-31T15:07:47.000Z</time>
      </trkpt>
      <trkpt lat="47.45969" lon="6.74203">
        <ele>444.4</ele>
        <time>2014-10-31T15:07:48.000Z</time>
      </trkpt>
      <trkpt lat="47.45976" lon="6.74208">
        <ele>442.9</ele>
        <time>2014-10-31T15:07:49.000Z</time>
      </trkpt>
      <trkpt lat="47.45979" lon="6.74209">
        <ele>442.9</ele>
        <time>2014-10-31T15:07:50.000Z</time>
      </trkpt>
      <trkpt lat="47.45982" lon="6.7421">
        <ele>442.4</ele>
        <time>2014-10-31T15:07:51.000Z</time>
      </trkpt>
      <trkpt lat="47.45983" lon="6.7421">
        <ele>442.8</ele>
        <time>2014-10-31T15:07:52.000Z</time>
      </trkpt>
      <trkpt lat="47.45988" lon="6.74207">
        <ele>444.1</ele>
        <time>2014-10-31T15:07:55.000Z</time>
      </trkpt>
      <trkpt lat="47.45992" lon="6.74205">
        <ele>443.2</ele>
        <time>2014-10-31T15:07:57.000Z</time>
      </trkpt>
      <trkpt lat="47.45994" lon="6.74205">
        <ele>446</ele>
        <time>2014-10-31T15:07:58.000Z</time>
      </trkpt>
      <trkpt lat="47.45997" lon="6.74205">
        <ele>446.9</ele>
        <time>2014-10-31T15:07:59.000Z</time>
      </trkpt>
      <trkpt lat="47.45999" lon="6.74205">
        <ele>446.6</ele>
        <time>2014-10-31T15:08:00.000Z</time>
      </trkpt>
      <trkpt lat="47.46002" lon="6.74205">
        <ele>445.7</ele>
        <time>2014-10-31T15:08:01.000Z</time>
      </trkpt>
      <trkpt lat="47.46004" lon="6.74205">
        <ele>445</ele>
        <time>2014-10-31T15:08:02.000Z</time>
      </trkpt>
      <trkpt lat="47.46007" lon="6.74205">
        <ele>445.5</ele>
        <time>2014-10-31T15:08:03.000Z</time>
      </trkpt>
      <trkpt lat="47.46009" lon="6.74205">
        <ele>445.3</ele>
        <time>2014-10-31T15:08:04.000Z</time>
      </trkpt>
      <trkpt lat="47.46012" lon="6.74205">
        <ele>446</ele>
        <time>2014-10-31T15:08:05.000Z</time>
      </trkpt>
      <trkpt lat="47.46015" lon="6.74206">
        <ele>444.8</ele>
        <time>2014-10-31T15:08:06.000Z</time>
      </trkpt>
      <trkpt lat="47.46018" lon="6.74206">
        <ele>444.8</ele>
        <time>2014-10-31T15:08:07.000Z</time>
      </trkpt>
      <trkpt lat="47.46022" lon="6.74207">
        <ele>445.2</ele>
        <time>2014-10-31T15:08:08.000Z</time>
      </trkpt>
      <trkpt lat="47.46026" lon="6.74208">
        <ele>444.4</ele>
        <time>2014-10-31T15:08:09.000Z</time>
      </trkpt>
      <trkpt lat="47.46029" lon="6.74209">
        <ele>444.6</ele>
        <time>2014-10-31T15:08:10.000Z</time>
      </trkpt>
      <trkpt lat="47.46032" lon="6.7421">
        <ele>444.3</ele>
        <time>2014-10-31T15:08:11.000Z</time>
      </trkpt>
      <trkpt lat="47.46035" lon="6.74211">
        <ele>444.1</ele>
        <time>2014-10-31T15:08:12.000Z</time>
      </trkpt>
      <trkpt lat="47.46038" lon="6.74211">
        <ele>443.2</ele>
        <time>2014-10-31T15:08:13.000Z</time>
      </trkpt>
      <trkpt lat="47.46041" lon="6.7421">
        <ele>442.4</ele>
        <time>2014-10-31T15:08:14.000Z</time>
      </trkpt>
      <trkpt lat="47.46045" lon="6.7421">
        <ele>444.6</ele>
        <time>2014-10-31T15:08:15.000Z</time>
      </trkpt>
      <trkpt lat="47.46048" lon="6.74211">
        <ele>444.7</ele>
        <time>2014-10-31T15:08:16.000Z</time>
      </trkpt>
      <trkpt lat="47.46052" lon="6.74212">
        <ele>449.3</ele>
        <time>2014-10-31T15:08:17.000Z</time>
      </trkpt>
      <trkpt lat="47.46055" lon="6.74213">
        <ele>451.1</ele>
        <time>2014-10-31T15:08:18.000Z</time>
      </trkpt>
      <trkpt lat="47.46058" lon="6.74214">
        <ele>452.1</ele>
        <time>2014-10-31T15:08:19.000Z</time>
      </trkpt>
      <trkpt lat="47.46061" lon="6.74214">
        <ele>452.1</ele>
        <time>2014-10-31T15:08:20.000Z</time>
      </trkpt>
      <trkpt lat="47.46064" lon="6.74214">
        <ele>450.5</ele>
        <time>2014-10-31T15:08:21.000Z</time>
      </trkpt>
      <trkpt lat="47.46067" lon="6.74214">
        <ele>449.9</ele>
        <time>2014-10-31T15:08:22.000Z</time>
      </trkpt>
      <trkpt lat="47.4607" lon="6.74215">
        <ele>449.6</ele>
        <time>2014-10-31T15:08:23.000Z</time>
      </trkpt>
      <trkpt lat="47.46073" lon="6.74217">
        <ele>449.1</ele>
        <time>2014-10-31T15:08:24.000Z</time>
      </trkpt>
      <trkpt lat="47.46076" lon="6.74218">
        <ele>449.4</ele>
        <time>2014-10-31T15:08:25.000Z</time>
      </trkpt>
      <trkpt lat="47.46079" lon="6.74219">
        <ele>449</ele>
        <time>2014-10-31T15:08:26.000Z</time>
      </trkpt>
      <trkpt lat="47.46082" lon="6.74219">
        <ele>448.7</ele>
        <time>2014-10-31T15:08:27.000Z</time>
      </trkpt>
      <trkpt lat="47.46086" lon="6.7422">
        <ele>448.1</ele>
        <time>2014-10-31T15:08:28.000Z</time>
      </trkpt>
      <trkpt lat="47.46089" lon="6.74221">
        <ele>447.6</ele>
        <time>2014-10-31T15:08:29.000Z</time>
      </trkpt>
      <trkpt lat="47.46092" lon="6.74222">
        <ele>447.3</ele>
        <time>2014-10-31T15:08:30.000Z</time>
      </trkpt>
      <trkpt lat="47.46096" lon="6.74222">
        <ele>447</ele>
        <time>2014-10-31T15:08:31.000Z</time>
      </trkpt>
      <trkpt lat="47.461" lon="6.74223">
        <ele>447</ele>
        <time>2014-10-31T15:08:32.000Z</time>
      </trkpt>
      <trkpt lat="47.46103" lon="6.74224">
        <ele>447.1</ele>
        <time>2014-10-31T15:08:33.000Z</time>
      </trkpt>
      <trkpt lat="47.46107" lon="6.74225">
        <ele>445.8</ele>
        <time>2014-10-31T15:08:34.000Z</time>
      </trkpt>
      <trkpt lat="47.46112" lon="6.74225">
        <ele>453</ele>
        <time>2014-10-31T15:08:35.000Z</time>
      </trkpt>
      <trkpt lat="47.46116" lon="6.74226">
        <ele>454.2</ele>
        <time>2014-10-31T15:08:36.000Z</time>
      </trkpt>
      <trkpt lat="47.46121" lon="6.74228">
        <ele>452.9</ele>
        <time>2014-10-31T15:08:37.000Z</time>
      </trkpt>
      <trkpt lat="47.46125" lon="6.74229">
        <ele>453.6</ele>
        <time>2014-10-31T15:08:38.000Z</time>
      </trkpt>
      <trkpt lat="47.4613" lon="6.74229">
        <ele>453.5</ele>
        <time>2014-10-31T15:08:39.000Z</time>
      </trkpt>
      <trkpt lat="47.46133" lon="6.7423">
        <ele>453.5</ele>
        <time>2014-10-31T15:08:40.000Z</time>
      </trkpt>
      <trkpt lat="47.46137" lon="6.7423">
        <ele>454</ele>
        <time>2014-10-31T15:08:41.000Z</time>
      </trkpt>
      <trkpt lat="47.4614" lon="6.7423">
        <ele>453.7</ele>
        <time>2014-10-31T15:08:42.000Z</time>
      </trkpt>
      <trkpt lat="47.46143" lon="6.7423">
        <ele>453.4</ele>
        <time>2014-10-31T15:08:43.000Z</time>
      </trkpt>
      <trkpt lat="47.46146" lon="6.7423">
        <ele>459.5</ele>
        <time>2014-10-31T15:08:44.000Z</time>
      </trkpt>
      <trkpt lat="47.4615" lon="6.7423">
        <ele>458.5</ele>
        <time>2014-10-31T15:08:45.000Z</time>
      </trkpt>
      <trkpt lat="47.46154" lon="6.74231">
        <ele>457.7</ele>
        <time>2014-10-31T15:08:46.000Z</time>
      </trkpt>
      <trkpt lat="47.46158" lon="6.74232">
        <ele>457.3</ele>
        <time>2014-10-31T15:08:47.000Z</time>
      </trkpt>
      <trkpt lat="47.46161" lon="6.74233">
        <ele>455.4</ele>
        <time>2014-10-31T15:08:48.000Z</time>
      </trkpt>
      <trkpt lat="47.46164" lon="6.74234">
        <ele>454.3</ele>
        <time>2014-10-31T15:08:49.000Z</time>
      </trkpt>
      <trkpt lat="47.46167" lon="6.74236">
        <ele>454</ele>
        <time>2014-10-31T15:08:50.000Z</time>
      </trkpt>
      <trkpt lat="47.46171" lon="6.74237">
        <ele>454.2</ele>
        <time>2014-10-31T15:08:51.000Z</time>
      </trkpt>
      <trkpt lat="47.46174" lon="6.74238">
        <ele>454.1</ele>
        <time>2014-10-31T15:08:52.000Z</time>
      </trkpt>
      <trkpt lat="47.46181" lon="6.74238">
        <ele>452.1</ele>
        <time>2014-10-31T15:08:55.000Z</time>
      </trkpt>
      <trkpt lat="47.46183" lon="6.74238">
        <ele>452.5</ele>
        <time>2014-10-31T15:08:56.000Z</time>
      </trkpt>
      <trkpt lat="47.46186" lon="6.74239">
        <ele>451.9</ele>
        <time>2014-10-31T15:08:57.000Z</time>
      </trkpt>
      <trkpt lat="47.46188" lon="6.74241">
        <ele>450.9</ele>
        <time>2014-10-31T15:08:58.000Z</time>
      </trkpt>
      <trkpt lat="47.46191" lon="6.74242">
        <ele>449.6</ele>
        <time>2014-10-31T15:08:59.000Z</time>
      </trkpt>
      <trkpt lat="47.46194" lon="6.74245">
        <ele>447.9</ele>
        <time>2014-10-31T15:09:00.000Z</time>
      </trkpt>
      <trkpt lat="47.46198" lon="6.74247">
        <ele>451.6</ele>
        <time>2014-10-31T15:09:01.000Z</time>
      </trkpt>
      <trkpt lat="47.46202" lon="6.74249">
        <ele>451.6</ele>
        <time>2014-10-31T15:09:02.000Z</time>
      </trkpt>
      <trkpt lat="47.46206" lon="6.74251">
        <ele>454.4</ele>
        <time>2014-10-31T15:09:03.000Z</time>
      </trkpt>
      <trkpt lat="47.4621" lon="6.74254">
        <ele>453.8</ele>
        <time>2014-10-31T15:09:04.000Z</time>
      </trkpt>
      <trkpt lat="47.46214" lon="6.74256">
        <ele>453.4</ele>
        <time>2014-10-31T15:09:05.000Z</time>
      </trkpt>
      <trkpt lat="47.46218" lon="6.74258">
        <ele>451.2</ele>
        <time>2014-10-31T15:09:06.000Z</time>
      </trkpt>
      <trkpt lat="47.46222" lon="6.74259">
        <ele>451.1</ele>
        <time>2014-10-31T15:09:07.000Z</time>
      </trkpt>
      <trkpt lat="47.46226" lon="6.74261">
        <ele>451.5</ele>
        <time>2014-10-31T15:09:08.000Z</time>
      </trkpt>
      <trkpt lat="47.4623" lon="6.74263">
        <ele>454.2</ele>
        <time>2014-10-31T15:09:09.000Z</time>
      </trkpt>
      <trkpt lat="47.46235" lon="6.74265">
        <ele>452.3</ele>
        <time>2014-10-31T15:09:10.000Z</time>
      </trkpt>
      <trkpt lat="47.46239" lon="6.74267">
        <ele>450.3</ele>
        <time>2014-10-31T15:09:11.000Z</time>
      </trkpt>
      <trkpt lat="47.46243" lon="6.74268">
        <ele>447.9</ele>
        <time>2014-10-31T15:09:12.000Z</time>
      </trkpt>
      <trkpt lat="47.46247" lon="6.74268">
        <ele>446.5</ele>
        <time>2014-10-31T15:09:13.000Z</time>
      </trkpt>
      <trkpt lat="47.4625" lon="6.74269">
        <ele>443.4</ele>
        <time>2014-10-31T15:09:14.000Z</time>
      </trkpt>
      <trkpt lat="47.46254" lon="6.74271">
        <ele>443.2</ele>
        <time>2014-10-31T15:09:15.000Z</time>
      </trkpt>
      <trkpt lat="47.46258" lon="6.74272">
        <ele>443.3</ele>
        <time>2014-10-31T15:09:17.000Z</time>
      </trkpt>
      <trkpt lat="47.46259" lon="6.74272">
        <ele>442.7</ele>
        <time>2014-10-31T15:09:18.000Z</time>
      </trkpt>
      <trkpt lat="47.46262" lon="6.74273">
        <ele>440.4</ele>
        <time>2014-10-31T15:09:24.000Z</time>
      </trkpt>
      <trkpt lat="47.46263" lon="6.74275">
        <ele>440.3</ele>
        <time>2014-10-31T15:09:25.000Z</time>
      </trkpt>
      <trkpt lat="47.46265" lon="6.7428">
        <ele>439.9</ele>
        <time>2014-10-31T15:09:27.000Z</time>
      </trkpt>
      <trkpt lat="47.46267" lon="6.74283">
        <ele>439.3</ele>
        <time>2014-10-31T15:09:28.000Z</time>
      </trkpt>
      <trkpt lat="47.46269" lon="6.74285">
        <ele>438.9</ele>
        <time>2014-10-31T15:09:29.000Z</time>
      </trkpt>
      <trkpt lat="47.46271" lon="6.74287">
        <ele>438.9</ele>
        <time>2014-10-31T15:09:30.000Z</time>
      </trkpt>
      <trkpt lat="47.46274" lon="6.74287">
        <ele>438.9</ele>
        <time>2014-10-31T15:09:31.000Z</time>
      </trkpt>
      <trkpt lat="47.46277" lon="6.74288">
        <ele>439.1</ele>
        <time>2014-10-31T15:09:32.000Z</time>
      </trkpt>
      <trkpt lat="47.46279" lon="6.74288">
        <ele>438.9</ele>
        <time>2014-10-31T15:09:33.000Z</time>
      </trkpt>
      <trkpt lat="47.46282" lon="6.74288">
        <ele>438.2</ele>
        <time>2014-10-31T15:09:34.000Z</time>
      </trkpt>
      <trkpt lat="47.46284" lon="6.74289">
        <ele>436.7</ele>
        <time>2014-10-31T15:09:35.000Z</time>
      </trkpt>
      <trkpt lat="47.46286" lon="6.7429">
        <ele>436.7</ele>
        <time>2014-10-31T15:09:36.000Z</time>
      </trkpt>
      <trkpt lat="47.46291" lon="6.74291">
        <ele>436.2</ele>
        <time>2014-10-31T15:09:38.000Z</time>
      </trkpt>
      <trkpt lat="47.46293" lon="6.74292">
        <ele>434.9</ele>
        <time>2014-10-31T15:09:39.000Z</time>
      </trkpt>
      <trkpt lat="47.46296" lon="6.74292">
        <ele>433.4</ele>
        <time>2014-10-31T15:09:40.000Z</time>
      </trkpt>
      <trkpt lat="47.46299" lon="6.74292">
        <ele>431.8</ele>
        <time>2014-10-31T15:09:41.000Z</time>
      </trkpt>
      <trkpt lat="47.46301" lon="6.74292">
        <ele>431.4</ele>
        <time>2014-10-31T15:09:42.000Z</time>
      </trkpt>
      <trkpt lat="47.46304" lon="6.74292">
        <ele>431.6</ele>
        <time>2014-10-31T15:09:43.000Z</time>
      </trkpt>
      <trkpt lat="47.46307" lon="6.74292">
        <ele>431.3</ele>
        <time>2014-10-31T15:09:44.000Z</time>
      </trkpt>
      <trkpt lat="47.4631" lon="6.74292">
        <ele>433</ele>
        <time>2014-10-31T15:09:45.000Z</time>
      </trkpt>
      <trkpt lat="47.46313" lon="6.74293">
        <ele>430.4</ele>
        <time>2014-10-31T15:09:46.000Z</time>
      </trkpt>
      <trkpt lat="47.46316" lon="6.74294">
        <ele>428.5</ele>
        <time>2014-10-31T15:09:47.000Z</time>
      </trkpt>
      <trkpt lat="47.4632" lon="6.74294">
        <ele>428.9</ele>
        <time>2014-10-31T15:09:48.000Z</time>
      </trkpt>
      <trkpt lat="47.46323" lon="6.74295">
        <ele>429.3</ele>
        <time>2014-10-31T15:09:49.000Z</time>
      </trkpt>
      <trkpt lat="47.46326" lon="6.74296">
        <ele>429.4</ele>
        <time>2014-10-31T15:09:50.000Z</time>
      </trkpt>
      <trkpt lat="47.46329" lon="6.74297">
        <ele>429.9</ele>
        <time>2014-10-31T15:09:51.000Z</time>
      </trkpt>
      <trkpt lat="47.46332" lon="6.74298">
        <ele>430.3</ele>
        <time>2014-10-31T15:09:52.000Z</time>
      </trkpt>
      <trkpt lat="47.4636" lon="6.74314">
        <ele>431.3</ele>
        <time>2014-10-31T15:09:59.755Z</time>
      </trkpt>
      <trkpt lat="47.46364" lon="6.74317">
        <ele>431.4</ele>
        <time>2014-10-31T15:10:01.000Z</time>
      </trkpt>
      <trkpt lat="47.46368" lon="6.7432">
        <ele>431.7</ele>
        <time>2014-10-31T15:10:02.000Z</time>
      </trkpt>
      <trkpt lat="47.46372" lon="6.74321">
        <ele>430.5</ele>
        <time>2014-10-31T15:10:03.000Z</time>
      </trkpt>
      <trkpt lat="47.46377" lon="6.74323">
        <ele>429.1</ele>
        <time>2014-10-31T15:10:04.000Z</time>
      </trkpt>
      <trkpt lat="47.46381" lon="6.74325">
        <ele>428.7</ele>
        <time>2014-10-31T15:10:05.000Z</time>
      </trkpt>
      <trkpt lat="47.46385" lon="6.74327">
        <ele>428</ele>
        <time>2014-10-31T15:10:06.000Z</time>
      </trkpt>
      <trkpt lat="47.46389" lon="6.74328">
        <ele>429.4</ele>
        <time>2014-10-31T15:10:07.000Z</time>
      </trkpt>
      <trkpt lat="47.46393" lon="6.74329">
        <ele>430.8</ele>
        <time>2014-10-31T15:10:08.000Z</time>
      </trkpt>
      <trkpt lat="47.46397" lon="6.7433">
        <ele>431</ele>
        <time>2014-10-31T15:10:09.000Z</time>
      </trkpt>
      <trkpt lat="47.46401" lon="6.74331">
        <ele>430.3</ele>
        <time>2014-10-31T15:10:10.000Z</time>
      </trkpt>
      <trkpt lat="47.46404" lon="6.74333">
        <ele>434.1</ele>
        <time>2014-10-31T15:10:11.000Z</time>
      </trkpt>
      <trkpt lat="47.46408" lon="6.74336">
        <ele>434.9</ele>
        <time>2014-10-31T15:10:12.000Z</time>
      </trkpt>
      <trkpt lat="47.46411" lon="6.74338">
        <ele>434.1</ele>
        <time>2014-10-31T15:10:13.000Z</time>
      </trkpt>
      <trkpt lat="47.46414" lon="6.74341">
        <ele>433.7</ele>
        <time>2014-10-31T15:10:14.000Z</time>
      </trkpt>
      <trkpt lat="47.46416" lon="6.74343">
        <ele>433.9</ele>
        <time>2014-10-31T15:10:15.000Z</time>
      </trkpt>
      <trkpt lat="47.46418" lon="6.74346">
        <ele>434.2</ele>
        <time>2014-10-31T15:10:16.000Z</time>
      </trkpt>
      <trkpt lat="47.4642" lon="6.74349">
        <ele>434</ele>
        <time>2014-10-31T15:10:17.000Z</time>
      </trkpt>
      <trkpt lat="47.46422" lon="6.74352">
        <ele>433.9</ele>
        <time>2014-10-31T15:10:18.000Z</time>
      </trkpt>
      <trkpt lat="47.46425" lon="6.74356">
        <ele>432.7</ele>
        <time>2014-10-31T15:10:19.000Z</time>
      </trkpt>
      <trkpt lat="47.46428" lon="6.74361">
        <ele>432</ele>
        <time>2014-10-31T15:10:20.000Z</time>
      </trkpt>
      <trkpt lat="47.46432" lon="6.74366">
        <ele>432.8</ele>
        <time>2014-10-31T15:10:21.000Z</time>
      </trkpt>
      <trkpt lat="47.46435" lon="6.74372">
        <ele>433.5</ele>
        <time>2014-10-31T15:10:22.000Z</time>
      </trkpt>
      <trkpt lat="47.46439" lon="6.74376">
        <ele>434.1</ele>
        <time>2014-10-31T15:10:23.000Z</time>
      </trkpt>
      <trkpt lat="47.46442" lon="6.7438">
        <ele>434.2</ele>
        <time>2014-10-31T15:10:24.000Z</time>
      </trkpt>
      <trkpt lat="47.46445" lon="6.74383">
        <ele>433.9</ele>
        <time>2014-10-31T15:10:25.000Z</time>
      </trkpt>
      <trkpt lat="47.46449" lon="6.74386">
        <ele>437.1</ele>
        <time>2014-10-31T15:10:26.000Z</time>
      </trkpt>
      <trkpt lat="47.46453" lon="6.7439">
        <ele>436.8</ele>
        <time>2014-10-31T15:10:27.000Z</time>
      </trkpt>
      <trkpt lat="47.46458" lon="6.74394">
        <ele>436.9</ele>
        <time>2014-10-31T15:10:28.000Z</time>
      </trkpt>
      <trkpt lat="47.46462" lon="6.74399">
        <ele>436.7</ele>
        <time>2014-10-31T15:10:29.000Z</time>
      </trkpt>
      <trkpt lat="47.46467" lon="6.74404">
        <ele>436.6</ele>
        <time>2014-10-31T15:10:30.000Z</time>
      </trkpt>
      <trkpt lat="47.46471" lon="6.7441">
        <ele>436.2</ele>
        <time>2014-10-31T15:10:31.000Z</time>
      </trkpt>
      <trkpt lat="47.46476" lon="6.74417">
        <ele>436.5</ele>
        <time>2014-10-31T15:10:32.000Z</time>
      </trkpt>
      <trkpt lat="47.46481" lon="6.74423">
        <ele>436.6</ele>
        <time>2014-10-31T15:10:33.000Z</time>
      </trkpt>
      <trkpt lat="47.46486" lon="6.74428">
        <ele>436.7</ele>
        <time>2014-10-31T15:10:34.000Z</time>
      </trkpt>
      <trkpt lat="47.46491" lon="6.74433">
        <ele>436.1</ele>
        <time>2014-10-31T15:10:35.000Z</time>
      </trkpt>
      <trkpt lat="47.46495" lon="6.74439">
        <ele>435.6</ele>
        <time>2014-10-31T15:10:36.000Z</time>
      </trkpt>
      <trkpt lat="47.46499" lon="6.74444">
        <ele>435.4</ele>
        <time>2014-10-31T15:10:37.000Z</time>
      </trkpt>
      <trkpt lat="47.46502" lon="6.7445">
        <ele>434.9</ele>
        <time>2014-10-31T15:10:38.000Z</time>
      </trkpt>
      <trkpt lat="47.46506" lon="6.74455">
        <ele>435.3</ele>
        <time>2014-10-31T15:10:39.000Z</time>
      </trkpt>
      <trkpt lat="47.46509" lon="6.7446">
        <ele>435.5</ele>
        <time>2014-10-31T15:10:40.000Z</time>
      </trkpt>
      <trkpt lat="47.46513" lon="6.74466">
        <ele>434.6</ele>
        <time>2014-10-31T15:10:41.000Z</time>
      </trkpt>
      <trkpt lat="47.46517" lon="6.74471">
        <ele>433.2</ele>
        <time>2014-10-31T15:10:42.000Z</time>
      </trkpt>
      <trkpt lat="47.46521" lon="6.74477">
        <ele>431.9</ele>
        <time>2014-10-31T15:10:43.000Z</time>
      </trkpt>
      <trkpt lat="47.46526" lon="6.74482">
        <ele>431</ele>
        <time>2014-10-31T15:10:44.000Z</time>
      </trkpt>
      <trkpt lat="47.4653" lon="6.74488">
        <ele>430.5</ele>
        <time>2014-10-31T15:10:45.000Z</time>
      </trkpt>
      <trkpt lat="47.46534" lon="6.74494">
        <ele>430.2</ele>
        <time>2014-10-31T15:10:46.000Z</time>
      </trkpt>
      <trkpt lat="47.46538" lon="6.74499">
        <ele>430.5</ele>
        <time>2014-10-31T15:10:47.000Z</time>
      </trkpt>
      <trkpt lat="47.46543" lon="6.74504">
        <ele>430</ele>
        <time>2014-10-31T15:10:48.000Z</time>
      </trkpt>
      <trkpt lat="47.46547" lon="6.74509">
        <ele>430.2</ele>
        <time>2014-10-31T15:10:49.000Z</time>
      </trkpt>
      <trkpt lat="47.46552" lon="6.74515">
        <ele>429.4</ele>
        <time>2014-10-31T15:10:50.000Z</time>
      </trkpt>
      <trkpt lat="47.46557" lon="6.74521">
        <ele>428.9</ele>
        <time>2014-10-31T15:10:51.000Z</time>
      </trkpt>
      <trkpt lat="47.46562" lon="6.74528">
        <ele>427.4</ele>
        <time>2014-10-31T15:10:52.000Z</time>
      </trkpt>
      <trkpt lat="47.46572" lon="6.74542">
        <ele>426.3</ele>
        <time>2014-10-31T15:10:55.000Z</time>
      </trkpt>
      <trkpt lat="47.46575" lon="6.74548">
        <ele>425.6</ele>
        <time>2014-10-31T15:10:56.000Z</time>
      </trkpt>
      <trkpt lat="47.46579" lon="6.74554">
        <ele>424</ele>
        <time>2014-10-31T15:10:57.000Z</time>
      </trkpt>
      <trkpt lat="47.46584" lon="6.74561">
        <ele>423.3</ele>
        <time>2014-10-31T15:10:58.000Z</time>
      </trkpt>
      <trkpt lat="47.46602" lon="6.74586">
        <ele>421.6</ele>
        <time>2014-10-31T15:10:59.000Z</time>
      </trkpt>
      <trkpt lat="47.46607" lon="6.74594">
        <ele>420.4</ele>
        <time>2014-10-31T15:11:00.000Z</time>
      </trkpt>
      <trkpt lat="47.46611" lon="6.74598">
        <ele>419.3</ele>
        <time>2014-10-31T15:11:01.000Z</time>
      </trkpt>
      <trkpt lat="47.46615" lon="6.74604">
        <ele>418.4</ele>
        <time>2014-10-31T15:11:02.000Z</time>
      </trkpt>
      <trkpt lat="47.46621" lon="6.74614">
        <ele>417</ele>
        <time>2014-10-31T15:11:03.000Z</time>
      </trkpt>
      <trkpt lat="47.46628" lon="6.74623">
        <ele>416</ele>
        <time>2014-10-31T15:11:04.000Z</time>
      </trkpt>
      <trkpt lat="47.46634" lon="6.74633">
        <ele>415</ele>
        <time>2014-10-31T15:11:05.000Z</time>
      </trkpt>
      <trkpt lat="47.46643" lon="6.74644">
        <ele>411.7</ele>
        <time>2014-10-31T15:11:06.000Z</time>
      </trkpt>
      <trkpt lat="47.46651" lon="6.74656">
        <ele>407.1</ele>
        <time>2014-10-31T15:11:07.000Z</time>
      </trkpt>
      <trkpt lat="47.46663" lon="6.74673">
        <ele>401.7</ele>
        <time>2014-10-31T15:11:08.000Z</time>
      </trkpt>
      <trkpt lat="47.46672" lon="6.74684">
        <ele>399.8</ele>
        <time>2014-10-31T15:11:09.000Z</time>
      </trkpt>
      <trkpt lat="47.46681" lon="6.7469">
        <ele>397.7</ele>
        <time>2014-10-31T15:11:10.000Z</time>
      </trkpt>
      <trkpt lat="47.46689" lon="6.74694">
        <ele>397.8</ele>
        <time>2014-10-31T15:11:11.000Z</time>
      </trkpt>
      <trkpt lat="47.46696" lon="6.74695">
        <ele>396.1</ele>
        <time>2014-10-31T15:11:12.000Z</time>
      </trkpt>
      <trkpt lat="47.46704" lon="6.74696">
        <ele>390.2</ele>
        <time>2014-10-31T15:11:13.000Z</time>
      </trkpt>
      <trkpt lat="47.46711" lon="6.74697">
        <ele>385.1</ele>
        <time>2014-10-31T15:11:14.000Z</time>
      </trkpt>
      <trkpt lat="47.46717" lon="6.74699">
        <ele>380.6</ele>
        <time>2014-10-31T15:11:15.000Z</time>
      </trkpt>
      <trkpt lat="47.46724" lon="6.74699">
        <ele>377.2</ele>
        <time>2014-10-31T15:11:16.000Z</time>
      </trkpt>
      <trkpt lat="47.4673" lon="6.74699">
        <ele>374.3</ele>
        <time>2014-10-31T15:11:17.000Z</time>
      </trkpt>
      <trkpt lat="47.46736" lon="6.747">
        <ele>372.3</ele>
        <time>2014-10-31T15:11:18.000Z</time>
      </trkpt>
      <trkpt lat="47.4674" lon="6.74699">
        <ele>371.6</ele>
        <time>2014-10-31T15:11:19.000Z</time>
      </trkpt>
      <trkpt lat="47.46745" lon="6.74694">
        <ele>370.8</ele>
        <time>2014-10-31T15:11:20.000Z</time>
      </trkpt>
      <trkpt lat="47.4675" lon="6.74692">
        <ele>370.3</ele>
        <time>2014-10-31T15:11:21.000Z</time>
      </trkpt>
      <trkpt lat="47.46755" lon="6.74686">
        <ele>369</ele>
        <time>2014-10-31T15:11:22.000Z</time>
      </trkpt>
      <trkpt lat="47.46759" lon="6.74681">
        <ele>368.1</ele>
        <time>2014-10-31T15:11:23.000Z</time>
      </trkpt>
      <trkpt lat="47.46764" lon="6.74678">
        <ele>367.1</ele>
        <time>2014-10-31T15:11:24.000Z</time>
      </trkpt>
      <trkpt lat="47.46769" lon="6.74674">
        <ele>366.4</ele>
        <time>2014-10-31T15:11:25.000Z</time>
      </trkpt>
      <trkpt lat="47.46773" lon="6.7467">
        <ele>364.7</ele>
        <time>2014-10-31T15:11:26.000Z</time>
      </trkpt>
      <trkpt lat="47.46777" lon="6.7467">
        <ele>364</ele>
        <time>2014-10-31T15:11:27.000Z</time>
      </trkpt>
      <trkpt lat="47.46782" lon="6.74669">
        <ele>363.4</ele>
        <time>2014-10-31T15:11:28.000Z</time>
      </trkpt>
      <trkpt lat="47.46788" lon="6.74664">
        <ele>362.1</ele>
        <time>2014-10-31T15:11:29.000Z</time>
      </trkpt>
      <trkpt lat="47.46793" lon="6.74661">
        <ele>361.8</ele>
        <time>2014-10-31T15:11:30.000Z</time>
      </trkpt>
      <trkpt lat="47.46799" lon="6.74658">
        <ele>360.2</ele>
        <time>2014-10-31T15:11:31.000Z</time>
      </trkpt>
      <trkpt lat="47.46804" lon="6.74654">
        <ele>359.5</ele>
        <time>2014-10-31T15:11:32.000Z</time>
      </trkpt>
      <trkpt lat="47.46808" lon="6.74653">
        <ele>361.6</ele>
        <time>2014-10-31T15:11:33.000Z</time>
      </trkpt>
      <trkpt lat="47.46811" lon="6.74646">
        <ele>360.3</ele>
        <time>2014-10-31T15:11:34.000Z</time>
      </trkpt>
      <trkpt lat="47.46815" lon="6.74643">
        <ele>360.2</ele>
        <time>2014-10-31T15:11:35.000Z</time>
      </trkpt>
      <trkpt lat="47.46818" lon="6.7464">
        <ele>364</ele>
        <time>2014-10-31T15:11:36.000Z</time>
      </trkpt>
      <trkpt lat="47.46822" lon="6.74637">
        <ele>365.4</ele>
        <time>2014-10-31T15:11:37.000Z</time>
      </trkpt>
      <trkpt lat="47.46827" lon="6.74632">
        <ele>365.3</ele>
        <time>2014-10-31T15:11:38.000Z</time>
      </trkpt>
      <trkpt lat="47.46832" lon="6.74625">
        <ele>364.3</ele>
        <time>2014-10-31T15:11:39.001Z</time>
      </trkpt>
      <trkpt lat="47.46838" lon="6.7462">
        <ele>365.2</ele>
        <time>2014-10-31T15:11:40.000Z</time>
      </trkpt>
      <trkpt lat="47.46843" lon="6.74615">
        <ele>366.1</ele>
        <time>2014-10-31T15:11:41.001Z</time>
      </trkpt>
      <trkpt lat="47.46848" lon="6.74611">
        <ele>364.7</ele>
        <time>2014-10-31T15:11:41.999Z</time>
      </trkpt>
      <trkpt lat="47.46853" lon="6.74604">
        <ele>364.4</ele>
        <time>2014-10-31T15:11:43.000Z</time>
      </trkpt>
      <trkpt lat="47.4686" lon="6.74598">
        <ele>365.2</ele>
        <time>2014-10-31T15:11:44.000Z</time>
      </trkpt>
      <trkpt lat="47.46864" lon="6.74597">
        <ele>366</ele>
        <time>2014-10-31T15:11:45.000Z</time>
      </trkpt>
      <trkpt lat="47.4687" lon="6.74594">
        <ele>365</ele>
        <time>2014-10-31T15:11:46.000Z</time>
      </trkpt>
      <trkpt lat="47.46875" lon="6.74591">
        <ele>364.8</ele>
        <time>2014-10-31T15:11:47.000Z</time>
      </trkpt>
      <trkpt lat="47.4688" lon="6.7459">
        <ele>363</ele>
        <time>2014-10-31T15:11:48.000Z</time>
      </trkpt>
      <trkpt lat="47.46886" lon="6.74589">
        <ele>362.3</ele>
        <time>2014-10-31T15:11:49.000Z</time>
      </trkpt>
      <trkpt lat="47.4689" lon="6.74585">
        <ele>361.3</ele>
        <time>2014-10-31T15:11:50.000Z</time>
      </trkpt>
      <trkpt lat="47.46894" lon="6.74582">
        <ele>361</ele>
        <time>2014-10-31T15:11:51.000Z</time>
      </trkpt>
      <trkpt lat="47.46899" lon="6.74579">
        <ele>360.9</ele>
        <time>2014-10-31T15:11:52.000Z</time>
      </trkpt>
      <trkpt lat="47.46934" lon="6.7456">
        <ele>359.3</ele>
        <time>2014-10-31T15:12:00.000Z</time>
      </trkpt>
      <trkpt lat="47.4694" lon="6.7456">
        <ele>358</ele>
        <time>2014-10-31T15:12:01.000Z</time>
      </trkpt>
      <trkpt lat="47.46946" lon="6.74558">
        <ele>358.4</ele>
        <time>2014-10-31T15:12:02.000Z</time>
      </trkpt>
      <trkpt lat="47.46952" lon="6.74558">
        <ele>356.8</ele>
        <time>2014-10-31T15:12:03.000Z</time>
      </trkpt>
      <trkpt lat="47.46958" lon="6.74558">
        <ele>355.4</ele>
        <time>2014-10-31T15:12:04.000Z</time>
      </trkpt>
      <trkpt lat="47.46964" lon="6.74558">
        <ele>354.4</ele>
        <time>2014-10-31T15:12:05.000Z</time>
      </trkpt>
      <trkpt lat="47.4697" lon="6.74559">
        <ele>353.1</ele>
        <time>2014-10-31T15:12:06.000Z</time>
      </trkpt>
      <trkpt lat="47.46975" lon="6.74559">
        <ele>352.1</ele>
        <time>2014-10-31T15:12:07.000Z</time>
      </trkpt>
      <trkpt lat="47.46981" lon="6.7456">
        <ele>351.1</ele>
        <time>2014-10-31T15:12:08.000Z</time>
      </trkpt>
      <trkpt lat="47.46987" lon="6.74561">
        <ele>350.6</ele>
        <time>2014-10-31T15:12:09.000Z</time>
      </trkpt>
      <trkpt lat="47.46992" lon="6.74561">
        <ele>349.6</ele>
        <time>2014-10-31T15:12:10.000Z</time>
      </trkpt>
      <trkpt lat="47.46999" lon="6.74562">
        <ele>347.9</ele>
        <time>2014-10-31T15:12:11.000Z</time>
      </trkpt>
      <trkpt lat="47.47005" lon="6.74561">
        <ele>346.8</ele>
        <time>2014-10-31T15:12:12.000Z</time>
      </trkpt>
      <trkpt lat="47.47011" lon="6.74561">
        <ele>345.5</ele>
        <time>2014-10-31T15:12:13.000Z</time>
      </trkpt>
      <trkpt lat="47.47018" lon="6.7456">
        <ele>345.6</ele>
        <time>2014-10-31T15:12:14.000Z</time>
      </trkpt>
      <trkpt lat="47.47023" lon="6.74559">
        <ele>345.6</ele>
        <time>2014-10-31T15:12:15.000Z</time>
      </trkpt>
      <trkpt lat="47.47029" lon="6.74559">
        <ele>344.6</ele>
        <time>2014-10-31T15:12:16.000Z</time>
      </trkpt>
      <trkpt lat="47.47034" lon="6.7456">
        <ele>343.9</ele>
        <time>2014-10-31T15:12:17.000Z</time>
      </trkpt>
      <trkpt lat="47.47038" lon="6.74564">
        <ele>342.8</ele>
        <time>2014-10-31T15:12:18.000Z</time>
      </trkpt>
      <trkpt lat="47.47041" lon="6.74569">
        <ele>341.7</ele>
        <time>2014-10-31T15:12:19.000Z</time>
      </trkpt>
      <trkpt lat="47.47041" lon="6.74577">
        <ele>342.2</ele>
        <time>2014-10-31T15:12:20.000Z</time>
      </trkpt>
      <trkpt lat="47.47039" lon="6.74583">
        <ele>343</ele>
        <time>2014-10-31T15:12:21.000Z</time>
      </trkpt>
      <trkpt lat="47.47037" lon="6.74589">
        <ele>343.4</ele>
        <time>2014-10-31T15:12:22.000Z</time>
      </trkpt>
      <trkpt lat="47.47035" lon="6.74595">
        <ele>343.8</ele>
        <time>2014-10-31T15:12:23.000Z</time>
      </trkpt>
      <trkpt lat="47.47031" lon="6.74601">
        <ele>344.3</ele>
        <time>2014-10-31T15:12:24.000Z</time>
      </trkpt>
      <trkpt lat="47.47028" lon="6.74606">
        <ele>344.5</ele>
        <time>2014-10-31T15:12:25.000Z</time>
      </trkpt>
      <trkpt lat="47.47025" lon="6.74612">
        <ele>344.2</ele>
        <time>2014-10-31T15:12:26.000Z</time>
      </trkpt>
      <trkpt lat="47.47021" lon="6.74617">
        <ele>344.6</ele>
        <time>2014-10-31T15:12:27.000Z</time>
      </trkpt>
      <trkpt lat="47.47018" lon="6.74624">
        <ele>344.4</ele>
        <time>2014-10-31T15:12:28.000Z</time>
      </trkpt>
      <trkpt lat="47.47014" lon="6.74631">
        <ele>343.9</ele>
        <time>2014-10-31T15:12:29.000Z</time>
      </trkpt>
      <trkpt lat="47.47011" lon="6.74638">
        <ele>344.2</ele>
        <time>2014-10-31T15:12:30.000Z</time>
      </trkpt>
      <trkpt lat="47.47008" lon="6.74645">
        <ele>343.6</ele>
        <time>2014-10-31T15:12:31.000Z</time>
      </trkpt>
      <trkpt lat="47.47006" lon="6.74654">
        <ele>343.3</ele>
        <time>2014-10-31T15:12:32.000Z</time>
      </trkpt>
      <trkpt lat="47.47004" lon="6.74662">
        <ele>343.1</ele>
        <time>2014-10-31T15:12:33.000Z</time>
      </trkpt>
      <trkpt lat="47.47001" lon="6.74672">
        <ele>342.4</ele>
        <time>2014-10-31T15:12:34.000Z</time>
      </trkpt>
      <trkpt lat="47.46999" lon="6.74683">
        <ele>341.4</ele>
        <time>2014-10-31T15:12:35.000Z</time>
      </trkpt>
      <trkpt lat="47.46996" lon="6.74693">
        <ele>340.4</ele>
        <time>2014-10-31T15:12:36.000Z</time>
      </trkpt>
      <trkpt lat="47.46994" lon="6.74705">
        <ele>339</ele>
        <time>2014-10-31T15:12:37.000Z</time>
      </trkpt>
      <trkpt lat="47.46994" lon="6.74716">
        <ele>338.3</ele>
        <time>2014-10-31T15:12:38.000Z</time>
      </trkpt>
      <trkpt lat="47.46992" lon="6.74728">
        <ele>337.7</ele>
        <time>2014-10-31T15:12:39.000Z</time>
      </trkpt>
      <trkpt lat="47.46993" lon="6.74739">
        <ele>337.1</ele>
        <time>2014-10-31T15:12:40.000Z</time>
      </trkpt>
      <trkpt lat="47.46993" lon="6.7475">
        <ele>336.4</ele>
        <time>2014-10-31T15:12:41.000Z</time>
      </trkpt>
      <trkpt lat="47.46993" lon="6.74761">
        <ele>334.9</ele>
        <time>2014-10-31T15:12:42.000Z</time>
      </trkpt>
      <trkpt lat="47.46993" lon="6.74772">
        <ele>334.4</ele>
        <time>2014-10-31T15:12:43.000Z</time>
      </trkpt>
      <trkpt lat="47.46993" lon="6.74783">
        <ele>335.2</ele>
        <time>2014-10-31T15:12:44.000Z</time>
      </trkpt>
      <trkpt lat="47.46993" lon="6.74794">
        <ele>334.4</ele>
        <time>2014-10-31T15:12:45.000Z</time>
      </trkpt>
      <trkpt lat="47.46993" lon="6.74804">
        <ele>334.4</ele>
        <time>2014-10-31T15:12:46.000Z</time>
      </trkpt>
      <trkpt lat="47.46993" lon="6.74814">
        <ele>334.5</ele>
        <time>2014-10-31T15:12:47.000Z</time>
      </trkpt>
      <trkpt lat="47.46993" lon="6.74826">
        <ele>335.2</ele>
        <time>2014-10-31T15:12:48.000Z</time>
      </trkpt>
      <trkpt lat="47.46993" lon="6.74837">
        <ele>335</ele>
        <time>2014-10-31T15:12:49.000Z</time>
      </trkpt>
      <trkpt lat="47.46993" lon="6.74848">
        <ele>334.6</ele>
        <time>2014-10-31T15:12:50.000Z</time>
      </trkpt>
      <trkpt lat="47.46993" lon="6.74859">
        <ele>334.4</ele>
        <time>2014-10-31T15:12:51.000Z</time>
      </trkpt>
      <trkpt lat="47.46993" lon="6.7487">
        <ele>334.5</ele>
        <time>2014-10-31T15:12:52.000Z</time>
      </trkpt>
      <trkpt lat="47.46993" lon="6.7488">
        <ele>334.4</ele>
        <time>2014-10-31T15:12:53.000Z</time>
      </trkpt>
      <trkpt lat="47.46991" lon="6.74907">
        <ele>334.5</ele>
        <time>2014-10-31T15:12:56.000Z</time>
      </trkpt>
      <trkpt lat="47.46992" lon="6.74918">
        <ele>334.6</ele>
        <time>2014-10-31T15:12:57.000Z</time>
      </trkpt>
      <trkpt lat="47.46993" lon="6.74926">
        <ele>334.9</ele>
        <time>2014-10-31T15:12:58.000Z</time>
      </trkpt>
      <trkpt lat="47.46993" lon="6.74936">
        <ele>335.2</ele>
        <time>2014-10-31T15:12:59.000Z</time>
      </trkpt>
      <trkpt lat="47.46992" lon="6.74945">
        <ele>335.2</ele>
        <time>2014-10-31T15:13:00.000Z</time>
      </trkpt>
      <trkpt lat="47.46991" lon="6.74955">
        <ele>335.6</ele>
        <time>2014-10-31T15:13:01.000Z</time>
      </trkpt>
      <trkpt lat="47.46991" lon="6.74965">
        <ele>335.1</ele>
        <time>2014-10-31T15:13:02.000Z</time>
      </trkpt>
      <trkpt lat="47.46991" lon="6.74973">
        <ele>334.6</ele>
        <time>2014-10-31T15:13:03.000Z</time>
      </trkpt>
      <trkpt lat="47.46991" lon="6.74983">
        <ele>335.7</ele>
        <time>2014-10-31T15:13:04.000Z</time>
      </trkpt>
      <trkpt lat="47.46991" lon="6.74991">
        <ele>334.9</ele>
        <time>2014-10-31T15:13:05.000Z</time>
      </trkpt>
      <trkpt lat="47.46992" lon="6.74999">
        <ele>335.2</ele>
        <time>2014-10-31T15:13:06.000Z</time>
      </trkpt>
      <trkpt lat="47.46993" lon="6.75007">
        <ele>334.7</ele>
        <time>2014-10-31T15:13:07.000Z</time>
      </trkpt>
      <trkpt lat="47.46994" lon="6.75016">
        <ele>335.3</ele>
        <time>2014-10-31T15:13:08.000Z</time>
      </trkpt>
      <trkpt lat="47.46995" lon="6.75024">
        <ele>335.3</ele>
        <time>2014-10-31T15:13:09.000Z</time>
      </trkpt>
      <trkpt lat="47.46996" lon="6.75033">
        <ele>335.8</ele>
        <time>2014-10-31T15:13:10.000Z</time>
      </trkpt>
      <trkpt lat="47.46997" lon="6.75041">
        <ele>336.1</ele>
        <time>2014-10-31T15:13:11.000Z</time>
      </trkpt>
      <trkpt lat="47.46999" lon="6.7505">
        <ele>335.8</ele>
        <time>2014-10-31T15:13:12.000Z</time>
      </trkpt>
      <trkpt lat="47.46999" lon="6.75058">
        <ele>335.1</ele>
        <time>2014-10-31T15:13:13.000Z</time>
      </trkpt>
      <trkpt lat="47.47002" lon="6.75065">
        <ele>334.9</ele>
        <time>2014-10-31T15:13:14.000Z</time>
      </trkpt>
      <trkpt lat="47.47003" lon="6.75072">
        <ele>335.3</ele>
        <time>2014-10-31T15:13:15.000Z</time>
      </trkpt>
      <trkpt lat="47.47004" lon="6.75079">
        <ele>335.8</ele>
        <time>2014-10-31T15:13:16.000Z</time>
      </trkpt>
      <trkpt lat="47.47006" lon="6.75087">
        <ele>335.8</ele>
        <time>2014-10-31T15:13:17.000Z</time>
      </trkpt>
      <trkpt lat="47.47008" lon="6.75094">
        <ele>336</ele>
        <time>2014-10-31T15:13:18.000Z</time>
      </trkpt>
      <trkpt lat="47.47009" lon="6.75101">
        <ele>336.9</ele>
        <time>2014-10-31T15:13:19.000Z</time>
      </trkpt>
      <trkpt lat="47.47011" lon="6.75108">
        <ele>337.7</ele>
        <time>2014-10-31T15:13:20.000Z</time>
      </trkpt>
      <trkpt lat="47.47012" lon="6.75115">
        <ele>337</ele>
        <time>2014-10-31T15:13:21.000Z</time>
      </trkpt>
      <trkpt lat="47.47013" lon="6.75122">
        <ele>336.4</ele>
        <time>2014-10-31T15:13:22.000Z</time>
      </trkpt>
      <trkpt lat="47.47015" lon="6.7513">
        <ele>336</ele>
        <time>2014-10-31T15:13:23.000Z</time>
      </trkpt>
      <trkpt lat="47.47017" lon="6.75137">
        <ele>336.1</ele>
        <time>2014-10-31T15:13:24.000Z</time>
      </trkpt>
      <trkpt lat="47.47018" lon="6.75145">
        <ele>335.7</ele>
        <time>2014-10-31T15:13:25.000Z</time>
      </trkpt>
      <trkpt lat="47.47019" lon="6.75152">
        <ele>336.1</ele>
        <time>2014-10-31T15:13:26.000Z</time>
      </trkpt>
      <trkpt lat="47.47021" lon="6.75158">
        <ele>336.3</ele>
        <time>2014-10-31T15:13:27.000Z</time>
      </trkpt>
      <trkpt lat="47.47023" lon="6.75164">
        <ele>335.8</ele>
        <time>2014-10-31T15:13:28.000Z</time>
      </trkpt>
      <trkpt lat="47.47025" lon="6.75171">
        <ele>335.8</ele>
        <time>2014-10-31T15:13:29.000Z</time>
      </trkpt>
      <trkpt lat="47.47027" lon="6.75179">
        <ele>335.9</ele>
        <time>2014-10-31T15:13:30.000Z</time>
      </trkpt>
      <trkpt lat="47.47029" lon="6.75186">
        <ele>335.3</ele>
        <time>2014-10-31T15:13:31.000Z</time>
      </trkpt>
      <trkpt lat="47.47031" lon="6.75193">
        <ele>336.4</ele>
        <time>2014-10-31T15:13:32.000Z</time>
      </trkpt>
      <trkpt lat="47.47033" lon="6.75201">
        <ele>336.2</ele>
        <time>2014-10-31T15:13:33.000Z</time>
      </trkpt>
      <trkpt lat="47.47034" lon="6.75208">
        <ele>335.6</ele>
        <time>2014-10-31T15:13:34.000Z</time>
      </trkpt>
      <trkpt lat="47.47035" lon="6.75214">
        <ele>336.5</ele>
        <time>2014-10-31T15:13:35.000Z</time>
      </trkpt>
      <trkpt lat="47.47037" lon="6.75221">
        <ele>336.4</ele>
        <time>2014-10-31T15:13:36.000Z</time>
      </trkpt>
      <trkpt lat="47.47039" lon="6.75227">
        <ele>336.6</ele>
        <time>2014-10-31T15:13:37.000Z</time>
      </trkpt>
      <trkpt lat="47.47041" lon="6.75234">
        <ele>335.4</ele>
        <time>2014-10-31T15:13:38.000Z</time>
      </trkpt>
      <trkpt lat="47.47043" lon="6.75241">
        <ele>335</ele>
        <time>2014-10-31T15:13:39.000Z</time>
      </trkpt>
      <trkpt lat="47.47045" lon="6.75249">
        <ele>335.3</ele>
        <time>2014-10-31T15:13:40.000Z</time>
      </trkpt>
      <trkpt lat="47.47047" lon="6.75258">
        <ele>334.8</ele>
        <time>2014-10-31T15:13:41.000Z</time>
      </trkpt>
      <trkpt lat="47.47049" lon="6.75267">
        <ele>334.5</ele>
        <time>2014-10-31T15:13:42.000Z</time>
      </trkpt>
      <trkpt lat="47.47049" lon="6.75276">
        <ele>333.8</ele>
        <time>2014-10-31T15:13:43.000Z</time>
      </trkpt>
      <trkpt lat="47.4705" lon="6.75287">
        <ele>332.7</ele>
        <time>2014-10-31T15:13:44.000Z</time>
      </trkpt>
      <trkpt lat="47.47051" lon="6.75297">
        <ele>332.1</ele>
        <time>2014-10-31T15:13:45.000Z</time>
      </trkpt>
      <trkpt lat="47.47051" lon="6.75305">
        <ele>332.7</ele>
        <time>2014-10-31T15:13:46.000Z</time>
      </trkpt>
      <trkpt lat="47.47052" lon="6.75314">
        <ele>333</ele>
        <time>2014-10-31T15:13:47.000Z</time>
      </trkpt>
      <trkpt lat="47.47054" lon="6.75321">
        <ele>333.8</ele>
        <time>2014-10-31T15:13:48.000Z</time>
      </trkpt>
      <trkpt lat="47.47055" lon="6.75329">
        <ele>333.5</ele>
        <time>2014-10-31T15:13:49.000Z</time>
      </trkpt>
      <trkpt lat="47.47055" lon="6.75335">
        <ele>333.8</ele>
        <time>2014-10-31T15:13:50.000Z</time>
      </trkpt>
      <trkpt lat="47.47055" lon="6.7534">
        <ele>334</ele>
        <time>2014-10-31T15:13:51.000Z</time>
      </trkpt>
      <trkpt lat="47.47055" lon="6.75346">
        <ele>333.4</ele>
        <time>2014-10-31T15:13:52.000Z</time>
      </trkpt>
      <trkpt lat="47.47052" lon="6.7539">
        <ele>335.3</ele>
        <time>2014-10-31T15:14:00.000Z</time>
      </trkpt>
      <trkpt lat="47.47051" lon="6.75396">
        <ele>335.9</ele>
        <time>2014-10-31T15:14:01.000Z</time>
      </trkpt>
      <trkpt lat="47.47051" lon="6.75402">
        <ele>336.3</ele>
        <time>2014-10-31T15:14:02.000Z</time>
      </trkpt>
      <trkpt lat="47.47052" lon="6.75406">
        <ele>336.8</ele>
        <time>2014-10-31T15:14:03.000Z</time>
      </trkpt>
      <trkpt lat="47.47051" lon="6.75412">
        <ele>337.1</ele>
        <time>2014-10-31T15:14:04.000Z</time>
      </trkpt>
      <trkpt lat="47.47051" lon="6.75417">
        <ele>337.2</ele>
        <time>2014-10-31T15:14:05.000Z</time>
      </trkpt>
      <trkpt lat="47.47055" lon="6.75428">
        <ele>337.5</ele>
        <time>2014-10-31T15:14:06.000Z</time>
      </trkpt>
      <trkpt lat="47.47056" lon="6.75434">
        <ele>336.9</ele>
        <time>2014-10-31T15:14:07.000Z</time>
      </trkpt>
      <trkpt lat="47.47056" lon="6.7544">
        <ele>335.7</ele>
        <time>2014-10-31T15:14:08.000Z</time>
      </trkpt>
      <trkpt lat="47.47056" lon="6.75444">
        <ele>336.6</ele>
        <time>2014-10-31T15:14:09.000Z</time>
      </trkpt>
      <trkpt lat="47.47057" lon="6.75454">
        <ele>335.7</ele>
        <time>2014-10-31T15:14:10.000Z</time>
      </trkpt>
      <trkpt lat="47.47057" lon="6.75465">
        <ele>335.7</ele>
        <time>2014-10-31T15:14:11.000Z</time>
      </trkpt>
      <trkpt lat="47.47057" lon="6.75474">
        <ele>336.2</ele>
        <time>2014-10-31T15:14:12.000Z</time>
      </trkpt>
      <trkpt lat="47.47057" lon="6.75482">
        <ele>336.2</ele>
        <time>2014-10-31T15:14:13.000Z</time>
      </trkpt>
      <trkpt lat="47.47057" lon="6.75487">
        <ele>339.8</ele>
        <time>2014-10-31T15:14:14.000Z</time>
      </trkpt>
      <trkpt lat="47.47057" lon="6.75495">
        <ele>341.2</ele>
        <time>2014-10-31T15:14:15.000Z</time>
      </trkpt>
      <trkpt lat="47.47057" lon="6.75502">
        <ele>341.7</ele>
        <time>2014-10-31T15:14:16.000Z</time>
      </trkpt>
      <trkpt lat="47.47057" lon="6.75507">
        <ele>341.1</ele>
        <time>2014-10-31T15:14:17.000Z</time>
      </trkpt>
      <trkpt lat="47.47058" lon="6.75513">
        <ele>339.8</ele>
        <time>2014-10-31T15:14:18.000Z</time>
      </trkpt>
      <trkpt lat="47.47058" lon="6.75519">
        <ele>339.7</ele>
        <time>2014-10-31T15:14:19.000Z</time>
      </trkpt>
      <trkpt lat="47.47059" lon="6.75527">
        <ele>340</ele>
        <time>2014-10-31T15:14:20.000Z</time>
      </trkpt>
      <trkpt lat="47.47059" lon="6.75535">
        <ele>340.1</ele>
        <time>2014-10-31T15:14:21.000Z</time>
      </trkpt>
      <trkpt lat="47.47059" lon="6.75541">
        <ele>340.8</ele>
        <time>2014-10-31T15:14:22.000Z</time>
      </trkpt>
      <trkpt lat="47.47058" lon="6.75547">
        <ele>341.8</ele>
        <time>2014-10-31T15:14:23.000Z</time>
      </trkpt>
      <trkpt lat="47.47058" lon="6.75554">
        <ele>341.5</ele>
        <time>2014-10-31T15:14:24.000Z</time>
      </trkpt>
      <trkpt lat="47.47059" lon="6.7556">
        <ele>340.3</ele>
        <time>2014-10-31T15:14:25.000Z</time>
      </trkpt>
      <trkpt lat="47.47059" lon="6.75566">
        <ele>339.7</ele>
        <time>2014-10-31T15:14:26.000Z</time>
      </trkpt>
      <trkpt lat="47.47059" lon="6.75572">
        <ele>340.6</ele>
        <time>2014-10-31T15:14:27.000Z</time>
      </trkpt>
      <trkpt lat="47.47059" lon="6.75578">
        <ele>341.3</ele>
        <time>2014-10-31T15:14:28.000Z</time>
      </trkpt>
      <trkpt lat="47.47059" lon="6.75584">
        <ele>341.5</ele>
        <time>2014-10-31T15:14:29.000Z</time>
      </trkpt>
      <trkpt lat="47.47059" lon="6.75589">
        <ele>341</ele>
        <time>2014-10-31T15:14:30.000Z</time>
      </trkpt>
      <trkpt lat="47.4706" lon="6.75595">
        <ele>340</ele>
        <time>2014-10-31T15:14:31.000Z</time>
      </trkpt>
      <trkpt lat="47.4706" lon="6.75601">
        <ele>340.5</ele>
        <time>2014-10-31T15:14:32.000Z</time>
      </trkpt>
      <trkpt lat="47.47061" lon="6.75607">
        <ele>340.5</ele>
        <time>2014-10-31T15:14:33.000Z</time>
      </trkpt>
      <trkpt lat="47.47061" lon="6.75612">
        <ele>340.6</ele>
        <time>2014-10-31T15:14:34.000Z</time>
      </trkpt>
      <trkpt lat="47.47061" lon="6.75618">
        <ele>340.6</ele>
        <time>2014-10-31T15:14:35.000Z</time>
      </trkpt>
      <trkpt lat="47.47061" lon="6.75624">
        <ele>340.4</ele>
        <time>2014-10-31T15:14:36.000Z</time>
      </trkpt>
      <trkpt lat="47.47062" lon="6.75629">
        <ele>340</ele>
        <time>2014-10-31T15:14:37.000Z</time>
      </trkpt>
      <trkpt lat="47.47062" lon="6.75635">
        <ele>339.9</ele>
        <time>2014-10-31T15:14:38.000Z</time>
      </trkpt>
      <trkpt lat="47.47063" lon="6.7564">
        <ele>340.3</ele>
        <time>2014-10-31T15:14:39.000Z</time>
      </trkpt>
      <trkpt lat="47.47063" lon="6.75646">
        <ele>340.5</ele>
        <time>2014-10-31T15:14:40.000Z</time>
      </trkpt>
      <trkpt lat="47.47064" lon="6.75651">
        <ele>340.4</ele>
        <time>2014-10-31T15:14:41.000Z</time>
      </trkpt>
      <trkpt lat="47.47064" lon="6.75657">
        <ele>339.9</ele>
        <time>2014-10-31T15:14:42.000Z</time>
      </trkpt>
      <trkpt lat="47.47065" lon="6.75663">
        <ele>339.6</ele>
        <time>2014-10-31T15:14:43.000Z</time>
      </trkpt>
      <trkpt lat="47.47066" lon="6.75669">
        <ele>339.5</ele>
        <time>2014-10-31T15:14:44.000Z</time>
      </trkpt>
      <trkpt lat="47.47066" lon="6.75675">
        <ele>339.4</ele>
        <time>2014-10-31T15:14:45.000Z</time>
      </trkpt>
      <trkpt lat="47.47067" lon="6.75681">
        <ele>339.5</ele>
        <time>2014-10-31T15:14:46.000Z</time>
      </trkpt>
      <trkpt lat="47.47068" lon="6.75687">
        <ele>339.6</ele>
        <time>2014-10-31T15:14:47.000Z</time>
      </trkpt>
      <trkpt lat="47.47069" lon="6.75693">
        <ele>340.2</ele>
        <time>2014-10-31T15:14:48.000Z</time>
      </trkpt>
      <trkpt lat="47.47069" lon="6.75698">
        <ele>340.8</ele>
        <time>2014-10-31T15:14:49.000Z</time>
      </trkpt>
      <trkpt lat="47.4707" lon="6.75704">
        <ele>340.7</ele>
        <time>2014-10-31T15:14:50.000Z</time>
      </trkpt>
      <trkpt lat="47.47071" lon="6.75709">
        <ele>341</ele>
        <time>2014-10-31T15:14:51.000Z</time>
      </trkpt>
      <trkpt lat="47.47071" lon="6.75715">
        <ele>341.8</ele>
        <time>2014-10-31T15:14:52.000Z</time>
      </trkpt>
      <trkpt lat="47.4708" lon="6.75753">
        <ele>341.7</ele>
        <time>2014-10-31T15:15:00.000Z</time>
      </trkpt>
      <trkpt lat="47.47081" lon="6.75758">
        <ele>341.5</ele>
        <time>2014-10-31T15:15:01.000Z</time>
      </trkpt>
      <trkpt lat="47.47081" lon="6.75762">
        <ele>341.5</ele>
        <time>2014-10-31T15:15:02.000Z</time>
      </trkpt>
      <trkpt lat="47.47082" lon="6.75767">
        <ele>341.2</ele>
        <time>2014-10-31T15:15:03.000Z</time>
      </trkpt>
      <trkpt lat="47.47082" lon="6.75772">
        <ele>340.9</ele>
        <time>2014-10-31T15:15:04.000Z</time>
      </trkpt>
      <trkpt lat="47.47083" lon="6.75777">
        <ele>341.2</ele>
        <time>2014-10-31T15:15:05.000Z</time>
      </trkpt>
      <trkpt lat="47.47083" lon="6.75782">
        <ele>340.8</ele>
        <time>2014-10-31T15:15:06.000Z</time>
      </trkpt>
      <trkpt lat="47.47084" lon="6.75788">
        <ele>340.4</ele>
        <time>2014-10-31T15:15:07.000Z</time>
      </trkpt>
      <trkpt lat="47.47084" lon="6.75793">
        <ele>340.2</ele>
        <time>2014-10-31T15:15:08.000Z</time>
      </trkpt>
      <trkpt lat="47.47085" lon="6.75798">
        <ele>340.3</ele>
        <time>2014-10-31T15:15:09.000Z</time>
      </trkpt>
      <trkpt lat="47.47085" lon="6.75803">
        <ele>340.4</ele>
        <time>2014-10-31T15:15:10.000Z</time>
      </trkpt>
      <trkpt lat="47.47085" lon="6.75808">
        <ele>340.1</ele>
        <time>2014-10-31T15:15:11.000Z</time>
      </trkpt>
      <trkpt lat="47.47086" lon="6.75813">
        <ele>340.9</ele>
        <time>2014-10-31T15:15:12.000Z</time>
      </trkpt>
      <trkpt lat="47.47086" lon="6.75818">
        <ele>341</ele>
        <time>2014-10-31T15:15:13.000Z</time>
      </trkpt>
      <trkpt lat="47.47086" lon="6.75824">
        <ele>340.5</ele>
        <time>2014-10-31T15:15:14.000Z</time>
      </trkpt>
      <trkpt lat="47.47087" lon="6.75829">
        <ele>340.8</ele>
        <time>2014-10-31T15:15:15.000Z</time>
      </trkpt>
      <trkpt lat="47.47087" lon="6.75835">
        <ele>341.6</ele>
        <time>2014-10-31T15:15:16.000Z</time>
      </trkpt>
      <trkpt lat="47.47087" lon="6.7584">
        <ele>342.2</ele>
        <time>2014-10-31T15:15:17.000Z</time>
      </trkpt>
      <trkpt lat="47.47088" lon="6.75846">
        <ele>343</ele>
        <time>2014-10-31T15:15:18.000Z</time>
      </trkpt>
      <trkpt lat="47.47088" lon="6.75852">
        <ele>343.2</ele>
        <time>2014-10-31T15:15:19.000Z</time>
      </trkpt>
      <trkpt lat="47.47088" lon="6.75858">
        <ele>343.5</ele>
        <time>2014-10-31T15:15:20.000Z</time>
      </trkpt>
      <trkpt lat="47.47088" lon="6.75863">
        <ele>345.7</ele>
        <time>2014-10-31T15:15:21.000Z</time>
      </trkpt>
      <trkpt lat="47.47087" lon="6.75869">
        <ele>345</ele>
        <time>2014-10-31T15:15:22.000Z</time>
      </trkpt>
      <trkpt lat="47.47087" lon="6.75876">
        <ele>345.1</ele>
        <time>2014-10-31T15:15:23.000Z</time>
      </trkpt>
      <trkpt lat="47.47087" lon="6.75883">
        <ele>344.5</ele>
        <time>2014-10-31T15:15:24.000Z</time>
      </trkpt>
      <trkpt lat="47.47087" lon="6.75889">
        <ele>344.5</ele>
        <time>2014-10-31T15:15:25.000Z</time>
      </trkpt>
      <trkpt lat="47.47087" lon="6.75896">
        <ele>344.1</ele>
        <time>2014-10-31T15:15:26.000Z</time>
      </trkpt>
      <trkpt lat="47.47087" lon="6.75901">
        <ele>344.5</ele>
        <time>2014-10-31T15:15:27.000Z</time>
      </trkpt>
      <trkpt lat="47.47088" lon="6.75907">
        <ele>345.2</ele>
        <time>2014-10-31T15:15:28.000Z</time>
      </trkpt>
      <trkpt lat="47.47088" lon="6.75914">
        <ele>345.3</ele>
        <time>2014-10-31T15:15:29.000Z</time>
      </trkpt>
      <trkpt lat="47.47088" lon="6.75922">
        <ele>345.8</ele>
        <time>2014-10-31T15:15:30.000Z</time>
      </trkpt>
      <trkpt lat="47.47089" lon="6.7593">
        <ele>344.8</ele>
        <time>2014-10-31T15:15:31.000Z</time>
      </trkpt>
      <trkpt lat="47.4709" lon="6.75936">
        <ele>344.4</ele>
        <time>2014-10-31T15:15:32.000Z</time>
      </trkpt>
      <trkpt lat="47.47089" lon="6.75944">
        <ele>344.3</ele>
        <time>2014-10-31T15:15:33.000Z</time>
      </trkpt>
      <trkpt lat="47.47088" lon="6.7595">
        <ele>345.2</ele>
        <time>2014-10-31T15:15:34.000Z</time>
      </trkpt>
      <trkpt lat="47.47087" lon="6.75958">
        <ele>345.2</ele>
        <time>2014-10-31T15:15:35.000Z</time>
      </trkpt>
      <trkpt lat="47.47087" lon="6.75964">
        <ele>345.6</ele>
        <time>2014-10-31T15:15:36.000Z</time>
      </trkpt>
      <trkpt lat="47.47087" lon="6.7597">
        <ele>345.7</ele>
        <time>2014-10-31T15:15:37.000Z</time>
      </trkpt>
      <trkpt lat="47.47086" lon="6.75976">
        <ele>345.8</ele>
        <time>2014-10-31T15:15:38.000Z</time>
      </trkpt>
      <trkpt lat="47.47087" lon="6.75982">
        <ele>345.8</ele>
        <time>2014-10-31T15:15:39.000Z</time>
      </trkpt>
      <trkpt lat="47.47089" lon="6.75988">
        <ele>345.5</ele>
        <time>2014-10-31T15:15:40.000Z</time>
      </trkpt>
      <trkpt lat="47.4709" lon="6.75993">
        <ele>344.8</ele>
        <time>2014-10-31T15:15:41.000Z</time>
      </trkpt>
      <trkpt lat="47.47095" lon="6.75995">
        <ele>344.6</ele>
        <time>2014-10-31T15:15:42.000Z</time>
      </trkpt>
      <trkpt lat="47.47099" lon="6.75998">
        <ele>345</ele>
        <time>2014-10-31T15:15:43.000Z</time>
      </trkpt>
      <trkpt lat="47.47103" lon="6.75998">
        <ele>344.7</ele>
        <time>2014-10-31T15:15:44.000Z</time>
      </trkpt>
      <trkpt lat="47.47109" lon="6.76001">
        <ele>344.7</ele>
        <time>2014-10-31T15:15:45.000Z</time>
      </trkpt>
      <trkpt lat="47.47114" lon="6.76003">
        <ele>346.6</ele>
        <time>2014-10-31T15:15:46.000Z</time>
      </trkpt>
      <trkpt lat="47.47119" lon="6.76003">
        <ele>347.1</ele>
        <time>2014-10-31T15:15:47.000Z</time>
      </trkpt>
      <trkpt lat="47.47123" lon="6.76005">
        <ele>348.3</ele>
        <time>2014-10-31T15:15:48.000Z</time>
      </trkpt>
      <trkpt lat="47.47127" lon="6.76007">
        <ele>348.7</ele>
        <time>2014-10-31T15:15:49.000Z</time>
      </trkpt>
      <trkpt lat="47.47132" lon="6.76009">
        <ele>349</ele>
        <time>2014-10-31T15:15:50.000Z</time>
      </trkpt>
      <trkpt lat="47.47136" lon="6.7601">
        <ele>349.3</ele>
        <time>2014-10-31T15:15:51.000Z</time>
      </trkpt>
      <trkpt lat="47.47142" lon="6.76011">
        <ele>348.8</ele>
        <time>2014-10-31T15:15:52.000Z</time>
      </trkpt>
      <trkpt lat="47.47146" lon="6.76013">
        <ele>348</ele>
        <time>2014-10-31T15:15:53.000Z</time>
      </trkpt>
      <trkpt lat="47.47179" lon="6.76024">
        <ele>344.7</ele>
        <time>2014-10-31T15:16:01.000Z</time>
      </trkpt>
      <trkpt lat="47.47183" lon="6.76026">
        <ele>344.6</ele>
        <time>2014-10-31T15:16:02.000Z</time>
      </trkpt>
      <trkpt lat="47.47188" lon="6.76028">
        <ele>344.8</ele>
        <time>2014-10-31T15:16:03.000Z</time>
      </trkpt>
      <trkpt lat="47.47191" lon="6.76031">
        <ele>344.2</ele>
        <time>2014-10-31T15:16:04.000Z</time>
      </trkpt>
      <trkpt lat="47.47196" lon="6.7603">
        <ele>344.2</ele>
        <time>2014-10-31T15:16:05.000Z</time>
      </trkpt>
      <trkpt lat="47.47201" lon="6.7603">
        <ele>343.7</ele>
        <time>2014-10-31T15:16:06.000Z</time>
      </trkpt>
      <trkpt lat="47.47206" lon="6.76032">
        <ele>344.3</ele>
        <time>2014-10-31T15:16:07.000Z</time>
      </trkpt>
      <trkpt lat="47.47211" lon="6.76034">
        <ele>344.3</ele>
        <time>2014-10-31T15:16:08.000Z</time>
      </trkpt>
      <trkpt lat="47.47215" lon="6.76036">
        <ele>344.7</ele>
        <time>2014-10-31T15:16:09.000Z</time>
      </trkpt>
      <trkpt lat="47.47219" lon="6.76037">
        <ele>344.6</ele>
        <time>2014-10-31T15:16:10.000Z</time>
      </trkpt>
      <trkpt lat="47.47223" lon="6.76039">
        <ele>344.8</ele>
        <time>2014-10-31T15:16:11.000Z</time>
      </trkpt>
      <trkpt lat="47.47227" lon="6.7604">
        <ele>344.5</ele>
        <time>2014-10-31T15:16:12.000Z</time>
      </trkpt>
      <trkpt lat="47.47231" lon="6.76042">
        <ele>344.6</ele>
        <time>2014-10-31T15:16:13.000Z</time>
      </trkpt>
      <trkpt lat="47.47236" lon="6.76043">
        <ele>345.1</ele>
        <time>2014-10-31T15:16:14.000Z</time>
      </trkpt>
      <trkpt lat="47.4724" lon="6.76044">
        <ele>345.5</ele>
        <time>2014-10-31T15:16:15.000Z</time>
      </trkpt>
      <trkpt lat="47.47244" lon="6.76045">
        <ele>346.2</ele>
        <time>2014-10-31T15:16:16.000Z</time>
      </trkpt>
      <trkpt lat="47.47247" lon="6.76047">
        <ele>346.1</ele>
        <time>2014-10-31T15:16:17.000Z</time>
      </trkpt>
      <trkpt lat="47.47251" lon="6.76049">
        <ele>345.8</ele>
        <time>2014-10-31T15:16:18.000Z</time>
      </trkpt>
      <trkpt lat="47.47256" lon="6.76051">
        <ele>344.8</ele>
        <time>2014-10-31T15:16:19.000Z</time>
      </trkpt>
      <trkpt lat="47.47261" lon="6.76052">
        <ele>343.5</ele>
        <time>2014-10-31T15:16:20.000Z</time>
      </trkpt>
      <trkpt lat="47.47266" lon="6.76054">
        <ele>342.9</ele>
        <time>2014-10-31T15:16:21.000Z</time>
      </trkpt>
      <trkpt lat="47.4727" lon="6.76056">
        <ele>343.3</ele>
        <time>2014-10-31T15:16:22.000Z</time>
      </trkpt>
      <trkpt lat="47.47275" lon="6.76057">
        <ele>343.8</ele>
        <time>2014-10-31T15:16:23.000Z</time>
      </trkpt>
      <trkpt lat="47.4728" lon="6.76057">
        <ele>344.4</ele>
        <time>2014-10-31T15:16:24.000Z</time>
      </trkpt>
      <trkpt lat="47.47282" lon="6.76059">
        <ele>344.3</ele>
        <time>2014-10-31T15:16:25.000Z</time>
      </trkpt>
      <trkpt lat="47.47286" lon="6.76065">
        <ele>344.7</ele>
        <time>2014-10-31T15:16:26.000Z</time>
      </trkpt>
      <trkpt lat="47.4729" lon="6.76069">
        <ele>344.9</ele>
        <time>2014-10-31T15:16:27.000Z</time>
      </trkpt>
      <trkpt lat="47.47293" lon="6.76074">
        <ele>344.3</ele>
        <time>2014-10-31T15:16:28.000Z</time>
      </trkpt>
      <trkpt lat="47.47298" lon="6.7608">
        <ele>343.6</ele>
        <time>2014-10-31T15:16:29.000Z</time>
      </trkpt>
      <trkpt lat="47.47302" lon="6.76084">
        <ele>344</ele>
        <time>2014-10-31T15:16:30.000Z</time>
      </trkpt>
      <trkpt lat="47.47305" lon="6.76088">
        <ele>343.7</ele>
        <time>2014-10-31T15:16:31.000Z</time>
      </trkpt>
      <trkpt lat="47.47309" lon="6.76094">
        <ele>343.3</ele>
        <time>2014-10-31T15:16:32.000Z</time>
      </trkpt>
      <trkpt lat="47.47313" lon="6.76098">
        <ele>342.6</ele>
        <time>2014-10-31T15:16:33.000Z</time>
      </trkpt>
      <trkpt lat="47.47317" lon="6.76102">
        <ele>342.5</ele>
        <time>2014-10-31T15:16:34.000Z</time>
      </trkpt>
      <trkpt lat="47.47321" lon="6.76107">
        <ele>342.1</ele>
        <time>2014-10-31T15:16:35.000Z</time>
      </trkpt>
      <trkpt lat="47.47324" lon="6.76112">
        <ele>341</ele>
        <time>2014-10-31T15:16:36.000Z</time>
      </trkpt>
      <trkpt lat="47.47327" lon="6.76118">
        <ele>341.9</ele>
        <time>2014-10-31T15:16:37.000Z</time>
      </trkpt>
      <trkpt lat="47.47329" lon="6.76121">
        <ele>343.1</ele>
        <time>2014-10-31T15:16:38.000Z</time>
      </trkpt>
      <trkpt lat="47.47333" lon="6.76126">
        <ele>342.1</ele>
        <time>2014-10-31T15:16:39.000Z</time>
      </trkpt>
      <trkpt lat="47.47337" lon="6.7613">
        <ele>341.3</ele>
        <time>2014-10-31T15:16:40.000Z</time>
      </trkpt>
      <trkpt lat="47.4734" lon="6.76136">
        <ele>342.3</ele>
        <time>2014-10-31T15:16:41.000Z</time>
      </trkpt>
      <trkpt lat="47.47344" lon="6.76142">
        <ele>341.6</ele>
        <time>2014-10-31T15:16:42.000Z</time>
      </trkpt>
      <trkpt lat="47.47349" lon="6.76147">
        <ele>341.7</ele>
        <time>2014-10-31T15:16:43.000Z</time>
      </trkpt>
      <trkpt lat="47.47353" lon="6.76154">
        <ele>341</ele>
        <time>2014-10-31T15:16:44.000Z</time>
      </trkpt>
      <trkpt lat="47.47357" lon="6.76158">
        <ele>342.5</ele>
        <time>2014-10-31T15:16:45.000Z</time>
      </trkpt>
      <trkpt lat="47.47361" lon="6.76163">
        <ele>342.8</ele>
        <time>2014-10-31T15:16:46.000Z</time>
      </trkpt>
      <trkpt lat="47.47365" lon="6.7617">
        <ele>342.8</ele>
        <time>2014-10-31T15:16:47.000Z</time>
      </trkpt>
      <trkpt lat="47.47369" lon="6.76176">
        <ele>342.7</ele>
        <time>2014-10-31T15:16:48.000Z</time>
      </trkpt>
      <trkpt lat="47.47374" lon="6.76182">
        <ele>341.9</ele>
        <time>2014-10-31T15:16:49.000Z</time>
      </trkpt>
      <trkpt lat="47.47376" lon="6.76189">
        <ele>342.3</ele>
        <time>2014-10-31T15:16:50.000Z</time>
      </trkpt>
      <trkpt lat="47.4738" lon="6.76196">
        <ele>341.6</ele>
        <time>2014-10-31T15:16:51.000Z</time>
      </trkpt>
      <trkpt lat="47.47383" lon="6.76203">
        <ele>340.5</ele>
        <time>2014-10-31T15:16:52.000Z</time>
      </trkpt>
      <trkpt lat="47.47393" lon="6.76215">
        <ele>339.7</ele>
        <time>2014-10-31T15:16:55.000Z</time>
      </trkpt>
      <trkpt lat="47.474" lon="6.76217">
        <ele>339.2</ele>
        <time>2014-10-31T15:16:56.000Z</time>
      </trkpt>
      <trkpt lat="47.47404" lon="6.76223">
        <ele>338.1</ele>
        <time>2014-10-31T15:16:57.000Z</time>
      </trkpt>
      <trkpt lat="47.47407" lon="6.76229">
        <ele>337.9</ele>
        <time>2014-10-31T15:16:58.000Z</time>
      </trkpt>
      <trkpt lat="47.47409" lon="6.76236">
        <ele>337</ele>
        <time>2014-10-31T15:16:59.000Z</time>
      </trkpt>
      <trkpt lat="47.47411" lon="6.76243">
        <ele>336.2</ele>
        <time>2014-10-31T15:17:00.000Z</time>
      </trkpt>
      <trkpt lat="47.47413" lon="6.7625">
        <ele>335.4</ele>
        <time>2014-10-31T15:17:01.000Z</time>
      </trkpt>
      <trkpt lat="47.47414" lon="6.76259">
        <ele>335.1</ele>
        <time>2014-10-31T15:17:02.000Z</time>
      </trkpt>
      <trkpt lat="47.47415" lon="6.76268">
        <ele>334.1</ele>
        <time>2014-10-31T15:17:03.000Z</time>
      </trkpt>
      <trkpt lat="47.47416" lon="6.76278">
        <ele>333.6</ele>
        <time>2014-10-31T15:17:04.000Z</time>
      </trkpt>
      <trkpt lat="47.47418" lon="6.76288">
        <ele>332.5</ele>
        <time>2014-10-31T15:17:05.000Z</time>
      </trkpt>
      <trkpt lat="47.47419" lon="6.76297">
        <ele>331.2</ele>
        <time>2014-10-31T15:17:06.000Z</time>
      </trkpt>
      <trkpt lat="47.4742" lon="6.76306">
        <ele>328.9</ele>
        <time>2014-10-31T15:17:07.000Z</time>
      </trkpt>
      <trkpt lat="47.47418" lon="6.76315">
        <ele>327.7</ele>
        <time>2014-10-31T15:17:08.000Z</time>
      </trkpt>
      <trkpt lat="47.47418" lon="6.76323">
        <ele>327</ele>
        <time>2014-10-31T15:17:09.001Z</time>
      </trkpt>
      <trkpt lat="47.47416" lon="6.7633">
        <ele>328.4</ele>
        <time>2014-10-31T15:17:10.000Z</time>
      </trkpt>
      <trkpt lat="47.47412" lon="6.76337">
        <ele>328.4</ele>
        <time>2014-10-31T15:17:11.000Z</time>
      </trkpt>
      <trkpt lat="47.47407" lon="6.76344">
        <ele>328.4</ele>
        <time>2014-10-31T15:17:12.000Z</time>
      </trkpt>
      <trkpt lat="47.47402" lon="6.7635">
        <ele>328.4</ele>
        <time>2014-10-31T15:17:13.000Z</time>
      </trkpt>
      <trkpt lat="47.47398" lon="6.76357">
        <ele>328</ele>
        <time>2014-10-31T15:17:14.000Z</time>
      </trkpt>
      <trkpt lat="47.47393" lon="6.76363">
        <ele>327.7</ele>
        <time>2014-10-31T15:17:15.000Z</time>
      </trkpt>
      <trkpt lat="47.4739" lon="6.7637">
        <ele>327.9</ele>
        <time>2014-10-31T15:17:16.000Z</time>
      </trkpt>
      <trkpt lat="47.47386" lon="6.76375">
        <ele>328</ele>
        <time>2014-10-31T15:17:17.000Z</time>
      </trkpt>
      <trkpt lat="47.47383" lon="6.76378">
        <ele>325.6</ele>
        <time>2014-10-31T15:17:18.000Z</time>
      </trkpt>
      <trkpt lat="47.4738" lon="6.76382">
        <ele>325.2</ele>
        <time>2014-10-31T15:17:19.000Z</time>
      </trkpt>
      <trkpt lat="47.47379" lon="6.76387">
        <ele>323.6</ele>
        <time>2014-10-31T15:17:20.000Z</time>
      </trkpt>
      <trkpt lat="47.47378" lon="6.7639">
        <ele>323.3</ele>
        <time>2014-10-31T15:17:21.000Z</time>
      </trkpt>
      <trkpt lat="47.4738" lon="6.76397">
        <ele>323.4</ele>
        <time>2014-10-31T15:17:22.000Z</time>
      </trkpt>
      <trkpt lat="47.47383" lon="6.76401">
        <ele>322.5</ele>
        <time>2014-10-31T15:17:23.000Z</time>
      </trkpt>
      <trkpt lat="47.47387" lon="6.76405">
        <ele>321</ele>
        <time>2014-10-31T15:17:24.000Z</time>
      </trkpt>
      <trkpt lat="47.47391" lon="6.76411">
        <ele>320.2</ele>
        <time>2014-10-31T15:17:25.000Z</time>
      </trkpt>
      <trkpt lat="47.47395" lon="6.76417">
        <ele>319.5</ele>
        <time>2014-10-31T15:17:26.000Z</time>
      </trkpt>
      <trkpt lat="47.47401" lon="6.76421">
        <ele>318.8</ele>
        <time>2014-10-31T15:17:27.000Z</time>
      </trkpt>
      <trkpt lat="47.47406" lon="6.76428">
        <ele>317.3</ele>
        <time>2014-10-31T15:17:28.001Z</time>
      </trkpt>
      <trkpt lat="47.47412" lon="6.76435">
        <ele>316.1</ele>
        <time>2014-10-31T15:17:29.000Z</time>
      </trkpt>
      <trkpt lat="47.47418" lon="6.76439">
        <ele>315.7</ele>
        <time>2014-10-31T15:17:30.000Z</time>
      </trkpt>
      <trkpt lat="47.47421" lon="6.76442">
        <ele>314.6</ele>
        <time>2014-10-31T15:17:31.000Z</time>
      </trkpt>
      <trkpt lat="47.47426" lon="6.76446">
        <ele>314.5</ele>
        <time>2014-10-31T15:17:32.000Z</time>
      </trkpt>
      <trkpt lat="47.47428" lon="6.76449">
        <ele>313.9</ele>
        <time>2014-10-31T15:17:33.000Z</time>
      </trkpt>
      <trkpt lat="47.47431" lon="6.76453">
        <ele>314.4</ele>
        <time>2014-10-31T15:17:34.000Z</time>
      </trkpt>
      <trkpt lat="47.47434" lon="6.76456">
        <ele>314.7</ele>
        <time>2014-10-31T15:17:36.000Z</time>
      </trkpt>
      <trkpt lat="47.47436" lon="6.76457">
        <ele>314.8</ele>
        <time>2014-10-31T15:17:37.000Z</time>
      </trkpt>
      <trkpt lat="47.47439" lon="6.76454">
        <ele>315.6</ele>
        <time>2014-10-31T15:17:38.000Z</time>
      </trkpt>
      <trkpt lat="47.47442" lon="6.7645">
        <ele>315.7</ele>
        <time>2014-10-31T15:17:39.000Z</time>
      </trkpt>
      <trkpt lat="47.47445" lon="6.76445">
        <ele>315.6</ele>
        <time>2014-10-31T15:17:40.000Z</time>
      </trkpt>
      <trkpt lat="47.47447" lon="6.76442">
        <ele>314.5</ele>
        <time>2014-10-31T15:17:41.000Z</time>
      </trkpt>
      <trkpt lat="47.47451" lon="6.76438">
        <ele>313.3</ele>
        <time>2014-10-31T15:17:42.000Z</time>
      </trkpt>
      <trkpt lat="47.47455" lon="6.76436">
        <ele>313.3</ele>
        <time>2014-10-31T15:17:43.000Z</time>
      </trkpt>
      <trkpt lat="47.47459" lon="6.76436">
        <ele>313.2</ele>
        <time>2014-10-31T15:17:44.000Z</time>
      </trkpt>
      <trkpt lat="47.47463" lon="6.76437">
        <ele>312.8</ele>
        <time>2014-10-31T15:17:45.000Z</time>
      </trkpt>
      <trkpt lat="47.47467" lon="6.76439">
        <ele>313.1</ele>
        <time>2014-10-31T15:17:46.000Z</time>
      </trkpt>
      <trkpt lat="47.47472" lon="6.76443">
        <ele>311.9</ele>
        <time>2014-10-31T15:17:47.000Z</time>
      </trkpt>
      <trkpt lat="47.47475" lon="6.76446">
        <ele>311.8</ele>
        <time>2014-10-31T15:17:48.000Z</time>
      </trkpt>
      <trkpt lat="47.47479" lon="6.76449">
        <ele>312.4</ele>
        <time>2014-10-31T15:17:49.000Z</time>
      </trkpt>
      <trkpt lat="47.47484" lon="6.76452">
        <ele>312.1</ele>
        <time>2014-10-31T15:17:50.000Z</time>
      </trkpt>
      <trkpt lat="47.47487" lon="6.76455">
        <ele>312.7</ele>
        <time>2014-10-31T15:17:51.000Z</time>
      </trkpt>
      <trkpt lat="47.47492" lon="6.76458">
        <ele>312.2</ele>
        <time>2014-10-31T15:17:52.000Z</time>
      </trkpt>
      <trkpt lat="47.47514" lon="6.76434">
        <ele>315.6</ele>
        <time>2014-10-31T15:18:00.000Z</time>
      </trkpt>
      <trkpt lat="47.47518" lon="6.76427">
        <ele>315.9</ele>
        <time>2014-10-31T15:18:01.000Z</time>
      </trkpt>
      <trkpt lat="47.47523" lon="6.7642">
        <ele>319.6</ele>
        <time>2014-10-31T15:18:02.000Z</time>
      </trkpt>
      <trkpt lat="47.47527" lon="6.76415">
        <ele>320</ele>
        <time>2014-10-31T15:18:03.000Z</time>
      </trkpt>
      <trkpt lat="47.4753" lon="6.76411">
        <ele>319.9</ele>
        <time>2014-10-31T15:18:04.001Z</time>
      </trkpt>
      <trkpt lat="47.47533" lon="6.76405">
        <ele>319.8</ele>
        <time>2014-10-31T15:18:05.000Z</time>
      </trkpt>
      <trkpt lat="47.47536" lon="6.76399">
        <ele>319.3</ele>
        <time>2014-10-31T15:18:06.000Z</time>
      </trkpt>
      <trkpt lat="47.47539" lon="6.76386">
        <ele>319.4</ele>
        <time>2014-10-31T15:18:07.000Z</time>
      </trkpt>
      <trkpt lat="47.47541" lon="6.76379">
        <ele>320.7</ele>
        <time>2014-10-31T15:18:07.999Z</time>
      </trkpt>
      <trkpt lat="47.47544" lon="6.76369">
        <ele>319.9</ele>
        <time>2014-10-31T15:18:09.000Z</time>
      </trkpt>
      <trkpt lat="47.47546" lon="6.76361">
        <ele>319.9</ele>
        <time>2014-10-31T15:18:10.000Z</time>
      </trkpt>
      <trkpt lat="47.47549" lon="6.76352">
        <ele>320.7</ele>
        <time>2014-10-31T15:18:11.000Z</time>
      </trkpt>
      <trkpt lat="47.47552" lon="6.76343">
        <ele>320.7</ele>
        <time>2014-10-31T15:18:12.000Z</time>
      </trkpt>
      <trkpt lat="47.47557" lon="6.76335">
        <ele>320</ele>
        <time>2014-10-31T15:18:13.000Z</time>
      </trkpt>
      <trkpt lat="47.47561" lon="6.76328">
        <ele>319.9</ele>
        <time>2014-10-31T15:18:14.000Z</time>
      </trkpt>
      <trkpt lat="47.47565" lon="6.7632">
        <ele>319.8</ele>
        <time>2014-10-31T15:18:15.000Z</time>
      </trkpt>
      <trkpt lat="47.47569" lon="6.76311">
        <ele>320.1</ele>
        <time>2014-10-31T15:18:16.000Z</time>
      </trkpt>
      <trkpt lat="47.47574" lon="6.76304">
        <ele>320.7</ele>
        <time>2014-10-31T15:18:17.000Z</time>
      </trkpt>
      <trkpt lat="47.47578" lon="6.76296">
        <ele>321</ele>
        <time>2014-10-31T15:18:18.000Z</time>
      </trkpt>
      <trkpt lat="47.47582" lon="6.76289">
        <ele>321</ele>
        <time>2014-10-31T15:18:19.000Z</time>
      </trkpt>
      <trkpt lat="47.47586" lon="6.76282">
        <ele>321.4</ele>
        <time>2014-10-31T15:18:20.000Z</time>
      </trkpt>
      <trkpt lat="47.47589" lon="6.76273">
        <ele>324.4</ele>
        <time>2014-10-31T15:18:21.000Z</time>
      </trkpt>
      <trkpt lat="47.47592" lon="6.76266">
        <ele>326.2</ele>
        <time>2014-10-31T15:18:22.000Z</time>
      </trkpt>
      <trkpt lat="47.47594" lon="6.76262">
        <ele>325.3</ele>
        <time>2014-10-31T15:18:23.000Z</time>
      </trkpt>
      <trkpt lat="47.47598" lon="6.76262">
        <ele>323</ele>
        <time>2014-10-31T15:18:24.000Z</time>
      </trkpt>
      <trkpt lat="47.47601" lon="6.76252">
        <ele>322.9</ele>
        <time>2014-10-31T15:18:25.000Z</time>
      </trkpt>
      <trkpt lat="47.47604" lon="6.76249">
        <ele>323</ele>
        <time>2014-10-31T15:18:26.000Z</time>
      </trkpt>
      <trkpt lat="47.47607" lon="6.76247">
        <ele>322.9</ele>
        <time>2014-10-31T15:18:27.000Z</time>
      </trkpt>
      <trkpt lat="47.47612" lon="6.7624">
        <ele>322.7</ele>
        <time>2014-10-31T15:18:28.000Z</time>
      </trkpt>
      <trkpt lat="47.47614" lon="6.76233">
        <ele>322.6</ele>
        <time>2014-10-31T15:18:29.000Z</time>
      </trkpt>
      <trkpt lat="47.47617" lon="6.76222">
        <ele>322.7</ele>
        <time>2014-10-31T15:18:30.000Z</time>
      </trkpt>
      <trkpt lat="47.47621" lon="6.76216">
        <ele>324.2</ele>
        <time>2014-10-31T15:18:31.000Z</time>
      </trkpt>
      <trkpt lat="47.47624" lon="6.76208">
        <ele>324.2</ele>
        <time>2014-10-31T15:18:32.000Z</time>
      </trkpt>
      <trkpt lat="47.47627" lon="6.762">
        <ele>323.8</ele>
        <time>2014-10-31T15:18:33.000Z</time>
      </trkpt>
      <trkpt lat="47.47629" lon="6.7619">
        <ele>323.4</ele>
        <time>2014-10-31T15:18:34.000Z</time>
      </trkpt>
      <trkpt lat="47.47633" lon="6.76181">
        <ele>323.2</ele>
        <time>2014-10-31T15:18:35.000Z</time>
      </trkpt>
      <trkpt lat="47.47635" lon="6.76173">
        <ele>324.2</ele>
        <time>2014-10-31T15:18:36.000Z</time>
      </trkpt>
      <trkpt lat="47.47637" lon="6.76164">
        <ele>324</ele>
        <time>2014-10-31T15:18:37.000Z</time>
      </trkpt>
      <trkpt lat="47.47639" lon="6.76156">
        <ele>323.3</ele>
        <time>2014-10-31T15:18:38.000Z</time>
      </trkpt>
      <trkpt lat="47.47643" lon="6.76148">
        <ele>322.2</ele>
        <time>2014-10-31T15:18:39.000Z</time>
      </trkpt>
      <trkpt lat="47.47646" lon="6.76139">
        <ele>320.5</ele>
        <time>2014-10-31T15:18:40.000Z</time>
      </trkpt>
      <trkpt lat="47.47648" lon="6.76132">
        <ele>320.6</ele>
        <time>2014-10-31T15:18:41.000Z</time>
      </trkpt>
      <trkpt lat="47.47651" lon="6.76125">
        <ele>320.7</ele>
        <time>2014-10-31T15:18:42.000Z</time>
      </trkpt>
      <trkpt lat="47.47653" lon="6.76117">
        <ele>321.6</ele>
        <time>2014-10-31T15:18:43.000Z</time>
      </trkpt>
      <trkpt lat="47.47656" lon="6.76109">
        <ele>321.5</ele>
        <time>2014-10-31T15:18:44.000Z</time>
      </trkpt>
      <trkpt lat="47.47659" lon="6.76102">
        <ele>321.3</ele>
        <time>2014-10-31T15:18:45.000Z</time>
      </trkpt>
      <trkpt lat="47.47661" lon="6.76095">
        <ele>321.3</ele>
        <time>2014-10-31T15:18:46.000Z</time>
      </trkpt>
      <trkpt lat="47.47663" lon="6.76087">
        <ele>321.7</ele>
        <time>2014-10-31T15:18:47.000Z</time>
      </trkpt>
      <trkpt lat="47.47666" lon="6.76084">
        <ele>321.2</ele>
        <time>2014-10-31T15:18:48.000Z</time>
      </trkpt>
      <trkpt lat="47.47667" lon="6.76081">
        <ele>321.2</ele>
        <time>2014-10-31T15:18:49.000Z</time>
      </trkpt>
      <trkpt lat="47.4767" lon="6.76083">
        <ele>321</ele>
        <time>2014-10-31T15:18:50.000Z</time>
      </trkpt>
      <trkpt lat="47.47674" lon="6.76086">
        <ele>319.2</ele>
        <time>2014-10-31T15:18:51.000Z</time>
      </trkpt>
      <trkpt lat="47.47678" lon="6.76089">
        <ele>317.1</ele>
        <time>2014-10-31T15:18:52.000Z</time>
      </trkpt>
      <trkpt lat="47.47686" lon="6.761">
        <ele>318.2</ele>
        <time>2014-10-31T15:18:55.000Z</time>
      </trkpt>
      <trkpt lat="47.4769" lon="6.76106">
        <ele>318.7</ele>
        <time>2014-10-31T15:18:56.000Z</time>
      </trkpt>
      <trkpt lat="47.47693" lon="6.76111">
        <ele>316.6</ele>
        <time>2014-10-31T15:18:57.000Z</time>
      </trkpt>
      <trkpt lat="47.47695" lon="6.76115">
        <ele>316</ele>
        <time>2014-10-31T15:18:58.000Z</time>
      </trkpt>
      <trkpt lat="47.47698" lon="6.76118">
        <ele>316.8</ele>
        <time>2014-10-31T15:18:59.000Z</time>
      </trkpt>
      <trkpt lat="47.47701" lon="6.76122">
        <ele>317</ele>
        <time>2014-10-31T15:19:00.000Z</time>
      </trkpt>
      <trkpt lat="47.47704" lon="6.76128">
        <ele>317.3</ele>
        <time>2014-10-31T15:19:01.000Z</time>
      </trkpt>
      <trkpt lat="47.47708" lon="6.7613">
        <ele>317.2</ele>
        <time>2014-10-31T15:19:02.000Z</time>
      </trkpt>
      <trkpt lat="47.4771" lon="6.76136">
        <ele>317.7</ele>
        <time>2014-10-31T15:19:03.000Z</time>
      </trkpt>
      <trkpt lat="47.47713" lon="6.76141">
        <ele>318.2</ele>
        <time>2014-10-31T15:19:04.000Z</time>
      </trkpt>
      <trkpt lat="47.47717" lon="6.76145">
        <ele>318.4</ele>
        <time>2014-10-31T15:19:05.000Z</time>
      </trkpt>
      <trkpt lat="47.47721" lon="6.76151">
        <ele>319</ele>
        <time>2014-10-31T15:19:06.000Z</time>
      </trkpt>
      <trkpt lat="47.47726" lon="6.76158">
        <ele>318.7</ele>
        <time>2014-10-31T15:19:07.000Z</time>
      </trkpt>
      <trkpt lat="47.4773" lon="6.76164">
        <ele>318</ele>
        <time>2014-10-31T15:19:08.000Z</time>
      </trkpt>
      <trkpt lat="47.47733" lon="6.76171">
        <ele>319.6</ele>
        <time>2014-10-31T15:19:09.000Z</time>
      </trkpt>
      <trkpt lat="47.47736" lon="6.76174">
        <ele>318.9</ele>
        <time>2014-10-31T15:19:10.000Z</time>
      </trkpt>
      <trkpt lat="47.4774" lon="6.76179">
        <ele>319.4</ele>
        <time>2014-10-31T15:19:10.999Z</time>
      </trkpt>
      <trkpt lat="47.47745" lon="6.76186">
        <ele>320.6</ele>
        <time>2014-10-31T15:19:12.000Z</time>
      </trkpt>
      <trkpt lat="47.47748" lon="6.76192">
        <ele>319.9</ele>
        <time>2014-10-31T15:19:13.000Z</time>
      </trkpt>
      <trkpt lat="47.47752" lon="6.76198">
        <ele>320.2</ele>
        <time>2014-10-31T15:19:14.000Z</time>
      </trkpt>
      <trkpt lat="47.47757" lon="6.76204">
        <ele>320.6</ele>
        <time>2014-10-31T15:19:15.000Z</time>
      </trkpt>
      <trkpt lat="47.4776" lon="6.76211">
        <ele>320</ele>
        <time>2014-10-31T15:19:16.000Z</time>
      </trkpt>
      <trkpt lat="47.47764" lon="6.76217">
        <ele>319.2</ele>
        <time>2014-10-31T15:19:17.000Z</time>
      </trkpt>
      <trkpt lat="47.47768" lon="6.76223">
        <ele>318.3</ele>
        <time>2014-10-31T15:19:18.000Z</time>
      </trkpt>
      <trkpt lat="47.47772" lon="6.7623">
        <ele>318.4</ele>
        <time>2014-10-31T15:19:19.000Z</time>
      </trkpt>
      <trkpt lat="47.47776" lon="6.76235">
        <ele>318.8</ele>
        <time>2014-10-31T15:19:20.000Z</time>
      </trkpt>
      <trkpt lat="47.4778" lon="6.7624">
        <ele>318.9</ele>
        <time>2014-10-31T15:19:21.000Z</time>
      </trkpt>
      <trkpt lat="47.47784" lon="6.76245">
        <ele>318.3</ele>
        <time>2014-10-31T15:19:22.000Z</time>
      </trkpt>
      <trkpt lat="47.4779" lon="6.76249">
        <ele>317.4</ele>
        <time>2014-10-31T15:19:23.000Z</time>
      </trkpt>
      <trkpt lat="47.47795" lon="6.76253">
        <ele>317.2</ele>
        <time>2014-10-31T15:19:24.000Z</time>
      </trkpt>
      <trkpt lat="47.478" lon="6.76256">
        <ele>317</ele>
        <time>2014-10-31T15:19:25.000Z</time>
      </trkpt>
      <trkpt lat="47.47805" lon="6.76259">
        <ele>316.1</ele>
        <time>2014-10-31T15:19:26.000Z</time>
      </trkpt>
      <trkpt lat="47.4781" lon="6.76262">
        <ele>315.4</ele>
        <time>2014-10-31T15:19:27.000Z</time>
      </trkpt>
      <trkpt lat="47.47815" lon="6.76266">
        <ele>315</ele>
        <time>2014-10-31T15:19:28.000Z</time>
      </trkpt>
      <trkpt lat="47.4782" lon="6.76268">
        <ele>315.8</ele>
        <time>2014-10-31T15:19:29.000Z</time>
      </trkpt>
      <trkpt lat="47.47826" lon="6.76272">
        <ele>315</ele>
        <time>2014-10-31T15:19:30.000Z</time>
      </trkpt>
      <trkpt lat="47.47831" lon="6.76275">
        <ele>315.6</ele>
        <time>2014-10-31T15:19:31.000Z</time>
      </trkpt>
      <trkpt lat="47.47837" lon="6.7628">
        <ele>315.9</ele>
        <time>2014-10-31T15:19:32.000Z</time>
      </trkpt>
      <trkpt lat="47.47842" lon="6.76286">
        <ele>315.4</ele>
        <time>2014-10-31T15:19:33.000Z</time>
      </trkpt>
      <trkpt lat="47.47845" lon="6.76291">
        <ele>314.8</ele>
        <time>2014-10-31T15:19:34.000Z</time>
      </trkpt>
      <trkpt lat="47.47849" lon="6.76297">
        <ele>315.6</ele>
        <time>2014-10-31T15:19:35.000Z</time>
      </trkpt>
      <trkpt lat="47.47853" lon="6.76303">
        <ele>316.2</ele>
        <time>2014-10-31T15:19:36.000Z</time>
      </trkpt>
      <trkpt lat="47.47857" lon="6.7631">
        <ele>315.9</ele>
        <time>2014-10-31T15:19:37.000Z</time>
      </trkpt>
      <trkpt lat="47.4786" lon="6.76317">
        <ele>316.2</ele>
        <time>2014-10-31T15:19:38.000Z</time>
      </trkpt>
      <trkpt lat="47.47863" lon="6.76323">
        <ele>315.7</ele>
        <time>2014-10-31T15:19:39.000Z</time>
      </trkpt>
      <trkpt lat="47.47866" lon="6.7633">
        <ele>316.1</ele>
        <time>2014-10-31T15:19:40.000Z</time>
      </trkpt>
      <trkpt lat="47.4787" lon="6.76337">
        <ele>315.7</ele>
        <time>2014-10-31T15:19:41.000Z</time>
      </trkpt>
      <trkpt lat="47.47874" lon="6.76343">
        <ele>315.9</ele>
        <time>2014-10-31T15:19:42.000Z</time>
      </trkpt>
      <trkpt lat="47.47878" lon="6.76349">
        <ele>315.5</ele>
        <time>2014-10-31T15:19:43.000Z</time>
      </trkpt>
      <trkpt lat="47.4788" lon="6.76357">
        <ele>315.6</ele>
        <time>2014-10-31T15:19:44.000Z</time>
      </trkpt>
      <trkpt lat="47.47883" lon="6.76363">
        <ele>315.3</ele>
        <time>2014-10-31T15:19:45.000Z</time>
      </trkpt>
      <trkpt lat="47.47886" lon="6.7637">
        <ele>315.6</ele>
        <time>2014-10-31T15:19:46.000Z</time>
      </trkpt>
      <trkpt lat="47.47889" lon="6.76376">
        <ele>315.4</ele>
        <time>2014-10-31T15:19:47.000Z</time>
      </trkpt>
      <trkpt lat="47.47892" lon="6.76384">
        <ele>315.1</ele>
        <time>2014-10-31T15:19:48.000Z</time>
      </trkpt>
      <trkpt lat="47.47896" lon="6.76391">
        <ele>314.4</ele>
        <time>2014-10-31T15:19:49.000Z</time>
      </trkpt>
      <trkpt lat="47.47899" lon="6.76398">
        <ele>314.5</ele>
        <time>2014-10-31T15:19:50.000Z</time>
      </trkpt>
      <trkpt lat="47.47902" lon="6.76405">
        <ele>315.3</ele>
        <time>2014-10-31T15:19:51.000Z</time>
      </trkpt>
      <trkpt lat="47.47904" lon="6.76413">
        <ele>315.4</ele>
        <time>2014-10-31T15:19:52.000Z</time>
      </trkpt>
      <trkpt lat="47.47911" lon="6.76432">
        <ele>315.2</ele>
        <time>2014-10-31T15:19:55.000Z</time>
      </trkpt>
      <trkpt lat="47.47913" lon="6.76441">
        <ele>315.3</ele>
        <time>2014-10-31T15:19:56.000Z</time>
      </trkpt>
      <trkpt lat="47.47915" lon="6.7645">
        <ele>314.8</ele>
        <time>2014-10-31T15:19:57.000Z</time>
      </trkpt>
      <trkpt lat="47.47918" lon="6.76457">
        <ele>314.4</ele>
        <time>2014-10-31T15:19:58.000Z</time>
      </trkpt>
      <trkpt lat="47.47919" lon="6.76464">
        <ele>314.8</ele>
        <time>2014-10-31T15:19:59.000Z</time>
      </trkpt>
      <trkpt lat="47.4792" lon="6.76473">
        <ele>313.8</ele>
        <time>2014-10-31T15:20:00.000Z</time>
      </trkpt>
      <trkpt lat="47.47922" lon="6.76481">
        <ele>313.9</ele>
        <time>2014-10-31T15:20:01.000Z</time>
      </trkpt>
      <trkpt lat="47.47924" lon="6.76487">
        <ele>313.9</ele>
        <time>2014-10-31T15:20:02.000Z</time>
      </trkpt>
      <trkpt lat="47.47925" lon="6.76496">
        <ele>313.8</ele>
        <time>2014-10-31T15:20:03.000Z</time>
      </trkpt>
      <trkpt lat="47.47926" lon="6.76504">
        <ele>313.8</ele>
        <time>2014-10-31T15:20:04.000Z</time>
      </trkpt>
      <trkpt lat="47.47928" lon="6.76512">
        <ele>314.6</ele>
        <time>2014-10-31T15:20:05.000Z</time>
      </trkpt>
      <trkpt lat="47.4793" lon="6.76519">
        <ele>315.3</ele>
        <time>2014-10-31T15:20:06.000Z</time>
      </trkpt>
      <trkpt lat="47.47931" lon="6.76527">
        <ele>315</ele>
        <time>2014-10-31T15:20:07.000Z</time>
      </trkpt>
      <trkpt lat="47.47933" lon="6.76534">
        <ele>314.7</ele>
        <time>2014-10-31T15:20:08.000Z</time>
      </trkpt>
      <trkpt lat="47.47935" lon="6.7654">
        <ele>314.4</ele>
        <time>2014-10-31T15:20:09.000Z</time>
      </trkpt>
      <trkpt lat="47.47937" lon="6.76547">
        <ele>314.1</ele>
        <time>2014-10-31T15:20:10.000Z</time>
      </trkpt>
      <trkpt lat="47.47938" lon="6.76554">
        <ele>313.7</ele>
        <time>2014-10-31T15:20:11.000Z</time>
      </trkpt>
      <trkpt lat="47.4794" lon="6.76561">
        <ele>313.8</ele>
        <time>2014-10-31T15:20:12.000Z</time>
      </trkpt>
      <trkpt lat="47.47942" lon="6.76567">
        <ele>314.4</ele>
        <time>2014-10-31T15:20:13.000Z</time>
      </trkpt>
      <trkpt lat="47.47944" lon="6.76574">
        <ele>315</ele>
        <time>2014-10-31T15:20:14.000Z</time>
      </trkpt>
      <trkpt lat="47.47945" lon="6.7658">
        <ele>314.9</ele>
        <time>2014-10-31T15:20:15.000Z</time>
      </trkpt>
      <trkpt lat="47.47948" lon="6.76586">
        <ele>313.6</ele>
        <time>2014-10-31T15:20:16.000Z</time>
      </trkpt>
      <trkpt lat="47.4795" lon="6.76591">
        <ele>312.2</ele>
        <time>2014-10-31T15:20:17.000Z</time>
      </trkpt>
      <trkpt lat="47.47953" lon="6.76595">
        <ele>311.6</ele>
        <time>2014-10-31T15:20:18.000Z</time>
      </trkpt>
      <trkpt lat="47.47958" lon="6.76599">
        <ele>310.3</ele>
        <time>2014-10-31T15:20:19.000Z</time>
      </trkpt>
      <trkpt lat="47.47961" lon="6.76603">
        <ele>309.6</ele>
        <time>2014-10-31T15:20:20.000Z</time>
      </trkpt>
      <trkpt lat="47.47964" lon="6.76607">
        <ele>309.4</ele>
        <time>2014-10-31T15:20:21.000Z</time>
      </trkpt>
      <trkpt lat="47.47967" lon="6.7661">
        <ele>309.7</ele>
        <time>2014-10-31T15:20:22.000Z</time>
      </trkpt>
      <trkpt lat="47.4797" lon="6.76617">
        <ele>310.2</ele>
        <time>2014-10-31T15:20:23.000Z</time>
      </trkpt>
      <trkpt lat="47.47971" lon="6.76625">
        <ele>310.6</ele>
        <time>2014-10-31T15:20:24.000Z</time>
      </trkpt>
      <trkpt lat="47.47972" lon="6.76633">
        <ele>309.8</ele>
        <time>2014-10-31T15:20:25.000Z</time>
      </trkpt>
      <trkpt lat="47.47973" lon="6.7664">
        <ele>310</ele>
        <time>2014-10-31T15:20:26.000Z</time>
      </trkpt>
      <trkpt lat="47.47974" lon="6.76647">
        <ele>310</ele>
        <time>2014-10-31T15:20:27.000Z</time>
      </trkpt>
      <trkpt lat="47.47975" lon="6.7665">
        <ele>310.1</ele>
        <time>2014-10-31T15:20:28.000Z</time>
      </trkpt>
      <trkpt lat="47.47976" lon="6.76655">
        <ele>309</ele>
        <time>2014-10-31T15:20:29.000Z</time>
      </trkpt>
      <trkpt lat="47.47974" lon="6.76653">
        <ele>305.9</ele>
        <time>2014-10-31T15:20:31.000Z</time>
      </trkpt>
      <trkpt lat="47.47972" lon="6.76648">
        <ele>305.4</ele>
        <time>2014-10-31T15:20:32.000Z</time>
      </trkpt>
      <trkpt lat="47.47971" lon="6.76644">
        <ele>305.2</ele>
        <time>2014-10-31T15:20:33.000Z</time>
      </trkpt>
      <trkpt lat="47.4797" lon="6.76639">
        <ele>305.7</ele>
        <time>2014-10-31T15:20:34.000Z</time>
      </trkpt>
      <trkpt lat="47.47968" lon="6.76634">
        <ele>305.1</ele>
        <time>2014-10-31T15:20:35.000Z</time>
      </trkpt>
      <trkpt lat="47.47967" lon="6.7663">
        <ele>306.1</ele>
        <time>2014-10-31T15:20:36.000Z</time>
      </trkpt>
      <trkpt lat="47.47966" lon="6.76625">
        <ele>306.1</ele>
        <time>2014-10-31T15:20:37.000Z</time>
      </trkpt>
      <trkpt lat="47.47965" lon="6.76621">
        <ele>306.8</ele>
        <time>2014-10-31T15:20:38.000Z</time>
      </trkpt>
      <trkpt lat="47.47964" lon="6.76617">
        <ele>306.3</ele>
        <time>2014-10-31T15:20:39.000Z</time>
      </trkpt>
      <trkpt lat="47.47963" lon="6.76614">
        <ele>306</ele>
        <time>2014-10-31T15:20:40.000Z</time>
      </trkpt>
      <trkpt lat="47.47965" lon="6.76612">
        <ele>305.9</ele>
        <time>2014-10-31T15:20:41.000Z</time>
      </trkpt>
      <trkpt lat="47.47968" lon="6.7661">
        <ele>305.8</ele>
        <time>2014-10-31T15:20:42.000Z</time>
      </trkpt>
      <trkpt lat="47.47972" lon="6.76609">
        <ele>306.2</ele>
        <time>2014-10-31T15:20:43.000Z</time>
      </trkpt>
      <trkpt lat="47.47977" lon="6.76607">
        <ele>307</ele>
        <time>2014-10-31T15:20:44.000Z</time>
      </trkpt>
      <trkpt lat="47.47986" lon="6.76607">
        <ele>307.3</ele>
        <time>2014-10-31T15:20:45.000Z</time>
      </trkpt>
      <trkpt lat="47.47991" lon="6.76604">
        <ele>307.3</ele>
        <time>2014-10-31T15:20:46.000Z</time>
      </trkpt>
      <trkpt lat="47.47994" lon="6.76601">
        <ele>308.1</ele>
        <time>2014-10-31T15:20:47.000Z</time>
      </trkpt>
      <trkpt lat="47.47999" lon="6.76599">
        <ele>310.3</ele>
        <time>2014-10-31T15:20:48.000Z</time>
      </trkpt>
      <trkpt lat="47.48003" lon="6.76597">
        <ele>310.2</ele>
        <time>2014-10-31T15:20:49.000Z</time>
      </trkpt>
      <trkpt lat="47.48008" lon="6.76594">
        <ele>311.6</ele>
        <time>2014-10-31T15:20:50.000Z</time>
      </trkpt>
      <trkpt lat="47.48013" lon="6.76591">
        <ele>312.1</ele>
        <time>2014-10-31T15:20:51.000Z</time>
      </trkpt>
      <trkpt lat="47.48018" lon="6.76587">
        <ele>312.3</ele>
        <time>2014-10-31T15:20:52.000Z</time>
      </trkpt>
      <trkpt lat="47.48054" lon="6.76553">
        <ele>312.9</ele>
        <time>2014-10-31T15:21:00.000Z</time>
      </trkpt>
      <trkpt lat="47.48059" lon="6.76547">
        <ele>312.7</ele>
        <time>2014-10-31T15:21:01.000Z</time>
      </trkpt>
      <trkpt lat="47.48063" lon="6.76541">
        <ele>314.3</ele>
        <time>2014-10-31T15:21:02.000Z</time>
      </trkpt>
      <trkpt lat="47.48067" lon="6.76537">
        <ele>314.5</ele>
        <time>2014-10-31T15:21:03.000Z</time>
      </trkpt>
      <trkpt lat="47.48073" lon="6.76533">
        <ele>314.8</ele>
        <time>2014-10-31T15:21:04.000Z</time>
      </trkpt>
      <trkpt lat="47.48077" lon="6.76527">
        <ele>314.3</ele>
        <time>2014-10-31T15:21:05.000Z</time>
      </trkpt>
      <trkpt lat="47.4808" lon="6.76522">
        <ele>313.7</ele>
        <time>2014-10-31T15:21:06.000Z</time>
      </trkpt>
      <trkpt lat="47.48084" lon="6.76519">
        <ele>314</ele>
        <time>2014-10-31T15:21:07.000Z</time>
      </trkpt>
      <trkpt lat="47.48087" lon="6.76516">
        <ele>314.3</ele>
        <time>2014-10-31T15:21:08.000Z</time>
      </trkpt>
      <trkpt lat="47.48091" lon="6.76512">
        <ele>314.1</ele>
        <time>2014-10-31T15:21:09.000Z</time>
      </trkpt>
      <trkpt lat="47.48094" lon="6.7651">
        <ele>314.6</ele>
        <time>2014-10-31T15:21:10.000Z</time>
      </trkpt>
      <trkpt lat="47.48097" lon="6.76508">
        <ele>315.9</ele>
        <time>2014-10-31T15:21:11.000Z</time>
      </trkpt>
      <trkpt lat="47.48098" lon="6.76507">
        <ele>317.4</ele>
        <time>2014-10-31T15:21:12.000Z</time>
      </trkpt>
      <trkpt lat="47.48102" lon="6.76508">
        <ele>319</ele>
        <time>2014-10-31T15:21:13.000Z</time>
      </trkpt>
      <trkpt lat="47.48104" lon="6.76514">
        <ele>319.2</ele>
        <time>2014-10-31T15:21:14.000Z</time>
      </trkpt>
      <trkpt lat="47.48105" lon="6.76517">
        <ele>319.9</ele>
        <time>2014-10-31T15:21:15.000Z</time>
      </trkpt>
      <trkpt lat="47.48108" lon="6.7652">
        <ele>319.9</ele>
        <time>2014-10-31T15:21:16.000Z</time>
      </trkpt>
      <trkpt lat="47.4811" lon="6.76523">
        <ele>319.9</ele>
        <time>2014-10-31T15:21:17.000Z</time>
      </trkpt>
      <trkpt lat="47.48112" lon="6.76527">
        <ele>320.2</ele>
        <time>2014-10-31T15:21:18.000Z</time>
      </trkpt>
      <trkpt lat="47.48112" lon="6.76536">
        <ele>320</ele>
        <time>2014-10-31T15:21:19.000Z</time>
      </trkpt>
      <trkpt lat="47.4811" lon="6.76542">
        <ele>319.3</ele>
        <time>2014-10-31T15:21:20.000Z</time>
      </trkpt>
      <trkpt lat="47.48107" lon="6.76549">
        <ele>318.7</ele>
        <time>2014-10-31T15:21:21.000Z</time>
      </trkpt>
      <trkpt lat="47.48105" lon="6.76556">
        <ele>318.4</ele>
        <time>2014-10-31T15:21:22.000Z</time>
      </trkpt>
      <trkpt lat="47.48103" lon="6.76564">
        <ele>319</ele>
        <time>2014-10-31T15:21:23.000Z</time>
      </trkpt>
      <trkpt lat="47.48102" lon="6.7657">
        <ele>319.2</ele>
        <time>2014-10-31T15:21:24.000Z</time>
      </trkpt>
      <trkpt lat="47.481" lon="6.76576">
        <ele>318.3</ele>
        <time>2014-10-31T15:21:25.000Z</time>
      </trkpt>
      <trkpt lat="47.48101" lon="6.76586">
        <ele>317.4</ele>
        <time>2014-10-31T15:21:26.000Z</time>
      </trkpt>
      <trkpt lat="47.48099" lon="6.76593">
        <ele>318</ele>
        <time>2014-10-31T15:21:27.000Z</time>
      </trkpt>
      <trkpt lat="47.48098" lon="6.76607">
        <ele>317.9</ele>
        <time>2014-10-31T15:21:28.000Z</time>
      </trkpt>
      <trkpt lat="47.48097" lon="6.76617">
        <ele>318.5</ele>
        <time>2014-10-31T15:21:29.000Z</time>
      </trkpt>
      <trkpt lat="47.48098" lon="6.76624">
        <ele>319.1</ele>
        <time>2014-10-31T15:21:30.000Z</time>
      </trkpt>
      <trkpt lat="47.48101" lon="6.7663">
        <ele>319.2</ele>
        <time>2014-10-31T15:21:31.000Z</time>
      </trkpt>
      <trkpt lat="47.48103" lon="6.76635">
        <ele>320.6</ele>
        <time>2014-10-31T15:21:32.000Z</time>
      </trkpt>
      <trkpt lat="47.48105" lon="6.76641">
        <ele>320</ele>
        <time>2014-10-31T15:21:33.000Z</time>
      </trkpt>
      <trkpt lat="47.48107" lon="6.76648">
        <ele>320.8</ele>
        <time>2014-10-31T15:21:34.000Z</time>
      </trkpt>
      <trkpt lat="47.4811" lon="6.76655">
        <ele>320.7</ele>
        <time>2014-10-31T15:21:35.000Z</time>
      </trkpt>
      <trkpt lat="47.48114" lon="6.76661">
        <ele>320.6</ele>
        <time>2014-10-31T15:21:36.000Z</time>
      </trkpt>
      <trkpt lat="47.48119" lon="6.76668">
        <ele>320.3</ele>
        <time>2014-10-31T15:21:37.000Z</time>
      </trkpt>
      <trkpt lat="47.48124" lon="6.76674">
        <ele>320.5</ele>
        <time>2014-10-31T15:21:38.000Z</time>
      </trkpt>
      <trkpt lat="47.48128" lon="6.76681">
        <ele>321.1</ele>
        <time>2014-10-31T15:21:39.000Z</time>
      </trkpt>
      <trkpt lat="47.48132" lon="6.76689">
        <ele>320.4</ele>
        <time>2014-10-31T15:21:40.000Z</time>
      </trkpt>
      <trkpt lat="47.48136" lon="6.76696">
        <ele>319.3</ele>
        <time>2014-10-31T15:21:41.000Z</time>
      </trkpt>
      <trkpt lat="47.4814" lon="6.76705">
        <ele>319</ele>
        <time>2014-10-31T15:21:42.000Z</time>
      </trkpt>
      <trkpt lat="47.48144" lon="6.76713">
        <ele>318.6</ele>
        <time>2014-10-31T15:21:43.000Z</time>
      </trkpt>
      <trkpt lat="47.48148" lon="6.76721">
        <ele>318.3</ele>
        <time>2014-10-31T15:21:44.000Z</time>
      </trkpt>
      <trkpt lat="47.48153" lon="6.76729">
        <ele>318.1</ele>
        <time>2014-10-31T15:21:45.000Z</time>
      </trkpt>
      <trkpt lat="47.48156" lon="6.76735">
        <ele>316.2</ele>
        <time>2014-10-31T15:21:46.000Z</time>
      </trkpt>
      <trkpt lat="47.4816" lon="6.76742">
        <ele>316.3</ele>
        <time>2014-10-31T15:21:47.000Z</time>
      </trkpt>
      <trkpt lat="47.48165" lon="6.76748">
        <ele>315.5</ele>
        <time>2014-10-31T15:21:48.000Z</time>
      </trkpt>
      <trkpt lat="47.4817" lon="6.76754">
        <ele>315.4</ele>
        <time>2014-10-31T15:21:49.000Z</time>
      </trkpt>
      <trkpt lat="47.48174" lon="6.7676">
        <ele>315.6</ele>
        <time>2014-10-31T15:21:50.000Z</time>
      </trkpt>
      <trkpt lat="47.48179" lon="6.76764">
        <ele>316.7</ele>
        <time>2014-10-31T15:21:51.000Z</time>
      </trkpt>
      <trkpt lat="47.48184" lon="6.76769">
        <ele>317.5</ele>
        <time>2014-10-31T15:21:52.000Z</time>
      </trkpt>
      <trkpt lat="47.48222" lon="6.7679">
        <ele>316.6</ele>
        <time>2014-10-31T15:22:00.000Z</time>
      </trkpt>
      <trkpt lat="47.48228" lon="6.76794">
        <ele>317.2</ele>
        <time>2014-10-31T15:22:01.000Z</time>
      </trkpt>
      <trkpt lat="47.48235" lon="6.76796">
        <ele>317.3</ele>
        <time>2014-10-31T15:22:02.000Z</time>
      </trkpt>
      <trkpt lat="47.4824" lon="6.76801">
        <ele>317.8</ele>
        <time>2014-10-31T15:22:03.000Z</time>
      </trkpt>
      <trkpt lat="47.48246" lon="6.76807">
        <ele>318.2</ele>
        <time>2014-10-31T15:22:04.000Z</time>
      </trkpt>
      <trkpt lat="47.48251" lon="6.76812">
        <ele>318.7</ele>
        <time>2014-10-31T15:22:05.000Z</time>
      </trkpt>
      <trkpt lat="47.48255" lon="6.76817">
        <ele>319.4</ele>
        <time>2014-10-31T15:22:06.000Z</time>
      </trkpt>
      <trkpt lat="47.48259" lon="6.76824">
        <ele>320</ele>
        <time>2014-10-31T15:22:07.000Z</time>
      </trkpt>
      <trkpt lat="47.48263" lon="6.7683">
        <ele>320.4</ele>
        <time>2014-10-31T15:22:08.000Z</time>
      </trkpt>
      <trkpt lat="47.48268" lon="6.76836">
        <ele>320.6</ele>
        <time>2014-10-31T15:22:09.000Z</time>
      </trkpt>
      <trkpt lat="47.48272" lon="6.76843">
        <ele>320.7</ele>
        <time>2014-10-31T15:22:10.000Z</time>
      </trkpt>
      <trkpt lat="47.48277" lon="6.76849">
        <ele>320.5</ele>
        <time>2014-10-31T15:22:11.000Z</time>
      </trkpt>
      <trkpt lat="47.48281" lon="6.76855">
        <ele>320.1</ele>
        <time>2014-10-31T15:22:12.000Z</time>
      </trkpt>
      <trkpt lat="47.48286" lon="6.76862">
        <ele>320.5</ele>
        <time>2014-10-31T15:22:13.000Z</time>
      </trkpt>
      <trkpt lat="47.48291" lon="6.76867">
        <ele>320.4</ele>
        <time>2014-10-31T15:22:14.000Z</time>
      </trkpt>
      <trkpt lat="47.48296" lon="6.76872">
        <ele>320.7</ele>
        <time>2014-10-31T15:22:15.000Z</time>
      </trkpt>
      <trkpt lat="47.48301" lon="6.76876">
        <ele>320.9</ele>
        <time>2014-10-31T15:22:16.000Z</time>
      </trkpt>
      <trkpt lat="47.48308" lon="6.76882">
        <ele>320.9</ele>
        <time>2014-10-31T15:22:17.000Z</time>
      </trkpt>
      <trkpt lat="47.48313" lon="6.76886">
        <ele>320.6</ele>
        <time>2014-10-31T15:22:18.000Z</time>
      </trkpt>
      <trkpt lat="47.48318" lon="6.76891">
        <ele>321.1</ele>
        <time>2014-10-31T15:22:19.000Z</time>
      </trkpt>
      <trkpt lat="47.48324" lon="6.76896">
        <ele>320.8</ele>
        <time>2014-10-31T15:22:20.000Z</time>
      </trkpt>
      <trkpt lat="47.48329" lon="6.76899">
        <ele>320.9</ele>
        <time>2014-10-31T15:22:21.000Z</time>
      </trkpt>
      <trkpt lat="47.48334" lon="6.76903">
        <ele>321.4</ele>
        <time>2014-10-31T15:22:22.000Z</time>
      </trkpt>
      <trkpt lat="47.48341" lon="6.76906">
        <ele>322.1</ele>
        <time>2014-10-31T15:22:23.000Z</time>
      </trkpt>
      <trkpt lat="47.48347" lon="6.76911">
        <ele>321.5</ele>
        <time>2014-10-31T15:22:24.000Z</time>
      </trkpt>
      <trkpt lat="47.48353" lon="6.76915">
        <ele>320.9</ele>
        <time>2014-10-31T15:22:25.000Z</time>
      </trkpt>
      <trkpt lat="47.48359" lon="6.76919">
        <ele>321.5</ele>
        <time>2014-10-31T15:22:26.000Z</time>
      </trkpt>
      <trkpt lat="47.48365" lon="6.76923">
        <ele>321</ele>
        <time>2014-10-31T15:22:27.000Z</time>
      </trkpt>
      <trkpt lat="47.48371" lon="6.76926">
        <ele>320.5</ele>
        <time>2014-10-31T15:22:28.000Z</time>
      </trkpt>
      <trkpt lat="47.48376" lon="6.76929">
        <ele>320.6</ele>
        <time>2014-10-31T15:22:29.000Z</time>
      </trkpt>
      <trkpt lat="47.48381" lon="6.76933">
        <ele>320.6</ele>
        <time>2014-10-31T15:22:30.000Z</time>
      </trkpt>
      <trkpt lat="47.48387" lon="6.76936">
        <ele>320.5</ele>
        <time>2014-10-31T15:22:31.000Z</time>
      </trkpt>
      <trkpt lat="47.48392" lon="6.7694">
        <ele>319.7</ele>
        <time>2014-10-31T15:22:32.000Z</time>
      </trkpt>
      <trkpt lat="47.48397" lon="6.76943">
        <ele>319.4</ele>
        <time>2014-10-31T15:22:33.000Z</time>
      </trkpt>
      <trkpt lat="47.48403" lon="6.76947">
        <ele>319.8</ele>
        <time>2014-10-31T15:22:34.000Z</time>
      </trkpt>
      <trkpt lat="47.48408" lon="6.76951">
        <ele>319.8</ele>
        <time>2014-10-31T15:22:35.000Z</time>
      </trkpt>
      <trkpt lat="47.48414" lon="6.76953">
        <ele>320.4</ele>
        <time>2014-10-31T15:22:36.000Z</time>
      </trkpt>
      <trkpt lat="47.4842" lon="6.76956">
        <ele>320.5</ele>
        <time>2014-10-31T15:22:37.000Z</time>
      </trkpt>
      <trkpt lat="47.48426" lon="6.76959">
        <ele>320.6</ele>
        <time>2014-10-31T15:22:38.000Z</time>
      </trkpt>
      <trkpt lat="47.48432" lon="6.76961">
        <ele>320.3</ele>
        <time>2014-10-31T15:22:39.000Z</time>
      </trkpt>
      <trkpt lat="47.48438" lon="6.76965">
        <ele>320.4</ele>
        <time>2014-10-31T15:22:40.000Z</time>
      </trkpt>
      <trkpt lat="47.48443" lon="6.76968">
        <ele>320.4</ele>
        <time>2014-10-31T15:22:41.000Z</time>
      </trkpt>
      <trkpt lat="47.48449" lon="6.76972">
        <ele>319.8</ele>
        <time>2014-10-31T15:22:42.000Z</time>
      </trkpt>
      <trkpt lat="47.48454" lon="6.76977">
        <ele>320.4</ele>
        <time>2014-10-31T15:22:43.000Z</time>
      </trkpt>
      <trkpt lat="47.4846" lon="6.76981">
        <ele>320.4</ele>
        <time>2014-10-31T15:22:44.000Z</time>
      </trkpt>
      <trkpt lat="47.48465" lon="6.76985">
        <ele>321.1</ele>
        <time>2014-10-31T15:22:45.000Z</time>
      </trkpt>
      <trkpt lat="47.48471" lon="6.76988">
        <ele>320.9</ele>
        <time>2014-10-31T15:22:46.000Z</time>
      </trkpt>
      <trkpt lat="47.48476" lon="6.76992">
        <ele>320.8</ele>
        <time>2014-10-31T15:22:47.000Z</time>
      </trkpt>
      <trkpt lat="47.48482" lon="6.76996">
        <ele>320.2</ele>
        <time>2014-10-31T15:22:48.000Z</time>
      </trkpt>
      <trkpt lat="47.48487" lon="6.76999">
        <ele>320.8</ele>
        <time>2014-10-31T15:22:49.000Z</time>
      </trkpt>
      <trkpt lat="47.48492" lon="6.77003">
        <ele>320.5</ele>
        <time>2014-10-31T15:22:50.000Z</time>
      </trkpt>
      <trkpt lat="47.48498" lon="6.77006">
        <ele>319.8</ele>
        <time>2014-10-31T15:22:51.000Z</time>
      </trkpt>
      <trkpt lat="47.48504" lon="6.77009">
        <ele>319</ele>
        <time>2014-10-31T15:22:52.000Z</time>
      </trkpt>
      <trkpt lat="47.48509" lon="6.77012">
        <ele>319.1</ele>
        <time>2014-10-31T15:22:53.000Z</time>
      </trkpt>
      <trkpt lat="47.48547" lon="6.77041">
        <ele>318.1</ele>
        <time>2014-10-31T15:23:01.000Z</time>
      </trkpt>
      <trkpt lat="47.48552" lon="6.77043">
        <ele>318.3</ele>
        <time>2014-10-31T15:23:02.000Z</time>
      </trkpt>
      <trkpt lat="47.48556" lon="6.77045">
        <ele>318.1</ele>
        <time>2014-10-31T15:23:03.000Z</time>
      </trkpt>
      <trkpt lat="47.48559" lon="6.77046">
        <ele>318.7</ele>
        <time>2014-10-31T15:23:04.000Z</time>
      </trkpt>
      <trkpt lat="47.48561" lon="6.77043">
        <ele>318.7</ele>
        <time>2014-10-31T15:23:05.000Z</time>
      </trkpt>
      <trkpt lat="47.48565" lon="6.77047">
        <ele>320.6</ele>
        <time>2014-10-31T15:23:06.000Z</time>
      </trkpt>
      <trkpt lat="47.4857" lon="6.77052">
        <ele>320.9</ele>
        <time>2014-10-31T15:23:07.000Z</time>
      </trkpt>
      <trkpt lat="47.48576" lon="6.77054">
        <ele>320.9</ele>
        <time>2014-10-31T15:23:08.000Z</time>
      </trkpt>
      <trkpt lat="47.48581" lon="6.77055">
        <ele>320.7</ele>
        <time>2014-10-31T15:23:09.000Z</time>
      </trkpt>
      <trkpt lat="47.48586" lon="6.77058">
        <ele>320.6</ele>
        <time>2014-10-31T15:23:10.000Z</time>
      </trkpt>
      <trkpt lat="47.48591" lon="6.77061">
        <ele>319.8</ele>
        <time>2014-10-31T15:23:11.000Z</time>
      </trkpt>
      <trkpt lat="47.48597" lon="6.77065">
        <ele>319.1</ele>
        <time>2014-10-31T15:23:12.000Z</time>
      </trkpt>
      <trkpt lat="47.48602" lon="6.7707">
        <ele>319.3</ele>
        <time>2014-10-31T15:23:13.000Z</time>
      </trkpt>
      <trkpt lat="47.48606" lon="6.77072">
        <ele>319.2</ele>
        <time>2014-10-31T15:23:14.000Z</time>
      </trkpt>
      <trkpt lat="47.48611" lon="6.77075">
        <ele>320.2</ele>
        <time>2014-10-31T15:23:15.000Z</time>
      </trkpt>
      <trkpt lat="47.48615" lon="6.77079">
        <ele>321.1</ele>
        <time>2014-10-31T15:23:16.000Z</time>
      </trkpt>
      <trkpt lat="47.48619" lon="6.7708">
        <ele>322.6</ele>
        <time>2014-10-31T15:23:17.000Z</time>
      </trkpt>
      <trkpt lat="47.48624" lon="6.77083">
        <ele>322</ele>
        <time>2014-10-31T15:23:18.000Z</time>
      </trkpt>
      <trkpt lat="47.48628" lon="6.77088">
        <ele>322.1</ele>
        <time>2014-10-31T15:23:19.000Z</time>
      </trkpt>
      <trkpt lat="47.48633" lon="6.77092">
        <ele>321.9</ele>
        <time>2014-10-31T15:23:20.000Z</time>
      </trkpt>
      <trkpt lat="47.48638" lon="6.77098">
        <ele>320.8</ele>
        <time>2014-10-31T15:23:21.000Z</time>
      </trkpt>
      <trkpt lat="47.48644" lon="6.77104">
        <ele>320.8</ele>
        <time>2014-10-31T15:23:22.000Z</time>
      </trkpt>
      <trkpt lat="47.48649" lon="6.7711">
        <ele>320.5</ele>
        <time>2014-10-31T15:23:23.000Z</time>
      </trkpt>
      <trkpt lat="47.48655" lon="6.77114">
        <ele>321.3</ele>
        <time>2014-10-31T15:23:24.000Z</time>
      </trkpt>
      <trkpt lat="47.48658" lon="6.77119">
        <ele>321</ele>
        <time>2014-10-31T15:23:25.000Z</time>
      </trkpt>
      <trkpt lat="47.48663" lon="6.77125">
        <ele>320.9</ele>
        <time>2014-10-31T15:23:26.000Z</time>
      </trkpt>
      <trkpt lat="47.48668" lon="6.77129">
        <ele>320.3</ele>
        <time>2014-10-31T15:23:27.000Z</time>
      </trkpt>
      <trkpt lat="47.48673" lon="6.77135">
        <ele>320.4</ele>
        <time>2014-10-31T15:23:28.000Z</time>
      </trkpt>
      <trkpt lat="47.48678" lon="6.7714">
        <ele>321</ele>
        <time>2014-10-31T15:23:29.000Z</time>
      </trkpt>
      <trkpt lat="47.48683" lon="6.77145">
        <ele>320.8</ele>
        <time>2014-10-31T15:23:30.000Z</time>
      </trkpt>
      <trkpt lat="47.48687" lon="6.77152">
        <ele>320.8</ele>
        <time>2014-10-31T15:23:31.000Z</time>
      </trkpt>
      <trkpt lat="47.48692" lon="6.77157">
        <ele>321.1</ele>
        <time>2014-10-31T15:23:32.000Z</time>
      </trkpt>
      <trkpt lat="47.48697" lon="6.77162">
        <ele>321</ele>
        <time>2014-10-31T15:23:33.000Z</time>
      </trkpt>
      <trkpt lat="47.48702" lon="6.77166">
        <ele>320.8</ele>
        <time>2014-10-31T15:23:34.000Z</time>
      </trkpt>
      <trkpt lat="47.48707" lon="6.77169">
        <ele>320.4</ele>
        <time>2014-10-31T15:23:35.000Z</time>
      </trkpt>
      <trkpt lat="47.48713" lon="6.77174">
        <ele>320.3</ele>
        <time>2014-10-31T15:23:36.000Z</time>
      </trkpt>
      <trkpt lat="47.48718" lon="6.77178">
        <ele>319.7</ele>
        <time>2014-10-31T15:23:37.000Z</time>
      </trkpt>
      <trkpt lat="47.48723" lon="6.77181">
        <ele>319.9</ele>
        <time>2014-10-31T15:23:38.000Z</time>
      </trkpt>
      <trkpt lat="47.48728" lon="6.77185">
        <ele>320.1</ele>
        <time>2014-10-31T15:23:39.000Z</time>
      </trkpt>
      <trkpt lat="47.48733" lon="6.77189">
        <ele>320</ele>
        <time>2014-10-31T15:23:40.000Z</time>
      </trkpt>
      <trkpt lat="47.48738" lon="6.77191">
        <ele>318.9</ele>
        <time>2014-10-31T15:23:41.000Z</time>
      </trkpt>
      <trkpt lat="47.48743" lon="6.77195">
        <ele>318.6</ele>
        <time>2014-10-31T15:23:42.000Z</time>
      </trkpt>
      <trkpt lat="47.48748" lon="6.77199">
        <ele>319.1</ele>
        <time>2014-10-31T15:23:43.000Z</time>
      </trkpt>
      <trkpt lat="47.48754" lon="6.77203">
        <ele>319.4</ele>
        <time>2014-10-31T15:23:44.000Z</time>
      </trkpt>
      <trkpt lat="47.4876" lon="6.77207">
        <ele>319.4</ele>
        <time>2014-10-31T15:23:45.000Z</time>
      </trkpt>
      <trkpt lat="47.48765" lon="6.77212">
        <ele>319</ele>
        <time>2014-10-31T15:23:46.000Z</time>
      </trkpt>
      <trkpt lat="47.4877" lon="6.77215">
        <ele>318.7</ele>
        <time>2014-10-31T15:23:47.000Z</time>
      </trkpt>
      <trkpt lat="47.48775" lon="6.77219">
        <ele>318.5</ele>
        <time>2014-10-31T15:23:48.000Z</time>
      </trkpt>
      <trkpt lat="47.4878" lon="6.77223">
        <ele>318.2</ele>
        <time>2014-10-31T15:23:49.000Z</time>
      </trkpt>
      <trkpt lat="47.48785" lon="6.77226">
        <ele>318.2</ele>
        <time>2014-10-31T15:23:50.000Z</time>
      </trkpt>
      <trkpt lat="47.4879" lon="6.77231">
        <ele>318.5</ele>
        <time>2014-10-31T15:23:51.000Z</time>
      </trkpt>
      <trkpt lat="47.48795" lon="6.77236">
        <ele>318.2</ele>
        <time>2014-10-31T15:23:52.000Z</time>
      </trkpt>
      <trkpt lat="47.48799" lon="6.7724">
        <ele>317.8</ele>
        <time>2014-10-31T15:23:53.000Z</time>
      </trkpt>
      <trkpt lat="47.48812" lon="6.7725">
        <ele>318</ele>
        <time>2014-10-31T15:23:56.000Z</time>
      </trkpt>
      <trkpt lat="47.48817" lon="6.77254">
        <ele>318.4</ele>
        <time>2014-10-31T15:23:57.000Z</time>
      </trkpt>
      <trkpt lat="47.48822" lon="6.77257">
        <ele>319.9</ele>
        <time>2014-10-31T15:23:58.000Z</time>
      </trkpt>
      <trkpt lat="47.48826" lon="6.77263">
        <ele>318.9</ele>
        <time>2014-10-31T15:23:59.000Z</time>
      </trkpt>
      <trkpt lat="47.48831" lon="6.77267">
        <ele>318.7</ele>
        <time>2014-10-31T15:24:00.000Z</time>
      </trkpt>
      <trkpt lat="47.48838" lon="6.7727">
        <ele>319.6</ele>
        <time>2014-10-31T15:24:01.000Z</time>
      </trkpt>
      <trkpt lat="47.48843" lon="6.77274">
        <ele>320.2</ele>
        <time>2014-10-31T15:24:02.000Z</time>
      </trkpt>
      <trkpt lat="47.48849" lon="6.77276">
        <ele>321</ele>
        <time>2014-10-31T15:24:03.000Z</time>
      </trkpt>
      <trkpt lat="47.48855" lon="6.77279">
        <ele>321.3</ele>
        <time>2014-10-31T15:24:04.000Z</time>
      </trkpt>
      <trkpt lat="47.48861" lon="6.77281">
        <ele>321.1</ele>
        <time>2014-10-31T15:24:05.000Z</time>
      </trkpt>
      <trkpt lat="47.48866" lon="6.77284">
        <ele>321.2</ele>
        <time>2014-10-31T15:24:06.000Z</time>
      </trkpt>
      <trkpt lat="47.48872" lon="6.77285">
        <ele>321.1</ele>
        <time>2014-10-31T15:24:07.000Z</time>
      </trkpt>
      <trkpt lat="47.48877" lon="6.77287">
        <ele>320.9</ele>
        <time>2014-10-31T15:24:08.000Z</time>
      </trkpt>
      <trkpt lat="47.48883" lon="6.77289">
        <ele>320.2</ele>
        <time>2014-10-31T15:24:09.000Z</time>
      </trkpt>
      <trkpt lat="47.48888" lon="6.77291">
        <ele>320.3</ele>
        <time>2014-10-31T15:24:10.000Z</time>
      </trkpt>
      <trkpt lat="47.48894" lon="6.77291">
        <ele>319.4</ele>
        <time>2014-10-31T15:24:11.000Z</time>
      </trkpt>
      <trkpt lat="47.489" lon="6.77294">
        <ele>319.7</ele>
        <time>2014-10-31T15:24:12.000Z</time>
      </trkpt>
      <trkpt lat="47.48905" lon="6.77296">
        <ele>319.6</ele>
        <time>2014-10-31T15:24:13.000Z</time>
      </trkpt>
      <trkpt lat="47.48909" lon="6.77298">
        <ele>319.3</ele>
        <time>2014-10-31T15:24:14.000Z</time>
      </trkpt>
      <trkpt lat="47.48915" lon="6.773">
        <ele>316.9</ele>
        <time>2014-10-31T15:24:15.000Z</time>
      </trkpt>
      <trkpt lat="47.48921" lon="6.77302">
        <ele>317.2</ele>
        <time>2014-10-31T15:24:16.000Z</time>
      </trkpt>
      <trkpt lat="47.48926" lon="6.77304">
        <ele>317.5</ele>
        <time>2014-10-31T15:24:17.000Z</time>
      </trkpt>
      <trkpt lat="47.48931" lon="6.77306">
        <ele>318.1</ele>
        <time>2014-10-31T15:24:18.000Z</time>
      </trkpt>
      <trkpt lat="47.48936" lon="6.77308">
        <ele>316.9</ele>
        <time>2014-10-31T15:24:19.000Z</time>
      </trkpt>
      <trkpt lat="47.48942" lon="6.7731">
        <ele>318.3</ele>
        <time>2014-10-31T15:24:20.000Z</time>
      </trkpt>
      <trkpt lat="47.48947" lon="6.77311">
        <ele>319.6</ele>
        <time>2014-10-31T15:24:21.000Z</time>
      </trkpt>
      <trkpt lat="47.48953" lon="6.77313">
        <ele>319.4</ele>
        <time>2014-10-31T15:24:22.000Z</time>
      </trkpt>
      <trkpt lat="47.48959" lon="6.77315">
        <ele>319.9</ele>
        <time>2014-10-31T15:24:23.000Z</time>
      </trkpt>
      <trkpt lat="47.48965" lon="6.77316">
        <ele>319.6</ele>
        <time>2014-10-31T15:24:24.000Z</time>
      </trkpt>
      <trkpt lat="47.4897" lon="6.77316">
        <ele>319.3</ele>
        <time>2014-10-31T15:24:25.000Z</time>
      </trkpt>
      <trkpt lat="47.48976" lon="6.77316">
        <ele>319</ele>
        <time>2014-10-31T15:24:26.000Z</time>
      </trkpt>
      <trkpt lat="47.48981" lon="6.77317">
        <ele>318.1</ele>
        <time>2014-10-31T15:24:27.000Z</time>
      </trkpt>
      <trkpt lat="47.48986" lon="6.77316">
        <ele>318.3</ele>
        <time>2014-10-31T15:24:28.000Z</time>
      </trkpt>
      <trkpt lat="47.48991" lon="6.77316">
        <ele>317.7</ele>
        <time>2014-10-31T15:24:29.000Z</time>
      </trkpt>
      <trkpt lat="47.48997" lon="6.77316">
        <ele>318.1</ele>
        <time>2014-10-31T15:24:30.000Z</time>
      </trkpt>
      <trkpt lat="47.49002" lon="6.77317">
        <ele>318.2</ele>
        <time>2014-10-31T15:24:31.000Z</time>
      </trkpt>
      <trkpt lat="47.49007" lon="6.77317">
        <ele>318.6</ele>
        <time>2014-10-31T15:24:32.000Z</time>
      </trkpt>
      <trkpt lat="47.49012" lon="6.77317">
        <ele>318.6</ele>
        <time>2014-10-31T15:24:33.000Z</time>
      </trkpt>
      <trkpt lat="47.49018" lon="6.77318">
        <ele>318.8</ele>
        <time>2014-10-31T15:24:34.000Z</time>
      </trkpt>
      <trkpt lat="47.49023" lon="6.77318">
        <ele>318.8</ele>
        <time>2014-10-31T15:24:35.000Z</time>
      </trkpt>
      <trkpt lat="47.49029" lon="6.77318">
        <ele>319.3</ele>
        <time>2014-10-31T15:24:36.000Z</time>
      </trkpt>
      <trkpt lat="47.49034" lon="6.77319">
        <ele>318.9</ele>
        <time>2014-10-31T15:24:37.000Z</time>
      </trkpt>
      <trkpt lat="47.4904" lon="6.7732">
        <ele>319.2</ele>
        <time>2014-10-31T15:24:38.000Z</time>
      </trkpt>
      <trkpt lat="47.49045" lon="6.77321">
        <ele>319.2</ele>
        <time>2014-10-31T15:24:39.000Z</time>
      </trkpt>
      <trkpt lat="47.49051" lon="6.77322">
        <ele>318.6</ele>
        <time>2014-10-31T15:24:40.000Z</time>
      </trkpt>
      <trkpt lat="47.49056" lon="6.77323">
        <ele>318.7</ele>
        <time>2014-10-31T15:24:41.000Z</time>
      </trkpt>
      <trkpt lat="47.49062" lon="6.77323">
        <ele>318.8</ele>
        <time>2014-10-31T15:24:42.000Z</time>
      </trkpt>
      <trkpt lat="47.49067" lon="6.77324">
        <ele>318.5</ele>
        <time>2014-10-31T15:24:43.000Z</time>
      </trkpt>
      <trkpt lat="47.49072" lon="6.77326">
        <ele>318.6</ele>
        <time>2014-10-31T15:24:44.000Z</time>
      </trkpt>
      <trkpt lat="47.49078" lon="6.77326">
        <ele>319.2</ele>
        <time>2014-10-31T15:24:45.000Z</time>
      </trkpt>
      <trkpt lat="47.49082" lon="6.77326">
        <ele>319.3</ele>
        <time>2014-10-31T15:24:46.000Z</time>
      </trkpt>
      <trkpt lat="47.49087" lon="6.77327">
        <ele>319.3</ele>
        <time>2014-10-31T15:24:47.000Z</time>
      </trkpt>
      <trkpt lat="47.49092" lon="6.77328">
        <ele>319.6</ele>
        <time>2014-10-31T15:24:48.000Z</time>
      </trkpt>
      <trkpt lat="47.49098" lon="6.77328">
        <ele>318.8</ele>
        <time>2014-10-31T15:24:49.000Z</time>
      </trkpt>
      <trkpt lat="47.49103" lon="6.77327">
        <ele>319</ele>
        <time>2014-10-31T15:24:50.000Z</time>
      </trkpt>
      <trkpt lat="47.49109" lon="6.77326">
        <ele>318.8</ele>
        <time>2014-10-31T15:24:51.000Z</time>
      </trkpt>
      <trkpt lat="47.49115" lon="6.77328">
        <ele>318.5</ele>
        <time>2014-10-31T15:24:52.000Z</time>
      </trkpt>
      <trkpt lat="47.49129" lon="6.77329">
        <ele>318.1</ele>
        <time>2014-10-31T15:24:55.000Z</time>
      </trkpt>
      <trkpt lat="47.49136" lon="6.77331">
        <ele>318.2</ele>
        <time>2014-10-31T15:24:56.000Z</time>
      </trkpt>
      <trkpt lat="47.49143" lon="6.7733">
        <ele>318.4</ele>
        <time>2014-10-31T15:24:57.000Z</time>
      </trkpt>
      <trkpt lat="47.49147" lon="6.77331">
        <ele>317.9</ele>
        <time>2014-10-31T15:24:58.000Z</time>
      </trkpt>
      <trkpt lat="47.49152" lon="6.77331">
        <ele>317.5</ele>
        <time>2014-10-31T15:24:59.000Z</time>
      </trkpt>
      <trkpt lat="47.49157" lon="6.77332">
        <ele>316.6</ele>
        <time>2014-10-31T15:25:00.000Z</time>
      </trkpt>
      <trkpt lat="47.49162" lon="6.77332">
        <ele>317.5</ele>
        <time>2014-10-31T15:25:01.000Z</time>
      </trkpt>
      <trkpt lat="47.49168" lon="6.77332">
        <ele>318.4</ele>
        <time>2014-10-31T15:25:02.000Z</time>
      </trkpt>
      <trkpt lat="47.49174" lon="6.77332">
        <ele>316.8</ele>
        <time>2014-10-31T15:25:03.000Z</time>
      </trkpt>
      <trkpt lat="47.4918" lon="6.77333">
        <ele>316.7</ele>
        <time>2014-10-31T15:25:04.000Z</time>
      </trkpt>
      <trkpt lat="47.49185" lon="6.77334">
        <ele>317.2</ele>
        <time>2014-10-31T15:25:05.000Z</time>
      </trkpt>
      <trkpt lat="47.49191" lon="6.77334">
        <ele>318.4</ele>
        <time>2014-10-31T15:25:06.000Z</time>
      </trkpt>
      <trkpt lat="47.49196" lon="6.77335">
        <ele>318.6</ele>
        <time>2014-10-31T15:25:07.000Z</time>
      </trkpt>
      <trkpt lat="47.49201" lon="6.77334">
        <ele>317.9</ele>
        <time>2014-10-31T15:25:08.000Z</time>
      </trkpt>
      <trkpt lat="47.49206" lon="6.77335">
        <ele>317.5</ele>
        <time>2014-10-31T15:25:09.000Z</time>
      </trkpt>
      <trkpt lat="47.49211" lon="6.77336">
        <ele>318</ele>
        <time>2014-10-31T15:25:10.000Z</time>
      </trkpt>
      <trkpt lat="47.49217" lon="6.77337">
        <ele>318.8</ele>
        <time>2014-10-31T15:25:11.000Z</time>
      </trkpt>
      <trkpt lat="47.49223" lon="6.77337">
        <ele>318.1</ele>
        <time>2014-10-31T15:25:12.000Z</time>
      </trkpt>
      <trkpt lat="47.49227" lon="6.77337">
        <ele>317.9</ele>
        <time>2014-10-31T15:25:13.000Z</time>
      </trkpt>
      <trkpt lat="47.49232" lon="6.77338">
        <ele>318</ele>
        <time>2014-10-31T15:25:14.000Z</time>
      </trkpt>
      <trkpt lat="47.49238" lon="6.77338">
        <ele>318.3</ele>
        <time>2014-10-31T15:25:15.000Z</time>
      </trkpt>
      <trkpt lat="47.49244" lon="6.77337">
        <ele>318.8</ele>
        <time>2014-10-31T15:25:16.000Z</time>
      </trkpt>
      <trkpt lat="47.49249" lon="6.77333">
        <ele>318.5</ele>
        <time>2014-10-31T15:25:17.000Z</time>
      </trkpt>
      <trkpt lat="47.49253" lon="6.7733">
        <ele>318.1</ele>
        <time>2014-10-31T15:25:18.000Z</time>
      </trkpt>
      <trkpt lat="47.49259" lon="6.77327">
        <ele>317.9</ele>
        <time>2014-10-31T15:25:19.000Z</time>
      </trkpt>
      <trkpt lat="47.49265" lon="6.77327">
        <ele>316.4</ele>
        <time>2014-10-31T15:25:20.000Z</time>
      </trkpt>
      <trkpt lat="47.4927" lon="6.77327">
        <ele>316.2</ele>
        <time>2014-10-31T15:25:21.000Z</time>
      </trkpt>
      <trkpt lat="47.49277" lon="6.77326">
        <ele>316</ele>
        <time>2014-10-31T15:25:22.000Z</time>
      </trkpt>
      <trkpt lat="47.49283" lon="6.77326">
        <ele>315.5</ele>
        <time>2014-10-31T15:25:23.000Z</time>
      </trkpt>
      <trkpt lat="47.4929" lon="6.77327">
        <ele>315.2</ele>
        <time>2014-10-31T15:25:24.000Z</time>
      </trkpt>
      <trkpt lat="47.49297" lon="6.77326">
        <ele>315.9</ele>
        <time>2014-10-31T15:25:25.000Z</time>
      </trkpt>
      <trkpt lat="47.49303" lon="6.77327">
        <ele>315.6</ele>
        <time>2014-10-31T15:25:26.000Z</time>
      </trkpt>
      <trkpt lat="47.49307" lon="6.77327">
        <ele>315.5</ele>
        <time>2014-10-31T15:25:27.000Z</time>
      </trkpt>
      <trkpt lat="47.49315" lon="6.77327">
        <ele>316.2</ele>
        <time>2014-10-31T15:25:28.000Z</time>
      </trkpt>
      <trkpt lat="47.49319" lon="6.77328">
        <ele>314.9</ele>
        <time>2014-10-31T15:25:29.000Z</time>
      </trkpt>
      <trkpt lat="47.49324" lon="6.77331">
        <ele>315.6</ele>
        <time>2014-10-31T15:25:30.000Z</time>
      </trkpt>
      <trkpt lat="47.49328" lon="6.77335">
        <ele>316.1</ele>
        <time>2014-10-31T15:25:31.000Z</time>
      </trkpt>
      <trkpt lat="47.49332" lon="6.77338">
        <ele>315.1</ele>
        <time>2014-10-31T15:25:32.000Z</time>
      </trkpt>
      <trkpt lat="47.49337" lon="6.77342">
        <ele>315.3</ele>
        <time>2014-10-31T15:25:33.000Z</time>
      </trkpt>
      <trkpt lat="47.49343" lon="6.77342">
        <ele>315.2</ele>
        <time>2014-10-31T15:25:34.000Z</time>
      </trkpt>
      <trkpt lat="47.49347" lon="6.77343">
        <ele>316.6</ele>
        <time>2014-10-31T15:25:35.000Z</time>
      </trkpt>
      <trkpt lat="47.49352" lon="6.77344">
        <ele>317.4</ele>
        <time>2014-10-31T15:25:36.000Z</time>
      </trkpt>
      <trkpt lat="47.49358" lon="6.77344">
        <ele>317.3</ele>
        <time>2014-10-31T15:25:37.000Z</time>
      </trkpt>
      <trkpt lat="47.49362" lon="6.77343">
        <ele>317.5</ele>
        <time>2014-10-31T15:25:38.000Z</time>
      </trkpt>
      <trkpt lat="47.49368" lon="6.77345">
        <ele>317.1</ele>
        <time>2014-10-31T15:25:39.000Z</time>
      </trkpt>
      <trkpt lat="47.49374" lon="6.77345">
        <ele>317.1</ele>
        <time>2014-10-31T15:25:40.000Z</time>
      </trkpt>
      <trkpt lat="47.49379" lon="6.77346">
        <ele>316.3</ele>
        <time>2014-10-31T15:25:41.000Z</time>
      </trkpt>
      <trkpt lat="47.49384" lon="6.77347">
        <ele>315.7</ele>
        <time>2014-10-31T15:25:42.000Z</time>
      </trkpt>
      <trkpt lat="47.49389" lon="6.77347">
        <ele>316.5</ele>
        <time>2014-10-31T15:25:43.000Z</time>
      </trkpt>
      <trkpt lat="47.49395" lon="6.77346">
        <ele>315.5</ele>
        <time>2014-10-31T15:25:44.000Z</time>
      </trkpt>
      <trkpt lat="47.494" lon="6.77346">
        <ele>315.3</ele>
        <time>2014-10-31T15:25:45.000Z</time>
      </trkpt>
      <trkpt lat="47.49406" lon="6.77346">
        <ele>316</ele>
        <time>2014-10-31T15:25:46.000Z</time>
      </trkpt>
      <trkpt lat="47.49411" lon="6.77346">
        <ele>315.5</ele>
        <time>2014-10-31T15:25:47.000Z</time>
      </trkpt>
      <trkpt lat="47.49416" lon="6.77347">
        <ele>314.8</ele>
        <time>2014-10-31T15:25:48.000Z</time>
      </trkpt>
      <trkpt lat="47.49422" lon="6.77347">
        <ele>314.3</ele>
        <time>2014-10-31T15:25:49.000Z</time>
      </trkpt>
      <trkpt lat="47.49427" lon="6.77348">
        <ele>314.2</ele>
        <time>2014-10-31T15:25:50.000Z</time>
      </trkpt>
      <trkpt lat="47.49432" lon="6.77349">
        <ele>314.2</ele>
        <time>2014-10-31T15:25:51.000Z</time>
      </trkpt>
      <trkpt lat="47.49437" lon="6.7735">
        <ele>313.6</ele>
        <time>2014-10-31T15:25:52.000Z</time>
      </trkpt>
      <trkpt lat="47.49452" lon="6.77352">
        <ele>313.5</ele>
        <time>2014-10-31T15:25:55.000Z</time>
      </trkpt>
      <trkpt lat="47.49457" lon="6.77353">
        <ele>313.3</ele>
        <time>2014-10-31T15:25:56.000Z</time>
      </trkpt>
      <trkpt lat="47.49463" lon="6.77354">
        <ele>313.6</ele>
        <time>2014-10-31T15:25:57.000Z</time>
      </trkpt>
      <trkpt lat="47.49467" lon="6.77354">
        <ele>312.4</ele>
        <time>2014-10-31T15:25:58.000Z</time>
      </trkpt>
      <trkpt lat="47.49473" lon="6.77353">
        <ele>312.9</ele>
        <time>2014-10-31T15:25:59.000Z</time>
      </trkpt>
      <trkpt lat="47.49479" lon="6.77354">
        <ele>313.6</ele>
        <time>2014-10-31T15:26:00.000Z</time>
      </trkpt>
      <trkpt lat="47.49484" lon="6.77355">
        <ele>313.2</ele>
        <time>2014-10-31T15:26:01.000Z</time>
      </trkpt>
      <trkpt lat="47.49489" lon="6.77355">
        <ele>313.9</ele>
        <time>2014-10-31T15:26:02.000Z</time>
      </trkpt>
      <trkpt lat="47.49495" lon="6.77355">
        <ele>313.6</ele>
        <time>2014-10-31T15:26:03.000Z</time>
      </trkpt>
      <trkpt lat="47.49501" lon="6.77356">
        <ele>313.6</ele>
        <time>2014-10-31T15:26:04.000Z</time>
      </trkpt>
      <trkpt lat="47.49507" lon="6.77356">
        <ele>314.1</ele>
        <time>2014-10-31T15:26:05.000Z</time>
      </trkpt>
      <trkpt lat="47.49512" lon="6.77356">
        <ele>314.4</ele>
        <time>2014-10-31T15:26:06.000Z</time>
      </trkpt>
      <trkpt lat="47.49518" lon="6.77356">
        <ele>313.5</ele>
        <time>2014-10-31T15:26:07.000Z</time>
      </trkpt>
      <trkpt lat="47.49523" lon="6.77356">
        <ele>312.8</ele>
        <time>2014-10-31T15:26:08.000Z</time>
      </trkpt>
      <trkpt lat="47.49528" lon="6.77356">
        <ele>312</ele>
        <time>2014-10-31T15:26:09.000Z</time>
      </trkpt>
      <trkpt lat="47.49532" lon="6.77356">
        <ele>312</ele>
        <time>2014-10-31T15:26:10.000Z</time>
      </trkpt>
      <trkpt lat="47.49538" lon="6.77357">
        <ele>311.7</ele>
        <time>2014-10-31T15:26:11.000Z</time>
      </trkpt>
      <trkpt lat="47.49542" lon="6.77357">
        <ele>310.1</ele>
        <time>2014-10-31T15:26:12.000Z</time>
      </trkpt>
      <trkpt lat="47.49546" lon="6.77357">
        <ele>309.9</ele>
        <time>2014-10-31T15:26:13.000Z</time>
      </trkpt>
      <trkpt lat="47.49551" lon="6.77358">
        <ele>310.6</ele>
        <time>2014-10-31T15:26:14.000Z</time>
      </trkpt>
      <trkpt lat="47.49555" lon="6.77358">
        <ele>311</ele>
        <time>2014-10-31T15:26:15.000Z</time>
      </trkpt>
      <trkpt lat="47.49561" lon="6.7736">
        <ele>312.4</ele>
        <time>2014-10-31T15:26:16.000Z</time>
      </trkpt>
      <trkpt lat="47.49566" lon="6.7736">
        <ele>312.4</ele>
        <time>2014-10-31T15:26:17.000Z</time>
      </trkpt>
      <trkpt lat="47.49571" lon="6.7736">
        <ele>313.1</ele>
        <time>2014-10-31T15:26:18.000Z</time>
      </trkpt>
      <trkpt lat="47.49576" lon="6.7736">
        <ele>313.9</ele>
        <time>2014-10-31T15:26:19.000Z</time>
      </trkpt>
      <trkpt lat="47.49582" lon="6.77358">
        <ele>313.6</ele>
        <time>2014-10-31T15:26:20.000Z</time>
      </trkpt>
      <trkpt lat="47.49587" lon="6.77357">
        <ele>313.7</ele>
        <time>2014-10-31T15:26:21.000Z</time>
      </trkpt>
      <trkpt lat="47.49593" lon="6.77356">
        <ele>314.7</ele>
        <time>2014-10-31T15:26:22.000Z</time>
      </trkpt>
      <trkpt lat="47.49598" lon="6.77356">
        <ele>315.4</ele>
        <time>2014-10-31T15:26:23.000Z</time>
      </trkpt>
      <trkpt lat="47.49604" lon="6.77355">
        <ele>315.6</ele>
        <time>2014-10-31T15:26:24.000Z</time>
      </trkpt>
      <trkpt lat="47.49609" lon="6.77353">
        <ele>314.8</ele>
        <time>2014-10-31T15:26:25.000Z</time>
      </trkpt>
      <trkpt lat="47.49614" lon="6.77352">
        <ele>315.1</ele>
        <time>2014-10-31T15:26:26.000Z</time>
      </trkpt>
      <trkpt lat="47.4962" lon="6.77352">
        <ele>315.6</ele>
        <time>2014-10-31T15:26:27.000Z</time>
      </trkpt>
      <trkpt lat="47.49626" lon="6.7735">
        <ele>314.9</ele>
        <time>2014-10-31T15:26:28.000Z</time>
      </trkpt>
      <trkpt lat="47.49631" lon="6.7735">
        <ele>315.4</ele>
        <time>2014-10-31T15:26:29.000Z</time>
      </trkpt>
      <trkpt lat="47.49636" lon="6.77349">
        <ele>315.8</ele>
        <time>2014-10-31T15:26:30.000Z</time>
      </trkpt>
      <trkpt lat="47.49642" lon="6.77348">
        <ele>317.2</ele>
        <time>2014-10-31T15:26:31.000Z</time>
      </trkpt>
      <trkpt lat="47.49647" lon="6.77346">
        <ele>317.8</ele>
        <time>2014-10-31T15:26:32.000Z</time>
      </trkpt>
      <trkpt lat="47.49652" lon="6.77344">
        <ele>318.6</ele>
        <time>2014-10-31T15:26:33.000Z</time>
      </trkpt>
      <trkpt lat="47.49658" lon="6.77343">
        <ele>319.1</ele>
        <time>2014-10-31T15:26:34.000Z</time>
      </trkpt>
      <trkpt lat="47.49663" lon="6.77342">
        <ele>318.6</ele>
        <time>2014-10-31T15:26:35.000Z</time>
      </trkpt>
      <trkpt lat="47.49669" lon="6.77341">
        <ele>318.9</ele>
        <time>2014-10-31T15:26:36.000Z</time>
      </trkpt>
      <trkpt lat="47.49673" lon="6.77339">
        <ele>318.9</ele>
        <time>2014-10-31T15:26:37.000Z</time>
      </trkpt>
      <trkpt lat="47.49679" lon="6.77338">
        <ele>318.9</ele>
        <time>2014-10-31T15:26:38.000Z</time>
      </trkpt>
      <trkpt lat="47.49684" lon="6.77337">
        <ele>318.8</ele>
        <time>2014-10-31T15:26:38.999Z</time>
      </trkpt>
      <trkpt lat="47.49689" lon="6.77335">
        <ele>319.3</ele>
        <time>2014-10-31T15:26:40.000Z</time>
      </trkpt>
      <trkpt lat="47.49694" lon="6.77335">
        <ele>318.8</ele>
        <time>2014-10-31T15:26:41.000Z</time>
      </trkpt>
      <trkpt lat="47.49699" lon="6.77335">
        <ele>319.4</ele>
        <time>2014-10-31T15:26:42.000Z</time>
      </trkpt>
      <trkpt lat="47.49704" lon="6.77333">
        <ele>320.1</ele>
        <time>2014-10-31T15:26:43.000Z</time>
      </trkpt>
      <trkpt lat="47.49708" lon="6.77333">
        <ele>320.9</ele>
        <time>2014-10-31T15:26:44.000Z</time>
      </trkpt>
      <trkpt lat="47.49713" lon="6.77332">
        <ele>321.5</ele>
        <time>2014-10-31T15:26:45.000Z</time>
      </trkpt>
      <trkpt lat="47.49718" lon="6.77332">
        <ele>320.7</ele>
        <time>2014-10-31T15:26:46.000Z</time>
      </trkpt>
      <trkpt lat="47.49722" lon="6.7733">
        <ele>320.7</ele>
        <time>2014-10-31T15:26:47.000Z</time>
      </trkpt>
      <trkpt lat="47.49726" lon="6.77329">
        <ele>320.5</ele>
        <time>2014-10-31T15:26:48.000Z</time>
      </trkpt>
      <trkpt lat="47.49729" lon="6.77326">
        <ele>320.1</ele>
        <time>2014-10-31T15:26:49.000Z</time>
      </trkpt>
      <trkpt lat="47.49733" lon="6.77325">
        <ele>319.9</ele>
        <time>2014-10-31T15:26:50.000Z</time>
      </trkpt>
      <trkpt lat="47.49737" lon="6.77323">
        <ele>319</ele>
        <time>2014-10-31T15:26:51.000Z</time>
      </trkpt>
      <trkpt lat="47.49739" lon="6.77323">
        <ele>319.7</ele>
        <time>2014-10-31T15:26:52.000Z</time>
      </trkpt>
      <trkpt lat="47.49738" lon="6.77316">
        <ele>322.4</ele>
        <time>2014-10-31T15:31:23.000Z</time>
      </trkpt>
      <trkpt lat="47.49739" lon="6.77315">
        <ele>323.9</ele>
        <time>2014-10-31T15:31:24.000Z</time>
      </trkpt>
      <trkpt lat="47.49743" lon="6.77312">
        <ele>324.7</ele>
        <time>2014-10-31T15:31:26.000Z</time>
      </trkpt>
      <trkpt lat="47.49745" lon="6.77311">
        <ele>325.7</ele>
        <time>2014-10-31T15:31:27.000Z</time>
      </trkpt>
      <trkpt lat="47.49748" lon="6.7731">
        <ele>327</ele>
        <time>2014-10-31T15:31:28.000Z</time>
      </trkpt>
      <trkpt lat="47.49751" lon="6.77309">
        <ele>327.5</ele>
        <time>2014-10-31T15:31:29.000Z</time>
      </trkpt>
      <trkpt lat="47.49755" lon="6.77307">
        <ele>326</ele>
        <time>2014-10-31T15:31:30.000Z</time>
      </trkpt>
      <trkpt lat="47.49759" lon="6.77307">
        <ele>325.6</ele>
        <time>2014-10-31T15:31:31.000Z</time>
      </trkpt>
      <trkpt lat="47.49764" lon="6.77306">
        <ele>325.7</ele>
        <time>2014-10-31T15:31:32.000Z</time>
      </trkpt>
      <trkpt lat="47.49769" lon="6.77306">
        <ele>326</ele>
        <time>2014-10-31T15:31:33.000Z</time>
      </trkpt>
      <trkpt lat="47.49777" lon="6.77307">
        <ele>329.5</ele>
        <time>2014-10-31T15:31:34.000Z</time>
      </trkpt>
      <trkpt lat="47.49782" lon="6.77307">
        <ele>331.1</ele>
        <time>2014-10-31T15:31:35.000Z</time>
      </trkpt>
      <trkpt lat="47.49788" lon="6.77305">
        <ele>331.1</ele>
        <time>2014-10-31T15:31:36.000Z</time>
      </trkpt>
      <trkpt lat="47.49794" lon="6.77304">
        <ele>329.8</ele>
        <time>2014-10-31T15:31:37.000Z</time>
      </trkpt>
      <trkpt lat="47.49799" lon="6.77304">
        <ele>329.8</ele>
        <time>2014-10-31T15:31:38.000Z</time>
      </trkpt>
      <trkpt lat="47.49804" lon="6.77303">
        <ele>329.9</ele>
        <time>2014-10-31T15:31:39.000Z</time>
      </trkpt>
      <trkpt lat="47.4981" lon="6.77302">
        <ele>329.7</ele>
        <time>2014-10-31T15:31:40.000Z</time>
      </trkpt>
      <trkpt lat="47.49815" lon="6.77301">
        <ele>329.9</ele>
        <time>2014-10-31T15:31:41.000Z</time>
      </trkpt>
      <trkpt lat="47.49822" lon="6.773">
        <ele>331.3</ele>
        <time>2014-10-31T15:31:42.000Z</time>
      </trkpt>
      <trkpt lat="47.49828" lon="6.77298">
        <ele>332.9</ele>
        <time>2014-10-31T15:31:43.000Z</time>
      </trkpt>
      <trkpt lat="47.49835" lon="6.77295">
        <ele>332.8</ele>
        <time>2014-10-31T15:31:44.000Z</time>
      </trkpt>
      <trkpt lat="47.49844" lon="6.77296">
        <ele>331.4</ele>
        <time>2014-10-31T15:31:45.000Z</time>
      </trkpt>
      <trkpt lat="47.49849" lon="6.77295">
        <ele>331.2</ele>
        <time>2014-10-31T15:31:46.000Z</time>
      </trkpt>
      <trkpt lat="47.49855" lon="6.77296">
        <ele>330.8</ele>
        <time>2014-10-31T15:31:47.000Z</time>
      </trkpt>
      <trkpt lat="47.49861" lon="6.77296">
        <ele>330.9</ele>
        <time>2014-10-31T15:31:47.999Z</time>
      </trkpt>
      <trkpt lat="47.49867" lon="6.77296">
        <ele>331.1</ele>
        <time>2014-10-31T15:31:49.000Z</time>
      </trkpt>
      <trkpt lat="47.49873" lon="6.77293">
        <ele>329.7</ele>
        <time>2014-10-31T15:31:50.000Z</time>
      </trkpt>
      <trkpt lat="47.4988" lon="6.77293">
        <ele>328.8</ele>
        <time>2014-10-31T15:31:51.000Z</time>
      </trkpt>
      <trkpt lat="47.49885" lon="6.77291">
        <ele>328</ele>
        <time>2014-10-31T15:31:52.000Z</time>
      </trkpt>
      <trkpt lat="47.4989" lon="6.7729">
        <ele>327.7</ele>
        <time>2014-10-31T15:31:53.000Z</time>
      </trkpt>
      <trkpt lat="47.49929" lon="6.77271">
        <ele>328.9</ele>
        <time>2014-10-31T15:32:01.000Z</time>
      </trkpt>
      <trkpt lat="47.49934" lon="6.77267">
        <ele>328.7</ele>
        <time>2014-10-31T15:32:02.000Z</time>
      </trkpt>
      <trkpt lat="47.4994" lon="6.77262">
        <ele>328.1</ele>
        <time>2014-10-31T15:32:03.000Z</time>
      </trkpt>
      <trkpt lat="47.49946" lon="6.77259">
        <ele>327.5</ele>
        <time>2014-10-31T15:32:04.000Z</time>
      </trkpt>
      <trkpt lat="47.49951" lon="6.77257">
        <ele>326.8</ele>
        <time>2014-10-31T15:32:05.000Z</time>
      </trkpt>
      <trkpt lat="47.49955" lon="6.77253">
        <ele>326</ele>
        <time>2014-10-31T15:32:06.000Z</time>
      </trkpt>
      <trkpt lat="47.49961" lon="6.77252">
        <ele>325.8</ele>
        <time>2014-10-31T15:32:07.000Z</time>
      </trkpt>
      <trkpt lat="47.49966" lon="6.77249">
        <ele>323.7</ele>
        <time>2014-10-31T15:32:08.000Z</time>
      </trkpt>
      <trkpt lat="47.49971" lon="6.77247">
        <ele>321.9</ele>
        <time>2014-10-31T15:32:09.000Z</time>
      </trkpt>
      <trkpt lat="47.49977" lon="6.77244">
        <ele>321.1</ele>
        <time>2014-10-31T15:32:10.000Z</time>
      </trkpt>
      <trkpt lat="47.49981" lon="6.77243">
        <ele>321.9</ele>
        <time>2014-10-31T15:32:11.000Z</time>
      </trkpt>
      <trkpt lat="47.49985" lon="6.77241">
        <ele>323.4</ele>
        <time>2014-10-31T15:32:12.000Z</time>
      </trkpt>
      <trkpt lat="47.49989" lon="6.77238">
        <ele>324.7</ele>
        <time>2014-10-31T15:32:13.000Z</time>
      </trkpt>
      <trkpt lat="47.49994" lon="6.77235">
        <ele>324.2</ele>
        <time>2014-10-31T15:32:14.000Z</time>
      </trkpt>
      <trkpt lat="47.49999" lon="6.77234">
        <ele>324.9</ele>
        <time>2014-10-31T15:32:15.000Z</time>
      </trkpt>
      <trkpt lat="47.50003" lon="6.77232">
        <ele>325.4</ele>
        <time>2014-10-31T15:32:16.000Z</time>
      </trkpt>
      <trkpt lat="47.50006" lon="6.77231">
        <ele>325</ele>
        <time>2014-10-31T15:32:17.000Z</time>
      </trkpt>
      <trkpt lat="47.50009" lon="6.77228">
        <ele>325.8</ele>
        <time>2014-10-31T15:32:18.000Z</time>
      </trkpt>
      <trkpt lat="47.50012" lon="6.77226">
        <ele>327</ele>
        <time>2014-10-31T15:32:19.000Z</time>
      </trkpt>
      <trkpt lat="47.50016" lon="6.77223">
        <ele>323.3</ele>
        <time>2014-10-31T15:32:20.000Z</time>
      </trkpt>
      <trkpt lat="47.5002" lon="6.77221">
        <ele>322</ele>
        <time>2014-10-31T15:32:21.000Z</time>
      </trkpt>
      <trkpt lat="47.50024" lon="6.77219">
        <ele>320.2</ele>
        <time>2014-10-31T15:32:22.000Z</time>
      </trkpt>
      <trkpt lat="47.50028" lon="6.77217">
        <ele>319.8</ele>
        <time>2014-10-31T15:32:23.000Z</time>
      </trkpt>
      <trkpt lat="47.50032" lon="6.77214">
        <ele>319.8</ele>
        <time>2014-10-31T15:32:24.000Z</time>
      </trkpt>
      <trkpt lat="47.50039" lon="6.77213">
        <ele>319.5</ele>
        <time>2014-10-31T15:32:25.000Z</time>
      </trkpt>
      <trkpt lat="47.50043" lon="6.77213">
        <ele>320.6</ele>
        <time>2014-10-31T15:32:26.000Z</time>
      </trkpt>
      <trkpt lat="47.50048" lon="6.77213">
        <ele>320.8</ele>
        <time>2014-10-31T15:32:27.000Z</time>
      </trkpt>
      <trkpt lat="47.50053" lon="6.77211">
        <ele>320.1</ele>
        <time>2014-10-31T15:32:28.000Z</time>
      </trkpt>
      <trkpt lat="47.50059" lon="6.7721">
        <ele>318.5</ele>
        <time>2014-10-31T15:32:29.000Z</time>
      </trkpt>
      <trkpt lat="47.50066" lon="6.77207">
        <ele>317.3</ele>
        <time>2014-10-31T15:32:30.000Z</time>
      </trkpt>
      <trkpt lat="47.50071" lon="6.77204">
        <ele>317.2</ele>
        <time>2014-10-31T15:32:31.000Z</time>
      </trkpt>
      <trkpt lat="47.50076" lon="6.77203">
        <ele>317.2</ele>
        <time>2014-10-31T15:32:31.999Z</time>
      </trkpt>
      <trkpt lat="47.50082" lon="6.772">
        <ele>317.7</ele>
        <time>2014-10-31T15:32:33.000Z</time>
      </trkpt>
      <trkpt lat="47.50087" lon="6.77197">
        <ele>317.3</ele>
        <time>2014-10-31T15:32:34.000Z</time>
      </trkpt>
      <trkpt lat="47.50092" lon="6.77196">
        <ele>316.7</ele>
        <time>2014-10-31T15:32:35.000Z</time>
      </trkpt>
      <trkpt lat="47.50098" lon="6.77195">
        <ele>316.9</ele>
        <time>2014-10-31T15:32:36.000Z</time>
      </trkpt>
      <trkpt lat="47.50102" lon="6.77195">
        <ele>316.8</ele>
        <time>2014-10-31T15:32:37.000Z</time>
      </trkpt>
      <trkpt lat="47.50107" lon="6.77195">
        <ele>316.8</ele>
        <time>2014-10-31T15:32:38.000Z</time>
      </trkpt>
      <trkpt lat="47.50113" lon="6.77194">
        <ele>316.3</ele>
        <time>2014-10-31T15:32:39.000Z</time>
      </trkpt>
      <trkpt lat="47.50118" lon="6.77194">
        <ele>314.6</ele>
        <time>2014-10-31T15:32:40.000Z</time>
      </trkpt>
      <trkpt lat="47.50125" lon="6.77194">
        <ele>314.6</ele>
        <time>2014-10-31T15:32:41.000Z</time>
      </trkpt>
      <trkpt lat="47.50131" lon="6.77195">
        <ele>315</ele>
        <time>2014-10-31T15:32:42.000Z</time>
      </trkpt>
      <trkpt lat="47.50136" lon="6.77197">
        <ele>314.4</ele>
        <time>2014-10-31T15:32:43.000Z</time>
      </trkpt>
      <trkpt lat="47.50144" lon="6.77201">
        <ele>312.1</ele>
        <time>2014-10-31T15:32:44.000Z</time>
      </trkpt>
      <trkpt lat="47.50149" lon="6.77207">
        <ele>313</ele>
        <time>2014-10-31T15:32:45.000Z</time>
      </trkpt>
      <trkpt lat="47.50154" lon="6.77211">
        <ele>313.6</ele>
        <time>2014-10-31T15:32:46.000Z</time>
      </trkpt>
      <trkpt lat="47.50159" lon="6.77216">
        <ele>313.1</ele>
        <time>2014-10-31T15:32:47.000Z</time>
      </trkpt>
      <trkpt lat="47.50165" lon="6.7722">
        <ele>312.7</ele>
        <time>2014-10-31T15:32:48.000Z</time>
      </trkpt>
      <trkpt lat="47.50171" lon="6.77225">
        <ele>312.9</ele>
        <time>2014-10-31T15:32:49.000Z</time>
      </trkpt>
      <trkpt lat="47.50177" lon="6.7723">
        <ele>313</ele>
        <time>2014-10-31T15:32:50.000Z</time>
      </trkpt>
      <trkpt lat="47.50183" lon="6.77235">
        <ele>313.1</ele>
        <time>2014-10-31T15:32:51.000Z</time>
      </trkpt>
      <trkpt lat="47.50188" lon="6.7724">
        <ele>313.4</ele>
        <time>2014-10-31T15:32:52.000Z</time>
      </trkpt>
      <trkpt lat="47.50202" lon="6.77253">
        <ele>315</ele>
        <time>2014-10-31T15:32:55.000Z</time>
      </trkpt>
      <trkpt lat="47.50207" lon="6.77257">
        <ele>315.8</ele>
        <time>2014-10-31T15:32:56.000Z</time>
      </trkpt>
      <trkpt lat="47.50214" lon="6.77261">
        <ele>315.9</ele>
        <time>2014-10-31T15:32:57.000Z</time>
      </trkpt>
      <trkpt lat="47.50218" lon="6.77265">
        <ele>316</ele>
        <time>2014-10-31T15:32:58.000Z</time>
      </trkpt>
      <trkpt lat="47.50222" lon="6.77268">
        <ele>316.6</ele>
        <time>2014-10-31T15:32:59.000Z</time>
      </trkpt>
      <trkpt lat="47.50227" lon="6.7727">
        <ele>317.7</ele>
        <time>2014-10-31T15:33:00.000Z</time>
      </trkpt>
      <trkpt lat="47.50231" lon="6.77274">
        <ele>318</ele>
        <time>2014-10-31T15:33:01.000Z</time>
      </trkpt>
      <trkpt lat="47.50235" lon="6.77276">
        <ele>319.1</ele>
        <time>2014-10-31T15:33:02.000Z</time>
      </trkpt>
      <trkpt lat="47.50239" lon="6.77278">
        <ele>318.5</ele>
        <time>2014-10-31T15:33:03.000Z</time>
      </trkpt>
      <trkpt lat="47.50242" lon="6.7728">
        <ele>319</ele>
        <time>2014-10-31T15:33:04.000Z</time>
      </trkpt>
      <trkpt lat="47.50246" lon="6.77283">
        <ele>319.1</ele>
        <time>2014-10-31T15:33:05.000Z</time>
      </trkpt>
      <trkpt lat="47.50248" lon="6.77284">
        <ele>319.7</ele>
        <time>2014-10-31T15:33:06.000Z</time>
      </trkpt>
      <trkpt lat="47.50251" lon="6.77285">
        <ele>320.2</ele>
        <time>2014-10-31T15:33:07.000Z</time>
      </trkpt>
      <trkpt lat="47.50255" lon="6.77287">
        <ele>320.5</ele>
        <time>2014-10-31T15:33:08.000Z</time>
      </trkpt>
      <trkpt lat="47.50258" lon="6.77289">
        <ele>320.5</ele>
        <time>2014-10-31T15:33:09.000Z</time>
      </trkpt>
      <trkpt lat="47.50262" lon="6.77291">
        <ele>320.1</ele>
        <time>2014-10-31T15:33:10.000Z</time>
      </trkpt>
      <trkpt lat="47.50265" lon="6.77294">
        <ele>319.9</ele>
        <time>2014-10-31T15:33:11.000Z</time>
      </trkpt>
      <trkpt lat="47.50269" lon="6.77297">
        <ele>320.9</ele>
        <time>2014-10-31T15:33:12.000Z</time>
      </trkpt>
      <trkpt lat="47.50273" lon="6.773">
        <ele>321</ele>
        <time>2014-10-31T15:33:13.000Z</time>
      </trkpt>
      <trkpt lat="47.50277" lon="6.77303">
        <ele>320.7</ele>
        <time>2014-10-31T15:33:14.000Z</time>
      </trkpt>
      <trkpt lat="47.50281" lon="6.77306">
        <ele>321.5</ele>
        <time>2014-10-31T15:33:15.000Z</time>
      </trkpt>
      <trkpt lat="47.50285" lon="6.7731">
        <ele>321.5</ele>
        <time>2014-10-31T15:33:16.000Z</time>
      </trkpt>
      <trkpt lat="47.50288" lon="6.77313">
        <ele>321.9</ele>
        <time>2014-10-31T15:33:17.000Z</time>
      </trkpt>
      <trkpt lat="47.50292" lon="6.77315">
        <ele>322.5</ele>
        <time>2014-10-31T15:33:18.000Z</time>
      </trkpt>
      <trkpt lat="47.50296" lon="6.77318">
        <ele>321.6</ele>
        <time>2014-10-31T15:33:19.000Z</time>
      </trkpt>
      <trkpt lat="47.503" lon="6.77321">
        <ele>321.9</ele>
        <time>2014-10-31T15:33:20.000Z</time>
      </trkpt>
      <trkpt lat="47.50304" lon="6.77327">
        <ele>321.1</ele>
        <time>2014-10-31T15:33:21.000Z</time>
      </trkpt>
      <trkpt lat="47.50307" lon="6.77329">
        <ele>321.3</ele>
        <time>2014-10-31T15:33:22.000Z</time>
      </trkpt>
      <trkpt lat="47.5031" lon="6.77333">
        <ele>321.2</ele>
        <time>2014-10-31T15:33:23.000Z</time>
      </trkpt>
      <trkpt lat="47.50314" lon="6.77336">
        <ele>321.5</ele>
        <time>2014-10-31T15:33:24.000Z</time>
      </trkpt>
      <trkpt lat="47.50318" lon="6.77339">
        <ele>322.1</ele>
        <time>2014-10-31T15:33:25.000Z</time>
      </trkpt>
      <trkpt lat="47.50321" lon="6.77342">
        <ele>322.2</ele>
        <time>2014-10-31T15:33:26.000Z</time>
      </trkpt>
      <trkpt lat="47.50325" lon="6.77344">
        <ele>321.8</ele>
        <time>2014-10-31T15:33:27.000Z</time>
      </trkpt>
      <trkpt lat="47.50328" lon="6.77347">
        <ele>321.6</ele>
        <time>2014-10-31T15:33:28.000Z</time>
      </trkpt>
      <trkpt lat="47.50332" lon="6.7735">
        <ele>321.3</ele>
        <time>2014-10-31T15:33:29.000Z</time>
      </trkpt>
      <trkpt lat="47.50335" lon="6.77354">
        <ele>321.5</ele>
        <time>2014-10-31T15:33:30.000Z</time>
      </trkpt>
      <trkpt lat="47.50338" lon="6.77357">
        <ele>321.3</ele>
        <time>2014-10-31T15:33:31.000Z</time>
      </trkpt>
      <trkpt lat="47.50343" lon="6.7736">
        <ele>321.3</ele>
        <time>2014-10-31T15:33:32.000Z</time>
      </trkpt>
      <trkpt lat="47.50348" lon="6.77363">
        <ele>321.6</ele>
        <time>2014-10-31T15:33:33.000Z</time>
      </trkpt>
      <trkpt lat="47.50353" lon="6.77366">
        <ele>321.7</ele>
        <time>2014-10-31T15:33:34.000Z</time>
      </trkpt>
      <trkpt lat="47.50357" lon="6.77369">
        <ele>322.1</ele>
        <time>2014-10-31T15:33:35.000Z</time>
      </trkpt>
      <trkpt lat="47.50362" lon="6.77374">
        <ele>322.3</ele>
        <time>2014-10-31T15:33:36.000Z</time>
      </trkpt>
      <trkpt lat="47.50367" lon="6.77378">
        <ele>321.9</ele>
        <time>2014-10-31T15:33:37.000Z</time>
      </trkpt>
      <trkpt lat="47.50372" lon="6.77382">
        <ele>321.5</ele>
        <time>2014-10-31T15:33:38.000Z</time>
      </trkpt>
      <trkpt lat="47.50378" lon="6.77386">
        <ele>321.8</ele>
        <time>2014-10-31T15:33:39.000Z</time>
      </trkpt>
      <trkpt lat="47.50383" lon="6.7739">
        <ele>322.3</ele>
        <time>2014-10-31T15:33:40.000Z</time>
      </trkpt>
      <trkpt lat="47.50387" lon="6.77394">
        <ele>322.3</ele>
        <time>2014-10-31T15:33:41.000Z</time>
      </trkpt>
      <trkpt lat="47.50393" lon="6.77397">
        <ele>321.5</ele>
        <time>2014-10-31T15:33:42.000Z</time>
      </trkpt>
      <trkpt lat="47.50398" lon="6.77401">
        <ele>321.9</ele>
        <time>2014-10-31T15:33:43.000Z</time>
      </trkpt>
      <trkpt lat="47.50403" lon="6.77405">
        <ele>321.5</ele>
        <time>2014-10-31T15:33:44.000Z</time>
      </trkpt>
      <trkpt lat="47.50408" lon="6.7741">
        <ele>321.9</ele>
        <time>2014-10-31T15:33:45.000Z</time>
      </trkpt>
      <trkpt lat="47.50413" lon="6.77413">
        <ele>322.1</ele>
        <time>2014-10-31T15:33:46.000Z</time>
      </trkpt>
      <trkpt lat="47.50417" lon="6.77418">
        <ele>322.1</ele>
        <time>2014-10-31T15:33:47.000Z</time>
      </trkpt>
      <trkpt lat="47.50421" lon="6.77422">
        <ele>321.7</ele>
        <time>2014-10-31T15:33:48.000Z</time>
      </trkpt>
      <trkpt lat="47.50427" lon="6.77429">
        <ele>322.3</ele>
        <time>2014-10-31T15:33:49.000Z</time>
      </trkpt>
      <trkpt lat="47.50432" lon="6.77432">
        <ele>322.4</ele>
        <time>2014-10-31T15:33:50.000Z</time>
      </trkpt>
      <trkpt lat="47.50436" lon="6.77437">
        <ele>322.4</ele>
        <time>2014-10-31T15:33:51.000Z</time>
      </trkpt>
      <trkpt lat="47.50441" lon="6.77441">
        <ele>322.4</ele>
        <time>2014-10-31T15:33:52.000Z</time>
      </trkpt>
      <trkpt lat="47.50452" lon="6.77455">
        <ele>322.8</ele>
        <time>2014-10-31T15:33:55.000Z</time>
      </trkpt>
      <trkpt lat="47.50457" lon="6.7746">
        <ele>323.1</ele>
        <time>2014-10-31T15:33:56.000Z</time>
      </trkpt>
      <trkpt lat="47.50462" lon="6.77464">
        <ele>323.4</ele>
        <time>2014-10-31T15:33:57.000Z</time>
      </trkpt>
      <trkpt lat="47.50466" lon="6.77468">
        <ele>324.7</ele>
        <time>2014-10-31T15:33:58.000Z</time>
      </trkpt>
      <trkpt lat="47.5047" lon="6.7747">
        <ele>324.4</ele>
        <time>2014-10-31T15:33:59.000Z</time>
      </trkpt>
      <trkpt lat="47.50474" lon="6.77473">
        <ele>324.9</ele>
        <time>2014-10-31T15:34:00.000Z</time>
      </trkpt>
      <trkpt lat="47.50479" lon="6.77478">
        <ele>323.6</ele>
        <time>2014-10-31T15:34:01.000Z</time>
      </trkpt>
      <trkpt lat="47.50484" lon="6.77482">
        <ele>324.1</ele>
        <time>2014-10-31T15:34:02.000Z</time>
      </trkpt>
      <trkpt lat="47.50489" lon="6.77484">
        <ele>325.3</ele>
        <time>2014-10-31T15:34:03.000Z</time>
      </trkpt>
      <trkpt lat="47.50494" lon="6.7749">
        <ele>325.3</ele>
        <time>2014-10-31T15:34:04.000Z</time>
      </trkpt>
      <trkpt lat="47.505" lon="6.77491">
        <ele>325.1</ele>
        <time>2014-10-31T15:34:05.000Z</time>
      </trkpt>
      <trkpt lat="47.50503" lon="6.77495">
        <ele>325.3</ele>
        <time>2014-10-31T15:34:06.000Z</time>
      </trkpt>
      <trkpt lat="47.50509" lon="6.77497">
        <ele>323.7</ele>
        <time>2014-10-31T15:34:07.000Z</time>
      </trkpt>
      <trkpt lat="47.50515" lon="6.77502">
        <ele>323.8</ele>
        <time>2014-10-31T15:34:08.000Z</time>
      </trkpt>
      <trkpt lat="47.50521" lon="6.77505">
        <ele>324.1</ele>
        <time>2014-10-31T15:34:09.000Z</time>
      </trkpt>
      <trkpt lat="47.50526" lon="6.77509">
        <ele>323.9</ele>
        <time>2014-10-31T15:34:10.000Z</time>
      </trkpt>
      <trkpt lat="47.50533" lon="6.77513">
        <ele>323.8</ele>
        <time>2014-10-31T15:34:11.000Z</time>
      </trkpt>
      <trkpt lat="47.50537" lon="6.77516">
        <ele>323.5</ele>
        <time>2014-10-31T15:34:12.000Z</time>
      </trkpt>
      <trkpt lat="47.50542" lon="6.7752">
        <ele>323.6</ele>
        <time>2014-10-31T15:34:13.000Z</time>
      </trkpt>
      <trkpt lat="47.50546" lon="6.77523">
        <ele>322.6</ele>
        <time>2014-10-31T15:34:14.000Z</time>
      </trkpt>
      <trkpt lat="47.50549" lon="6.77529">
        <ele>321.5</ele>
        <time>2014-10-31T15:34:15.000Z</time>
      </trkpt>
      <trkpt lat="47.50551" lon="6.77536">
        <ele>320.1</ele>
        <time>2014-10-31T15:34:16.000Z</time>
      </trkpt>
      <trkpt lat="47.50554" lon="6.77542">
        <ele>319.1</ele>
        <time>2014-10-31T15:34:17.000Z</time>
      </trkpt>
      <trkpt lat="47.50558" lon="6.77547">
        <ele>318.8</ele>
        <time>2014-10-31T15:34:18.000Z</time>
      </trkpt>
      <trkpt lat="47.50563" lon="6.77549">
        <ele>320.5</ele>
        <time>2014-10-31T15:34:19.000Z</time>
      </trkpt>
      <trkpt lat="47.50567" lon="6.77551">
        <ele>321.7</ele>
        <time>2014-10-31T15:34:20.000Z</time>
      </trkpt>
      <trkpt lat="47.50572" lon="6.77549">
        <ele>321.7</ele>
        <time>2014-10-31T15:34:21.000Z</time>
      </trkpt>
      <trkpt lat="47.50577" lon="6.77545">
        <ele>321.7</ele>
        <time>2014-10-31T15:34:22.000Z</time>
      </trkpt>
      <trkpt lat="47.50581" lon="6.7754">
        <ele>322.5</ele>
        <time>2014-10-31T15:34:23.000Z</time>
      </trkpt>
      <trkpt lat="47.50584" lon="6.77535">
        <ele>321.7</ele>
        <time>2014-10-31T15:34:24.000Z</time>
      </trkpt>
      <trkpt lat="47.50585" lon="6.77533">
        <ele>321.1</ele>
        <time>2014-10-31T15:34:25.000Z</time>
      </trkpt>
      <trkpt lat="47.50588" lon="6.7753">
        <ele>321</ele>
        <time>2014-10-31T15:34:26.000Z</time>
      </trkpt>
      <trkpt lat="47.50595" lon="6.77532">
        <ele>322.1</ele>
        <time>2014-10-31T15:34:27.000Z</time>
      </trkpt>
      <trkpt lat="47.506" lon="6.77532">
        <ele>322.6</ele>
        <time>2014-10-31T15:34:28.000Z</time>
      </trkpt>
      <trkpt lat="47.50605" lon="6.77531">
        <ele>323</ele>
        <time>2014-10-31T15:34:29.000Z</time>
      </trkpt>
      <trkpt lat="47.5061" lon="6.77533">
        <ele>323.4</ele>
        <time>2014-10-31T15:34:30.000Z</time>
      </trkpt>
      <trkpt lat="47.50616" lon="6.77534">
        <ele>321.9</ele>
        <time>2014-10-31T15:34:31.000Z</time>
      </trkpt>
      <trkpt lat="47.50621" lon="6.77534">
        <ele>320.7</ele>
        <time>2014-10-31T15:34:32.000Z</time>
      </trkpt>
      <trkpt lat="47.50627" lon="6.77536">
        <ele>320.3</ele>
        <time>2014-10-31T15:34:33.000Z</time>
      </trkpt>
      <trkpt lat="47.5063" lon="6.77535">
        <ele>320.7</ele>
        <time>2014-10-31T15:34:34.000Z</time>
      </trkpt>
      <trkpt lat="47.50634" lon="6.77535">
        <ele>321.7</ele>
        <time>2014-10-31T15:34:35.000Z</time>
      </trkpt>
      <trkpt lat="47.5064" lon="6.77537">
        <ele>320.7</ele>
        <time>2014-10-31T15:34:36.000Z</time>
      </trkpt>
      <trkpt lat="47.50645" lon="6.77537">
        <ele>321.3</ele>
        <time>2014-10-31T15:34:37.000Z</time>
      </trkpt>
      <trkpt lat="47.5065" lon="6.77536">
        <ele>321.6</ele>
        <time>2014-10-31T15:34:38.000Z</time>
      </trkpt>
      <trkpt lat="47.50655" lon="6.77536">
        <ele>321.8</ele>
        <time>2014-10-31T15:34:39.000Z</time>
      </trkpt>
      <trkpt lat="47.5066" lon="6.77536">
        <ele>321.3</ele>
        <time>2014-10-31T15:34:40.000Z</time>
      </trkpt>
      <trkpt lat="47.50665" lon="6.77533">
        <ele>322</ele>
        <time>2014-10-31T15:34:41.000Z</time>
      </trkpt>
      <trkpt lat="47.50669" lon="6.77531">
        <ele>323.6</ele>
        <time>2014-10-31T15:34:42.000Z</time>
      </trkpt>
      <trkpt lat="47.50675" lon="6.7753">
        <ele>322.9</ele>
        <time>2014-10-31T15:34:43.000Z</time>
      </trkpt>
      <trkpt lat="47.50682" lon="6.77529">
        <ele>322.2</ele>
        <time>2014-10-31T15:34:44.000Z</time>
      </trkpt>
      <trkpt lat="47.50687" lon="6.77528">
        <ele>322.5</ele>
        <time>2014-10-31T15:34:45.000Z</time>
      </trkpt>
      <trkpt lat="47.50693" lon="6.7753">
        <ele>322.3</ele>
        <time>2014-10-31T15:34:46.000Z</time>
      </trkpt>
      <trkpt lat="47.50699" lon="6.77531">
        <ele>322</ele>
        <time>2014-10-31T15:34:47.000Z</time>
      </trkpt>
      <trkpt lat="47.50704" lon="6.77534">
        <ele>321.3</ele>
        <time>2014-10-31T15:34:48.000Z</time>
      </trkpt>
      <trkpt lat="47.5071" lon="6.77536">
        <ele>321.2</ele>
        <time>2014-10-31T15:34:49.000Z</time>
      </trkpt>
      <trkpt lat="47.50715" lon="6.77538">
        <ele>320.7</ele>
        <time>2014-10-31T15:34:50.000Z</time>
      </trkpt>
      <trkpt lat="47.50721" lon="6.77542">
        <ele>320.7</ele>
        <time>2014-10-31T15:34:51.000Z</time>
      </trkpt>
      <trkpt lat="47.50726" lon="6.77546">
        <ele>320</ele>
        <time>2014-10-31T15:34:52.000Z</time>
      </trkpt>
      <trkpt lat="47.5074" lon="6.77555">
        <ele>319.4</ele>
        <time>2014-10-31T15:34:55.000Z</time>
      </trkpt>
      <trkpt lat="47.50745" lon="6.77559">
        <ele>319.6</ele>
        <time>2014-10-31T15:34:56.000Z</time>
      </trkpt>
      <trkpt lat="47.5075" lon="6.77564">
        <ele>318.8</ele>
        <time>2014-10-31T15:34:57.000Z</time>
      </trkpt>
      <trkpt lat="47.50756" lon="6.7757">
        <ele>317.7</ele>
        <time>2014-10-31T15:34:58.000Z</time>
      </trkpt>
      <trkpt lat="47.5076" lon="6.77574">
        <ele>317</ele>
        <time>2014-10-31T15:34:58.999Z</time>
      </trkpt>
      <trkpt lat="47.50763" lon="6.77572">
        <ele>318.3</ele>
        <time>2014-10-31T15:35:00.000Z</time>
      </trkpt>
      <trkpt lat="47.5077" lon="6.7758">
        <ele>314.8</ele>
        <time>2014-10-31T15:35:01.000Z</time>
      </trkpt>
      <trkpt lat="47.50776" lon="6.77587">
        <ele>315.2</ele>
        <time>2014-10-31T15:35:02.000Z</time>
      </trkpt>
      <trkpt lat="47.50781" lon="6.7759">
        <ele>315.7</ele>
        <time>2014-10-31T15:35:03.000Z</time>
      </trkpt>
      <trkpt lat="47.50786" lon="6.77595">
        <ele>315.5</ele>
        <time>2014-10-31T15:35:03.998Z</time>
      </trkpt>
      <trkpt lat="47.50792" lon="6.77594">
        <ele>319.2</ele>
        <time>2014-10-31T15:35:05.000Z</time>
      </trkpt>
      <trkpt lat="47.50797" lon="6.77597">
        <ele>320.3</ele>
        <time>2014-10-31T15:35:06.000Z</time>
      </trkpt>
      <trkpt lat="47.50801" lon="6.77601">
        <ele>320.2</ele>
        <time>2014-10-31T15:35:07.000Z</time>
      </trkpt>
      <trkpt lat="47.50806" lon="6.77605">
        <ele>320.3</ele>
        <time>2014-10-31T15:35:07.999Z</time>
      </trkpt>
      <trkpt lat="47.50812" lon="6.77607">
        <ele>320.9</ele>
        <time>2014-10-31T15:35:09.000Z</time>
      </trkpt>
      <trkpt lat="47.50817" lon="6.77611">
        <ele>320.9</ele>
        <time>2014-10-31T15:35:10.000Z</time>
      </trkpt>
      <trkpt lat="47.50821" lon="6.77617">
        <ele>320.8</ele>
        <time>2014-10-31T15:35:11.000Z</time>
      </trkpt>
      <trkpt lat="47.50825" lon="6.7762">
        <ele>321.6</ele>
        <time>2014-10-31T15:35:12.000Z</time>
      </trkpt>
      <trkpt lat="47.50829" lon="6.77625">
        <ele>321.6</ele>
        <time>2014-10-31T15:35:13.000Z</time>
      </trkpt>
      <trkpt lat="47.50833" lon="6.77633">
        <ele>321.4</ele>
        <time>2014-10-31T15:35:14.000Z</time>
      </trkpt>
      <trkpt lat="47.50839" lon="6.77636">
        <ele>320.5</ele>
        <time>2014-10-31T15:35:15.000Z</time>
      </trkpt>
      <trkpt lat="47.50845" lon="6.77642">
        <ele>320.9</ele>
        <time>2014-10-31T15:35:16.000Z</time>
      </trkpt>
      <trkpt lat="47.50849" lon="6.77648">
        <ele>321.1</ele>
        <time>2014-10-31T15:35:17.000Z</time>
      </trkpt>
      <trkpt lat="47.50852" lon="6.77654">
        <ele>322.9</ele>
        <time>2014-10-31T15:35:18.000Z</time>
      </trkpt>
      <trkpt lat="47.50856" lon="6.7766">
        <ele>322.6</ele>
        <time>2014-10-31T15:35:19.000Z</time>
      </trkpt>
      <trkpt lat="47.50859" lon="6.77665">
        <ele>323</ele>
        <time>2014-10-31T15:35:20.000Z</time>
      </trkpt>
      <trkpt lat="47.50863" lon="6.77671">
        <ele>323.9</ele>
        <time>2014-10-31T15:35:21.000Z</time>
      </trkpt>
      <trkpt lat="47.50866" lon="6.77675">
        <ele>323.4</ele>
        <time>2014-10-31T15:35:22.000Z</time>
      </trkpt>
      <trkpt lat="47.50867" lon="6.77679">
        <ele>324.7</ele>
        <time>2014-10-31T15:35:23.000Z</time>
      </trkpt>
      <trkpt lat="47.50871" lon="6.77687">
        <ele>325.2</ele>
        <time>2014-10-31T15:35:24.000Z</time>
      </trkpt>
      <trkpt lat="47.50873" lon="6.77692">
        <ele>324.3</ele>
        <time>2014-10-31T15:35:25.000Z</time>
      </trkpt>
      <trkpt lat="47.50877" lon="6.77695">
        <ele>324.8</ele>
        <time>2014-10-31T15:35:26.000Z</time>
      </trkpt>
      <trkpt lat="47.50881" lon="6.77697">
        <ele>324.2</ele>
        <time>2014-10-31T15:35:27.000Z</time>
      </trkpt>
      <trkpt lat="47.50887" lon="6.77698">
        <ele>324.1</ele>
        <time>2014-10-31T15:35:28.000Z</time>
      </trkpt>
      <trkpt lat="47.50893" lon="6.77699">
        <ele>323.2</ele>
        <time>2014-10-31T15:35:29.000Z</time>
      </trkpt>
      <trkpt lat="47.50897" lon="6.77698">
        <ele>323.3</ele>
        <time>2014-10-31T15:35:30.000Z</time>
      </trkpt>
      <trkpt lat="47.50902" lon="6.77696">
        <ele>322</ele>
        <time>2014-10-31T15:35:31.000Z</time>
      </trkpt>
      <trkpt lat="47.50907" lon="6.77696">
        <ele>322</ele>
        <time>2014-10-31T15:35:32.000Z</time>
      </trkpt>
      <trkpt lat="47.50911" lon="6.77696">
        <ele>321.9</ele>
        <time>2014-10-31T15:35:33.000Z</time>
      </trkpt>
      <trkpt lat="47.50915" lon="6.77695">
        <ele>322.3</ele>
        <time>2014-10-31T15:35:34.000Z</time>
      </trkpt>
      <trkpt lat="47.50918" lon="6.77697">
        <ele>322.1</ele>
        <time>2014-10-31T15:35:35.000Z</time>
      </trkpt>
      <trkpt lat="47.50922" lon="6.77697">
        <ele>322</ele>
        <time>2014-10-31T15:35:36.000Z</time>
      </trkpt>
      <trkpt lat="47.50925" lon="6.77697">
        <ele>321.7</ele>
        <time>2014-10-31T15:35:37.000Z</time>
      </trkpt>
      <trkpt lat="47.50928" lon="6.77698">
        <ele>321.3</ele>
        <time>2014-10-31T15:35:38.000Z</time>
      </trkpt>
      <trkpt lat="47.50931" lon="6.77697">
        <ele>321</ele>
        <time>2014-10-31T15:35:39.000Z</time>
      </trkpt>
      <trkpt lat="47.50933" lon="6.77696">
        <ele>321.4</ele>
        <time>2014-10-31T15:35:40.000Z</time>
      </trkpt>
      <trkpt lat="47.50937" lon="6.77699">
        <ele>321.8</ele>
        <time>2014-10-31T15:35:41.000Z</time>
      </trkpt>
      <trkpt lat="47.50938" lon="6.77699">
        <ele>322</ele>
        <time>2014-10-31T15:35:42.000Z</time>
      </trkpt>
      <trkpt lat="47.50941" lon="6.777">
        <ele>323.2</ele>
        <time>2014-10-31T15:36:18.000Z</time>
      </trkpt>
      <trkpt lat="47.50942" lon="6.77699">
        <ele>324.6</ele>
        <time>2014-10-31T15:36:19.000Z</time>
      </trkpt>
      <trkpt lat="47.50946" lon="6.77696">
        <ele>326.3</ele>
        <time>2014-10-31T15:36:21.000Z</time>
      </trkpt>
      <trkpt lat="47.50956" lon="6.77695">
        <ele>330.1</ele>
        <time>2014-10-31T15:36:22.000Z</time>
      </trkpt>
      <trkpt lat="47.50961" lon="6.77697">
        <ele>331.4</ele>
        <time>2014-10-31T15:36:23.000Z</time>
      </trkpt>
      <trkpt lat="47.50964" lon="6.77697">
        <ele>333.6</ele>
        <time>2014-10-31T15:36:24.000Z</time>
      </trkpt>
      <trkpt lat="47.50967" lon="6.77697">
        <ele>336.5</ele>
        <time>2014-10-31T15:36:25.000Z</time>
      </trkpt>
      <trkpt lat="47.50972" lon="6.77701">
        <ele>333.1</ele>
        <time>2014-10-31T15:36:26.000Z</time>
      </trkpt>
      <trkpt lat="47.50976" lon="6.77704">
        <ele>332.3</ele>
        <time>2014-10-31T15:36:27.000Z</time>
      </trkpt>
      <trkpt lat="47.5098" lon="6.77707">
        <ele>331.7</ele>
        <time>2014-10-31T15:36:28.000Z</time>
      </trkpt>
      <trkpt lat="47.50983" lon="6.77709">
        <ele>333</ele>
        <time>2014-10-31T15:36:29.000Z</time>
      </trkpt>
      <trkpt lat="47.50987" lon="6.7771">
        <ele>334.2</ele>
        <time>2014-10-31T15:36:30.000Z</time>
      </trkpt>
      <trkpt lat="47.50991" lon="6.77712">
        <ele>335.8</ele>
        <time>2014-10-31T15:36:31.000Z</time>
      </trkpt>
      <trkpt lat="47.50994" lon="6.77714">
        <ele>335.7</ele>
        <time>2014-10-31T15:36:32.000Z</time>
      </trkpt>
      <trkpt lat="47.50998" lon="6.77716">
        <ele>334.6</ele>
        <time>2014-10-31T15:36:33.000Z</time>
      </trkpt>
      <trkpt lat="47.51001" lon="6.77719">
        <ele>333</ele>
        <time>2014-10-31T15:36:34.000Z</time>
      </trkpt>
      <trkpt lat="47.51004" lon="6.77722">
        <ele>334.3</ele>
        <time>2014-10-31T15:36:35.000Z</time>
      </trkpt>
      <trkpt lat="47.51008" lon="6.77725">
        <ele>334.4</ele>
        <time>2014-10-31T15:36:36.000Z</time>
      </trkpt>
      <trkpt lat="47.51011" lon="6.77728">
        <ele>335.5</ele>
        <time>2014-10-31T15:36:37.000Z</time>
      </trkpt>
      <trkpt lat="47.51014" lon="6.7773">
        <ele>335.7</ele>
        <time>2014-10-31T15:36:38.000Z</time>
      </trkpt>
      <trkpt lat="47.51017" lon="6.77732">
        <ele>335.5</ele>
        <time>2014-10-31T15:36:39.000Z</time>
      </trkpt>
      <trkpt lat="47.51019" lon="6.77734">
        <ele>334.4</ele>
        <time>2014-10-31T15:36:40.000Z</time>
      </trkpt>
      <trkpt lat="47.5101" lon="6.77745">
        <ele>340.5</ele>
        <time>2014-10-31T15:36:41.000Z</time>
      </trkpt>
      <trkpt lat="47.51012" lon="6.77749">
        <ele>342.6</ele>
        <time>2014-10-31T15:36:42.000Z</time>
      </trkpt>
      <trkpt lat="47.51016" lon="6.77752">
        <ele>343.2</ele>
        <time>2014-10-31T15:36:43.000Z</time>
      </trkpt>
      <trkpt lat="47.51019" lon="6.77756">
        <ele>344.3</ele>
        <time>2014-10-31T15:36:44.000Z</time>
      </trkpt>
      <trkpt lat="47.51024" lon="6.77757">
        <ele>344.3</ele>
        <time>2014-10-31T15:36:45.000Z</time>
      </trkpt>
      <trkpt lat="47.51031" lon="6.77757">
        <ele>341</ele>
        <time>2014-10-31T15:36:46.000Z</time>
      </trkpt>
      <trkpt lat="47.51039" lon="6.77757">
        <ele>338.9</ele>
        <time>2014-10-31T15:36:47.000Z</time>
      </trkpt>
      <trkpt lat="47.51042" lon="6.77758">
        <ele>338.8</ele>
        <time>2014-10-31T15:36:48.000Z</time>
      </trkpt>
      <trkpt lat="47.51046" lon="6.77762">
        <ele>335.3</ele>
        <time>2014-10-31T15:36:49.000Z</time>
      </trkpt>
      <trkpt lat="47.51049" lon="6.77764">
        <ele>336</ele>
        <time>2014-10-31T15:36:50.000Z</time>
      </trkpt>
      <trkpt lat="47.51052" lon="6.77766">
        <ele>336.9</ele>
        <time>2014-10-31T15:36:51.000Z</time>
      </trkpt>
      <trkpt lat="47.51056" lon="6.77768">
        <ele>337</ele>
        <time>2014-10-31T15:36:52.000Z</time>
      </trkpt>
      <trkpt lat="47.51067" lon="6.7777">
        <ele>337.1</ele>
        <time>2014-10-31T15:36:55.000Z</time>
      </trkpt>
      <trkpt lat="47.51071" lon="6.77771">
        <ele>336.9</ele>
        <time>2014-10-31T15:36:56.000Z</time>
      </trkpt>
      <trkpt lat="47.51076" lon="6.77774">
        <ele>338.3</ele>
        <time>2014-10-31T15:36:57.000Z</time>
      </trkpt>
      <trkpt lat="47.51079" lon="6.77775">
        <ele>338.1</ele>
        <time>2014-10-31T15:36:58.002Z</time>
      </trkpt>
      <trkpt lat="47.51084" lon="6.77777">
        <ele>339.2</ele>
        <time>2014-10-31T15:36:59.000Z</time>
      </trkpt>
      <trkpt lat="47.51088" lon="6.77779">
        <ele>338.9</ele>
        <time>2014-10-31T15:37:00.000Z</time>
      </trkpt>
      <trkpt lat="47.51093" lon="6.77779">
        <ele>338.7</ele>
        <time>2014-10-31T15:37:01.000Z</time>
      </trkpt>
      <trkpt lat="47.51097" lon="6.77779">
        <ele>341</ele>
        <time>2014-10-31T15:37:02.000Z</time>
      </trkpt>
      <trkpt lat="47.511" lon="6.7778">
        <ele>342.6</ele>
        <time>2014-10-31T15:37:02.999Z</time>
      </trkpt>
      <trkpt lat="47.51104" lon="6.7778">
        <ele>341.1</ele>
        <time>2014-10-31T15:37:04.000Z</time>
      </trkpt>
      <trkpt lat="47.51108" lon="6.7778">
        <ele>341.1</ele>
        <time>2014-10-31T15:37:05.000Z</time>
      </trkpt>
      <trkpt lat="47.51112" lon="6.7778">
        <ele>341.7</ele>
        <time>2014-10-31T15:37:06.000Z</time>
      </trkpt>
      <trkpt lat="47.51116" lon="6.77781">
        <ele>341.8</ele>
        <time>2014-10-31T15:37:07.000Z</time>
      </trkpt>
      <trkpt lat="47.5112" lon="6.77781">
        <ele>341</ele>
        <time>2014-10-31T15:37:08.000Z</time>
      </trkpt>
      <trkpt lat="47.51124" lon="6.77782">
        <ele>340</ele>
        <time>2014-10-31T15:37:09.000Z</time>
      </trkpt>
      <trkpt lat="47.51128" lon="6.77782">
        <ele>339.1</ele>
        <time>2014-10-31T15:37:10.000Z</time>
      </trkpt>
      <trkpt lat="47.51132" lon="6.77782">
        <ele>339.2</ele>
        <time>2014-10-31T15:37:11.000Z</time>
      </trkpt>
      <trkpt lat="47.51136" lon="6.77783">
        <ele>338.5</ele>
        <time>2014-10-31T15:37:12.000Z</time>
      </trkpt>
      <trkpt lat="47.51139" lon="6.77784">
        <ele>338.6</ele>
        <time>2014-10-31T15:37:13.000Z</time>
      </trkpt>
      <trkpt lat="47.51142" lon="6.77784">
        <ele>338.6</ele>
        <time>2014-10-31T15:37:14.000Z</time>
      </trkpt>
      <trkpt lat="47.51146" lon="6.77784">
        <ele>339</ele>
        <time>2014-10-31T15:37:15.000Z</time>
      </trkpt>
      <trkpt lat="47.51148" lon="6.77785">
        <ele>339.5</ele>
        <time>2014-10-31T15:37:16.000Z</time>
      </trkpt>
      <trkpt lat="47.5115" lon="6.77785">
        <ele>338.5</ele>
        <time>2014-10-31T15:37:17.000Z</time>
      </trkpt>
      <trkpt lat="47.51153" lon="6.77785">
        <ele>339.1</ele>
        <time>2014-10-31T15:37:18.000Z</time>
      </trkpt>
      <trkpt lat="47.51155" lon="6.77785">
        <ele>339.5</ele>
        <time>2014-10-31T15:37:19.000Z</time>
      </trkpt>
      <trkpt lat="47.51158" lon="6.77785">
        <ele>338.2</ele>
        <time>2014-10-31T15:37:20.000Z</time>
      </trkpt>
      <trkpt lat="47.51161" lon="6.77784">
        <ele>337</ele>
        <time>2014-10-31T15:37:21.000Z</time>
      </trkpt>
      <trkpt lat="47.51164" lon="6.77784">
        <ele>337.8</ele>
        <time>2014-10-31T15:37:22.000Z</time>
      </trkpt>
      <trkpt lat="47.51167" lon="6.77784">
        <ele>336.3</ele>
        <time>2014-10-31T15:37:23.000Z</time>
      </trkpt>
      <trkpt lat="47.51169" lon="6.77784">
        <ele>335</ele>
        <time>2014-10-31T15:37:24.000Z</time>
      </trkpt>
      <trkpt lat="47.51172" lon="6.77784">
        <ele>334.3</ele>
        <time>2014-10-31T15:37:25.000Z</time>
      </trkpt>
      <trkpt lat="47.51174" lon="6.77784">
        <ele>334.6</ele>
        <time>2014-10-31T15:37:26.000Z</time>
      </trkpt>
      <trkpt lat="47.51176" lon="6.77784">
        <ele>334.8</ele>
        <time>2014-10-31T15:37:27.000Z</time>
      </trkpt>
      <trkpt lat="47.51178" lon="6.77784">
        <ele>335.8</ele>
        <time>2014-10-31T15:37:28.000Z</time>
      </trkpt>
      <trkpt lat="47.51183" lon="6.77784">
        <ele>335.2</ele>
        <time>2014-10-31T15:37:30.000Z</time>
      </trkpt>
      <trkpt lat="47.51185" lon="6.77784">
        <ele>335.6</ele>
        <time>2014-10-31T15:37:31.000Z</time>
      </trkpt>
      <trkpt lat="47.51189" lon="6.77783">
        <ele>335.8</ele>
        <time>2014-10-31T15:37:33.000Z</time>
      </trkpt>
      <trkpt lat="47.51191" lon="6.77784">
        <ele>336.8</ele>
        <time>2014-10-31T15:37:34.000Z</time>
      </trkpt>
      <trkpt lat="47.51195" lon="6.77784">
        <ele>336.6</ele>
        <time>2014-10-31T15:37:36.000Z</time>
      </trkpt>
      <trkpt lat="47.51197" lon="6.77784">
        <ele>336.5</ele>
        <time>2014-10-31T15:37:37.000Z</time>
      </trkpt>
      <trkpt lat="47.512" lon="6.77783">
        <ele>337.9</ele>
        <time>2014-10-31T15:37:39.000Z</time>
      </trkpt>
      <trkpt lat="47.51202" lon="6.77783">
        <ele>337.7</ele>
        <time>2014-10-31T15:37:40.000Z</time>
      </trkpt>
      <trkpt lat="47.51206" lon="6.77781">
        <ele>338.6</ele>
        <time>2014-10-31T15:37:42.000Z</time>
      </trkpt>
      <trkpt lat="47.51207" lon="6.7778">
        <ele>338.5</ele>
        <time>2014-10-31T15:37:43.000Z</time>
      </trkpt>
      <trkpt lat="47.51211" lon="6.77781">
        <ele>338.4</ele>
        <time>2014-10-31T15:37:45.000Z</time>
      </trkpt>
      <trkpt lat="47.51213" lon="6.77781">
        <ele>338.3</ele>
        <time>2014-10-31T15:37:46.000Z</time>
      </trkpt>
      <trkpt lat="47.51217" lon="6.77781">
        <ele>338.4</ele>
        <time>2014-10-31T15:37:48.000Z</time>
      </trkpt>
      <trkpt lat="47.51219" lon="6.77781">
        <ele>338.5</ele>
        <time>2014-10-31T15:37:49.000Z</time>
      </trkpt>
      <trkpt lat="47.51223" lon="6.7778">
        <ele>338.5</ele>
        <time>2014-10-31T15:37:51.000Z</time>
      </trkpt>
      <trkpt lat="47.51225" lon="6.77779">
        <ele>338.7</ele>
        <time>2014-10-31T15:37:52.000Z</time>
      </trkpt>
      <trkpt lat="47.51231" lon="6.77779">
        <ele>340.1</ele>
        <time>2014-10-31T15:37:55.000Z</time>
      </trkpt>
      <trkpt lat="47.51235" lon="6.77779">
        <ele>340.3</ele>
        <time>2014-10-31T15:37:57.000Z</time>
      </trkpt>
      <trkpt lat="47.51237" lon="6.77779">
        <ele>340.9</ele>
        <time>2014-10-31T15:37:58.000Z</time>
      </trkpt>
      <trkpt lat="47.51241" lon="6.7778">
        <ele>341.6</ele>
        <time>2014-10-31T15:38:00.000Z</time>
      </trkpt>
      <trkpt lat="47.51243" lon="6.7778">
        <ele>340.9</ele>
        <time>2014-10-31T15:38:01.000Z</time>
      </trkpt>
      <trkpt lat="47.51247" lon="6.77781">
        <ele>341.6</ele>
        <time>2014-10-31T15:38:03.000Z</time>
      </trkpt>
      <trkpt lat="47.51249" lon="6.7778">
        <ele>341.5</ele>
        <time>2014-10-31T15:38:04.000Z</time>
      </trkpt>
      <trkpt lat="47.51254" lon="6.77781">
        <ele>339.8</ele>
        <time>2014-10-31T15:38:06.000Z</time>
      </trkpt>
      <trkpt lat="47.51256" lon="6.77781">
        <ele>339.2</ele>
        <time>2014-10-31T15:38:07.000Z</time>
      </trkpt>
      <trkpt lat="47.51259" lon="6.77782">
        <ele>339.7</ele>
        <time>2014-10-31T15:38:08.000Z</time>
      </trkpt>
      <trkpt lat="47.51261" lon="6.77782">
        <ele>339.8</ele>
        <time>2014-10-31T15:38:09.000Z</time>
      </trkpt>
      <trkpt lat="47.51265" lon="6.77782">
        <ele>341.9</ele>
        <time>2014-10-31T15:38:11.000Z</time>
      </trkpt>
      <trkpt lat="47.51267" lon="6.77782">
        <ele>342</ele>
        <time>2014-10-31T15:38:12.000Z</time>
      </trkpt>
      <trkpt lat="47.5127" lon="6.77782">
        <ele>343.1</ele>
        <time>2014-10-31T15:38:14.000Z</time>
      </trkpt>
      <trkpt lat="47.51272" lon="6.77781">
        <ele>344.1</ele>
        <time>2014-10-31T15:38:15.000Z</time>
      </trkpt>
      <trkpt lat="47.51276" lon="6.77781">
        <ele>345.8</ele>
        <time>2014-10-31T15:38:17.000Z</time>
      </trkpt>
      <trkpt lat="47.51278" lon="6.77781">
        <ele>346.9</ele>
        <time>2014-10-31T15:38:18.000Z</time>
      </trkpt>
      <trkpt lat="47.51282" lon="6.7778">
        <ele>346.4</ele>
        <time>2014-10-31T15:38:20.000Z</time>
      </trkpt>
      <trkpt lat="47.51284" lon="6.77779">
        <ele>347.1</ele>
        <time>2014-10-31T15:38:21.000Z</time>
      </trkpt>
      <trkpt lat="47.51288" lon="6.77778">
        <ele>348.6</ele>
        <time>2014-10-31T15:38:23.000Z</time>
      </trkpt>
      <trkpt lat="47.5129" lon="6.77778">
        <ele>348.9</ele>
        <time>2014-10-31T15:38:24.000Z</time>
      </trkpt>
      <trkpt lat="47.51295" lon="6.77778">
        <ele>348.2</ele>
        <time>2014-10-31T15:38:26.000Z</time>
      </trkpt>
      <trkpt lat="47.51297" lon="6.77778">
        <ele>348.5</ele>
        <time>2014-10-31T15:38:27.000Z</time>
      </trkpt>
      <trkpt lat="47.51299" lon="6.77778">
        <ele>348.7</ele>
        <time>2014-10-31T15:38:28.000Z</time>
      </trkpt>
      <trkpt lat="47.51301" lon="6.77778">
        <ele>348.6</ele>
        <time>2014-10-31T15:38:29.000Z</time>
      </trkpt>
      <trkpt lat="47.51305" lon="6.77778">
        <ele>348.6</ele>
        <time>2014-10-31T15:38:31.000Z</time>
      </trkpt>
      <trkpt lat="47.51306" lon="6.77777">
        <ele>348.5</ele>
        <time>2014-10-31T15:38:32.000Z</time>
      </trkpt>
      <trkpt lat="47.51309" lon="6.77777">
        <ele>350</ele>
        <time>2014-10-31T15:38:34.000Z</time>
      </trkpt>
      <trkpt lat="47.51311" lon="6.77776">
        <ele>350.1</ele>
        <time>2014-10-31T15:38:35.000Z</time>
      </trkpt>
      <trkpt lat="47.51314" lon="6.77775">
        <ele>350.6</ele>
        <time>2014-10-31T15:38:37.000Z</time>
      </trkpt>
      <trkpt lat="47.51316" lon="6.77774">
        <ele>349.1</ele>
        <time>2014-10-31T15:38:38.000Z</time>
      </trkpt>
      <trkpt lat="47.51319" lon="6.77772">
        <ele>351.5</ele>
        <time>2014-10-31T15:38:40.000Z</time>
      </trkpt>
      <trkpt lat="47.51321" lon="6.77772">
        <ele>351.9</ele>
        <time>2014-10-31T15:38:41.000Z</time>
      </trkpt>
      <trkpt lat="47.51324" lon="6.77773">
        <ele>352.7</ele>
        <time>2014-10-31T15:38:44.000Z</time>
      </trkpt>
      <trkpt lat="47.51325" lon="6.77774">
        <ele>352.8</ele>
        <time>2014-10-31T15:38:45.000Z</time>
      </trkpt>
      <trkpt lat="47.51327" lon="6.77778">
        <ele>356.7</ele>
        <time>2014-10-31T15:38:52.000Z</time>
      </trkpt>
      <trkpt lat="47.51337" lon="6.77778">
        <ele>358.5</ele>
        <time>2014-10-31T15:39:00.000Z</time>
      </trkpt>
      <trkpt lat="47.5134" lon="6.77774">
        <ele>358.4</ele>
        <time>2014-10-31T15:39:02.000Z</time>
      </trkpt>
      <trkpt lat="47.51342" lon="6.77773">
        <ele>358.7</ele>
        <time>2014-10-31T15:39:03.000Z</time>
      </trkpt>
      <trkpt lat="47.51346" lon="6.77769">
        <ele>360.6</ele>
        <time>2014-10-31T15:39:05.000Z</time>
      </trkpt>
      <trkpt lat="47.51347" lon="6.77767">
        <ele>360.6</ele>
        <time>2014-10-31T15:39:06.000Z</time>
      </trkpt>
      <trkpt lat="47.51351" lon="6.77765">
        <ele>360.8</ele>
        <time>2014-10-31T15:39:08.000Z</time>
      </trkpt>
      <trkpt lat="47.51353" lon="6.77764">
        <ele>360.4</ele>
        <time>2014-10-31T15:39:09.000Z</time>
      </trkpt>
      <trkpt lat="47.51356" lon="6.77763">
        <ele>360.6</ele>
        <time>2014-10-31T15:39:10.999Z</time>
      </trkpt>
      <trkpt lat="47.51357" lon="6.77762">
        <ele>360.9</ele>
        <time>2014-10-31T15:39:12.000Z</time>
      </trkpt>
      <trkpt lat="47.5136" lon="6.77761">
        <ele>360.5</ele>
        <time>2014-10-31T15:39:14.000Z</time>
      </trkpt>
      <trkpt lat="47.51362" lon="6.7776">
        <ele>361.2</ele>
        <time>2014-10-31T15:39:15.000Z</time>
      </trkpt>
      <trkpt lat="47.51366" lon="6.77758">
        <ele>359.1</ele>
        <time>2014-10-31T15:39:17.000Z</time>
      </trkpt>
      <trkpt lat="47.51368" lon="6.77757">
        <ele>358</ele>
        <time>2014-10-31T15:39:18.000Z</time>
      </trkpt>
      <trkpt lat="47.51372" lon="6.77756">
        <ele>356</ele>
        <time>2014-10-31T15:39:20.000Z</time>
      </trkpt>
      <trkpt lat="47.51374" lon="6.77755">
        <ele>355.6</ele>
        <time>2014-10-31T15:39:21.001Z</time>
      </trkpt>
      <trkpt lat="47.51377" lon="6.77755">
        <ele>354.8</ele>
        <time>2014-10-31T15:39:22.000Z</time>
      </trkpt>
      <trkpt lat="47.51379" lon="6.77754">
        <ele>354.5</ele>
        <time>2014-10-31T15:39:23.000Z</time>
      </trkpt>
      <trkpt lat="47.51382" lon="6.77753">
        <ele>356.9</ele>
        <time>2014-10-31T15:39:25.000Z</time>
      </trkpt>
      <trkpt lat="47.51384" lon="6.77752">
        <ele>356.6</ele>
        <time>2014-10-31T15:39:26.000Z</time>
      </trkpt>
      <trkpt lat="47.51388" lon="6.7775">
        <ele>356.6</ele>
        <time>2014-10-31T15:39:28.000Z</time>
      </trkpt>
      <trkpt lat="47.51389" lon="6.77749">
        <ele>357.7</ele>
        <time>2014-10-31T15:39:29.000Z</time>
      </trkpt>
      <trkpt lat="47.51393" lon="6.77747">
        <ele>357.9</ele>
        <time>2014-10-31T15:39:31.000Z</time>
      </trkpt>
      <trkpt lat="47.51395" lon="6.77746">
        <ele>357.4</ele>
        <time>2014-10-31T15:39:32.000Z</time>
      </trkpt>
      <trkpt lat="47.51398" lon="6.77744">
        <ele>358.5</ele>
        <time>2014-10-31T15:39:34.000Z</time>
      </trkpt>
      <trkpt lat="47.514" lon="6.77742">
        <ele>359.5</ele>
        <time>2014-10-31T15:39:35.000Z</time>
      </trkpt>
      <trkpt lat="47.51403" lon="6.77739">
        <ele>358.7</ele>
        <time>2014-10-31T15:39:37.000Z</time>
      </trkpt>
      <trkpt lat="47.51405" lon="6.77737">
        <ele>358.4</ele>
        <time>2014-10-31T15:39:38.000Z</time>
      </trkpt>
      <trkpt lat="47.51408" lon="6.77733">
        <ele>358.9</ele>
        <time>2014-10-31T15:39:40.000Z</time>
      </trkpt>
      <trkpt lat="47.51409" lon="6.77731">
        <ele>359.8</ele>
        <time>2014-10-31T15:39:41.000Z</time>
      </trkpt>
      <trkpt lat="47.51412" lon="6.77728">
        <ele>360.1</ele>
        <time>2014-10-31T15:39:43.000Z</time>
      </trkpt>
      <trkpt lat="47.51414" lon="6.77727">
        <ele>360.7</ele>
        <time>2014-10-31T15:39:44.000Z</time>
      </trkpt>
      <trkpt lat="47.51418" lon="6.77726">
        <ele>365.7</ele>
        <time>2014-10-31T15:39:47.000Z</time>
      </trkpt>
      <trkpt lat="47.5142" lon="6.77726">
        <ele>365.9</ele>
        <time>2014-10-31T15:39:48.000Z</time>
      </trkpt>
      <trkpt lat="47.51423" lon="6.77726">
        <ele>366.5</ele>
        <time>2014-10-31T15:39:50.000Z</time>
      </trkpt>
      <trkpt lat="47.51424" lon="6.77726">
        <ele>368</ele>
        <time>2014-10-31T15:39:51.000Z</time>
      </trkpt>
      <trkpt lat="47.51428" lon="6.77727">
        <ele>373.8</ele>
        <time>2014-10-31T15:39:55.000Z</time>
      </trkpt>
      <trkpt lat="47.5143" lon="6.77727">
        <ele>371.1</ele>
        <time>2014-10-31T15:39:56.000Z</time>
      </trkpt>
      <trkpt lat="47.51433" lon="6.77726">
        <ele>371.4</ele>
        <time>2014-10-31T15:39:58.000Z</time>
      </trkpt>
      <trkpt lat="47.51436" lon="6.77726">
        <ele>371.7</ele>
        <time>2014-10-31T15:39:59.000Z</time>
      </trkpt>
      <trkpt lat="47.51439" lon="6.77725">
        <ele>371.7</ele>
        <time>2014-10-31T15:40:01.000Z</time>
      </trkpt>
      <trkpt lat="47.51441" lon="6.77725">
        <ele>372</ele>
        <time>2014-10-31T15:40:01.998Z</time>
      </trkpt>
      <trkpt lat="47.51443" lon="6.77723">
        <ele>368.8</ele>
        <time>2014-10-31T15:40:03.000Z</time>
      </trkpt>
      <trkpt lat="47.51445" lon="6.77722">
        <ele>369.7</ele>
        <time>2014-10-31T15:40:04.000Z</time>
      </trkpt>
      <trkpt lat="47.51448" lon="6.77719">
        <ele>371.3</ele>
        <time>2014-10-31T15:40:06.000Z</time>
      </trkpt>
      <trkpt lat="47.51449" lon="6.77718">
        <ele>372.5</ele>
        <time>2014-10-31T15:40:06.999Z</time>
      </trkpt>
      <trkpt lat="47.51453" lon="6.77717">
        <ele>371.8</ele>
        <time>2014-10-31T15:40:10.000Z</time>
      </trkpt>
      <trkpt lat="47.51455" lon="6.77717">
        <ele>371.4</ele>
        <time>2014-10-31T15:40:11.000Z</time>
      </trkpt>
      <trkpt lat="47.51459" lon="6.77718">
        <ele>373.7</ele>
        <time>2014-10-31T15:40:13.000Z</time>
      </trkpt>
      <trkpt lat="47.51461" lon="6.77719">
        <ele>375.3</ele>
        <time>2014-10-31T15:40:14.000Z</time>
      </trkpt>
      <trkpt lat="47.51464" lon="6.77723">
        <ele>377.6</ele>
        <time>2014-10-31T15:40:16.000Z</time>
      </trkpt>
      <trkpt lat="47.51465" lon="6.77724">
        <ele>378.3</ele>
        <time>2014-10-31T15:40:17.000Z</time>
      </trkpt>
      <trkpt lat="47.5147" lon="6.77724">
        <ele>377.5</ele>
        <time>2014-10-31T15:40:19.000Z</time>
      </trkpt>
      <trkpt lat="47.51472" lon="6.77725">
        <ele>376.9</ele>
        <time>2014-10-31T15:40:20.000Z</time>
      </trkpt>
      <trkpt lat="47.51475" lon="6.77725">
        <ele>376.4</ele>
        <time>2014-10-31T15:40:21.000Z</time>
      </trkpt>
      <trkpt lat="47.51477" lon="6.77724">
        <ele>375.2</ele>
        <time>2014-10-31T15:40:22.000Z</time>
      </trkpt>
      <trkpt lat="47.51481" lon="6.77724">
        <ele>374.2</ele>
        <time>2014-10-31T15:40:24.000Z</time>
      </trkpt>
      <trkpt lat="47.51482" lon="6.77723">
        <ele>372.8</ele>
        <time>2014-10-31T15:40:25.000Z</time>
      </trkpt>
      <trkpt lat="47.51485" lon="6.77722">
        <ele>373.6</ele>
        <time>2014-10-31T15:40:27.000Z</time>
      </trkpt>
      <trkpt lat="47.51487" lon="6.77722">
        <ele>373.5</ele>
        <time>2014-10-31T15:40:28.000Z</time>
      </trkpt>
      <trkpt lat="47.5149" lon="6.7772">
        <ele>373.7</ele>
        <time>2014-10-31T15:40:30.000Z</time>
      </trkpt>
      <trkpt lat="47.51491" lon="6.7772">
        <ele>374.8</ele>
        <time>2014-10-31T15:40:31.000Z</time>
      </trkpt>
      <trkpt lat="47.51495" lon="6.7772">
        <ele>377.6</ele>
        <time>2014-10-31T15:40:34.000Z</time>
      </trkpt>
      <trkpt lat="47.51496" lon="6.7772">
        <ele>378.4</ele>
        <time>2014-10-31T15:40:35.000Z</time>
      </trkpt>
      <trkpt lat="47.515" lon="6.7772">
        <ele>377.2</ele>
        <time>2014-10-31T15:40:37.000Z</time>
      </trkpt>
      <trkpt lat="47.51502" lon="6.7772">
        <ele>377.1</ele>
        <time>2014-10-31T15:40:38.000Z</time>
      </trkpt>
      <trkpt lat="47.51506" lon="6.7772">
        <ele>380</ele>
        <time>2014-10-31T15:40:40.000Z</time>
      </trkpt>
      <trkpt lat="47.51508" lon="6.7772">
        <ele>380.1</ele>
        <time>2014-10-31T15:40:41.000Z</time>
      </trkpt>
      <trkpt lat="47.51512" lon="6.7772">
        <ele>379.3</ele>
        <time>2014-10-31T15:40:43.000Z</time>
      </trkpt>
      <trkpt lat="47.51514" lon="6.77719">
        <ele>378.3</ele>
        <time>2014-10-31T15:40:44.000Z</time>
      </trkpt>
      <trkpt lat="47.51518" lon="6.77719">
        <ele>378.1</ele>
        <time>2014-10-31T15:40:46.000Z</time>
      </trkpt>
      <trkpt lat="47.5152" lon="6.77718">
        <ele>377.3</ele>
        <time>2014-10-31T15:40:47.000Z</time>
      </trkpt>
      <trkpt lat="47.51524" lon="6.77717">
        <ele>377.9</ele>
        <time>2014-10-31T15:40:49.000Z</time>
      </trkpt>
      <trkpt lat="47.51526" lon="6.77716">
        <ele>378</ele>
        <time>2014-10-31T15:40:50.000Z</time>
      </trkpt>
      <trkpt lat="47.5153" lon="6.77715">
        <ele>376.7</ele>
        <time>2014-10-31T15:40:52.000Z</time>
      </trkpt>
      <trkpt lat="47.51535" lon="6.77715">
        <ele>377.1</ele>
        <time>2014-10-31T15:40:55.000Z</time>
      </trkpt>
      <trkpt lat="47.51539" lon="6.77715">
        <ele>376.6</ele>
        <time>2014-10-31T15:40:57.000Z</time>
      </trkpt>
      <trkpt lat="47.5154" lon="6.77715">
        <ele>377</ele>
        <time>2014-10-31T15:40:58.000Z</time>
      </trkpt>
      <trkpt lat="47.51544" lon="6.77716">
        <ele>378.1</ele>
        <time>2014-10-31T15:41:00.000Z</time>
      </trkpt>
      <trkpt lat="47.51545" lon="6.77716">
        <ele>377.8</ele>
        <time>2014-10-31T15:41:01.000Z</time>
      </trkpt>
      <trkpt lat="47.51549" lon="6.77718">
        <ele>380.1</ele>
        <time>2014-10-31T15:41:03.000Z</time>
      </trkpt>
      <trkpt lat="47.51551" lon="6.77719">
        <ele>380.4</ele>
        <time>2014-10-31T15:41:04.000Z</time>
      </trkpt>
      <trkpt lat="47.51555" lon="6.7772">
        <ele>380.6</ele>
        <time>2014-10-31T15:41:06.000Z</time>
      </trkpt>
      <trkpt lat="47.51556" lon="6.7772">
        <ele>380.6</ele>
        <time>2014-10-31T15:41:07.000Z</time>
      </trkpt>
      <trkpt lat="47.5156" lon="6.77721">
        <ele>379.1</ele>
        <time>2014-10-31T15:41:09.000Z</time>
      </trkpt>
      <trkpt lat="47.51561" lon="6.77721">
        <ele>379</ele>
        <time>2014-10-31T15:41:10.000Z</time>
      </trkpt>
      <trkpt lat="47.51564" lon="6.77722">
        <ele>382.1</ele>
        <time>2014-10-31T15:41:12.000Z</time>
      </trkpt>
      <trkpt lat="47.51565" lon="6.77723">
        <ele>383.2</ele>
        <time>2014-10-31T15:41:13.000Z</time>
      </trkpt>
      <trkpt lat="47.51569" lon="6.77725">
        <ele>383.7</ele>
        <time>2014-10-31T15:41:15.000Z</time>
      </trkpt>
      <trkpt lat="47.51571" lon="6.77725">
        <ele>384.6</ele>
        <time>2014-10-31T15:41:16.000Z</time>
      </trkpt>
      <trkpt lat="47.51574" lon="6.77726">
        <ele>385.1</ele>
        <time>2014-10-31T15:41:18.000Z</time>
      </trkpt>
      <trkpt lat="47.51575" lon="6.77727">
        <ele>385.6</ele>
        <time>2014-10-31T15:41:19.000Z</time>
      </trkpt>
      <trkpt lat="47.51578" lon="6.77729">
        <ele>387.9</ele>
        <time>2014-10-31T15:41:21.000Z</time>
      </trkpt>
      <trkpt lat="47.51579" lon="6.77731">
        <ele>389.1</ele>
        <time>2014-10-31T15:41:22.000Z</time>
      </trkpt>
      <trkpt lat="47.5158" lon="6.77737">
        <ele>391.8</ele>
        <time>2014-10-31T15:41:24.000Z</time>
      </trkpt>
      <trkpt lat="47.51581" lon="6.7774">
        <ele>392.8</ele>
        <time>2014-10-31T15:41:25.000Z</time>
      </trkpt>
      <trkpt lat="47.51582" lon="6.77745">
        <ele>394.2</ele>
        <time>2014-10-31T15:41:26.000Z</time>
      </trkpt>
      <trkpt lat="47.51584" lon="6.77747">
        <ele>392.9</ele>
        <time>2014-10-31T15:41:27.000Z</time>
      </trkpt>
      <trkpt lat="47.51587" lon="6.7775">
        <ele>392.4</ele>
        <time>2014-10-31T15:41:29.000Z</time>
      </trkpt>
      <trkpt lat="47.51589" lon="6.7775">
        <ele>392.5</ele>
        <time>2014-10-31T15:41:30.000Z</time>
      </trkpt>
      <trkpt lat="47.51593" lon="6.7775">
        <ele>393.2</ele>
        <time>2014-10-31T15:41:32.000Z</time>
      </trkpt>
      <trkpt lat="47.51595" lon="6.7775">
        <ele>393.7</ele>
        <time>2014-10-31T15:41:33.000Z</time>
      </trkpt>
      <trkpt lat="47.51599" lon="6.77751">
        <ele>393.8</ele>
        <time>2014-10-31T15:41:35.000Z</time>
      </trkpt>
      <trkpt lat="47.51601" lon="6.7775">
        <ele>393</ele>
        <time>2014-10-31T15:41:36.000Z</time>
      </trkpt>
      <trkpt lat="47.51605" lon="6.77749">
        <ele>394.8</ele>
        <time>2014-10-31T15:41:38.000Z</time>
      </trkpt>
      <trkpt lat="47.51608" lon="6.77749">
        <ele>395</ele>
        <time>2014-10-31T15:41:39.000Z</time>
      </trkpt>
      <trkpt lat="47.51609" lon="6.77748">
        <ele>395.9</ele>
        <time>2014-10-31T15:41:40.000Z</time>
      </trkpt>
      <trkpt lat="47.51614" lon="6.77749">
        <ele>395.7</ele>
        <time>2014-10-31T15:41:41.000Z</time>
      </trkpt>
      <trkpt lat="47.51616" lon="6.7775">
        <ele>395</ele>
        <time>2014-10-31T15:41:42.000Z</time>
      </trkpt>
      <trkpt lat="47.51619" lon="6.77751">
        <ele>396.5</ele>
        <time>2014-10-31T15:41:43.000Z</time>
      </trkpt>
      <trkpt lat="47.51622" lon="6.77752">
        <ele>394.3</ele>
        <time>2014-10-31T15:41:44.000Z</time>
      </trkpt>
      <trkpt lat="47.51624" lon="6.77753">
        <ele>395.2</ele>
        <time>2014-10-31T15:41:45.000Z</time>
      </trkpt>
      <trkpt lat="47.51627" lon="6.77754">
        <ele>392</ele>
        <time>2014-10-31T15:41:46.000Z</time>
      </trkpt>
      <trkpt lat="47.5163" lon="6.77756">
        <ele>390.8</ele>
        <time>2014-10-31T15:41:47.000Z</time>
      </trkpt>
      <trkpt lat="47.51633" lon="6.77757">
        <ele>390.5</ele>
        <time>2014-10-31T15:41:48.000Z</time>
      </trkpt>
      <trkpt lat="47.51637" lon="6.77758">
        <ele>390.2</ele>
        <time>2014-10-31T15:41:49.000Z</time>
      </trkpt>
      <trkpt lat="47.5164" lon="6.77759">
        <ele>392</ele>
        <time>2014-10-31T15:41:50.000Z</time>
      </trkpt>
      <trkpt lat="47.51641" lon="6.77759">
        <ele>393.1</ele>
        <time>2014-10-31T15:41:51.000Z</time>
      </trkpt>
      <trkpt lat="47.51645" lon="6.77759">
        <ele>390.4</ele>
        <time>2014-10-31T15:41:53.000Z</time>
      </trkpt>
      <trkpt lat="47.51654" lon="6.77756">
        <ele>396</ele>
        <time>2014-10-31T15:42:01.000Z</time>
      </trkpt>
      <trkpt lat="47.51657" lon="6.77757">
        <ele>397.4</ele>
        <time>2014-10-31T15:42:03.000Z</time>
      </trkpt>
      <trkpt lat="47.51658" lon="6.77758">
        <ele>399.4</ele>
        <time>2014-10-31T15:42:04.000Z</time>
      </trkpt>
      <trkpt lat="47.51662" lon="6.7776">
        <ele>399.5</ele>
        <time>2014-10-31T15:42:06.000Z</time>
      </trkpt>
      <trkpt lat="47.51663" lon="6.7776">
        <ele>398.9</ele>
        <time>2014-10-31T15:42:07.000Z</time>
      </trkpt>
      <trkpt lat="47.51666" lon="6.77762">
        <ele>402.8</ele>
        <time>2014-10-31T15:42:08.000Z</time>
      </trkpt>
      <trkpt lat="47.51668" lon="6.77763">
        <ele>405.1</ele>
        <time>2014-10-31T15:42:09.000Z</time>
      </trkpt>
      <trkpt lat="47.51671" lon="6.77765">
        <ele>410.1</ele>
        <time>2014-10-31T15:42:11.001Z</time>
      </trkpt>
      <trkpt lat="47.51674" lon="6.77765">
        <ele>409.6</ele>
        <time>2014-10-31T15:42:12.000Z</time>
      </trkpt>
      <trkpt lat="47.51676" lon="6.77765">
        <ele>409.8</ele>
        <time>2014-10-31T15:42:13.000Z</time>
      </trkpt>
      <trkpt lat="47.51679" lon="6.77764">
        <ele>409.8</ele>
        <time>2014-10-31T15:42:14.000Z</time>
      </trkpt>
      <trkpt lat="47.51681" lon="6.77762">
        <ele>410.8</ele>
        <time>2014-10-31T15:42:15.000Z</time>
      </trkpt>
      <trkpt lat="47.51683" lon="6.77761">
        <ele>413</ele>
        <time>2014-10-31T15:42:16.000Z</time>
      </trkpt>
      <trkpt lat="47.51686" lon="6.77757">
        <ele>412.2</ele>
        <time>2014-10-31T15:42:18.000Z</time>
      </trkpt>
      <trkpt lat="47.51687" lon="6.77756">
        <ele>413.9</ele>
        <time>2014-10-31T15:42:19.000Z</time>
      </trkpt>
      <trkpt lat="47.51691" lon="6.77753">
        <ele>412.6</ele>
        <time>2014-10-31T15:42:21.000Z</time>
      </trkpt>
      <trkpt lat="47.51693" lon="6.77751">
        <ele>413.9</ele>
        <time>2014-10-31T15:42:22.000Z</time>
      </trkpt>
      <trkpt lat="47.51695" lon="6.77747">
        <ele>412.7</ele>
        <time>2014-10-31T15:42:24.000Z</time>
      </trkpt>
      <trkpt lat="47.51696" lon="6.77745">
        <ele>413.1</ele>
        <time>2014-10-31T15:42:25.001Z</time>
      </trkpt>
      <trkpt lat="47.51698" lon="6.7774">
        <ele>409.1</ele>
        <time>2014-10-31T15:42:27.000Z</time>
      </trkpt>
      <trkpt lat="47.51699" lon="6.77738">
        <ele>409.3</ele>
        <time>2014-10-31T15:42:28.000Z</time>
      </trkpt>
      <trkpt lat="47.51699" lon="6.77733">
        <ele>409</ele>
        <time>2014-10-31T15:42:30.000Z</time>
      </trkpt>
      <trkpt lat="47.517" lon="6.77731">
        <ele>409.1</ele>
        <time>2014-10-31T15:42:31.000Z</time>
      </trkpt>
      <trkpt lat="47.51701" lon="6.77725">
        <ele>408.6</ele>
        <time>2014-10-31T15:42:33.000Z</time>
      </trkpt>
      <trkpt lat="47.51702" lon="6.77722">
        <ele>408.4</ele>
        <time>2014-10-31T15:42:34.000Z</time>
      </trkpt>
      <trkpt lat="47.51704" lon="6.77717">
        <ele>408.3</ele>
        <time>2014-10-31T15:42:36.000Z</time>
      </trkpt>
      <trkpt lat="47.51705" lon="6.77714">
        <ele>409.3</ele>
        <time>2014-10-31T15:42:37.000Z</time>
      </trkpt>
      <trkpt lat="47.51706" lon="6.77709">
        <ele>408.8</ele>
        <time>2014-10-31T15:42:39.000Z</time>
      </trkpt>
      <trkpt lat="47.51707" lon="6.77706">
        <ele>408.7</ele>
        <time>2014-10-31T15:42:40.000Z</time>
      </trkpt>
      <trkpt lat="47.51708" lon="6.77703">
        <ele>409</ele>
        <time>2014-10-31T15:42:41.000Z</time>
      </trkpt>
      <trkpt lat="47.51709" lon="6.777">
        <ele>408.4</ele>
        <time>2014-10-31T15:42:42.000Z</time>
      </trkpt>
      <trkpt lat="47.51711" lon="6.77697">
        <ele>407.1</ele>
        <time>2014-10-31T15:42:43.000Z</time>
      </trkpt>
      <trkpt lat="47.51712" lon="6.77694">
        <ele>406.7</ele>
        <time>2014-10-31T15:42:44.000Z</time>
      </trkpt>
      <trkpt lat="47.51712" lon="6.77688">
        <ele>407.8</ele>
        <time>2014-10-31T15:42:46.000Z</time>
      </trkpt>
      <trkpt lat="47.51712" lon="6.77685">
        <ele>408.7</ele>
        <time>2014-10-31T15:42:47.000Z</time>
      </trkpt>
      <trkpt lat="47.51711" lon="6.77682">
        <ele>408.3</ele>
        <time>2014-10-31T15:42:48.000Z</time>
      </trkpt>
      <trkpt lat="47.51711" lon="6.77678">
        <ele>407</ele>
        <time>2014-10-31T15:42:49.000Z</time>
      </trkpt>
      <trkpt lat="47.5171" lon="6.77675">
        <ele>406.8</ele>
        <time>2014-10-31T15:42:50.000Z</time>
      </trkpt>
      <trkpt lat="47.5171" lon="6.77671">
        <ele>406.5</ele>
        <time>2014-10-31T15:42:51.000Z</time>
      </trkpt>
      <trkpt lat="47.5171" lon="6.77666">
        <ele>405.6</ele>
        <time>2014-10-31T15:42:52.000Z</time>
      </trkpt>
      <trkpt lat="47.5171" lon="6.77656">
        <ele>404.9</ele>
        <time>2014-10-31T15:42:55.000Z</time>
      </trkpt>
      <trkpt lat="47.51711" lon="6.77652">
        <ele>405</ele>
        <time>2014-10-31T15:42:56.000Z</time>
      </trkpt>
      <trkpt lat="47.5171" lon="6.77647">
        <ele>404.1</ele>
        <time>2014-10-31T15:42:57.000Z</time>
      </trkpt>
      <trkpt lat="47.5171" lon="6.77643">
        <ele>404.6</ele>
        <time>2014-10-31T15:42:58.000Z</time>
      </trkpt>
      <trkpt lat="47.5171" lon="6.77639">
        <ele>404.8</ele>
        <time>2014-10-31T15:42:59.000Z</time>
      </trkpt>
      <trkpt lat="47.5171" lon="6.77635">
        <ele>405.2</ele>
        <time>2014-10-31T15:43:00.000Z</time>
      </trkpt>
      <trkpt lat="47.5171" lon="6.77632">
        <ele>406.3</ele>
        <time>2014-10-31T15:43:01.000Z</time>
      </trkpt>
      <trkpt lat="47.5171" lon="6.77628">
        <ele>407.1</ele>
        <time>2014-10-31T15:43:02.000Z</time>
      </trkpt>
      <trkpt lat="47.5171" lon="6.77625">
        <ele>406.4</ele>
        <time>2014-10-31T15:43:03.000Z</time>
      </trkpt>
      <trkpt lat="47.5171" lon="6.77621">
        <ele>406.1</ele>
        <time>2014-10-31T15:43:04.000Z</time>
      </trkpt>
      <trkpt lat="47.5171" lon="6.77617">
        <ele>405.7</ele>
        <time>2014-10-31T15:43:05.000Z</time>
      </trkpt>
      <trkpt lat="47.5171" lon="6.77613">
        <ele>405.6</ele>
        <time>2014-10-31T15:43:06.000Z</time>
      </trkpt>
      <trkpt lat="47.5171" lon="6.77609">
        <ele>405.3</ele>
        <time>2014-10-31T15:43:07.000Z</time>
      </trkpt>
      <trkpt lat="47.5171" lon="6.77605">
        <ele>405.3</ele>
        <time>2014-10-31T15:43:08.000Z</time>
      </trkpt>
      <trkpt lat="47.51711" lon="6.77602">
        <ele>406</ele>
        <time>2014-10-31T15:43:09.000Z</time>
      </trkpt>
      <trkpt lat="47.51712" lon="6.77597">
        <ele>406.7</ele>
        <time>2014-10-31T15:43:11.000Z</time>
      </trkpt>
      <trkpt lat="47.51713" lon="6.77595">
        <ele>407</ele>
        <time>2014-10-31T15:43:12.000Z</time>
      </trkpt>
      <trkpt lat="47.51715" lon="6.77589">
        <ele>406.8</ele>
        <time>2014-10-31T15:43:16.000Z</time>
      </trkpt>
      <trkpt lat="47.51716" lon="6.77587">
        <ele>406.6</ele>
        <time>2014-10-31T15:43:17.000Z</time>
      </trkpt>
      <trkpt lat="47.51717" lon="6.77584">
        <ele>405.9</ele>
        <time>2014-10-31T15:43:18.000Z</time>
      </trkpt>
      <trkpt lat="47.51718" lon="6.77581">
        <ele>405.7</ele>
        <time>2014-10-31T15:43:19.000Z</time>
      </trkpt>
      <trkpt lat="47.51718" lon="6.77577">
        <ele>405.5</ele>
        <time>2014-10-31T15:43:20.000Z</time>
      </trkpt>
      <trkpt lat="47.51718" lon="6.77574">
        <ele>404.9</ele>
        <time>2014-10-31T15:43:21.000Z</time>
      </trkpt>
      <trkpt lat="47.51716" lon="6.7757">
        <ele>403.9</ele>
        <time>2014-10-31T15:43:22.000Z</time>
      </trkpt>
      <trkpt lat="47.51715" lon="6.77566">
        <ele>403.6</ele>
        <time>2014-10-31T15:43:23.000Z</time>
      </trkpt>
      <trkpt lat="47.51714" lon="6.77561">
        <ele>402.8</ele>
        <time>2014-10-31T15:43:24.000Z</time>
      </trkpt>
      <trkpt lat="47.51714" lon="6.77557">
        <ele>403.4</ele>
        <time>2014-10-31T15:43:25.000Z</time>
      </trkpt>
      <trkpt lat="47.51714" lon="6.77551">
        <ele>403</ele>
        <time>2014-10-31T15:43:26.000Z</time>
      </trkpt>
      <trkpt lat="47.51714" lon="6.77546">
        <ele>403.1</ele>
        <time>2014-10-31T15:43:27.000Z</time>
      </trkpt>
      <trkpt lat="47.51715" lon="6.77541">
        <ele>402.9</ele>
        <time>2014-10-31T15:43:28.000Z</time>
      </trkpt>
      <trkpt lat="47.51716" lon="6.77535">
        <ele>402.9</ele>
        <time>2014-10-31T15:43:29.000Z</time>
      </trkpt>
      <trkpt lat="47.51717" lon="6.77529">
        <ele>403.2</ele>
        <time>2014-10-31T15:43:30.000Z</time>
      </trkpt>
      <trkpt lat="47.51718" lon="6.77523">
        <ele>403.7</ele>
        <time>2014-10-31T15:43:31.000Z</time>
      </trkpt>
      <trkpt lat="47.5172" lon="6.77517">
        <ele>402.7</ele>
        <time>2014-10-31T15:43:32.000Z</time>
      </trkpt>
      <trkpt lat="47.51721" lon="6.77511">
        <ele>402.9</ele>
        <time>2014-10-31T15:43:33.000Z</time>
      </trkpt>
      <trkpt lat="47.51722" lon="6.77505">
        <ele>402.4</ele>
        <time>2014-10-31T15:43:34.000Z</time>
      </trkpt>
      <trkpt lat="47.51723" lon="6.77499">
        <ele>401.6</ele>
        <time>2014-10-31T15:43:35.000Z</time>
      </trkpt>
      <trkpt lat="47.51724" lon="6.77494">
        <ele>401.4</ele>
        <time>2014-10-31T15:43:36.000Z</time>
      </trkpt>
      <trkpt lat="47.51726" lon="6.77489">
        <ele>400.9</ele>
        <time>2014-10-31T15:43:37.000Z</time>
      </trkpt>
      <trkpt lat="47.51727" lon="6.77484">
        <ele>400.5</ele>
        <time>2014-10-31T15:43:38.000Z</time>
      </trkpt>
      <trkpt lat="47.51729" lon="6.7748">
        <ele>399.8</ele>
        <time>2014-10-31T15:43:39.000Z</time>
      </trkpt>
      <trkpt lat="47.51731" lon="6.77477">
        <ele>400.2</ele>
        <time>2014-10-31T15:43:40.000Z</time>
      </trkpt>
      <trkpt lat="47.51734" lon="6.77475">
        <ele>401.6</ele>
        <time>2014-10-31T15:43:41.000Z</time>
      </trkpt>
      <trkpt lat="47.51738" lon="6.77474">
        <ele>402.3</ele>
        <time>2014-10-31T15:43:42.000Z</time>
      </trkpt>
      <trkpt lat="47.51741" lon="6.77475">
        <ele>402.8</ele>
        <time>2014-10-31T15:43:43.000Z</time>
      </trkpt>
      <trkpt lat="47.51745" lon="6.77476">
        <ele>403.5</ele>
        <time>2014-10-31T15:43:44.000Z</time>
      </trkpt>
      <trkpt lat="47.51749" lon="6.77477">
        <ele>404.3</ele>
        <time>2014-10-31T15:43:45.000Z</time>
      </trkpt>
      <trkpt lat="47.51753" lon="6.77478">
        <ele>404.3</ele>
        <time>2014-10-31T15:43:46.000Z</time>
      </trkpt>
      <trkpt lat="47.51759" lon="6.77481">
        <ele>405.4</ele>
        <time>2014-10-31T15:43:47.000Z</time>
      </trkpt>
      <trkpt lat="47.51763" lon="6.77482">
        <ele>405.4</ele>
        <time>2014-10-31T15:43:48.000Z</time>
      </trkpt>
      <trkpt lat="47.51768" lon="6.77483">
        <ele>404.9</ele>
        <time>2014-10-31T15:43:49.000Z</time>
      </trkpt>
      <trkpt lat="47.51774" lon="6.77484">
        <ele>405.4</ele>
        <time>2014-10-31T15:43:50.000Z</time>
      </trkpt>
      <trkpt lat="47.51779" lon="6.77486">
        <ele>404.9</ele>
        <time>2014-10-31T15:43:51.000Z</time>
      </trkpt>
      <trkpt lat="47.51784" lon="6.77489">
        <ele>404.7</ele>
        <time>2014-10-31T15:43:52.000Z</time>
      </trkpt>
      <trkpt lat="47.51807" lon="6.77474">
        <ele>397.7</ele>
        <time>2014-10-31T15:44:01.000Z</time>
      </trkpt>
      <trkpt lat="47.51807" lon="6.77481">
        <ele>397.8</ele>
        <time>2014-10-31T15:44:27.000Z</time>
      </trkpt>
      <trkpt lat="47.51806" lon="6.77481">
        <ele>398.8</ele>
        <time>2014-10-31T15:44:28.000Z</time>
      </trkpt>
      <trkpt lat="47.51804" lon="6.77482">
        <ele>403.2</ele>
        <time>2014-10-31T15:49:57.000Z</time>
      </trkpt>
      <trkpt lat="47.51801" lon="6.77482">
        <ele>366.7</ele>
        <time>2014-10-31T15:49:58.000Z</time>
      </trkpt>
      <trkpt lat="47.51803" lon="6.77481">
        <ele>402.8</ele>
        <time>2014-10-31T15:52:38.000Z</time>
      </trkpt>
    </trkseg>
  </trk>
</gpx>